<?xml version="1.0" encoding="UTF-8"?>
<gpx version="1.1" creator="https://www.youtrack.es" xsi:schemaLocation="http://www.topografix.com/GPX/1/1 http://www.topografix.com/GPX/1/1/gpx.xsd http://www.garmin.com/xmlschemas/GpxExtensions/v3 http://www.garmin.com/xmlschemas/GpxExtensionsv3.xsd http://www.garmin.com/xmlschemas/TrackPointExtension/v1 http://www.garmin.com/xmlschemas/TrackPointExtensionv1.xsd" xmlns:gpxtpx="http://www.garmin.com/xmlschemas/TrackPointExtension/v1" xmlns:gpxx="http://www.garmin.com/xmlschemas/GpxExtensions/v3" xmlns:xsi="http://www.w3.org/2001/XMLSchema-instance">
  <metadata>
    <link href="https://www.youtrack.es">
      <text>YouTrack.es</text>
    </link>
    <time>2026-05-10T16:15:35Z</time>
  </metadata>
  <trk>
    <src>https://www.youtrack.es</src>
    <link href="https://www.youtrack.es/ruta/2314-fitif">
      <text>YouTrack.es</text>
    </link>
    <trkseg>
      <trkpt lat="43.3651270" lon="-5.8696290">
        <ele>216.1</ele>
        <time>2018-09-15T11:14:13Z</time>
      </trkpt>
      <trkpt lat="43.3651270" lon="-5.8696290">
        <ele>216.1</ele>
        <time>2018-09-15T11:14:14Z</time>
      </trkpt>
      <trkpt lat="43.3651270" lon="-5.8696290">
        <ele>216.1</ele>
        <time>2018-09-15T11:14:15Z</time>
      </trkpt>
      <trkpt lat="43.3651270" lon="-5.8696290">
        <ele>216.1</ele>
        <time>2018-09-15T11:14:16Z</time>
      </trkpt>
      <trkpt lat="43.3651130" lon="-5.8696340">
        <ele>216.2</ele>
        <time>2018-09-15T11:14:17Z</time>
      </trkpt>
      <trkpt lat="43.3651300" lon="-5.8696460">
        <ele>216.4</ele>
        <time>2018-09-15T11:14:18Z</time>
      </trkpt>
      <trkpt lat="43.3651270" lon="-5.8696170">
        <ele>216.5</ele>
        <time>2018-09-15T11:14:19Z</time>
      </trkpt>
      <trkpt lat="43.3651150" lon="-5.8695920">
        <ele>216.7</ele>
        <time>2018-09-15T11:14:20Z</time>
      </trkpt>
      <trkpt lat="43.3651040" lon="-5.8695680">
        <ele>216.9</ele>
        <time>2018-09-15T11:14:21Z</time>
      </trkpt>
      <trkpt lat="43.3651450" lon="-5.8694680">
        <ele>217.5</ele>
        <time>2018-09-15T11:14:22Z</time>
      </trkpt>
      <trkpt lat="43.3651730" lon="-5.8693990">
        <ele>218.0</ele>
        <time>2018-09-15T11:14:23Z</time>
      </trkpt>
      <trkpt lat="43.3651940" lon="-5.8693410">
        <ele>218.4</ele>
        <time>2018-09-15T11:14:24Z</time>
      </trkpt>
      <trkpt lat="43.3652140" lon="-5.8692960">
        <ele>218.8</ele>
        <time>2018-09-15T11:14:25Z</time>
      </trkpt>
      <trkpt lat="43.3652320" lon="-5.8692610">
        <ele>219.1</ele>
        <time>2018-09-15T11:14:26Z</time>
      </trkpt>
      <trkpt lat="43.3652970" lon="-5.8691640">
        <ele>220.1</ele>
        <time>2018-09-15T11:14:27Z</time>
      </trkpt>
      <trkpt lat="43.3653260" lon="-5.8691270">
        <ele>220.6</ele>
        <time>2018-09-15T11:14:28Z</time>
      </trkpt>
      <trkpt lat="43.3653560" lon="-5.8690880">
        <ele>221.1</ele>
        <time>2018-09-15T11:14:29Z</time>
      </trkpt>
      <trkpt lat="43.3653860" lon="-5.8690490">
        <ele>222.0</ele>
        <time>2018-09-15T11:14:30Z</time>
      </trkpt>
      <trkpt lat="43.3654150" lon="-5.8690110">
        <ele>222.0</ele>
        <time>2018-09-15T11:14:31Z</time>
      </trkpt>
      <trkpt lat="43.3654460" lon="-5.8689700">
        <ele>222.0</ele>
        <time>2018-09-15T11:14:32Z</time>
      </trkpt>
      <trkpt lat="43.3654790" lon="-5.8689290">
        <ele>222.0</ele>
        <time>2018-09-15T11:14:33Z</time>
      </trkpt>
      <trkpt lat="43.3655140" lon="-5.8689010">
        <ele>222.0</ele>
        <time>2018-09-15T11:14:34Z</time>
      </trkpt>
      <trkpt lat="43.3655330" lon="-5.8688890">
        <ele>222.0</ele>
        <time>2018-09-15T11:14:35Z</time>
      </trkpt>
      <trkpt lat="43.3656100" lon="-5.8689190">
        <ele>222.0</ele>
        <time>2018-09-15T11:14:36Z</time>
      </trkpt>
      <trkpt lat="43.3656410" lon="-5.8689710">
        <ele>222.0</ele>
        <time>2018-09-15T11:14:37Z</time>
      </trkpt>
      <trkpt lat="43.3656700" lon="-5.8690230">
        <ele>222.0</ele>
        <time>2018-09-15T11:14:38Z</time>
      </trkpt>
      <trkpt lat="43.3657000" lon="-5.8691000">
        <ele>222.0</ele>
        <time>2018-09-15T11:14:39Z</time>
      </trkpt>
      <trkpt lat="43.3657160" lon="-5.8691800">
        <ele>219.7</ele>
        <time>2018-09-15T11:14:40Z</time>
      </trkpt>
      <trkpt lat="43.3657200" lon="-5.8692440">
        <ele>217.8</ele>
        <time>2018-09-15T11:14:41Z</time>
      </trkpt>
      <trkpt lat="43.3657240" lon="-5.8693090">
        <ele>215.8</ele>
        <time>2018-09-15T11:14:42Z</time>
      </trkpt>
      <trkpt lat="43.3657320" lon="-5.8694390">
        <ele>214.9</ele>
        <time>2018-09-15T11:14:43Z</time>
      </trkpt>
      <trkpt lat="43.3657330" lon="-5.8695240">
        <ele>214.8</ele>
        <time>2018-09-15T11:14:44Z</time>
      </trkpt>
      <trkpt lat="43.3657300" lon="-5.8696100">
        <ele>214.7</ele>
        <time>2018-09-15T11:14:45Z</time>
      </trkpt>
      <trkpt lat="43.3656700" lon="-5.8696950">
        <ele>214.5</ele>
        <time>2018-09-15T11:14:46Z</time>
      </trkpt>
      <trkpt lat="43.3656420" lon="-5.8697800">
        <ele>214.4</ele>
        <time>2018-09-15T11:14:47Z</time>
      </trkpt>
      <trkpt lat="43.3656200" lon="-5.8698760">
        <ele>214.2</ele>
        <time>2018-09-15T11:14:48Z</time>
      </trkpt>
      <trkpt lat="43.3656030" lon="-5.8699700">
        <ele>214.1</ele>
        <time>2018-09-15T11:14:49Z</time>
      </trkpt>
      <trkpt lat="43.3655780" lon="-5.8700640">
        <ele>213.9</ele>
        <time>2018-09-15T11:14:50Z</time>
      </trkpt>
      <trkpt lat="43.3655430" lon="-5.8701630">
        <ele>213.8</ele>
        <time>2018-09-15T11:14:51Z</time>
      </trkpt>
      <trkpt lat="43.3655150" lon="-5.8702620">
        <ele>213.6</ele>
        <time>2018-09-15T11:14:52Z</time>
      </trkpt>
      <trkpt lat="43.3655090" lon="-5.8703500">
        <ele>213.5</ele>
        <time>2018-09-15T11:14:53Z</time>
      </trkpt>
      <trkpt lat="43.3654960" lon="-5.8704420">
        <ele>213.4</ele>
        <time>2018-09-15T11:14:54Z</time>
      </trkpt>
      <trkpt lat="43.3654560" lon="-5.8705440">
        <ele>213.2</ele>
        <time>2018-09-15T11:14:55Z</time>
      </trkpt>
      <trkpt lat="43.3654280" lon="-5.8706400">
        <ele>213.1</ele>
        <time>2018-09-15T11:14:56Z</time>
      </trkpt>
      <trkpt lat="43.3653900" lon="-5.8707450">
        <ele>213.1</ele>
        <time>2018-09-15T11:14:57Z</time>
      </trkpt>
      <trkpt lat="43.3653660" lon="-5.8708490">
        <ele>213.0</ele>
        <time>2018-09-15T11:14:58Z</time>
      </trkpt>
      <trkpt lat="43.3653230" lon="-5.8709640">
        <ele>213.0</ele>
        <time>2018-09-15T11:14:59Z</time>
      </trkpt>
      <trkpt lat="43.3652880" lon="-5.8710980">
        <ele>213.0</ele>
        <time>2018-09-15T11:15:00Z</time>
      </trkpt>
      <trkpt lat="43.3652420" lon="-5.8712100">
        <ele>212.9</ele>
        <time>2018-09-15T11:15:01Z</time>
      </trkpt>
      <trkpt lat="43.3652160" lon="-5.8713250">
        <ele>212.7</ele>
        <time>2018-09-15T11:15:02Z</time>
      </trkpt>
      <trkpt lat="43.3651860" lon="-5.8714330">
        <ele>212.5</ele>
        <time>2018-09-15T11:15:03Z</time>
      </trkpt>
      <trkpt lat="43.3651600" lon="-5.8715790">
        <ele>212.1</ele>
        <time>2018-09-15T11:15:04Z</time>
      </trkpt>
      <trkpt lat="43.3651450" lon="-5.8717090">
        <ele>211.8</ele>
        <time>2018-09-15T11:15:05Z</time>
      </trkpt>
      <trkpt lat="43.3651270" lon="-5.8718300">
        <ele>211.6</ele>
        <time>2018-09-15T11:15:06Z</time>
      </trkpt>
      <trkpt lat="43.3651120" lon="-5.8719460">
        <ele>211.4</ele>
        <time>2018-09-15T11:15:07Z</time>
      </trkpt>
      <trkpt lat="43.3651100" lon="-5.8720890">
        <ele>211.2</ele>
        <time>2018-09-15T11:15:08Z</time>
      </trkpt>
      <trkpt lat="43.3650880" lon="-5.8721810">
        <ele>211.0</ele>
        <time>2018-09-15T11:15:09Z</time>
      </trkpt>
      <trkpt lat="43.3650710" lon="-5.8722730">
        <ele>210.7</ele>
        <time>2018-09-15T11:15:10Z</time>
      </trkpt>
      <trkpt lat="43.3650870" lon="-5.8723920">
        <ele>210.4</ele>
        <time>2018-09-15T11:15:11Z</time>
      </trkpt>
      <trkpt lat="43.3650610" lon="-5.8724990">
        <ele>210.1</ele>
        <time>2018-09-15T11:15:12Z</time>
      </trkpt>
      <trkpt lat="43.3650380" lon="-5.8726210">
        <ele>209.8</ele>
        <time>2018-09-15T11:15:13Z</time>
      </trkpt>
      <trkpt lat="43.3650060" lon="-5.8727420">
        <ele>209.6</ele>
        <time>2018-09-15T11:15:14Z</time>
      </trkpt>
      <trkpt lat="43.3649740" lon="-5.8728630">
        <ele>209.2</ele>
        <time>2018-09-15T11:15:15Z</time>
      </trkpt>
      <trkpt lat="43.3649500" lon="-5.8729910">
        <ele>208.8</ele>
        <time>2018-09-15T11:15:16Z</time>
      </trkpt>
      <trkpt lat="43.3649290" lon="-5.8731090">
        <ele>208.5</ele>
        <time>2018-09-15T11:15:17Z</time>
      </trkpt>
      <trkpt lat="43.3649010" lon="-5.8732090">
        <ele>208.2</ele>
        <time>2018-09-15T11:15:18Z</time>
      </trkpt>
      <trkpt lat="43.3648770" lon="-5.8733240">
        <ele>207.9</ele>
        <time>2018-09-15T11:15:19Z</time>
      </trkpt>
      <trkpt lat="43.3648510" lon="-5.8734470">
        <ele>207.6</ele>
        <time>2018-09-15T11:15:20Z</time>
      </trkpt>
      <trkpt lat="43.3648310" lon="-5.8735610">
        <ele>207.3</ele>
        <time>2018-09-15T11:15:21Z</time>
      </trkpt>
      <trkpt lat="43.3648230" lon="-5.8736870">
        <ele>207.0</ele>
        <time>2018-09-15T11:15:22Z</time>
      </trkpt>
      <trkpt lat="43.3648080" lon="-5.8738020">
        <ele>207.0</ele>
        <time>2018-09-15T11:15:23Z</time>
      </trkpt>
      <trkpt lat="43.3648020" lon="-5.8739650">
        <ele>206.8</ele>
        <time>2018-09-15T11:15:24Z</time>
      </trkpt>
      <trkpt lat="43.3647680" lon="-5.8740930">
        <ele>206.3</ele>
        <time>2018-09-15T11:15:25Z</time>
      </trkpt>
      <trkpt lat="43.3647520" lon="-5.8742300">
        <ele>205.8</ele>
        <time>2018-09-15T11:15:26Z</time>
      </trkpt>
      <trkpt lat="43.3647130" lon="-5.8743840">
        <ele>205.3</ele>
        <time>2018-09-15T11:15:27Z</time>
      </trkpt>
      <trkpt lat="43.3646990" lon="-5.8745310">
        <ele>204.7</ele>
        <time>2018-09-15T11:15:28Z</time>
      </trkpt>
      <trkpt lat="43.3646700" lon="-5.8746750">
        <ele>203.9</ele>
        <time>2018-09-15T11:15:29Z</time>
      </trkpt>
      <trkpt lat="43.3646390" lon="-5.8748090">
        <ele>203.3</ele>
        <time>2018-09-15T11:15:30Z</time>
      </trkpt>
      <trkpt lat="43.3646120" lon="-5.8749480">
        <ele>202.6</ele>
        <time>2018-09-15T11:15:31Z</time>
      </trkpt>
      <trkpt lat="43.3645890" lon="-5.8750640">
        <ele>202.1</ele>
        <time>2018-09-15T11:15:32Z</time>
      </trkpt>
      <trkpt lat="43.3645590" lon="-5.8752150">
        <ele>201.5</ele>
        <time>2018-09-15T11:15:33Z</time>
      </trkpt>
      <trkpt lat="43.3645230" lon="-5.8753360">
        <ele>201.1</ele>
        <time>2018-09-15T11:15:34Z</time>
      </trkpt>
      <trkpt lat="43.3644850" lon="-5.8754320">
        <ele>200.7</ele>
        <time>2018-09-15T11:15:35Z</time>
      </trkpt>
      <trkpt lat="43.3644530" lon="-5.8755110">
        <ele>200.4</ele>
        <time>2018-09-15T11:15:36Z</time>
      </trkpt>
      <trkpt lat="43.3644160" lon="-5.8755880">
        <ele>200.0</ele>
        <time>2018-09-15T11:15:37Z</time>
      </trkpt>
      <trkpt lat="43.3643860" lon="-5.8756660">
        <ele>199.6</ele>
        <time>2018-09-15T11:15:38Z</time>
      </trkpt>
      <trkpt lat="43.3643600" lon="-5.8757460">
        <ele>199.3</ele>
        <time>2018-09-15T11:15:39Z</time>
      </trkpt>
      <trkpt lat="43.3643310" lon="-5.8758200">
        <ele>199.0</ele>
        <time>2018-09-15T11:15:40Z</time>
      </trkpt>
      <trkpt lat="43.3642920" lon="-5.8759030">
        <ele>198.7</ele>
        <time>2018-09-15T11:15:41Z</time>
      </trkpt>
      <trkpt lat="43.3642830" lon="-5.8759750">
        <ele>198.4</ele>
        <time>2018-09-15T11:15:42Z</time>
      </trkpt>
      <trkpt lat="43.3642610" lon="-5.8760410">
        <ele>198.3</ele>
        <time>2018-09-15T11:15:43Z</time>
      </trkpt>
      <trkpt lat="43.3642470" lon="-5.8761130">
        <ele>198.1</ele>
        <time>2018-09-15T11:15:44Z</time>
      </trkpt>
      <trkpt lat="43.3642390" lon="-5.8761640">
        <ele>198.0</ele>
        <time>2018-09-15T11:15:45Z</time>
      </trkpt>
      <trkpt lat="43.3642410" lon="-5.8762330">
        <ele>198.0</ele>
        <time>2018-09-15T11:15:46Z</time>
      </trkpt>
      <trkpt lat="43.3642300" lon="-5.8762910">
        <ele>197.9</ele>
        <time>2018-09-15T11:15:47Z</time>
      </trkpt>
      <trkpt lat="43.3642080" lon="-5.8764150">
        <ele>197.9</ele>
        <time>2018-09-15T11:15:49Z</time>
      </trkpt>
      <trkpt lat="43.3641950" lon="-5.8764820">
        <ele>197.8</ele>
        <time>2018-09-15T11:15:50Z</time>
      </trkpt>
      <trkpt lat="43.3641700" lon="-5.8765610">
        <ele>197.7</ele>
        <time>2018-09-15T11:15:51Z</time>
      </trkpt>
      <trkpt lat="43.3641570" lon="-5.8766350">
        <ele>197.6</ele>
        <time>2018-09-15T11:15:52Z</time>
      </trkpt>
      <trkpt lat="43.3641270" lon="-5.8767710">
        <ele>197.5</ele>
        <time>2018-09-15T11:15:53Z</time>
      </trkpt>
      <trkpt lat="43.3641060" lon="-5.8768650">
        <ele>197.4</ele>
        <time>2018-09-15T11:15:54Z</time>
      </trkpt>
      <trkpt lat="43.3640900" lon="-5.8769460">
        <ele>197.3</ele>
        <time>2018-09-15T11:15:55Z</time>
      </trkpt>
      <trkpt lat="43.3640760" lon="-5.8770270">
        <ele>197.3</ele>
        <time>2018-09-15T11:15:56Z</time>
      </trkpt>
      <trkpt lat="43.3640570" lon="-5.8771020">
        <ele>197.2</ele>
        <time>2018-09-15T11:15:57Z</time>
      </trkpt>
      <trkpt lat="43.3640380" lon="-5.8771710">
        <ele>197.2</ele>
        <time>2018-09-15T11:15:58Z</time>
      </trkpt>
      <trkpt lat="43.3640170" lon="-5.8772620">
        <ele>197.1</ele>
        <time>2018-09-15T11:15:59Z</time>
      </trkpt>
      <trkpt lat="43.3639850" lon="-5.8773380">
        <ele>197.1</ele>
        <time>2018-09-15T11:16:00Z</time>
      </trkpt>
      <trkpt lat="43.3639790" lon="-5.8774220">
        <ele>197.0</ele>
        <time>2018-09-15T11:16:01Z</time>
      </trkpt>
      <trkpt lat="43.3639580" lon="-5.8774930">
        <ele>197.0</ele>
        <time>2018-09-15T11:16:02Z</time>
      </trkpt>
      <trkpt lat="43.3639460" lon="-5.8775670">
        <ele>197.0</ele>
        <time>2018-09-15T11:16:03Z</time>
      </trkpt>
      <trkpt lat="43.3639310" lon="-5.8776090">
        <ele>197.0</ele>
        <time>2018-09-15T11:16:04Z</time>
      </trkpt>
      <trkpt lat="43.3639210" lon="-5.8776330">
        <ele>197.0</ele>
        <time>2018-09-15T11:16:05Z</time>
      </trkpt>
      <trkpt lat="43.3639080" lon="-5.8776550">
        <ele>197.0</ele>
        <time>2018-09-15T11:16:06Z</time>
      </trkpt>
      <trkpt lat="43.3639160" lon="-5.8776350">
        <ele>197.0</ele>
        <time>2018-09-15T11:16:07Z</time>
      </trkpt>
      <trkpt lat="43.3639140" lon="-5.8776310">
        <ele>197.0</ele>
        <time>2018-09-15T11:16:08Z</time>
      </trkpt>
      <trkpt lat="43.3639140" lon="-5.8776310">
        <ele>197.0</ele>
        <time>2018-09-15T11:16:09Z</time>
      </trkpt>
      <trkpt lat="43.3639240" lon="-5.8776190">
        <ele>197.0</ele>
        <time>2018-09-15T11:16:10Z</time>
      </trkpt>
      <trkpt lat="43.3639270" lon="-5.8776160">
        <ele>197.0</ele>
        <time>2018-09-15T11:16:11Z</time>
      </trkpt>
      <trkpt lat="43.3639260" lon="-5.8776120">
        <ele>197.0</ele>
        <time>2018-09-15T11:16:12Z</time>
      </trkpt>
      <trkpt lat="43.3639260" lon="-5.8776120">
        <ele>197.0</ele>
        <time>2018-09-15T11:16:13Z</time>
      </trkpt>
      <trkpt lat="43.3639260" lon="-5.8776090">
        <ele>197.0</ele>
        <time>2018-09-15T11:16:14Z</time>
      </trkpt>
      <trkpt lat="43.3639300" lon="-5.8776060">
        <ele>197.0</ele>
        <time>2018-09-15T11:16:15Z</time>
      </trkpt>
      <trkpt lat="43.3639290" lon="-5.8776040">
        <ele>197.0</ele>
        <time>2018-09-15T11:16:16Z</time>
      </trkpt>
      <trkpt lat="43.3639290" lon="-5.8776030">
        <ele>197.0</ele>
        <time>2018-09-15T11:16:17Z</time>
      </trkpt>
      <trkpt lat="43.3639290" lon="-5.8776030">
        <ele>197.0</ele>
        <time>2018-09-15T11:16:18Z</time>
      </trkpt>
      <trkpt lat="43.3639260" lon="-5.8776050">
        <ele>197.0</ele>
        <time>2018-09-15T11:16:19Z</time>
      </trkpt>
      <trkpt lat="43.3639190" lon="-5.8776320">
        <ele>197.0</ele>
        <time>2018-09-15T11:16:20Z</time>
      </trkpt>
      <trkpt lat="43.3639250" lon="-5.8776490">
        <ele>197.0</ele>
        <time>2018-09-15T11:16:21Z</time>
      </trkpt>
      <trkpt lat="43.3639380" lon="-5.8776780">
        <ele>197.0</ele>
        <time>2018-09-15T11:16:22Z</time>
      </trkpt>
      <trkpt lat="43.3639160" lon="-5.8777090">
        <ele>197.0</ele>
        <time>2018-09-15T11:16:23Z</time>
      </trkpt>
      <trkpt lat="43.3639030" lon="-5.8777340">
        <ele>197.0</ele>
        <time>2018-09-15T11:16:24Z</time>
      </trkpt>
      <trkpt lat="43.3639020" lon="-5.8777800">
        <ele>197.0</ele>
        <time>2018-09-15T11:16:25Z</time>
      </trkpt>
      <trkpt lat="43.3639030" lon="-5.8778160">
        <ele>197.0</ele>
        <time>2018-09-15T11:16:26Z</time>
      </trkpt>
      <trkpt lat="43.3639000" lon="-5.8778660">
        <ele>196.9</ele>
        <time>2018-09-15T11:16:27Z</time>
      </trkpt>
      <trkpt lat="43.3639060" lon="-5.8779060">
        <ele>196.8</ele>
        <time>2018-09-15T11:16:28Z</time>
      </trkpt>
      <trkpt lat="43.3639080" lon="-5.8779750">
        <ele>196.7</ele>
        <time>2018-09-15T11:16:29Z</time>
      </trkpt>
      <trkpt lat="43.3639070" lon="-5.8780250">
        <ele>196.6</ele>
        <time>2018-09-15T11:16:30Z</time>
      </trkpt>
      <trkpt lat="43.3639090" lon="-5.8780710">
        <ele>196.5</ele>
        <time>2018-09-15T11:16:31Z</time>
      </trkpt>
      <trkpt lat="43.3639110" lon="-5.8780850">
        <ele>196.5</ele>
        <time>2018-09-15T11:16:32Z</time>
      </trkpt>
      <trkpt lat="43.3639110" lon="-5.8780900">
        <ele>196.5</ele>
        <time>2018-09-15T11:16:33Z</time>
      </trkpt>
      <trkpt lat="43.3639130" lon="-5.8780930">
        <ele>196.5</ele>
        <time>2018-09-15T11:16:34Z</time>
      </trkpt>
      <trkpt lat="43.3639140" lon="-5.8780950">
        <ele>196.5</ele>
        <time>2018-09-15T11:16:35Z</time>
      </trkpt>
      <trkpt lat="43.3639140" lon="-5.8780960">
        <ele>196.5</ele>
        <time>2018-09-15T11:16:36Z</time>
      </trkpt>
      <trkpt lat="43.3639140" lon="-5.8780960">
        <ele>196.5</ele>
        <time>2018-09-15T11:16:37Z</time>
      </trkpt>
      <trkpt lat="43.3639140" lon="-5.8780960">
        <ele>196.5</ele>
        <time>2018-09-15T11:16:38Z</time>
      </trkpt>
      <trkpt lat="43.3639140" lon="-5.8780960">
        <ele>196.5</ele>
        <time>2018-09-15T11:16:39Z</time>
      </trkpt>
      <trkpt lat="43.3639140" lon="-5.8780970">
        <ele>196.5</ele>
        <time>2018-09-15T11:16:40Z</time>
      </trkpt>
      <trkpt lat="43.3639140" lon="-5.8780970">
        <ele>196.5</ele>
        <time>2018-09-15T11:16:41Z</time>
      </trkpt>
      <trkpt lat="43.3639140" lon="-5.8780970">
        <ele>196.5</ele>
        <time>2018-09-15T11:16:42Z</time>
      </trkpt>
      <trkpt lat="43.3639140" lon="-5.8780970">
        <ele>196.5</ele>
        <time>2018-09-15T11:16:43Z</time>
      </trkpt>
      <trkpt lat="43.3639140" lon="-5.8780970">
        <ele>196.5</ele>
        <time>2018-09-15T11:16:44Z</time>
      </trkpt>
      <trkpt lat="43.3639140" lon="-5.8780970">
        <ele>196.5</ele>
        <time>2018-09-15T11:16:45Z</time>
      </trkpt>
      <trkpt lat="43.3639140" lon="-5.8780970">
        <ele>196.5</ele>
        <time>2018-09-15T11:16:46Z</time>
      </trkpt>
      <trkpt lat="43.3639140" lon="-5.8780970">
        <ele>196.5</ele>
        <time>2018-09-15T11:16:47Z</time>
      </trkpt>
      <trkpt lat="43.3639150" lon="-5.8781370">
        <ele>196.4</ele>
        <time>2018-09-15T11:16:54Z</time>
      </trkpt>
      <trkpt lat="43.3639150" lon="-5.8781570">
        <ele>196.4</ele>
        <time>2018-09-15T11:16:55Z</time>
      </trkpt>
      <trkpt lat="43.3639150" lon="-5.8781830">
        <ele>196.4</ele>
        <time>2018-09-15T11:16:56Z</time>
      </trkpt>
      <trkpt lat="43.3639140" lon="-5.8782260">
        <ele>196.4</ele>
        <time>2018-09-15T11:16:57Z</time>
      </trkpt>
      <trkpt lat="43.3639150" lon="-5.8782690">
        <ele>196.3</ele>
        <time>2018-09-15T11:16:58Z</time>
      </trkpt>
      <trkpt lat="43.3639140" lon="-5.8783060">
        <ele>196.3</ele>
        <time>2018-09-15T11:16:59Z</time>
      </trkpt>
      <trkpt lat="43.3639120" lon="-5.8783540">
        <ele>196.3</ele>
        <time>2018-09-15T11:17:00Z</time>
      </trkpt>
      <trkpt lat="43.3639120" lon="-5.8784090">
        <ele>196.2</ele>
        <time>2018-09-15T11:17:01Z</time>
      </trkpt>
      <trkpt lat="43.3639120" lon="-5.8784650">
        <ele>196.2</ele>
        <time>2018-09-15T11:17:02Z</time>
      </trkpt>
      <trkpt lat="43.3639070" lon="-5.8785360">
        <ele>196.1</ele>
        <time>2018-09-15T11:17:03Z</time>
      </trkpt>
      <trkpt lat="43.3639040" lon="-5.8786820">
        <ele>196.1</ele>
        <time>2018-09-15T11:17:04Z</time>
      </trkpt>
      <trkpt lat="43.3638950" lon="-5.8788480">
        <ele>196.1</ele>
        <time>2018-09-15T11:17:05Z</time>
      </trkpt>
      <trkpt lat="43.3638960" lon="-5.8789320">
        <ele>196.0</ele>
        <time>2018-09-15T11:17:06Z</time>
      </trkpt>
      <trkpt lat="43.3638950" lon="-5.8790240">
        <ele>196.0</ele>
        <time>2018-09-15T11:17:07Z</time>
      </trkpt>
      <trkpt lat="43.3638980" lon="-5.8791200">
        <ele>195.9</ele>
        <time>2018-09-15T11:17:08Z</time>
      </trkpt>
      <trkpt lat="43.3639000" lon="-5.8792180">
        <ele>195.8</ele>
        <time>2018-09-15T11:17:09Z</time>
      </trkpt>
      <trkpt lat="43.3639030" lon="-5.8793190">
        <ele>195.7</ele>
        <time>2018-09-15T11:17:10Z</time>
      </trkpt>
      <trkpt lat="43.3639080" lon="-5.8794210">
        <ele>195.5</ele>
        <time>2018-09-15T11:17:11Z</time>
      </trkpt>
      <trkpt lat="43.3639040" lon="-5.8795180">
        <ele>195.4</ele>
        <time>2018-09-15T11:17:12Z</time>
      </trkpt>
      <trkpt lat="43.3639010" lon="-5.8796170">
        <ele>195.4</ele>
        <time>2018-09-15T11:17:13Z</time>
      </trkpt>
      <trkpt lat="43.3639000" lon="-5.8797150">
        <ele>195.3</ele>
        <time>2018-09-15T11:17:14Z</time>
      </trkpt>
      <trkpt lat="43.3639010" lon="-5.8798200">
        <ele>195.2</ele>
        <time>2018-09-15T11:17:15Z</time>
      </trkpt>
      <trkpt lat="43.3638990" lon="-5.8799230">
        <ele>195.1</ele>
        <time>2018-09-15T11:17:16Z</time>
      </trkpt>
      <trkpt lat="43.3638990" lon="-5.8800270">
        <ele>195.0</ele>
        <time>2018-09-15T11:17:17Z</time>
      </trkpt>
      <trkpt lat="43.3638960" lon="-5.8801360">
        <ele>194.9</ele>
        <time>2018-09-15T11:17:18Z</time>
      </trkpt>
      <trkpt lat="43.3638800" lon="-5.8802480">
        <ele>194.7</ele>
        <time>2018-09-15T11:17:19Z</time>
      </trkpt>
      <trkpt lat="43.3638830" lon="-5.8803680">
        <ele>194.5</ele>
        <time>2018-09-15T11:17:20Z</time>
      </trkpt>
      <trkpt lat="43.3638810" lon="-5.8804770">
        <ele>194.4</ele>
        <time>2018-09-15T11:17:21Z</time>
      </trkpt>
      <trkpt lat="43.3638840" lon="-5.8805970">
        <ele>194.2</ele>
        <time>2018-09-15T11:17:22Z</time>
      </trkpt>
      <trkpt lat="43.3638830" lon="-5.8807080">
        <ele>194.0</ele>
        <time>2018-09-15T11:17:23Z</time>
      </trkpt>
      <trkpt lat="43.3638780" lon="-5.8808320">
        <ele>193.1</ele>
        <time>2018-09-15T11:17:24Z</time>
      </trkpt>
      <trkpt lat="43.3638780" lon="-5.8809500">
        <ele>192.2</ele>
        <time>2018-09-15T11:17:25Z</time>
      </trkpt>
      <trkpt lat="43.3638770" lon="-5.8810590">
        <ele>191.4</ele>
        <time>2018-09-15T11:17:26Z</time>
      </trkpt>
      <trkpt lat="43.3638790" lon="-5.8811700">
        <ele>190.6</ele>
        <time>2018-09-15T11:17:27Z</time>
      </trkpt>
      <trkpt lat="43.3638750" lon="-5.8812860">
        <ele>189.8</ele>
        <time>2018-09-15T11:17:28Z</time>
      </trkpt>
      <trkpt lat="43.3638760" lon="-5.8813860">
        <ele>189.1</ele>
        <time>2018-09-15T11:17:29Z</time>
      </trkpt>
      <trkpt lat="43.3638710" lon="-5.8814960">
        <ele>188.3</ele>
        <time>2018-09-15T11:17:30Z</time>
      </trkpt>
      <trkpt lat="43.3638720" lon="-5.8816110">
        <ele>187.4</ele>
        <time>2018-09-15T11:17:31Z</time>
      </trkpt>
      <trkpt lat="43.3638680" lon="-5.8817280">
        <ele>186.4</ele>
        <time>2018-09-15T11:17:32Z</time>
      </trkpt>
      <trkpt lat="43.3638680" lon="-5.8818400">
        <ele>185.3</ele>
        <time>2018-09-15T11:17:33Z</time>
      </trkpt>
      <trkpt lat="43.3638650" lon="-5.8819530">
        <ele>184.2</ele>
        <time>2018-09-15T11:17:34Z</time>
      </trkpt>
      <trkpt lat="43.3638600" lon="-5.8820600">
        <ele>184.0</ele>
        <time>2018-09-15T11:17:35Z</time>
      </trkpt>
      <trkpt lat="43.3638400" lon="-5.8821770">
        <ele>184.0</ele>
        <time>2018-09-15T11:17:36Z</time>
      </trkpt>
      <trkpt lat="43.3638220" lon="-5.8822830">
        <ele>184.0</ele>
        <time>2018-09-15T11:17:37Z</time>
      </trkpt>
      <trkpt lat="43.3638120" lon="-5.8823870">
        <ele>184.0</ele>
        <time>2018-09-15T11:17:38Z</time>
      </trkpt>
      <trkpt lat="43.3638070" lon="-5.8824930">
        <ele>184.2</ele>
        <time>2018-09-15T11:17:39Z</time>
      </trkpt>
      <trkpt lat="43.3638080" lon="-5.8825970">
        <ele>184.5</ele>
        <time>2018-09-15T11:17:40Z</time>
      </trkpt>
      <trkpt lat="43.3638070" lon="-5.8827150">
        <ele>184.8</ele>
        <time>2018-09-15T11:17:41Z</time>
      </trkpt>
      <trkpt lat="43.3638180" lon="-5.8828280">
        <ele>185.0</ele>
        <time>2018-09-15T11:17:42Z</time>
      </trkpt>
      <trkpt lat="43.3638130" lon="-5.8829330">
        <ele>185.0</ele>
        <time>2018-09-15T11:17:43Z</time>
      </trkpt>
      <trkpt lat="43.3637900" lon="-5.8830440">
        <ele>185.0</ele>
        <time>2018-09-15T11:17:44Z</time>
      </trkpt>
      <trkpt lat="43.3637470" lon="-5.8831360">
        <ele>185.0</ele>
        <time>2018-09-15T11:17:45Z</time>
      </trkpt>
      <trkpt lat="43.3636920" lon="-5.8832210">
        <ele>185.2</ele>
        <time>2018-09-15T11:17:46Z</time>
      </trkpt>
      <trkpt lat="43.3636410" lon="-5.8832980">
        <ele>186.1</ele>
        <time>2018-09-15T11:17:47Z</time>
      </trkpt>
      <trkpt lat="43.3635890" lon="-5.8833770">
        <ele>187.0</ele>
        <time>2018-09-15T11:17:48Z</time>
      </trkpt>
      <trkpt lat="43.3635550" lon="-5.8834710">
        <ele>187.9</ele>
        <time>2018-09-15T11:17:49Z</time>
      </trkpt>
      <trkpt lat="43.3635120" lon="-5.8835510">
        <ele>188.8</ele>
        <time>2018-09-15T11:17:50Z</time>
      </trkpt>
      <trkpt lat="43.3634710" lon="-5.8836360">
        <ele>189.0</ele>
        <time>2018-09-15T11:17:51Z</time>
      </trkpt>
      <trkpt lat="43.3634280" lon="-5.8837210">
        <ele>188.9</ele>
        <time>2018-09-15T11:17:52Z</time>
      </trkpt>
      <trkpt lat="43.3633830" lon="-5.8838010">
        <ele>188.9</ele>
        <time>2018-09-15T11:17:53Z</time>
      </trkpt>
      <trkpt lat="43.3633420" lon="-5.8838800">
        <ele>188.9</ele>
        <time>2018-09-15T11:17:54Z</time>
      </trkpt>
      <trkpt lat="43.3632960" lon="-5.8839550">
        <ele>188.8</ele>
        <time>2018-09-15T11:17:55Z</time>
      </trkpt>
      <trkpt lat="43.3632550" lon="-5.8840350">
        <ele>188.8</ele>
        <time>2018-09-15T11:17:56Z</time>
      </trkpt>
      <trkpt lat="43.3632070" lon="-5.8841110">
        <ele>188.8</ele>
        <time>2018-09-15T11:17:57Z</time>
      </trkpt>
      <trkpt lat="43.3631640" lon="-5.8841870">
        <ele>188.7</ele>
        <time>2018-09-15T11:17:58Z</time>
      </trkpt>
      <trkpt lat="43.3631170" lon="-5.8842650">
        <ele>188.7</ele>
        <time>2018-09-15T11:17:59Z</time>
      </trkpt>
      <trkpt lat="43.3630740" lon="-5.8843410">
        <ele>188.6</ele>
        <time>2018-09-15T11:18:00Z</time>
      </trkpt>
      <trkpt lat="43.3630260" lon="-5.8844170">
        <ele>188.6</ele>
        <time>2018-09-15T11:18:01Z</time>
      </trkpt>
      <trkpt lat="43.3629830" lon="-5.8844990">
        <ele>188.5</ele>
        <time>2018-09-15T11:18:02Z</time>
      </trkpt>
      <trkpt lat="43.3629350" lon="-5.8845740">
        <ele>188.4</ele>
        <time>2018-09-15T11:18:03Z</time>
      </trkpt>
      <trkpt lat="43.3628840" lon="-5.8846510">
        <ele>188.3</ele>
        <time>2018-09-15T11:18:04Z</time>
      </trkpt>
      <trkpt lat="43.3628320" lon="-5.8847310">
        <ele>188.0</ele>
        <time>2018-09-15T11:18:05Z</time>
      </trkpt>
      <trkpt lat="43.3627780" lon="-5.8848080">
        <ele>187.7</ele>
        <time>2018-09-15T11:18:06Z</time>
      </trkpt>
      <trkpt lat="43.3627280" lon="-5.8848920">
        <ele>187.4</ele>
        <time>2018-09-15T11:18:07Z</time>
      </trkpt>
      <trkpt lat="43.3626760" lon="-5.8849790">
        <ele>187.0</ele>
        <time>2018-09-15T11:18:08Z</time>
      </trkpt>
      <trkpt lat="43.3626250" lon="-5.8850610">
        <ele>186.7</ele>
        <time>2018-09-15T11:18:09Z</time>
      </trkpt>
      <trkpt lat="43.3625710" lon="-5.8851310">
        <ele>186.4</ele>
        <time>2018-09-15T11:18:10Z</time>
      </trkpt>
      <trkpt lat="43.3625170" lon="-5.8852120">
        <ele>186.3</ele>
        <time>2018-09-15T11:18:11Z</time>
      </trkpt>
      <trkpt lat="43.3624610" lon="-5.8852940">
        <ele>186.1</ele>
        <time>2018-09-15T11:18:12Z</time>
      </trkpt>
      <trkpt lat="43.3624040" lon="-5.8853740">
        <ele>186.0</ele>
        <time>2018-09-15T11:18:13Z</time>
      </trkpt>
      <trkpt lat="43.3623470" lon="-5.8854560">
        <ele>185.9</ele>
        <time>2018-09-15T11:18:14Z</time>
      </trkpt>
      <trkpt lat="43.3622890" lon="-5.8855440">
        <ele>185.7</ele>
        <time>2018-09-15T11:18:15Z</time>
      </trkpt>
      <trkpt lat="43.3622340" lon="-5.8856210">
        <ele>185.4</ele>
        <time>2018-09-15T11:18:16Z</time>
      </trkpt>
      <trkpt lat="43.3621750" lon="-5.8857040">
        <ele>185.1</ele>
        <time>2018-09-15T11:18:17Z</time>
      </trkpt>
      <trkpt lat="43.3621180" lon="-5.8857940">
        <ele>184.7</ele>
        <time>2018-09-15T11:18:18Z</time>
      </trkpt>
      <trkpt lat="43.3620620" lon="-5.8858760">
        <ele>184.3</ele>
        <time>2018-09-15T11:18:19Z</time>
      </trkpt>
      <trkpt lat="43.3620160" lon="-5.8859650">
        <ele>183.9</ele>
        <time>2018-09-15T11:18:20Z</time>
      </trkpt>
      <trkpt lat="43.3619550" lon="-5.8860490">
        <ele>183.5</ele>
        <time>2018-09-15T11:18:21Z</time>
      </trkpt>
      <trkpt lat="43.3618980" lon="-5.8861350">
        <ele>183.2</ele>
        <time>2018-09-15T11:18:22Z</time>
      </trkpt>
      <trkpt lat="43.3618330" lon="-5.8862110">
        <ele>182.8</ele>
        <time>2018-09-15T11:18:23Z</time>
      </trkpt>
      <trkpt lat="43.3617660" lon="-5.8862910">
        <ele>182.4</ele>
        <time>2018-09-15T11:18:24Z</time>
      </trkpt>
      <trkpt lat="43.3616950" lon="-5.8863610">
        <ele>182.0</ele>
        <time>2018-09-15T11:18:25Z</time>
      </trkpt>
      <trkpt lat="43.3616200" lon="-5.8864270">
        <ele>181.7</ele>
        <time>2018-09-15T11:18:26Z</time>
      </trkpt>
      <trkpt lat="43.3615470" lon="-5.8864920">
        <ele>181.3</ele>
        <time>2018-09-15T11:18:27Z</time>
      </trkpt>
      <trkpt lat="43.3614700" lon="-5.8865570">
        <ele>181.0</ele>
        <time>2018-09-15T11:18:28Z</time>
      </trkpt>
      <trkpt lat="43.3613980" lon="-5.8866190">
        <ele>180.7</ele>
        <time>2018-09-15T11:18:29Z</time>
      </trkpt>
      <trkpt lat="43.3613240" lon="-5.8866830">
        <ele>180.5</ele>
        <time>2018-09-15T11:18:30Z</time>
      </trkpt>
      <trkpt lat="43.3612470" lon="-5.8867450">
        <ele>180.1</ele>
        <time>2018-09-15T11:18:31Z</time>
      </trkpt>
      <trkpt lat="43.3611760" lon="-5.8868070">
        <ele>179.7</ele>
        <time>2018-09-15T11:18:32Z</time>
      </trkpt>
      <trkpt lat="43.3611090" lon="-5.8868720">
        <ele>179.3</ele>
        <time>2018-09-15T11:18:33Z</time>
      </trkpt>
      <trkpt lat="43.3610310" lon="-5.8869410">
        <ele>179.0</ele>
        <time>2018-09-15T11:18:34Z</time>
      </trkpt>
      <trkpt lat="43.3609690" lon="-5.8870180">
        <ele>179.0</ele>
        <time>2018-09-15T11:18:35Z</time>
      </trkpt>
      <trkpt lat="43.3609240" lon="-5.8871190">
        <ele>179.0</ele>
        <time>2018-09-15T11:18:36Z</time>
      </trkpt>
      <trkpt lat="43.3608910" lon="-5.8872330">
        <ele>179.0</ele>
        <time>2018-09-15T11:18:37Z</time>
      </trkpt>
      <trkpt lat="43.3608670" lon="-5.8873430">
        <ele>179.0</ele>
        <time>2018-09-15T11:18:38Z</time>
      </trkpt>
      <trkpt lat="43.3608410" lon="-5.8874570">
        <ele>178.2</ele>
        <time>2018-09-15T11:18:39Z</time>
      </trkpt>
      <trkpt lat="43.3607970" lon="-5.8875710">
        <ele>176.3</ele>
        <time>2018-09-15T11:18:40Z</time>
      </trkpt>
      <trkpt lat="43.3607340" lon="-5.8876680">
        <ele>174.4</ele>
        <time>2018-09-15T11:18:41Z</time>
      </trkpt>
      <trkpt lat="43.3606770" lon="-5.8877690">
        <ele>174.0</ele>
        <time>2018-09-15T11:18:42Z</time>
      </trkpt>
      <trkpt lat="43.3606230" lon="-5.8878710">
        <ele>174.0</ele>
        <time>2018-09-15T11:18:43Z</time>
      </trkpt>
      <trkpt lat="43.3605880" lon="-5.8879780">
        <ele>174.0</ele>
        <time>2018-09-15T11:18:44Z</time>
      </trkpt>
      <trkpt lat="43.3605750" lon="-5.8880960">
        <ele>174.0</ele>
        <time>2018-09-15T11:18:45Z</time>
      </trkpt>
      <trkpt lat="43.3605650" lon="-5.8882160">
        <ele>174.0</ele>
        <time>2018-09-15T11:18:46Z</time>
      </trkpt>
      <trkpt lat="43.3605690" lon="-5.8883410">
        <ele>174.0</ele>
        <time>2018-09-15T11:18:47Z</time>
      </trkpt>
      <trkpt lat="43.3605700" lon="-5.8884570">
        <ele>174.0</ele>
        <time>2018-09-15T11:18:48Z</time>
      </trkpt>
      <trkpt lat="43.3605850" lon="-5.8885740">
        <ele>174.0</ele>
        <time>2018-09-15T11:18:49Z</time>
      </trkpt>
      <trkpt lat="43.3605850" lon="-5.8886910">
        <ele>173.9</ele>
        <time>2018-09-15T11:18:50Z</time>
      </trkpt>
      <trkpt lat="43.3605830" lon="-5.8887990">
        <ele>173.9</ele>
        <time>2018-09-15T11:18:51Z</time>
      </trkpt>
      <trkpt lat="43.3605810" lon="-5.8889060">
        <ele>173.8</ele>
        <time>2018-09-15T11:18:52Z</time>
      </trkpt>
      <trkpt lat="43.3605850" lon="-5.8890060">
        <ele>173.7</ele>
        <time>2018-09-15T11:18:53Z</time>
      </trkpt>
      <trkpt lat="43.3605740" lon="-5.8891090">
        <ele>173.7</ele>
        <time>2018-09-15T11:18:54Z</time>
      </trkpt>
      <trkpt lat="43.3605720" lon="-5.8892030">
        <ele>173.7</ele>
        <time>2018-09-15T11:18:55Z</time>
      </trkpt>
      <trkpt lat="43.3605660" lon="-5.8892940">
        <ele>173.6</ele>
        <time>2018-09-15T11:18:56Z</time>
      </trkpt>
      <trkpt lat="43.3605520" lon="-5.8893840">
        <ele>173.6</ele>
        <time>2018-09-15T11:18:57Z</time>
      </trkpt>
      <trkpt lat="43.3605270" lon="-5.8894800">
        <ele>173.6</ele>
        <time>2018-09-15T11:18:58Z</time>
      </trkpt>
      <trkpt lat="43.3605000" lon="-5.8895620">
        <ele>173.5</ele>
        <time>2018-09-15T11:18:59Z</time>
      </trkpt>
      <trkpt lat="43.3604700" lon="-5.8896440">
        <ele>173.5</ele>
        <time>2018-09-15T11:19:00Z</time>
      </trkpt>
      <trkpt lat="43.3604450" lon="-5.8897280">
        <ele>173.5</ele>
        <time>2018-09-15T11:19:01Z</time>
      </trkpt>
      <trkpt lat="43.3604110" lon="-5.8898040">
        <ele>173.5</ele>
        <time>2018-09-15T11:19:02Z</time>
      </trkpt>
      <trkpt lat="43.3603810" lon="-5.8898800">
        <ele>173.6</ele>
        <time>2018-09-15T11:19:03Z</time>
      </trkpt>
      <trkpt lat="43.3603490" lon="-5.8899510">
        <ele>173.6</ele>
        <time>2018-09-15T11:19:04Z</time>
      </trkpt>
      <trkpt lat="43.3603170" lon="-5.8900260">
        <ele>173.8</ele>
        <time>2018-09-15T11:19:05Z</time>
      </trkpt>
      <trkpt lat="43.3602870" lon="-5.8900960">
        <ele>173.9</ele>
        <time>2018-09-15T11:19:06Z</time>
      </trkpt>
      <trkpt lat="43.3602520" lon="-5.8901660">
        <ele>174.0</ele>
        <time>2018-09-15T11:19:07Z</time>
      </trkpt>
      <trkpt lat="43.3602170" lon="-5.8902410">
        <ele>174.1</ele>
        <time>2018-09-15T11:19:08Z</time>
      </trkpt>
      <trkpt lat="43.3601850" lon="-5.8903130">
        <ele>174.2</ele>
        <time>2018-09-15T11:19:09Z</time>
      </trkpt>
      <trkpt lat="43.3601640" lon="-5.8903820">
        <ele>174.2</ele>
        <time>2018-09-15T11:19:10Z</time>
      </trkpt>
      <trkpt lat="43.3601370" lon="-5.8904560">
        <ele>174.2</ele>
        <time>2018-09-15T11:19:11Z</time>
      </trkpt>
      <trkpt lat="43.3601110" lon="-5.8905280">
        <ele>174.2</ele>
        <time>2018-09-15T11:19:12Z</time>
      </trkpt>
      <trkpt lat="43.3600900" lon="-5.8906120">
        <ele>174.2</ele>
        <time>2018-09-15T11:19:13Z</time>
      </trkpt>
      <trkpt lat="43.3600680" lon="-5.8906860">
        <ele>174.2</ele>
        <time>2018-09-15T11:19:14Z</time>
      </trkpt>
      <trkpt lat="43.3600480" lon="-5.8907660">
        <ele>174.2</ele>
        <time>2018-09-15T11:19:15Z</time>
      </trkpt>
      <trkpt lat="43.3600290" lon="-5.8908440">
        <ele>174.1</ele>
        <time>2018-09-15T11:19:16Z</time>
      </trkpt>
      <trkpt lat="43.3600210" lon="-5.8909240">
        <ele>174.1</ele>
        <time>2018-09-15T11:19:17Z</time>
      </trkpt>
      <trkpt lat="43.3600070" lon="-5.8910070">
        <ele>174.1</ele>
        <time>2018-09-15T11:19:18Z</time>
      </trkpt>
      <trkpt lat="43.3599940" lon="-5.8910870">
        <ele>174.1</ele>
        <time>2018-09-15T11:19:19Z</time>
      </trkpt>
      <trkpt lat="43.3599740" lon="-5.8911750">
        <ele>174.2</ele>
        <time>2018-09-15T11:19:20Z</time>
      </trkpt>
      <trkpt lat="43.3599640" lon="-5.8912540">
        <ele>174.2</ele>
        <time>2018-09-15T11:19:21Z</time>
      </trkpt>
      <trkpt lat="43.3599420" lon="-5.8913530">
        <ele>174.2</ele>
        <time>2018-09-15T11:19:22Z</time>
      </trkpt>
      <trkpt lat="43.3599280" lon="-5.8914420">
        <ele>174.3</ele>
        <time>2018-09-15T11:19:23Z</time>
      </trkpt>
      <trkpt lat="43.3599170" lon="-5.8915320">
        <ele>174.3</ele>
        <time>2018-09-15T11:19:24Z</time>
      </trkpt>
      <trkpt lat="43.3599050" lon="-5.8916290">
        <ele>174.4</ele>
        <time>2018-09-15T11:19:25Z</time>
      </trkpt>
      <trkpt lat="43.3598890" lon="-5.8917170">
        <ele>174.5</ele>
        <time>2018-09-15T11:19:26Z</time>
      </trkpt>
      <trkpt lat="43.3598780" lon="-5.8918080">
        <ele>174.7</ele>
        <time>2018-09-15T11:19:27Z</time>
      </trkpt>
      <trkpt lat="43.3598680" lon="-5.8919050">
        <ele>174.8</ele>
        <time>2018-09-15T11:19:28Z</time>
      </trkpt>
      <trkpt lat="43.3598510" lon="-5.8919910">
        <ele>174.9</ele>
        <time>2018-09-15T11:19:29Z</time>
      </trkpt>
      <trkpt lat="43.3598360" lon="-5.8920840">
        <ele>175.0</ele>
        <time>2018-09-15T11:19:30Z</time>
      </trkpt>
      <trkpt lat="43.3598210" lon="-5.8921940">
        <ele>175.0</ele>
        <time>2018-09-15T11:19:31Z</time>
      </trkpt>
      <trkpt lat="43.3598010" lon="-5.8923000">
        <ele>175.0</ele>
        <time>2018-09-15T11:19:32Z</time>
      </trkpt>
      <trkpt lat="43.3597780" lon="-5.8923920">
        <ele>175.0</ele>
        <time>2018-09-15T11:19:33Z</time>
      </trkpt>
      <trkpt lat="43.3597610" lon="-5.8924900">
        <ele>175.0</ele>
        <time>2018-09-15T11:19:34Z</time>
      </trkpt>
      <trkpt lat="43.3597440" lon="-5.8925770">
        <ele>175.0</ele>
        <time>2018-09-15T11:19:35Z</time>
      </trkpt>
      <trkpt lat="43.3597160" lon="-5.8926650">
        <ele>175.0</ele>
        <time>2018-09-15T11:19:36Z</time>
      </trkpt>
      <trkpt lat="43.3596870" lon="-5.8927580">
        <ele>175.2</ele>
        <time>2018-09-15T11:19:37Z</time>
      </trkpt>
      <trkpt lat="43.3596560" lon="-5.8928490">
        <ele>175.4</ele>
        <time>2018-09-15T11:19:38Z</time>
      </trkpt>
      <trkpt lat="43.3596300" lon="-5.8929430">
        <ele>175.5</ele>
        <time>2018-09-15T11:19:39Z</time>
      </trkpt>
      <trkpt lat="43.3596090" lon="-5.8930340">
        <ele>175.7</ele>
        <time>2018-09-15T11:19:40Z</time>
      </trkpt>
      <trkpt lat="43.3595780" lon="-5.8931260">
        <ele>175.9</ele>
        <time>2018-09-15T11:19:41Z</time>
      </trkpt>
      <trkpt lat="43.3595530" lon="-5.8932240">
        <ele>176.1</ele>
        <time>2018-09-15T11:19:42Z</time>
      </trkpt>
      <trkpt lat="43.3595350" lon="-5.8933050">
        <ele>176.3</ele>
        <time>2018-09-15T11:19:43Z</time>
      </trkpt>
      <trkpt lat="43.3595090" lon="-5.8934020">
        <ele>176.6</ele>
        <time>2018-09-15T11:19:44Z</time>
      </trkpt>
      <trkpt lat="43.3594780" lon="-5.8934960">
        <ele>176.8</ele>
        <time>2018-09-15T11:19:45Z</time>
      </trkpt>
      <trkpt lat="43.3594550" lon="-5.8935790">
        <ele>177.0</ele>
        <time>2018-09-15T11:19:46Z</time>
      </trkpt>
      <trkpt lat="43.3594350" lon="-5.8936690">
        <ele>177.0</ele>
        <time>2018-09-15T11:19:47Z</time>
      </trkpt>
      <trkpt lat="43.3594130" lon="-5.8937580">
        <ele>177.0</ele>
        <time>2018-09-15T11:19:48Z</time>
      </trkpt>
      <trkpt lat="43.3593900" lon="-5.8938500">
        <ele>176.9</ele>
        <time>2018-09-15T11:19:49Z</time>
      </trkpt>
      <trkpt lat="43.3593750" lon="-5.8939500">
        <ele>176.8</ele>
        <time>2018-09-15T11:19:50Z</time>
      </trkpt>
      <trkpt lat="43.3593560" lon="-5.8940330">
        <ele>176.8</ele>
        <time>2018-09-15T11:19:51Z</time>
      </trkpt>
      <trkpt lat="43.3593460" lon="-5.8941220">
        <ele>176.6</ele>
        <time>2018-09-15T11:19:52Z</time>
      </trkpt>
      <trkpt lat="43.3593470" lon="-5.8942110">
        <ele>176.5</ele>
        <time>2018-09-15T11:19:53Z</time>
      </trkpt>
      <trkpt lat="43.3593290" lon="-5.8942970">
        <ele>176.3</ele>
        <time>2018-09-15T11:19:54Z</time>
      </trkpt>
      <trkpt lat="43.3593180" lon="-5.8943880">
        <ele>176.2</ele>
        <time>2018-09-15T11:19:55Z</time>
      </trkpt>
      <trkpt lat="43.3593160" lon="-5.8944810">
        <ele>176.0</ele>
        <time>2018-09-15T11:19:56Z</time>
      </trkpt>
      <trkpt lat="43.3593080" lon="-5.8945660">
        <ele>175.9</ele>
        <time>2018-09-15T11:19:57Z</time>
      </trkpt>
      <trkpt lat="43.3593050" lon="-5.8946630">
        <ele>175.9</ele>
        <time>2018-09-15T11:19:58Z</time>
      </trkpt>
      <trkpt lat="43.3593020" lon="-5.8947630">
        <ele>175.8</ele>
        <time>2018-09-15T11:19:59Z</time>
      </trkpt>
      <trkpt lat="43.3593000" lon="-5.8948570">
        <ele>175.7</ele>
        <time>2018-09-15T11:20:00Z</time>
      </trkpt>
      <trkpt lat="43.3592940" lon="-5.8949540">
        <ele>175.6</ele>
        <time>2018-09-15T11:20:01Z</time>
      </trkpt>
      <trkpt lat="43.3592860" lon="-5.8950580">
        <ele>175.6</ele>
        <time>2018-09-15T11:20:02Z</time>
      </trkpt>
      <trkpt lat="43.3592720" lon="-5.8951630">
        <ele>175.5</ele>
        <time>2018-09-15T11:20:03Z</time>
      </trkpt>
      <trkpt lat="43.3592660" lon="-5.8952580">
        <ele>175.4</ele>
        <time>2018-09-15T11:20:04Z</time>
      </trkpt>
      <trkpt lat="43.3592640" lon="-5.8953530">
        <ele>175.4</ele>
        <time>2018-09-15T11:20:05Z</time>
      </trkpt>
      <trkpt lat="43.3592750" lon="-5.8954460">
        <ele>175.4</ele>
        <time>2018-09-15T11:20:06Z</time>
      </trkpt>
      <trkpt lat="43.3592880" lon="-5.8955410">
        <ele>175.4</ele>
        <time>2018-09-15T11:20:07Z</time>
      </trkpt>
      <trkpt lat="43.3592990" lon="-5.8956350">
        <ele>175.4</ele>
        <time>2018-09-15T11:20:08Z</time>
      </trkpt>
      <trkpt lat="43.3593170" lon="-5.8957280">
        <ele>175.3</ele>
        <time>2018-09-15T11:20:09Z</time>
      </trkpt>
      <trkpt lat="43.3593390" lon="-5.8958180">
        <ele>175.3</ele>
        <time>2018-09-15T11:20:10Z</time>
      </trkpt>
      <trkpt lat="43.3593630" lon="-5.8959090">
        <ele>175.2</ele>
        <time>2018-09-15T11:20:11Z</time>
      </trkpt>
      <trkpt lat="43.3593920" lon="-5.8959860">
        <ele>175.2</ele>
        <time>2018-09-15T11:20:12Z</time>
      </trkpt>
      <trkpt lat="43.3594210" lon="-5.8960700">
        <ele>175.1</ele>
        <time>2018-09-15T11:20:13Z</time>
      </trkpt>
      <trkpt lat="43.3594440" lon="-5.8961560">
        <ele>175.0</ele>
        <time>2018-09-15T11:20:14Z</time>
      </trkpt>
      <trkpt lat="43.3594650" lon="-5.8962410">
        <ele>175.0</ele>
        <time>2018-09-15T11:20:15Z</time>
      </trkpt>
      <trkpt lat="43.3594950" lon="-5.8963070">
        <ele>175.0</ele>
        <time>2018-09-15T11:20:16Z</time>
      </trkpt>
      <trkpt lat="43.3595190" lon="-5.8963980">
        <ele>175.0</ele>
        <time>2018-09-15T11:20:17Z</time>
      </trkpt>
      <trkpt lat="43.3595480" lon="-5.8964870">
        <ele>175.0</ele>
        <time>2018-09-15T11:20:18Z</time>
      </trkpt>
      <trkpt lat="43.3595760" lon="-5.8965780">
        <ele>174.7</ele>
        <time>2018-09-15T11:20:19Z</time>
      </trkpt>
      <trkpt lat="43.3596140" lon="-5.8966670">
        <ele>174.1</ele>
        <time>2018-09-15T11:20:20Z</time>
      </trkpt>
      <trkpt lat="43.3596430" lon="-5.8967560">
        <ele>173.6</ele>
        <time>2018-09-15T11:20:21Z</time>
      </trkpt>
      <trkpt lat="43.3596660" lon="-5.8968490">
        <ele>173.1</ele>
        <time>2018-09-15T11:20:22Z</time>
      </trkpt>
      <trkpt lat="43.3596800" lon="-5.8969400">
        <ele>173.0</ele>
        <time>2018-09-15T11:20:23Z</time>
      </trkpt>
      <trkpt lat="43.3597030" lon="-5.8970190">
        <ele>173.0</ele>
        <time>2018-09-15T11:20:24Z</time>
      </trkpt>
      <trkpt lat="43.3597270" lon="-5.8970900">
        <ele>173.0</ele>
        <time>2018-09-15T11:20:25Z</time>
      </trkpt>
      <trkpt lat="43.3597520" lon="-5.8971870">
        <ele>172.9</ele>
        <time>2018-09-15T11:20:26Z</time>
      </trkpt>
      <trkpt lat="43.3597810" lon="-5.8972840">
        <ele>172.8</ele>
        <time>2018-09-15T11:20:27Z</time>
      </trkpt>
      <trkpt lat="43.3598100" lon="-5.8973680">
        <ele>172.7</ele>
        <time>2018-09-15T11:20:28Z</time>
      </trkpt>
      <trkpt lat="43.3598370" lon="-5.8974650">
        <ele>172.6</ele>
        <time>2018-09-15T11:20:29Z</time>
      </trkpt>
      <trkpt lat="43.3598670" lon="-5.8975460">
        <ele>172.5</ele>
        <time>2018-09-15T11:20:30Z</time>
      </trkpt>
      <trkpt lat="43.3598940" lon="-5.8976330">
        <ele>172.4</ele>
        <time>2018-09-15T11:20:31Z</time>
      </trkpt>
      <trkpt lat="43.3599230" lon="-5.8977280">
        <ele>172.3</ele>
        <time>2018-09-15T11:20:32Z</time>
      </trkpt>
      <trkpt lat="43.3599390" lon="-5.8978340">
        <ele>172.3</ele>
        <time>2018-09-15T11:20:33Z</time>
      </trkpt>
      <trkpt lat="43.3599590" lon="-5.8979300">
        <ele>172.2</ele>
        <time>2018-09-15T11:20:34Z</time>
      </trkpt>
      <trkpt lat="43.3599760" lon="-5.8980230">
        <ele>172.1</ele>
        <time>2018-09-15T11:20:35Z</time>
      </trkpt>
      <trkpt lat="43.3599950" lon="-5.8981060">
        <ele>172.1</ele>
        <time>2018-09-15T11:20:36Z</time>
      </trkpt>
      <trkpt lat="43.3600090" lon="-5.8982040">
        <ele>172.1</ele>
        <time>2018-09-15T11:20:37Z</time>
      </trkpt>
      <trkpt lat="43.3600210" lon="-5.8983010">
        <ele>172.1</ele>
        <time>2018-09-15T11:20:38Z</time>
      </trkpt>
      <trkpt lat="43.3600260" lon="-5.8983970">
        <ele>172.1</ele>
        <time>2018-09-15T11:20:39Z</time>
      </trkpt>
      <trkpt lat="43.3600350" lon="-5.8984880">
        <ele>172.0</ele>
        <time>2018-09-15T11:20:40Z</time>
      </trkpt>
      <trkpt lat="43.3600440" lon="-5.8985770">
        <ele>172.0</ele>
        <time>2018-09-15T11:20:41Z</time>
      </trkpt>
      <trkpt lat="43.3600530" lon="-5.8986850">
        <ele>171.9</ele>
        <time>2018-09-15T11:20:42Z</time>
      </trkpt>
      <trkpt lat="43.3600620" lon="-5.8987910">
        <ele>171.8</ele>
        <time>2018-09-15T11:20:43Z</time>
      </trkpt>
      <trkpt lat="43.3600640" lon="-5.8988910">
        <ele>171.7</ele>
        <time>2018-09-15T11:20:44Z</time>
      </trkpt>
      <trkpt lat="43.3600660" lon="-5.8989990">
        <ele>171.6</ele>
        <time>2018-09-15T11:20:45Z</time>
      </trkpt>
      <trkpt lat="43.3600650" lon="-5.8991120">
        <ele>171.4</ele>
        <time>2018-09-15T11:20:46Z</time>
      </trkpt>
      <trkpt lat="43.3600650" lon="-5.8992180">
        <ele>171.3</ele>
        <time>2018-09-15T11:20:47Z</time>
      </trkpt>
      <trkpt lat="43.3600690" lon="-5.8993190">
        <ele>171.1</ele>
        <time>2018-09-15T11:20:48Z</time>
      </trkpt>
      <trkpt lat="43.3600800" lon="-5.8994240">
        <ele>171.0</ele>
        <time>2018-09-15T11:20:49Z</time>
      </trkpt>
      <trkpt lat="43.3600820" lon="-5.8995330">
        <ele>170.8</ele>
        <time>2018-09-15T11:20:50Z</time>
      </trkpt>
      <trkpt lat="43.3600820" lon="-5.8996420">
        <ele>170.6</ele>
        <time>2018-09-15T11:20:51Z</time>
      </trkpt>
      <trkpt lat="43.3600840" lon="-5.8997550">
        <ele>170.5</ele>
        <time>2018-09-15T11:20:52Z</time>
      </trkpt>
      <trkpt lat="43.3600860" lon="-5.8998700">
        <ele>170.3</ele>
        <time>2018-09-15T11:20:53Z</time>
      </trkpt>
      <trkpt lat="43.3600930" lon="-5.8999810">
        <ele>170.2</ele>
        <time>2018-09-15T11:20:54Z</time>
      </trkpt>
      <trkpt lat="43.3600970" lon="-5.9000880">
        <ele>170.0</ele>
        <time>2018-09-15T11:20:55Z</time>
      </trkpt>
      <trkpt lat="43.3600990" lon="-5.9001840">
        <ele>170.1</ele>
        <time>2018-09-15T11:20:56Z</time>
      </trkpt>
      <trkpt lat="43.3600990" lon="-5.9002900">
        <ele>170.1</ele>
        <time>2018-09-15T11:20:57Z</time>
      </trkpt>
      <trkpt lat="43.3601040" lon="-5.9004060">
        <ele>170.2</ele>
        <time>2018-09-15T11:20:58Z</time>
      </trkpt>
      <trkpt lat="43.3601180" lon="-5.9005290">
        <ele>170.3</ele>
        <time>2018-09-15T11:20:59Z</time>
      </trkpt>
      <trkpt lat="43.3601210" lon="-5.9006380">
        <ele>170.4</ele>
        <time>2018-09-15T11:21:00Z</time>
      </trkpt>
      <trkpt lat="43.3601180" lon="-5.9007540">
        <ele>170.6</ele>
        <time>2018-09-15T11:21:01Z</time>
      </trkpt>
      <trkpt lat="43.3601290" lon="-5.9008640">
        <ele>170.7</ele>
        <time>2018-09-15T11:21:02Z</time>
      </trkpt>
      <trkpt lat="43.3601250" lon="-5.9009660">
        <ele>170.8</ele>
        <time>2018-09-15T11:21:03Z</time>
      </trkpt>
      <trkpt lat="43.3601330" lon="-5.9010820">
        <ele>170.9</ele>
        <time>2018-09-15T11:21:04Z</time>
      </trkpt>
      <trkpt lat="43.3601310" lon="-5.9011900">
        <ele>171.0</ele>
        <time>2018-09-15T11:21:05Z</time>
      </trkpt>
      <trkpt lat="43.3601380" lon="-5.9012960">
        <ele>171.1</ele>
        <time>2018-09-15T11:21:06Z</time>
      </trkpt>
      <trkpt lat="43.3601340" lon="-5.9014120">
        <ele>171.1</ele>
        <time>2018-09-15T11:21:07Z</time>
      </trkpt>
      <trkpt lat="43.3601370" lon="-5.9015240">
        <ele>171.2</ele>
        <time>2018-09-15T11:21:08Z</time>
      </trkpt>
      <trkpt lat="43.3601460" lon="-5.9016310">
        <ele>171.2</ele>
        <time>2018-09-15T11:21:09Z</time>
      </trkpt>
      <trkpt lat="43.3601590" lon="-5.9017420">
        <ele>171.2</ele>
        <time>2018-09-15T11:21:10Z</time>
      </trkpt>
      <trkpt lat="43.3601600" lon="-5.9018460">
        <ele>171.3</ele>
        <time>2018-09-15T11:21:11Z</time>
      </trkpt>
      <trkpt lat="43.3601770" lon="-5.9019490">
        <ele>171.3</ele>
        <time>2018-09-15T11:21:12Z</time>
      </trkpt>
      <trkpt lat="43.3601930" lon="-5.9020570">
        <ele>171.3</ele>
        <time>2018-09-15T11:21:13Z</time>
      </trkpt>
      <trkpt lat="43.3602070" lon="-5.9021640">
        <ele>171.4</ele>
        <time>2018-09-15T11:21:14Z</time>
      </trkpt>
      <trkpt lat="43.3602250" lon="-5.9022710">
        <ele>171.5</ele>
        <time>2018-09-15T11:21:15Z</time>
      </trkpt>
      <trkpt lat="43.3602430" lon="-5.9023780">
        <ele>171.7</ele>
        <time>2018-09-15T11:21:16Z</time>
      </trkpt>
      <trkpt lat="43.3602690" lon="-5.9024830">
        <ele>171.8</ele>
        <time>2018-09-15T11:21:17Z</time>
      </trkpt>
      <trkpt lat="43.3602880" lon="-5.9025860">
        <ele>171.9</ele>
        <time>2018-09-15T11:21:18Z</time>
      </trkpt>
      <trkpt lat="43.3603090" lon="-5.9026910">
        <ele>172.0</ele>
        <time>2018-09-15T11:21:19Z</time>
      </trkpt>
      <trkpt lat="43.3603300" lon="-5.9027940">
        <ele>172.1</ele>
        <time>2018-09-15T11:21:20Z</time>
      </trkpt>
      <trkpt lat="43.3603420" lon="-5.9028790">
        <ele>172.2</ele>
        <time>2018-09-15T11:21:21Z</time>
      </trkpt>
      <trkpt lat="43.3603580" lon="-5.9029570">
        <ele>172.3</ele>
        <time>2018-09-15T11:21:22Z</time>
      </trkpt>
      <trkpt lat="43.3603780" lon="-5.9030430">
        <ele>172.4</ele>
        <time>2018-09-15T11:21:23Z</time>
      </trkpt>
      <trkpt lat="43.3604020" lon="-5.9031300">
        <ele>172.5</ele>
        <time>2018-09-15T11:21:24Z</time>
      </trkpt>
      <trkpt lat="43.3604160" lon="-5.9032120">
        <ele>172.6</ele>
        <time>2018-09-15T11:21:25Z</time>
      </trkpt>
      <trkpt lat="43.3604310" lon="-5.9032970">
        <ele>172.8</ele>
        <time>2018-09-15T11:21:26Z</time>
      </trkpt>
      <trkpt lat="43.3604480" lon="-5.9033690">
        <ele>173.0</ele>
        <time>2018-09-15T11:21:27Z</time>
      </trkpt>
      <trkpt lat="43.3604620" lon="-5.9034510">
        <ele>173.2</ele>
        <time>2018-09-15T11:21:28Z</time>
      </trkpt>
      <trkpt lat="43.3604720" lon="-5.9035130">
        <ele>173.4</ele>
        <time>2018-09-15T11:21:29Z</time>
      </trkpt>
      <trkpt lat="43.3604890" lon="-5.9035880">
        <ele>173.7</ele>
        <time>2018-09-15T11:21:30Z</time>
      </trkpt>
      <trkpt lat="43.3605040" lon="-5.9036750">
        <ele>174.0</ele>
        <time>2018-09-15T11:21:31Z</time>
      </trkpt>
      <trkpt lat="43.3605150" lon="-5.9037400">
        <ele>174.2</ele>
        <time>2018-09-15T11:21:32Z</time>
      </trkpt>
      <trkpt lat="43.3605210" lon="-5.9038080">
        <ele>174.7</ele>
        <time>2018-09-15T11:21:33Z</time>
      </trkpt>
      <trkpt lat="43.3605330" lon="-5.9038610">
        <ele>175.1</ele>
        <time>2018-09-15T11:21:34Z</time>
      </trkpt>
      <trkpt lat="43.3605460" lon="-5.9039150">
        <ele>175.5</ele>
        <time>2018-09-15T11:21:35Z</time>
      </trkpt>
      <trkpt lat="43.3605610" lon="-5.9039800">
        <ele>176.1</ele>
        <time>2018-09-15T11:21:36Z</time>
      </trkpt>
      <trkpt lat="43.3605690" lon="-5.9040430">
        <ele>176.6</ele>
        <time>2018-09-15T11:21:37Z</time>
      </trkpt>
      <trkpt lat="43.3605820" lon="-5.9041000">
        <ele>177.1</ele>
        <time>2018-09-15T11:21:38Z</time>
      </trkpt>
      <trkpt lat="43.3605910" lon="-5.9041450">
        <ele>177.4</ele>
        <time>2018-09-15T11:21:39Z</time>
      </trkpt>
      <trkpt lat="43.3606010" lon="-5.9042010">
        <ele>177.7</ele>
        <time>2018-09-15T11:21:40Z</time>
      </trkpt>
      <trkpt lat="43.3606130" lon="-5.9042530">
        <ele>178.0</ele>
        <time>2018-09-15T11:21:41Z</time>
      </trkpt>
      <trkpt lat="43.3606170" lon="-5.9043170">
        <ele>178.5</ele>
        <time>2018-09-15T11:21:42Z</time>
      </trkpt>
      <trkpt lat="43.3606260" lon="-5.9043750">
        <ele>179.0</ele>
        <time>2018-09-15T11:21:43Z</time>
      </trkpt>
      <trkpt lat="43.3606340" lon="-5.9044330">
        <ele>179.6</ele>
        <time>2018-09-15T11:21:44Z</time>
      </trkpt>
      <trkpt lat="43.3606460" lon="-5.9044950">
        <ele>180.2</ele>
        <time>2018-09-15T11:21:45Z</time>
      </trkpt>
      <trkpt lat="43.3606510" lon="-5.9045620">
        <ele>180.8</ele>
        <time>2018-09-15T11:21:46Z</time>
      </trkpt>
      <trkpt lat="43.3606690" lon="-5.9046280">
        <ele>181.5</ele>
        <time>2018-09-15T11:21:47Z</time>
      </trkpt>
      <trkpt lat="43.3606820" lon="-5.9046920">
        <ele>182.0</ele>
        <time>2018-09-15T11:21:48Z</time>
      </trkpt>
      <trkpt lat="43.3606980" lon="-5.9047550">
        <ele>182.5</ele>
        <time>2018-09-15T11:21:49Z</time>
      </trkpt>
      <trkpt lat="43.3607140" lon="-5.9048130">
        <ele>182.8</ele>
        <time>2018-09-15T11:21:50Z</time>
      </trkpt>
      <trkpt lat="43.3607280" lon="-5.9048780">
        <ele>183.2</ele>
        <time>2018-09-15T11:21:51Z</time>
      </trkpt>
      <trkpt lat="43.3607400" lon="-5.9049380">
        <ele>183.8</ele>
        <time>2018-09-15T11:21:53Z</time>
      </trkpt>
      <trkpt lat="43.3607550" lon="-5.9049970">
        <ele>184.1</ele>
        <time>2018-09-15T11:21:54Z</time>
      </trkpt>
      <trkpt lat="43.3607650" lon="-5.9050450">
        <ele>184.3</ele>
        <time>2018-09-15T11:21:55Z</time>
      </trkpt>
      <trkpt lat="43.3607840" lon="-5.9051080">
        <ele>184.7</ele>
        <time>2018-09-15T11:21:56Z</time>
      </trkpt>
      <trkpt lat="43.3608030" lon="-5.9051590">
        <ele>184.9</ele>
        <time>2018-09-15T11:21:57Z</time>
      </trkpt>
      <trkpt lat="43.3608220" lon="-5.9052160">
        <ele>185.0</ele>
        <time>2018-09-15T11:21:58Z</time>
      </trkpt>
      <trkpt lat="43.3608370" lon="-5.9052840">
        <ele>185.0</ele>
        <time>2018-09-15T11:21:59Z</time>
      </trkpt>
      <trkpt lat="43.3608570" lon="-5.9053460">
        <ele>185.0</ele>
        <time>2018-09-15T11:22:00Z</time>
      </trkpt>
      <trkpt lat="43.3608700" lon="-5.9054130">
        <ele>185.0</ele>
        <time>2018-09-15T11:22:01Z</time>
      </trkpt>
      <trkpt lat="43.3608960" lon="-5.9054650">
        <ele>183.3</ele>
        <time>2018-09-15T11:22:02Z</time>
      </trkpt>
      <trkpt lat="43.3609240" lon="-5.9055290">
        <ele>181.3</ele>
        <time>2018-09-15T11:22:03Z</time>
      </trkpt>
      <trkpt lat="43.3609450" lon="-5.9055830">
        <ele>179.7</ele>
        <time>2018-09-15T11:22:04Z</time>
      </trkpt>
      <trkpt lat="43.3609770" lon="-5.9056360">
        <ele>178.0</ele>
        <time>2018-09-15T11:22:05Z</time>
      </trkpt>
      <trkpt lat="43.3610140" lon="-5.9056880">
        <ele>178.0</ele>
        <time>2018-09-15T11:22:06Z</time>
      </trkpt>
      <trkpt lat="43.3610440" lon="-5.9057310">
        <ele>178.0</ele>
        <time>2018-09-15T11:22:07Z</time>
      </trkpt>
      <trkpt lat="43.3610910" lon="-5.9057660">
        <ele>178.0</ele>
        <time>2018-09-15T11:22:08Z</time>
      </trkpt>
      <trkpt lat="43.3611420" lon="-5.9058090">
        <ele>177.9</ele>
        <time>2018-09-15T11:22:09Z</time>
      </trkpt>
      <trkpt lat="43.3611870" lon="-5.9058510">
        <ele>177.9</ele>
        <time>2018-09-15T11:22:10Z</time>
      </trkpt>
      <trkpt lat="43.3612300" lon="-5.9059090">
        <ele>177.9</ele>
        <time>2018-09-15T11:22:11Z</time>
      </trkpt>
      <trkpt lat="43.3612810" lon="-5.9059570">
        <ele>177.9</ele>
        <time>2018-09-15T11:22:12Z</time>
      </trkpt>
      <trkpt lat="43.3613320" lon="-5.9060110">
        <ele>177.9</ele>
        <time>2018-09-15T11:22:13Z</time>
      </trkpt>
      <trkpt lat="43.3613820" lon="-5.9060440">
        <ele>177.9</ele>
        <time>2018-09-15T11:22:14Z</time>
      </trkpt>
      <trkpt lat="43.3614280" lon="-5.9060790">
        <ele>178.0</ele>
        <time>2018-09-15T11:22:15Z</time>
      </trkpt>
      <trkpt lat="43.3614750" lon="-5.9061210">
        <ele>178.1</ele>
        <time>2018-09-15T11:22:16Z</time>
      </trkpt>
      <trkpt lat="43.3615310" lon="-5.9061590">
        <ele>178.2</ele>
        <time>2018-09-15T11:22:17Z</time>
      </trkpt>
      <trkpt lat="43.3615690" lon="-5.9061980">
        <ele>178.2</ele>
        <time>2018-09-15T11:22:18Z</time>
      </trkpt>
      <trkpt lat="43.3616220" lon="-5.9062270">
        <ele>178.3</ele>
        <time>2018-09-15T11:22:19Z</time>
      </trkpt>
      <trkpt lat="43.3616760" lon="-5.9062660">
        <ele>178.4</ele>
        <time>2018-09-15T11:22:20Z</time>
      </trkpt>
      <trkpt lat="43.3617150" lon="-5.9063080">
        <ele>178.5</ele>
        <time>2018-09-15T11:22:21Z</time>
      </trkpt>
      <trkpt lat="43.3617540" lon="-5.9063480">
        <ele>178.6</ele>
        <time>2018-09-15T11:22:22Z</time>
      </trkpt>
      <trkpt lat="43.3618040" lon="-5.9063830">
        <ele>178.7</ele>
        <time>2018-09-15T11:22:23Z</time>
      </trkpt>
      <trkpt lat="43.3618480" lon="-5.9064280">
        <ele>178.9</ele>
        <time>2018-09-15T11:22:24Z</time>
      </trkpt>
      <trkpt lat="43.3618960" lon="-5.9064630">
        <ele>179.0</ele>
        <time>2018-09-15T11:22:25Z</time>
      </trkpt>
      <trkpt lat="43.3619410" lon="-5.9064890">
        <ele>179.1</ele>
        <time>2018-09-15T11:22:26Z</time>
      </trkpt>
      <trkpt lat="43.3619890" lon="-5.9065150">
        <ele>179.3</ele>
        <time>2018-09-15T11:22:27Z</time>
      </trkpt>
      <trkpt lat="43.3620420" lon="-5.9065330">
        <ele>179.4</ele>
        <time>2018-09-15T11:22:28Z</time>
      </trkpt>
      <trkpt lat="43.3620930" lon="-5.9065660">
        <ele>179.5</ele>
        <time>2018-09-15T11:22:29Z</time>
      </trkpt>
      <trkpt lat="43.3621400" lon="-5.9066030">
        <ele>179.7</ele>
        <time>2018-09-15T11:22:30Z</time>
      </trkpt>
      <trkpt lat="43.3621860" lon="-5.9066410">
        <ele>179.8</ele>
        <time>2018-09-15T11:22:31Z</time>
      </trkpt>
      <trkpt lat="43.3622250" lon="-5.9066840">
        <ele>180.0</ele>
        <time>2018-09-15T11:22:32Z</time>
      </trkpt>
      <trkpt lat="43.3622760" lon="-5.9067080">
        <ele>180.1</ele>
        <time>2018-09-15T11:22:33Z</time>
      </trkpt>
      <trkpt lat="43.3623250" lon="-5.9067410">
        <ele>180.3</ele>
        <time>2018-09-15T11:22:34Z</time>
      </trkpt>
      <trkpt lat="43.3623720" lon="-5.9067740">
        <ele>180.5</ele>
        <time>2018-09-15T11:22:35Z</time>
      </trkpt>
      <trkpt lat="43.3624150" lon="-5.9068090">
        <ele>180.7</ele>
        <time>2018-09-15T11:22:36Z</time>
      </trkpt>
      <trkpt lat="43.3624620" lon="-5.9068310">
        <ele>180.9</ele>
        <time>2018-09-15T11:22:37Z</time>
      </trkpt>
      <trkpt lat="43.3625080" lon="-5.9068520">
        <ele>181.0</ele>
        <time>2018-09-15T11:22:38Z</time>
      </trkpt>
      <trkpt lat="43.3625410" lon="-5.9068800">
        <ele>181.1</ele>
        <time>2018-09-15T11:22:39Z</time>
      </trkpt>
      <trkpt lat="43.3625830" lon="-5.9069170">
        <ele>181.2</ele>
        <time>2018-09-15T11:22:40Z</time>
      </trkpt>
      <trkpt lat="43.3626200" lon="-5.9069340">
        <ele>181.3</ele>
        <time>2018-09-15T11:22:41Z</time>
      </trkpt>
      <trkpt lat="43.3626750" lon="-5.9069620">
        <ele>181.4</ele>
        <time>2018-09-15T11:22:42Z</time>
      </trkpt>
      <trkpt lat="43.3627170" lon="-5.9069890">
        <ele>181.5</ele>
        <time>2018-09-15T11:22:43Z</time>
      </trkpt>
      <trkpt lat="43.3627650" lon="-5.9070180">
        <ele>181.6</ele>
        <time>2018-09-15T11:22:44Z</time>
      </trkpt>
      <trkpt lat="43.3628090" lon="-5.9070440">
        <ele>181.7</ele>
        <time>2018-09-15T11:22:45Z</time>
      </trkpt>
      <trkpt lat="43.3628500" lon="-5.9070740">
        <ele>181.8</ele>
        <time>2018-09-15T11:22:46Z</time>
      </trkpt>
      <trkpt lat="43.3628980" lon="-5.9070980">
        <ele>181.9</ele>
        <time>2018-09-15T11:22:47Z</time>
      </trkpt>
      <trkpt lat="43.3629480" lon="-5.9071320">
        <ele>182.0</ele>
        <time>2018-09-15T11:22:48Z</time>
      </trkpt>
      <trkpt lat="43.3629920" lon="-5.9071680">
        <ele>182.0</ele>
        <time>2018-09-15T11:22:49Z</time>
      </trkpt>
      <trkpt lat="43.3630400" lon="-5.9072050">
        <ele>182.1</ele>
        <time>2018-09-15T11:22:50Z</time>
      </trkpt>
      <trkpt lat="43.3630690" lon="-5.9072420">
        <ele>182.1</ele>
        <time>2018-09-15T11:22:51Z</time>
      </trkpt>
      <trkpt lat="43.3631100" lon="-5.9072810">
        <ele>182.2</ele>
        <time>2018-09-15T11:22:52Z</time>
      </trkpt>
      <trkpt lat="43.3631560" lon="-5.9073180">
        <ele>182.2</ele>
        <time>2018-09-15T11:22:53Z</time>
      </trkpt>
      <trkpt lat="43.3632040" lon="-5.9073530">
        <ele>182.3</ele>
        <time>2018-09-15T11:22:54Z</time>
      </trkpt>
      <trkpt lat="43.3632540" lon="-5.9073940">
        <ele>182.4</ele>
        <time>2018-09-15T11:22:55Z</time>
      </trkpt>
      <trkpt lat="43.3633100" lon="-5.9074370">
        <ele>182.5</ele>
        <time>2018-09-15T11:22:56Z</time>
      </trkpt>
      <trkpt lat="43.3633600" lon="-5.9074630">
        <ele>182.6</ele>
        <time>2018-09-15T11:22:57Z</time>
      </trkpt>
      <trkpt lat="43.3634030" lon="-5.9075090">
        <ele>182.7</ele>
        <time>2018-09-15T11:22:58Z</time>
      </trkpt>
      <trkpt lat="43.3634490" lon="-5.9075560">
        <ele>182.8</ele>
        <time>2018-09-15T11:22:59Z</time>
      </trkpt>
      <trkpt lat="43.3634970" lon="-5.9075900">
        <ele>183.0</ele>
        <time>2018-09-15T11:23:00Z</time>
      </trkpt>
      <trkpt lat="43.3635400" lon="-5.9076460">
        <ele>183.1</ele>
        <time>2018-09-15T11:23:01Z</time>
      </trkpt>
      <trkpt lat="43.3635710" lon="-5.9077050">
        <ele>183.2</ele>
        <time>2018-09-15T11:23:02Z</time>
      </trkpt>
      <trkpt lat="43.3636150" lon="-5.9077690">
        <ele>183.3</ele>
        <time>2018-09-15T11:23:03Z</time>
      </trkpt>
      <trkpt lat="43.3636470" lon="-5.9078250">
        <ele>183.3</ele>
        <time>2018-09-15T11:23:04Z</time>
      </trkpt>
      <trkpt lat="43.3636840" lon="-5.9078830">
        <ele>183.2</ele>
        <time>2018-09-15T11:23:05Z</time>
      </trkpt>
      <trkpt lat="43.3637200" lon="-5.9079360">
        <ele>183.1</ele>
        <time>2018-09-15T11:23:06Z</time>
      </trkpt>
      <trkpt lat="43.3637400" lon="-5.9080020">
        <ele>183.0</ele>
        <time>2018-09-15T11:23:07Z</time>
      </trkpt>
      <trkpt lat="43.3637760" lon="-5.9080740">
        <ele>182.8</ele>
        <time>2018-09-15T11:23:08Z</time>
      </trkpt>
      <trkpt lat="43.3638090" lon="-5.9081340">
        <ele>182.7</ele>
        <time>2018-09-15T11:23:09Z</time>
      </trkpt>
      <trkpt lat="43.3638400" lon="-5.9082090">
        <ele>182.6</ele>
        <time>2018-09-15T11:23:10Z</time>
      </trkpt>
      <trkpt lat="43.3638730" lon="-5.9082810">
        <ele>182.5</ele>
        <time>2018-09-15T11:23:11Z</time>
      </trkpt>
      <trkpt lat="43.3638940" lon="-5.9083670">
        <ele>182.4</ele>
        <time>2018-09-15T11:23:12Z</time>
      </trkpt>
      <trkpt lat="43.3639180" lon="-5.9084520">
        <ele>182.3</ele>
        <time>2018-09-15T11:23:13Z</time>
      </trkpt>
      <trkpt lat="43.3639440" lon="-5.9085440">
        <ele>182.2</ele>
        <time>2018-09-15T11:23:14Z</time>
      </trkpt>
      <trkpt lat="43.3639710" lon="-5.9086510">
        <ele>182.1</ele>
        <time>2018-09-15T11:23:15Z</time>
      </trkpt>
      <trkpt lat="43.3640030" lon="-5.9087550">
        <ele>182.0</ele>
        <time>2018-09-15T11:23:16Z</time>
      </trkpt>
      <trkpt lat="43.3640220" lon="-5.9088580">
        <ele>182.0</ele>
        <time>2018-09-15T11:23:17Z</time>
      </trkpt>
      <trkpt lat="43.3640400" lon="-5.9089650">
        <ele>181.9</ele>
        <time>2018-09-15T11:23:18Z</time>
      </trkpt>
      <trkpt lat="43.3640530" lon="-5.9090750">
        <ele>181.9</ele>
        <time>2018-09-15T11:23:19Z</time>
      </trkpt>
      <trkpt lat="43.3640680" lon="-5.9091720">
        <ele>181.8</ele>
        <time>2018-09-15T11:23:20Z</time>
      </trkpt>
      <trkpt lat="43.3640730" lon="-5.9092800">
        <ele>181.9</ele>
        <time>2018-09-15T11:23:21Z</time>
      </trkpt>
      <trkpt lat="43.3640830" lon="-5.9094040">
        <ele>182.0</ele>
        <time>2018-09-15T11:23:22Z</time>
      </trkpt>
      <trkpt lat="43.3640960" lon="-5.9095150">
        <ele>181.3</ele>
        <time>2018-09-15T11:23:23Z</time>
      </trkpt>
      <trkpt lat="43.3641100" lon="-5.9096230">
        <ele>180.3</ele>
        <time>2018-09-15T11:23:24Z</time>
      </trkpt>
      <trkpt lat="43.3641330" lon="-5.9097470">
        <ele>179.2</ele>
        <time>2018-09-15T11:23:25Z</time>
      </trkpt>
      <trkpt lat="43.3641630" lon="-5.9098670">
        <ele>178.3</ele>
        <time>2018-09-15T11:23:26Z</time>
      </trkpt>
      <trkpt lat="43.3641960" lon="-5.9099870">
        <ele>177.3</ele>
        <time>2018-09-15T11:23:27Z</time>
      </trkpt>
      <trkpt lat="43.3642460" lon="-5.9101160">
        <ele>176.3</ele>
        <time>2018-09-15T11:23:28Z</time>
      </trkpt>
      <trkpt lat="43.3643010" lon="-5.9102240">
        <ele>175.2</ele>
        <time>2018-09-15T11:23:29Z</time>
      </trkpt>
      <trkpt lat="43.3643600" lon="-5.9103220">
        <ele>174.2</ele>
        <time>2018-09-15T11:23:30Z</time>
      </trkpt>
      <trkpt lat="43.3644310" lon="-5.9104090">
        <ele>173.0</ele>
        <time>2018-09-15T11:23:31Z</time>
      </trkpt>
      <trkpt lat="43.3645080" lon="-5.9105000">
        <ele>171.7</ele>
        <time>2018-09-15T11:23:32Z</time>
      </trkpt>
      <trkpt lat="43.3645910" lon="-5.9105820">
        <ele>170.3</ele>
        <time>2018-09-15T11:23:33Z</time>
      </trkpt>
      <trkpt lat="43.3646750" lon="-5.9106580">
        <ele>168.8</ele>
        <time>2018-09-15T11:23:34Z</time>
      </trkpt>
      <trkpt lat="43.3647560" lon="-5.9107260">
        <ele>167.5</ele>
        <time>2018-09-15T11:23:35Z</time>
      </trkpt>
      <trkpt lat="43.3648400" lon="-5.9108010">
        <ele>166.3</ele>
        <time>2018-09-15T11:23:36Z</time>
      </trkpt>
      <trkpt lat="43.3649260" lon="-5.9108740">
        <ele>165.0</ele>
        <time>2018-09-15T11:23:37Z</time>
      </trkpt>
      <trkpt lat="43.3650020" lon="-5.9109610">
        <ele>163.7</ele>
        <time>2018-09-15T11:23:38Z</time>
      </trkpt>
      <trkpt lat="43.3650720" lon="-5.9110680">
        <ele>163.0</ele>
        <time>2018-09-15T11:23:39Z</time>
      </trkpt>
      <trkpt lat="43.3651360" lon="-5.9111780">
        <ele>163.1</ele>
        <time>2018-09-15T11:23:40Z</time>
      </trkpt>
      <trkpt lat="43.3651880" lon="-5.9112880">
        <ele>163.1</ele>
        <time>2018-09-15T11:23:41Z</time>
      </trkpt>
      <trkpt lat="43.3652310" lon="-5.9114230">
        <ele>163.2</ele>
        <time>2018-09-15T11:23:42Z</time>
      </trkpt>
      <trkpt lat="43.3652660" lon="-5.9115500">
        <ele>163.4</ele>
        <time>2018-09-15T11:23:43Z</time>
      </trkpt>
      <trkpt lat="43.3652970" lon="-5.9116890">
        <ele>163.6</ele>
        <time>2018-09-15T11:23:44Z</time>
      </trkpt>
      <trkpt lat="43.3653380" lon="-5.9119490">
        <ele>164.0</ele>
        <time>2018-09-15T11:23:45Z</time>
      </trkpt>
      <trkpt lat="43.3653530" lon="-5.9121130">
        <ele>164.3</ele>
        <time>2018-09-15T11:23:46Z</time>
      </trkpt>
      <trkpt lat="43.3653630" lon="-5.9122410">
        <ele>164.7</ele>
        <time>2018-09-15T11:23:47Z</time>
      </trkpt>
      <trkpt lat="43.3653760" lon="-5.9123750">
        <ele>165.0</ele>
        <time>2018-09-15T11:23:48Z</time>
      </trkpt>
      <trkpt lat="43.3653900" lon="-5.9125000">
        <ele>165.0</ele>
        <time>2018-09-15T11:23:49Z</time>
      </trkpt>
      <trkpt lat="43.3654050" lon="-5.9126310">
        <ele>165.1</ele>
        <time>2018-09-15T11:23:50Z</time>
      </trkpt>
      <trkpt lat="43.3654210" lon="-5.9127530">
        <ele>165.2</ele>
        <time>2018-09-15T11:23:51Z</time>
      </trkpt>
      <trkpt lat="43.3654330" lon="-5.9128480">
        <ele>165.2</ele>
        <time>2018-09-15T11:23:52Z</time>
      </trkpt>
      <trkpt lat="43.3654440" lon="-5.9129430">
        <ele>165.2</ele>
        <time>2018-09-15T11:23:53Z</time>
      </trkpt>
      <trkpt lat="43.3654670" lon="-5.9131340">
        <ele>164.9</ele>
        <time>2018-09-15T11:23:54Z</time>
      </trkpt>
      <trkpt lat="43.3654760" lon="-5.9132610">
        <ele>164.6</ele>
        <time>2018-09-15T11:23:55Z</time>
      </trkpt>
      <trkpt lat="43.3654940" lon="-5.9133880">
        <ele>164.4</ele>
        <time>2018-09-15T11:23:56Z</time>
      </trkpt>
      <trkpt lat="43.3655030" lon="-5.9135180">
        <ele>164.1</ele>
        <time>2018-09-15T11:23:57Z</time>
      </trkpt>
      <trkpt lat="43.3655160" lon="-5.9136560">
        <ele>163.9</ele>
        <time>2018-09-15T11:23:58Z</time>
      </trkpt>
      <trkpt lat="43.3655310" lon="-5.9137940">
        <ele>163.6</ele>
        <time>2018-09-15T11:23:59Z</time>
      </trkpt>
      <trkpt lat="43.3655510" lon="-5.9139350">
        <ele>163.3</ele>
        <time>2018-09-15T11:24:00Z</time>
      </trkpt>
      <trkpt lat="43.3655850" lon="-5.9140860">
        <ele>163.0</ele>
        <time>2018-09-15T11:24:01Z</time>
      </trkpt>
      <trkpt lat="43.3656290" lon="-5.9142220">
        <ele>162.9</ele>
        <time>2018-09-15T11:24:02Z</time>
      </trkpt>
      <trkpt lat="43.3656900" lon="-5.9143550">
        <ele>162.3</ele>
        <time>2018-09-15T11:24:03Z</time>
      </trkpt>
      <trkpt lat="43.3657680" lon="-5.9144680">
        <ele>158.5</ele>
        <time>2018-09-15T11:24:04Z</time>
      </trkpt>
      <trkpt lat="43.3658570" lon="-5.9145600">
        <ele>154.8</ele>
        <time>2018-09-15T11:24:05Z</time>
      </trkpt>
      <trkpt lat="43.3659540" lon="-5.9146360">
        <ele>151.1</ele>
        <time>2018-09-15T11:24:06Z</time>
      </trkpt>
      <trkpt lat="43.3660580" lon="-5.9146990">
        <ele>150.6</ele>
        <time>2018-09-15T11:24:07Z</time>
      </trkpt>
      <trkpt lat="43.3661660" lon="-5.9147470">
        <ele>150.1</ele>
        <time>2018-09-15T11:24:08Z</time>
      </trkpt>
      <trkpt lat="43.3662730" lon="-5.9147960">
        <ele>149.8</ele>
        <time>2018-09-15T11:24:09Z</time>
      </trkpt>
      <trkpt lat="43.3663590" lon="-5.9148370">
        <ele>149.5</ele>
        <time>2018-09-15T11:24:10Z</time>
      </trkpt>
      <trkpt lat="43.3664450" lon="-5.9148780">
        <ele>149.2</ele>
        <time>2018-09-15T11:24:11Z</time>
      </trkpt>
      <trkpt lat="43.3666170" lon="-5.9149600">
        <ele>148.4</ele>
        <time>2018-09-15T11:24:12Z</time>
      </trkpt>
      <trkpt lat="43.3667130" lon="-5.9150370">
        <ele>148.1</ele>
        <time>2018-09-15T11:24:13Z</time>
      </trkpt>
      <trkpt lat="43.3668080" lon="-5.9151290">
        <ele>147.7</ele>
        <time>2018-09-15T11:24:14Z</time>
      </trkpt>
      <trkpt lat="43.3668680" lon="-5.9152200">
        <ele>147.4</ele>
        <time>2018-09-15T11:24:15Z</time>
      </trkpt>
      <trkpt lat="43.3669280" lon="-5.9153110">
        <ele>147.1</ele>
        <time>2018-09-15T11:24:16Z</time>
      </trkpt>
      <trkpt lat="43.3670470" lon="-5.9154930">
        <ele>146.5</ele>
        <time>2018-09-15T11:24:17Z</time>
      </trkpt>
      <trkpt lat="43.3671160" lon="-5.9156190">
        <ele>146.1</ele>
        <time>2018-09-15T11:24:18Z</time>
      </trkpt>
      <trkpt lat="43.3671850" lon="-5.9157520">
        <ele>145.0</ele>
        <time>2018-09-15T11:24:19Z</time>
      </trkpt>
      <trkpt lat="43.3672620" lon="-5.9158710">
        <ele>142.8</ele>
        <time>2018-09-15T11:24:20Z</time>
      </trkpt>
      <trkpt lat="43.3673480" lon="-5.9159770">
        <ele>140.8</ele>
        <time>2018-09-15T11:24:21Z</time>
      </trkpt>
      <trkpt lat="43.3674380" lon="-5.9160700">
        <ele>139.0</ele>
        <time>2018-09-15T11:24:22Z</time>
      </trkpt>
      <trkpt lat="43.3675250" lon="-5.9161560">
        <ele>137.2</ele>
        <time>2018-09-15T11:24:23Z</time>
      </trkpt>
      <trkpt lat="43.3676190" lon="-5.9162270">
        <ele>135.3</ele>
        <time>2018-09-15T11:24:24Z</time>
      </trkpt>
      <trkpt lat="43.3677260" lon="-5.9162770">
        <ele>133.1</ele>
        <time>2018-09-15T11:24:25Z</time>
      </trkpt>
      <trkpt lat="43.3678380" lon="-5.9163310">
        <ele>130.8</ele>
        <time>2018-09-15T11:24:26Z</time>
      </trkpt>
      <trkpt lat="43.3679580" lon="-5.9163600">
        <ele>128.2</ele>
        <time>2018-09-15T11:24:27Z</time>
      </trkpt>
      <trkpt lat="43.3680740" lon="-5.9163820">
        <ele>127.8</ele>
        <time>2018-09-15T11:24:28Z</time>
      </trkpt>
      <trkpt lat="43.3681920" lon="-5.9163890">
        <ele>127.7</ele>
        <time>2018-09-15T11:24:29Z</time>
      </trkpt>
      <trkpt lat="43.3683060" lon="-5.9163960">
        <ele>127.7</ele>
        <time>2018-09-15T11:24:30Z</time>
      </trkpt>
      <trkpt lat="43.3684240" lon="-5.9164080">
        <ele>127.7</ele>
        <time>2018-09-15T11:24:31Z</time>
      </trkpt>
      <trkpt lat="43.3685270" lon="-5.9164250">
        <ele>127.7</ele>
        <time>2018-09-15T11:24:32Z</time>
      </trkpt>
      <trkpt lat="43.3686350" lon="-5.9164530">
        <ele>127.9</ele>
        <time>2018-09-15T11:24:33Z</time>
      </trkpt>
      <trkpt lat="43.3687360" lon="-5.9164900">
        <ele>128.1</ele>
        <time>2018-09-15T11:24:34Z</time>
      </trkpt>
      <trkpt lat="43.3688420" lon="-5.9165420">
        <ele>128.3</ele>
        <time>2018-09-15T11:24:35Z</time>
      </trkpt>
      <trkpt lat="43.3689400" lon="-5.9165870">
        <ele>128.5</ele>
        <time>2018-09-15T11:24:36Z</time>
      </trkpt>
      <trkpt lat="43.3690470" lon="-5.9166390">
        <ele>128.7</ele>
        <time>2018-09-15T11:24:37Z</time>
      </trkpt>
      <trkpt lat="43.3691470" lon="-5.9166750">
        <ele>128.9</ele>
        <time>2018-09-15T11:24:38Z</time>
      </trkpt>
      <trkpt lat="43.3692560" lon="-5.9167050">
        <ele>128.3</ele>
        <time>2018-09-15T11:24:39Z</time>
      </trkpt>
      <trkpt lat="43.3693540" lon="-5.9167240">
        <ele>127.5</ele>
        <time>2018-09-15T11:24:40Z</time>
      </trkpt>
      <trkpt lat="43.3694530" lon="-5.9167430">
        <ele>126.7</ele>
        <time>2018-09-15T11:24:41Z</time>
      </trkpt>
      <trkpt lat="43.3695510" lon="-5.9167540">
        <ele>125.9</ele>
        <time>2018-09-15T11:24:42Z</time>
      </trkpt>
      <trkpt lat="43.3696450" lon="-5.9167770">
        <ele>125.1</ele>
        <time>2018-09-15T11:24:43Z</time>
      </trkpt>
      <trkpt lat="43.3697370" lon="-5.9167930">
        <ele>124.3</ele>
        <time>2018-09-15T11:24:44Z</time>
      </trkpt>
      <trkpt lat="43.3698330" lon="-5.9168150">
        <ele>123.6</ele>
        <time>2018-09-15T11:24:45Z</time>
      </trkpt>
      <trkpt lat="43.3699220" lon="-5.9168450">
        <ele>122.8</ele>
        <time>2018-09-15T11:24:46Z</time>
      </trkpt>
      <trkpt lat="43.3700150" lon="-5.9168820">
        <ele>122.1</ele>
        <time>2018-09-15T11:24:47Z</time>
      </trkpt>
      <trkpt lat="43.3700850" lon="-5.9169300">
        <ele>122.0</ele>
        <time>2018-09-15T11:24:48Z</time>
      </trkpt>
      <trkpt lat="43.3701640" lon="-5.9169990">
        <ele>122.0</ele>
        <time>2018-09-15T11:24:49Z</time>
      </trkpt>
      <trkpt lat="43.3702370" lon="-5.9170730">
        <ele>121.7</ele>
        <time>2018-09-15T11:24:50Z</time>
      </trkpt>
      <trkpt lat="43.3702990" lon="-5.9171390">
        <ele>121.5</ele>
        <time>2018-09-15T11:24:51Z</time>
      </trkpt>
      <trkpt lat="43.3703640" lon="-5.9172190">
        <ele>121.2</ele>
        <time>2018-09-15T11:24:52Z</time>
      </trkpt>
      <trkpt lat="43.3704150" lon="-5.9172960">
        <ele>120.9</ele>
        <time>2018-09-15T11:24:53Z</time>
      </trkpt>
      <trkpt lat="43.3704720" lon="-5.9173740">
        <ele>120.6</ele>
        <time>2018-09-15T11:24:54Z</time>
      </trkpt>
      <trkpt lat="43.3705290" lon="-5.9174600">
        <ele>120.2</ele>
        <time>2018-09-15T11:24:55Z</time>
      </trkpt>
      <trkpt lat="43.3705950" lon="-5.9175420">
        <ele>119.7</ele>
        <time>2018-09-15T11:24:56Z</time>
      </trkpt>
      <trkpt lat="43.3706560" lon="-5.9176190">
        <ele>119.4</ele>
        <time>2018-09-15T11:24:57Z</time>
      </trkpt>
      <trkpt lat="43.3707210" lon="-5.9176970">
        <ele>119.0</ele>
        <time>2018-09-15T11:24:58Z</time>
      </trkpt>
      <trkpt lat="43.3707870" lon="-5.9177720">
        <ele>118.7</ele>
        <time>2018-09-15T11:24:59Z</time>
      </trkpt>
      <trkpt lat="43.3708590" lon="-5.9178350">
        <ele>118.4</ele>
        <time>2018-09-15T11:25:00Z</time>
      </trkpt>
      <trkpt lat="43.3709280" lon="-5.9178980">
        <ele>118.1</ele>
        <time>2018-09-15T11:25:01Z</time>
      </trkpt>
      <trkpt lat="43.3710050" lon="-5.9179510">
        <ele>117.9</ele>
        <time>2018-09-15T11:25:02Z</time>
      </trkpt>
      <trkpt lat="43.3710790" lon="-5.9179960">
        <ele>117.6</ele>
        <time>2018-09-15T11:25:03Z</time>
      </trkpt>
      <trkpt lat="43.3711560" lon="-5.9180520">
        <ele>117.5</ele>
        <time>2018-09-15T11:25:04Z</time>
      </trkpt>
      <trkpt lat="43.3712330" lon="-5.9181050">
        <ele>117.3</ele>
        <time>2018-09-15T11:25:05Z</time>
      </trkpt>
      <trkpt lat="43.3713030" lon="-5.9181590">
        <ele>117.2</ele>
        <time>2018-09-15T11:25:06Z</time>
      </trkpt>
      <trkpt lat="43.3713750" lon="-5.9182050">
        <ele>117.1</ele>
        <time>2018-09-15T11:25:07Z</time>
      </trkpt>
      <trkpt lat="43.3714570" lon="-5.9182490">
        <ele>117.0</ele>
        <time>2018-09-15T11:25:08Z</time>
      </trkpt>
      <trkpt lat="43.3715280" lon="-5.9182840">
        <ele>116.9</ele>
        <time>2018-09-15T11:25:09Z</time>
      </trkpt>
      <trkpt lat="43.3716040" lon="-5.9183300">
        <ele>116.7</ele>
        <time>2018-09-15T11:25:10Z</time>
      </trkpt>
      <trkpt lat="43.3716760" lon="-5.9183740">
        <ele>116.6</ele>
        <time>2018-09-15T11:25:11Z</time>
      </trkpt>
      <trkpt lat="43.3717480" lon="-5.9184220">
        <ele>116.4</ele>
        <time>2018-09-15T11:25:12Z</time>
      </trkpt>
      <trkpt lat="43.3718140" lon="-5.9184880">
        <ele>116.2</ele>
        <time>2018-09-15T11:25:13Z</time>
      </trkpt>
      <trkpt lat="43.3718690" lon="-5.9185600">
        <ele>116.0</ele>
        <time>2018-09-15T11:25:14Z</time>
      </trkpt>
      <trkpt lat="43.3719260" lon="-5.9186330">
        <ele>115.6</ele>
        <time>2018-09-15T11:25:15Z</time>
      </trkpt>
      <trkpt lat="43.3719900" lon="-5.9187180">
        <ele>114.7</ele>
        <time>2018-09-15T11:25:16Z</time>
      </trkpt>
      <trkpt lat="43.3720450" lon="-5.9188020">
        <ele>114.2</ele>
        <time>2018-09-15T11:25:17Z</time>
      </trkpt>
      <trkpt lat="43.3720930" lon="-5.9188850">
        <ele>114.1</ele>
        <time>2018-09-15T11:25:18Z</time>
      </trkpt>
      <trkpt lat="43.3721420" lon="-5.9189680">
        <ele>114.1</ele>
        <time>2018-09-15T11:25:19Z</time>
      </trkpt>
      <trkpt lat="43.3721960" lon="-5.9190530">
        <ele>114.2</ele>
        <time>2018-09-15T11:25:20Z</time>
      </trkpt>
      <trkpt lat="43.3722450" lon="-5.9191410">
        <ele>114.2</ele>
        <time>2018-09-15T11:25:21Z</time>
      </trkpt>
      <trkpt lat="43.3722960" lon="-5.9192250">
        <ele>114.3</ele>
        <time>2018-09-15T11:25:22Z</time>
      </trkpt>
      <trkpt lat="43.3723490" lon="-5.9193120">
        <ele>114.4</ele>
        <time>2018-09-15T11:25:23Z</time>
      </trkpt>
      <trkpt lat="43.3723920" lon="-5.9193670">
        <ele>114.4</ele>
        <time>2018-09-15T11:25:24Z</time>
      </trkpt>
      <trkpt lat="43.3724350" lon="-5.9194230">
        <ele>114.5</ele>
        <time>2018-09-15T11:25:25Z</time>
      </trkpt>
      <trkpt lat="43.3725200" lon="-5.9195340">
        <ele>114.7</ele>
        <time>2018-09-15T11:25:26Z</time>
      </trkpt>
      <trkpt lat="43.3725790" lon="-5.9196100">
        <ele>114.8</ele>
        <time>2018-09-15T11:25:27Z</time>
      </trkpt>
      <trkpt lat="43.3726370" lon="-5.9196830">
        <ele>114.9</ele>
        <time>2018-09-15T11:25:28Z</time>
      </trkpt>
      <trkpt lat="43.3726930" lon="-5.9197620">
        <ele>114.9</ele>
        <time>2018-09-15T11:25:29Z</time>
      </trkpt>
      <trkpt lat="43.3727510" lon="-5.9198320">
        <ele>115.0</ele>
        <time>2018-09-15T11:25:30Z</time>
      </trkpt>
      <trkpt lat="43.3728070" lon="-5.9199030">
        <ele>114.8</ele>
        <time>2018-09-15T11:25:31Z</time>
      </trkpt>
      <trkpt lat="43.3728610" lon="-5.9199750">
        <ele>114.6</ele>
        <time>2018-09-15T11:25:32Z</time>
      </trkpt>
      <trkpt lat="43.3729220" lon="-5.9200350">
        <ele>114.4</ele>
        <time>2018-09-15T11:25:33Z</time>
      </trkpt>
      <trkpt lat="43.3729790" lon="-5.9201010">
        <ele>114.2</ele>
        <time>2018-09-15T11:25:34Z</time>
      </trkpt>
      <trkpt lat="43.3730320" lon="-5.9201620">
        <ele>113.9</ele>
        <time>2018-09-15T11:25:35Z</time>
      </trkpt>
      <trkpt lat="43.3730860" lon="-5.9202290">
        <ele>113.5</ele>
        <time>2018-09-15T11:25:36Z</time>
      </trkpt>
      <trkpt lat="43.3731350" lon="-5.9202950">
        <ele>113.0</ele>
        <time>2018-09-15T11:25:37Z</time>
      </trkpt>
      <trkpt lat="43.3731850" lon="-5.9203610">
        <ele>112.6</ele>
        <time>2018-09-15T11:25:38Z</time>
      </trkpt>
      <trkpt lat="43.3732270" lon="-5.9204400">
        <ele>112.2</ele>
        <time>2018-09-15T11:25:39Z</time>
      </trkpt>
      <trkpt lat="43.3732660" lon="-5.9205220">
        <ele>111.8</ele>
        <time>2018-09-15T11:25:40Z</time>
      </trkpt>
      <trkpt lat="43.3733040" lon="-5.9206030">
        <ele>111.5</ele>
        <time>2018-09-15T11:25:41Z</time>
      </trkpt>
      <trkpt lat="43.3733400" lon="-5.9206950">
        <ele>111.2</ele>
        <time>2018-09-15T11:25:42Z</time>
      </trkpt>
      <trkpt lat="43.3733750" lon="-5.9207770">
        <ele>110.8</ele>
        <time>2018-09-15T11:25:43Z</time>
      </trkpt>
      <trkpt lat="43.3734130" lon="-5.9208640">
        <ele>110.6</ele>
        <time>2018-09-15T11:25:44Z</time>
      </trkpt>
      <trkpt lat="43.3734540" lon="-5.9209460">
        <ele>110.4</ele>
        <time>2018-09-15T11:25:45Z</time>
      </trkpt>
      <trkpt lat="43.3734890" lon="-5.9210420">
        <ele>110.2</ele>
        <time>2018-09-15T11:25:46Z</time>
      </trkpt>
      <trkpt lat="43.3735230" lon="-5.9211310">
        <ele>110.0</ele>
        <time>2018-09-15T11:25:47Z</time>
      </trkpt>
      <trkpt lat="43.3735560" lon="-5.9212290">
        <ele>109.5</ele>
        <time>2018-09-15T11:25:48Z</time>
      </trkpt>
      <trkpt lat="43.3735900" lon="-5.9213300">
        <ele>109.0</ele>
        <time>2018-09-15T11:25:49Z</time>
      </trkpt>
      <trkpt lat="43.3736240" lon="-5.9214410">
        <ele>108.3</ele>
        <time>2018-09-15T11:25:50Z</time>
      </trkpt>
      <trkpt lat="43.3736630" lon="-5.9215500">
        <ele>107.8</ele>
        <time>2018-09-15T11:25:51Z</time>
      </trkpt>
      <trkpt lat="43.3737010" lon="-5.9216430">
        <ele>107.6</ele>
        <time>2018-09-15T11:25:52Z</time>
      </trkpt>
      <trkpt lat="43.3737300" lon="-5.9217560">
        <ele>107.3</ele>
        <time>2018-09-15T11:25:53Z</time>
      </trkpt>
      <trkpt lat="43.3737610" lon="-5.9218760">
        <ele>107.0</ele>
        <time>2018-09-15T11:25:54Z</time>
      </trkpt>
      <trkpt lat="43.3737950" lon="-5.9219880">
        <ele>106.6</ele>
        <time>2018-09-15T11:25:55Z</time>
      </trkpt>
      <trkpt lat="43.3738250" lon="-5.9221000">
        <ele>106.3</ele>
        <time>2018-09-15T11:25:56Z</time>
      </trkpt>
      <trkpt lat="43.3738500" lon="-5.9222220">
        <ele>106.0</ele>
        <time>2018-09-15T11:25:57Z</time>
      </trkpt>
      <trkpt lat="43.3738740" lon="-5.9223530">
        <ele>105.7</ele>
        <time>2018-09-15T11:25:58Z</time>
      </trkpt>
      <trkpt lat="43.3739030" lon="-5.9224870">
        <ele>105.5</ele>
        <time>2018-09-15T11:25:59Z</time>
      </trkpt>
      <trkpt lat="43.3739200" lon="-5.9226090">
        <ele>105.3</ele>
        <time>2018-09-15T11:26:00Z</time>
      </trkpt>
      <trkpt lat="43.3739420" lon="-5.9227340">
        <ele>105.0</ele>
        <time>2018-09-15T11:26:01Z</time>
      </trkpt>
      <trkpt lat="43.3739630" lon="-5.9228610">
        <ele>104.6</ele>
        <time>2018-09-15T11:26:02Z</time>
      </trkpt>
      <trkpt lat="43.3739810" lon="-5.9229870">
        <ele>104.4</ele>
        <time>2018-09-15T11:26:03Z</time>
      </trkpt>
      <trkpt lat="43.3739970" lon="-5.9231050">
        <ele>104.1</ele>
        <time>2018-09-15T11:26:04Z</time>
      </trkpt>
      <trkpt lat="43.3740230" lon="-5.9232360">
        <ele>103.8</ele>
        <time>2018-09-15T11:26:05Z</time>
      </trkpt>
      <trkpt lat="43.3740450" lon="-5.9233530">
        <ele>103.5</ele>
        <time>2018-09-15T11:26:06Z</time>
      </trkpt>
      <trkpt lat="43.3740610" lon="-5.9234780">
        <ele>103.2</ele>
        <time>2018-09-15T11:26:07Z</time>
      </trkpt>
      <trkpt lat="43.3740770" lon="-5.9235980">
        <ele>103.1</ele>
        <time>2018-09-15T11:26:08Z</time>
      </trkpt>
      <trkpt lat="43.3741040" lon="-5.9237190">
        <ele>102.9</ele>
        <time>2018-09-15T11:26:09Z</time>
      </trkpt>
      <trkpt lat="43.3741140" lon="-5.9238060">
        <ele>102.8</ele>
        <time>2018-09-15T11:26:10Z</time>
      </trkpt>
      <trkpt lat="43.3741300" lon="-5.9239210">
        <ele>102.5</ele>
        <time>2018-09-15T11:26:11Z</time>
      </trkpt>
      <trkpt lat="43.3741460" lon="-5.9240460">
        <ele>102.3</ele>
        <time>2018-09-15T11:26:12Z</time>
      </trkpt>
      <trkpt lat="43.3741710" lon="-5.9241790">
        <ele>102.1</ele>
        <time>2018-09-15T11:26:13Z</time>
      </trkpt>
      <trkpt lat="43.3741790" lon="-5.9242940">
        <ele>102.0</ele>
        <time>2018-09-15T11:26:14Z</time>
      </trkpt>
      <trkpt lat="43.3741890" lon="-5.9243830">
        <ele>101.9</ele>
        <time>2018-09-15T11:26:15Z</time>
      </trkpt>
      <trkpt lat="43.3742030" lon="-5.9245090">
        <ele>101.9</ele>
        <time>2018-09-15T11:26:16Z</time>
      </trkpt>
      <trkpt lat="43.3742170" lon="-5.9246300">
        <ele>101.9</ele>
        <time>2018-09-15T11:26:17Z</time>
      </trkpt>
      <trkpt lat="43.3742330" lon="-5.9247520">
        <ele>101.9</ele>
        <time>2018-09-15T11:26:18Z</time>
      </trkpt>
      <trkpt lat="43.3742480" lon="-5.9248700">
        <ele>101.9</ele>
        <time>2018-09-15T11:26:19Z</time>
      </trkpt>
      <trkpt lat="43.3742650" lon="-5.9249760">
        <ele>101.9</ele>
        <time>2018-09-15T11:26:20Z</time>
      </trkpt>
      <trkpt lat="43.3742930" lon="-5.9250860">
        <ele>102.0</ele>
        <time>2018-09-15T11:26:21Z</time>
      </trkpt>
      <trkpt lat="43.3743130" lon="-5.9251790">
        <ele>102.0</ele>
        <time>2018-09-15T11:26:22Z</time>
      </trkpt>
      <trkpt lat="43.3743530" lon="-5.9252660">
        <ele>101.5</ele>
        <time>2018-09-15T11:26:23Z</time>
      </trkpt>
      <trkpt lat="43.3743950" lon="-5.9253510">
        <ele>101.2</ele>
        <time>2018-09-15T11:26:24Z</time>
      </trkpt>
      <trkpt lat="43.3744420" lon="-5.9254330">
        <ele>100.8</ele>
        <time>2018-09-15T11:26:25Z</time>
      </trkpt>
      <trkpt lat="43.3744890" lon="-5.9255140">
        <ele>100.5</ele>
        <time>2018-09-15T11:26:26Z</time>
      </trkpt>
      <trkpt lat="43.3745370" lon="-5.9255880">
        <ele>100.3</ele>
        <time>2018-09-15T11:26:27Z</time>
      </trkpt>
      <trkpt lat="43.3745940" lon="-5.9256520">
        <ele>100.0</ele>
        <time>2018-09-15T11:26:28Z</time>
      </trkpt>
      <trkpt lat="43.3746520" lon="-5.9257130">
        <ele>99.8</ele>
        <time>2018-09-15T11:26:29Z</time>
      </trkpt>
      <trkpt lat="43.3747060" lon="-5.9257680">
        <ele>99.6</ele>
        <time>2018-09-15T11:26:30Z</time>
      </trkpt>
      <trkpt lat="43.3747660" lon="-5.9258080">
        <ele>99.4</ele>
        <time>2018-09-15T11:26:31Z</time>
      </trkpt>
      <trkpt lat="43.3748350" lon="-5.9258460">
        <ele>99.2</ele>
        <time>2018-09-15T11:26:32Z</time>
      </trkpt>
      <trkpt lat="43.3748980" lon="-5.9258780">
        <ele>99.0</ele>
        <time>2018-09-15T11:26:33Z</time>
      </trkpt>
      <trkpt lat="43.3749680" lon="-5.9258930">
        <ele>99.0</ele>
        <time>2018-09-15T11:26:34Z</time>
      </trkpt>
      <trkpt lat="43.3750310" lon="-5.9259150">
        <ele>99.0</ele>
        <time>2018-09-15T11:26:35Z</time>
      </trkpt>
      <trkpt lat="43.3750970" lon="-5.9259290">
        <ele>99.0</ele>
        <time>2018-09-15T11:26:36Z</time>
      </trkpt>
      <trkpt lat="43.3751600" lon="-5.9259330">
        <ele>98.9</ele>
        <time>2018-09-15T11:26:37Z</time>
      </trkpt>
      <trkpt lat="43.3752300" lon="-5.9259500">
        <ele>98.9</ele>
        <time>2018-09-15T11:26:38Z</time>
      </trkpt>
      <trkpt lat="43.3752910" lon="-5.9259740">
        <ele>98.9</ele>
        <time>2018-09-15T11:26:39Z</time>
      </trkpt>
      <trkpt lat="43.3753520" lon="-5.9259930">
        <ele>98.9</ele>
        <time>2018-09-15T11:26:40Z</time>
      </trkpt>
      <trkpt lat="43.3754130" lon="-5.9260040">
        <ele>98.9</ele>
        <time>2018-09-15T11:26:41Z</time>
      </trkpt>
      <trkpt lat="43.3754750" lon="-5.9260210">
        <ele>98.9</ele>
        <time>2018-09-15T11:26:42Z</time>
      </trkpt>
      <trkpt lat="43.3755330" lon="-5.9260360">
        <ele>98.9</ele>
        <time>2018-09-15T11:26:43Z</time>
      </trkpt>
      <trkpt lat="43.3755890" lon="-5.9260610">
        <ele>98.8</ele>
        <time>2018-09-15T11:26:44Z</time>
      </trkpt>
      <trkpt lat="43.3756490" lon="-5.9260790">
        <ele>98.8</ele>
        <time>2018-09-15T11:26:45Z</time>
      </trkpt>
      <trkpt lat="43.3757020" lon="-5.9261070">
        <ele>98.8</ele>
        <time>2018-09-15T11:26:46Z</time>
      </trkpt>
      <trkpt lat="43.3757470" lon="-5.9261190">
        <ele>98.8</ele>
        <time>2018-09-15T11:26:47Z</time>
      </trkpt>
      <trkpt lat="43.3758040" lon="-5.9261240">
        <ele>98.8</ele>
        <time>2018-09-15T11:26:48Z</time>
      </trkpt>
      <trkpt lat="43.3758560" lon="-5.9261370">
        <ele>98.8</ele>
        <time>2018-09-15T11:26:49Z</time>
      </trkpt>
      <trkpt lat="43.3759060" lon="-5.9261450">
        <ele>98.8</ele>
        <time>2018-09-15T11:26:50Z</time>
      </trkpt>
      <trkpt lat="43.3759530" lon="-5.9261680">
        <ele>98.8</ele>
        <time>2018-09-15T11:26:51Z</time>
      </trkpt>
      <trkpt lat="43.3760030" lon="-5.9261830">
        <ele>98.9</ele>
        <time>2018-09-15T11:26:52Z</time>
      </trkpt>
      <trkpt lat="43.3760530" lon="-5.9262090">
        <ele>98.9</ele>
        <time>2018-09-15T11:26:53Z</time>
      </trkpt>
      <trkpt lat="43.3761030" lon="-5.9262320">
        <ele>98.9</ele>
        <time>2018-09-15T11:26:54Z</time>
      </trkpt>
      <trkpt lat="43.3761530" lon="-5.9262610">
        <ele>99.0</ele>
        <time>2018-09-15T11:26:55Z</time>
      </trkpt>
      <trkpt lat="43.3761980" lon="-5.9262810">
        <ele>99.0</ele>
        <time>2018-09-15T11:26:56Z</time>
      </trkpt>
      <trkpt lat="43.3762430" lon="-5.9263020">
        <ele>99.1</ele>
        <time>2018-09-15T11:26:57Z</time>
      </trkpt>
      <trkpt lat="43.3762890" lon="-5.9263160">
        <ele>99.2</ele>
        <time>2018-09-15T11:26:58Z</time>
      </trkpt>
      <trkpt lat="43.3763330" lon="-5.9263380">
        <ele>99.2</ele>
        <time>2018-09-15T11:26:59Z</time>
      </trkpt>
      <trkpt lat="43.3763790" lon="-5.9263520">
        <ele>99.3</ele>
        <time>2018-09-15T11:27:00Z</time>
      </trkpt>
      <trkpt lat="43.3764230" lon="-5.9263750">
        <ele>99.4</ele>
        <time>2018-09-15T11:27:01Z</time>
      </trkpt>
      <trkpt lat="43.3764640" lon="-5.9263890">
        <ele>99.7</ele>
        <time>2018-09-15T11:27:02Z</time>
      </trkpt>
      <trkpt lat="43.3765110" lon="-5.9264090">
        <ele>100.1</ele>
        <time>2018-09-15T11:27:03Z</time>
      </trkpt>
      <trkpt lat="43.3765500" lon="-5.9264220">
        <ele>100.3</ele>
        <time>2018-09-15T11:27:04Z</time>
      </trkpt>
      <trkpt lat="43.3765900" lon="-5.9264370">
        <ele>100.5</ele>
        <time>2018-09-15T11:27:05Z</time>
      </trkpt>
      <trkpt lat="43.3766280" lon="-5.9264450">
        <ele>100.7</ele>
        <time>2018-09-15T11:27:06Z</time>
      </trkpt>
      <trkpt lat="43.3766650" lon="-5.9264530">
        <ele>101.0</ele>
        <time>2018-09-15T11:27:07Z</time>
      </trkpt>
      <trkpt lat="43.3767060" lon="-5.9264590">
        <ele>101.3</ele>
        <time>2018-09-15T11:27:08Z</time>
      </trkpt>
      <trkpt lat="43.3767460" lon="-5.9264600">
        <ele>101.7</ele>
        <time>2018-09-15T11:27:09Z</time>
      </trkpt>
      <trkpt lat="43.3767850" lon="-5.9264610">
        <ele>101.8</ele>
        <time>2018-09-15T11:27:10Z</time>
      </trkpt>
      <trkpt lat="43.3768280" lon="-5.9264610">
        <ele>101.9</ele>
        <time>2018-09-15T11:27:11Z</time>
      </trkpt>
      <trkpt lat="43.3768670" lon="-5.9264600">
        <ele>102.0</ele>
        <time>2018-09-15T11:27:12Z</time>
      </trkpt>
      <trkpt lat="43.3769030" lon="-5.9264590">
        <ele>102.1</ele>
        <time>2018-09-15T11:27:13Z</time>
      </trkpt>
      <trkpt lat="43.3769510" lon="-5.9264550">
        <ele>102.2</ele>
        <time>2018-09-15T11:27:14Z</time>
      </trkpt>
      <trkpt lat="43.3769920" lon="-5.9264500">
        <ele>102.4</ele>
        <time>2018-09-15T11:27:15Z</time>
      </trkpt>
      <trkpt lat="43.3770300" lon="-5.9264500">
        <ele>102.5</ele>
        <time>2018-09-15T11:27:16Z</time>
      </trkpt>
      <trkpt lat="43.3770720" lon="-5.9264440">
        <ele>102.8</ele>
        <time>2018-09-15T11:27:17Z</time>
      </trkpt>
      <trkpt lat="43.3771150" lon="-5.9264380">
        <ele>103.1</ele>
        <time>2018-09-15T11:27:18Z</time>
      </trkpt>
      <trkpt lat="43.3771600" lon="-5.9264310">
        <ele>103.3</ele>
        <time>2018-09-15T11:27:19Z</time>
      </trkpt>
      <trkpt lat="43.3772040" lon="-5.9264250">
        <ele>103.4</ele>
        <time>2018-09-15T11:27:20Z</time>
      </trkpt>
      <trkpt lat="43.3772500" lon="-5.9264180">
        <ele>103.5</ele>
        <time>2018-09-15T11:27:21Z</time>
      </trkpt>
      <trkpt lat="43.3772950" lon="-5.9264150">
        <ele>103.5</ele>
        <time>2018-09-15T11:27:22Z</time>
      </trkpt>
      <trkpt lat="43.3773400" lon="-5.9264100">
        <ele>103.6</ele>
        <time>2018-09-15T11:27:23Z</time>
      </trkpt>
      <trkpt lat="43.3773860" lon="-5.9264010">
        <ele>103.6</ele>
        <time>2018-09-15T11:27:24Z</time>
      </trkpt>
      <trkpt lat="43.3774280" lon="-5.9263950">
        <ele>103.6</ele>
        <time>2018-09-15T11:27:25Z</time>
      </trkpt>
      <trkpt lat="43.3774690" lon="-5.9263910">
        <ele>103.7</ele>
        <time>2018-09-15T11:27:26Z</time>
      </trkpt>
      <trkpt lat="43.3775120" lon="-5.9263840">
        <ele>103.7</ele>
        <time>2018-09-15T11:27:27Z</time>
      </trkpt>
      <trkpt lat="43.3775560" lon="-5.9263810">
        <ele>103.7</ele>
        <time>2018-09-15T11:27:28Z</time>
      </trkpt>
      <trkpt lat="43.3776020" lon="-5.9263780">
        <ele>103.8</ele>
        <time>2018-09-15T11:27:29Z</time>
      </trkpt>
      <trkpt lat="43.3776470" lon="-5.9263710">
        <ele>103.8</ele>
        <time>2018-09-15T11:27:30Z</time>
      </trkpt>
      <trkpt lat="43.3776890" lon="-5.9263660">
        <ele>103.9</ele>
        <time>2018-09-15T11:27:31Z</time>
      </trkpt>
      <trkpt lat="43.3777270" lon="-5.9263540">
        <ele>103.9</ele>
        <time>2018-09-15T11:27:32Z</time>
      </trkpt>
      <trkpt lat="43.3777700" lon="-5.9263510">
        <ele>103.9</ele>
        <time>2018-09-15T11:27:33Z</time>
      </trkpt>
      <trkpt lat="43.3778090" lon="-5.9263460">
        <ele>104.1</ele>
        <time>2018-09-15T11:27:34Z</time>
      </trkpt>
      <trkpt lat="43.3778580" lon="-5.9263390">
        <ele>104.3</ele>
        <time>2018-09-15T11:27:35Z</time>
      </trkpt>
      <trkpt lat="43.3779050" lon="-5.9263250">
        <ele>104.5</ele>
        <time>2018-09-15T11:27:36Z</time>
      </trkpt>
      <trkpt lat="43.3779520" lon="-5.9263150">
        <ele>104.7</ele>
        <time>2018-09-15T11:27:37Z</time>
      </trkpt>
      <trkpt lat="43.3779980" lon="-5.9263010">
        <ele>104.8</ele>
        <time>2018-09-15T11:27:38Z</time>
      </trkpt>
      <trkpt lat="43.3780530" lon="-5.9263000">
        <ele>104.9</ele>
        <time>2018-09-15T11:27:39Z</time>
      </trkpt>
      <trkpt lat="43.3781040" lon="-5.9263080">
        <ele>104.9</ele>
        <time>2018-09-15T11:27:40Z</time>
      </trkpt>
      <trkpt lat="43.3781570" lon="-5.9263150">
        <ele>104.9</ele>
        <time>2018-09-15T11:27:41Z</time>
      </trkpt>
      <trkpt lat="43.3782110" lon="-5.9263160">
        <ele>105.0</ele>
        <time>2018-09-15T11:27:42Z</time>
      </trkpt>
      <trkpt lat="43.3782660" lon="-5.9263010">
        <ele>105.0</ele>
        <time>2018-09-15T11:27:43Z</time>
      </trkpt>
      <trkpt lat="43.3783190" lon="-5.9262920">
        <ele>105.0</ele>
        <time>2018-09-15T11:27:44Z</time>
      </trkpt>
      <trkpt lat="43.3783700" lon="-5.9262860">
        <ele>105.0</ele>
        <time>2018-09-15T11:27:45Z</time>
      </trkpt>
      <trkpt lat="43.3784290" lon="-5.9262830">
        <ele>105.1</ele>
        <time>2018-09-15T11:27:46Z</time>
      </trkpt>
      <trkpt lat="43.3784890" lon="-5.9262900">
        <ele>105.2</ele>
        <time>2018-09-15T11:27:47Z</time>
      </trkpt>
      <trkpt lat="43.3785620" lon="-5.9262940">
        <ele>105.3</ele>
        <time>2018-09-15T11:27:48Z</time>
      </trkpt>
      <trkpt lat="43.3786310" lon="-5.9262830">
        <ele>105.3</ele>
        <time>2018-09-15T11:27:49Z</time>
      </trkpt>
      <trkpt lat="43.3786950" lon="-5.9262760">
        <ele>105.4</ele>
        <time>2018-09-15T11:27:50Z</time>
      </trkpt>
      <trkpt lat="43.3787610" lon="-5.9262720">
        <ele>105.5</ele>
        <time>2018-09-15T11:27:51Z</time>
      </trkpt>
      <trkpt lat="43.3788260" lon="-5.9262600">
        <ele>105.6</ele>
        <time>2018-09-15T11:27:52Z</time>
      </trkpt>
      <trkpt lat="43.3788910" lon="-5.9262540">
        <ele>105.6</ele>
        <time>2018-09-15T11:27:53Z</time>
      </trkpt>
      <trkpt lat="43.3789540" lon="-5.9262430">
        <ele>105.7</ele>
        <time>2018-09-15T11:27:54Z</time>
      </trkpt>
      <trkpt lat="43.3790210" lon="-5.9262410">
        <ele>105.8</ele>
        <time>2018-09-15T11:27:55Z</time>
      </trkpt>
      <trkpt lat="43.3790920" lon="-5.9262350">
        <ele>105.9</ele>
        <time>2018-09-15T11:27:56Z</time>
      </trkpt>
      <trkpt lat="43.3791600" lon="-5.9262260">
        <ele>106.0</ele>
        <time>2018-09-15T11:27:57Z</time>
      </trkpt>
      <trkpt lat="43.3792250" lon="-5.9262240">
        <ele>106.0</ele>
        <time>2018-09-15T11:27:58Z</time>
      </trkpt>
      <trkpt lat="43.3792910" lon="-5.9262150">
        <ele>106.0</ele>
        <time>2018-09-15T11:27:59Z</time>
      </trkpt>
      <trkpt lat="43.3793580" lon="-5.9262140">
        <ele>106.0</ele>
        <time>2018-09-15T11:28:00Z</time>
      </trkpt>
      <trkpt lat="43.3794250" lon="-5.9262170">
        <ele>106.0</ele>
        <time>2018-09-15T11:28:01Z</time>
      </trkpt>
      <trkpt lat="43.3794920" lon="-5.9262310">
        <ele>106.0</ele>
        <time>2018-09-15T11:28:02Z</time>
      </trkpt>
      <trkpt lat="43.3795570" lon="-5.9262440">
        <ele>106.4</ele>
        <time>2018-09-15T11:28:03Z</time>
      </trkpt>
      <trkpt lat="43.3796200" lon="-5.9262630">
        <ele>106.6</ele>
        <time>2018-09-15T11:28:04Z</time>
      </trkpt>
      <trkpt lat="43.3796730" lon="-5.9262870">
        <ele>106.8</ele>
        <time>2018-09-15T11:28:05Z</time>
      </trkpt>
      <trkpt lat="43.3797250" lon="-5.9263210">
        <ele>107.0</ele>
        <time>2018-09-15T11:28:06Z</time>
      </trkpt>
      <trkpt lat="43.3797810" lon="-5.9263620">
        <ele>107.1</ele>
        <time>2018-09-15T11:28:07Z</time>
      </trkpt>
      <trkpt lat="43.3798320" lon="-5.9263890">
        <ele>107.2</ele>
        <time>2018-09-15T11:28:08Z</time>
      </trkpt>
      <trkpt lat="43.3798880" lon="-5.9264320">
        <ele>107.4</ele>
        <time>2018-09-15T11:28:09Z</time>
      </trkpt>
      <trkpt lat="43.3799500" lon="-5.9264750">
        <ele>107.6</ele>
        <time>2018-09-15T11:28:10Z</time>
      </trkpt>
      <trkpt lat="43.3800090" lon="-5.9265100">
        <ele>107.7</ele>
        <time>2018-09-15T11:28:11Z</time>
      </trkpt>
      <trkpt lat="43.3800650" lon="-5.9265610">
        <ele>107.8</ele>
        <time>2018-09-15T11:28:12Z</time>
      </trkpt>
      <trkpt lat="43.3801170" lon="-5.9266130">
        <ele>107.9</ele>
        <time>2018-09-15T11:28:13Z</time>
      </trkpt>
      <trkpt lat="43.3801730" lon="-5.9266670">
        <ele>107.9</ele>
        <time>2018-09-15T11:28:14Z</time>
      </trkpt>
      <trkpt lat="43.3802240" lon="-5.9267230">
        <ele>108.0</ele>
        <time>2018-09-15T11:28:15Z</time>
      </trkpt>
      <trkpt lat="43.3802710" lon="-5.9267820">
        <ele>108.1</ele>
        <time>2018-09-15T11:28:16Z</time>
      </trkpt>
      <trkpt lat="43.3803190" lon="-5.9268490">
        <ele>108.2</ele>
        <time>2018-09-15T11:28:17Z</time>
      </trkpt>
      <trkpt lat="43.3803640" lon="-5.9269160">
        <ele>108.3</ele>
        <time>2018-09-15T11:28:18Z</time>
      </trkpt>
      <trkpt lat="43.3804090" lon="-5.9269960">
        <ele>108.4</ele>
        <time>2018-09-15T11:28:19Z</time>
      </trkpt>
      <trkpt lat="43.3804500" lon="-5.9270670">
        <ele>108.4</ele>
        <time>2018-09-15T11:28:20Z</time>
      </trkpt>
      <trkpt lat="43.3804870" lon="-5.9271500">
        <ele>108.5</ele>
        <time>2018-09-15T11:28:21Z</time>
      </trkpt>
      <trkpt lat="43.3805230" lon="-5.9272130">
        <ele>108.6</ele>
        <time>2018-09-15T11:28:22Z</time>
      </trkpt>
      <trkpt lat="43.3805590" lon="-5.9273010">
        <ele>108.7</ele>
        <time>2018-09-15T11:28:23Z</time>
      </trkpt>
      <trkpt lat="43.3805900" lon="-5.9273850">
        <ele>108.8</ele>
        <time>2018-09-15T11:28:24Z</time>
      </trkpt>
      <trkpt lat="43.3806180" lon="-5.9274730">
        <ele>108.9</ele>
        <time>2018-09-15T11:28:25Z</time>
      </trkpt>
      <trkpt lat="43.3806380" lon="-5.9275520">
        <ele>108.9</ele>
        <time>2018-09-15T11:28:26Z</time>
      </trkpt>
      <trkpt lat="43.3806580" lon="-5.9276320">
        <ele>109.0</ele>
        <time>2018-09-15T11:28:27Z</time>
      </trkpt>
      <trkpt lat="43.3806780" lon="-5.9277240">
        <ele>109.1</ele>
        <time>2018-09-15T11:28:28Z</time>
      </trkpt>
      <trkpt lat="43.3806940" lon="-5.9278070">
        <ele>109.2</ele>
        <time>2018-09-15T11:28:29Z</time>
      </trkpt>
      <trkpt lat="43.3807200" lon="-5.9278910">
        <ele>109.2</ele>
        <time>2018-09-15T11:28:30Z</time>
      </trkpt>
      <trkpt lat="43.3807370" lon="-5.9279660">
        <ele>109.3</ele>
        <time>2018-09-15T11:28:31Z</time>
      </trkpt>
      <trkpt lat="43.3807600" lon="-5.9280300">
        <ele>109.4</ele>
        <time>2018-09-15T11:28:32Z</time>
      </trkpt>
      <trkpt lat="43.3807870" lon="-5.9281020">
        <ele>109.5</ele>
        <time>2018-09-15T11:28:33Z</time>
      </trkpt>
      <trkpt lat="43.3808230" lon="-5.9281620">
        <ele>109.6</ele>
        <time>2018-09-15T11:28:34Z</time>
      </trkpt>
      <trkpt lat="43.3808600" lon="-5.9282100">
        <ele>109.7</ele>
        <time>2018-09-15T11:28:35Z</time>
      </trkpt>
      <trkpt lat="43.3808910" lon="-5.9282640">
        <ele>109.8</ele>
        <time>2018-09-15T11:28:36Z</time>
      </trkpt>
      <trkpt lat="43.3809260" lon="-5.9283140">
        <ele>109.8</ele>
        <time>2018-09-15T11:28:37Z</time>
      </trkpt>
      <trkpt lat="43.3809690" lon="-5.9283650">
        <ele>110.1</ele>
        <time>2018-09-15T11:28:38Z</time>
      </trkpt>
      <trkpt lat="43.3810180" lon="-5.9284090">
        <ele>110.2</ele>
        <time>2018-09-15T11:28:39Z</time>
      </trkpt>
      <trkpt lat="43.3810680" lon="-5.9284420">
        <ele>110.3</ele>
        <time>2018-09-15T11:28:40Z</time>
      </trkpt>
      <trkpt lat="43.3811210" lon="-5.9284680">
        <ele>110.4</ele>
        <time>2018-09-15T11:28:41Z</time>
      </trkpt>
      <trkpt lat="43.3811710" lon="-5.9285180">
        <ele>110.6</ele>
        <time>2018-09-15T11:28:42Z</time>
      </trkpt>
      <trkpt lat="43.3812220" lon="-5.9285690">
        <ele>110.7</ele>
        <time>2018-09-15T11:28:43Z</time>
      </trkpt>
      <trkpt lat="43.3812750" lon="-5.9286210">
        <ele>110.9</ele>
        <time>2018-09-15T11:28:44Z</time>
      </trkpt>
      <trkpt lat="43.3813180" lon="-5.9286670">
        <ele>111.1</ele>
        <time>2018-09-15T11:28:45Z</time>
      </trkpt>
      <trkpt lat="43.3813570" lon="-5.9287140">
        <ele>111.3</ele>
        <time>2018-09-15T11:28:46Z</time>
      </trkpt>
      <trkpt lat="43.3813980" lon="-5.9287730">
        <ele>111.4</ele>
        <time>2018-09-15T11:28:47Z</time>
      </trkpt>
      <trkpt lat="43.3814330" lon="-5.9288340">
        <ele>111.5</ele>
        <time>2018-09-15T11:28:48Z</time>
      </trkpt>
      <trkpt lat="43.3814680" lon="-5.9288910">
        <ele>111.6</ele>
        <time>2018-09-15T11:28:49Z</time>
      </trkpt>
      <trkpt lat="43.3814980" lon="-5.9289490">
        <ele>111.7</ele>
        <time>2018-09-15T11:28:50Z</time>
      </trkpt>
      <trkpt lat="43.3815220" lon="-5.9290130">
        <ele>111.9</ele>
        <time>2018-09-15T11:28:51Z</time>
      </trkpt>
      <trkpt lat="43.3815290" lon="-5.9290880">
        <ele>112.0</ele>
        <time>2018-09-15T11:28:52Z</time>
      </trkpt>
      <trkpt lat="43.3815390" lon="-5.9291500">
        <ele>112.2</ele>
        <time>2018-09-15T11:28:53Z</time>
      </trkpt>
      <trkpt lat="43.3815290" lon="-5.9292230">
        <ele>112.8</ele>
        <time>2018-09-15T11:28:54Z</time>
      </trkpt>
      <trkpt lat="43.3815220" lon="-5.9292870">
        <ele>113.3</ele>
        <time>2018-09-15T11:28:55Z</time>
      </trkpt>
      <trkpt lat="43.3815110" lon="-5.9293470">
        <ele>113.8</ele>
        <time>2018-09-15T11:28:56Z</time>
      </trkpt>
      <trkpt lat="43.3814930" lon="-5.9294070">
        <ele>114.0</ele>
        <time>2018-09-15T11:28:57Z</time>
      </trkpt>
      <trkpt lat="43.3814820" lon="-5.9294720">
        <ele>114.0</ele>
        <time>2018-09-15T11:28:58Z</time>
      </trkpt>
      <trkpt lat="43.3814690" lon="-5.9295250">
        <ele>114.0</ele>
        <time>2018-09-15T11:28:59Z</time>
      </trkpt>
      <trkpt lat="43.3814470" lon="-5.9295760">
        <ele>113.9</ele>
        <time>2018-09-15T11:29:00Z</time>
      </trkpt>
      <trkpt lat="43.3814370" lon="-5.9296390">
        <ele>113.1</ele>
        <time>2018-09-15T11:29:01Z</time>
      </trkpt>
      <trkpt lat="43.3814260" lon="-5.9296950">
        <ele>112.8</ele>
        <time>2018-09-15T11:29:02Z</time>
      </trkpt>
      <trkpt lat="43.3814090" lon="-5.9297490">
        <ele>112.5</ele>
        <time>2018-09-15T11:29:03Z</time>
      </trkpt>
      <trkpt lat="43.3813950" lon="-5.9298010">
        <ele>112.2</ele>
        <time>2018-09-15T11:29:04Z</time>
      </trkpt>
      <trkpt lat="43.3813920" lon="-5.9298190">
        <ele>112.1</ele>
        <time>2018-09-15T11:29:05Z</time>
      </trkpt>
      <trkpt lat="43.3813890" lon="-5.9298380">
        <ele>112.0</ele>
        <time>2018-09-15T11:29:06Z</time>
      </trkpt>
      <trkpt lat="43.3813720" lon="-5.9299170">
        <ele>111.5</ele>
        <time>2018-09-15T11:29:07Z</time>
      </trkpt>
      <trkpt lat="43.3813490" lon="-5.9300330">
        <ele>110.8</ele>
        <time>2018-09-15T11:29:08Z</time>
      </trkpt>
      <trkpt lat="43.3813370" lon="-5.9300940">
        <ele>110.4</ele>
        <time>2018-09-15T11:29:09Z</time>
      </trkpt>
      <trkpt lat="43.3813380" lon="-5.9301600">
        <ele>110.0</ele>
        <time>2018-09-15T11:29:10Z</time>
      </trkpt>
      <trkpt lat="43.3813390" lon="-5.9302300">
        <ele>109.6</ele>
        <time>2018-09-15T11:29:11Z</time>
      </trkpt>
      <trkpt lat="43.3813450" lon="-5.9302990">
        <ele>109.1</ele>
        <time>2018-09-15T11:29:12Z</time>
      </trkpt>
      <trkpt lat="43.3813550" lon="-5.9303770">
        <ele>108.5</ele>
        <time>2018-09-15T11:29:13Z</time>
      </trkpt>
      <trkpt lat="43.3813650" lon="-5.9304550">
        <ele>107.8</ele>
        <time>2018-09-15T11:29:14Z</time>
      </trkpt>
      <trkpt lat="43.3813900" lon="-5.9305300">
        <ele>107.2</ele>
        <time>2018-09-15T11:29:15Z</time>
      </trkpt>
      <trkpt lat="43.3814160" lon="-5.9306030">
        <ele>106.7</ele>
        <time>2018-09-15T11:29:16Z</time>
      </trkpt>
      <trkpt lat="43.3814500" lon="-5.9306860">
        <ele>106.1</ele>
        <time>2018-09-15T11:29:17Z</time>
      </trkpt>
      <trkpt lat="43.3814980" lon="-5.9307640">
        <ele>105.5</ele>
        <time>2018-09-15T11:29:18Z</time>
      </trkpt>
      <trkpt lat="43.3815480" lon="-5.9308410">
        <ele>104.9</ele>
        <time>2018-09-15T11:29:19Z</time>
      </trkpt>
      <trkpt lat="43.3816190" lon="-5.9309120">
        <ele>104.3</ele>
        <time>2018-09-15T11:29:20Z</time>
      </trkpt>
      <trkpt lat="43.3816870" lon="-5.9309830">
        <ele>103.8</ele>
        <time>2018-09-15T11:29:21Z</time>
      </trkpt>
      <trkpt lat="43.3817670" lon="-5.9310360">
        <ele>103.1</ele>
        <time>2018-09-15T11:29:22Z</time>
      </trkpt>
      <trkpt lat="43.3818510" lon="-5.9310850">
        <ele>102.3</ele>
        <time>2018-09-15T11:29:23Z</time>
      </trkpt>
      <trkpt lat="43.3819410" lon="-5.9311200">
        <ele>101.4</ele>
        <time>2018-09-15T11:29:24Z</time>
      </trkpt>
      <trkpt lat="43.3820310" lon="-5.9311600">
        <ele>100.9</ele>
        <time>2018-09-15T11:29:25Z</time>
      </trkpt>
      <trkpt lat="43.3821240" lon="-5.9312060">
        <ele>100.8</ele>
        <time>2018-09-15T11:29:26Z</time>
      </trkpt>
      <trkpt lat="43.3822190" lon="-5.9312580">
        <ele>100.8</ele>
        <time>2018-09-15T11:29:27Z</time>
      </trkpt>
      <trkpt lat="43.3823150" lon="-5.9313040">
        <ele>100.7</ele>
        <time>2018-09-15T11:29:28Z</time>
      </trkpt>
      <trkpt lat="43.3824220" lon="-5.9313480">
        <ele>100.7</ele>
        <time>2018-09-15T11:29:29Z</time>
      </trkpt>
      <trkpt lat="43.3825160" lon="-5.9313910">
        <ele>100.7</ele>
        <time>2018-09-15T11:29:30Z</time>
      </trkpt>
      <trkpt lat="43.3826170" lon="-5.9314370">
        <ele>100.8</ele>
        <time>2018-09-15T11:29:31Z</time>
      </trkpt>
      <trkpt lat="43.3827130" lon="-5.9314770">
        <ele>100.9</ele>
        <time>2018-09-15T11:29:32Z</time>
      </trkpt>
      <trkpt lat="43.3828020" lon="-5.9315240">
        <ele>101.0</ele>
        <time>2018-09-15T11:29:33Z</time>
      </trkpt>
      <trkpt lat="43.3828990" lon="-5.9315800">
        <ele>101.1</ele>
        <time>2018-09-15T11:29:34Z</time>
      </trkpt>
      <trkpt lat="43.3829890" lon="-5.9316200">
        <ele>101.5</ele>
        <time>2018-09-15T11:29:35Z</time>
      </trkpt>
      <trkpt lat="43.3830760" lon="-5.9316650">
        <ele>101.9</ele>
        <time>2018-09-15T11:29:36Z</time>
      </trkpt>
      <trkpt lat="43.3831540" lon="-5.9317110">
        <ele>102.3</ele>
        <time>2018-09-15T11:29:37Z</time>
      </trkpt>
      <trkpt lat="43.3832250" lon="-5.9317620">
        <ele>102.6</ele>
        <time>2018-09-15T11:29:38Z</time>
      </trkpt>
      <trkpt lat="43.3832930" lon="-5.9318110">
        <ele>103.0</ele>
        <time>2018-09-15T11:29:39Z</time>
      </trkpt>
      <trkpt lat="43.3833580" lon="-5.9318520">
        <ele>103.6</ele>
        <time>2018-09-15T11:29:40Z</time>
      </trkpt>
      <trkpt lat="43.3834180" lon="-5.9319130">
        <ele>104.3</ele>
        <time>2018-09-15T11:29:41Z</time>
      </trkpt>
      <trkpt lat="43.3834700" lon="-5.9319700">
        <ele>105.0</ele>
        <time>2018-09-15T11:29:42Z</time>
      </trkpt>
      <trkpt lat="43.3835210" lon="-5.9320350">
        <ele>105.7</ele>
        <time>2018-09-15T11:29:43Z</time>
      </trkpt>
      <trkpt lat="43.3835550" lon="-5.9320760">
        <ele>106.1</ele>
        <time>2018-09-15T11:29:44Z</time>
      </trkpt>
      <trkpt lat="43.3835960" lon="-5.9321230">
        <ele>106.8</ele>
        <time>2018-09-15T11:29:45Z</time>
      </trkpt>
      <trkpt lat="43.3836290" lon="-5.9321470">
        <ele>107.3</ele>
        <time>2018-09-15T11:29:46Z</time>
      </trkpt>
      <trkpt lat="43.3836600" lon="-5.9321830">
        <ele>107.8</ele>
        <time>2018-09-15T11:29:47Z</time>
      </trkpt>
      <trkpt lat="43.3836840" lon="-5.9322290">
        <ele>108.3</ele>
        <time>2018-09-15T11:29:48Z</time>
      </trkpt>
      <trkpt lat="43.3836960" lon="-5.9322470">
        <ele>108.6</ele>
        <time>2018-09-15T11:29:49Z</time>
      </trkpt>
      <trkpt lat="43.3837130" lon="-5.9322780">
        <ele>108.9</ele>
        <time>2018-09-15T11:29:50Z</time>
      </trkpt>
      <trkpt lat="43.3837270" lon="-5.9323040">
        <ele>109.1</ele>
        <time>2018-09-15T11:29:51Z</time>
      </trkpt>
      <trkpt lat="43.3837410" lon="-5.9323390">
        <ele>109.4</ele>
        <time>2018-09-15T11:29:52Z</time>
      </trkpt>
      <trkpt lat="43.3837540" lon="-5.9323700">
        <ele>109.6</ele>
        <time>2018-09-15T11:29:53Z</time>
      </trkpt>
      <trkpt lat="43.3837680" lon="-5.9324030">
        <ele>109.9</ele>
        <time>2018-09-15T11:29:54Z</time>
      </trkpt>
      <trkpt lat="43.3837790" lon="-5.9324240">
        <ele>110.0</ele>
        <time>2018-09-15T11:29:55Z</time>
      </trkpt>
      <trkpt lat="43.3837940" lon="-5.9324590">
        <ele>110.5</ele>
        <time>2018-09-15T11:29:56Z</time>
      </trkpt>
      <trkpt lat="43.3838070" lon="-5.9324850">
        <ele>110.9</ele>
        <time>2018-09-15T11:29:57Z</time>
      </trkpt>
      <trkpt lat="43.3838210" lon="-5.9325190">
        <ele>111.4</ele>
        <time>2018-09-15T11:29:58Z</time>
      </trkpt>
      <trkpt lat="43.3838350" lon="-5.9325540">
        <ele>111.8</ele>
        <time>2018-09-15T11:29:59Z</time>
      </trkpt>
      <trkpt lat="43.3838500" lon="-5.9325820">
        <ele>112.0</ele>
        <time>2018-09-15T11:30:00Z</time>
      </trkpt>
      <trkpt lat="43.3838670" lon="-5.9326160">
        <ele>112.3</ele>
        <time>2018-09-15T11:30:01Z</time>
      </trkpt>
      <trkpt lat="43.3838790" lon="-5.9326420">
        <ele>112.5</ele>
        <time>2018-09-15T11:30:02Z</time>
      </trkpt>
      <trkpt lat="43.3838940" lon="-5.9326740">
        <ele>112.7</ele>
        <time>2018-09-15T11:30:03Z</time>
      </trkpt>
      <trkpt lat="43.3839070" lon="-5.9326930">
        <ele>113.0</ele>
        <time>2018-09-15T11:30:04Z</time>
      </trkpt>
      <trkpt lat="43.3839250" lon="-5.9327250">
        <ele>113.5</ele>
        <time>2018-09-15T11:30:05Z</time>
      </trkpt>
      <trkpt lat="43.3839420" lon="-5.9327540">
        <ele>114.0</ele>
        <time>2018-09-15T11:30:06Z</time>
      </trkpt>
      <trkpt lat="43.3839570" lon="-5.9327760">
        <ele>114.4</ele>
        <time>2018-09-15T11:30:07Z</time>
      </trkpt>
      <trkpt lat="43.3839720" lon="-5.9328000">
        <ele>114.7</ele>
        <time>2018-09-15T11:30:08Z</time>
      </trkpt>
      <trkpt lat="43.3839900" lon="-5.9328300">
        <ele>115.0</ele>
        <time>2018-09-15T11:30:09Z</time>
      </trkpt>
      <trkpt lat="43.3840040" lon="-5.9328530">
        <ele>115.2</ele>
        <time>2018-09-15T11:30:10Z</time>
      </trkpt>
      <trkpt lat="43.3840200" lon="-5.9328820">
        <ele>115.5</ele>
        <time>2018-09-15T11:30:11Z</time>
      </trkpt>
      <trkpt lat="43.3840330" lon="-5.9329050">
        <ele>115.8</ele>
        <time>2018-09-15T11:30:12Z</time>
      </trkpt>
      <trkpt lat="43.3840500" lon="-5.9329350">
        <ele>116.3</ele>
        <time>2018-09-15T11:30:13Z</time>
      </trkpt>
      <trkpt lat="43.3840670" lon="-5.9329650">
        <ele>116.9</ele>
        <time>2018-09-15T11:30:14Z</time>
      </trkpt>
      <trkpt lat="43.3840830" lon="-5.9329940">
        <ele>117.3</ele>
        <time>2018-09-15T11:30:15Z</time>
      </trkpt>
      <trkpt lat="43.3840970" lon="-5.9330170">
        <ele>117.4</ele>
        <time>2018-09-15T11:30:16Z</time>
      </trkpt>
      <trkpt lat="43.3841150" lon="-5.9330490">
        <ele>117.6</ele>
        <time>2018-09-15T11:30:17Z</time>
      </trkpt>
      <trkpt lat="43.3841310" lon="-5.9330800">
        <ele>117.8</ele>
        <time>2018-09-15T11:30:18Z</time>
      </trkpt>
      <trkpt lat="43.3841460" lon="-5.9331050">
        <ele>118.0</ele>
        <time>2018-09-15T11:30:19Z</time>
      </trkpt>
      <trkpt lat="43.3841640" lon="-5.9331370">
        <ele>118.2</ele>
        <time>2018-09-15T11:30:20Z</time>
      </trkpt>
      <trkpt lat="43.3841790" lon="-5.9331620">
        <ele>118.5</ele>
        <time>2018-09-15T11:30:21Z</time>
      </trkpt>
      <trkpt lat="43.3841940" lon="-5.9331880">
        <ele>119.0</ele>
        <time>2018-09-15T11:30:22Z</time>
      </trkpt>
      <trkpt lat="43.3842110" lon="-5.9332200">
        <ele>119.5</ele>
        <time>2018-09-15T11:30:23Z</time>
      </trkpt>
      <trkpt lat="43.3842240" lon="-5.9332450">
        <ele>119.9</ele>
        <time>2018-09-15T11:30:24Z</time>
      </trkpt>
      <trkpt lat="43.3842400" lon="-5.9332710">
        <ele>120.2</ele>
        <time>2018-09-15T11:30:25Z</time>
      </trkpt>
      <trkpt lat="43.3842590" lon="-5.9333030">
        <ele>120.5</ele>
        <time>2018-09-15T11:30:26Z</time>
      </trkpt>
      <trkpt lat="43.3842770" lon="-5.9333330">
        <ele>120.8</ele>
        <time>2018-09-15T11:30:27Z</time>
      </trkpt>
      <trkpt lat="43.3842930" lon="-5.9333570">
        <ele>120.9</ele>
        <time>2018-09-15T11:30:28Z</time>
      </trkpt>
      <trkpt lat="43.3843110" lon="-5.9333870">
        <ele>121.1</ele>
        <time>2018-09-15T11:30:29Z</time>
      </trkpt>
      <trkpt lat="43.3843300" lon="-5.9334160">
        <ele>121.3</ele>
        <time>2018-09-15T11:30:30Z</time>
      </trkpt>
      <trkpt lat="43.3843460" lon="-5.9334390">
        <ele>121.4</ele>
        <time>2018-09-15T11:30:31Z</time>
      </trkpt>
      <trkpt lat="43.3843630" lon="-5.9334640">
        <ele>121.6</ele>
        <time>2018-09-15T11:30:32Z</time>
      </trkpt>
      <trkpt lat="43.3843830" lon="-5.9334960">
        <ele>122.1</ele>
        <time>2018-09-15T11:30:33Z</time>
      </trkpt>
      <trkpt lat="43.3844010" lon="-5.9335270">
        <ele>122.5</ele>
        <time>2018-09-15T11:30:34Z</time>
      </trkpt>
      <trkpt lat="43.3844180" lon="-5.9335560">
        <ele>123.0</ele>
        <time>2018-09-15T11:30:35Z</time>
      </trkpt>
      <trkpt lat="43.3844330" lon="-5.9335780">
        <ele>123.2</ele>
        <time>2018-09-15T11:30:36Z</time>
      </trkpt>
      <trkpt lat="43.3844470" lon="-5.9336030">
        <ele>123.3</ele>
        <time>2018-09-15T11:30:37Z</time>
      </trkpt>
      <trkpt lat="43.3844650" lon="-5.9336340">
        <ele>123.4</ele>
        <time>2018-09-15T11:30:38Z</time>
      </trkpt>
      <trkpt lat="43.3844800" lon="-5.9336650">
        <ele>123.6</ele>
        <time>2018-09-15T11:30:39Z</time>
      </trkpt>
      <trkpt lat="43.3844930" lon="-5.9336880">
        <ele>123.7</ele>
        <time>2018-09-15T11:30:40Z</time>
      </trkpt>
      <trkpt lat="43.3845090" lon="-5.9337180">
        <ele>123.8</ele>
        <time>2018-09-15T11:30:41Z</time>
      </trkpt>
      <trkpt lat="43.3845250" lon="-5.9337470">
        <ele>123.9</ele>
        <time>2018-09-15T11:30:42Z</time>
      </trkpt>
      <trkpt lat="43.3845370" lon="-5.9337710">
        <ele>124.1</ele>
        <time>2018-09-15T11:30:43Z</time>
      </trkpt>
      <trkpt lat="43.3845500" lon="-5.9337960">
        <ele>124.4</ele>
        <time>2018-09-15T11:30:44Z</time>
      </trkpt>
      <trkpt lat="43.3845670" lon="-5.9338270">
        <ele>124.8</ele>
        <time>2018-09-15T11:30:45Z</time>
      </trkpt>
      <trkpt lat="43.3845850" lon="-5.9338570">
        <ele>125.2</ele>
        <time>2018-09-15T11:30:46Z</time>
      </trkpt>
      <trkpt lat="43.3845980" lon="-5.9338810">
        <ele>125.6</ele>
        <time>2018-09-15T11:30:47Z</time>
      </trkpt>
      <trkpt lat="43.3846150" lon="-5.9339120">
        <ele>126.1</ele>
        <time>2018-09-15T11:30:48Z</time>
      </trkpt>
      <trkpt lat="43.3846300" lon="-5.9339410">
        <ele>126.4</ele>
        <time>2018-09-15T11:30:49Z</time>
      </trkpt>
      <trkpt lat="43.3846440" lon="-5.9339640">
        <ele>126.6</ele>
        <time>2018-09-15T11:30:50Z</time>
      </trkpt>
      <trkpt lat="43.3846610" lon="-5.9339940">
        <ele>126.7</ele>
        <time>2018-09-15T11:30:51Z</time>
      </trkpt>
      <trkpt lat="43.3846770" lon="-5.9340240">
        <ele>126.9</ele>
        <time>2018-09-15T11:30:52Z</time>
      </trkpt>
      <trkpt lat="43.3846920" lon="-5.9340550">
        <ele>127.1</ele>
        <time>2018-09-15T11:30:53Z</time>
      </trkpt>
      <trkpt lat="43.3847070" lon="-5.9340840">
        <ele>127.2</ele>
        <time>2018-09-15T11:30:54Z</time>
      </trkpt>
      <trkpt lat="43.3847190" lon="-5.9341080">
        <ele>127.4</ele>
        <time>2018-09-15T11:30:55Z</time>
      </trkpt>
      <trkpt lat="43.3847320" lon="-5.9341320">
        <ele>127.8</ele>
        <time>2018-09-15T11:30:56Z</time>
      </trkpt>
      <trkpt lat="43.3847490" lon="-5.9341620">
        <ele>128.3</ele>
        <time>2018-09-15T11:30:57Z</time>
      </trkpt>
      <trkpt lat="43.3847620" lon="-5.9341860">
        <ele>128.6</ele>
        <time>2018-09-15T11:30:58Z</time>
      </trkpt>
      <trkpt lat="43.3847760" lon="-5.9342110">
        <ele>128.9</ele>
        <time>2018-09-15T11:30:59Z</time>
      </trkpt>
      <trkpt lat="43.3847930" lon="-5.9342430">
        <ele>129.1</ele>
        <time>2018-09-15T11:31:00Z</time>
      </trkpt>
      <trkpt lat="43.3848070" lon="-5.9342680">
        <ele>129.3</ele>
        <time>2018-09-15T11:31:01Z</time>
      </trkpt>
      <trkpt lat="43.3848230" lon="-5.9343000">
        <ele>129.4</ele>
        <time>2018-09-15T11:31:02Z</time>
      </trkpt>
      <trkpt lat="43.3848350" lon="-5.9343240">
        <ele>129.5</ele>
        <time>2018-09-15T11:31:03Z</time>
      </trkpt>
      <trkpt lat="43.3848490" lon="-5.9343480">
        <ele>129.6</ele>
        <time>2018-09-15T11:31:04Z</time>
      </trkpt>
      <trkpt lat="43.3848650" lon="-5.9343790">
        <ele>129.8</ele>
        <time>2018-09-15T11:31:05Z</time>
      </trkpt>
      <trkpt lat="43.3848810" lon="-5.9344090">
        <ele>129.9</ele>
        <time>2018-09-15T11:31:06Z</time>
      </trkpt>
      <trkpt lat="43.3848950" lon="-5.9344390">
        <ele>130.0</ele>
        <time>2018-09-15T11:31:07Z</time>
      </trkpt>
      <trkpt lat="43.3849110" lon="-5.9344670">
        <ele>130.1</ele>
        <time>2018-09-15T11:31:08Z</time>
      </trkpt>
      <trkpt lat="43.3849270" lon="-5.9344940">
        <ele>130.3</ele>
        <time>2018-09-15T11:31:09Z</time>
      </trkpt>
      <trkpt lat="43.3849390" lon="-5.9345150">
        <ele>130.6</ele>
        <time>2018-09-15T11:31:10Z</time>
      </trkpt>
      <trkpt lat="43.3849520" lon="-5.9345380">
        <ele>130.9</ele>
        <time>2018-09-15T11:31:11Z</time>
      </trkpt>
      <trkpt lat="43.3849690" lon="-5.9345660">
        <ele>131.4</ele>
        <time>2018-09-15T11:31:12Z</time>
      </trkpt>
      <trkpt lat="43.3849820" lon="-5.9345880">
        <ele>131.6</ele>
        <time>2018-09-15T11:31:13Z</time>
      </trkpt>
      <trkpt lat="43.3849960" lon="-5.9346110">
        <ele>131.8</ele>
        <time>2018-09-15T11:31:14Z</time>
      </trkpt>
      <trkpt lat="43.3850110" lon="-5.9346350">
        <ele>132.0</ele>
        <time>2018-09-15T11:31:15Z</time>
      </trkpt>
      <trkpt lat="43.3850300" lon="-5.9346720">
        <ele>132.2</ele>
        <time>2018-09-15T11:31:16Z</time>
      </trkpt>
      <trkpt lat="43.3850430" lon="-5.9346990">
        <ele>132.3</ele>
        <time>2018-09-15T11:31:17Z</time>
      </trkpt>
      <trkpt lat="43.3850520" lon="-5.9347160">
        <ele>132.4</ele>
        <time>2018-09-15T11:31:18Z</time>
      </trkpt>
      <trkpt lat="43.3850610" lon="-5.9347360">
        <ele>132.5</ele>
        <time>2018-09-15T11:31:19Z</time>
      </trkpt>
      <trkpt lat="43.3850740" lon="-5.9347640">
        <ele>132.6</ele>
        <time>2018-09-15T11:31:20Z</time>
      </trkpt>
      <trkpt lat="43.3850870" lon="-5.9347920">
        <ele>132.7</ele>
        <time>2018-09-15T11:31:21Z</time>
      </trkpt>
      <trkpt lat="43.3850970" lon="-5.9348120">
        <ele>132.8</ele>
        <time>2018-09-15T11:31:22Z</time>
      </trkpt>
      <trkpt lat="43.3851100" lon="-5.9348380">
        <ele>133.0</ele>
        <time>2018-09-15T11:31:23Z</time>
      </trkpt>
      <trkpt lat="43.3851220" lon="-5.9348620">
        <ele>133.1</ele>
        <time>2018-09-15T11:31:24Z</time>
      </trkpt>
      <trkpt lat="43.3851380" lon="-5.9348940">
        <ele>133.3</ele>
        <time>2018-09-15T11:31:25Z</time>
      </trkpt>
      <trkpt lat="43.3851540" lon="-5.9349260">
        <ele>133.7</ele>
        <time>2018-09-15T11:31:26Z</time>
      </trkpt>
      <trkpt lat="43.3851690" lon="-5.9349550">
        <ele>134.1</ele>
        <time>2018-09-15T11:31:27Z</time>
      </trkpt>
      <trkpt lat="43.3851790" lon="-5.9349730">
        <ele>134.4</ele>
        <time>2018-09-15T11:31:28Z</time>
      </trkpt>
      <trkpt lat="43.3851920" lon="-5.9349980">
        <ele>134.6</ele>
        <time>2018-09-15T11:31:29Z</time>
      </trkpt>
      <trkpt lat="43.3852010" lon="-5.9350170">
        <ele>134.8</ele>
        <time>2018-09-15T11:31:30Z</time>
      </trkpt>
      <trkpt lat="43.3852160" lon="-5.9350450">
        <ele>134.9</ele>
        <time>2018-09-15T11:31:31Z</time>
      </trkpt>
      <trkpt lat="43.3852290" lon="-5.9350670">
        <ele>135.1</ele>
        <time>2018-09-15T11:31:32Z</time>
      </trkpt>
      <trkpt lat="43.3852480" lon="-5.9350960">
        <ele>135.3</ele>
        <time>2018-09-15T11:31:33Z</time>
      </trkpt>
      <trkpt lat="43.3852640" lon="-5.9351200">
        <ele>135.4</ele>
        <time>2018-09-15T11:31:34Z</time>
      </trkpt>
      <trkpt lat="43.3852790" lon="-5.9351450">
        <ele>135.5</ele>
        <time>2018-09-15T11:31:35Z</time>
      </trkpt>
      <trkpt lat="43.3852960" lon="-5.9351790">
        <ele>135.7</ele>
        <time>2018-09-15T11:31:36Z</time>
      </trkpt>
      <trkpt lat="43.3853130" lon="-5.9352110">
        <ele>135.9</ele>
        <time>2018-09-15T11:31:37Z</time>
      </trkpt>
      <trkpt lat="43.3853250" lon="-5.9352350">
        <ele>136.0</ele>
        <time>2018-09-15T11:31:38Z</time>
      </trkpt>
      <trkpt lat="43.3853410" lon="-5.9352650">
        <ele>136.4</ele>
        <time>2018-09-15T11:31:39Z</time>
      </trkpt>
      <trkpt lat="43.3853550" lon="-5.9352920">
        <ele>136.8</ele>
        <time>2018-09-15T11:31:40Z</time>
      </trkpt>
      <trkpt lat="43.3853720" lon="-5.9353250">
        <ele>137.3</ele>
        <time>2018-09-15T11:31:41Z</time>
      </trkpt>
      <trkpt lat="43.3853850" lon="-5.9353520">
        <ele>137.5</ele>
        <time>2018-09-15T11:31:42Z</time>
      </trkpt>
      <trkpt lat="43.3854010" lon="-5.9353850">
        <ele>137.7</ele>
        <time>2018-09-15T11:31:43Z</time>
      </trkpt>
      <trkpt lat="43.3854120" lon="-5.9354060">
        <ele>137.8</ele>
        <time>2018-09-15T11:31:44Z</time>
      </trkpt>
      <trkpt lat="43.3854270" lon="-5.9354340">
        <ele>138.0</ele>
        <time>2018-09-15T11:31:45Z</time>
      </trkpt>
      <trkpt lat="43.3854410" lon="-5.9354590">
        <ele>138.1</ele>
        <time>2018-09-15T11:31:46Z</time>
      </trkpt>
      <trkpt lat="43.3854580" lon="-5.9354900">
        <ele>138.3</ele>
        <time>2018-09-15T11:31:47Z</time>
      </trkpt>
      <trkpt lat="43.3854760" lon="-5.9355210">
        <ele>138.6</ele>
        <time>2018-09-15T11:31:48Z</time>
      </trkpt>
      <trkpt lat="43.3854890" lon="-5.9355470">
        <ele>138.8</ele>
        <time>2018-09-15T11:31:49Z</time>
      </trkpt>
      <trkpt lat="43.3855060" lon="-5.9355790">
        <ele>139.2</ele>
        <time>2018-09-15T11:31:50Z</time>
      </trkpt>
      <trkpt lat="43.3855230" lon="-5.9356090">
        <ele>139.6</ele>
        <time>2018-09-15T11:31:51Z</time>
      </trkpt>
      <trkpt lat="43.3855360" lon="-5.9356330">
        <ele>140.0</ele>
        <time>2018-09-15T11:31:52Z</time>
      </trkpt>
      <trkpt lat="43.3855530" lon="-5.9356640">
        <ele>140.4</ele>
        <time>2018-09-15T11:31:53Z</time>
      </trkpt>
      <trkpt lat="43.3855670" lon="-5.9356880">
        <ele>140.5</ele>
        <time>2018-09-15T11:31:54Z</time>
      </trkpt>
      <trkpt lat="43.3855850" lon="-5.9357190">
        <ele>140.6</ele>
        <time>2018-09-15T11:31:55Z</time>
      </trkpt>
      <trkpt lat="43.3855990" lon="-5.9357420">
        <ele>140.8</ele>
        <time>2018-09-15T11:31:56Z</time>
      </trkpt>
      <trkpt lat="43.3856170" lon="-5.9357700">
        <ele>140.9</ele>
        <time>2018-09-15T11:31:57Z</time>
      </trkpt>
      <trkpt lat="43.3856340" lon="-5.9357980">
        <ele>141.1</ele>
        <time>2018-09-15T11:31:58Z</time>
      </trkpt>
      <trkpt lat="43.3856470" lon="-5.9358200">
        <ele>141.2</ele>
        <time>2018-09-15T11:31:59Z</time>
      </trkpt>
      <trkpt lat="43.3856620" lon="-5.9358440">
        <ele>141.3</ele>
        <time>2018-09-15T11:32:00Z</time>
      </trkpt>
      <trkpt lat="43.3856770" lon="-5.9358680">
        <ele>141.5</ele>
        <time>2018-09-15T11:32:01Z</time>
      </trkpt>
      <trkpt lat="43.3856930" lon="-5.9358930">
        <ele>141.8</ele>
        <time>2018-09-15T11:32:02Z</time>
      </trkpt>
      <trkpt lat="43.3857080" lon="-5.9359180">
        <ele>142.2</ele>
        <time>2018-09-15T11:32:03Z</time>
      </trkpt>
      <trkpt lat="43.3857260" lon="-5.9359480">
        <ele>142.7</ele>
        <time>2018-09-15T11:32:04Z</time>
      </trkpt>
      <trkpt lat="43.3857400" lon="-5.9359700">
        <ele>143.1</ele>
        <time>2018-09-15T11:32:05Z</time>
      </trkpt>
      <trkpt lat="43.3857540" lon="-5.9359930">
        <ele>143.5</ele>
        <time>2018-09-15T11:32:06Z</time>
      </trkpt>
      <trkpt lat="43.3857720" lon="-5.9360210">
        <ele>143.8</ele>
        <time>2018-09-15T11:32:07Z</time>
      </trkpt>
      <trkpt lat="43.3857860" lon="-5.9360420">
        <ele>143.9</ele>
        <time>2018-09-15T11:32:08Z</time>
      </trkpt>
      <trkpt lat="43.3858030" lon="-5.9360700">
        <ele>144.1</ele>
        <time>2018-09-15T11:32:09Z</time>
      </trkpt>
      <trkpt lat="43.3858170" lon="-5.9360910">
        <ele>144.3</ele>
        <time>2018-09-15T11:32:10Z</time>
      </trkpt>
      <trkpt lat="43.3858350" lon="-5.9361180">
        <ele>144.5</ele>
        <time>2018-09-15T11:32:11Z</time>
      </trkpt>
      <trkpt lat="43.3858460" lon="-5.9361340">
        <ele>144.6</ele>
        <time>2018-09-15T11:32:12Z</time>
      </trkpt>
      <trkpt lat="43.3858630" lon="-5.9361620">
        <ele>145.1</ele>
        <time>2018-09-15T11:32:13Z</time>
      </trkpt>
      <trkpt lat="43.3858790" lon="-5.9361890">
        <ele>145.6</ele>
        <time>2018-09-15T11:32:14Z</time>
      </trkpt>
      <trkpt lat="43.3858950" lon="-5.9362140">
        <ele>146.0</ele>
        <time>2018-09-15T11:32:15Z</time>
      </trkpt>
      <trkpt lat="43.3859070" lon="-5.9362330">
        <ele>146.4</ele>
        <time>2018-09-15T11:32:16Z</time>
      </trkpt>
      <trkpt lat="43.3859230" lon="-5.9362600">
        <ele>146.8</ele>
        <time>2018-09-15T11:32:17Z</time>
      </trkpt>
      <trkpt lat="43.3859390" lon="-5.9362840">
        <ele>146.9</ele>
        <time>2018-09-15T11:32:18Z</time>
      </trkpt>
      <trkpt lat="43.3859540" lon="-5.9363080">
        <ele>147.1</ele>
        <time>2018-09-15T11:32:19Z</time>
      </trkpt>
      <trkpt lat="43.3859630" lon="-5.9363210">
        <ele>147.2</ele>
        <time>2018-09-15T11:32:20Z</time>
      </trkpt>
      <trkpt lat="43.3859750" lon="-5.9363430">
        <ele>147.3</ele>
        <time>2018-09-15T11:32:21Z</time>
      </trkpt>
      <trkpt lat="43.3859890" lon="-5.9363640">
        <ele>147.5</ele>
        <time>2018-09-15T11:32:22Z</time>
      </trkpt>
      <trkpt lat="43.3860020" lon="-5.9363870">
        <ele>147.8</ele>
        <time>2018-09-15T11:32:23Z</time>
      </trkpt>
      <trkpt lat="43.3860130" lon="-5.9364040">
        <ele>148.2</ele>
        <time>2018-09-15T11:32:24Z</time>
      </trkpt>
      <trkpt lat="43.3860240" lon="-5.9364240">
        <ele>148.6</ele>
        <time>2018-09-15T11:32:25Z</time>
      </trkpt>
      <trkpt lat="43.3860390" lon="-5.9364510">
        <ele>149.2</ele>
        <time>2018-09-15T11:32:26Z</time>
      </trkpt>
      <trkpt lat="43.3860530" lon="-5.9364700">
        <ele>149.6</ele>
        <time>2018-09-15T11:32:27Z</time>
      </trkpt>
      <trkpt lat="43.3860680" lon="-5.9364980">
        <ele>150.0</ele>
        <time>2018-09-15T11:32:28Z</time>
      </trkpt>
      <trkpt lat="43.3860850" lon="-5.9365240">
        <ele>150.2</ele>
        <time>2018-09-15T11:32:29Z</time>
      </trkpt>
      <trkpt lat="43.3860990" lon="-5.9365490">
        <ele>150.4</ele>
        <time>2018-09-15T11:32:30Z</time>
      </trkpt>
      <trkpt lat="43.3861080" lon="-5.9365630">
        <ele>150.6</ele>
        <time>2018-09-15T11:32:31Z</time>
      </trkpt>
      <trkpt lat="43.3861240" lon="-5.9365900">
        <ele>150.8</ele>
        <time>2018-09-15T11:32:32Z</time>
      </trkpt>
      <trkpt lat="43.3861390" lon="-5.9366160">
        <ele>151.4</ele>
        <time>2018-09-15T11:32:33Z</time>
      </trkpt>
      <trkpt lat="43.3861520" lon="-5.9366350">
        <ele>151.8</ele>
        <time>2018-09-15T11:32:34Z</time>
      </trkpt>
      <trkpt lat="43.3861650" lon="-5.9366570">
        <ele>152.4</ele>
        <time>2018-09-15T11:32:35Z</time>
      </trkpt>
      <trkpt lat="43.3861810" lon="-5.9366850">
        <ele>152.8</ele>
        <time>2018-09-15T11:32:36Z</time>
      </trkpt>
      <trkpt lat="43.3861940" lon="-5.9367120">
        <ele>153.2</ele>
        <time>2018-09-15T11:32:37Z</time>
      </trkpt>
      <trkpt lat="43.3862050" lon="-5.9367330">
        <ele>153.6</ele>
        <time>2018-09-15T11:32:38Z</time>
      </trkpt>
      <trkpt lat="43.3862180" lon="-5.9367610">
        <ele>154.3</ele>
        <time>2018-09-15T11:32:39Z</time>
      </trkpt>
      <trkpt lat="43.3862290" lon="-5.9367820">
        <ele>154.8</ele>
        <time>2018-09-15T11:32:40Z</time>
      </trkpt>
      <trkpt lat="43.3862420" lon="-5.9368120">
        <ele>155.5</ele>
        <time>2018-09-15T11:32:41Z</time>
      </trkpt>
      <trkpt lat="43.3862540" lon="-5.9368380">
        <ele>155.9</ele>
        <time>2018-09-15T11:32:42Z</time>
      </trkpt>
      <trkpt lat="43.3862650" lon="-5.9368630">
        <ele>156.0</ele>
        <time>2018-09-15T11:32:43Z</time>
      </trkpt>
      <trkpt lat="43.3862710" lon="-5.9368790">
        <ele>156.0</ele>
        <time>2018-09-15T11:32:44Z</time>
      </trkpt>
      <trkpt lat="43.3862820" lon="-5.9369120">
        <ele>156.1</ele>
        <time>2018-09-15T11:32:45Z</time>
      </trkpt>
      <trkpt lat="43.3862920" lon="-5.9369370">
        <ele>156.1</ele>
        <time>2018-09-15T11:32:46Z</time>
      </trkpt>
      <trkpt lat="43.3863050" lon="-5.9369680">
        <ele>156.2</ele>
        <time>2018-09-15T11:32:47Z</time>
      </trkpt>
      <trkpt lat="43.3863150" lon="-5.9369920">
        <ele>156.2</ele>
        <time>2018-09-15T11:32:48Z</time>
      </trkpt>
      <trkpt lat="43.3863260" lon="-5.9370170">
        <ele>156.2</ele>
        <time>2018-09-15T11:32:49Z</time>
      </trkpt>
      <trkpt lat="43.3863380" lon="-5.9370490">
        <ele>156.3</ele>
        <time>2018-09-15T11:32:50Z</time>
      </trkpt>
      <trkpt lat="43.3863500" lon="-5.9370790">
        <ele>156.3</ele>
        <time>2018-09-15T11:32:51Z</time>
      </trkpt>
      <trkpt lat="43.3863590" lon="-5.9371020">
        <ele>156.3</ele>
        <time>2018-09-15T11:32:52Z</time>
      </trkpt>
      <trkpt lat="43.3863720" lon="-5.9371320">
        <ele>156.3</ele>
        <time>2018-09-15T11:32:53Z</time>
      </trkpt>
      <trkpt lat="43.3863830" lon="-5.9371610">
        <ele>156.3</ele>
        <time>2018-09-15T11:32:54Z</time>
      </trkpt>
      <trkpt lat="43.3863930" lon="-5.9371830">
        <ele>156.2</ele>
        <time>2018-09-15T11:32:55Z</time>
      </trkpt>
      <trkpt lat="43.3864040" lon="-5.9372060">
        <ele>156.2</ele>
        <time>2018-09-15T11:32:56Z</time>
      </trkpt>
      <trkpt lat="43.3864140" lon="-5.9372310">
        <ele>156.2</ele>
        <time>2018-09-15T11:32:57Z</time>
      </trkpt>
      <trkpt lat="43.3864240" lon="-5.9372560">
        <ele>156.2</ele>
        <time>2018-09-15T11:32:58Z</time>
      </trkpt>
      <trkpt lat="43.3864340" lon="-5.9372820">
        <ele>156.2</ele>
        <time>2018-09-15T11:32:59Z</time>
      </trkpt>
      <trkpt lat="43.3864470" lon="-5.9373140">
        <ele>156.1</ele>
        <time>2018-09-15T11:33:00Z</time>
      </trkpt>
      <trkpt lat="43.3864590" lon="-5.9373450">
        <ele>156.1</ele>
        <time>2018-09-15T11:33:02Z</time>
      </trkpt>
      <trkpt lat="43.3864690" lon="-5.9373690">
        <ele>156.1</ele>
        <time>2018-09-15T11:33:03Z</time>
      </trkpt>
      <trkpt lat="43.3864810" lon="-5.9374000">
        <ele>156.1</ele>
        <time>2018-09-15T11:33:04Z</time>
      </trkpt>
      <trkpt lat="43.3864910" lon="-5.9374230">
        <ele>156.0</ele>
        <time>2018-09-15T11:33:05Z</time>
      </trkpt>
      <trkpt lat="43.3864990" lon="-5.9374410">
        <ele>156.0</ele>
        <time>2018-09-15T11:33:06Z</time>
      </trkpt>
      <trkpt lat="43.3865130" lon="-5.9374730">
        <ele>156.0</ele>
        <time>2018-09-15T11:33:07Z</time>
      </trkpt>
      <trkpt lat="43.3865260" lon="-5.9375020">
        <ele>156.5</ele>
        <time>2018-09-15T11:33:08Z</time>
      </trkpt>
      <trkpt lat="43.3865350" lon="-5.9375250">
        <ele>157.0</ele>
        <time>2018-09-15T11:33:09Z</time>
      </trkpt>
      <trkpt lat="43.3865450" lon="-5.9375500">
        <ele>157.6</ele>
        <time>2018-09-15T11:33:10Z</time>
      </trkpt>
      <trkpt lat="43.3865580" lon="-5.9375810">
        <ele>158.5</ele>
        <time>2018-09-15T11:33:11Z</time>
      </trkpt>
      <trkpt lat="43.3865690" lon="-5.9376120">
        <ele>159.5</ele>
        <time>2018-09-15T11:33:12Z</time>
      </trkpt>
      <trkpt lat="43.3865800" lon="-5.9376410">
        <ele>160.3</ele>
        <time>2018-09-15T11:33:13Z</time>
      </trkpt>
      <trkpt lat="43.3865880" lon="-5.9376640">
        <ele>160.8</ele>
        <time>2018-09-15T11:33:14Z</time>
      </trkpt>
      <trkpt lat="43.3865990" lon="-5.9376930">
        <ele>161.4</ele>
        <time>2018-09-15T11:33:15Z</time>
      </trkpt>
      <trkpt lat="43.3866090" lon="-5.9377160">
        <ele>161.8</ele>
        <time>2018-09-15T11:33:16Z</time>
      </trkpt>
      <trkpt lat="43.3866210" lon="-5.9377460">
        <ele>162.1</ele>
        <time>2018-09-15T11:33:17Z</time>
      </trkpt>
      <trkpt lat="43.3866320" lon="-5.9377750">
        <ele>162.4</ele>
        <time>2018-09-15T11:33:18Z</time>
      </trkpt>
      <trkpt lat="43.3866410" lon="-5.9377980">
        <ele>162.7</ele>
        <time>2018-09-15T11:33:19Z</time>
      </trkpt>
      <trkpt lat="43.3866540" lon="-5.9378270">
        <ele>163.0</ele>
        <time>2018-09-15T11:33:20Z</time>
      </trkpt>
      <trkpt lat="43.3866630" lon="-5.9378490">
        <ele>163.3</ele>
        <time>2018-09-15T11:33:21Z</time>
      </trkpt>
      <trkpt lat="43.3866730" lon="-5.9378720">
        <ele>163.7</ele>
        <time>2018-09-15T11:33:22Z</time>
      </trkpt>
      <trkpt lat="43.3866860" lon="-5.9379020">
        <ele>164.4</ele>
        <time>2018-09-15T11:33:23Z</time>
      </trkpt>
      <trkpt lat="43.3866980" lon="-5.9379300">
        <ele>165.1</ele>
        <time>2018-09-15T11:33:24Z</time>
      </trkpt>
      <trkpt lat="43.3867090" lon="-5.9379590">
        <ele>165.8</ele>
        <time>2018-09-15T11:33:25Z</time>
      </trkpt>
      <trkpt lat="43.3867200" lon="-5.9379870">
        <ele>166.3</ele>
        <time>2018-09-15T11:33:26Z</time>
      </trkpt>
      <trkpt lat="43.3867320" lon="-5.9380150">
        <ele>166.6</ele>
        <time>2018-09-15T11:33:27Z</time>
      </trkpt>
      <trkpt lat="43.3867400" lon="-5.9380370">
        <ele>166.8</ele>
        <time>2018-09-15T11:33:28Z</time>
      </trkpt>
      <trkpt lat="43.3867500" lon="-5.9380600">
        <ele>167.0</ele>
        <time>2018-09-15T11:33:29Z</time>
      </trkpt>
      <trkpt lat="43.3867610" lon="-5.9380910">
        <ele>167.2</ele>
        <time>2018-09-15T11:33:30Z</time>
      </trkpt>
      <trkpt lat="43.3867710" lon="-5.9381210">
        <ele>167.5</ele>
        <time>2018-09-15T11:33:31Z</time>
      </trkpt>
      <trkpt lat="43.3867790" lon="-5.9381440">
        <ele>167.7</ele>
        <time>2018-09-15T11:33:32Z</time>
      </trkpt>
      <trkpt lat="43.3867870" lon="-5.9381750">
        <ele>167.9</ele>
        <time>2018-09-15T11:33:33Z</time>
      </trkpt>
      <trkpt lat="43.3867950" lon="-5.9382060">
        <ele>168.2</ele>
        <time>2018-09-15T11:33:34Z</time>
      </trkpt>
      <trkpt lat="43.3868020" lon="-5.9382360">
        <ele>168.4</ele>
        <time>2018-09-15T11:33:35Z</time>
      </trkpt>
      <trkpt lat="43.3868070" lon="-5.9382600">
        <ele>168.6</ele>
        <time>2018-09-15T11:33:36Z</time>
      </trkpt>
      <trkpt lat="43.3868120" lon="-5.9382860">
        <ele>168.8</ele>
        <time>2018-09-15T11:33:37Z</time>
      </trkpt>
      <trkpt lat="43.3868150" lon="-5.9383210">
        <ele>169.0</ele>
        <time>2018-09-15T11:33:38Z</time>
      </trkpt>
      <trkpt lat="43.3868180" lon="-5.9383560">
        <ele>169.3</ele>
        <time>2018-09-15T11:33:39Z</time>
      </trkpt>
      <trkpt lat="43.3868200" lon="-5.9383840">
        <ele>169.5</ele>
        <time>2018-09-15T11:33:40Z</time>
      </trkpt>
      <trkpt lat="43.3868230" lon="-5.9384220">
        <ele>170.2</ele>
        <time>2018-09-15T11:33:41Z</time>
      </trkpt>
      <trkpt lat="43.3868240" lon="-5.9384590">
        <ele>170.8</ele>
        <time>2018-09-15T11:33:42Z</time>
      </trkpt>
      <trkpt lat="43.3868250" lon="-5.9384960">
        <ele>171.5</ele>
        <time>2018-09-15T11:33:43Z</time>
      </trkpt>
      <trkpt lat="43.3868260" lon="-5.9385260">
        <ele>171.9</ele>
        <time>2018-09-15T11:33:44Z</time>
      </trkpt>
      <trkpt lat="43.3868260" lon="-5.9385630">
        <ele>172.2</ele>
        <time>2018-09-15T11:33:45Z</time>
      </trkpt>
      <trkpt lat="43.3868260" lon="-5.9385910">
        <ele>172.4</ele>
        <time>2018-09-15T11:33:46Z</time>
      </trkpt>
      <trkpt lat="43.3868240" lon="-5.9386270">
        <ele>172.6</ele>
        <time>2018-09-15T11:33:47Z</time>
      </trkpt>
      <trkpt lat="43.3868240" lon="-5.9386580">
        <ele>172.7</ele>
        <time>2018-09-15T11:33:48Z</time>
      </trkpt>
      <trkpt lat="43.3868220" lon="-5.9386990">
        <ele>172.9</ele>
        <time>2018-09-15T11:33:49Z</time>
      </trkpt>
      <trkpt lat="43.3868200" lon="-5.9387450">
        <ele>173.2</ele>
        <time>2018-09-15T11:33:50Z</time>
      </trkpt>
      <trkpt lat="43.3868180" lon="-5.9387900">
        <ele>173.4</ele>
        <time>2018-09-15T11:33:51Z</time>
      </trkpt>
      <trkpt lat="43.3868160" lon="-5.9388340">
        <ele>173.6</ele>
        <time>2018-09-15T11:33:52Z</time>
      </trkpt>
      <trkpt lat="43.3868150" lon="-5.9388690">
        <ele>173.8</ele>
        <time>2018-09-15T11:33:53Z</time>
      </trkpt>
      <trkpt lat="43.3868130" lon="-5.9389060">
        <ele>174.0</ele>
        <time>2018-09-15T11:33:54Z</time>
      </trkpt>
      <trkpt lat="43.3868130" lon="-5.9389510">
        <ele>174.2</ele>
        <time>2018-09-15T11:33:55Z</time>
      </trkpt>
      <trkpt lat="43.3868160" lon="-5.9389960">
        <ele>174.4</ele>
        <time>2018-09-15T11:33:56Z</time>
      </trkpt>
      <trkpt lat="43.3868170" lon="-5.9390330">
        <ele>174.6</ele>
        <time>2018-09-15T11:33:57Z</time>
      </trkpt>
      <trkpt lat="43.3868180" lon="-5.9390770">
        <ele>174.8</ele>
        <time>2018-09-15T11:33:58Z</time>
      </trkpt>
      <trkpt lat="43.3868190" lon="-5.9391190">
        <ele>175.1</ele>
        <time>2018-09-15T11:33:59Z</time>
      </trkpt>
      <trkpt lat="43.3868190" lon="-5.9391520">
        <ele>175.3</ele>
        <time>2018-09-15T11:34:00Z</time>
      </trkpt>
      <trkpt lat="43.3868180" lon="-5.9391870">
        <ele>175.5</ele>
        <time>2018-09-15T11:34:01Z</time>
      </trkpt>
      <trkpt lat="43.3868190" lon="-5.9392320">
        <ele>175.8</ele>
        <time>2018-09-15T11:34:02Z</time>
      </trkpt>
      <trkpt lat="43.3868210" lon="-5.9392760">
        <ele>176.1</ele>
        <time>2018-09-15T11:34:03Z</time>
      </trkpt>
      <trkpt lat="43.3868280" lon="-5.9393100">
        <ele>176.3</ele>
        <time>2018-09-15T11:34:04Z</time>
      </trkpt>
      <trkpt lat="43.3868460" lon="-5.9393860">
        <ele>177.7</ele>
        <time>2018-09-15T11:34:05Z</time>
      </trkpt>
      <trkpt lat="43.3868550" lon="-5.9394200">
        <ele>178.6</ele>
        <time>2018-09-15T11:34:06Z</time>
      </trkpt>
      <trkpt lat="43.3868630" lon="-5.9394540">
        <ele>179.3</ele>
        <time>2018-09-15T11:34:07Z</time>
      </trkpt>
      <trkpt lat="43.3868630" lon="-5.9394540">
        <ele>179.3</ele>
        <time>2018-09-15T11:34:08Z</time>
      </trkpt>
      <trkpt lat="43.3868710" lon="-5.9394870">
        <ele>179.8</ele>
        <time>2018-09-15T11:34:09Z</time>
      </trkpt>
      <trkpt lat="43.3868790" lon="-5.9395110">
        <ele>180.1</ele>
        <time>2018-09-15T11:34:10Z</time>
      </trkpt>
      <trkpt lat="43.3868900" lon="-5.9395420">
        <ele>180.4</ele>
        <time>2018-09-15T11:34:11Z</time>
      </trkpt>
      <trkpt lat="43.3869120" lon="-5.9395870">
        <ele>180.9</ele>
        <time>2018-09-15T11:34:12Z</time>
      </trkpt>
      <trkpt lat="43.3869120" lon="-5.9395870">
        <ele>180.9</ele>
        <time>2018-09-15T11:34:13Z</time>
      </trkpt>
      <trkpt lat="43.3869250" lon="-5.9396090">
        <ele>181.1</ele>
        <time>2018-09-15T11:34:14Z</time>
      </trkpt>
      <trkpt lat="43.3869420" lon="-5.9396390">
        <ele>181.5</ele>
        <time>2018-09-15T11:34:15Z</time>
      </trkpt>
      <trkpt lat="43.3869740" lon="-5.9396950">
        <ele>182.6</ele>
        <time>2018-09-15T11:34:16Z</time>
      </trkpt>
      <trkpt lat="43.3869740" lon="-5.9396950">
        <ele>182.6</ele>
        <time>2018-09-15T11:34:17Z</time>
      </trkpt>
      <trkpt lat="43.3869880" lon="-5.9397210">
        <ele>183.4</ele>
        <time>2018-09-15T11:34:18Z</time>
      </trkpt>
      <trkpt lat="43.3870180" lon="-5.9397790">
        <ele>185.3</ele>
        <time>2018-09-15T11:34:19Z</time>
      </trkpt>
      <trkpt lat="43.3870180" lon="-5.9397790">
        <ele>185.3</ele>
        <time>2018-09-15T11:34:20Z</time>
      </trkpt>
      <trkpt lat="43.3870320" lon="-5.9398070">
        <ele>186.0</ele>
        <time>2018-09-15T11:34:21Z</time>
      </trkpt>
      <trkpt lat="43.3870490" lon="-5.9398390">
        <ele>186.5</ele>
        <time>2018-09-15T11:34:22Z</time>
      </trkpt>
      <trkpt lat="43.3870660" lon="-5.9398690">
        <ele>187.0</ele>
        <time>2018-09-15T11:34:23Z</time>
      </trkpt>
      <trkpt lat="43.3870950" lon="-5.9399170">
        <ele>188.0</ele>
        <time>2018-09-15T11:34:24Z</time>
      </trkpt>
      <trkpt lat="43.3871120" lon="-5.9399480">
        <ele>189.1</ele>
        <time>2018-09-15T11:34:25Z</time>
      </trkpt>
      <trkpt lat="43.3871120" lon="-5.9399480">
        <ele>189.1</ele>
        <time>2018-09-15T11:34:26Z</time>
      </trkpt>
      <trkpt lat="43.3871270" lon="-5.9399720">
        <ele>189.9</ele>
        <time>2018-09-15T11:34:27Z</time>
      </trkpt>
      <trkpt lat="43.3871440" lon="-5.9400030">
        <ele>190.9</ele>
        <time>2018-09-15T11:34:28Z</time>
      </trkpt>
      <trkpt lat="43.3871600" lon="-5.9400330">
        <ele>191.3</ele>
        <time>2018-09-15T11:34:29Z</time>
      </trkpt>
      <trkpt lat="43.3871880" lon="-5.9400830">
        <ele>192.0</ele>
        <time>2018-09-15T11:34:30Z</time>
      </trkpt>
      <trkpt lat="43.3872040" lon="-5.9401120">
        <ele>192.4</ele>
        <time>2018-09-15T11:34:31Z</time>
      </trkpt>
      <trkpt lat="43.3872180" lon="-5.9401420">
        <ele>193.0</ele>
        <time>2018-09-15T11:34:32Z</time>
      </trkpt>
      <trkpt lat="43.3872300" lon="-5.9401650">
        <ele>193.4</ele>
        <time>2018-09-15T11:34:33Z</time>
      </trkpt>
      <trkpt lat="43.3872450" lon="-5.9401950">
        <ele>194.2</ele>
        <time>2018-09-15T11:34:34Z</time>
      </trkpt>
      <trkpt lat="43.3872570" lon="-5.9402180">
        <ele>194.9</ele>
        <time>2018-09-15T11:34:35Z</time>
      </trkpt>
      <trkpt lat="43.3872710" lon="-5.9402480">
        <ele>195.7</ele>
        <time>2018-09-15T11:34:36Z</time>
      </trkpt>
      <trkpt lat="43.3872830" lon="-5.9402710">
        <ele>196.4</ele>
        <time>2018-09-15T11:34:37Z</time>
      </trkpt>
      <trkpt lat="43.3872940" lon="-5.9402940">
        <ele>197.0</ele>
        <time>2018-09-15T11:34:38Z</time>
      </trkpt>
      <trkpt lat="43.3873080" lon="-5.9403250">
        <ele>197.6</ele>
        <time>2018-09-15T11:34:39Z</time>
      </trkpt>
      <trkpt lat="43.3873210" lon="-5.9403540">
        <ele>198.2</ele>
        <time>2018-09-15T11:34:40Z</time>
      </trkpt>
      <trkpt lat="43.3873310" lon="-5.9403790">
        <ele>198.5</ele>
        <time>2018-09-15T11:34:41Z</time>
      </trkpt>
      <trkpt lat="43.3873410" lon="-5.9404040">
        <ele>198.8</ele>
        <time>2018-09-15T11:34:42Z</time>
      </trkpt>
      <trkpt lat="43.3873520" lon="-5.9404270">
        <ele>199.1</ele>
        <time>2018-09-15T11:34:43Z</time>
      </trkpt>
      <trkpt lat="43.3873640" lon="-5.9404530">
        <ele>199.5</ele>
        <time>2018-09-15T11:34:44Z</time>
      </trkpt>
      <trkpt lat="43.3873770" lon="-5.9404850">
        <ele>199.9</ele>
        <time>2018-09-15T11:34:45Z</time>
      </trkpt>
      <trkpt lat="43.3873900" lon="-5.9405150">
        <ele>200.8</ele>
        <time>2018-09-15T11:34:46Z</time>
      </trkpt>
      <trkpt lat="43.3874010" lon="-5.9405380">
        <ele>201.6</ele>
        <time>2018-09-15T11:34:47Z</time>
      </trkpt>
      <trkpt lat="43.3874120" lon="-5.9405600">
        <ele>202.4</ele>
        <time>2018-09-15T11:34:48Z</time>
      </trkpt>
      <trkpt lat="43.3874250" lon="-5.9405870">
        <ele>203.4</ele>
        <time>2018-09-15T11:34:49Z</time>
      </trkpt>
      <trkpt lat="43.3874340" lon="-5.9406080">
        <ele>203.9</ele>
        <time>2018-09-15T11:34:50Z</time>
      </trkpt>
      <trkpt lat="43.3874460" lon="-5.9406350">
        <ele>203.7</ele>
        <time>2018-09-15T11:34:51Z</time>
      </trkpt>
      <trkpt lat="43.3874540" lon="-5.9406560">
        <ele>203.5</ele>
        <time>2018-09-15T11:34:52Z</time>
      </trkpt>
      <trkpt lat="43.3874670" lon="-5.9406830">
        <ele>203.2</ele>
        <time>2018-09-15T11:34:53Z</time>
      </trkpt>
      <trkpt lat="43.3874780" lon="-5.9407050">
        <ele>202.9</ele>
        <time>2018-09-15T11:34:54Z</time>
      </trkpt>
      <trkpt lat="43.3874940" lon="-5.9407330">
        <ele>202.6</ele>
        <time>2018-09-15T11:34:55Z</time>
      </trkpt>
      <trkpt lat="43.3875070" lon="-5.9407530">
        <ele>202.4</ele>
        <time>2018-09-15T11:34:56Z</time>
      </trkpt>
      <trkpt lat="43.3875240" lon="-5.9407790">
        <ele>202.1</ele>
        <time>2018-09-15T11:34:57Z</time>
      </trkpt>
      <trkpt lat="43.3875410" lon="-5.9408020">
        <ele>201.8</ele>
        <time>2018-09-15T11:34:58Z</time>
      </trkpt>
      <trkpt lat="43.3875590" lon="-5.9408250">
        <ele>201.5</ele>
        <time>2018-09-15T11:34:59Z</time>
      </trkpt>
      <trkpt lat="43.3875710" lon="-5.9408410">
        <ele>201.3</ele>
        <time>2018-09-15T11:35:00Z</time>
      </trkpt>
      <trkpt lat="43.3875860" lon="-5.9408550">
        <ele>201.1</ele>
        <time>2018-09-15T11:35:01Z</time>
      </trkpt>
      <trkpt lat="43.3876070" lon="-5.9408720">
        <ele>200.7</ele>
        <time>2018-09-15T11:35:02Z</time>
      </trkpt>
      <trkpt lat="43.3876300" lon="-5.9408870">
        <ele>200.2</ele>
        <time>2018-09-15T11:35:03Z</time>
      </trkpt>
      <trkpt lat="43.3876490" lon="-5.9408990">
        <ele>199.7</ele>
        <time>2018-09-15T11:35:04Z</time>
      </trkpt>
      <trkpt lat="43.3876780" lon="-5.9409180">
        <ele>198.8</ele>
        <time>2018-09-15T11:35:05Z</time>
      </trkpt>
      <trkpt lat="43.3876960" lon="-5.9409290">
        <ele>198.3</ele>
        <time>2018-09-15T11:35:06Z</time>
      </trkpt>
      <trkpt lat="43.3877200" lon="-5.9409420">
        <ele>197.5</ele>
        <time>2018-09-15T11:35:07Z</time>
      </trkpt>
      <trkpt lat="43.3877390" lon="-5.9409480">
        <ele>196.9</ele>
        <time>2018-09-15T11:35:08Z</time>
      </trkpt>
      <trkpt lat="43.3877630" lon="-5.9409570">
        <ele>196.0</ele>
        <time>2018-09-15T11:35:09Z</time>
      </trkpt>
      <trkpt lat="43.3877860" lon="-5.9409650">
        <ele>195.4</ele>
        <time>2018-09-15T11:35:10Z</time>
      </trkpt>
      <trkpt lat="43.3878070" lon="-5.9409680">
        <ele>195.0</ele>
        <time>2018-09-15T11:35:11Z</time>
      </trkpt>
      <trkpt lat="43.3878210" lon="-5.9409700">
        <ele>194.7</ele>
        <time>2018-09-15T11:35:12Z</time>
      </trkpt>
      <trkpt lat="43.3878360" lon="-5.9409700">
        <ele>194.4</ele>
        <time>2018-09-15T11:35:13Z</time>
      </trkpt>
      <trkpt lat="43.3878590" lon="-5.9409690">
        <ele>193.9</ele>
        <time>2018-09-15T11:35:14Z</time>
      </trkpt>
      <trkpt lat="43.3878800" lon="-5.9409680">
        <ele>193.4</ele>
        <time>2018-09-15T11:35:15Z</time>
      </trkpt>
      <trkpt lat="43.3879020" lon="-5.9409640">
        <ele>193.0</ele>
        <time>2018-09-15T11:35:16Z</time>
      </trkpt>
      <trkpt lat="43.3879180" lon="-5.9409610">
        <ele>192.9</ele>
        <time>2018-09-15T11:35:17Z</time>
      </trkpt>
      <trkpt lat="43.3879410" lon="-5.9409560">
        <ele>192.6</ele>
        <time>2018-09-15T11:35:18Z</time>
      </trkpt>
      <trkpt lat="43.3879640" lon="-5.9409500">
        <ele>192.3</ele>
        <time>2018-09-15T11:35:19Z</time>
      </trkpt>
      <trkpt lat="43.3879810" lon="-5.9409450">
        <ele>192.1</ele>
        <time>2018-09-15T11:35:20Z</time>
      </trkpt>
      <trkpt lat="43.3880030" lon="-5.9409350">
        <ele>191.8</ele>
        <time>2018-09-15T11:35:21Z</time>
      </trkpt>
      <trkpt lat="43.3880210" lon="-5.9409250">
        <ele>191.3</ele>
        <time>2018-09-15T11:35:22Z</time>
      </trkpt>
      <trkpt lat="43.3880450" lon="-5.9409110">
        <ele>190.6</ele>
        <time>2018-09-15T11:35:23Z</time>
      </trkpt>
      <trkpt lat="43.3880680" lon="-5.9408970">
        <ele>190.0</ele>
        <time>2018-09-15T11:35:24Z</time>
      </trkpt>
      <trkpt lat="43.3880910" lon="-5.9408830">
        <ele>189.4</ele>
        <time>2018-09-15T11:35:25Z</time>
      </trkpt>
      <trkpt lat="43.3881120" lon="-5.9408680">
        <ele>188.9</ele>
        <time>2018-09-15T11:35:26Z</time>
      </trkpt>
      <trkpt lat="43.3881280" lon="-5.9408540">
        <ele>188.7</ele>
        <time>2018-09-15T11:35:27Z</time>
      </trkpt>
      <trkpt lat="43.3881490" lon="-5.9408350">
        <ele>188.5</ele>
        <time>2018-09-15T11:35:28Z</time>
      </trkpt>
      <trkpt lat="43.3881680" lon="-5.9408190">
        <ele>188.2</ele>
        <time>2018-09-15T11:35:29Z</time>
      </trkpt>
      <trkpt lat="43.3881860" lon="-5.9408010">
        <ele>188.0</ele>
        <time>2018-09-15T11:35:30Z</time>
      </trkpt>
      <trkpt lat="43.3882000" lon="-5.9407870">
        <ele>187.8</ele>
        <time>2018-09-15T11:35:31Z</time>
      </trkpt>
      <trkpt lat="43.3882210" lon="-5.9407720">
        <ele>187.6</ele>
        <time>2018-09-15T11:35:32Z</time>
      </trkpt>
      <trkpt lat="43.3882400" lon="-5.9407580">
        <ele>187.3</ele>
        <time>2018-09-15T11:35:33Z</time>
      </trkpt>
      <trkpt lat="43.3882530" lon="-5.9407460">
        <ele>186.9</ele>
        <time>2018-09-15T11:35:34Z</time>
      </trkpt>
      <trkpt lat="43.3882730" lon="-5.9407350">
        <ele>186.3</ele>
        <time>2018-09-15T11:35:35Z</time>
      </trkpt>
      <trkpt lat="43.3882880" lon="-5.9407270">
        <ele>185.9</ele>
        <time>2018-09-15T11:35:36Z</time>
      </trkpt>
      <trkpt lat="43.3883090" lon="-5.9407150">
        <ele>185.2</ele>
        <time>2018-09-15T11:35:37Z</time>
      </trkpt>
      <trkpt lat="43.3883250" lon="-5.9407090">
        <ele>184.6</ele>
        <time>2018-09-15T11:35:38Z</time>
      </trkpt>
      <trkpt lat="43.3883430" lon="-5.9407040">
        <ele>184.2</ele>
        <time>2018-09-15T11:35:39Z</time>
      </trkpt>
      <trkpt lat="43.3883610" lon="-5.9406970">
        <ele>183.8</ele>
        <time>2018-09-15T11:35:40Z</time>
      </trkpt>
      <trkpt lat="43.3883840" lon="-5.9406900">
        <ele>183.3</ele>
        <time>2018-09-15T11:35:41Z</time>
      </trkpt>
      <trkpt lat="43.3884010" lon="-5.9406840">
        <ele>183.0</ele>
        <time>2018-09-15T11:35:42Z</time>
      </trkpt>
      <trkpt lat="43.3884190" lon="-5.9406780">
        <ele>182.7</ele>
        <time>2018-09-15T11:35:43Z</time>
      </trkpt>
      <trkpt lat="43.3884430" lon="-5.9406750">
        <ele>182.4</ele>
        <time>2018-09-15T11:35:44Z</time>
      </trkpt>
      <trkpt lat="43.3884600" lon="-5.9406720">
        <ele>182.2</ele>
        <time>2018-09-15T11:35:45Z</time>
      </trkpt>
      <trkpt lat="43.3884820" lon="-5.9406750">
        <ele>181.9</ele>
        <time>2018-09-15T11:35:46Z</time>
      </trkpt>
      <trkpt lat="43.3884970" lon="-5.9406760">
        <ele>181.7</ele>
        <time>2018-09-15T11:35:47Z</time>
      </trkpt>
      <trkpt lat="43.3885180" lon="-5.9406780">
        <ele>181.4</ele>
        <time>2018-09-15T11:35:48Z</time>
      </trkpt>
      <trkpt lat="43.3885370" lon="-5.9406820">
        <ele>181.2</ele>
        <time>2018-09-15T11:35:49Z</time>
      </trkpt>
      <trkpt lat="43.3885560" lon="-5.9406880">
        <ele>181.0</ele>
        <time>2018-09-15T11:35:50Z</time>
      </trkpt>
      <trkpt lat="43.3885710" lon="-5.9406900">
        <ele>181.3</ele>
        <time>2018-09-15T11:35:51Z</time>
      </trkpt>
      <trkpt lat="43.3885920" lon="-5.9406980">
        <ele>181.7</ele>
        <time>2018-09-15T11:35:52Z</time>
      </trkpt>
      <trkpt lat="43.3886110" lon="-5.9407070">
        <ele>182.1</ele>
        <time>2018-09-15T11:35:53Z</time>
      </trkpt>
      <trkpt lat="43.3886270" lon="-5.9407090">
        <ele>182.3</ele>
        <time>2018-09-15T11:35:54Z</time>
      </trkpt>
      <trkpt lat="43.3886460" lon="-5.9407170">
        <ele>182.6</ele>
        <time>2018-09-15T11:35:55Z</time>
      </trkpt>
      <trkpt lat="43.3886600" lon="-5.9407220">
        <ele>182.8</ele>
        <time>2018-09-15T11:35:56Z</time>
      </trkpt>
      <trkpt lat="43.3886740" lon="-5.9407280">
        <ele>183.0</ele>
        <time>2018-09-15T11:35:57Z</time>
      </trkpt>
      <trkpt lat="43.3886950" lon="-5.9407380">
        <ele>183.3</ele>
        <time>2018-09-15T11:35:58Z</time>
      </trkpt>
      <trkpt lat="43.3887110" lon="-5.9407440">
        <ele>183.5</ele>
        <time>2018-09-15T11:35:59Z</time>
      </trkpt>
      <trkpt lat="43.3887320" lon="-5.9407540">
        <ele>183.7</ele>
        <time>2018-09-15T11:36:00Z</time>
      </trkpt>
      <trkpt lat="43.3887520" lon="-5.9407630">
        <ele>184.0</ele>
        <time>2018-09-15T11:36:01Z</time>
      </trkpt>
      <trkpt lat="43.3887710" lon="-5.9407760">
        <ele>184.2</ele>
        <time>2018-09-15T11:36:02Z</time>
      </trkpt>
      <trkpt lat="43.3887900" lon="-5.9407860">
        <ele>184.5</ele>
        <time>2018-09-15T11:36:03Z</time>
      </trkpt>
      <trkpt lat="43.3888060" lon="-5.9407920">
        <ele>184.7</ele>
        <time>2018-09-15T11:36:04Z</time>
      </trkpt>
      <trkpt lat="43.3888260" lon="-5.9408040">
        <ele>184.9</ele>
        <time>2018-09-15T11:36:05Z</time>
      </trkpt>
      <trkpt lat="43.3888450" lon="-5.9408170">
        <ele>185.3</ele>
        <time>2018-09-15T11:36:06Z</time>
      </trkpt>
      <trkpt lat="43.3888640" lon="-5.9408290">
        <ele>185.7</ele>
        <time>2018-09-15T11:36:07Z</time>
      </trkpt>
      <trkpt lat="43.3888820" lon="-5.9408440">
        <ele>186.0</ele>
        <time>2018-09-15T11:36:08Z</time>
      </trkpt>
      <trkpt lat="43.3888970" lon="-5.9408570">
        <ele>186.3</ele>
        <time>2018-09-15T11:36:09Z</time>
      </trkpt>
      <trkpt lat="43.3889150" lon="-5.9408780">
        <ele>186.8</ele>
        <time>2018-09-15T11:36:10Z</time>
      </trkpt>
      <trkpt lat="43.3889270" lon="-5.9408910">
        <ele>187.1</ele>
        <time>2018-09-15T11:36:11Z</time>
      </trkpt>
      <trkpt lat="43.3889450" lon="-5.9409110">
        <ele>187.5</ele>
        <time>2018-09-15T11:36:12Z</time>
      </trkpt>
      <trkpt lat="43.3889590" lon="-5.9409360">
        <ele>188.0</ele>
        <time>2018-09-15T11:36:13Z</time>
      </trkpt>
      <trkpt lat="43.3889730" lon="-5.9409600">
        <ele>188.5</ele>
        <time>2018-09-15T11:36:14Z</time>
      </trkpt>
      <trkpt lat="43.3889860" lon="-5.9409850">
        <ele>189.0</ele>
        <time>2018-09-15T11:36:15Z</time>
      </trkpt>
      <trkpt lat="43.3889980" lon="-5.9410100">
        <ele>189.5</ele>
        <time>2018-09-15T11:36:16Z</time>
      </trkpt>
      <trkpt lat="43.3890070" lon="-5.9410250">
        <ele>189.8</ele>
        <time>2018-09-15T11:36:17Z</time>
      </trkpt>
      <trkpt lat="43.3890150" lon="-5.9410410">
        <ele>190.1</ele>
        <time>2018-09-15T11:36:18Z</time>
      </trkpt>
      <trkpt lat="43.3890260" lon="-5.9410670">
        <ele>190.7</ele>
        <time>2018-09-15T11:36:19Z</time>
      </trkpt>
      <trkpt lat="43.3890340" lon="-5.9410860">
        <ele>191.1</ele>
        <time>2018-09-15T11:36:20Z</time>
      </trkpt>
      <trkpt lat="43.3890450" lon="-5.9411070">
        <ele>191.5</ele>
        <time>2018-09-15T11:36:21Z</time>
      </trkpt>
      <trkpt lat="43.3890570" lon="-5.9411340">
        <ele>192.0</ele>
        <time>2018-09-15T11:36:22Z</time>
      </trkpt>
      <trkpt lat="43.3890690" lon="-5.9411590">
        <ele>192.5</ele>
        <time>2018-09-15T11:36:23Z</time>
      </trkpt>
      <trkpt lat="43.3890800" lon="-5.9411850">
        <ele>193.0</ele>
        <time>2018-09-15T11:36:24Z</time>
      </trkpt>
      <trkpt lat="43.3890900" lon="-5.9412040">
        <ele>193.3</ele>
        <time>2018-09-15T11:36:25Z</time>
      </trkpt>
      <trkpt lat="43.3891040" lon="-5.9412330">
        <ele>193.8</ele>
        <time>2018-09-15T11:36:26Z</time>
      </trkpt>
      <trkpt lat="43.3891140" lon="-5.9412630">
        <ele>194.3</ele>
        <time>2018-09-15T11:36:27Z</time>
      </trkpt>
      <trkpt lat="43.3891230" lon="-5.9412790">
        <ele>194.6</ele>
        <time>2018-09-15T11:36:28Z</time>
      </trkpt>
      <trkpt lat="43.3891300" lon="-5.9413070">
        <ele>195.0</ele>
        <time>2018-09-15T11:36:29Z</time>
      </trkpt>
      <trkpt lat="43.3891370" lon="-5.9413430">
        <ele>195.5</ele>
        <time>2018-09-15T11:36:30Z</time>
      </trkpt>
      <trkpt lat="43.3891390" lon="-5.9413750">
        <ele>195.9</ele>
        <time>2018-09-15T11:36:31Z</time>
      </trkpt>
      <trkpt lat="43.3891400" lon="-5.9413980">
        <ele>196.2</ele>
        <time>2018-09-15T11:36:32Z</time>
      </trkpt>
      <trkpt lat="43.3891410" lon="-5.9414270">
        <ele>196.6</ele>
        <time>2018-09-15T11:36:33Z</time>
      </trkpt>
      <trkpt lat="43.3891410" lon="-5.9414530">
        <ele>196.9</ele>
        <time>2018-09-15T11:36:34Z</time>
      </trkpt>
      <trkpt lat="43.3891410" lon="-5.9414800">
        <ele>197.3</ele>
        <time>2018-09-15T11:36:35Z</time>
      </trkpt>
      <trkpt lat="43.3891430" lon="-5.9415000">
        <ele>197.5</ele>
        <time>2018-09-15T11:36:36Z</time>
      </trkpt>
      <trkpt lat="43.3891450" lon="-5.9415250">
        <ele>197.9</ele>
        <time>2018-09-15T11:36:37Z</time>
      </trkpt>
      <trkpt lat="43.3891450" lon="-5.9415550">
        <ele>198.2</ele>
        <time>2018-09-15T11:36:38Z</time>
      </trkpt>
      <trkpt lat="43.3891450" lon="-5.9415790">
        <ele>198.6</ele>
        <time>2018-09-15T11:36:39Z</time>
      </trkpt>
      <trkpt lat="43.3891430" lon="-5.9416080">
        <ele>198.9</ele>
        <time>2018-09-15T11:36:40Z</time>
      </trkpt>
      <trkpt lat="43.3891390" lon="-5.9416440">
        <ele>199.4</ele>
        <time>2018-09-15T11:36:41Z</time>
      </trkpt>
      <trkpt lat="43.3891350" lon="-5.9416810">
        <ele>199.9</ele>
        <time>2018-09-15T11:36:42Z</time>
      </trkpt>
      <trkpt lat="43.3891310" lon="-5.9417100">
        <ele>200.3</ele>
        <time>2018-09-15T11:36:43Z</time>
      </trkpt>
      <trkpt lat="43.3891250" lon="-5.9417480">
        <ele>200.8</ele>
        <time>2018-09-15T11:36:44Z</time>
      </trkpt>
      <trkpt lat="43.3891210" lon="-5.9417790">
        <ele>201.2</ele>
        <time>2018-09-15T11:36:45Z</time>
      </trkpt>
      <trkpt lat="43.3891170" lon="-5.9418160">
        <ele>201.6</ele>
        <time>2018-09-15T11:36:46Z</time>
      </trkpt>
      <trkpt lat="43.3891130" lon="-5.9418410">
        <ele>202.0</ele>
        <time>2018-09-15T11:36:47Z</time>
      </trkpt>
      <trkpt lat="43.3891080" lon="-5.9418740">
        <ele>202.4</ele>
        <time>2018-09-15T11:36:48Z</time>
      </trkpt>
      <trkpt lat="43.3891020" lon="-5.9419090">
        <ele>202.9</ele>
        <time>2018-09-15T11:36:49Z</time>
      </trkpt>
      <trkpt lat="43.3890970" lon="-5.9419380">
        <ele>203.2</ele>
        <time>2018-09-15T11:36:50Z</time>
      </trkpt>
      <trkpt lat="43.3890900" lon="-5.9419740">
        <ele>203.7</ele>
        <time>2018-09-15T11:36:51Z</time>
      </trkpt>
      <trkpt lat="43.3890860" lon="-5.9420030">
        <ele>204.1</ele>
        <time>2018-09-15T11:36:52Z</time>
      </trkpt>
      <trkpt lat="43.3890810" lon="-5.9420390">
        <ele>204.5</ele>
        <time>2018-09-15T11:36:53Z</time>
      </trkpt>
      <trkpt lat="43.3890760" lon="-5.9420670">
        <ele>204.9</ele>
        <time>2018-09-15T11:36:54Z</time>
      </trkpt>
      <trkpt lat="43.3890700" lon="-5.9420960">
        <ele>205.3</ele>
        <time>2018-09-15T11:36:55Z</time>
      </trkpt>
      <trkpt lat="43.3890630" lon="-5.9421330">
        <ele>205.7</ele>
        <time>2018-09-15T11:36:56Z</time>
      </trkpt>
      <trkpt lat="43.3890540" lon="-5.9421680">
        <ele>206.2</ele>
        <time>2018-09-15T11:36:57Z</time>
      </trkpt>
      <trkpt lat="43.3890470" lon="-5.9421960">
        <ele>206.5</ele>
        <time>2018-09-15T11:36:58Z</time>
      </trkpt>
      <trkpt lat="43.3890380" lon="-5.9422320">
        <ele>206.9</ele>
        <time>2018-09-15T11:36:59Z</time>
      </trkpt>
      <trkpt lat="43.3890280" lon="-5.9422670">
        <ele>207.4</ele>
        <time>2018-09-15T11:37:00Z</time>
      </trkpt>
      <trkpt lat="43.3890190" lon="-5.9423010">
        <ele>207.8</ele>
        <time>2018-09-15T11:37:01Z</time>
      </trkpt>
      <trkpt lat="43.3890080" lon="-5.9423350">
        <ele>208.2</ele>
        <time>2018-09-15T11:37:02Z</time>
      </trkpt>
      <trkpt lat="43.3889990" lon="-5.9423680">
        <ele>208.6</ele>
        <time>2018-09-15T11:37:03Z</time>
      </trkpt>
      <trkpt lat="43.3889900" lon="-5.9423950">
        <ele>209.0</ele>
        <time>2018-09-15T11:37:04Z</time>
      </trkpt>
      <trkpt lat="43.3889790" lon="-5.9424300">
        <ele>209.4</ele>
        <time>2018-09-15T11:37:05Z</time>
      </trkpt>
      <trkpt lat="43.3889690" lon="-5.9424590">
        <ele>209.8</ele>
        <time>2018-09-15T11:37:06Z</time>
      </trkpt>
      <trkpt lat="43.3889570" lon="-5.9424940">
        <ele>210.2</ele>
        <time>2018-09-15T11:37:07Z</time>
      </trkpt>
      <trkpt lat="43.3889460" lon="-5.9425280">
        <ele>210.6</ele>
        <time>2018-09-15T11:37:08Z</time>
      </trkpt>
      <trkpt lat="43.3889360" lon="-5.9425610">
        <ele>211.0</ele>
        <time>2018-09-15T11:37:09Z</time>
      </trkpt>
      <trkpt lat="43.3889290" lon="-5.9425880">
        <ele>211.3</ele>
        <time>2018-09-15T11:37:10Z</time>
      </trkpt>
      <trkpt lat="43.3889210" lon="-5.9426170">
        <ele>211.7</ele>
        <time>2018-09-15T11:37:11Z</time>
      </trkpt>
      <trkpt lat="43.3889120" lon="-5.9426540">
        <ele>212.1</ele>
        <time>2018-09-15T11:37:12Z</time>
      </trkpt>
      <trkpt lat="43.3889050" lon="-5.9426820">
        <ele>212.4</ele>
        <time>2018-09-15T11:37:13Z</time>
      </trkpt>
      <trkpt lat="43.3888970" lon="-5.9427110">
        <ele>212.8</ele>
        <time>2018-09-15T11:37:14Z</time>
      </trkpt>
      <trkpt lat="43.3888870" lon="-5.9427480">
        <ele>213.2</ele>
        <time>2018-09-15T11:37:15Z</time>
      </trkpt>
      <trkpt lat="43.3888800" lon="-5.9427760">
        <ele>213.6</ele>
        <time>2018-09-15T11:37:16Z</time>
      </trkpt>
      <trkpt lat="43.3888720" lon="-5.9428050">
        <ele>213.9</ele>
        <time>2018-09-15T11:37:17Z</time>
      </trkpt>
      <trkpt lat="43.3888630" lon="-5.9428410">
        <ele>214.3</ele>
        <time>2018-09-15T11:37:18Z</time>
      </trkpt>
      <trkpt lat="43.3888550" lon="-5.9428700">
        <ele>214.7</ele>
        <time>2018-09-15T11:37:19Z</time>
      </trkpt>
      <trkpt lat="43.3888460" lon="-5.9429060">
        <ele>215.1</ele>
        <time>2018-09-15T11:37:20Z</time>
      </trkpt>
      <trkpt lat="43.3888360" lon="-5.9429400">
        <ele>215.5</ele>
        <time>2018-09-15T11:37:21Z</time>
      </trkpt>
      <trkpt lat="43.3888280" lon="-5.9429720">
        <ele>215.9</ele>
        <time>2018-09-15T11:37:22Z</time>
      </trkpt>
      <trkpt lat="43.3888220" lon="-5.9429980">
        <ele>216.1</ele>
        <time>2018-09-15T11:37:23Z</time>
      </trkpt>
      <trkpt lat="43.3888140" lon="-5.9430330">
        <ele>216.5</ele>
        <time>2018-09-15T11:37:24Z</time>
      </trkpt>
      <trkpt lat="43.3888070" lon="-5.9430660">
        <ele>216.9</ele>
        <time>2018-09-15T11:37:25Z</time>
      </trkpt>
      <trkpt lat="43.3888010" lon="-5.9430990">
        <ele>217.2</ele>
        <time>2018-09-15T11:37:26Z</time>
      </trkpt>
      <trkpt lat="43.3887960" lon="-5.9431240">
        <ele>217.5</ele>
        <time>2018-09-15T11:37:27Z</time>
      </trkpt>
      <trkpt lat="43.3887900" lon="-5.9431580">
        <ele>217.9</ele>
        <time>2018-09-15T11:37:28Z</time>
      </trkpt>
      <trkpt lat="43.3887860" lon="-5.9431840">
        <ele>218.2</ele>
        <time>2018-09-15T11:37:29Z</time>
      </trkpt>
      <trkpt lat="43.3887810" lon="-5.9432190">
        <ele>218.6</ele>
        <time>2018-09-15T11:37:30Z</time>
      </trkpt>
      <trkpt lat="43.3887750" lon="-5.9432530">
        <ele>219.0</ele>
        <time>2018-09-15T11:37:31Z</time>
      </trkpt>
      <trkpt lat="43.3887710" lon="-5.9432800">
        <ele>219.3</ele>
        <time>2018-09-15T11:37:32Z</time>
      </trkpt>
      <trkpt lat="43.3887660" lon="-5.9433150">
        <ele>219.7</ele>
        <time>2018-09-15T11:37:33Z</time>
      </trkpt>
      <trkpt lat="43.3887620" lon="-5.9433420">
        <ele>220.0</ele>
        <time>2018-09-15T11:37:34Z</time>
      </trkpt>
      <trkpt lat="43.3887610" lon="-5.9433760">
        <ele>220.4</ele>
        <time>2018-09-15T11:37:35Z</time>
      </trkpt>
      <trkpt lat="43.3887600" lon="-5.9434100">
        <ele>220.8</ele>
        <time>2018-09-15T11:37:36Z</time>
      </trkpt>
      <trkpt lat="43.3887580" lon="-5.9434360">
        <ele>221.1</ele>
        <time>2018-09-15T11:37:37Z</time>
      </trkpt>
      <trkpt lat="43.3887570" lon="-5.9434700">
        <ele>221.5</ele>
        <time>2018-09-15T11:37:38Z</time>
      </trkpt>
      <trkpt lat="43.3887560" lon="-5.9435030">
        <ele>221.9</ele>
        <time>2018-09-15T11:37:39Z</time>
      </trkpt>
      <trkpt lat="43.3887550" lon="-5.9435290">
        <ele>222.2</ele>
        <time>2018-09-15T11:37:40Z</time>
      </trkpt>
      <trkpt lat="43.3887540" lon="-5.9435630">
        <ele>222.6</ele>
        <time>2018-09-15T11:37:41Z</time>
      </trkpt>
      <trkpt lat="43.3887540" lon="-5.9435970">
        <ele>223.0</ele>
        <time>2018-09-15T11:37:42Z</time>
      </trkpt>
      <trkpt lat="43.3887550" lon="-5.9436220">
        <ele>223.3</ele>
        <time>2018-09-15T11:37:43Z</time>
      </trkpt>
      <trkpt lat="43.3887570" lon="-5.9436550">
        <ele>223.8</ele>
        <time>2018-09-15T11:37:44Z</time>
      </trkpt>
      <trkpt lat="43.3887580" lon="-5.9436890">
        <ele>224.2</ele>
        <time>2018-09-15T11:37:45Z</time>
      </trkpt>
      <trkpt lat="43.3887600" lon="-5.9437170">
        <ele>224.5</ele>
        <time>2018-09-15T11:37:46Z</time>
      </trkpt>
      <trkpt lat="43.3887620" lon="-5.9437520">
        <ele>225.0</ele>
        <time>2018-09-15T11:37:47Z</time>
      </trkpt>
      <trkpt lat="43.3887640" lon="-5.9437800">
        <ele>225.4</ele>
        <time>2018-09-15T11:37:48Z</time>
      </trkpt>
      <trkpt lat="43.3887660" lon="-5.9438170">
        <ele>225.8</ele>
        <time>2018-09-15T11:37:49Z</time>
      </trkpt>
      <trkpt lat="43.3887690" lon="-5.9438510">
        <ele>226.3</ele>
        <time>2018-09-15T11:37:50Z</time>
      </trkpt>
      <trkpt lat="43.3887730" lon="-5.9438850">
        <ele>226.8</ele>
        <time>2018-09-15T11:37:51Z</time>
      </trkpt>
      <trkpt lat="43.3887780" lon="-5.9439180">
        <ele>227.2</ele>
        <time>2018-09-15T11:37:52Z</time>
      </trkpt>
      <trkpt lat="43.3887820" lon="-5.9439440">
        <ele>227.6</ele>
        <time>2018-09-15T11:37:53Z</time>
      </trkpt>
      <trkpt lat="43.3887890" lon="-5.9439780">
        <ele>228.1</ele>
        <time>2018-09-15T11:37:54Z</time>
      </trkpt>
      <trkpt lat="43.3887970" lon="-5.9440100">
        <ele>228.6</ele>
        <time>2018-09-15T11:37:55Z</time>
      </trkpt>
      <trkpt lat="43.3888050" lon="-5.9440410">
        <ele>229.1</ele>
        <time>2018-09-15T11:37:56Z</time>
      </trkpt>
      <trkpt lat="43.3888110" lon="-5.9440640">
        <ele>229.4</ele>
        <time>2018-09-15T11:37:57Z</time>
      </trkpt>
      <trkpt lat="43.3888170" lon="-5.9440900">
        <ele>229.8</ele>
        <time>2018-09-15T11:37:58Z</time>
      </trkpt>
      <trkpt lat="43.3888250" lon="-5.9441220">
        <ele>230.4</ele>
        <time>2018-09-15T11:37:59Z</time>
      </trkpt>
      <trkpt lat="43.3888340" lon="-5.9441530">
        <ele>230.9</ele>
        <time>2018-09-15T11:38:00Z</time>
      </trkpt>
      <trkpt lat="43.3888410" lon="-5.9441760">
        <ele>231.3</ele>
        <time>2018-09-15T11:38:01Z</time>
      </trkpt>
      <trkpt lat="43.3888520" lon="-5.9442060">
        <ele>231.8</ele>
        <time>2018-09-15T11:38:02Z</time>
      </trkpt>
      <trkpt lat="43.3888590" lon="-5.9442300">
        <ele>232.2</ele>
        <time>2018-09-15T11:38:03Z</time>
      </trkpt>
      <trkpt lat="43.3888680" lon="-5.9442610">
        <ele>232.8</ele>
        <time>2018-09-15T11:38:04Z</time>
      </trkpt>
      <trkpt lat="43.3888770" lon="-5.9442920">
        <ele>233.4</ele>
        <time>2018-09-15T11:38:05Z</time>
      </trkpt>
      <trkpt lat="43.3888840" lon="-5.9443220">
        <ele>234.0</ele>
        <time>2018-09-15T11:38:06Z</time>
      </trkpt>
      <trkpt lat="43.3888910" lon="-5.9443520">
        <ele>234.1</ele>
        <time>2018-09-15T11:38:07Z</time>
      </trkpt>
      <trkpt lat="43.3888940" lon="-5.9443740">
        <ele>234.2</ele>
        <time>2018-09-15T11:38:08Z</time>
      </trkpt>
      <trkpt lat="43.3888970" lon="-5.9444070">
        <ele>234.4</ele>
        <time>2018-09-15T11:38:09Z</time>
      </trkpt>
      <trkpt lat="43.3889000" lon="-5.9444330">
        <ele>234.5</ele>
        <time>2018-09-15T11:38:10Z</time>
      </trkpt>
      <trkpt lat="43.3889010" lon="-5.9444680">
        <ele>234.6</ele>
        <time>2018-09-15T11:38:11Z</time>
      </trkpt>
      <trkpt lat="43.3889030" lon="-5.9445020">
        <ele>234.8</ele>
        <time>2018-09-15T11:38:12Z</time>
      </trkpt>
      <trkpt lat="43.3889030" lon="-5.9445290">
        <ele>235.0</ele>
        <time>2018-09-15T11:38:13Z</time>
      </trkpt>
      <trkpt lat="43.3889040" lon="-5.9445590">
        <ele>235.4</ele>
        <time>2018-09-15T11:38:14Z</time>
      </trkpt>
      <trkpt lat="43.3889020" lon="-5.9445880">
        <ele>235.7</ele>
        <time>2018-09-15T11:38:15Z</time>
      </trkpt>
      <trkpt lat="43.3888990" lon="-5.9446140">
        <ele>236.0</ele>
        <time>2018-09-15T11:38:16Z</time>
      </trkpt>
      <trkpt lat="43.3888980" lon="-5.9446400">
        <ele>236.1</ele>
        <time>2018-09-15T11:38:17Z</time>
      </trkpt>
      <trkpt lat="43.3888960" lon="-5.9446680">
        <ele>236.3</ele>
        <time>2018-09-15T11:38:18Z</time>
      </trkpt>
      <trkpt lat="43.3888930" lon="-5.9447060">
        <ele>236.5</ele>
        <time>2018-09-15T11:38:19Z</time>
      </trkpt>
      <trkpt lat="43.3888910" lon="-5.9447380">
        <ele>236.6</ele>
        <time>2018-09-15T11:38:20Z</time>
      </trkpt>
      <trkpt lat="43.3888890" lon="-5.9447700">
        <ele>236.7</ele>
        <time>2018-09-15T11:38:21Z</time>
      </trkpt>
      <trkpt lat="43.3888880" lon="-5.9448040">
        <ele>236.9</ele>
        <time>2018-09-15T11:38:22Z</time>
      </trkpt>
      <trkpt lat="43.3888870" lon="-5.9448270">
        <ele>237.0</ele>
        <time>2018-09-15T11:38:23Z</time>
      </trkpt>
      <trkpt lat="43.3888860" lon="-5.9448540">
        <ele>237.1</ele>
        <time>2018-09-15T11:38:24Z</time>
      </trkpt>
      <trkpt lat="43.3888840" lon="-5.9448890">
        <ele>237.5</ele>
        <time>2018-09-15T11:38:25Z</time>
      </trkpt>
      <trkpt lat="43.3888820" lon="-5.9449150">
        <ele>237.7</ele>
        <time>2018-09-15T11:38:26Z</time>
      </trkpt>
      <trkpt lat="43.3888770" lon="-5.9449490">
        <ele>238.1</ele>
        <time>2018-09-15T11:38:27Z</time>
      </trkpt>
      <trkpt lat="43.3888750" lon="-5.9449820">
        <ele>238.5</ele>
        <time>2018-09-15T11:38:28Z</time>
      </trkpt>
      <trkpt lat="43.3888740" lon="-5.9450040">
        <ele>238.7</ele>
        <time>2018-09-15T11:38:29Z</time>
      </trkpt>
      <trkpt lat="43.3888710" lon="-5.9450330">
        <ele>238.9</ele>
        <time>2018-09-15T11:38:30Z</time>
      </trkpt>
      <trkpt lat="43.3888690" lon="-5.9450530">
        <ele>239.0</ele>
        <time>2018-09-15T11:38:31Z</time>
      </trkpt>
      <trkpt lat="43.3888650" lon="-5.9450850">
        <ele>239.2</ele>
        <time>2018-09-15T11:38:32Z</time>
      </trkpt>
      <trkpt lat="43.3888620" lon="-5.9451100">
        <ele>239.3</ele>
        <time>2018-09-15T11:38:33Z</time>
      </trkpt>
      <trkpt lat="43.3888610" lon="-5.9451430">
        <ele>239.5</ele>
        <time>2018-09-15T11:38:34Z</time>
      </trkpt>
      <trkpt lat="43.3888580" lon="-5.9451760">
        <ele>239.7</ele>
        <time>2018-09-15T11:38:35Z</time>
      </trkpt>
      <trkpt lat="43.3888560" lon="-5.9452020">
        <ele>239.8</ele>
        <time>2018-09-15T11:38:36Z</time>
      </trkpt>
      <trkpt lat="43.3888540" lon="-5.9452290">
        <ele>239.9</ele>
        <time>2018-09-15T11:38:37Z</time>
      </trkpt>
      <trkpt lat="43.3888540" lon="-5.9452610">
        <ele>240.3</ele>
        <time>2018-09-15T11:38:38Z</time>
      </trkpt>
      <trkpt lat="43.3888540" lon="-5.9452920">
        <ele>240.6</ele>
        <time>2018-09-15T11:38:39Z</time>
      </trkpt>
      <trkpt lat="43.3888540" lon="-5.9453150">
        <ele>240.9</ele>
        <time>2018-09-15T11:38:40Z</time>
      </trkpt>
      <trkpt lat="43.3888550" lon="-5.9453450">
        <ele>241.2</ele>
        <time>2018-09-15T11:38:41Z</time>
      </trkpt>
      <trkpt lat="43.3888550" lon="-5.9453690">
        <ele>241.4</ele>
        <time>2018-09-15T11:38:42Z</time>
      </trkpt>
      <trkpt lat="43.3888560" lon="-5.9453960">
        <ele>241.5</ele>
        <time>2018-09-15T11:38:43Z</time>
      </trkpt>
      <trkpt lat="43.3888570" lon="-5.9454310">
        <ele>241.7</ele>
        <time>2018-09-15T11:38:44Z</time>
      </trkpt>
      <trkpt lat="43.3888580" lon="-5.9454590">
        <ele>241.9</ele>
        <time>2018-09-15T11:38:45Z</time>
      </trkpt>
      <trkpt lat="43.3888610" lon="-5.9454920">
        <ele>242.1</ele>
        <time>2018-09-15T11:38:46Z</time>
      </trkpt>
      <trkpt lat="43.3888640" lon="-5.9455230">
        <ele>242.4</ele>
        <time>2018-09-15T11:38:47Z</time>
      </trkpt>
      <trkpt lat="43.3888670" lon="-5.9455530">
        <ele>242.7</ele>
        <time>2018-09-15T11:38:48Z</time>
      </trkpt>
      <trkpt lat="43.3888670" lon="-5.9455770">
        <ele>243.0</ele>
        <time>2018-09-15T11:38:49Z</time>
      </trkpt>
      <trkpt lat="43.3888660" lon="-5.9456100">
        <ele>243.4</ele>
        <time>2018-09-15T11:38:50Z</time>
      </trkpt>
      <trkpt lat="43.3888660" lon="-5.9456420">
        <ele>243.8</ele>
        <time>2018-09-15T11:38:51Z</time>
      </trkpt>
      <trkpt lat="43.3888650" lon="-5.9456710">
        <ele>244.0</ele>
        <time>2018-09-15T11:38:52Z</time>
      </trkpt>
      <trkpt lat="43.3888660" lon="-5.9456900">
        <ele>244.2</ele>
        <time>2018-09-15T11:38:53Z</time>
      </trkpt>
      <trkpt lat="43.3888690" lon="-5.9457190">
        <ele>244.3</ele>
        <time>2018-09-15T11:38:54Z</time>
      </trkpt>
      <trkpt lat="43.3888740" lon="-5.9457470">
        <ele>244.5</ele>
        <time>2018-09-15T11:38:55Z</time>
      </trkpt>
      <trkpt lat="43.3888780" lon="-5.9457670">
        <ele>244.6</ele>
        <time>2018-09-15T11:38:56Z</time>
      </trkpt>
      <trkpt lat="43.3888840" lon="-5.9457900">
        <ele>244.7</ele>
        <time>2018-09-15T11:38:57Z</time>
      </trkpt>
      <trkpt lat="43.3888910" lon="-5.9458120">
        <ele>244.8</ele>
        <time>2018-09-15T11:38:58Z</time>
      </trkpt>
      <trkpt lat="43.3889010" lon="-5.9458420">
        <ele>244.9</ele>
        <time>2018-09-15T11:38:59Z</time>
      </trkpt>
      <trkpt lat="43.3889120" lon="-5.9458680">
        <ele>244.9</ele>
        <time>2018-09-15T11:39:00Z</time>
      </trkpt>
      <trkpt lat="43.3889220" lon="-5.9458960">
        <ele>244.7</ele>
        <time>2018-09-15T11:39:01Z</time>
      </trkpt>
      <trkpt lat="43.3889320" lon="-5.9459150">
        <ele>244.6</ele>
        <time>2018-09-15T11:39:02Z</time>
      </trkpt>
      <trkpt lat="43.3889410" lon="-5.9459370">
        <ele>244.4</ele>
        <time>2018-09-15T11:39:03Z</time>
      </trkpt>
      <trkpt lat="43.3889540" lon="-5.9459640">
        <ele>244.3</ele>
        <time>2018-09-15T11:39:04Z</time>
      </trkpt>
      <trkpt lat="43.3889640" lon="-5.9459830">
        <ele>244.1</ele>
        <time>2018-09-15T11:39:05Z</time>
      </trkpt>
      <trkpt lat="43.3889740" lon="-5.9460010">
        <ele>244.0</ele>
        <time>2018-09-15T11:39:06Z</time>
      </trkpt>
      <trkpt lat="43.3889830" lon="-5.9460140">
        <ele>243.9</ele>
        <time>2018-09-15T11:39:07Z</time>
      </trkpt>
      <trkpt lat="43.3890000" lon="-5.9460380">
        <ele>243.7</ele>
        <time>2018-09-15T11:39:08Z</time>
      </trkpt>
      <trkpt lat="43.3890130" lon="-5.9460560">
        <ele>243.5</ele>
        <time>2018-09-15T11:39:09Z</time>
      </trkpt>
      <trkpt lat="43.3890260" lon="-5.9460680">
        <ele>243.1</ele>
        <time>2018-09-15T11:39:10Z</time>
      </trkpt>
      <trkpt lat="43.3890410" lon="-5.9460810">
        <ele>242.7</ele>
        <time>2018-09-15T11:39:11Z</time>
      </trkpt>
      <trkpt lat="43.3890660" lon="-5.9460990">
        <ele>241.9</ele>
        <time>2018-09-15T11:39:12Z</time>
      </trkpt>
      <trkpt lat="43.3890870" lon="-5.9461170">
        <ele>241.1</ele>
        <time>2018-09-15T11:39:13Z</time>
      </trkpt>
      <trkpt lat="43.3891000" lon="-5.9461240">
        <ele>240.8</ele>
        <time>2018-09-15T11:39:14Z</time>
      </trkpt>
      <trkpt lat="43.3891220" lon="-5.9461390">
        <ele>240.4</ele>
        <time>2018-09-15T11:39:15Z</time>
      </trkpt>
      <trkpt lat="43.3891390" lon="-5.9461500">
        <ele>240.0</ele>
        <time>2018-09-15T11:39:16Z</time>
      </trkpt>
      <trkpt lat="43.3891620" lon="-5.9461610">
        <ele>239.6</ele>
        <time>2018-09-15T11:39:17Z</time>
      </trkpt>
      <trkpt lat="43.3891830" lon="-5.9461710">
        <ele>239.1</ele>
        <time>2018-09-15T11:39:18Z</time>
      </trkpt>
      <trkpt lat="43.3891980" lon="-5.9461770">
        <ele>238.8</ele>
        <time>2018-09-15T11:39:19Z</time>
      </trkpt>
      <trkpt lat="43.3892190" lon="-5.9461840">
        <ele>238.3</ele>
        <time>2018-09-15T11:39:20Z</time>
      </trkpt>
      <trkpt lat="43.3892390" lon="-5.9461890">
        <ele>237.6</ele>
        <time>2018-09-15T11:39:21Z</time>
      </trkpt>
      <trkpt lat="43.3892580" lon="-5.9461930">
        <ele>237.0</ele>
        <time>2018-09-15T11:39:22Z</time>
      </trkpt>
      <trkpt lat="43.3892770" lon="-5.9461970">
        <ele>236.3</ele>
        <time>2018-09-15T11:39:23Z</time>
      </trkpt>
      <trkpt lat="43.3892960" lon="-5.9462000">
        <ele>235.7</ele>
        <time>2018-09-15T11:39:24Z</time>
      </trkpt>
      <trkpt lat="43.3893160" lon="-5.9462010">
        <ele>235.0</ele>
        <time>2018-09-15T11:39:25Z</time>
      </trkpt>
      <trkpt lat="43.3893340" lon="-5.9462040">
        <ele>234.8</ele>
        <time>2018-09-15T11:39:26Z</time>
      </trkpt>
      <trkpt lat="43.3893520" lon="-5.9462070">
        <ele>234.5</ele>
        <time>2018-09-15T11:39:27Z</time>
      </trkpt>
      <trkpt lat="43.3893670" lon="-5.9462110">
        <ele>234.3</ele>
        <time>2018-09-15T11:39:28Z</time>
      </trkpt>
      <trkpt lat="43.3893800" lon="-5.9462100">
        <ele>234.1</ele>
        <time>2018-09-15T11:39:29Z</time>
      </trkpt>
      <trkpt lat="43.3894000" lon="-5.9462140">
        <ele>233.8</ele>
        <time>2018-09-15T11:39:30Z</time>
      </trkpt>
      <trkpt lat="43.3894200" lon="-5.9462170">
        <ele>233.5</ele>
        <time>2018-09-15T11:39:31Z</time>
      </trkpt>
      <trkpt lat="43.3894350" lon="-5.9462170">
        <ele>233.2</ele>
        <time>2018-09-15T11:39:32Z</time>
      </trkpt>
      <trkpt lat="43.3894510" lon="-5.9462190">
        <ele>233.0</ele>
        <time>2018-09-15T11:39:33Z</time>
      </trkpt>
      <trkpt lat="43.3894730" lon="-5.9462240">
        <ele>233.0</ele>
        <time>2018-09-15T11:39:34Z</time>
      </trkpt>
      <trkpt lat="43.3894900" lon="-5.9462270">
        <ele>233.0</ele>
        <time>2018-09-15T11:39:35Z</time>
      </trkpt>
      <trkpt lat="43.3895130" lon="-5.9462300">
        <ele>233.1</ele>
        <time>2018-09-15T11:39:36Z</time>
      </trkpt>
      <trkpt lat="43.3895300" lon="-5.9462330">
        <ele>233.1</ele>
        <time>2018-09-15T11:39:37Z</time>
      </trkpt>
      <trkpt lat="43.3895480" lon="-5.9462350">
        <ele>233.1</ele>
        <time>2018-09-15T11:39:38Z</time>
      </trkpt>
      <trkpt lat="43.3895680" lon="-5.9462370">
        <ele>233.1</ele>
        <time>2018-09-15T11:39:39Z</time>
      </trkpt>
      <trkpt lat="43.3895930" lon="-5.9462410">
        <ele>233.1</ele>
        <time>2018-09-15T11:39:40Z</time>
      </trkpt>
      <trkpt lat="43.3896170" lon="-5.9462440">
        <ele>233.1</ele>
        <time>2018-09-15T11:39:41Z</time>
      </trkpt>
      <trkpt lat="43.3896400" lon="-5.9462480">
        <ele>233.1</ele>
        <time>2018-09-15T11:39:42Z</time>
      </trkpt>
      <trkpt lat="43.3896630" lon="-5.9462520">
        <ele>233.1</ele>
        <time>2018-09-15T11:39:43Z</time>
      </trkpt>
      <trkpt lat="43.3896850" lon="-5.9462550">
        <ele>233.1</ele>
        <time>2018-09-15T11:39:44Z</time>
      </trkpt>
      <trkpt lat="43.3897020" lon="-5.9462570">
        <ele>233.1</ele>
        <time>2018-09-15T11:39:45Z</time>
      </trkpt>
      <trkpt lat="43.3897240" lon="-5.9462650">
        <ele>233.1</ele>
        <time>2018-09-15T11:39:46Z</time>
      </trkpt>
      <trkpt lat="43.3897410" lon="-5.9462690">
        <ele>233.1</ele>
        <time>2018-09-15T11:39:47Z</time>
      </trkpt>
      <trkpt lat="43.3897620" lon="-5.9462800">
        <ele>233.1</ele>
        <time>2018-09-15T11:39:48Z</time>
      </trkpt>
      <trkpt lat="43.3897780" lon="-5.9462860">
        <ele>233.1</ele>
        <time>2018-09-15T11:39:49Z</time>
      </trkpt>
      <trkpt lat="43.3897960" lon="-5.9462920">
        <ele>233.1</ele>
        <time>2018-09-15T11:39:50Z</time>
      </trkpt>
      <trkpt lat="43.3898170" lon="-5.9463030">
        <ele>233.1</ele>
        <time>2018-09-15T11:39:51Z</time>
      </trkpt>
      <trkpt lat="43.3898320" lon="-5.9463110">
        <ele>233.1</ele>
        <time>2018-09-15T11:39:52Z</time>
      </trkpt>
      <trkpt lat="43.3898460" lon="-5.9463150">
        <ele>233.0</ele>
        <time>2018-09-15T11:39:53Z</time>
      </trkpt>
      <trkpt lat="43.3898670" lon="-5.9463320">
        <ele>233.0</ele>
        <time>2018-09-15T11:39:54Z</time>
      </trkpt>
      <trkpt lat="43.3898880" lon="-5.9463470">
        <ele>233.0</ele>
        <time>2018-09-15T11:39:55Z</time>
      </trkpt>
      <trkpt lat="43.3899030" lon="-5.9463580">
        <ele>233.0</ele>
        <time>2018-09-15T11:39:56Z</time>
      </trkpt>
      <trkpt lat="43.3899160" lon="-5.9463660">
        <ele>233.0</ele>
        <time>2018-09-15T11:39:57Z</time>
      </trkpt>
      <trkpt lat="43.3899360" lon="-5.9463860">
        <ele>233.0</ele>
        <time>2018-09-15T11:39:58Z</time>
      </trkpt>
      <trkpt lat="43.3899520" lon="-5.9464010">
        <ele>233.0</ele>
        <time>2018-09-15T11:39:59Z</time>
      </trkpt>
      <trkpt lat="43.3899640" lon="-5.9464120">
        <ele>233.0</ele>
        <time>2018-09-15T11:40:00Z</time>
      </trkpt>
      <trkpt lat="43.3899830" lon="-5.9464360">
        <ele>233.2</ele>
        <time>2018-09-15T11:40:01Z</time>
      </trkpt>
      <trkpt lat="43.3899980" lon="-5.9464500">
        <ele>233.3</ele>
        <time>2018-09-15T11:40:02Z</time>
      </trkpt>
      <trkpt lat="43.3900120" lon="-5.9464670">
        <ele>233.4</ele>
        <time>2018-09-15T11:40:03Z</time>
      </trkpt>
      <trkpt lat="43.3900300" lon="-5.9464880">
        <ele>233.5</ele>
        <time>2018-09-15T11:40:04Z</time>
      </trkpt>
      <trkpt lat="43.3900420" lon="-5.9465110">
        <ele>233.6</ele>
        <time>2018-09-15T11:40:05Z</time>
      </trkpt>
      <trkpt lat="43.3900510" lon="-5.9465210">
        <ele>233.7</ele>
        <time>2018-09-15T11:40:06Z</time>
      </trkpt>
      <trkpt lat="43.3900650" lon="-5.9465400">
        <ele>233.8</ele>
        <time>2018-09-15T11:40:07Z</time>
      </trkpt>
      <trkpt lat="43.3900780" lon="-5.9465600">
        <ele>234.2</ele>
        <time>2018-09-15T11:40:08Z</time>
      </trkpt>
      <trkpt lat="43.3900910" lon="-5.9465790">
        <ele>234.5</ele>
        <time>2018-09-15T11:40:09Z</time>
      </trkpt>
      <trkpt lat="43.3901030" lon="-5.9466000">
        <ele>234.8</ele>
        <time>2018-09-15T11:40:10Z</time>
      </trkpt>
      <trkpt lat="43.3901140" lon="-5.9466210">
        <ele>235.1</ele>
        <time>2018-09-15T11:40:11Z</time>
      </trkpt>
      <trkpt lat="43.3901250" lon="-5.9466500">
        <ele>235.4</ele>
        <time>2018-09-15T11:40:12Z</time>
      </trkpt>
      <trkpt lat="43.3901340" lon="-5.9466710">
        <ele>235.5</ele>
        <time>2018-09-15T11:40:13Z</time>
      </trkpt>
      <trkpt lat="43.3901420" lon="-5.9466950">
        <ele>235.7</ele>
        <time>2018-09-15T11:40:14Z</time>
      </trkpt>
      <trkpt lat="43.3901510" lon="-5.9467190">
        <ele>235.8</ele>
        <time>2018-09-15T11:40:15Z</time>
      </trkpt>
      <trkpt lat="43.3901590" lon="-5.9467430">
        <ele>235.9</ele>
        <time>2018-09-15T11:40:16Z</time>
      </trkpt>
      <trkpt lat="43.3901660" lon="-5.9467600">
        <ele>236.0</ele>
        <time>2018-09-15T11:40:17Z</time>
      </trkpt>
      <trkpt lat="43.3901760" lon="-5.9467860">
        <ele>236.1</ele>
        <time>2018-09-15T11:40:18Z</time>
      </trkpt>
      <trkpt lat="43.3901860" lon="-5.9468100">
        <ele>236.2</ele>
        <time>2018-09-15T11:40:19Z</time>
      </trkpt>
      <trkpt lat="43.3901960" lon="-5.9468340">
        <ele>236.3</ele>
        <time>2018-09-15T11:40:20Z</time>
      </trkpt>
      <trkpt lat="43.3902060" lon="-5.9468570">
        <ele>236.5</ele>
        <time>2018-09-15T11:40:21Z</time>
      </trkpt>
      <trkpt lat="43.3902150" lon="-5.9468810">
        <ele>236.6</ele>
        <time>2018-09-15T11:40:22Z</time>
      </trkpt>
      <trkpt lat="43.3902260" lon="-5.9469040">
        <ele>236.8</ele>
        <time>2018-09-15T11:40:23Z</time>
      </trkpt>
      <trkpt lat="43.3902390" lon="-5.9469340">
        <ele>237.1</ele>
        <time>2018-09-15T11:40:24Z</time>
      </trkpt>
      <trkpt lat="43.3902520" lon="-5.9469620">
        <ele>237.5</ele>
        <time>2018-09-15T11:40:25Z</time>
      </trkpt>
      <trkpt lat="43.3902620" lon="-5.9469810">
        <ele>237.6</ele>
        <time>2018-09-15T11:40:26Z</time>
      </trkpt>
      <trkpt lat="43.3902750" lon="-5.9470080">
        <ele>237.8</ele>
        <time>2018-09-15T11:40:27Z</time>
      </trkpt>
      <trkpt lat="43.3902860" lon="-5.9470260">
        <ele>237.9</ele>
        <time>2018-09-15T11:40:28Z</time>
      </trkpt>
      <trkpt lat="43.3902970" lon="-5.9470450">
        <ele>238.0</ele>
        <time>2018-09-15T11:40:29Z</time>
      </trkpt>
      <trkpt lat="43.3903090" lon="-5.9470640">
        <ele>238.1</ele>
        <time>2018-09-15T11:40:30Z</time>
      </trkpt>
      <trkpt lat="43.3903230" lon="-5.9470890">
        <ele>238.2</ele>
        <time>2018-09-15T11:40:31Z</time>
      </trkpt>
      <trkpt lat="43.3903380" lon="-5.9471120">
        <ele>238.4</ele>
        <time>2018-09-15T11:40:32Z</time>
      </trkpt>
      <trkpt lat="43.3903500" lon="-5.9471290">
        <ele>238.6</ele>
        <time>2018-09-15T11:40:33Z</time>
      </trkpt>
      <trkpt lat="43.3903620" lon="-5.9471450">
        <ele>238.9</ele>
        <time>2018-09-15T11:40:34Z</time>
      </trkpt>
      <trkpt lat="43.3903760" lon="-5.9471690">
        <ele>239.2</ele>
        <time>2018-09-15T11:40:35Z</time>
      </trkpt>
      <trkpt lat="43.3903850" lon="-5.9471800">
        <ele>239.4</ele>
        <time>2018-09-15T11:40:36Z</time>
      </trkpt>
      <trkpt lat="43.3903970" lon="-5.9472060">
        <ele>239.8</ele>
        <time>2018-09-15T11:40:37Z</time>
      </trkpt>
      <trkpt lat="43.3904100" lon="-5.9472290">
        <ele>240.1</ele>
        <time>2018-09-15T11:40:38Z</time>
      </trkpt>
      <trkpt lat="43.3904180" lon="-5.9472460">
        <ele>240.2</ele>
        <time>2018-09-15T11:40:39Z</time>
      </trkpt>
      <trkpt lat="43.3904290" lon="-5.9472640">
        <ele>240.3</ele>
        <time>2018-09-15T11:40:40Z</time>
      </trkpt>
      <trkpt lat="43.3904420" lon="-5.9472860">
        <ele>240.5</ele>
        <time>2018-09-15T11:40:41Z</time>
      </trkpt>
      <trkpt lat="43.3904540" lon="-5.9473080">
        <ele>240.6</ele>
        <time>2018-09-15T11:40:42Z</time>
      </trkpt>
      <trkpt lat="43.3904670" lon="-5.9473290">
        <ele>240.7</ele>
        <time>2018-09-15T11:40:43Z</time>
      </trkpt>
      <trkpt lat="43.3904800" lon="-5.9473490">
        <ele>240.8</ele>
        <time>2018-09-15T11:40:44Z</time>
      </trkpt>
      <trkpt lat="43.3904890" lon="-5.9473640">
        <ele>240.9</ele>
        <time>2018-09-15T11:40:45Z</time>
      </trkpt>
      <trkpt lat="43.3905010" lon="-5.9473860">
        <ele>241.1</ele>
        <time>2018-09-15T11:40:46Z</time>
      </trkpt>
      <trkpt lat="43.3905120" lon="-5.9474090">
        <ele>241.3</ele>
        <time>2018-09-15T11:40:47Z</time>
      </trkpt>
      <trkpt lat="43.3905230" lon="-5.9474320">
        <ele>241.5</ele>
        <time>2018-09-15T11:40:48Z</time>
      </trkpt>
      <trkpt lat="43.3905310" lon="-5.9474480">
        <ele>241.6</ele>
        <time>2018-09-15T11:40:49Z</time>
      </trkpt>
      <trkpt lat="43.3905400" lon="-5.9474740">
        <ele>242.0</ele>
        <time>2018-09-15T11:40:50Z</time>
      </trkpt>
      <trkpt lat="43.3905460" lon="-5.9474870">
        <ele>242.2</ele>
        <time>2018-09-15T11:40:51Z</time>
      </trkpt>
      <trkpt lat="43.3905550" lon="-5.9475120">
        <ele>242.6</ele>
        <time>2018-09-15T11:40:52Z</time>
      </trkpt>
      <trkpt lat="43.3905630" lon="-5.9475440">
        <ele>243.1</ele>
        <time>2018-09-15T11:40:53Z</time>
      </trkpt>
      <trkpt lat="43.3905700" lon="-5.9475740">
        <ele>243.4</ele>
        <time>2018-09-15T11:40:54Z</time>
      </trkpt>
      <trkpt lat="43.3905740" lon="-5.9475960">
        <ele>243.7</ele>
        <time>2018-09-15T11:40:55Z</time>
      </trkpt>
      <trkpt lat="43.3905800" lon="-5.9476270">
        <ele>244.1</ele>
        <time>2018-09-15T11:40:56Z</time>
      </trkpt>
      <trkpt lat="43.3905860" lon="-5.9476560">
        <ele>244.5</ele>
        <time>2018-09-15T11:40:57Z</time>
      </trkpt>
      <trkpt lat="43.3905900" lon="-5.9476790">
        <ele>244.8</ele>
        <time>2018-09-15T11:40:58Z</time>
      </trkpt>
      <trkpt lat="43.3905950" lon="-5.9477100">
        <ele>245.2</ele>
        <time>2018-09-15T11:40:59Z</time>
      </trkpt>
      <trkpt lat="43.3906010" lon="-5.9477330">
        <ele>245.5</ele>
        <time>2018-09-15T11:41:00Z</time>
      </trkpt>
      <trkpt lat="43.3906060" lon="-5.9477650">
        <ele>245.8</ele>
        <time>2018-09-15T11:41:01Z</time>
      </trkpt>
      <trkpt lat="43.3906110" lon="-5.9477890">
        <ele>245.9</ele>
        <time>2018-09-15T11:41:02Z</time>
      </trkpt>
      <trkpt lat="43.3906170" lon="-5.9478150">
        <ele>246.0</ele>
        <time>2018-09-15T11:41:03Z</time>
      </trkpt>
      <trkpt lat="43.3906230" lon="-5.9478490">
        <ele>246.2</ele>
        <time>2018-09-15T11:41:04Z</time>
      </trkpt>
      <trkpt lat="43.3906290" lon="-5.9478750">
        <ele>246.4</ele>
        <time>2018-09-15T11:41:05Z</time>
      </trkpt>
      <trkpt lat="43.3906360" lon="-5.9479100">
        <ele>246.7</ele>
        <time>2018-09-15T11:41:06Z</time>
      </trkpt>
      <trkpt lat="43.3906440" lon="-5.9479380">
        <ele>247.0</ele>
        <time>2018-09-15T11:41:07Z</time>
      </trkpt>
      <trkpt lat="43.3906540" lon="-5.9479650">
        <ele>247.4</ele>
        <time>2018-09-15T11:41:08Z</time>
      </trkpt>
      <trkpt lat="43.3906700" lon="-5.9479960">
        <ele>247.8</ele>
        <time>2018-09-15T11:41:09Z</time>
      </trkpt>
      <trkpt lat="43.3906820" lon="-5.9480190">
        <ele>248.0</ele>
        <time>2018-09-15T11:41:10Z</time>
      </trkpt>
      <trkpt lat="43.3907000" lon="-5.9480450">
        <ele>248.3</ele>
        <time>2018-09-15T11:41:11Z</time>
      </trkpt>
      <trkpt lat="43.3907220" lon="-5.9480580">
        <ele>248.6</ele>
        <time>2018-09-15T11:41:12Z</time>
      </trkpt>
      <trkpt lat="43.3907410" lon="-5.9480660">
        <ele>248.7</ele>
        <time>2018-09-15T11:41:13Z</time>
      </trkpt>
      <trkpt lat="43.3907510" lon="-5.9480690">
        <ele>248.8</ele>
        <time>2018-09-15T11:41:14Z</time>
      </trkpt>
      <trkpt lat="43.3907530" lon="-5.9480730">
        <ele>248.9</ele>
        <time>2018-09-15T11:41:15Z</time>
      </trkpt>
      <trkpt lat="43.3907590" lon="-5.9480790">
        <ele>248.9</ele>
        <time>2018-09-15T11:41:16Z</time>
      </trkpt>
      <trkpt lat="43.3907580" lon="-5.9480820">
        <ele>248.9</ele>
        <time>2018-09-15T11:41:17Z</time>
      </trkpt>
      <trkpt lat="43.3907570" lon="-5.9480840">
        <ele>249.0</ele>
        <time>2018-09-15T11:41:18Z</time>
      </trkpt>
      <trkpt lat="43.3907560" lon="-5.9480850">
        <ele>249.0</ele>
        <time>2018-09-15T11:41:19Z</time>
      </trkpt>
      <trkpt lat="43.3907550" lon="-5.9480860">
        <ele>249.0</ele>
        <time>2018-09-15T11:41:20Z</time>
      </trkpt>
      <trkpt lat="43.3907550" lon="-5.9480860">
        <ele>249.0</ele>
        <time>2018-09-15T11:41:21Z</time>
      </trkpt>
      <trkpt lat="43.3907540" lon="-5.9480870">
        <ele>249.0</ele>
        <time>2018-09-15T11:41:22Z</time>
      </trkpt>
      <trkpt lat="43.3907540" lon="-5.9480870">
        <ele>249.0</ele>
        <time>2018-09-15T11:41:23Z</time>
      </trkpt>
      <trkpt lat="43.3907540" lon="-5.9480870">
        <ele>249.0</ele>
        <time>2018-09-15T11:41:24Z</time>
      </trkpt>
      <trkpt lat="43.3907560" lon="-5.9480940">
        <ele>249.0</ele>
        <time>2018-09-15T11:41:25Z</time>
      </trkpt>
      <trkpt lat="43.3907610" lon="-5.9480930">
        <ele>249.0</ele>
        <time>2018-09-15T11:41:26Z</time>
      </trkpt>
      <trkpt lat="43.3907650" lon="-5.9480930">
        <ele>249.0</ele>
        <time>2018-09-15T11:41:27Z</time>
      </trkpt>
      <trkpt lat="43.3907620" lon="-5.9481120">
        <ele>249.0</ele>
        <time>2018-09-15T11:41:53Z</time>
      </trkpt>
      <trkpt lat="43.3907590" lon="-5.9481160">
        <ele>249.0</ele>
        <time>2018-09-15T11:41:54Z</time>
      </trkpt>
      <trkpt lat="43.3907600" lon="-5.9481130">
        <ele>249.0</ele>
        <time>2018-09-15T11:41:55Z</time>
      </trkpt>
      <trkpt lat="43.3907600" lon="-5.9481220">
        <ele>248.9</ele>
        <time>2018-09-15T11:41:56Z</time>
      </trkpt>
      <trkpt lat="43.3907590" lon="-5.9481430">
        <ele>248.9</ele>
        <time>2018-09-15T11:41:57Z</time>
      </trkpt>
      <trkpt lat="43.3907600" lon="-5.9481500">
        <ele>248.8</ele>
        <time>2018-09-15T11:41:58Z</time>
      </trkpt>
      <trkpt lat="43.3907640" lon="-5.9481700">
        <ele>248.8</ele>
        <time>2018-09-15T11:41:59Z</time>
      </trkpt>
      <trkpt lat="43.3907720" lon="-5.9482000">
        <ele>248.6</ele>
        <time>2018-09-15T11:42:00Z</time>
      </trkpt>
      <trkpt lat="43.3907830" lon="-5.9482320">
        <ele>248.5</ele>
        <time>2018-09-15T11:42:01Z</time>
      </trkpt>
      <trkpt lat="43.3908400" lon="-5.9483840">
        <ele>247.8</ele>
        <time>2018-09-15T11:42:02Z</time>
      </trkpt>
      <trkpt lat="43.3908680" lon="-5.9484390">
        <ele>247.6</ele>
        <time>2018-09-15T11:42:03Z</time>
      </trkpt>
      <trkpt lat="43.3909070" lon="-5.9485000">
        <ele>247.1</ele>
        <time>2018-09-15T11:42:04Z</time>
      </trkpt>
      <trkpt lat="43.3909440" lon="-5.9485620">
        <ele>246.4</ele>
        <time>2018-09-15T11:42:05Z</time>
      </trkpt>
      <trkpt lat="43.3909850" lon="-5.9486290">
        <ele>245.6</ele>
        <time>2018-09-15T11:42:06Z</time>
      </trkpt>
      <trkpt lat="43.3910290" lon="-5.9486990">
        <ele>244.8</ele>
        <time>2018-09-15T11:42:07Z</time>
      </trkpt>
      <trkpt lat="43.3910840" lon="-5.9487610">
        <ele>243.9</ele>
        <time>2018-09-15T11:42:08Z</time>
      </trkpt>
      <trkpt lat="43.3911450" lon="-5.9488200">
        <ele>242.9</ele>
        <time>2018-09-15T11:42:09Z</time>
      </trkpt>
      <trkpt lat="43.3912090" lon="-5.9488820">
        <ele>242.0</ele>
        <time>2018-09-15T11:42:10Z</time>
      </trkpt>
      <trkpt lat="43.3912780" lon="-5.9489490">
        <ele>241.0</ele>
        <time>2018-09-15T11:42:11Z</time>
      </trkpt>
      <trkpt lat="43.3913460" lon="-5.9490100">
        <ele>240.1</ele>
        <time>2018-09-15T11:42:12Z</time>
      </trkpt>
      <trkpt lat="43.3914120" lon="-5.9490880">
        <ele>239.2</ele>
        <time>2018-09-15T11:42:13Z</time>
      </trkpt>
      <trkpt lat="43.3914720" lon="-5.9491730">
        <ele>238.3</ele>
        <time>2018-09-15T11:42:14Z</time>
      </trkpt>
      <trkpt lat="43.3915240" lon="-5.9492690">
        <ele>237.4</ele>
        <time>2018-09-15T11:42:15Z</time>
      </trkpt>
      <trkpt lat="43.3915690" lon="-5.9493790">
        <ele>236.4</ele>
        <time>2018-09-15T11:42:16Z</time>
      </trkpt>
      <trkpt lat="43.3916000" lon="-5.9495060">
        <ele>235.3</ele>
        <time>2018-09-15T11:42:17Z</time>
      </trkpt>
      <trkpt lat="43.3916250" lon="-5.9496290">
        <ele>234.3</ele>
        <time>2018-09-15T11:42:18Z</time>
      </trkpt>
      <trkpt lat="43.3916350" lon="-5.9497710">
        <ele>233.1</ele>
        <time>2018-09-15T11:42:19Z</time>
      </trkpt>
      <trkpt lat="43.3916380" lon="-5.9499190">
        <ele>232.1</ele>
        <time>2018-09-15T11:42:20Z</time>
      </trkpt>
      <trkpt lat="43.3916400" lon="-5.9500890">
        <ele>230.9</ele>
        <time>2018-09-15T11:42:21Z</time>
      </trkpt>
      <trkpt lat="43.3916340" lon="-5.9502390">
        <ele>230.1</ele>
        <time>2018-09-15T11:42:22Z</time>
      </trkpt>
      <trkpt lat="43.3916330" lon="-5.9503900">
        <ele>229.3</ele>
        <time>2018-09-15T11:42:23Z</time>
      </trkpt>
      <trkpt lat="43.3916350" lon="-5.9505390">
        <ele>228.5</ele>
        <time>2018-09-15T11:42:24Z</time>
      </trkpt>
      <trkpt lat="43.3916180" lon="-5.9506940">
        <ele>227.7</ele>
        <time>2018-09-15T11:42:25Z</time>
      </trkpt>
      <trkpt lat="43.3915990" lon="-5.9508540">
        <ele>226.8</ele>
        <time>2018-09-15T11:42:26Z</time>
      </trkpt>
      <trkpt lat="43.3915800" lon="-5.9510050">
        <ele>226.0</ele>
        <time>2018-09-15T11:42:27Z</time>
      </trkpt>
      <trkpt lat="43.3915660" lon="-5.9511450">
        <ele>225.1</ele>
        <time>2018-09-15T11:42:28Z</time>
      </trkpt>
      <trkpt lat="43.3915500" lon="-5.9512820">
        <ele>224.3</ele>
        <time>2018-09-15T11:42:29Z</time>
      </trkpt>
      <trkpt lat="43.3915420" lon="-5.9514200">
        <ele>223.5</ele>
        <time>2018-09-15T11:42:30Z</time>
      </trkpt>
      <trkpt lat="43.3915380" lon="-5.9515630">
        <ele>222.6</ele>
        <time>2018-09-15T11:42:31Z</time>
      </trkpt>
      <trkpt lat="43.3915430" lon="-5.9516940">
        <ele>221.9</ele>
        <time>2018-09-15T11:42:32Z</time>
      </trkpt>
      <trkpt lat="43.3915520" lon="-5.9518280">
        <ele>221.2</ele>
        <time>2018-09-15T11:42:33Z</time>
      </trkpt>
      <trkpt lat="43.3915680" lon="-5.9519580">
        <ele>220.6</ele>
        <time>2018-09-15T11:42:34Z</time>
      </trkpt>
      <trkpt lat="43.3915840" lon="-5.9520980">
        <ele>219.9</ele>
        <time>2018-09-15T11:42:35Z</time>
      </trkpt>
      <trkpt lat="43.3915980" lon="-5.9522280">
        <ele>219.3</ele>
        <time>2018-09-15T11:42:36Z</time>
      </trkpt>
      <trkpt lat="43.3916120" lon="-5.9523640">
        <ele>218.6</ele>
        <time>2018-09-15T11:42:37Z</time>
      </trkpt>
      <trkpt lat="43.3916170" lon="-5.9524940">
        <ele>217.9</ele>
        <time>2018-09-15T11:42:38Z</time>
      </trkpt>
      <trkpt lat="43.3916070" lon="-5.9526370">
        <ele>217.1</ele>
        <time>2018-09-15T11:42:39Z</time>
      </trkpt>
      <trkpt lat="43.3915830" lon="-5.9527770">
        <ele>216.2</ele>
        <time>2018-09-15T11:42:40Z</time>
      </trkpt>
      <trkpt lat="43.3915480" lon="-5.9529110">
        <ele>215.3</ele>
        <time>2018-09-15T11:42:41Z</time>
      </trkpt>
      <trkpt lat="43.3915030" lon="-5.9530340">
        <ele>214.5</ele>
        <time>2018-09-15T11:42:42Z</time>
      </trkpt>
      <trkpt lat="43.3914560" lon="-5.9531590">
        <ele>213.6</ele>
        <time>2018-09-15T11:42:43Z</time>
      </trkpt>
      <trkpt lat="43.3914130" lon="-5.9532860">
        <ele>212.7</ele>
        <time>2018-09-15T11:42:44Z</time>
      </trkpt>
      <trkpt lat="43.3913690" lon="-5.9534130">
        <ele>212.0</ele>
        <time>2018-09-15T11:42:45Z</time>
      </trkpt>
      <trkpt lat="43.3913470" lon="-5.9535580">
        <ele>212.0</ele>
        <time>2018-09-15T11:42:46Z</time>
      </trkpt>
      <trkpt lat="43.3913330" lon="-5.9536960">
        <ele>212.0</ele>
        <time>2018-09-15T11:42:47Z</time>
      </trkpt>
      <trkpt lat="43.3913250" lon="-5.9538410">
        <ele>212.1</ele>
        <time>2018-09-15T11:42:48Z</time>
      </trkpt>
      <trkpt lat="43.3913370" lon="-5.9539650">
        <ele>212.2</ele>
        <time>2018-09-15T11:42:49Z</time>
      </trkpt>
      <trkpt lat="43.3913450" lon="-5.9540990">
        <ele>212.4</ele>
        <time>2018-09-15T11:42:50Z</time>
      </trkpt>
      <trkpt lat="43.3913600" lon="-5.9542140">
        <ele>212.6</ele>
        <time>2018-09-15T11:42:51Z</time>
      </trkpt>
      <trkpt lat="43.3913890" lon="-5.9543290">
        <ele>212.7</ele>
        <time>2018-09-15T11:42:52Z</time>
      </trkpt>
      <trkpt lat="43.3914080" lon="-5.9544470">
        <ele>212.8</ele>
        <time>2018-09-15T11:42:53Z</time>
      </trkpt>
      <trkpt lat="43.3914270" lon="-5.9545730">
        <ele>212.9</ele>
        <time>2018-09-15T11:42:54Z</time>
      </trkpt>
      <trkpt lat="43.3914430" lon="-5.9546930">
        <ele>212.9</ele>
        <time>2018-09-15T11:42:55Z</time>
      </trkpt>
      <trkpt lat="43.3914540" lon="-5.9548100">
        <ele>212.9</ele>
        <time>2018-09-15T11:42:56Z</time>
      </trkpt>
      <trkpt lat="43.3914610" lon="-5.9549210">
        <ele>212.9</ele>
        <time>2018-09-15T11:42:57Z</time>
      </trkpt>
      <trkpt lat="43.3914770" lon="-5.9550170">
        <ele>212.9</ele>
        <time>2018-09-15T11:42:58Z</time>
      </trkpt>
      <trkpt lat="43.3914890" lon="-5.9551080">
        <ele>213.0</ele>
        <time>2018-09-15T11:42:59Z</time>
      </trkpt>
      <trkpt lat="43.3914870" lon="-5.9552230">
        <ele>213.0</ele>
        <time>2018-09-15T11:43:00Z</time>
      </trkpt>
      <trkpt lat="43.3914720" lon="-5.9553360">
        <ele>213.0</ele>
        <time>2018-09-15T11:43:01Z</time>
      </trkpt>
      <trkpt lat="43.3914470" lon="-5.9554290">
        <ele>213.3</ele>
        <time>2018-09-15T11:43:02Z</time>
      </trkpt>
      <trkpt lat="43.3914220" lon="-5.9555210">
        <ele>213.5</ele>
        <time>2018-09-15T11:43:03Z</time>
      </trkpt>
      <trkpt lat="43.3914010" lon="-5.9556120">
        <ele>213.7</ele>
        <time>2018-09-15T11:43:04Z</time>
      </trkpt>
      <trkpt lat="43.3913810" lon="-5.9557080">
        <ele>213.8</ele>
        <time>2018-09-15T11:43:05Z</time>
      </trkpt>
      <trkpt lat="43.3913620" lon="-5.9558060">
        <ele>214.0</ele>
        <time>2018-09-15T11:43:06Z</time>
      </trkpt>
      <trkpt lat="43.3913490" lon="-5.9558970">
        <ele>214.1</ele>
        <time>2018-09-15T11:43:07Z</time>
      </trkpt>
      <trkpt lat="43.3913410" lon="-5.9560020">
        <ele>214.2</ele>
        <time>2018-09-15T11:43:08Z</time>
      </trkpt>
      <trkpt lat="43.3913430" lon="-5.9561020">
        <ele>214.4</ele>
        <time>2018-09-15T11:43:09Z</time>
      </trkpt>
      <trkpt lat="43.3913550" lon="-5.9562100">
        <ele>214.5</ele>
        <time>2018-09-15T11:43:10Z</time>
      </trkpt>
      <trkpt lat="43.3913640" lon="-5.9563170">
        <ele>214.7</ele>
        <time>2018-09-15T11:43:11Z</time>
      </trkpt>
      <trkpt lat="43.3913630" lon="-5.9564270">
        <ele>214.8</ele>
        <time>2018-09-15T11:43:12Z</time>
      </trkpt>
      <trkpt lat="43.3913590" lon="-5.9565240">
        <ele>215.0</ele>
        <time>2018-09-15T11:43:13Z</time>
      </trkpt>
      <trkpt lat="43.3913520" lon="-5.9566360">
        <ele>215.2</ele>
        <time>2018-09-15T11:43:14Z</time>
      </trkpt>
      <trkpt lat="43.3913430" lon="-5.9567600">
        <ele>215.4</ele>
        <time>2018-09-15T11:43:15Z</time>
      </trkpt>
      <trkpt lat="43.3913320" lon="-5.9568690">
        <ele>215.5</ele>
        <time>2018-09-15T11:43:16Z</time>
      </trkpt>
      <trkpt lat="43.3913240" lon="-5.9569810">
        <ele>215.7</ele>
        <time>2018-09-15T11:43:17Z</time>
      </trkpt>
      <trkpt lat="43.3913140" lon="-5.9570920">
        <ele>215.8</ele>
        <time>2018-09-15T11:43:18Z</time>
      </trkpt>
      <trkpt lat="43.3913140" lon="-5.9572020">
        <ele>216.0</ele>
        <time>2018-09-15T11:43:19Z</time>
      </trkpt>
      <trkpt lat="43.3913140" lon="-5.9573070">
        <ele>216.1</ele>
        <time>2018-09-15T11:43:20Z</time>
      </trkpt>
      <trkpt lat="43.3913170" lon="-5.9574080">
        <ele>216.2</ele>
        <time>2018-09-15T11:43:21Z</time>
      </trkpt>
      <trkpt lat="43.3913300" lon="-5.9575050">
        <ele>216.4</ele>
        <time>2018-09-15T11:43:22Z</time>
      </trkpt>
      <trkpt lat="43.3913500" lon="-5.9575930">
        <ele>216.5</ele>
        <time>2018-09-15T11:43:23Z</time>
      </trkpt>
      <trkpt lat="43.3913770" lon="-5.9576710">
        <ele>216.6</ele>
        <time>2018-09-15T11:43:24Z</time>
      </trkpt>
      <trkpt lat="43.3914090" lon="-5.9577340">
        <ele>216.8</ele>
        <time>2018-09-15T11:43:25Z</time>
      </trkpt>
      <trkpt lat="43.3914430" lon="-5.9578070">
        <ele>216.9</ele>
        <time>2018-09-15T11:43:26Z</time>
      </trkpt>
      <trkpt lat="43.3914800" lon="-5.9578650">
        <ele>216.5</ele>
        <time>2018-09-15T11:43:27Z</time>
      </trkpt>
      <trkpt lat="43.3915090" lon="-5.9579250">
        <ele>216.2</ele>
        <time>2018-09-15T11:43:28Z</time>
      </trkpt>
      <trkpt lat="43.3915420" lon="-5.9579930">
        <ele>215.9</ele>
        <time>2018-09-15T11:43:29Z</time>
      </trkpt>
      <trkpt lat="43.3915720" lon="-5.9580510">
        <ele>215.7</ele>
        <time>2018-09-15T11:43:30Z</time>
      </trkpt>
      <trkpt lat="43.3916030" lon="-5.9580950">
        <ele>215.6</ele>
        <time>2018-09-15T11:43:31Z</time>
      </trkpt>
      <trkpt lat="43.3916450" lon="-5.9581460">
        <ele>215.5</ele>
        <time>2018-09-15T11:43:32Z</time>
      </trkpt>
      <trkpt lat="43.3916880" lon="-5.9581860">
        <ele>215.4</ele>
        <time>2018-09-15T11:43:33Z</time>
      </trkpt>
      <trkpt lat="43.3917340" lon="-5.9582200">
        <ele>215.3</ele>
        <time>2018-09-15T11:43:34Z</time>
      </trkpt>
      <trkpt lat="43.3917740" lon="-5.9582540">
        <ele>215.3</ele>
        <time>2018-09-15T11:43:35Z</time>
      </trkpt>
      <trkpt lat="43.3918110" lon="-5.9582910">
        <ele>215.2</ele>
        <time>2018-09-15T11:43:36Z</time>
      </trkpt>
      <trkpt lat="43.3918600" lon="-5.9583220">
        <ele>215.1</ele>
        <time>2018-09-15T11:43:37Z</time>
      </trkpt>
      <trkpt lat="43.3919040" lon="-5.9583640">
        <ele>215.0</ele>
        <time>2018-09-15T11:43:38Z</time>
      </trkpt>
      <trkpt lat="43.3919460" lon="-5.9583930">
        <ele>214.9</ele>
        <time>2018-09-15T11:43:39Z</time>
      </trkpt>
      <trkpt lat="43.3919780" lon="-5.9584460">
        <ele>214.7</ele>
        <time>2018-09-15T11:43:40Z</time>
      </trkpt>
      <trkpt lat="43.3920240" lon="-5.9584980">
        <ele>214.5</ele>
        <time>2018-09-15T11:43:41Z</time>
      </trkpt>
      <trkpt lat="43.3920710" lon="-5.9585550">
        <ele>214.4</ele>
        <time>2018-09-15T11:43:42Z</time>
      </trkpt>
      <trkpt lat="43.3921070" lon="-5.9586120">
        <ele>214.2</ele>
        <time>2018-09-15T11:43:43Z</time>
      </trkpt>
      <trkpt lat="43.3921510" lon="-5.9586870">
        <ele>214.1</ele>
        <time>2018-09-15T11:43:44Z</time>
      </trkpt>
      <trkpt lat="43.3921910" lon="-5.9587630">
        <ele>213.9</ele>
        <time>2018-09-15T11:43:45Z</time>
      </trkpt>
      <trkpt lat="43.3922360" lon="-5.9588570">
        <ele>213.7</ele>
        <time>2018-09-15T11:43:46Z</time>
      </trkpt>
      <trkpt lat="43.3922740" lon="-5.9589430">
        <ele>213.5</ele>
        <time>2018-09-15T11:43:47Z</time>
      </trkpt>
      <trkpt lat="43.3923040" lon="-5.9590170">
        <ele>213.2</ele>
        <time>2018-09-15T11:43:48Z</time>
      </trkpt>
      <trkpt lat="43.3923290" lon="-5.9591170">
        <ele>212.8</ele>
        <time>2018-09-15T11:43:49Z</time>
      </trkpt>
      <trkpt lat="43.3923510" lon="-5.9592050">
        <ele>212.3</ele>
        <time>2018-09-15T11:43:50Z</time>
      </trkpt>
      <trkpt lat="43.3923690" lon="-5.9593040">
        <ele>211.9</ele>
        <time>2018-09-15T11:43:51Z</time>
      </trkpt>
      <trkpt lat="43.3923900" lon="-5.9594070">
        <ele>211.4</ele>
        <time>2018-09-15T11:43:52Z</time>
      </trkpt>
      <trkpt lat="43.3924080" lon="-5.9595030">
        <ele>211.0</ele>
        <time>2018-09-15T11:43:53Z</time>
      </trkpt>
      <trkpt lat="43.3924240" lon="-5.9596060">
        <ele>210.8</ele>
        <time>2018-09-15T11:43:54Z</time>
      </trkpt>
      <trkpt lat="43.3924320" lon="-5.9597130">
        <ele>210.7</ele>
        <time>2018-09-15T11:43:55Z</time>
      </trkpt>
      <trkpt lat="43.3924570" lon="-5.9598070">
        <ele>210.5</ele>
        <time>2018-09-15T11:43:56Z</time>
      </trkpt>
      <trkpt lat="43.3924760" lon="-5.9598980">
        <ele>210.4</ele>
        <time>2018-09-15T11:43:57Z</time>
      </trkpt>
      <trkpt lat="43.3925010" lon="-5.9599980">
        <ele>210.2</ele>
        <time>2018-09-15T11:43:58Z</time>
      </trkpt>
      <trkpt lat="43.3925160" lon="-5.9600900">
        <ele>210.0</ele>
        <time>2018-09-15T11:44:00Z</time>
      </trkpt>
      <trkpt lat="43.3925340" lon="-5.9601910">
        <ele>209.8</ele>
        <time>2018-09-15T11:44:00Z</time>
      </trkpt>
      <trkpt lat="43.3925530" lon="-5.9602840">
        <ele>209.6</ele>
        <time>2018-09-15T11:44:01Z</time>
      </trkpt>
      <trkpt lat="43.3925530" lon="-5.9603930">
        <ele>209.3</ele>
        <time>2018-09-15T11:44:02Z</time>
      </trkpt>
      <trkpt lat="43.3925530" lon="-5.9604890">
        <ele>209.1</ele>
        <time>2018-09-15T11:44:03Z</time>
      </trkpt>
      <trkpt lat="43.3925500" lon="-5.9605830">
        <ele>208.9</ele>
        <time>2018-09-15T11:44:05Z</time>
      </trkpt>
      <trkpt lat="43.3925350" lon="-5.9606890">
        <ele>208.7</ele>
        <time>2018-09-15T11:44:05Z</time>
      </trkpt>
      <trkpt lat="43.3925180" lon="-5.9607830">
        <ele>208.5</ele>
        <time>2018-09-15T11:44:07Z</time>
      </trkpt>
      <trkpt lat="43.3924970" lon="-5.9608710">
        <ele>208.4</ele>
        <time>2018-09-15T11:44:08Z</time>
      </trkpt>
      <trkpt lat="43.3924690" lon="-5.9609550">
        <ele>208.3</ele>
        <time>2018-09-15T11:44:09Z</time>
      </trkpt>
      <trkpt lat="43.3924330" lon="-5.9610330">
        <ele>208.1</ele>
        <time>2018-09-15T11:44:10Z</time>
      </trkpt>
      <trkpt lat="43.3923940" lon="-5.9611170">
        <ele>208.0</ele>
        <time>2018-09-15T11:44:11Z</time>
      </trkpt>
      <trkpt lat="43.3923550" lon="-5.9611970">
        <ele>207.8</ele>
        <time>2018-09-15T11:44:12Z</time>
      </trkpt>
      <trkpt lat="43.3923240" lon="-5.9612830">
        <ele>207.6</ele>
        <time>2018-09-15T11:44:13Z</time>
      </trkpt>
      <trkpt lat="43.3922940" lon="-5.9613750">
        <ele>207.3</ele>
        <time>2018-09-15T11:44:13Z</time>
      </trkpt>
      <trkpt lat="43.3922630" lon="-5.9614820">
        <ele>206.7</ele>
        <time>2018-09-15T11:44:15Z</time>
      </trkpt>
      <trkpt lat="43.3922370" lon="-5.9615950">
        <ele>206.0</ele>
        <time>2018-09-15T11:44:16Z</time>
      </trkpt>
      <trkpt lat="43.3922080" lon="-5.9617080">
        <ele>205.3</ele>
        <time>2018-09-15T11:44:17Z</time>
      </trkpt>
      <trkpt lat="43.3921880" lon="-5.9618250">
        <ele>204.5</ele>
        <time>2018-09-15T11:44:18Z</time>
      </trkpt>
      <trkpt lat="43.3921590" lon="-5.9619550">
        <ele>203.6</ele>
        <time>2018-09-15T11:44:19Z</time>
      </trkpt>
      <trkpt lat="43.3921370" lon="-5.9620880">
        <ele>202.7</ele>
        <time>2018-09-15T11:44:20Z</time>
      </trkpt>
      <trkpt lat="43.3921220" lon="-5.9621990">
        <ele>201.9</ele>
        <time>2018-09-15T11:44:21Z</time>
      </trkpt>
      <trkpt lat="43.3920950" lon="-5.9623300">
        <ele>201.0</ele>
        <time>2018-09-15T11:44:22Z</time>
      </trkpt>
      <trkpt lat="43.3920660" lon="-5.9624650">
        <ele>200.0</ele>
        <time>2018-09-15T11:44:23Z</time>
      </trkpt>
      <trkpt lat="43.3920380" lon="-5.9625870">
        <ele>199.1</ele>
        <time>2018-09-15T11:44:24Z</time>
      </trkpt>
      <trkpt lat="43.3920030" lon="-5.9627080">
        <ele>198.3</ele>
        <time>2018-09-15T11:44:25Z</time>
      </trkpt>
      <trkpt lat="43.3919700" lon="-5.9628330">
        <ele>197.4</ele>
        <time>2018-09-15T11:44:26Z</time>
      </trkpt>
      <trkpt lat="43.3919360" lon="-5.9629520">
        <ele>196.7</ele>
        <time>2018-09-15T11:44:27Z</time>
      </trkpt>
      <trkpt lat="43.3918970" lon="-5.9630760">
        <ele>195.9</ele>
        <time>2018-09-15T11:44:28Z</time>
      </trkpt>
      <trkpt lat="43.3918440" lon="-5.9631940">
        <ele>195.1</ele>
        <time>2018-09-15T11:44:29Z</time>
      </trkpt>
      <trkpt lat="43.3917750" lon="-5.9632990">
        <ele>194.2</ele>
        <time>2018-09-15T11:44:30Z</time>
      </trkpt>
      <trkpt lat="43.3916940" lon="-5.9633970">
        <ele>193.4</ele>
        <time>2018-09-15T11:44:31Z</time>
      </trkpt>
      <trkpt lat="43.3916180" lon="-5.9634920">
        <ele>192.5</ele>
        <time>2018-09-15T11:44:32Z</time>
      </trkpt>
      <trkpt lat="43.3915400" lon="-5.9635910">
        <ele>191.5</ele>
        <time>2018-09-15T11:44:33Z</time>
      </trkpt>
      <trkpt lat="43.3914820" lon="-5.9637020">
        <ele>190.6</ele>
        <time>2018-09-15T11:44:34Z</time>
      </trkpt>
      <trkpt lat="43.3914390" lon="-5.9638320">
        <ele>189.6</ele>
        <time>2018-09-15T11:44:35Z</time>
      </trkpt>
      <trkpt lat="43.3913840" lon="-5.9639610">
        <ele>188.7</ele>
        <time>2018-09-15T11:44:36Z</time>
      </trkpt>
      <trkpt lat="43.3913190" lon="-5.9640800">
        <ele>187.7</ele>
        <time>2018-09-15T11:44:37Z</time>
      </trkpt>
      <trkpt lat="43.3912580" lon="-5.9642070">
        <ele>186.7</ele>
        <time>2018-09-15T11:44:38Z</time>
      </trkpt>
      <trkpt lat="43.3912010" lon="-5.9643450">
        <ele>185.7</ele>
        <time>2018-09-15T11:44:39Z</time>
      </trkpt>
      <trkpt lat="43.3911630" lon="-5.9644960">
        <ele>184.6</ele>
        <time>2018-09-15T11:44:40Z</time>
      </trkpt>
      <trkpt lat="43.3911260" lon="-5.9646460">
        <ele>183.4</ele>
        <time>2018-09-15T11:44:41Z</time>
      </trkpt>
      <trkpt lat="43.3910870" lon="-5.9648060">
        <ele>182.1</ele>
        <time>2018-09-15T11:44:42Z</time>
      </trkpt>
      <trkpt lat="43.3910380" lon="-5.9649520">
        <ele>180.9</ele>
        <time>2018-09-15T11:44:43Z</time>
      </trkpt>
      <trkpt lat="43.3909940" lon="-5.9650900">
        <ele>179.8</ele>
        <time>2018-09-15T11:44:44Z</time>
      </trkpt>
      <trkpt lat="43.3909410" lon="-5.9652330">
        <ele>178.7</ele>
        <time>2018-09-15T11:44:45Z</time>
      </trkpt>
      <trkpt lat="43.3908820" lon="-5.9653830">
        <ele>177.5</ele>
        <time>2018-09-15T11:44:46Z</time>
      </trkpt>
      <trkpt lat="43.3908300" lon="-5.9655330">
        <ele>176.4</ele>
        <time>2018-09-15T11:44:47Z</time>
      </trkpt>
      <trkpt lat="43.3907770" lon="-5.9656960">
        <ele>175.6</ele>
        <time>2018-09-15T11:44:48Z</time>
      </trkpt>
      <trkpt lat="43.3907220" lon="-5.9658540">
        <ele>175.0</ele>
        <time>2018-09-15T11:44:49Z</time>
      </trkpt>
      <trkpt lat="43.3906610" lon="-5.9660030">
        <ele>174.3</ele>
        <time>2018-09-15T11:44:50Z</time>
      </trkpt>
      <trkpt lat="43.3905950" lon="-5.9661610">
        <ele>173.5</ele>
        <time>2018-09-15T11:44:51Z</time>
      </trkpt>
      <trkpt lat="43.3905280" lon="-5.9663120">
        <ele>172.7</ele>
        <time>2018-09-15T11:44:52Z</time>
      </trkpt>
      <trkpt lat="43.3904700" lon="-5.9664590">
        <ele>171.9</ele>
        <time>2018-09-15T11:44:53Z</time>
      </trkpt>
      <trkpt lat="43.3904150" lon="-5.9666050">
        <ele>171.1</ele>
        <time>2018-09-15T11:44:54Z</time>
      </trkpt>
      <trkpt lat="43.3903860" lon="-5.9667570">
        <ele>170.2</ele>
        <time>2018-09-15T11:44:55Z</time>
      </trkpt>
      <trkpt lat="43.3903700" lon="-5.9668980">
        <ele>169.4</ele>
        <time>2018-09-15T11:44:56Z</time>
      </trkpt>
      <trkpt lat="43.3903580" lon="-5.9670350">
        <ele>168.6</ele>
        <time>2018-09-15T11:44:57Z</time>
      </trkpt>
      <trkpt lat="43.3903470" lon="-5.9671670">
        <ele>167.9</ele>
        <time>2018-09-15T11:44:58Z</time>
      </trkpt>
      <trkpt lat="43.3903470" lon="-5.9673000">
        <ele>167.2</ele>
        <time>2018-09-15T11:44:59Z</time>
      </trkpt>
      <trkpt lat="43.3903420" lon="-5.9674230">
        <ele>166.8</ele>
        <time>2018-09-15T11:45:00Z</time>
      </trkpt>
      <trkpt lat="43.3903490" lon="-5.9675650">
        <ele>166.4</ele>
        <time>2018-09-15T11:45:01Z</time>
      </trkpt>
      <trkpt lat="43.3903600" lon="-5.9677100">
        <ele>166.1</ele>
        <time>2018-09-15T11:45:02Z</time>
      </trkpt>
      <trkpt lat="43.3903600" lon="-5.9678400">
        <ele>165.8</ele>
        <time>2018-09-15T11:45:03Z</time>
      </trkpt>
      <trkpt lat="43.3903670" lon="-5.9679770">
        <ele>165.5</ele>
        <time>2018-09-15T11:45:04Z</time>
      </trkpt>
      <trkpt lat="43.3903850" lon="-5.9681190">
        <ele>165.1</ele>
        <time>2018-09-15T11:45:05Z</time>
      </trkpt>
      <trkpt lat="43.3904080" lon="-5.9682520">
        <ele>164.7</ele>
        <time>2018-09-15T11:45:06Z</time>
      </trkpt>
      <trkpt lat="43.3904440" lon="-5.9683750">
        <ele>164.4</ele>
        <time>2018-09-15T11:45:07Z</time>
      </trkpt>
      <trkpt lat="43.3904870" lon="-5.9684910">
        <ele>164.0</ele>
        <time>2018-09-15T11:45:08Z</time>
      </trkpt>
      <trkpt lat="43.3905350" lon="-5.9686000">
        <ele>163.7</ele>
        <time>2018-09-15T11:45:09Z</time>
      </trkpt>
      <trkpt lat="43.3905840" lon="-5.9687040">
        <ele>163.4</ele>
        <time>2018-09-15T11:45:10Z</time>
      </trkpt>
      <trkpt lat="43.3906360" lon="-5.9687970">
        <ele>163.1</ele>
        <time>2018-09-15T11:45:11Z</time>
      </trkpt>
      <trkpt lat="43.3906810" lon="-5.9689030">
        <ele>162.8</ele>
        <time>2018-09-15T11:45:12Z</time>
      </trkpt>
      <trkpt lat="43.3907390" lon="-5.9690210">
        <ele>162.4</ele>
        <time>2018-09-15T11:45:13Z</time>
      </trkpt>
      <trkpt lat="43.3907980" lon="-5.9691340">
        <ele>162.1</ele>
        <time>2018-09-15T11:45:14Z</time>
      </trkpt>
      <trkpt lat="43.3908590" lon="-5.9692460">
        <ele>161.7</ele>
        <time>2018-09-15T11:45:15Z</time>
      </trkpt>
      <trkpt lat="43.3909380" lon="-5.9693540">
        <ele>161.2</ele>
        <time>2018-09-15T11:45:16Z</time>
      </trkpt>
      <trkpt lat="43.3910270" lon="-5.9694470">
        <ele>160.6</ele>
        <time>2018-09-15T11:45:17Z</time>
      </trkpt>
      <trkpt lat="43.3911190" lon="-5.9695220">
        <ele>159.9</ele>
        <time>2018-09-15T11:45:18Z</time>
      </trkpt>
      <trkpt lat="43.3911920" lon="-5.9696240">
        <ele>159.2</ele>
        <time>2018-09-15T11:45:19Z</time>
      </trkpt>
      <trkpt lat="43.3912390" lon="-5.9697630">
        <ele>158.4</ele>
        <time>2018-09-15T11:45:20Z</time>
      </trkpt>
      <trkpt lat="43.3912580" lon="-5.9699080">
        <ele>157.5</ele>
        <time>2018-09-15T11:45:21Z</time>
      </trkpt>
      <trkpt lat="43.3912700" lon="-5.9700410">
        <ele>156.8</ele>
        <time>2018-09-15T11:45:22Z</time>
      </trkpt>
      <trkpt lat="43.3912710" lon="-5.9701810">
        <ele>156.1</ele>
        <time>2018-09-15T11:45:23Z</time>
      </trkpt>
      <trkpt lat="43.3912650" lon="-5.9703020">
        <ele>155.5</ele>
        <time>2018-09-15T11:45:24Z</time>
      </trkpt>
      <trkpt lat="43.3912540" lon="-5.9704290">
        <ele>155.1</ele>
        <time>2018-09-15T11:45:25Z</time>
      </trkpt>
      <trkpt lat="43.3912330" lon="-5.9705570">
        <ele>155.0</ele>
        <time>2018-09-15T11:45:26Z</time>
      </trkpt>
      <trkpt lat="43.3912070" lon="-5.9706700">
        <ele>154.9</ele>
        <time>2018-09-15T11:45:27Z</time>
      </trkpt>
      <trkpt lat="43.3911780" lon="-5.9707830">
        <ele>154.9</ele>
        <time>2018-09-15T11:45:28Z</time>
      </trkpt>
      <trkpt lat="43.3911440" lon="-5.9708880">
        <ele>155.0</ele>
        <time>2018-09-15T11:45:29Z</time>
      </trkpt>
      <trkpt lat="43.3911120" lon="-5.9709960">
        <ele>155.2</ele>
        <time>2018-09-15T11:45:30Z</time>
      </trkpt>
      <trkpt lat="43.3910790" lon="-5.9710890">
        <ele>155.3</ele>
        <time>2018-09-15T11:45:31Z</time>
      </trkpt>
      <trkpt lat="43.3910460" lon="-5.9711780">
        <ele>155.5</ele>
        <time>2018-09-15T11:45:32Z</time>
      </trkpt>
      <trkpt lat="43.3910250" lon="-5.9712750">
        <ele>155.7</ele>
        <time>2018-09-15T11:45:33Z</time>
      </trkpt>
      <trkpt lat="43.3910090" lon="-5.9713540">
        <ele>155.9</ele>
        <time>2018-09-15T11:45:34Z</time>
      </trkpt>
      <trkpt lat="43.3910010" lon="-5.9714310">
        <ele>156.2</ele>
        <time>2018-09-15T11:45:35Z</time>
      </trkpt>
      <trkpt lat="43.3910050" lon="-5.9715070">
        <ele>156.6</ele>
        <time>2018-09-15T11:45:36Z</time>
      </trkpt>
      <trkpt lat="43.3910020" lon="-5.9715770">
        <ele>157.5</ele>
        <time>2018-09-15T11:45:37Z</time>
      </trkpt>
      <trkpt lat="43.3910070" lon="-5.9716380">
        <ele>158.6</ele>
        <time>2018-09-15T11:45:38Z</time>
      </trkpt>
      <trkpt lat="43.3910270" lon="-5.9716990">
        <ele>159.9</ele>
        <time>2018-09-15T11:45:39Z</time>
      </trkpt>
      <trkpt lat="43.3910390" lon="-5.9717680">
        <ele>161.4</ele>
        <time>2018-09-15T11:45:40Z</time>
      </trkpt>
      <trkpt lat="43.3910620" lon="-5.9718380">
        <ele>162.7</ele>
        <time>2018-09-15T11:45:41Z</time>
      </trkpt>
      <trkpt lat="43.3910740" lon="-5.9719030">
        <ele>163.4</ele>
        <time>2018-09-15T11:45:42Z</time>
      </trkpt>
      <trkpt lat="43.3910920" lon="-5.9719750">
        <ele>164.6</ele>
        <time>2018-09-15T11:45:43Z</time>
      </trkpt>
      <trkpt lat="43.3911070" lon="-5.9720470">
        <ele>164.7</ele>
        <time>2018-09-15T11:45:44Z</time>
      </trkpt>
      <trkpt lat="43.3911230" lon="-5.9721070">
        <ele>164.4</ele>
        <time>2018-09-15T11:45:45Z</time>
      </trkpt>
      <trkpt lat="43.3911390" lon="-5.9721840">
        <ele>164.0</ele>
        <time>2018-09-15T11:45:46Z</time>
      </trkpt>
      <trkpt lat="43.3911560" lon="-5.9722700">
        <ele>163.5</ele>
        <time>2018-09-15T11:45:47Z</time>
      </trkpt>
      <trkpt lat="43.3911660" lon="-5.9723630">
        <ele>163.0</ele>
        <time>2018-09-15T11:45:48Z</time>
      </trkpt>
      <trkpt lat="43.3911900" lon="-5.9724510">
        <ele>162.3</ele>
        <time>2018-09-15T11:45:49Z</time>
      </trkpt>
      <trkpt lat="43.3912270" lon="-5.9725520">
        <ele>161.1</ele>
        <time>2018-09-15T11:45:50Z</time>
      </trkpt>
      <trkpt lat="43.3912730" lon="-5.9726540">
        <ele>159.8</ele>
        <time>2018-09-15T11:45:51Z</time>
      </trkpt>
      <trkpt lat="43.3913380" lon="-5.9727550">
        <ele>158.4</ele>
        <time>2018-09-15T11:45:52Z</time>
      </trkpt>
      <trkpt lat="43.3914170" lon="-5.9728600">
        <ele>156.9</ele>
        <time>2018-09-15T11:45:53Z</time>
      </trkpt>
      <trkpt lat="43.3914880" lon="-5.9729600">
        <ele>155.4</ele>
        <time>2018-09-15T11:45:54Z</time>
      </trkpt>
      <trkpt lat="43.3915550" lon="-5.9730680">
        <ele>153.9</ele>
        <time>2018-09-15T11:45:55Z</time>
      </trkpt>
      <trkpt lat="43.3916050" lon="-5.9731950">
        <ele>152.4</ele>
        <time>2018-09-15T11:45:56Z</time>
      </trkpt>
      <trkpt lat="43.3916380" lon="-5.9733410">
        <ele>150.7</ele>
        <time>2018-09-15T11:45:57Z</time>
      </trkpt>
      <trkpt lat="43.3916570" lon="-5.9734940">
        <ele>148.9</ele>
        <time>2018-09-15T11:45:58Z</time>
      </trkpt>
      <trkpt lat="43.3916750" lon="-5.9736480">
        <ele>147.1</ele>
        <time>2018-09-15T11:45:59Z</time>
      </trkpt>
      <trkpt lat="43.3916950" lon="-5.9738040">
        <ele>145.3</ele>
        <time>2018-09-15T11:46:00Z</time>
      </trkpt>
      <trkpt lat="43.3917220" lon="-5.9739700">
        <ele>143.3</ele>
        <time>2018-09-15T11:46:01Z</time>
      </trkpt>
      <trkpt lat="43.3917410" lon="-5.9741420">
        <ele>141.2</ele>
        <time>2018-09-15T11:46:02Z</time>
      </trkpt>
      <trkpt lat="43.3917510" lon="-5.9743140">
        <ele>139.0</ele>
        <time>2018-09-15T11:46:03Z</time>
      </trkpt>
      <trkpt lat="43.3917400" lon="-5.9744760">
        <ele>136.9</ele>
        <time>2018-09-15T11:46:04Z</time>
      </trkpt>
      <trkpt lat="43.3917270" lon="-5.9746340">
        <ele>134.9</ele>
        <time>2018-09-15T11:46:05Z</time>
      </trkpt>
      <trkpt lat="43.3917100" lon="-5.9747890">
        <ele>132.9</ele>
        <time>2018-09-15T11:46:06Z</time>
      </trkpt>
      <trkpt lat="43.3916980" lon="-5.9749360">
        <ele>131.2</ele>
        <time>2018-09-15T11:46:07Z</time>
      </trkpt>
      <trkpt lat="43.3916760" lon="-5.9750890">
        <ele>129.4</ele>
        <time>2018-09-15T11:46:08Z</time>
      </trkpt>
      <trkpt lat="43.3916610" lon="-5.9752350">
        <ele>127.7</ele>
        <time>2018-09-15T11:46:09Z</time>
      </trkpt>
      <trkpt lat="43.3916420" lon="-5.9753800">
        <ele>126.1</ele>
        <time>2018-09-15T11:46:10Z</time>
      </trkpt>
      <trkpt lat="43.3916170" lon="-5.9755260">
        <ele>124.5</ele>
        <time>2018-09-15T11:46:11Z</time>
      </trkpt>
      <trkpt lat="43.3916000" lon="-5.9756690">
        <ele>122.9</ele>
        <time>2018-09-15T11:46:12Z</time>
      </trkpt>
      <trkpt lat="43.3915820" lon="-5.9758140">
        <ele>121.4</ele>
        <time>2018-09-15T11:46:13Z</time>
      </trkpt>
      <trkpt lat="43.3915690" lon="-5.9759570">
        <ele>119.9</ele>
        <time>2018-09-15T11:46:14Z</time>
      </trkpt>
      <trkpt lat="43.3915510" lon="-5.9761050">
        <ele>118.4</ele>
        <time>2018-09-15T11:46:15Z</time>
      </trkpt>
      <trkpt lat="43.3915350" lon="-5.9762510">
        <ele>117.0</ele>
        <time>2018-09-15T11:46:16Z</time>
      </trkpt>
      <trkpt lat="43.3915140" lon="-5.9764020">
        <ele>115.4</ele>
        <time>2018-09-15T11:46:17Z</time>
      </trkpt>
      <trkpt lat="43.3915010" lon="-5.9765480">
        <ele>114.0</ele>
        <time>2018-09-15T11:46:18Z</time>
      </trkpt>
      <trkpt lat="43.3914900" lon="-5.9766880">
        <ele>112.6</ele>
        <time>2018-09-15T11:46:19Z</time>
      </trkpt>
      <trkpt lat="43.3914770" lon="-5.9768430">
        <ele>111.1</ele>
        <time>2018-09-15T11:46:20Z</time>
      </trkpt>
      <trkpt lat="43.3914600" lon="-5.9770030">
        <ele>109.4</ele>
        <time>2018-09-15T11:46:21Z</time>
      </trkpt>
      <trkpt lat="43.3914360" lon="-5.9771730">
        <ele>107.5</ele>
        <time>2018-09-15T11:46:22Z</time>
      </trkpt>
      <trkpt lat="43.3914180" lon="-5.9773510">
        <ele>105.5</ele>
        <time>2018-09-15T11:46:23Z</time>
      </trkpt>
      <trkpt lat="43.3914040" lon="-5.9775100">
        <ele>103.5</ele>
        <time>2018-09-15T11:46:24Z</time>
      </trkpt>
      <trkpt lat="43.3913850" lon="-5.9776630">
        <ele>101.6</ele>
        <time>2018-09-15T11:46:25Z</time>
      </trkpt>
      <trkpt lat="43.3913630" lon="-5.9778060">
        <ele>99.7</ele>
        <time>2018-09-15T11:46:26Z</time>
      </trkpt>
      <trkpt lat="43.3913310" lon="-5.9780780">
        <ele>99.7</ele>
        <time>2018-09-15T11:46:27Z</time>
      </trkpt>
      <trkpt lat="43.3913170" lon="-5.9782090">
        <ele>101.1</ele>
        <time>2018-09-15T11:46:28Z</time>
      </trkpt>
      <trkpt lat="43.3913150" lon="-5.9782770">
        <ele>101.7</ele>
        <time>2018-09-15T11:46:29Z</time>
      </trkpt>
      <trkpt lat="43.3913130" lon="-5.9783450">
        <ele>102.2</ele>
        <time>2018-09-15T11:46:30Z</time>
      </trkpt>
      <trkpt lat="43.3913700" lon="-5.9785900">
        <ele>103.6</ele>
        <time>2018-09-15T11:46:31Z</time>
      </trkpt>
      <trkpt lat="43.3914340" lon="-5.9787060">
        <ele>104.3</ele>
        <time>2018-09-15T11:46:32Z</time>
      </trkpt>
      <trkpt lat="43.3915170" lon="-5.9787920">
        <ele>105.1</ele>
        <time>2018-09-15T11:46:33Z</time>
      </trkpt>
      <trkpt lat="43.3915580" lon="-5.9788480">
        <ele>105.5</ele>
        <time>2018-09-15T11:46:34Z</time>
      </trkpt>
      <trkpt lat="43.3915990" lon="-5.9789040">
        <ele>106.0</ele>
        <time>2018-09-15T11:46:35Z</time>
      </trkpt>
      <trkpt lat="43.3917150" lon="-5.9790830">
        <ele>107.4</ele>
        <time>2018-09-15T11:46:36Z</time>
      </trkpt>
      <trkpt lat="43.3917490" lon="-5.9791510">
        <ele>108.0</ele>
        <time>2018-09-15T11:46:37Z</time>
      </trkpt>
      <trkpt lat="43.3918170" lon="-5.9792870">
        <ele>109.2</ele>
        <time>2018-09-15T11:46:38Z</time>
      </trkpt>
      <trkpt lat="43.3918730" lon="-5.9794340">
        <ele>110.5</ele>
        <time>2018-09-15T11:46:39Z</time>
      </trkpt>
      <trkpt lat="43.3919630" lon="-5.9797070">
        <ele>113.2</ele>
        <time>2018-09-15T11:46:40Z</time>
      </trkpt>
      <trkpt lat="43.3920010" lon="-5.9798420">
        <ele>114.7</ele>
        <time>2018-09-15T11:46:41Z</time>
      </trkpt>
      <trkpt lat="43.3920290" lon="-5.9799690">
        <ele>116.2</ele>
        <time>2018-09-15T11:46:42Z</time>
      </trkpt>
      <trkpt lat="43.3920640" lon="-5.9800790">
        <ele>117.3</ele>
        <time>2018-09-15T11:46:43Z</time>
      </trkpt>
      <trkpt lat="43.3921140" lon="-5.9801700">
        <ele>118.0</ele>
        <time>2018-09-15T11:46:44Z</time>
      </trkpt>
      <trkpt lat="43.3921700" lon="-5.9802340">
        <ele>118.1</ele>
        <time>2018-09-15T11:46:45Z</time>
      </trkpt>
      <trkpt lat="43.3922290" lon="-5.9803030">
        <ele>118.0</ele>
        <time>2018-09-15T11:46:46Z</time>
      </trkpt>
      <trkpt lat="43.3922790" lon="-5.9803770">
        <ele>117.8</ele>
        <time>2018-09-15T11:46:47Z</time>
      </trkpt>
      <trkpt lat="43.3923300" lon="-5.9804570">
        <ele>117.5</ele>
        <time>2018-09-15T11:46:48Z</time>
      </trkpt>
      <trkpt lat="43.3923840" lon="-5.9805460">
        <ele>117.2</ele>
        <time>2018-09-15T11:46:49Z</time>
      </trkpt>
      <trkpt lat="43.3924580" lon="-5.9806290">
        <ele>116.5</ele>
        <time>2018-09-15T11:46:50Z</time>
      </trkpt>
      <trkpt lat="43.3925530" lon="-5.9806780">
        <ele>115.5</ele>
        <time>2018-09-15T11:46:51Z</time>
      </trkpt>
      <trkpt lat="43.3926560" lon="-5.9807100">
        <ele>114.4</ele>
        <time>2018-09-15T11:46:52Z</time>
      </trkpt>
      <trkpt lat="43.3927550" lon="-5.9807330">
        <ele>113.4</ele>
        <time>2018-09-15T11:46:53Z</time>
      </trkpt>
      <trkpt lat="43.3928590" lon="-5.9807470">
        <ele>112.2</ele>
        <time>2018-09-15T11:46:54Z</time>
      </trkpt>
      <trkpt lat="43.3929580" lon="-5.9807670">
        <ele>111.2</ele>
        <time>2018-09-15T11:46:55Z</time>
      </trkpt>
      <trkpt lat="43.3930360" lon="-5.9808320">
        <ele>110.2</ele>
        <time>2018-09-15T11:46:56Z</time>
      </trkpt>
      <trkpt lat="43.3931010" lon="-5.9809260">
        <ele>109.2</ele>
        <time>2018-09-15T11:46:57Z</time>
      </trkpt>
      <trkpt lat="43.3931520" lon="-5.9810310">
        <ele>108.3</ele>
        <time>2018-09-15T11:46:58Z</time>
      </trkpt>
      <trkpt lat="43.3931780" lon="-5.9811210">
        <ele>107.5</ele>
        <time>2018-09-15T11:46:59Z</time>
      </trkpt>
      <trkpt lat="43.3932040" lon="-5.9812120">
        <ele>106.8</ele>
        <time>2018-09-15T11:47:00Z</time>
      </trkpt>
      <trkpt lat="43.3932560" lon="-5.9813940">
        <ele>105.0</ele>
        <time>2018-09-15T11:47:01Z</time>
      </trkpt>
      <trkpt lat="43.3932920" lon="-5.9815180">
        <ele>103.6</ele>
        <time>2018-09-15T11:47:02Z</time>
      </trkpt>
      <trkpt lat="43.3933440" lon="-5.9816170">
        <ele>102.2</ele>
        <time>2018-09-15T11:47:03Z</time>
      </trkpt>
      <trkpt lat="43.3934070" lon="-5.9817070">
        <ele>100.5</ele>
        <time>2018-09-15T11:47:04Z</time>
      </trkpt>
      <trkpt lat="43.3934690" lon="-5.9817850">
        <ele>98.5</ele>
        <time>2018-09-15T11:47:05Z</time>
      </trkpt>
      <trkpt lat="43.3935380" lon="-5.9818150">
        <ele>96.5</ele>
        <time>2018-09-15T11:47:06Z</time>
      </trkpt>
      <trkpt lat="43.3936060" lon="-5.9818100">
        <ele>94.5</ele>
        <time>2018-09-15T11:47:07Z</time>
      </trkpt>
      <trkpt lat="43.3936800" lon="-5.9817690">
        <ele>92.6</ele>
        <time>2018-09-15T11:47:08Z</time>
      </trkpt>
      <trkpt lat="43.3937730" lon="-5.9817090">
        <ele>90.4</ele>
        <time>2018-09-15T11:47:09Z</time>
      </trkpt>
      <trkpt lat="43.3938600" lon="-5.9816650">
        <ele>88.8</ele>
        <time>2018-09-15T11:47:10Z</time>
      </trkpt>
      <trkpt lat="43.3939510" lon="-5.9816080">
        <ele>87.5</ele>
        <time>2018-09-15T11:47:11Z</time>
      </trkpt>
      <trkpt lat="43.3940500" lon="-5.9815520">
        <ele>86.8</ele>
        <time>2018-09-15T11:47:12Z</time>
      </trkpt>
      <trkpt lat="43.3941520" lon="-5.9814820">
        <ele>86.0</ele>
        <time>2018-09-15T11:47:13Z</time>
      </trkpt>
      <trkpt lat="43.3942620" lon="-5.9814110">
        <ele>85.0</ele>
        <time>2018-09-15T11:47:14Z</time>
      </trkpt>
      <trkpt lat="43.3943740" lon="-5.9813410">
        <ele>83.8</ele>
        <time>2018-09-15T11:47:15Z</time>
      </trkpt>
      <trkpt lat="43.3944870" lon="-5.9812680">
        <ele>82.5</ele>
        <time>2018-09-15T11:47:16Z</time>
      </trkpt>
      <trkpt lat="43.3946070" lon="-5.9812050">
        <ele>81.3</ele>
        <time>2018-09-15T11:47:17Z</time>
      </trkpt>
      <trkpt lat="43.3947330" lon="-5.9811420">
        <ele>80.2</ele>
        <time>2018-09-15T11:47:18Z</time>
      </trkpt>
      <trkpt lat="43.3948650" lon="-5.9810840">
        <ele>79.1</ele>
        <time>2018-09-15T11:47:19Z</time>
      </trkpt>
      <trkpt lat="43.3949920" lon="-5.9810460">
        <ele>78.1</ele>
        <time>2018-09-15T11:47:20Z</time>
      </trkpt>
      <trkpt lat="43.3951230" lon="-5.9810230">
        <ele>78.0</ele>
        <time>2018-09-15T11:47:21Z</time>
      </trkpt>
      <trkpt lat="43.3952460" lon="-5.9810060">
        <ele>78.5</ele>
        <time>2018-09-15T11:47:22Z</time>
      </trkpt>
      <trkpt lat="43.3953670" lon="-5.9809940">
        <ele>80.8</ele>
        <time>2018-09-15T11:47:23Z</time>
      </trkpt>
      <trkpt lat="43.3954710" lon="-5.9809780">
        <ele>82.7</ele>
        <time>2018-09-15T11:47:24Z</time>
      </trkpt>
      <trkpt lat="43.3955610" lon="-5.9809580">
        <ele>84.1</ele>
        <time>2018-09-15T11:47:25Z</time>
      </trkpt>
      <trkpt lat="43.3956410" lon="-5.9809360">
        <ele>85.4</ele>
        <time>2018-09-15T11:47:26Z</time>
      </trkpt>
      <trkpt lat="43.3957120" lon="-5.9809180">
        <ele>86.1</ele>
        <time>2018-09-15T11:47:27Z</time>
      </trkpt>
      <trkpt lat="43.3957770" lon="-5.9808970">
        <ele>86.7</ele>
        <time>2018-09-15T11:47:28Z</time>
      </trkpt>
      <trkpt lat="43.3958330" lon="-5.9808850">
        <ele>87.2</ele>
        <time>2018-09-15T11:47:29Z</time>
      </trkpt>
      <trkpt lat="43.3958910" lon="-5.9808920">
        <ele>87.7</ele>
        <time>2018-09-15T11:47:30Z</time>
      </trkpt>
      <trkpt lat="43.3959300" lon="-5.9808870">
        <ele>88.1</ele>
        <time>2018-09-15T11:47:31Z</time>
      </trkpt>
      <trkpt lat="43.3959500" lon="-5.9808950">
        <ele>88.3</ele>
        <time>2018-09-15T11:47:32Z</time>
      </trkpt>
      <trkpt lat="43.3959700" lon="-5.9809050">
        <ele>88.5</ele>
        <time>2018-09-15T11:47:33Z</time>
      </trkpt>
      <trkpt lat="43.3959920" lon="-5.9809200">
        <ele>88.7</ele>
        <time>2018-09-15T11:47:34Z</time>
      </trkpt>
      <trkpt lat="43.3960120" lon="-5.9809340">
        <ele>88.9</ele>
        <time>2018-09-15T11:47:35Z</time>
      </trkpt>
      <trkpt lat="43.3960320" lon="-5.9809550">
        <ele>89.1</ele>
        <time>2018-09-15T11:47:36Z</time>
      </trkpt>
      <trkpt lat="43.3960440" lon="-5.9809780">
        <ele>89.3</ele>
        <time>2018-09-15T11:47:37Z</time>
      </trkpt>
      <trkpt lat="43.3960530" lon="-5.9810030">
        <ele>89.5</ele>
        <time>2018-09-15T11:47:38Z</time>
      </trkpt>
      <trkpt lat="43.3960590" lon="-5.9810310">
        <ele>89.6</ele>
        <time>2018-09-15T11:47:39Z</time>
      </trkpt>
      <trkpt lat="43.3960600" lon="-5.9810690">
        <ele>89.9</ele>
        <time>2018-09-15T11:47:40Z</time>
      </trkpt>
      <trkpt lat="43.3960520" lon="-5.9811030">
        <ele>90.1</ele>
        <time>2018-09-15T11:47:41Z</time>
      </trkpt>
      <trkpt lat="43.3960440" lon="-5.9811310">
        <ele>90.4</ele>
        <time>2018-09-15T11:47:42Z</time>
      </trkpt>
      <trkpt lat="43.3960310" lon="-5.9811620">
        <ele>90.7</ele>
        <time>2018-09-15T11:47:43Z</time>
      </trkpt>
      <trkpt lat="43.3960210" lon="-5.9811850">
        <ele>90.9</ele>
        <time>2018-09-15T11:47:44Z</time>
      </trkpt>
      <trkpt lat="43.3960040" lon="-5.9812090">
        <ele>91.3</ele>
        <time>2018-09-15T11:47:45Z</time>
      </trkpt>
      <trkpt lat="43.3959910" lon="-5.9812260">
        <ele>91.5</ele>
        <time>2018-09-15T11:47:46Z</time>
      </trkpt>
      <trkpt lat="43.3959770" lon="-5.9812450">
        <ele>91.7</ele>
        <time>2018-09-15T11:47:47Z</time>
      </trkpt>
      <trkpt lat="43.3959590" lon="-5.9812690">
        <ele>92.0</ele>
        <time>2018-09-15T11:47:48Z</time>
      </trkpt>
      <trkpt lat="43.3959440" lon="-5.9812840">
        <ele>92.1</ele>
        <time>2018-09-15T11:47:49Z</time>
      </trkpt>
      <trkpt lat="43.3959250" lon="-5.9813030">
        <ele>92.3</ele>
        <time>2018-09-15T11:47:50Z</time>
      </trkpt>
      <trkpt lat="43.3959070" lon="-5.9813220">
        <ele>92.6</ele>
        <time>2018-09-15T11:47:51Z</time>
      </trkpt>
      <trkpt lat="43.3958890" lon="-5.9813380">
        <ele>92.8</ele>
        <time>2018-09-15T11:47:52Z</time>
      </trkpt>
      <trkpt lat="43.3958710" lon="-5.9813550">
        <ele>93.1</ele>
        <time>2018-09-15T11:47:53Z</time>
      </trkpt>
      <trkpt lat="43.3958530" lon="-5.9813690">
        <ele>93.4</ele>
        <time>2018-09-15T11:47:54Z</time>
      </trkpt>
      <trkpt lat="43.3958360" lon="-5.9813830">
        <ele>93.5</ele>
        <time>2018-09-15T11:47:55Z</time>
      </trkpt>
      <trkpt lat="43.3958230" lon="-5.9813940">
        <ele>93.6</ele>
        <time>2018-09-15T11:47:56Z</time>
      </trkpt>
      <trkpt lat="43.3958090" lon="-5.9814060">
        <ele>93.8</ele>
        <time>2018-09-15T11:47:57Z</time>
      </trkpt>
      <trkpt lat="43.3957930" lon="-5.9814170">
        <ele>93.9</ele>
        <time>2018-09-15T11:47:58Z</time>
      </trkpt>
      <trkpt lat="43.3957740" lon="-5.9814320">
        <ele>94.1</ele>
        <time>2018-09-15T11:47:59Z</time>
      </trkpt>
      <trkpt lat="43.3957600" lon="-5.9814420">
        <ele>94.3</ele>
        <time>2018-09-15T11:48:00Z</time>
      </trkpt>
      <trkpt lat="43.3957450" lon="-5.9814540">
        <ele>94.5</ele>
        <time>2018-09-15T11:48:01Z</time>
      </trkpt>
      <trkpt lat="43.3957300" lon="-5.9814660">
        <ele>94.7</ele>
        <time>2018-09-15T11:48:02Z</time>
      </trkpt>
      <trkpt lat="43.3957110" lon="-5.9814820">
        <ele>95.0</ele>
        <time>2018-09-15T11:48:03Z</time>
      </trkpt>
      <trkpt lat="43.3956970" lon="-5.9814930">
        <ele>95.2</ele>
        <time>2018-09-15T11:48:04Z</time>
      </trkpt>
      <trkpt lat="43.3956810" lon="-5.9815040">
        <ele>95.4</ele>
        <time>2018-09-15T11:48:05Z</time>
      </trkpt>
      <trkpt lat="43.3956620" lon="-5.9815200">
        <ele>95.6</ele>
        <time>2018-09-15T11:48:06Z</time>
      </trkpt>
      <trkpt lat="43.3956500" lon="-5.9815320">
        <ele>95.8</ele>
        <time>2018-09-15T11:48:07Z</time>
      </trkpt>
      <trkpt lat="43.3956330" lon="-5.9815500">
        <ele>96.0</ele>
        <time>2018-09-15T11:48:08Z</time>
      </trkpt>
      <trkpt lat="43.3956180" lon="-5.9815690">
        <ele>96.3</ele>
        <time>2018-09-15T11:48:09Z</time>
      </trkpt>
      <trkpt lat="43.3956080" lon="-5.9815820">
        <ele>96.5</ele>
        <time>2018-09-15T11:48:10Z</time>
      </trkpt>
      <trkpt lat="43.3955930" lon="-5.9816010">
        <ele>96.8</ele>
        <time>2018-09-15T11:48:11Z</time>
      </trkpt>
      <trkpt lat="43.3955790" lon="-5.9816200">
        <ele>97.0</ele>
        <time>2018-09-15T11:48:12Z</time>
      </trkpt>
      <trkpt lat="43.3955660" lon="-5.9816390">
        <ele>97.2</ele>
        <time>2018-09-15T11:48:13Z</time>
      </trkpt>
      <trkpt lat="43.3955560" lon="-5.9816520">
        <ele>97.3</ele>
        <time>2018-09-15T11:48:14Z</time>
      </trkpt>
      <trkpt lat="43.3955420" lon="-5.9816800">
        <ele>97.5</ele>
        <time>2018-09-15T11:48:15Z</time>
      </trkpt>
      <trkpt lat="43.3955350" lon="-5.9817030">
        <ele>97.7</ele>
        <time>2018-09-15T11:48:16Z</time>
      </trkpt>
      <trkpt lat="43.3955290" lon="-5.9817190">
        <ele>97.9</ele>
        <time>2018-09-15T11:48:17Z</time>
      </trkpt>
      <trkpt lat="43.3955240" lon="-5.9817390">
        <ele>98.1</ele>
        <time>2018-09-15T11:48:18Z</time>
      </trkpt>
      <trkpt lat="43.3955150" lon="-5.9817660">
        <ele>98.6</ele>
        <time>2018-09-15T11:48:19Z</time>
      </trkpt>
      <trkpt lat="43.3955090" lon="-5.9817860">
        <ele>98.8</ele>
        <time>2018-09-15T11:48:20Z</time>
      </trkpt>
      <trkpt lat="43.3955030" lon="-5.9818150">
        <ele>99.1</ele>
        <time>2018-09-15T11:48:21Z</time>
      </trkpt>
      <trkpt lat="43.3954980" lon="-5.9818350">
        <ele>99.3</ele>
        <time>2018-09-15T11:48:22Z</time>
      </trkpt>
      <trkpt lat="43.3954940" lon="-5.9818640">
        <ele>99.5</ele>
        <time>2018-09-15T11:48:23Z</time>
      </trkpt>
      <trkpt lat="43.3954890" lon="-5.9818910">
        <ele>99.7</ele>
        <time>2018-09-15T11:48:24Z</time>
      </trkpt>
      <trkpt lat="43.3954880" lon="-5.9819120">
        <ele>100.1</ele>
        <time>2018-09-15T11:48:25Z</time>
      </trkpt>
      <trkpt lat="43.3954850" lon="-5.9819340">
        <ele>100.4</ele>
        <time>2018-09-15T11:48:26Z</time>
      </trkpt>
      <trkpt lat="43.3954830" lon="-5.9819650">
        <ele>100.9</ele>
        <time>2018-09-15T11:48:27Z</time>
      </trkpt>
      <trkpt lat="43.3954810" lon="-5.9819870">
        <ele>101.0</ele>
        <time>2018-09-15T11:48:28Z</time>
      </trkpt>
      <trkpt lat="43.3954760" lon="-5.9820180">
        <ele>101.2</ele>
        <time>2018-09-15T11:48:29Z</time>
      </trkpt>
      <trkpt lat="43.3954750" lon="-5.9820480">
        <ele>101.4</ele>
        <time>2018-09-15T11:48:30Z</time>
      </trkpt>
      <trkpt lat="43.3954730" lon="-5.9820710">
        <ele>101.5</ele>
        <time>2018-09-15T11:48:31Z</time>
      </trkpt>
      <trkpt lat="43.3954720" lon="-5.9820960">
        <ele>101.7</ele>
        <time>2018-09-15T11:48:32Z</time>
      </trkpt>
      <trkpt lat="43.3954730" lon="-5.9821290">
        <ele>102.2</ele>
        <time>2018-09-15T11:48:33Z</time>
      </trkpt>
      <trkpt lat="43.3954730" lon="-5.9821540">
        <ele>102.5</ele>
        <time>2018-09-15T11:48:34Z</time>
      </trkpt>
      <trkpt lat="43.3954720" lon="-5.9821870">
        <ele>102.8</ele>
        <time>2018-09-15T11:48:35Z</time>
      </trkpt>
      <trkpt lat="43.3954730" lon="-5.9822180">
        <ele>103.0</ele>
        <time>2018-09-15T11:48:36Z</time>
      </trkpt>
      <trkpt lat="43.3954740" lon="-5.9822420">
        <ele>103.1</ele>
        <time>2018-09-15T11:48:37Z</time>
      </trkpt>
      <trkpt lat="43.3954750" lon="-5.9822610">
        <ele>103.3</ele>
        <time>2018-09-15T11:48:38Z</time>
      </trkpt>
      <trkpt lat="43.3954770" lon="-5.9822970">
        <ele>103.5</ele>
        <time>2018-09-15T11:48:39Z</time>
      </trkpt>
      <trkpt lat="43.3954790" lon="-5.9823290">
        <ele>103.6</ele>
        <time>2018-09-15T11:48:40Z</time>
      </trkpt>
      <trkpt lat="43.3954790" lon="-5.9823520">
        <ele>103.9</ele>
        <time>2018-09-15T11:48:41Z</time>
      </trkpt>
      <trkpt lat="43.3954800" lon="-5.9823820">
        <ele>104.3</ele>
        <time>2018-09-15T11:48:42Z</time>
      </trkpt>
      <trkpt lat="43.3954820" lon="-5.9824030">
        <ele>104.5</ele>
        <time>2018-09-15T11:48:43Z</time>
      </trkpt>
      <trkpt lat="43.3954830" lon="-5.9824240">
        <ele>104.7</ele>
        <time>2018-09-15T11:48:44Z</time>
      </trkpt>
      <trkpt lat="43.3954860" lon="-5.9824530">
        <ele>104.8</ele>
        <time>2018-09-15T11:48:45Z</time>
      </trkpt>
      <trkpt lat="43.3954890" lon="-5.9824800">
        <ele>105.0</ele>
        <time>2018-09-15T11:48:46Z</time>
      </trkpt>
      <trkpt lat="43.3954930" lon="-5.9824990">
        <ele>105.1</ele>
        <time>2018-09-15T11:48:47Z</time>
      </trkpt>
      <trkpt lat="43.3954990" lon="-5.9825260">
        <ele>105.3</ele>
        <time>2018-09-15T11:48:48Z</time>
      </trkpt>
      <trkpt lat="43.3955020" lon="-5.9825460">
        <ele>105.4</ele>
        <time>2018-09-15T11:48:49Z</time>
      </trkpt>
      <trkpt lat="43.3955060" lon="-5.9825680">
        <ele>105.5</ele>
        <time>2018-09-15T11:48:50Z</time>
      </trkpt>
      <trkpt lat="43.3955110" lon="-5.9825880">
        <ele>105.7</ele>
        <time>2018-09-15T11:48:51Z</time>
      </trkpt>
      <trkpt lat="43.3955160" lon="-5.9826140">
        <ele>106.0</ele>
        <time>2018-09-15T11:48:52Z</time>
      </trkpt>
      <trkpt lat="43.3955220" lon="-5.9826330">
        <ele>106.3</ele>
        <time>2018-09-15T11:48:53Z</time>
      </trkpt>
      <trkpt lat="43.3955290" lon="-5.9826610">
        <ele>106.6</ele>
        <time>2018-09-15T11:48:54Z</time>
      </trkpt>
      <trkpt lat="43.3955350" lon="-5.9826810">
        <ele>106.7</ele>
        <time>2018-09-15T11:48:55Z</time>
      </trkpt>
      <trkpt lat="43.3955410" lon="-5.9827030">
        <ele>106.9</ele>
        <time>2018-09-15T11:48:56Z</time>
      </trkpt>
      <trkpt lat="43.3955480" lon="-5.9827260">
        <ele>107.0</ele>
        <time>2018-09-15T11:48:57Z</time>
      </trkpt>
      <trkpt lat="43.3955580" lon="-5.9827560">
        <ele>107.1</ele>
        <time>2018-09-15T11:48:58Z</time>
      </trkpt>
      <trkpt lat="43.3955660" lon="-5.9827790">
        <ele>107.2</ele>
        <time>2018-09-15T11:48:59Z</time>
      </trkpt>
      <trkpt lat="43.3955750" lon="-5.9828090">
        <ele>107.5</ele>
        <time>2018-09-15T11:49:00Z</time>
      </trkpt>
      <trkpt lat="43.3955810" lon="-5.9828320">
        <ele>107.8</ele>
        <time>2018-09-15T11:49:01Z</time>
      </trkpt>
      <trkpt lat="43.3955880" lon="-5.9828540">
        <ele>108.1</ele>
        <time>2018-09-15T11:49:02Z</time>
      </trkpt>
      <trkpt lat="43.3955980" lon="-5.9828830">
        <ele>108.4</ele>
        <time>2018-09-15T11:49:03Z</time>
      </trkpt>
      <trkpt lat="43.3956040" lon="-5.9829050">
        <ele>108.5</ele>
        <time>2018-09-15T11:49:04Z</time>
      </trkpt>
      <trkpt lat="43.3956100" lon="-5.9829270">
        <ele>108.6</ele>
        <time>2018-09-15T11:49:05Z</time>
      </trkpt>
      <trkpt lat="43.3956170" lon="-5.9829520">
        <ele>108.7</ele>
        <time>2018-09-15T11:49:06Z</time>
      </trkpt>
      <trkpt lat="43.3956250" lon="-5.9829820">
        <ele>109.0</ele>
        <time>2018-09-15T11:49:07Z</time>
      </trkpt>
      <trkpt lat="43.3956340" lon="-5.9830100">
        <ele>109.1</ele>
        <time>2018-09-15T11:49:08Z</time>
      </trkpt>
      <trkpt lat="43.3956390" lon="-5.9830300">
        <ele>109.2</ele>
        <time>2018-09-15T11:49:09Z</time>
      </trkpt>
      <trkpt lat="43.3956450" lon="-5.9830570">
        <ele>109.3</ele>
        <time>2018-09-15T11:49:10Z</time>
      </trkpt>
      <trkpt lat="43.3956490" lon="-5.9830750">
        <ele>109.4</ele>
        <time>2018-09-15T11:49:11Z</time>
      </trkpt>
      <trkpt lat="43.3956540" lon="-5.9831020">
        <ele>109.7</ele>
        <time>2018-09-15T11:49:12Z</time>
      </trkpt>
      <trkpt lat="43.3956580" lon="-5.9831210">
        <ele>109.9</ele>
        <time>2018-09-15T11:49:13Z</time>
      </trkpt>
      <trkpt lat="43.3956650" lon="-5.9831480">
        <ele>110.2</ele>
        <time>2018-09-15T11:49:14Z</time>
      </trkpt>
      <trkpt lat="43.3956690" lon="-5.9831640">
        <ele>110.3</ele>
        <time>2018-09-15T11:49:15Z</time>
      </trkpt>
      <trkpt lat="43.3956760" lon="-5.9831910">
        <ele>110.5</ele>
        <time>2018-09-15T11:49:16Z</time>
      </trkpt>
      <trkpt lat="43.3956820" lon="-5.9832130">
        <ele>110.6</ele>
        <time>2018-09-15T11:49:17Z</time>
      </trkpt>
      <trkpt lat="43.3956900" lon="-5.9832370">
        <ele>110.7</ele>
        <time>2018-09-15T11:49:18Z</time>
      </trkpt>
      <trkpt lat="43.3956980" lon="-5.9832690">
        <ele>110.9</ele>
        <time>2018-09-15T11:49:19Z</time>
      </trkpt>
      <trkpt lat="43.3957030" lon="-5.9832950">
        <ele>111.0</ele>
        <time>2018-09-15T11:49:20Z</time>
      </trkpt>
      <trkpt lat="43.3957100" lon="-5.9833300">
        <ele>111.3</ele>
        <time>2018-09-15T11:49:21Z</time>
      </trkpt>
      <trkpt lat="43.3957150" lon="-5.9833640">
        <ele>111.7</ele>
        <time>2018-09-15T11:49:22Z</time>
      </trkpt>
      <trkpt lat="43.3957210" lon="-5.9833960">
        <ele>112.0</ele>
        <time>2018-09-15T11:49:23Z</time>
      </trkpt>
      <trkpt lat="43.3957250" lon="-5.9834200">
        <ele>112.1</ele>
        <time>2018-09-15T11:49:24Z</time>
      </trkpt>
      <trkpt lat="43.3957280" lon="-5.9834530">
        <ele>112.2</ele>
        <time>2018-09-15T11:49:25Z</time>
      </trkpt>
      <trkpt lat="43.3957320" lon="-5.9834850">
        <ele>112.3</ele>
        <time>2018-09-15T11:49:26Z</time>
      </trkpt>
      <trkpt lat="43.3957340" lon="-5.9835090">
        <ele>112.4</ele>
        <time>2018-09-15T11:49:27Z</time>
      </trkpt>
      <trkpt lat="43.3957370" lon="-5.9835350">
        <ele>112.5</ele>
        <time>2018-09-15T11:49:28Z</time>
      </trkpt>
      <trkpt lat="43.3957380" lon="-5.9835610">
        <ele>112.6</ele>
        <time>2018-09-15T11:49:29Z</time>
      </trkpt>
      <trkpt lat="43.3957410" lon="-5.9835880">
        <ele>112.8</ele>
        <time>2018-09-15T11:49:30Z</time>
      </trkpt>
      <trkpt lat="43.3957460" lon="-5.9836220">
        <ele>113.1</ele>
        <time>2018-09-15T11:49:31Z</time>
      </trkpt>
      <trkpt lat="43.3957470" lon="-5.9836550">
        <ele>113.4</ele>
        <time>2018-09-15T11:49:32Z</time>
      </trkpt>
      <trkpt lat="43.3957480" lon="-5.9836850">
        <ele>113.8</ele>
        <time>2018-09-15T11:49:33Z</time>
      </trkpt>
      <trkpt lat="43.3957500" lon="-5.9837080">
        <ele>114.0</ele>
        <time>2018-09-15T11:49:34Z</time>
      </trkpt>
      <trkpt lat="43.3957520" lon="-5.9837320">
        <ele>114.2</ele>
        <time>2018-09-15T11:49:35Z</time>
      </trkpt>
      <trkpt lat="43.3957530" lon="-5.9837580">
        <ele>114.4</ele>
        <time>2018-09-15T11:49:36Z</time>
      </trkpt>
      <trkpt lat="43.3957540" lon="-5.9837900">
        <ele>114.5</ele>
        <time>2018-09-15T11:49:37Z</time>
      </trkpt>
      <trkpt lat="43.3957550" lon="-5.9838140">
        <ele>114.6</ele>
        <time>2018-09-15T11:49:38Z</time>
      </trkpt>
      <trkpt lat="43.3957560" lon="-5.9838460">
        <ele>114.8</ele>
        <time>2018-09-15T11:49:39Z</time>
      </trkpt>
      <trkpt lat="43.3957560" lon="-5.9838750">
        <ele>114.9</ele>
        <time>2018-09-15T11:49:40Z</time>
      </trkpt>
      <trkpt lat="43.3957570" lon="-5.9838970">
        <ele>115.0</ele>
        <time>2018-09-15T11:49:41Z</time>
      </trkpt>
      <trkpt lat="43.3957570" lon="-5.9839280">
        <ele>115.2</ele>
        <time>2018-09-15T11:49:42Z</time>
      </trkpt>
      <trkpt lat="43.3957560" lon="-5.9839510">
        <ele>115.5</ele>
        <time>2018-09-15T11:49:43Z</time>
      </trkpt>
      <trkpt lat="43.3957540" lon="-5.9839740">
        <ele>115.7</ele>
        <time>2018-09-15T11:49:44Z</time>
      </trkpt>
      <trkpt lat="43.3957540" lon="-5.9839940">
        <ele>115.8</ele>
        <time>2018-09-15T11:49:45Z</time>
      </trkpt>
      <trkpt lat="43.3957530" lon="-5.9840160">
        <ele>115.9</ele>
        <time>2018-09-15T11:49:46Z</time>
      </trkpt>
      <trkpt lat="43.3957540" lon="-5.9840540">
        <ele>116.1</ele>
        <time>2018-09-15T11:49:47Z</time>
      </trkpt>
      <trkpt lat="43.3957540" lon="-5.9840810">
        <ele>116.2</ele>
        <time>2018-09-15T11:49:48Z</time>
      </trkpt>
      <trkpt lat="43.3957550" lon="-5.9841160">
        <ele>116.3</ele>
        <time>2018-09-15T11:49:49Z</time>
      </trkpt>
      <trkpt lat="43.3957540" lon="-5.9841490">
        <ele>116.5</ele>
        <time>2018-09-15T11:49:50Z</time>
      </trkpt>
      <trkpt lat="43.3957540" lon="-5.9841690">
        <ele>116.7</ele>
        <time>2018-09-15T11:49:51Z</time>
      </trkpt>
      <trkpt lat="43.3957540" lon="-5.9842000">
        <ele>117.0</ele>
        <time>2018-09-15T11:49:52Z</time>
      </trkpt>
      <trkpt lat="43.3957550" lon="-5.9842360">
        <ele>117.4</ele>
        <time>2018-09-15T11:49:53Z</time>
      </trkpt>
      <trkpt lat="43.3957550" lon="-5.9842640">
        <ele>117.7</ele>
        <time>2018-09-15T11:49:54Z</time>
      </trkpt>
      <trkpt lat="43.3957550" lon="-5.9842990">
        <ele>117.9</ele>
        <time>2018-09-15T11:49:55Z</time>
      </trkpt>
      <trkpt lat="43.3957560" lon="-5.9843260">
        <ele>118.1</ele>
        <time>2018-09-15T11:49:56Z</time>
      </trkpt>
      <trkpt lat="43.3957560" lon="-5.9843620">
        <ele>118.3</ele>
        <time>2018-09-15T11:49:57Z</time>
      </trkpt>
      <trkpt lat="43.3957560" lon="-5.9843960">
        <ele>118.4</ele>
        <time>2018-09-15T11:49:58Z</time>
      </trkpt>
      <trkpt lat="43.3957560" lon="-5.9844240">
        <ele>118.5</ele>
        <time>2018-09-15T11:49:59Z</time>
      </trkpt>
      <trkpt lat="43.3957560" lon="-5.9844590">
        <ele>118.6</ele>
        <time>2018-09-15T11:50:00Z</time>
      </trkpt>
      <trkpt lat="43.3957540" lon="-5.9844940">
        <ele>118.8</ele>
        <time>2018-09-15T11:50:01Z</time>
      </trkpt>
      <trkpt lat="43.3957530" lon="-5.9845210">
        <ele>118.9</ele>
        <time>2018-09-15T11:50:02Z</time>
      </trkpt>
      <trkpt lat="43.3957520" lon="-5.9845570">
        <ele>119.2</ele>
        <time>2018-09-15T11:50:03Z</time>
      </trkpt>
      <trkpt lat="43.3957500" lon="-5.9845920">
        <ele>119.6</ele>
        <time>2018-09-15T11:50:04Z</time>
      </trkpt>
      <trkpt lat="43.3957480" lon="-5.9846180">
        <ele>119.7</ele>
        <time>2018-09-15T11:50:05Z</time>
      </trkpt>
      <trkpt lat="43.3957460" lon="-5.9846470">
        <ele>119.8</ele>
        <time>2018-09-15T11:50:06Z</time>
      </trkpt>
      <trkpt lat="43.3957430" lon="-5.9846830">
        <ele>120.0</ele>
        <time>2018-09-15T11:50:07Z</time>
      </trkpt>
      <trkpt lat="43.3957400" lon="-5.9847120">
        <ele>120.1</ele>
        <time>2018-09-15T11:50:08Z</time>
      </trkpt>
      <trkpt lat="43.3957370" lon="-5.9847480">
        <ele>120.3</ele>
        <time>2018-09-15T11:50:09Z</time>
      </trkpt>
      <trkpt lat="43.3957340" lon="-5.9847760">
        <ele>120.4</ele>
        <time>2018-09-15T11:50:10Z</time>
      </trkpt>
      <trkpt lat="43.3957310" lon="-5.9848120">
        <ele>120.5</ele>
        <time>2018-09-15T11:50:11Z</time>
      </trkpt>
      <trkpt lat="43.3957270" lon="-5.9848390">
        <ele>120.7</ele>
        <time>2018-09-15T11:50:12Z</time>
      </trkpt>
      <trkpt lat="43.3957230" lon="-5.9848750">
        <ele>121.0</ele>
        <time>2018-09-15T11:50:13Z</time>
      </trkpt>
      <trkpt lat="43.3957200" lon="-5.9849090">
        <ele>121.3</ele>
        <time>2018-09-15T11:50:14Z</time>
      </trkpt>
      <trkpt lat="43.3957170" lon="-5.9849420">
        <ele>121.7</ele>
        <time>2018-09-15T11:50:15Z</time>
      </trkpt>
      <trkpt lat="43.3957120" lon="-5.9849750">
        <ele>121.8</ele>
        <time>2018-09-15T11:50:16Z</time>
      </trkpt>
      <trkpt lat="43.3957100" lon="-5.9850070">
        <ele>122.0</ele>
        <time>2018-09-15T11:50:17Z</time>
      </trkpt>
      <trkpt lat="43.3957060" lon="-5.9850380">
        <ele>122.1</ele>
        <time>2018-09-15T11:50:18Z</time>
      </trkpt>
      <trkpt lat="43.3957020" lon="-5.9850640">
        <ele>122.2</ele>
        <time>2018-09-15T11:50:19Z</time>
      </trkpt>
      <trkpt lat="43.3956960" lon="-5.9850920">
        <ele>122.3</ele>
        <time>2018-09-15T11:50:20Z</time>
      </trkpt>
      <trkpt lat="43.3956930" lon="-5.9851290">
        <ele>122.5</ele>
        <time>2018-09-15T11:50:21Z</time>
      </trkpt>
      <trkpt lat="43.3956870" lon="-5.9851620">
        <ele>122.8</ele>
        <time>2018-09-15T11:50:22Z</time>
      </trkpt>
      <trkpt lat="43.3956830" lon="-5.9851890">
        <ele>123.1</ele>
        <time>2018-09-15T11:50:23Z</time>
      </trkpt>
      <trkpt lat="43.3956780" lon="-5.9852230">
        <ele>123.4</ele>
        <time>2018-09-15T11:50:24Z</time>
      </trkpt>
      <trkpt lat="43.3956720" lon="-5.9852540">
        <ele>123.6</ele>
        <time>2018-09-15T11:50:25Z</time>
      </trkpt>
      <trkpt lat="43.3956670" lon="-5.9852790">
        <ele>123.7</ele>
        <time>2018-09-15T11:50:26Z</time>
      </trkpt>
      <trkpt lat="43.3956620" lon="-5.9853050">
        <ele>123.8</ele>
        <time>2018-09-15T11:50:27Z</time>
      </trkpt>
      <trkpt lat="43.3956560" lon="-5.9853280">
        <ele>123.9</ele>
        <time>2018-09-15T11:50:28Z</time>
      </trkpt>
      <trkpt lat="43.3956470" lon="-5.9853630">
        <ele>124.1</ele>
        <time>2018-09-15T11:50:29Z</time>
      </trkpt>
      <trkpt lat="43.3956380" lon="-5.9853980">
        <ele>124.4</ele>
        <time>2018-09-15T11:50:30Z</time>
      </trkpt>
      <trkpt lat="43.3956290" lon="-5.9854290">
        <ele>124.6</ele>
        <time>2018-09-15T11:50:31Z</time>
      </trkpt>
      <trkpt lat="43.3956200" lon="-5.9854670">
        <ele>125.0</ele>
        <time>2018-09-15T11:50:32Z</time>
      </trkpt>
      <trkpt lat="43.3956090" lon="-5.9855060">
        <ele>125.2</ele>
        <time>2018-09-15T11:50:33Z</time>
      </trkpt>
      <trkpt lat="43.3955990" lon="-5.9855390">
        <ele>125.3</ele>
        <time>2018-09-15T11:50:34Z</time>
      </trkpt>
      <trkpt lat="43.3955880" lon="-5.9855810">
        <ele>125.5</ele>
        <time>2018-09-15T11:50:35Z</time>
      </trkpt>
      <trkpt lat="43.3955780" lon="-5.9856160">
        <ele>125.5</ele>
        <time>2018-09-15T11:50:36Z</time>
      </trkpt>
      <trkpt lat="43.3955660" lon="-5.9856570">
        <ele>125.6</ele>
        <time>2018-09-15T11:50:37Z</time>
      </trkpt>
      <trkpt lat="43.3955530" lon="-5.9857010">
        <ele>125.6</ele>
        <time>2018-09-15T11:50:38Z</time>
      </trkpt>
      <trkpt lat="43.3955410" lon="-5.9857350">
        <ele>125.7</ele>
        <time>2018-09-15T11:50:39Z</time>
      </trkpt>
      <trkpt lat="43.3955280" lon="-5.9857760">
        <ele>125.8</ele>
        <time>2018-09-15T11:50:40Z</time>
      </trkpt>
      <trkpt lat="43.3955160" lon="-5.9858100">
        <ele>125.8</ele>
        <time>2018-09-15T11:50:41Z</time>
      </trkpt>
      <trkpt lat="43.3955030" lon="-5.9858510">
        <ele>125.9</ele>
        <time>2018-09-15T11:50:42Z</time>
      </trkpt>
      <trkpt lat="43.3954920" lon="-5.9858840">
        <ele>126.0</ele>
        <time>2018-09-15T11:50:43Z</time>
      </trkpt>
      <trkpt lat="43.3954790" lon="-5.9859250">
        <ele>126.1</ele>
        <time>2018-09-15T11:50:44Z</time>
      </trkpt>
      <trkpt lat="43.3954660" lon="-5.9859640">
        <ele>126.2</ele>
        <time>2018-09-15T11:50:45Z</time>
      </trkpt>
      <trkpt lat="43.3954560" lon="-5.9859950">
        <ele>126.3</ele>
        <time>2018-09-15T11:50:46Z</time>
      </trkpt>
      <trkpt lat="43.3954440" lon="-5.9860330">
        <ele>126.5</ele>
        <time>2018-09-15T11:50:47Z</time>
      </trkpt>
      <trkpt lat="43.3954340" lon="-5.9860640">
        <ele>126.7</ele>
        <time>2018-09-15T11:50:48Z</time>
      </trkpt>
      <trkpt lat="43.3954210" lon="-5.9861040">
        <ele>127.0</ele>
        <time>2018-09-15T11:50:49Z</time>
      </trkpt>
      <trkpt lat="43.3954120" lon="-5.9861330">
        <ele>127.0</ele>
        <time>2018-09-15T11:50:50Z</time>
      </trkpt>
      <trkpt lat="43.3954040" lon="-5.9861640">
        <ele>127.1</ele>
        <time>2018-09-15T11:50:51Z</time>
      </trkpt>
      <trkpt lat="43.3954020" lon="-5.9861980">
        <ele>127.2</ele>
        <time>2018-09-15T11:50:52Z</time>
      </trkpt>
      <trkpt lat="43.3953980" lon="-5.9862420">
        <ele>127.3</ele>
        <time>2018-09-15T11:50:53Z</time>
      </trkpt>
      <trkpt lat="43.3953950" lon="-5.9862840">
        <ele>127.3</ele>
        <time>2018-09-15T11:50:54Z</time>
      </trkpt>
      <trkpt lat="43.3953920" lon="-5.9863320">
        <ele>127.4</ele>
        <time>2018-09-15T11:50:55Z</time>
      </trkpt>
      <trkpt lat="43.3953900" lon="-5.9863710">
        <ele>127.5</ele>
        <time>2018-09-15T11:50:56Z</time>
      </trkpt>
      <trkpt lat="43.3953890" lon="-5.9864150">
        <ele>127.6</ele>
        <time>2018-09-15T11:50:57Z</time>
      </trkpt>
      <trkpt lat="43.3953900" lon="-5.9864570">
        <ele>127.7</ele>
        <time>2018-09-15T11:50:58Z</time>
      </trkpt>
      <trkpt lat="43.3953900" lon="-5.9864930">
        <ele>127.8</ele>
        <time>2018-09-15T11:50:59Z</time>
      </trkpt>
      <trkpt lat="43.3953920" lon="-5.9865380">
        <ele>127.9</ele>
        <time>2018-09-15T11:51:00Z</time>
      </trkpt>
      <trkpt lat="43.3953920" lon="-5.9865750">
        <ele>128.0</ele>
        <time>2018-09-15T11:51:01Z</time>
      </trkpt>
      <trkpt lat="43.3953930" lon="-5.9866190">
        <ele>128.2</ele>
        <time>2018-09-15T11:51:02Z</time>
      </trkpt>
      <trkpt lat="43.3953950" lon="-5.9866590">
        <ele>128.5</ele>
        <time>2018-09-15T11:51:03Z</time>
      </trkpt>
      <trkpt lat="43.3953970" lon="-5.9866980">
        <ele>128.8</ele>
        <time>2018-09-15T11:51:04Z</time>
      </trkpt>
      <trkpt lat="43.3953970" lon="-5.9867340">
        <ele>129.0</ele>
        <time>2018-09-15T11:51:05Z</time>
      </trkpt>
      <trkpt lat="43.3953990" lon="-5.9867780">
        <ele>129.0</ele>
        <time>2018-09-15T11:51:06Z</time>
      </trkpt>
      <trkpt lat="43.3954010" lon="-5.9868200">
        <ele>129.1</ele>
        <time>2018-09-15T11:51:07Z</time>
      </trkpt>
      <trkpt lat="43.3954020" lon="-5.9868540">
        <ele>129.2</ele>
        <time>2018-09-15T11:51:08Z</time>
      </trkpt>
      <trkpt lat="43.3954050" lon="-5.9868960">
        <ele>129.3</ele>
        <time>2018-09-15T11:51:09Z</time>
      </trkpt>
      <trkpt lat="43.3954080" lon="-5.9869360">
        <ele>129.4</ele>
        <time>2018-09-15T11:51:10Z</time>
      </trkpt>
      <trkpt lat="43.3954110" lon="-5.9869750">
        <ele>129.4</ele>
        <time>2018-09-15T11:51:11Z</time>
      </trkpt>
      <trkpt lat="43.3954130" lon="-5.9870120">
        <ele>129.5</ele>
        <time>2018-09-15T11:51:12Z</time>
      </trkpt>
      <trkpt lat="43.3954120" lon="-5.9870500">
        <ele>129.6</ele>
        <time>2018-09-15T11:51:13Z</time>
      </trkpt>
      <trkpt lat="43.3954100" lon="-5.9870840">
        <ele>129.8</ele>
        <time>2018-09-15T11:51:14Z</time>
      </trkpt>
      <trkpt lat="43.3954090" lon="-5.9871140">
        <ele>130.0</ele>
        <time>2018-09-15T11:51:15Z</time>
      </trkpt>
      <trkpt lat="43.3954080" lon="-5.9871330">
        <ele>130.1</ele>
        <time>2018-09-15T11:51:16Z</time>
      </trkpt>
      <trkpt lat="43.3954050" lon="-5.9871560">
        <ele>130.2</ele>
        <time>2018-09-15T11:51:17Z</time>
      </trkpt>
      <trkpt lat="43.3953940" lon="-5.9872030">
        <ele>130.5</ele>
        <time>2018-09-15T11:51:18Z</time>
      </trkpt>
      <trkpt lat="43.3953860" lon="-5.9872440">
        <ele>130.7</ele>
        <time>2018-09-15T11:51:19Z</time>
      </trkpt>
      <trkpt lat="43.3953780" lon="-5.9872890">
        <ele>130.8</ele>
        <time>2018-09-15T11:51:20Z</time>
      </trkpt>
      <trkpt lat="43.3953700" lon="-5.9873240">
        <ele>130.8</ele>
        <time>2018-09-15T11:51:21Z</time>
      </trkpt>
      <trkpt lat="43.3953580" lon="-5.9873630">
        <ele>130.8</ele>
        <time>2018-09-15T11:51:22Z</time>
      </trkpt>
      <trkpt lat="43.3953480" lon="-5.9874020">
        <ele>130.9</ele>
        <time>2018-09-15T11:51:23Z</time>
      </trkpt>
      <trkpt lat="43.3953400" lon="-5.9874390">
        <ele>130.9</ele>
        <time>2018-09-15T11:51:24Z</time>
      </trkpt>
      <trkpt lat="43.3953340" lon="-5.9874760">
        <ele>130.9</ele>
        <time>2018-09-15T11:51:25Z</time>
      </trkpt>
      <trkpt lat="43.3953300" lon="-5.9875140">
        <ele>131.0</ele>
        <time>2018-09-15T11:51:26Z</time>
      </trkpt>
      <trkpt lat="43.3953200" lon="-5.9875490">
        <ele>131.0</ele>
        <time>2018-09-15T11:51:27Z</time>
      </trkpt>
      <trkpt lat="43.3953060" lon="-5.9875770">
        <ele>131.1</ele>
        <time>2018-09-15T11:51:28Z</time>
      </trkpt>
      <trkpt lat="43.3952950" lon="-5.9875940">
        <ele>131.2</ele>
        <time>2018-09-15T11:51:29Z</time>
      </trkpt>
      <trkpt lat="43.3952790" lon="-5.9876160">
        <ele>131.3</ele>
        <time>2018-09-15T11:51:30Z</time>
      </trkpt>
      <trkpt lat="43.3952660" lon="-5.9876360">
        <ele>131.4</ele>
        <time>2018-09-15T11:51:31Z</time>
      </trkpt>
      <trkpt lat="43.3952540" lon="-5.9876570">
        <ele>131.5</ele>
        <time>2018-09-15T11:51:32Z</time>
      </trkpt>
      <trkpt lat="43.3952400" lon="-5.9876830">
        <ele>131.6</ele>
        <time>2018-09-15T11:51:33Z</time>
      </trkpt>
      <trkpt lat="43.3952260" lon="-5.9877110">
        <ele>131.7</ele>
        <time>2018-09-15T11:51:34Z</time>
      </trkpt>
      <trkpt lat="43.3952140" lon="-5.9877360">
        <ele>131.9</ele>
        <time>2018-09-15T11:51:35Z</time>
      </trkpt>
      <trkpt lat="43.3951980" lon="-5.9877690">
        <ele>132.3</ele>
        <time>2018-09-15T11:51:36Z</time>
      </trkpt>
      <trkpt lat="43.3951840" lon="-5.9877960">
        <ele>132.5</ele>
        <time>2018-09-15T11:51:37Z</time>
      </trkpt>
      <trkpt lat="43.3951630" lon="-5.9878370">
        <ele>132.9</ele>
        <time>2018-09-15T11:51:38Z</time>
      </trkpt>
      <trkpt lat="43.3951440" lon="-5.9878750">
        <ele>133.2</ele>
        <time>2018-09-15T11:51:39Z</time>
      </trkpt>
      <trkpt lat="43.3951270" lon="-5.9879050">
        <ele>133.3</ele>
        <time>2018-09-15T11:51:40Z</time>
      </trkpt>
      <trkpt lat="43.3951080" lon="-5.9879420">
        <ele>133.4</ele>
        <time>2018-09-15T11:51:41Z</time>
      </trkpt>
      <trkpt lat="43.3950930" lon="-5.9879730">
        <ele>133.5</ele>
        <time>2018-09-15T11:51:42Z</time>
      </trkpt>
      <trkpt lat="43.3950770" lon="-5.9880050">
        <ele>133.6</ele>
        <time>2018-09-15T11:51:43Z</time>
      </trkpt>
      <trkpt lat="43.3950590" lon="-5.9880450">
        <ele>133.7</ele>
        <time>2018-09-15T11:51:44Z</time>
      </trkpt>
      <trkpt lat="43.3950410" lon="-5.9880850">
        <ele>133.8</ele>
        <time>2018-09-15T11:51:45Z</time>
      </trkpt>
      <trkpt lat="43.3950230" lon="-5.9881160">
        <ele>133.9</ele>
        <time>2018-09-15T11:51:46Z</time>
      </trkpt>
      <trkpt lat="43.3950030" lon="-5.9881550">
        <ele>134.1</ele>
        <time>2018-09-15T11:51:47Z</time>
      </trkpt>
      <trkpt lat="43.3949840" lon="-5.9881930">
        <ele>134.5</ele>
        <time>2018-09-15T11:51:48Z</time>
      </trkpt>
      <trkpt lat="43.3949660" lon="-5.9882300">
        <ele>134.8</ele>
        <time>2018-09-15T11:51:49Z</time>
      </trkpt>
      <trkpt lat="43.3949500" lon="-5.9882600">
        <ele>135.1</ele>
        <time>2018-09-15T11:51:50Z</time>
      </trkpt>
      <trkpt lat="43.3949320" lon="-5.9882960">
        <ele>135.4</ele>
        <time>2018-09-15T11:51:51Z</time>
      </trkpt>
      <trkpt lat="43.3949160" lon="-5.9883280">
        <ele>135.6</ele>
        <time>2018-09-15T11:51:52Z</time>
      </trkpt>
      <trkpt lat="43.3948940" lon="-5.9883690">
        <ele>135.7</ele>
        <time>2018-09-15T11:51:53Z</time>
      </trkpt>
      <trkpt lat="43.3948750" lon="-5.9884060">
        <ele>135.8</ele>
        <time>2018-09-15T11:51:54Z</time>
      </trkpt>
      <trkpt lat="43.3948540" lon="-5.9884480">
        <ele>135.9</ele>
        <time>2018-09-15T11:51:55Z</time>
      </trkpt>
      <trkpt lat="43.3948360" lon="-5.9884840">
        <ele>135.9</ele>
        <time>2018-09-15T11:51:56Z</time>
      </trkpt>
      <trkpt lat="43.3948160" lon="-5.9885260">
        <ele>136.0</ele>
        <time>2018-09-15T11:51:57Z</time>
      </trkpt>
      <trkpt lat="43.3948000" lon="-5.9885650">
        <ele>136.0</ele>
        <time>2018-09-15T11:51:58Z</time>
      </trkpt>
      <trkpt lat="43.3947840" lon="-5.9886050">
        <ele>136.1</ele>
        <time>2018-09-15T11:51:59Z</time>
      </trkpt>
      <trkpt lat="43.3947690" lon="-5.9886450">
        <ele>136.1</ele>
        <time>2018-09-15T11:52:00Z</time>
      </trkpt>
      <trkpt lat="43.3947290" lon="-5.9887410">
        <ele>136.2</ele>
        <time>2018-09-15T11:52:01Z</time>
      </trkpt>
      <trkpt lat="43.3947130" lon="-5.9887880">
        <ele>136.3</ele>
        <time>2018-09-15T11:52:02Z</time>
      </trkpt>
      <trkpt lat="43.3946990" lon="-5.9888360">
        <ele>136.3</ele>
        <time>2018-09-15T11:52:03Z</time>
      </trkpt>
      <trkpt lat="43.3946850" lon="-5.9888850">
        <ele>136.4</ele>
        <time>2018-09-15T11:52:04Z</time>
      </trkpt>
      <trkpt lat="43.3946740" lon="-5.9889350">
        <ele>136.4</ele>
        <time>2018-09-15T11:52:05Z</time>
      </trkpt>
      <trkpt lat="43.3946660" lon="-5.9889870">
        <ele>136.5</ele>
        <time>2018-09-15T11:52:06Z</time>
      </trkpt>
      <trkpt lat="43.3946610" lon="-5.9890390">
        <ele>136.5</ele>
        <time>2018-09-15T11:52:07Z</time>
      </trkpt>
      <trkpt lat="43.3946610" lon="-5.9890900">
        <ele>136.6</ele>
        <time>2018-09-15T11:52:08Z</time>
      </trkpt>
      <trkpt lat="43.3946620" lon="-5.9891400">
        <ele>136.6</ele>
        <time>2018-09-15T11:52:09Z</time>
      </trkpt>
      <trkpt lat="43.3946660" lon="-5.9891910">
        <ele>136.7</ele>
        <time>2018-09-15T11:52:10Z</time>
      </trkpt>
      <trkpt lat="43.3946680" lon="-5.9892440">
        <ele>136.7</ele>
        <time>2018-09-15T11:52:11Z</time>
      </trkpt>
      <trkpt lat="43.3946680" lon="-5.9892970">
        <ele>136.8</ele>
        <time>2018-09-15T11:52:12Z</time>
      </trkpt>
      <trkpt lat="43.3946640" lon="-5.9893490">
        <ele>136.9</ele>
        <time>2018-09-15T11:52:13Z</time>
      </trkpt>
      <trkpt lat="43.3946600" lon="-5.9893990">
        <ele>136.9</ele>
        <time>2018-09-15T11:52:14Z</time>
      </trkpt>
      <trkpt lat="43.3946550" lon="-5.9894470">
        <ele>137.0</ele>
        <time>2018-09-15T11:52:15Z</time>
      </trkpt>
      <trkpt lat="43.3946520" lon="-5.9894970">
        <ele>137.1</ele>
        <time>2018-09-15T11:52:16Z</time>
      </trkpt>
      <trkpt lat="43.3946480" lon="-5.9895460">
        <ele>137.2</ele>
        <time>2018-09-15T11:52:17Z</time>
      </trkpt>
      <trkpt lat="43.3946450" lon="-5.9895720">
        <ele>137.3</ele>
        <time>2018-09-15T11:52:18Z</time>
      </trkpt>
      <trkpt lat="43.3946400" lon="-5.9896080">
        <ele>137.5</ele>
        <time>2018-09-15T11:52:19Z</time>
      </trkpt>
      <trkpt lat="43.3946330" lon="-5.9896500">
        <ele>137.8</ele>
        <time>2018-09-15T11:52:20Z</time>
      </trkpt>
      <trkpt lat="43.3946250" lon="-5.9896890">
        <ele>138.2</ele>
        <time>2018-09-15T11:52:21Z</time>
      </trkpt>
      <trkpt lat="43.3946190" lon="-5.9897220">
        <ele>138.4</ele>
        <time>2018-09-15T11:52:22Z</time>
      </trkpt>
      <trkpt lat="43.3946080" lon="-5.9897620">
        <ele>138.8</ele>
        <time>2018-09-15T11:52:23Z</time>
      </trkpt>
      <trkpt lat="43.3945970" lon="-5.9898020">
        <ele>139.1</ele>
        <time>2018-09-15T11:52:24Z</time>
      </trkpt>
      <trkpt lat="43.3945880" lon="-5.9898370">
        <ele>139.2</ele>
        <time>2018-09-15T11:52:25Z</time>
      </trkpt>
      <trkpt lat="43.3945790" lon="-5.9898790">
        <ele>139.3</ele>
        <time>2018-09-15T11:52:26Z</time>
      </trkpt>
      <trkpt lat="43.3945680" lon="-5.9899210">
        <ele>139.4</ele>
        <time>2018-09-15T11:52:27Z</time>
      </trkpt>
      <trkpt lat="43.3945580" lon="-5.9899610">
        <ele>139.6</ele>
        <time>2018-09-15T11:52:28Z</time>
      </trkpt>
      <trkpt lat="43.3945480" lon="-5.9900010">
        <ele>139.7</ele>
        <time>2018-09-15T11:52:29Z</time>
      </trkpt>
      <trkpt lat="43.3945400" lon="-5.9900370">
        <ele>139.9</ele>
        <time>2018-09-15T11:52:30Z</time>
      </trkpt>
      <trkpt lat="43.3945300" lon="-5.9900800">
        <ele>139.9</ele>
        <time>2018-09-15T11:52:31Z</time>
      </trkpt>
      <trkpt lat="43.3945180" lon="-5.9901220">
        <ele>139.7</ele>
        <time>2018-09-15T11:52:32Z</time>
      </trkpt>
      <trkpt lat="43.3945080" lon="-5.9901630">
        <ele>139.4</ele>
        <time>2018-09-15T11:52:33Z</time>
      </trkpt>
      <trkpt lat="43.3944990" lon="-5.9901980">
        <ele>139.2</ele>
        <time>2018-09-15T11:52:34Z</time>
      </trkpt>
      <trkpt lat="43.3944870" lon="-5.9902400">
        <ele>139.0</ele>
        <time>2018-09-15T11:52:35Z</time>
      </trkpt>
      <trkpt lat="43.3944770" lon="-5.9902790">
        <ele>138.9</ele>
        <time>2018-09-15T11:52:36Z</time>
      </trkpt>
      <trkpt lat="43.3944710" lon="-5.9903070">
        <ele>138.8</ele>
        <time>2018-09-15T11:52:37Z</time>
      </trkpt>
      <trkpt lat="43.3944680" lon="-5.9903380">
        <ele>138.7</ele>
        <time>2018-09-15T11:52:38Z</time>
      </trkpt>
      <trkpt lat="43.3944660" lon="-5.9903690">
        <ele>138.6</ele>
        <time>2018-09-15T11:52:39Z</time>
      </trkpt>
      <trkpt lat="43.3944650" lon="-5.9903980">
        <ele>138.4</ele>
        <time>2018-09-15T11:52:40Z</time>
      </trkpt>
      <trkpt lat="43.3944640" lon="-5.9904380">
        <ele>138.1</ele>
        <time>2018-09-15T11:52:41Z</time>
      </trkpt>
      <trkpt lat="43.3944610" lon="-5.9904820">
        <ele>137.9</ele>
        <time>2018-09-15T11:52:42Z</time>
      </trkpt>
      <trkpt lat="43.3944570" lon="-5.9905310">
        <ele>137.6</ele>
        <time>2018-09-15T11:52:43Z</time>
      </trkpt>
      <trkpt lat="43.3944570" lon="-5.9905780">
        <ele>137.5</ele>
        <time>2018-09-15T11:52:44Z</time>
      </trkpt>
      <trkpt lat="43.3944570" lon="-5.9906190">
        <ele>137.4</ele>
        <time>2018-09-15T11:52:45Z</time>
      </trkpt>
      <trkpt lat="43.3944560" lon="-5.9906670">
        <ele>137.2</ele>
        <time>2018-09-15T11:52:46Z</time>
      </trkpt>
      <trkpt lat="43.3944560" lon="-5.9907090">
        <ele>137.1</ele>
        <time>2018-09-15T11:52:47Z</time>
      </trkpt>
      <trkpt lat="43.3944600" lon="-5.9907580">
        <ele>137.0</ele>
        <time>2018-09-15T11:52:48Z</time>
      </trkpt>
      <trkpt lat="43.3944620" lon="-5.9908760">
        <ele>136.8</ele>
        <time>2018-09-15T11:52:49Z</time>
      </trkpt>
      <trkpt lat="43.3944680" lon="-5.9909290">
        <ele>136.7</ele>
        <time>2018-09-15T11:52:50Z</time>
      </trkpt>
      <trkpt lat="43.3944730" lon="-5.9909900">
        <ele>136.5</ele>
        <time>2018-09-15T11:52:51Z</time>
      </trkpt>
      <trkpt lat="43.3944800" lon="-5.9910580">
        <ele>136.4</ele>
        <time>2018-09-15T11:52:52Z</time>
      </trkpt>
      <trkpt lat="43.3944850" lon="-5.9911280">
        <ele>136.2</ele>
        <time>2018-09-15T11:52:53Z</time>
      </trkpt>
      <trkpt lat="43.3944920" lon="-5.9912030">
        <ele>136.1</ele>
        <time>2018-09-15T11:52:54Z</time>
      </trkpt>
      <trkpt lat="43.3945040" lon="-5.9912800">
        <ele>135.9</ele>
        <time>2018-09-15T11:52:55Z</time>
      </trkpt>
      <trkpt lat="43.3945070" lon="-5.9913630">
        <ele>135.7</ele>
        <time>2018-09-15T11:52:56Z</time>
      </trkpt>
      <trkpt lat="43.3945090" lon="-5.9914460">
        <ele>135.5</ele>
        <time>2018-09-15T11:52:57Z</time>
      </trkpt>
      <trkpt lat="43.3945110" lon="-5.9915300">
        <ele>135.4</ele>
        <time>2018-09-15T11:52:58Z</time>
      </trkpt>
      <trkpt lat="43.3945090" lon="-5.9916130">
        <ele>135.2</ele>
        <time>2018-09-15T11:52:59Z</time>
      </trkpt>
      <trkpt lat="43.3945150" lon="-5.9916990">
        <ele>135.0</ele>
        <time>2018-09-15T11:53:00Z</time>
      </trkpt>
      <trkpt lat="43.3945170" lon="-5.9917770">
        <ele>134.8</ele>
        <time>2018-09-15T11:53:01Z</time>
      </trkpt>
      <trkpt lat="43.3945190" lon="-5.9918720">
        <ele>134.5</ele>
        <time>2018-09-15T11:53:02Z</time>
      </trkpt>
      <trkpt lat="43.3945210" lon="-5.9919650">
        <ele>134.1</ele>
        <time>2018-09-15T11:53:03Z</time>
      </trkpt>
      <trkpt lat="43.3945250" lon="-5.9920620">
        <ele>133.5</ele>
        <time>2018-09-15T11:53:04Z</time>
      </trkpt>
      <trkpt lat="43.3945180" lon="-5.9921760">
        <ele>132.6</ele>
        <time>2018-09-15T11:53:05Z</time>
      </trkpt>
      <trkpt lat="43.3945120" lon="-5.9922800">
        <ele>131.8</ele>
        <time>2018-09-15T11:53:06Z</time>
      </trkpt>
      <trkpt lat="43.3945030" lon="-5.9923860">
        <ele>130.8</ele>
        <time>2018-09-15T11:53:07Z</time>
      </trkpt>
      <trkpt lat="43.3944890" lon="-5.9924970">
        <ele>130.1</ele>
        <time>2018-09-15T11:53:08Z</time>
      </trkpt>
      <trkpt lat="43.3944770" lon="-5.9926100">
        <ele>129.6</ele>
        <time>2018-09-15T11:53:09Z</time>
      </trkpt>
      <trkpt lat="43.3944620" lon="-5.9927180">
        <ele>129.1</ele>
        <time>2018-09-15T11:53:10Z</time>
      </trkpt>
      <trkpt lat="43.3944480" lon="-5.9928390">
        <ele>128.6</ele>
        <time>2018-09-15T11:53:11Z</time>
      </trkpt>
      <trkpt lat="43.3944250" lon="-5.9929560">
        <ele>127.9</ele>
        <time>2018-09-15T11:53:12Z</time>
      </trkpt>
      <trkpt lat="43.3944010" lon="-5.9930820">
        <ele>126.8</ele>
        <time>2018-09-15T11:53:13Z</time>
      </trkpt>
      <trkpt lat="43.3943800" lon="-5.9932090">
        <ele>125.7</ele>
        <time>2018-09-15T11:53:14Z</time>
      </trkpt>
      <trkpt lat="43.3943550" lon="-5.9933390">
        <ele>124.4</ele>
        <time>2018-09-15T11:53:15Z</time>
      </trkpt>
      <trkpt lat="43.3943270" lon="-5.9934730">
        <ele>123.1</ele>
        <time>2018-09-15T11:53:16Z</time>
      </trkpt>
      <trkpt lat="43.3942840" lon="-5.9935960">
        <ele>123.0</ele>
        <time>2018-09-15T11:53:17Z</time>
      </trkpt>
      <trkpt lat="43.3942430" lon="-5.9937250">
        <ele>122.7</ele>
        <time>2018-09-15T11:53:18Z</time>
      </trkpt>
      <trkpt lat="43.3941970" lon="-5.9938470">
        <ele>122.1</ele>
        <time>2018-09-15T11:53:19Z</time>
      </trkpt>
      <trkpt lat="43.3941510" lon="-5.9939590">
        <ele>121.6</ele>
        <time>2018-09-15T11:53:20Z</time>
      </trkpt>
      <trkpt lat="43.3941090" lon="-5.9940740">
        <ele>121.1</ele>
        <time>2018-09-15T11:53:21Z</time>
      </trkpt>
      <trkpt lat="43.3940660" lon="-5.9941810">
        <ele>120.7</ele>
        <time>2018-09-15T11:53:22Z</time>
      </trkpt>
      <trkpt lat="43.3940180" lon="-5.9942900">
        <ele>120.3</ele>
        <time>2018-09-15T11:53:23Z</time>
      </trkpt>
      <trkpt lat="43.3939780" lon="-5.9943960">
        <ele>119.9</ele>
        <time>2018-09-15T11:53:24Z</time>
      </trkpt>
      <trkpt lat="43.3939400" lon="-5.9944950">
        <ele>119.6</ele>
        <time>2018-09-15T11:53:25Z</time>
      </trkpt>
      <trkpt lat="43.3939000" lon="-5.9945930">
        <ele>119.4</ele>
        <time>2018-09-15T11:53:26Z</time>
      </trkpt>
      <trkpt lat="43.3938660" lon="-5.9946950">
        <ele>119.2</ele>
        <time>2018-09-15T11:53:27Z</time>
      </trkpt>
      <trkpt lat="43.3938300" lon="-5.9947890">
        <ele>119.1</ele>
        <time>2018-09-15T11:53:28Z</time>
      </trkpt>
      <trkpt lat="43.3937960" lon="-5.9948820">
        <ele>119.0</ele>
        <time>2018-09-15T11:53:29Z</time>
      </trkpt>
      <trkpt lat="43.3937620" lon="-5.9949670">
        <ele>118.9</ele>
        <time>2018-09-15T11:53:30Z</time>
      </trkpt>
      <trkpt lat="43.3937380" lon="-5.9950680">
        <ele>118.8</ele>
        <time>2018-09-15T11:53:31Z</time>
      </trkpt>
      <trkpt lat="43.3936990" lon="-5.9951750">
        <ele>118.6</ele>
        <time>2018-09-15T11:53:32Z</time>
      </trkpt>
      <trkpt lat="43.3936700" lon="-5.9952670">
        <ele>118.4</ele>
        <time>2018-09-15T11:53:33Z</time>
      </trkpt>
      <trkpt lat="43.3936400" lon="-5.9953700">
        <ele>118.1</ele>
        <time>2018-09-15T11:53:34Z</time>
      </trkpt>
      <trkpt lat="43.3936050" lon="-5.9954760">
        <ele>117.6</ele>
        <time>2018-09-15T11:53:35Z</time>
      </trkpt>
      <trkpt lat="43.3935750" lon="-5.9955880">
        <ele>117.0</ele>
        <time>2018-09-15T11:53:36Z</time>
      </trkpt>
      <trkpt lat="43.3935320" lon="-5.9957110">
        <ele>116.4</ele>
        <time>2018-09-15T11:53:37Z</time>
      </trkpt>
      <trkpt lat="43.3934900" lon="-5.9958480">
        <ele>115.6</ele>
        <time>2018-09-15T11:53:38Z</time>
      </trkpt>
      <trkpt lat="43.3934500" lon="-5.9959780">
        <ele>114.9</ele>
        <time>2018-09-15T11:53:39Z</time>
      </trkpt>
      <trkpt lat="43.3934050" lon="-5.9961150">
        <ele>114.2</ele>
        <time>2018-09-15T11:53:40Z</time>
      </trkpt>
      <trkpt lat="43.3933660" lon="-5.9962550">
        <ele>113.4</ele>
        <time>2018-09-15T11:53:41Z</time>
      </trkpt>
      <trkpt lat="43.3933240" lon="-5.9963960">
        <ele>112.5</ele>
        <time>2018-09-15T11:53:42Z</time>
      </trkpt>
      <trkpt lat="43.3932760" lon="-5.9965490">
        <ele>111.6</ele>
        <time>2018-09-15T11:53:43Z</time>
      </trkpt>
      <trkpt lat="43.3932290" lon="-5.9967060">
        <ele>110.7</ele>
        <time>2018-09-15T11:53:44Z</time>
      </trkpt>
      <trkpt lat="43.3931810" lon="-5.9968520">
        <ele>109.8</ele>
        <time>2018-09-15T11:53:45Z</time>
      </trkpt>
      <trkpt lat="43.3931320" lon="-5.9970140">
        <ele>108.8</ele>
        <time>2018-09-15T11:53:46Z</time>
      </trkpt>
      <trkpt lat="43.3930750" lon="-5.9971660">
        <ele>107.8</ele>
        <time>2018-09-15T11:53:47Z</time>
      </trkpt>
      <trkpt lat="43.3930250" lon="-5.9973250">
        <ele>106.8</ele>
        <time>2018-09-15T11:53:48Z</time>
      </trkpt>
      <trkpt lat="43.3929720" lon="-5.9974770">
        <ele>105.8</ele>
        <time>2018-09-15T11:53:49Z</time>
      </trkpt>
      <trkpt lat="43.3929230" lon="-5.9976200">
        <ele>104.9</ele>
        <time>2018-09-15T11:53:50Z</time>
      </trkpt>
      <trkpt lat="43.3928860" lon="-5.9977620">
        <ele>104.0</ele>
        <time>2018-09-15T11:53:51Z</time>
      </trkpt>
      <trkpt lat="43.3928590" lon="-5.9978980">
        <ele>103.3</ele>
        <time>2018-09-15T11:53:52Z</time>
      </trkpt>
      <trkpt lat="43.3928390" lon="-5.9980310">
        <ele>102.7</ele>
        <time>2018-09-15T11:53:53Z</time>
      </trkpt>
      <trkpt lat="43.3928230" lon="-5.9981560">
        <ele>102.1</ele>
        <time>2018-09-15T11:53:54Z</time>
      </trkpt>
      <trkpt lat="43.3928050" lon="-5.9982830">
        <ele>101.5</ele>
        <time>2018-09-15T11:53:55Z</time>
      </trkpt>
      <trkpt lat="43.3927910" lon="-5.9984060">
        <ele>101.1</ele>
        <time>2018-09-15T11:53:56Z</time>
      </trkpt>
      <trkpt lat="43.3927790" lon="-5.9985260">
        <ele>100.7</ele>
        <time>2018-09-15T11:53:57Z</time>
      </trkpt>
      <trkpt lat="43.3927780" lon="-5.9986500">
        <ele>100.4</ele>
        <time>2018-09-15T11:53:58Z</time>
      </trkpt>
      <trkpt lat="43.3927840" lon="-5.9987640">
        <ele>100.3</ele>
        <time>2018-09-15T11:53:59Z</time>
      </trkpt>
      <trkpt lat="43.3927930" lon="-5.9988680">
        <ele>100.2</ele>
        <time>2018-09-15T11:54:00Z</time>
      </trkpt>
      <trkpt lat="43.3928170" lon="-5.9989490">
        <ele>100.1</ele>
        <time>2018-09-15T11:54:01Z</time>
      </trkpt>
      <trkpt lat="43.3928680" lon="-5.9990280">
        <ele>100.0</ele>
        <time>2018-09-15T11:54:02Z</time>
      </trkpt>
      <trkpt lat="43.3929260" lon="-5.9990800">
        <ele>99.9</ele>
        <time>2018-09-15T11:54:03Z</time>
      </trkpt>
      <trkpt lat="43.3929890" lon="-5.9991310">
        <ele>99.9</ele>
        <time>2018-09-15T11:54:04Z</time>
      </trkpt>
      <trkpt lat="43.3930460" lon="-5.9991930">
        <ele>99.7</ele>
        <time>2018-09-15T11:54:05Z</time>
      </trkpt>
      <trkpt lat="43.3931010" lon="-5.9992540">
        <ele>99.5</ele>
        <time>2018-09-15T11:54:06Z</time>
      </trkpt>
      <trkpt lat="43.3931570" lon="-5.9993210">
        <ele>99.2</ele>
        <time>2018-09-15T11:54:07Z</time>
      </trkpt>
      <trkpt lat="43.3932060" lon="-5.9993930">
        <ele>98.9</ele>
        <time>2018-09-15T11:54:08Z</time>
      </trkpt>
      <trkpt lat="43.3932410" lon="-5.9994860">
        <ele>98.6</ele>
        <time>2018-09-15T11:54:09Z</time>
      </trkpt>
      <trkpt lat="43.3932700" lon="-5.9995900">
        <ele>98.3</ele>
        <time>2018-09-15T11:54:10Z</time>
      </trkpt>
      <trkpt lat="43.3932950" lon="-5.9997040">
        <ele>97.9</ele>
        <time>2018-09-15T11:54:11Z</time>
      </trkpt>
      <trkpt lat="43.3933070" lon="-5.9998280">
        <ele>97.5</ele>
        <time>2018-09-15T11:54:12Z</time>
      </trkpt>
      <trkpt lat="43.3933180" lon="-5.9999590">
        <ele>97.1</ele>
        <time>2018-09-15T11:54:13Z</time>
      </trkpt>
      <trkpt lat="43.3933280" lon="-6.0000970">
        <ele>96.6</ele>
        <time>2018-09-15T11:54:14Z</time>
      </trkpt>
      <trkpt lat="43.3933280" lon="-6.0002400">
        <ele>95.9</ele>
        <time>2018-09-15T11:54:15Z</time>
      </trkpt>
      <trkpt lat="43.3933080" lon="-6.0003740">
        <ele>95.1</ele>
        <time>2018-09-15T11:54:16Z</time>
      </trkpt>
      <trkpt lat="43.3932720" lon="-6.0005120">
        <ele>94.3</ele>
        <time>2018-09-15T11:54:17Z</time>
      </trkpt>
      <trkpt lat="43.3932310" lon="-6.0006510">
        <ele>93.3</ele>
        <time>2018-09-15T11:54:18Z</time>
      </trkpt>
      <trkpt lat="43.3931830" lon="-6.0007880">
        <ele>92.4</ele>
        <time>2018-09-15T11:54:19Z</time>
      </trkpt>
      <trkpt lat="43.3931380" lon="-6.0009250">
        <ele>91.5</ele>
        <time>2018-09-15T11:54:20Z</time>
      </trkpt>
      <trkpt lat="43.3930910" lon="-6.0010730">
        <ele>90.6</ele>
        <time>2018-09-15T11:54:21Z</time>
      </trkpt>
      <trkpt lat="43.3930510" lon="-6.0012110">
        <ele>89.8</ele>
        <time>2018-09-15T11:54:22Z</time>
      </trkpt>
      <trkpt lat="43.3930050" lon="-6.0013610">
        <ele>88.7</ele>
        <time>2018-09-15T11:54:23Z</time>
      </trkpt>
      <trkpt lat="43.3929680" lon="-6.0015080">
        <ele>87.1</ele>
        <time>2018-09-15T11:54:24Z</time>
      </trkpt>
      <trkpt lat="43.3929360" lon="-6.0016450">
        <ele>85.4</ele>
        <time>2018-09-15T11:54:25Z</time>
      </trkpt>
      <trkpt lat="43.3928980" lon="-6.0017690">
        <ele>83.9</ele>
        <time>2018-09-15T11:54:26Z</time>
      </trkpt>
      <trkpt lat="43.3928450" lon="-6.0018810">
        <ele>82.4</ele>
        <time>2018-09-15T11:54:27Z</time>
      </trkpt>
      <trkpt lat="43.3927880" lon="-6.0019720">
        <ele>81.0</ele>
        <time>2018-09-15T11:54:28Z</time>
      </trkpt>
      <trkpt lat="43.3927170" lon="-6.0020600">
        <ele>79.7</ele>
        <time>2018-09-15T11:54:29Z</time>
      </trkpt>
      <trkpt lat="43.3926310" lon="-6.0021350">
        <ele>78.3</ele>
        <time>2018-09-15T11:54:30Z</time>
      </trkpt>
      <trkpt lat="43.3925390" lon="-6.0022040">
        <ele>77.0</ele>
        <time>2018-09-15T11:54:31Z</time>
      </trkpt>
      <trkpt lat="43.3924430" lon="-6.0022700">
        <ele>75.7</ele>
        <time>2018-09-15T11:54:32Z</time>
      </trkpt>
      <trkpt lat="43.3923380" lon="-6.0023260">
        <ele>74.3</ele>
        <time>2018-09-15T11:54:33Z</time>
      </trkpt>
      <trkpt lat="43.3922400" lon="-6.0023860">
        <ele>73.0</ele>
        <time>2018-09-15T11:54:34Z</time>
      </trkpt>
      <trkpt lat="43.3921340" lon="-6.0024600">
        <ele>71.5</ele>
        <time>2018-09-15T11:54:35Z</time>
      </trkpt>
      <trkpt lat="43.3920250" lon="-6.0025260">
        <ele>69.9</ele>
        <time>2018-09-15T11:54:36Z</time>
      </trkpt>
      <trkpt lat="43.3919240" lon="-6.0025710">
        <ele>68.3</ele>
        <time>2018-09-15T11:54:37Z</time>
      </trkpt>
      <trkpt lat="43.3918330" lon="-6.0026300">
        <ele>66.6</ele>
        <time>2018-09-15T11:54:38Z</time>
      </trkpt>
      <trkpt lat="43.3917450" lon="-6.0026890">
        <ele>64.8</ele>
        <time>2018-09-15T11:54:39Z</time>
      </trkpt>
      <trkpt lat="43.3916610" lon="-6.0027600">
        <ele>68.0</ele>
        <time>2018-09-15T11:54:40Z</time>
      </trkpt>
      <trkpt lat="43.3915810" lon="-6.0028230">
        <ele>72.0</ele>
        <time>2018-09-15T11:54:41Z</time>
      </trkpt>
      <trkpt lat="43.3915090" lon="-6.0028800">
        <ele>72.0</ele>
        <time>2018-09-15T11:54:42Z</time>
      </trkpt>
      <trkpt lat="43.3914460" lon="-6.0029470">
        <ele>72.0</ele>
        <time>2018-09-15T11:54:43Z</time>
      </trkpt>
      <trkpt lat="43.3913880" lon="-6.0030190">
        <ele>72.0</ele>
        <time>2018-09-15T11:54:44Z</time>
      </trkpt>
      <trkpt lat="43.3913310" lon="-6.0030820">
        <ele>72.0</ele>
        <time>2018-09-15T11:54:45Z</time>
      </trkpt>
      <trkpt lat="43.3913040" lon="-6.0031450">
        <ele>72.0</ele>
        <time>2018-09-15T11:54:46Z</time>
      </trkpt>
      <trkpt lat="43.3912850" lon="-6.0032040">
        <ele>72.0</ele>
        <time>2018-09-15T11:54:47Z</time>
      </trkpt>
      <trkpt lat="43.3912760" lon="-6.0032260">
        <ele>72.0</ele>
        <time>2018-09-15T11:54:48Z</time>
      </trkpt>
      <trkpt lat="43.3912750" lon="-6.0032520">
        <ele>71.6</ele>
        <time>2018-09-15T11:54:49Z</time>
      </trkpt>
      <trkpt lat="43.3912820" lon="-6.0032680">
        <ele>71.4</ele>
        <time>2018-09-15T11:54:50Z</time>
      </trkpt>
      <trkpt lat="43.3912920" lon="-6.0032840">
        <ele>71.1</ele>
        <time>2018-09-15T11:54:51Z</time>
      </trkpt>
      <trkpt lat="43.3913120" lon="-6.0033120">
        <ele>70.6</ele>
        <time>2018-09-15T11:54:52Z</time>
      </trkpt>
      <trkpt lat="43.3913520" lon="-6.0033750">
        <ele>69.6</ele>
        <time>2018-09-15T11:54:53Z</time>
      </trkpt>
      <trkpt lat="43.3913840" lon="-6.0034170">
        <ele>69.2</ele>
        <time>2018-09-15T11:54:54Z</time>
      </trkpt>
      <trkpt lat="43.3914110" lon="-6.0034650">
        <ele>68.9</ele>
        <time>2018-09-15T11:54:55Z</time>
      </trkpt>
      <trkpt lat="43.3914480" lon="-6.0035330">
        <ele>68.5</ele>
        <time>2018-09-15T11:54:56Z</time>
      </trkpt>
      <trkpt lat="43.3914880" lon="-6.0035990">
        <ele>68.1</ele>
        <time>2018-09-15T11:54:57Z</time>
      </trkpt>
      <trkpt lat="43.3915380" lon="-6.0036530">
        <ele>67.5</ele>
        <time>2018-09-15T11:54:58Z</time>
      </trkpt>
      <trkpt lat="43.3915900" lon="-6.0037080">
        <ele>67.0</ele>
        <time>2018-09-15T11:54:59Z</time>
      </trkpt>
      <trkpt lat="43.3916420" lon="-6.0037740">
        <ele>66.5</ele>
        <time>2018-09-15T11:55:00Z</time>
      </trkpt>
      <trkpt lat="43.3916980" lon="-6.0038380">
        <ele>66.0</ele>
        <time>2018-09-15T11:55:01Z</time>
      </trkpt>
      <trkpt lat="43.3917520" lon="-6.0038950">
        <ele>65.5</ele>
        <time>2018-09-15T11:55:02Z</time>
      </trkpt>
      <trkpt lat="43.3917990" lon="-6.0039660">
        <ele>65.2</ele>
        <time>2018-09-15T11:55:03Z</time>
      </trkpt>
      <trkpt lat="43.3918520" lon="-6.0040240">
        <ele>65.0</ele>
        <time>2018-09-15T11:55:04Z</time>
      </trkpt>
      <trkpt lat="43.3919100" lon="-6.0041040">
        <ele>64.7</ele>
        <time>2018-09-15T11:55:05Z</time>
      </trkpt>
      <trkpt lat="43.3919640" lon="-6.0041790">
        <ele>64.5</ele>
        <time>2018-09-15T11:55:06Z</time>
      </trkpt>
      <trkpt lat="43.3920170" lon="-6.0042450">
        <ele>64.3</ele>
        <time>2018-09-15T11:55:07Z</time>
      </trkpt>
      <trkpt lat="43.3920740" lon="-6.0043130">
        <ele>64.2</ele>
        <time>2018-09-15T11:55:08Z</time>
      </trkpt>
      <trkpt lat="43.3921260" lon="-6.0043820">
        <ele>64.0</ele>
        <time>2018-09-15T11:55:09Z</time>
      </trkpt>
      <trkpt lat="43.3921820" lon="-6.0044550">
        <ele>63.8</ele>
        <time>2018-09-15T11:55:11Z</time>
      </trkpt>
      <trkpt lat="43.3922330" lon="-6.0045130">
        <ele>63.4</ele>
        <time>2018-09-15T11:55:12Z</time>
      </trkpt>
      <trkpt lat="43.3922840" lon="-6.0045750">
        <ele>62.8</ele>
        <time>2018-09-15T11:55:13Z</time>
      </trkpt>
      <trkpt lat="43.3923350" lon="-6.0046350">
        <ele>62.2</ele>
        <time>2018-09-15T11:55:14Z</time>
      </trkpt>
      <trkpt lat="43.3923870" lon="-6.0046940">
        <ele>61.8</ele>
        <time>2018-09-15T11:55:15Z</time>
      </trkpt>
      <trkpt lat="43.3924280" lon="-6.0047590">
        <ele>61.6</ele>
        <time>2018-09-15T11:55:16Z</time>
      </trkpt>
      <trkpt lat="43.3924770" lon="-6.0048200">
        <ele>61.4</ele>
        <time>2018-09-15T11:55:17Z</time>
      </trkpt>
      <trkpt lat="43.3925270" lon="-6.0048750">
        <ele>61.3</ele>
        <time>2018-09-15T11:55:18Z</time>
      </trkpt>
      <trkpt lat="43.3925770" lon="-6.0049430">
        <ele>61.1</ele>
        <time>2018-09-15T11:55:19Z</time>
      </trkpt>
      <trkpt lat="43.3926300" lon="-6.0050040">
        <ele>61.0</ele>
        <time>2018-09-15T11:55:20Z</time>
      </trkpt>
      <trkpt lat="43.3926880" lon="-6.0050780">
        <ele>60.9</ele>
        <time>2018-09-15T11:55:21Z</time>
      </trkpt>
      <trkpt lat="43.3927460" lon="-6.0051470">
        <ele>60.8</ele>
        <time>2018-09-15T11:55:22Z</time>
      </trkpt>
      <trkpt lat="43.3927950" lon="-6.0052070">
        <ele>60.7</ele>
        <time>2018-09-15T11:55:23Z</time>
      </trkpt>
      <trkpt lat="43.3928460" lon="-6.0052610">
        <ele>60.6</ele>
        <time>2018-09-15T11:55:23Z</time>
      </trkpt>
      <trkpt lat="43.3928990" lon="-6.0053310">
        <ele>60.6</ele>
        <time>2018-09-15T11:55:25Z</time>
      </trkpt>
      <trkpt lat="43.3929550" lon="-6.0053970">
        <ele>60.5</ele>
        <time>2018-09-15T11:55:26Z</time>
      </trkpt>
      <trkpt lat="43.3930080" lon="-6.0054590">
        <ele>60.4</ele>
        <time>2018-09-15T11:55:27Z</time>
      </trkpt>
      <trkpt lat="43.3930680" lon="-6.0055230">
        <ele>60.3</ele>
        <time>2018-09-15T11:55:28Z</time>
      </trkpt>
      <trkpt lat="43.3931230" lon="-6.0055940">
        <ele>60.1</ele>
        <time>2018-09-15T11:55:29Z</time>
      </trkpt>
      <trkpt lat="43.3931800" lon="-6.0056580">
        <ele>60.0</ele>
        <time>2018-09-15T11:55:30Z</time>
      </trkpt>
      <trkpt lat="43.3932300" lon="-6.0057270">
        <ele>59.9</ele>
        <time>2018-09-15T11:55:31Z</time>
      </trkpt>
      <trkpt lat="43.3932910" lon="-6.0057820">
        <ele>59.9</ele>
        <time>2018-09-15T11:55:32Z</time>
      </trkpt>
      <trkpt lat="43.3933470" lon="-6.0058510">
        <ele>59.8</ele>
        <time>2018-09-15T11:55:33Z</time>
      </trkpt>
      <trkpt lat="43.3933970" lon="-6.0059210">
        <ele>59.8</ele>
        <time>2018-09-15T11:55:34Z</time>
      </trkpt>
      <trkpt lat="43.3934450" lon="-6.0059900">
        <ele>59.7</ele>
        <time>2018-09-15T11:55:35Z</time>
      </trkpt>
      <trkpt lat="43.3935010" lon="-6.0060540">
        <ele>59.7</ele>
        <time>2018-09-15T11:55:36Z</time>
      </trkpt>
      <trkpt lat="43.3935620" lon="-6.0061400">
        <ele>59.6</ele>
        <time>2018-09-15T11:55:37Z</time>
      </trkpt>
      <trkpt lat="43.3936150" lon="-6.0062030">
        <ele>59.5</ele>
        <time>2018-09-15T11:55:38Z</time>
      </trkpt>
      <trkpt lat="43.3936620" lon="-6.0062670">
        <ele>59.5</ele>
        <time>2018-09-15T11:55:39Z</time>
      </trkpt>
      <trkpt lat="43.3937140" lon="-6.0063270">
        <ele>59.4</ele>
        <time>2018-09-15T11:55:40Z</time>
      </trkpt>
      <trkpt lat="43.3937640" lon="-6.0063850">
        <ele>59.4</ele>
        <time>2018-09-15T11:55:41Z</time>
      </trkpt>
      <trkpt lat="43.3938110" lon="-6.0064470">
        <ele>59.3</ele>
        <time>2018-09-15T11:55:42Z</time>
      </trkpt>
      <trkpt lat="43.3938650" lon="-6.0065130">
        <ele>59.3</ele>
        <time>2018-09-15T11:55:43Z</time>
      </trkpt>
      <trkpt lat="43.3939160" lon="-6.0065700">
        <ele>59.2</ele>
        <time>2018-09-15T11:55:44Z</time>
      </trkpt>
      <trkpt lat="43.3939670" lon="-6.0066330">
        <ele>59.1</ele>
        <time>2018-09-15T11:55:45Z</time>
      </trkpt>
      <trkpt lat="43.3940170" lon="-6.0066910">
        <ele>59.1</ele>
        <time>2018-09-15T11:55:46Z</time>
      </trkpt>
      <trkpt lat="43.3940720" lon="-6.0067590">
        <ele>59.0</ele>
        <time>2018-09-15T11:55:47Z</time>
      </trkpt>
      <trkpt lat="43.3941270" lon="-6.0068260">
        <ele>58.9</ele>
        <time>2018-09-15T11:55:48Z</time>
      </trkpt>
      <trkpt lat="43.3941760" lon="-6.0068800">
        <ele>58.8</ele>
        <time>2018-09-15T11:55:49Z</time>
      </trkpt>
      <trkpt lat="43.3942300" lon="-6.0069490">
        <ele>58.7</ele>
        <time>2018-09-15T11:55:50Z</time>
      </trkpt>
      <trkpt lat="43.3942820" lon="-6.0070100">
        <ele>58.7</ele>
        <time>2018-09-15T11:55:51Z</time>
      </trkpt>
      <trkpt lat="43.3943440" lon="-6.0070710">
        <ele>58.6</ele>
        <time>2018-09-15T11:55:52Z</time>
      </trkpt>
      <trkpt lat="43.3943950" lon="-6.0071370">
        <ele>58.5</ele>
        <time>2018-09-15T11:55:53Z</time>
      </trkpt>
      <trkpt lat="43.3944420" lon="-6.0071980">
        <ele>58.4</ele>
        <time>2018-09-15T11:55:54Z</time>
      </trkpt>
      <trkpt lat="43.3944890" lon="-6.0072520">
        <ele>58.4</ele>
        <time>2018-09-15T11:55:55Z</time>
      </trkpt>
      <trkpt lat="43.3945320" lon="-6.0073220">
        <ele>58.3</ele>
        <time>2018-09-15T11:55:56Z</time>
      </trkpt>
      <trkpt lat="43.3945840" lon="-6.0073830">
        <ele>58.3</ele>
        <time>2018-09-15T11:55:57Z</time>
      </trkpt>
      <trkpt lat="43.3946390" lon="-6.0074420">
        <ele>58.2</ele>
        <time>2018-09-15T11:55:58Z</time>
      </trkpt>
      <trkpt lat="43.3946870" lon="-6.0075050">
        <ele>58.2</ele>
        <time>2018-09-15T11:55:59Z</time>
      </trkpt>
      <trkpt lat="43.3947330" lon="-6.0075740">
        <ele>58.1</ele>
        <time>2018-09-15T11:56:00Z</time>
      </trkpt>
      <trkpt lat="43.3947850" lon="-6.0076300">
        <ele>58.1</ele>
        <time>2018-09-15T11:56:01Z</time>
      </trkpt>
      <trkpt lat="43.3948410" lon="-6.0076880">
        <ele>58.0</ele>
        <time>2018-09-15T11:56:02Z</time>
      </trkpt>
      <trkpt lat="43.3948860" lon="-6.0077540">
        <ele>57.9</ele>
        <time>2018-09-15T11:56:03Z</time>
      </trkpt>
      <trkpt lat="43.3949420" lon="-6.0078250">
        <ele>57.8</ele>
        <time>2018-09-15T11:56:04Z</time>
      </trkpt>
      <trkpt lat="43.3950030" lon="-6.0078760">
        <ele>57.7</ele>
        <time>2018-09-15T11:56:05Z</time>
      </trkpt>
      <trkpt lat="43.3950490" lon="-6.0079360">
        <ele>57.6</ele>
        <time>2018-09-15T11:56:06Z</time>
      </trkpt>
      <trkpt lat="43.3951030" lon="-6.0080070">
        <ele>57.5</ele>
        <time>2018-09-15T11:56:07Z</time>
      </trkpt>
      <trkpt lat="43.3951560" lon="-6.0080790">
        <ele>57.4</ele>
        <time>2018-09-15T11:56:08Z</time>
      </trkpt>
      <trkpt lat="43.3952080" lon="-6.0081470">
        <ele>57.3</ele>
        <time>2018-09-15T11:56:09Z</time>
      </trkpt>
      <trkpt lat="43.3952670" lon="-6.0082200">
        <ele>57.1</ele>
        <time>2018-09-15T11:56:10Z</time>
      </trkpt>
      <trkpt lat="43.3953200" lon="-6.0082800">
        <ele>57.0</ele>
        <time>2018-09-15T11:56:11Z</time>
      </trkpt>
      <trkpt lat="43.3953730" lon="-6.0083470">
        <ele>56.8</ele>
        <time>2018-09-15T11:56:12Z</time>
      </trkpt>
      <trkpt lat="43.3954230" lon="-6.0084200">
        <ele>56.7</ele>
        <time>2018-09-15T11:56:13Z</time>
      </trkpt>
      <trkpt lat="43.3954760" lon="-6.0084870">
        <ele>56.4</ele>
        <time>2018-09-15T11:56:14Z</time>
      </trkpt>
      <trkpt lat="43.3955270" lon="-6.0085560">
        <ele>55.8</ele>
        <time>2018-09-15T11:56:15Z</time>
      </trkpt>
      <trkpt lat="43.3955800" lon="-6.0086200">
        <ele>55.2</ele>
        <time>2018-09-15T11:56:16Z</time>
      </trkpt>
      <trkpt lat="43.3956320" lon="-6.0086820">
        <ele>54.8</ele>
        <time>2018-09-15T11:56:17Z</time>
      </trkpt>
      <trkpt lat="43.3956800" lon="-6.0087530">
        <ele>54.6</ele>
        <time>2018-09-15T11:56:18Z</time>
      </trkpt>
      <trkpt lat="43.3957360" lon="-6.0088240">
        <ele>54.5</ele>
        <time>2018-09-15T11:56:19Z</time>
      </trkpt>
      <trkpt lat="43.3957950" lon="-6.0088760">
        <ele>54.3</ele>
        <time>2018-09-15T11:56:20Z</time>
      </trkpt>
      <trkpt lat="43.3958520" lon="-6.0089350">
        <ele>54.2</ele>
        <time>2018-09-15T11:56:21Z</time>
      </trkpt>
      <trkpt lat="43.3959020" lon="-6.0090000">
        <ele>54.1</ele>
        <time>2018-09-15T11:56:22Z</time>
      </trkpt>
      <trkpt lat="43.3959560" lon="-6.0090670">
        <ele>53.9</ele>
        <time>2018-09-15T11:56:23Z</time>
      </trkpt>
      <trkpt lat="43.3960100" lon="-6.0091210">
        <ele>53.8</ele>
        <time>2018-09-15T11:56:24Z</time>
      </trkpt>
      <trkpt lat="43.3960650" lon="-6.0091930">
        <ele>53.7</ele>
        <time>2018-09-15T11:56:25Z</time>
      </trkpt>
      <trkpt lat="43.3961140" lon="-6.0092510">
        <ele>53.6</ele>
        <time>2018-09-15T11:56:26Z</time>
      </trkpt>
      <trkpt lat="43.3961550" lon="-6.0093100">
        <ele>53.5</ele>
        <time>2018-09-15T11:56:27Z</time>
      </trkpt>
      <trkpt lat="43.3961980" lon="-6.0093760">
        <ele>53.5</ele>
        <time>2018-09-15T11:56:28Z</time>
      </trkpt>
      <trkpt lat="43.3962500" lon="-6.0094430">
        <ele>53.4</ele>
        <time>2018-09-15T11:56:29Z</time>
      </trkpt>
      <trkpt lat="43.3963020" lon="-6.0094840">
        <ele>53.3</ele>
        <time>2018-09-15T11:56:30Z</time>
      </trkpt>
      <trkpt lat="43.3963470" lon="-6.0095400">
        <ele>53.2</ele>
        <time>2018-09-15T11:56:31Z</time>
      </trkpt>
      <trkpt lat="43.3963800" lon="-6.0095970">
        <ele>53.2</ele>
        <time>2018-09-15T11:56:32Z</time>
      </trkpt>
      <trkpt lat="43.3964270" lon="-6.0096540">
        <ele>53.1</ele>
        <time>2018-09-15T11:56:33Z</time>
      </trkpt>
      <trkpt lat="43.3964680" lon="-6.0097140">
        <ele>53.0</ele>
        <time>2018-09-15T11:56:34Z</time>
      </trkpt>
      <trkpt lat="43.3965090" lon="-6.0097700">
        <ele>53.0</ele>
        <time>2018-09-15T11:56:35Z</time>
      </trkpt>
      <trkpt lat="43.3965600" lon="-6.0098220">
        <ele>53.0</ele>
        <time>2018-09-15T11:56:36Z</time>
      </trkpt>
      <trkpt lat="43.3966040" lon="-6.0098700">
        <ele>53.0</ele>
        <time>2018-09-15T11:56:37Z</time>
      </trkpt>
      <trkpt lat="43.3966450" lon="-6.0099260">
        <ele>53.0</ele>
        <time>2018-09-15T11:56:38Z</time>
      </trkpt>
      <trkpt lat="43.3966890" lon="-6.0099800">
        <ele>53.0</ele>
        <time>2018-09-15T11:56:39Z</time>
      </trkpt>
      <trkpt lat="43.3967370" lon="-6.0100380">
        <ele>53.0</ele>
        <time>2018-09-15T11:56:40Z</time>
      </trkpt>
      <trkpt lat="43.3967760" lon="-6.0100930">
        <ele>53.0</ele>
        <time>2018-09-15T11:56:41Z</time>
      </trkpt>
      <trkpt lat="43.3968150" lon="-6.0101480">
        <ele>53.0</ele>
        <time>2018-09-15T11:56:42Z</time>
      </trkpt>
      <trkpt lat="43.3968540" lon="-6.0102070">
        <ele>53.0</ele>
        <time>2018-09-15T11:56:43Z</time>
      </trkpt>
      <trkpt lat="43.3968900" lon="-6.0102710">
        <ele>53.1</ele>
        <time>2018-09-15T11:56:44Z</time>
      </trkpt>
      <trkpt lat="43.3969230" lon="-6.0103370">
        <ele>53.1</ele>
        <time>2018-09-15T11:56:45Z</time>
      </trkpt>
      <trkpt lat="43.3969610" lon="-6.0103980">
        <ele>53.1</ele>
        <time>2018-09-15T11:56:46Z</time>
      </trkpt>
      <trkpt lat="43.3969900" lon="-6.0104680">
        <ele>53.1</ele>
        <time>2018-09-15T11:56:47Z</time>
      </trkpt>
      <trkpt lat="43.3970160" lon="-6.0105420">
        <ele>53.1</ele>
        <time>2018-09-15T11:56:48Z</time>
      </trkpt>
      <trkpt lat="43.3970380" lon="-6.0106210">
        <ele>53.2</ele>
        <time>2018-09-15T11:56:49Z</time>
      </trkpt>
      <trkpt lat="43.3970620" lon="-6.0106980">
        <ele>53.3</ele>
        <time>2018-09-15T11:56:50Z</time>
      </trkpt>
      <trkpt lat="43.3970860" lon="-6.0107700">
        <ele>53.3</ele>
        <time>2018-09-15T11:56:51Z</time>
      </trkpt>
      <trkpt lat="43.3971130" lon="-6.0108430">
        <ele>53.4</ele>
        <time>2018-09-15T11:56:52Z</time>
      </trkpt>
      <trkpt lat="43.3971380" lon="-6.0109210">
        <ele>53.4</ele>
        <time>2018-09-15T11:56:53Z</time>
      </trkpt>
      <trkpt lat="43.3971640" lon="-6.0109940">
        <ele>53.5</ele>
        <time>2018-09-15T11:56:54Z</time>
      </trkpt>
      <trkpt lat="43.3971820" lon="-6.0110680">
        <ele>53.9</ele>
        <time>2018-09-15T11:56:55Z</time>
      </trkpt>
      <trkpt lat="43.3971970" lon="-6.0111360">
        <ele>54.5</ele>
        <time>2018-09-15T11:56:56Z</time>
      </trkpt>
      <trkpt lat="43.3972180" lon="-6.0112680">
        <ele>55.5</ele>
        <time>2018-09-15T11:56:57Z</time>
      </trkpt>
      <trkpt lat="43.3972310" lon="-6.0113290">
        <ele>56.0</ele>
        <time>2018-09-15T11:56:58Z</time>
      </trkpt>
      <trkpt lat="43.3972410" lon="-6.0113900">
        <ele>56.8</ele>
        <time>2018-09-15T11:56:59Z</time>
      </trkpt>
      <trkpt lat="43.3972530" lon="-6.0114440">
        <ele>57.2</ele>
        <time>2018-09-15T11:57:00Z</time>
      </trkpt>
      <trkpt lat="43.3972620" lon="-6.0114970">
        <ele>57.5</ele>
        <time>2018-09-15T11:57:01Z</time>
      </trkpt>
      <trkpt lat="43.3972670" lon="-6.0115470">
        <ele>58.2</ele>
        <time>2018-09-15T11:57:02Z</time>
      </trkpt>
      <trkpt lat="43.3972620" lon="-6.0116030">
        <ele>58.8</ele>
        <time>2018-09-15T11:57:03Z</time>
      </trkpt>
      <trkpt lat="43.3972640" lon="-6.0116640">
        <ele>59.2</ele>
        <time>2018-09-15T11:57:04Z</time>
      </trkpt>
      <trkpt lat="43.3972710" lon="-6.0117190">
        <ele>59.4</ele>
        <time>2018-09-15T11:57:05Z</time>
      </trkpt>
      <trkpt lat="43.3972810" lon="-6.0117330">
        <ele>59.5</ele>
        <time>2018-09-15T11:57:06Z</time>
      </trkpt>
      <trkpt lat="43.3972840" lon="-6.0117540">
        <ele>59.6</ele>
        <time>2018-09-15T11:57:07Z</time>
      </trkpt>
      <trkpt lat="43.3972850" lon="-6.0117800">
        <ele>59.8</ele>
        <time>2018-09-15T11:57:08Z</time>
      </trkpt>
      <trkpt lat="43.3972770" lon="-6.0118880">
        <ele>60.5</ele>
        <time>2018-09-15T11:57:09Z</time>
      </trkpt>
      <trkpt lat="43.3972880" lon="-6.0119500">
        <ele>60.6</ele>
        <time>2018-09-15T11:57:10Z</time>
      </trkpt>
      <trkpt lat="43.3972880" lon="-6.0120210">
        <ele>60.7</ele>
        <time>2018-09-15T11:57:11Z</time>
      </trkpt>
      <trkpt lat="43.3972830" lon="-6.0120850">
        <ele>60.8</ele>
        <time>2018-09-15T11:57:12Z</time>
      </trkpt>
      <trkpt lat="43.3972880" lon="-6.0121380">
        <ele>60.8</ele>
        <time>2018-09-15T11:57:13Z</time>
      </trkpt>
      <trkpt lat="43.3972890" lon="-6.0121980">
        <ele>60.9</ele>
        <time>2018-09-15T11:57:14Z</time>
      </trkpt>
      <trkpt lat="43.3972910" lon="-6.0122530">
        <ele>60.9</ele>
        <time>2018-09-15T11:57:15Z</time>
      </trkpt>
      <trkpt lat="43.3972800" lon="-6.0123140">
        <ele>60.9</ele>
        <time>2018-09-15T11:57:16Z</time>
      </trkpt>
      <trkpt lat="43.3972780" lon="-6.0123730">
        <ele>61.0</ele>
        <time>2018-09-15T11:57:17Z</time>
      </trkpt>
      <trkpt lat="43.3972790" lon="-6.0124310">
        <ele>61.0</ele>
        <time>2018-09-15T11:57:18Z</time>
      </trkpt>
      <trkpt lat="43.3972760" lon="-6.0124990">
        <ele>61.1</ele>
        <time>2018-09-15T11:57:19Z</time>
      </trkpt>
      <trkpt lat="43.3972780" lon="-6.0125630">
        <ele>61.2</ele>
        <time>2018-09-15T11:57:20Z</time>
      </trkpt>
      <trkpt lat="43.3972750" lon="-6.0126220">
        <ele>61.2</ele>
        <time>2018-09-15T11:57:21Z</time>
      </trkpt>
      <trkpt lat="43.3972860" lon="-6.0126930">
        <ele>61.3</ele>
        <time>2018-09-15T11:57:22Z</time>
      </trkpt>
      <trkpt lat="43.3972790" lon="-6.0127630">
        <ele>61.4</ele>
        <time>2018-09-15T11:57:23Z</time>
      </trkpt>
      <trkpt lat="43.3972820" lon="-6.0128090">
        <ele>61.4</ele>
        <time>2018-09-15T11:57:24Z</time>
      </trkpt>
      <trkpt lat="43.3972820" lon="-6.0128690">
        <ele>61.5</ele>
        <time>2018-09-15T11:57:25Z</time>
      </trkpt>
      <trkpt lat="43.3972810" lon="-6.0129360">
        <ele>61.6</ele>
        <time>2018-09-15T11:57:26Z</time>
      </trkpt>
      <trkpt lat="43.3972840" lon="-6.0129930">
        <ele>61.6</ele>
        <time>2018-09-15T11:57:27Z</time>
      </trkpt>
      <trkpt lat="43.3972860" lon="-6.0130520">
        <ele>61.8</ele>
        <time>2018-09-15T11:57:28Z</time>
      </trkpt>
      <trkpt lat="43.3972870" lon="-6.0131100">
        <ele>62.1</ele>
        <time>2018-09-15T11:57:29Z</time>
      </trkpt>
      <trkpt lat="43.3972820" lon="-6.0131700">
        <ele>62.4</ele>
        <time>2018-09-15T11:57:30Z</time>
      </trkpt>
      <trkpt lat="43.3972810" lon="-6.0132310">
        <ele>62.5</ele>
        <time>2018-09-15T11:57:31Z</time>
      </trkpt>
      <trkpt lat="43.3972670" lon="-6.0132900">
        <ele>62.6</ele>
        <time>2018-09-15T11:57:32Z</time>
      </trkpt>
      <trkpt lat="43.3972510" lon="-6.0133450">
        <ele>62.7</ele>
        <time>2018-09-15T11:57:33Z</time>
      </trkpt>
      <trkpt lat="43.3972450" lon="-6.0133960">
        <ele>62.8</ele>
        <time>2018-09-15T11:57:34Z</time>
      </trkpt>
      <trkpt lat="43.3972310" lon="-6.0134550">
        <ele>62.8</ele>
        <time>2018-09-15T11:57:35Z</time>
      </trkpt>
      <trkpt lat="43.3972210" lon="-6.0135200">
        <ele>62.9</ele>
        <time>2018-09-15T11:57:36Z</time>
      </trkpt>
      <trkpt lat="43.3972110" lon="-6.0135840">
        <ele>63.0</ele>
        <time>2018-09-15T11:57:37Z</time>
      </trkpt>
      <trkpt lat="43.3972020" lon="-6.0136450">
        <ele>63.1</ele>
        <time>2018-09-15T11:57:38Z</time>
      </trkpt>
      <trkpt lat="43.3971930" lon="-6.0137080">
        <ele>63.2</ele>
        <time>2018-09-15T11:57:39Z</time>
      </trkpt>
      <trkpt lat="43.3971890" lon="-6.0137750">
        <ele>63.3</ele>
        <time>2018-09-15T11:57:40Z</time>
      </trkpt>
      <trkpt lat="43.3972120" lon="-6.0138500">
        <ele>63.4</ele>
        <time>2018-09-15T11:57:41Z</time>
      </trkpt>
      <trkpt lat="43.3972060" lon="-6.0139120">
        <ele>63.5</ele>
        <time>2018-09-15T11:57:42Z</time>
      </trkpt>
      <trkpt lat="43.3972190" lon="-6.0139690">
        <ele>63.7</ele>
        <time>2018-09-15T11:57:43Z</time>
      </trkpt>
      <trkpt lat="43.3972460" lon="-6.0140200">
        <ele>64.0</ele>
        <time>2018-09-15T11:57:44Z</time>
      </trkpt>
      <trkpt lat="43.3972810" lon="-6.0140480">
        <ele>64.3</ele>
        <time>2018-09-15T11:57:45Z</time>
      </trkpt>
      <trkpt lat="43.3973210" lon="-6.0140550">
        <ele>64.4</ele>
        <time>2018-09-15T11:57:46Z</time>
      </trkpt>
      <trkpt lat="43.3973570" lon="-6.0140430">
        <ele>64.4</ele>
        <time>2018-09-15T11:57:47Z</time>
      </trkpt>
      <trkpt lat="43.3973980" lon="-6.0140250">
        <ele>64.5</ele>
        <time>2018-09-15T11:57:48Z</time>
      </trkpt>
      <trkpt lat="43.3974420" lon="-6.0140050">
        <ele>64.5</ele>
        <time>2018-09-15T11:57:49Z</time>
      </trkpt>
      <trkpt lat="43.3974870" lon="-6.0139800">
        <ele>64.5</ele>
        <time>2018-09-15T11:57:50Z</time>
      </trkpt>
      <trkpt lat="43.3975360" lon="-6.0139560">
        <ele>64.5</ele>
        <time>2018-09-15T11:57:51Z</time>
      </trkpt>
      <trkpt lat="43.3975920" lon="-6.0139370">
        <ele>64.5</ele>
        <time>2018-09-15T11:57:52Z</time>
      </trkpt>
      <trkpt lat="43.3976480" lon="-6.0139190">
        <ele>64.5</ele>
        <time>2018-09-15T11:57:53Z</time>
      </trkpt>
      <trkpt lat="43.3977090" lon="-6.0138980">
        <ele>64.4</ele>
        <time>2018-09-15T11:57:54Z</time>
      </trkpt>
      <trkpt lat="43.3977780" lon="-6.0138670">
        <ele>64.3</ele>
        <time>2018-09-15T11:57:55Z</time>
      </trkpt>
      <trkpt lat="43.3978420" lon="-6.0138470">
        <ele>64.2</ele>
        <time>2018-09-15T11:57:56Z</time>
      </trkpt>
      <trkpt lat="43.3979140" lon="-6.0138220">
        <ele>64.1</ele>
        <time>2018-09-15T11:57:57Z</time>
      </trkpt>
      <trkpt lat="43.3979860" lon="-6.0137870">
        <ele>63.8</ele>
        <time>2018-09-15T11:57:58Z</time>
      </trkpt>
      <trkpt lat="43.3980520" lon="-6.0137500">
        <ele>63.4</ele>
        <time>2018-09-15T11:57:59Z</time>
      </trkpt>
      <trkpt lat="43.3981180" lon="-6.0137400">
        <ele>63.0</ele>
        <time>2018-09-15T11:58:00Z</time>
      </trkpt>
      <trkpt lat="43.3981910" lon="-6.0137140">
        <ele>62.5</ele>
        <time>2018-09-15T11:58:01Z</time>
      </trkpt>
      <trkpt lat="43.3982700" lon="-6.0136920">
        <ele>61.9</ele>
        <time>2018-09-15T11:58:02Z</time>
      </trkpt>
      <trkpt lat="43.3983510" lon="-6.0136680">
        <ele>61.3</ele>
        <time>2018-09-15T11:58:03Z</time>
      </trkpt>
      <trkpt lat="43.3984200" lon="-6.0136600">
        <ele>60.7</ele>
        <time>2018-09-15T11:58:04Z</time>
      </trkpt>
      <trkpt lat="43.3984890" lon="-6.0136660">
        <ele>60.2</ele>
        <time>2018-09-15T11:58:05Z</time>
      </trkpt>
      <trkpt lat="43.3985580" lon="-6.0136910">
        <ele>59.6</ele>
        <time>2018-09-15T11:58:06Z</time>
      </trkpt>
      <trkpt lat="43.3986320" lon="-6.0137350">
        <ele>59.0</ele>
        <time>2018-09-15T11:58:07Z</time>
      </trkpt>
      <trkpt lat="43.3987000" lon="-6.0137970">
        <ele>58.3</ele>
        <time>2018-09-15T11:58:08Z</time>
      </trkpt>
      <trkpt lat="43.3987710" lon="-6.0138580">
        <ele>57.7</ele>
        <time>2018-09-15T11:58:09Z</time>
      </trkpt>
      <trkpt lat="43.3988440" lon="-6.0139190">
        <ele>57.0</ele>
        <time>2018-09-15T11:58:10Z</time>
      </trkpt>
      <trkpt lat="43.3989170" lon="-6.0139660">
        <ele>56.4</ele>
        <time>2018-09-15T11:58:11Z</time>
      </trkpt>
      <trkpt lat="43.3989860" lon="-6.0140120">
        <ele>55.9</ele>
        <time>2018-09-15T11:58:12Z</time>
      </trkpt>
      <trkpt lat="43.3990450" lon="-6.0140590">
        <ele>55.4</ele>
        <time>2018-09-15T11:58:13Z</time>
      </trkpt>
      <trkpt lat="43.3990950" lon="-6.0141300">
        <ele>55.1</ele>
        <time>2018-09-15T11:58:14Z</time>
      </trkpt>
      <trkpt lat="43.3991300" lon="-6.0142080">
        <ele>56.0</ele>
        <time>2018-09-15T11:58:15Z</time>
      </trkpt>
      <trkpt lat="43.3991630" lon="-6.0142910">
        <ele>56.9</ele>
        <time>2018-09-15T11:58:16Z</time>
      </trkpt>
      <trkpt lat="43.3991930" lon="-6.0143670">
        <ele>57.7</ele>
        <time>2018-09-15T11:58:17Z</time>
      </trkpt>
      <trkpt lat="43.3992130" lon="-6.0144130">
        <ele>58.2</ele>
        <time>2018-09-15T11:58:18Z</time>
      </trkpt>
      <trkpt lat="43.3992220" lon="-6.0144270">
        <ele>58.4</ele>
        <time>2018-09-15T11:58:19Z</time>
      </trkpt>
      <trkpt lat="43.3992290" lon="-6.0144420">
        <ele>58.6</ele>
        <time>2018-09-15T11:58:20Z</time>
      </trkpt>
      <trkpt lat="43.3992330" lon="-6.0144660">
        <ele>58.8</ele>
        <time>2018-09-15T11:58:21Z</time>
      </trkpt>
      <trkpt lat="43.3992340" lon="-6.0144820">
        <ele>59.0</ele>
        <time>2018-09-15T11:58:22Z</time>
      </trkpt>
      <trkpt lat="43.3992270" lon="-6.0144970">
        <ele>59.2</ele>
        <time>2018-09-15T11:58:23Z</time>
      </trkpt>
      <trkpt lat="43.3992200" lon="-6.0145060">
        <ele>59.3</ele>
        <time>2018-09-15T11:58:24Z</time>
      </trkpt>
      <trkpt lat="43.3992150" lon="-6.0145150">
        <ele>59.4</ele>
        <time>2018-09-15T11:58:25Z</time>
      </trkpt>
      <trkpt lat="43.3992120" lon="-6.0145230">
        <ele>59.5</ele>
        <time>2018-09-15T11:58:26Z</time>
      </trkpt>
      <trkpt lat="43.3992140" lon="-6.0145240">
        <ele>59.5</ele>
        <time>2018-09-15T11:58:27Z</time>
      </trkpt>
      <trkpt lat="43.3992150" lon="-6.0145250">
        <ele>59.5</ele>
        <time>2018-09-15T11:58:28Z</time>
      </trkpt>
      <trkpt lat="43.3992240" lon="-6.0145190">
        <ele>59.7</ele>
        <time>2018-09-15T11:59:06Z</time>
      </trkpt>
      <trkpt lat="43.3992240" lon="-6.0145190">
        <ele>59.7</ele>
        <time>2018-09-15T11:59:07Z</time>
      </trkpt>
      <trkpt lat="43.3992240" lon="-6.0145190">
        <ele>59.7</ele>
        <time>2018-09-15T11:59:08Z</time>
      </trkpt>
      <trkpt lat="43.3992240" lon="-6.0145190">
        <ele>59.7</ele>
        <time>2018-09-15T11:59:09Z</time>
      </trkpt>
      <trkpt lat="43.3992170" lon="-6.0145210">
        <ele>59.7</ele>
        <time>2018-09-15T11:59:10Z</time>
      </trkpt>
      <trkpt lat="43.3992100" lon="-6.0145120">
        <ele>59.9</ele>
        <time>2018-09-15T11:59:11Z</time>
      </trkpt>
      <trkpt lat="43.3992030" lon="-6.0145020">
        <ele>60.0</ele>
        <time>2018-09-15T11:59:12Z</time>
      </trkpt>
      <trkpt lat="43.3991950" lon="-6.0144840">
        <ele>60.0</ele>
        <time>2018-09-15T11:59:13Z</time>
      </trkpt>
      <trkpt lat="43.3991970" lon="-6.0144660">
        <ele>60.0</ele>
        <time>2018-09-15T11:59:14Z</time>
      </trkpt>
      <trkpt lat="43.3992070" lon="-6.0144510">
        <ele>60.0</ele>
        <time>2018-09-15T11:59:15Z</time>
      </trkpt>
      <trkpt lat="43.3992280" lon="-6.0144430">
        <ele>59.9</ele>
        <time>2018-09-15T11:59:16Z</time>
      </trkpt>
      <trkpt lat="43.3992510" lon="-6.0144440">
        <ele>59.9</ele>
        <time>2018-09-15T11:59:17Z</time>
      </trkpt>
      <trkpt lat="43.3992690" lon="-6.0144440">
        <ele>59.9</ele>
        <time>2018-09-15T11:59:18Z</time>
      </trkpt>
      <trkpt lat="43.3992910" lon="-6.0144460">
        <ele>59.9</ele>
        <time>2018-09-15T11:59:19Z</time>
      </trkpt>
      <trkpt lat="43.3993190" lon="-6.0144460">
        <ele>59.8</ele>
        <time>2018-09-15T11:59:20Z</time>
      </trkpt>
      <trkpt lat="43.3993470" lon="-6.0144450">
        <ele>59.8</ele>
        <time>2018-09-15T11:59:21Z</time>
      </trkpt>
      <trkpt lat="43.3993720" lon="-6.0144460">
        <ele>59.8</ele>
        <time>2018-09-15T11:59:22Z</time>
      </trkpt>
      <trkpt lat="43.3994050" lon="-6.0144480">
        <ele>59.8</ele>
        <time>2018-09-15T11:59:23Z</time>
      </trkpt>
      <trkpt lat="43.3994820" lon="-6.0144560">
        <ele>59.7</ele>
        <time>2018-09-15T11:59:24Z</time>
      </trkpt>
      <trkpt lat="43.3995190" lon="-6.0144640">
        <ele>59.7</ele>
        <time>2018-09-15T11:59:25Z</time>
      </trkpt>
      <trkpt lat="43.3995580" lon="-6.0144730">
        <ele>59.6</ele>
        <time>2018-09-15T11:59:26Z</time>
      </trkpt>
      <trkpt lat="43.3995990" lon="-6.0144850">
        <ele>59.6</ele>
        <time>2018-09-15T11:59:27Z</time>
      </trkpt>
      <trkpt lat="43.3996400" lon="-6.0144950">
        <ele>59.6</ele>
        <time>2018-09-15T11:59:28Z</time>
      </trkpt>
      <trkpt lat="43.3996810" lon="-6.0145060">
        <ele>59.6</ele>
        <time>2018-09-15T11:59:29Z</time>
      </trkpt>
      <trkpt lat="43.3997240" lon="-6.0145130">
        <ele>59.5</ele>
        <time>2018-09-15T11:59:30Z</time>
      </trkpt>
      <trkpt lat="43.3997660" lon="-6.0145170">
        <ele>59.5</ele>
        <time>2018-09-15T11:59:31Z</time>
      </trkpt>
      <trkpt lat="43.3998080" lon="-6.0145170">
        <ele>59.5</ele>
        <time>2018-09-15T11:59:32Z</time>
      </trkpt>
      <trkpt lat="43.3998480" lon="-6.0145080">
        <ele>59.4</ele>
        <time>2018-09-15T11:59:33Z</time>
      </trkpt>
      <trkpt lat="43.3998880" lon="-6.0144890">
        <ele>59.4</ele>
        <time>2018-09-15T11:59:34Z</time>
      </trkpt>
      <trkpt lat="43.3999290" lon="-6.0144640">
        <ele>59.4</ele>
        <time>2018-09-15T11:59:35Z</time>
      </trkpt>
      <trkpt lat="43.3999710" lon="-6.0144220">
        <ele>59.4</ele>
        <time>2018-09-15T11:59:36Z</time>
      </trkpt>
      <trkpt lat="43.4000170" lon="-6.0144080">
        <ele>59.4</ele>
        <time>2018-09-15T11:59:37Z</time>
      </trkpt>
      <trkpt lat="43.4000550" lon="-6.0143910">
        <ele>59.4</ele>
        <time>2018-09-15T11:59:38Z</time>
      </trkpt>
      <trkpt lat="43.4000960" lon="-6.0143790">
        <ele>59.4</ele>
        <time>2018-09-15T11:59:39Z</time>
      </trkpt>
      <trkpt lat="43.4001350" lon="-6.0143640">
        <ele>59.5</ele>
        <time>2018-09-15T11:59:40Z</time>
      </trkpt>
      <trkpt lat="43.4001750" lon="-6.0143510">
        <ele>59.5</ele>
        <time>2018-09-15T11:59:41Z</time>
      </trkpt>
      <trkpt lat="43.4002210" lon="-6.0143470">
        <ele>59.6</ele>
        <time>2018-09-15T11:59:42Z</time>
      </trkpt>
      <trkpt lat="43.4002630" lon="-6.0143400">
        <ele>59.6</ele>
        <time>2018-09-15T11:59:43Z</time>
      </trkpt>
      <trkpt lat="43.4003080" lon="-6.0143390">
        <ele>59.7</ele>
        <time>2018-09-15T11:59:44Z</time>
      </trkpt>
      <trkpt lat="43.4003530" lon="-6.0143360">
        <ele>59.9</ele>
        <time>2018-09-15T11:59:45Z</time>
      </trkpt>
      <trkpt lat="43.4003950" lon="-6.0143280">
        <ele>60.0</ele>
        <time>2018-09-15T11:59:46Z</time>
      </trkpt>
      <trkpt lat="43.4004430" lon="-6.0143200">
        <ele>60.1</ele>
        <time>2018-09-15T11:59:47Z</time>
      </trkpt>
      <trkpt lat="43.4004830" lon="-6.0143150">
        <ele>60.2</ele>
        <time>2018-09-15T11:59:48Z</time>
      </trkpt>
      <trkpt lat="43.4005250" lon="-6.0143120">
        <ele>60.3</ele>
        <time>2018-09-15T11:59:49Z</time>
      </trkpt>
      <trkpt lat="43.4005680" lon="-6.0143040">
        <ele>60.4</ele>
        <time>2018-09-15T11:59:50Z</time>
      </trkpt>
      <trkpt lat="43.4006110" lon="-6.0142950">
        <ele>60.4</ele>
        <time>2018-09-15T11:59:51Z</time>
      </trkpt>
      <trkpt lat="43.4006520" lon="-6.0142870">
        <ele>60.4</ele>
        <time>2018-09-15T11:59:52Z</time>
      </trkpt>
      <trkpt lat="43.4006930" lon="-6.0142810">
        <ele>60.5</ele>
        <time>2018-09-15T11:59:53Z</time>
      </trkpt>
      <trkpt lat="43.4007350" lon="-6.0142740">
        <ele>60.5</ele>
        <time>2018-09-15T11:59:54Z</time>
      </trkpt>
      <trkpt lat="43.4007780" lon="-6.0142630">
        <ele>60.5</ele>
        <time>2018-09-15T11:59:55Z</time>
      </trkpt>
      <trkpt lat="43.4008210" lon="-6.0142600">
        <ele>60.6</ele>
        <time>2018-09-15T11:59:56Z</time>
      </trkpt>
      <trkpt lat="43.4008610" lon="-6.0142540">
        <ele>60.6</ele>
        <time>2018-09-15T11:59:57Z</time>
      </trkpt>
      <trkpt lat="43.4009040" lon="-6.0142520">
        <ele>60.6</ele>
        <time>2018-09-15T11:59:58Z</time>
      </trkpt>
      <trkpt lat="43.4009460" lon="-6.0142470">
        <ele>60.7</ele>
        <time>2018-09-15T11:59:59Z</time>
      </trkpt>
      <trkpt lat="43.4009910" lon="-6.0142380">
        <ele>60.7</ele>
        <time>2018-09-15T12:00:00Z</time>
      </trkpt>
      <trkpt lat="43.4010350" lon="-6.0142340">
        <ele>60.8</ele>
        <time>2018-09-15T12:00:01Z</time>
      </trkpt>
      <trkpt lat="43.4010850" lon="-6.0142270">
        <ele>60.8</ele>
        <time>2018-09-15T12:00:02Z</time>
      </trkpt>
      <trkpt lat="43.4011330" lon="-6.0142150">
        <ele>60.9</ele>
        <time>2018-09-15T12:00:03Z</time>
      </trkpt>
      <trkpt lat="43.4011770" lon="-6.0142090">
        <ele>61.0</ele>
        <time>2018-09-15T12:00:04Z</time>
      </trkpt>
      <trkpt lat="43.4012210" lon="-6.0142030">
        <ele>61.2</ele>
        <time>2018-09-15T12:00:05Z</time>
      </trkpt>
      <trkpt lat="43.4012650" lon="-6.0141890">
        <ele>61.4</ele>
        <time>2018-09-15T12:00:06Z</time>
      </trkpt>
      <trkpt lat="43.4013050" lon="-6.0141740">
        <ele>61.5</ele>
        <time>2018-09-15T12:00:07Z</time>
      </trkpt>
      <trkpt lat="43.4013480" lon="-6.0141620">
        <ele>61.6</ele>
        <time>2018-09-15T12:00:08Z</time>
      </trkpt>
      <trkpt lat="43.4013870" lon="-6.0141500">
        <ele>61.7</ele>
        <time>2018-09-15T12:00:09Z</time>
      </trkpt>
      <trkpt lat="43.4014290" lon="-6.0141350">
        <ele>61.8</ele>
        <time>2018-09-15T12:00:10Z</time>
      </trkpt>
      <trkpt lat="43.4014700" lon="-6.0141170">
        <ele>61.9</ele>
        <time>2018-09-15T12:00:11Z</time>
      </trkpt>
      <trkpt lat="43.4015060" lon="-6.0141000">
        <ele>62.0</ele>
        <time>2018-09-15T12:00:12Z</time>
      </trkpt>
      <trkpt lat="43.4015420" lon="-6.0140810">
        <ele>62.1</ele>
        <time>2018-09-15T12:00:13Z</time>
      </trkpt>
      <trkpt lat="43.4015600" lon="-6.0140750">
        <ele>62.2</ele>
        <time>2018-09-15T12:00:14Z</time>
      </trkpt>
      <trkpt lat="43.4015870" lon="-6.0140690">
        <ele>62.3</ele>
        <time>2018-09-15T12:00:15Z</time>
      </trkpt>
      <trkpt lat="43.4016150" lon="-6.0140590">
        <ele>62.5</ele>
        <time>2018-09-15T12:00:16Z</time>
      </trkpt>
      <trkpt lat="43.4016430" lon="-6.0140440">
        <ele>62.6</ele>
        <time>2018-09-15T12:00:17Z</time>
      </trkpt>
      <trkpt lat="43.4017040" lon="-6.0140020">
        <ele>63.0</ele>
        <time>2018-09-15T12:00:18Z</time>
      </trkpt>
      <trkpt lat="43.4017210" lon="-6.0139870">
        <ele>63.1</ele>
        <time>2018-09-15T12:00:19Z</time>
      </trkpt>
      <trkpt lat="43.4017650" lon="-6.0139490">
        <ele>63.3</ele>
        <time>2018-09-15T12:00:20Z</time>
      </trkpt>
      <trkpt lat="43.4017960" lon="-6.0139220">
        <ele>63.4</ele>
        <time>2018-09-15T12:00:21Z</time>
      </trkpt>
      <trkpt lat="43.4018280" lon="-6.0138930">
        <ele>63.6</ele>
        <time>2018-09-15T12:00:22Z</time>
      </trkpt>
      <trkpt lat="43.4018600" lon="-6.0138630">
        <ele>63.8</ele>
        <time>2018-09-15T12:00:23Z</time>
      </trkpt>
      <trkpt lat="43.4018920" lon="-6.0138350">
        <ele>64.0</ele>
        <time>2018-09-15T12:00:24Z</time>
      </trkpt>
      <trkpt lat="43.4019260" lon="-6.0138090">
        <ele>64.2</ele>
        <time>2018-09-15T12:00:25Z</time>
      </trkpt>
      <trkpt lat="43.4019620" lon="-6.0137860">
        <ele>64.3</ele>
        <time>2018-09-15T12:00:26Z</time>
      </trkpt>
      <trkpt lat="43.4019990" lon="-6.0137650">
        <ele>64.4</ele>
        <time>2018-09-15T12:00:27Z</time>
      </trkpt>
      <trkpt lat="43.4020350" lon="-6.0137500">
        <ele>64.5</ele>
        <time>2018-09-15T12:00:28Z</time>
      </trkpt>
      <trkpt lat="43.4020720" lon="-6.0137420">
        <ele>64.6</ele>
        <time>2018-09-15T12:00:29Z</time>
      </trkpt>
      <trkpt lat="43.4021090" lon="-6.0137480">
        <ele>64.6</ele>
        <time>2018-09-15T12:00:30Z</time>
      </trkpt>
      <trkpt lat="43.4021260" lon="-6.0137580">
        <ele>64.6</ele>
        <time>2018-09-15T12:00:31Z</time>
      </trkpt>
      <trkpt lat="43.4021480" lon="-6.0137770">
        <ele>64.6</ele>
        <time>2018-09-15T12:00:32Z</time>
      </trkpt>
      <trkpt lat="43.4021720" lon="-6.0138030">
        <ele>64.6</ele>
        <time>2018-09-15T12:00:33Z</time>
      </trkpt>
      <trkpt lat="43.4021920" lon="-6.0138240">
        <ele>64.6</ele>
        <time>2018-09-15T12:00:34Z</time>
      </trkpt>
      <trkpt lat="43.4022120" lon="-6.0138470">
        <ele>64.7</ele>
        <time>2018-09-15T12:00:35Z</time>
      </trkpt>
      <trkpt lat="43.4022320" lon="-6.0138690">
        <ele>64.7</ele>
        <time>2018-09-15T12:00:36Z</time>
      </trkpt>
      <trkpt lat="43.4022560" lon="-6.0138980">
        <ele>64.7</ele>
        <time>2018-09-15T12:00:37Z</time>
      </trkpt>
      <trkpt lat="43.4022790" lon="-6.0139250">
        <ele>64.8</ele>
        <time>2018-09-15T12:00:38Z</time>
      </trkpt>
      <trkpt lat="43.4022960" lon="-6.0139460">
        <ele>64.8</ele>
        <time>2018-09-15T12:00:39Z</time>
      </trkpt>
      <trkpt lat="43.4023130" lon="-6.0139650">
        <ele>64.9</ele>
        <time>2018-09-15T12:00:40Z</time>
      </trkpt>
      <trkpt lat="43.4023290" lon="-6.0139810">
        <ele>64.9</ele>
        <time>2018-09-15T12:00:41Z</time>
      </trkpt>
      <trkpt lat="43.4023440" lon="-6.0139950">
        <ele>64.9</ele>
        <time>2018-09-15T12:00:42Z</time>
      </trkpt>
      <trkpt lat="43.4023620" lon="-6.0140110">
        <ele>65.0</ele>
        <time>2018-09-15T12:00:43Z</time>
      </trkpt>
      <trkpt lat="43.4023780" lon="-6.0140250">
        <ele>65.1</ele>
        <time>2018-09-15T12:00:44Z</time>
      </trkpt>
      <trkpt lat="43.4023910" lon="-6.0140330">
        <ele>65.1</ele>
        <time>2018-09-15T12:00:45Z</time>
      </trkpt>
      <trkpt lat="43.4024050" lon="-6.0140380">
        <ele>65.2</ele>
        <time>2018-09-15T12:00:46Z</time>
      </trkpt>
      <trkpt lat="43.4024260" lon="-6.0140460">
        <ele>65.3</ele>
        <time>2018-09-15T12:00:47Z</time>
      </trkpt>
      <trkpt lat="43.4024490" lon="-6.0140470">
        <ele>65.5</ele>
        <time>2018-09-15T12:00:48Z</time>
      </trkpt>
      <trkpt lat="43.4024660" lon="-6.0140420">
        <ele>65.6</ele>
        <time>2018-09-15T12:00:49Z</time>
      </trkpt>
      <trkpt lat="43.4024900" lon="-6.0140340">
        <ele>66.1</ele>
        <time>2018-09-15T12:00:50Z</time>
      </trkpt>
      <trkpt lat="43.4025240" lon="-6.0140190">
        <ele>66.1</ele>
        <time>2018-09-15T12:00:51Z</time>
      </trkpt>
      <trkpt lat="43.4025570" lon="-6.0140010">
        <ele>66.2</ele>
        <time>2018-09-15T12:00:52Z</time>
      </trkpt>
      <trkpt lat="43.4025920" lon="-6.0139770">
        <ele>66.2</ele>
        <time>2018-09-15T12:00:53Z</time>
      </trkpt>
      <trkpt lat="43.4026200" lon="-6.0139520">
        <ele>66.3</ele>
        <time>2018-09-15T12:00:54Z</time>
      </trkpt>
      <trkpt lat="43.4026960" lon="-6.0138720">
        <ele>66.4</ele>
        <time>2018-09-15T12:00:55Z</time>
      </trkpt>
      <trkpt lat="43.4027280" lon="-6.0138330">
        <ele>66.5</ele>
        <time>2018-09-15T12:00:56Z</time>
      </trkpt>
      <trkpt lat="43.4027610" lon="-6.0137920">
        <ele>66.6</ele>
        <time>2018-09-15T12:00:57Z</time>
      </trkpt>
      <trkpt lat="43.4027940" lon="-6.0137540">
        <ele>66.6</ele>
        <time>2018-09-15T12:00:58Z</time>
      </trkpt>
      <trkpt lat="43.4028310" lon="-6.0137140">
        <ele>66.7</ele>
        <time>2018-09-15T12:00:59Z</time>
      </trkpt>
      <trkpt lat="43.4028660" lon="-6.0136690">
        <ele>66.8</ele>
        <time>2018-09-15T12:01:00Z</time>
      </trkpt>
      <trkpt lat="43.4028980" lon="-6.0136270">
        <ele>66.9</ele>
        <time>2018-09-15T12:01:01Z</time>
      </trkpt>
      <trkpt lat="43.4029370" lon="-6.0135850">
        <ele>67.0</ele>
        <time>2018-09-15T12:01:02Z</time>
      </trkpt>
      <trkpt lat="43.4029720" lon="-6.0135420">
        <ele>67.1</ele>
        <time>2018-09-15T12:01:03Z</time>
      </trkpt>
      <trkpt lat="43.4030070" lon="-6.0134920">
        <ele>67.2</ele>
        <time>2018-09-15T12:01:04Z</time>
      </trkpt>
      <trkpt lat="43.4030490" lon="-6.0134560">
        <ele>67.4</ele>
        <time>2018-09-15T12:01:05Z</time>
      </trkpt>
      <trkpt lat="43.4030890" lon="-6.0134130">
        <ele>67.5</ele>
        <time>2018-09-15T12:01:06Z</time>
      </trkpt>
      <trkpt lat="43.4031330" lon="-6.0133650">
        <ele>67.6</ele>
        <time>2018-09-15T12:01:07Z</time>
      </trkpt>
      <trkpt lat="43.4031740" lon="-6.0133250">
        <ele>67.7</ele>
        <time>2018-09-15T12:01:08Z</time>
      </trkpt>
      <trkpt lat="43.4032200" lon="-6.0132890">
        <ele>67.9</ele>
        <time>2018-09-15T12:01:09Z</time>
      </trkpt>
      <trkpt lat="43.4032600" lon="-6.0132380">
        <ele>68.0</ele>
        <time>2018-09-15T12:01:10Z</time>
      </trkpt>
      <trkpt lat="43.4032980" lon="-6.0131890">
        <ele>68.2</ele>
        <time>2018-09-15T12:01:11Z</time>
      </trkpt>
      <trkpt lat="43.4033370" lon="-6.0131390">
        <ele>68.3</ele>
        <time>2018-09-15T12:01:12Z</time>
      </trkpt>
      <trkpt lat="43.4033760" lon="-6.0130970">
        <ele>68.4</ele>
        <time>2018-09-15T12:01:13Z</time>
      </trkpt>
      <trkpt lat="43.4034170" lon="-6.0130490">
        <ele>68.6</ele>
        <time>2018-09-15T12:01:14Z</time>
      </trkpt>
      <trkpt lat="43.4034560" lon="-6.0130000">
        <ele>68.8</ele>
        <time>2018-09-15T12:01:15Z</time>
      </trkpt>
      <trkpt lat="43.4034910" lon="-6.0129540">
        <ele>69.0</ele>
        <time>2018-09-15T12:01:16Z</time>
      </trkpt>
      <trkpt lat="43.4035300" lon="-6.0129060">
        <ele>69.2</ele>
        <time>2018-09-15T12:01:17Z</time>
      </trkpt>
      <trkpt lat="43.4035750" lon="-6.0128610">
        <ele>69.3</ele>
        <time>2018-09-15T12:01:18Z</time>
      </trkpt>
      <trkpt lat="43.4036220" lon="-6.0128280">
        <ele>69.5</ele>
        <time>2018-09-15T12:01:19Z</time>
      </trkpt>
      <trkpt lat="43.4036610" lon="-6.0127840">
        <ele>69.6</ele>
        <time>2018-09-15T12:01:20Z</time>
      </trkpt>
      <trkpt lat="43.4037040" lon="-6.0127480">
        <ele>69.8</ele>
        <time>2018-09-15T12:01:21Z</time>
      </trkpt>
      <trkpt lat="43.4037430" lon="-6.0126950">
        <ele>70.1</ele>
        <time>2018-09-15T12:01:22Z</time>
      </trkpt>
      <trkpt lat="43.4037880" lon="-6.0126420">
        <ele>70.3</ele>
        <time>2018-09-15T12:01:23Z</time>
      </trkpt>
      <trkpt lat="43.4038290" lon="-6.0126010">
        <ele>70.5</ele>
        <time>2018-09-15T12:01:24Z</time>
      </trkpt>
      <trkpt lat="43.4038730" lon="-6.0125630">
        <ele>70.8</ele>
        <time>2018-09-15T12:01:25Z</time>
      </trkpt>
      <trkpt lat="43.4039170" lon="-6.0125170">
        <ele>70.9</ele>
        <time>2018-09-15T12:01:26Z</time>
      </trkpt>
      <trkpt lat="43.4039540" lon="-6.0124700">
        <ele>71.1</ele>
        <time>2018-09-15T12:01:27Z</time>
      </trkpt>
      <trkpt lat="43.4039930" lon="-6.0124240">
        <ele>71.3</ele>
        <time>2018-09-15T12:01:28Z</time>
      </trkpt>
      <trkpt lat="43.4040330" lon="-6.0123770">
        <ele>71.4</ele>
        <time>2018-09-15T12:01:29Z</time>
      </trkpt>
      <trkpt lat="43.4040710" lon="-6.0123270">
        <ele>71.6</ele>
        <time>2018-09-15T12:01:30Z</time>
      </trkpt>
      <trkpt lat="43.4041100" lon="-6.0122860">
        <ele>71.8</ele>
        <time>2018-09-15T12:01:31Z</time>
      </trkpt>
      <trkpt lat="43.4041550" lon="-6.0122430">
        <ele>72.0</ele>
        <time>2018-09-15T12:01:32Z</time>
      </trkpt>
      <trkpt lat="43.4041930" lon="-6.0122020">
        <ele>72.2</ele>
        <time>2018-09-15T12:01:33Z</time>
      </trkpt>
      <trkpt lat="43.4042310" lon="-6.0121670">
        <ele>72.5</ele>
        <time>2018-09-15T12:01:34Z</time>
      </trkpt>
      <trkpt lat="43.4042660" lon="-6.0121220">
        <ele>72.7</ele>
        <time>2018-09-15T12:01:35Z</time>
      </trkpt>
      <trkpt lat="43.4043060" lon="-6.0120820">
        <ele>72.9</ele>
        <time>2018-09-15T12:01:36Z</time>
      </trkpt>
      <trkpt lat="43.4043470" lon="-6.0120520">
        <ele>73.1</ele>
        <time>2018-09-15T12:01:37Z</time>
      </trkpt>
      <trkpt lat="43.4043880" lon="-6.0120110">
        <ele>73.3</ele>
        <time>2018-09-15T12:01:38Z</time>
      </trkpt>
      <trkpt lat="43.4044320" lon="-6.0119740">
        <ele>73.5</ele>
        <time>2018-09-15T12:01:39Z</time>
      </trkpt>
      <trkpt lat="43.4044770" lon="-6.0119420">
        <ele>73.7</ele>
        <time>2018-09-15T12:01:40Z</time>
      </trkpt>
      <trkpt lat="43.4045270" lon="-6.0119150">
        <ele>74.0</ele>
        <time>2018-09-15T12:01:41Z</time>
      </trkpt>
      <trkpt lat="43.4045720" lon="-6.0118840">
        <ele>74.4</ele>
        <time>2018-09-15T12:01:42Z</time>
      </trkpt>
      <trkpt lat="43.4046180" lon="-6.0118590">
        <ele>74.9</ele>
        <time>2018-09-15T12:01:43Z</time>
      </trkpt>
      <trkpt lat="43.4046610" lon="-6.0118270">
        <ele>75.4</ele>
        <time>2018-09-15T12:01:44Z</time>
      </trkpt>
      <trkpt lat="43.4047060" lon="-6.0117950">
        <ele>75.9</ele>
        <time>2018-09-15T12:01:45Z</time>
      </trkpt>
      <trkpt lat="43.4047490" lon="-6.0117660">
        <ele>76.0</ele>
        <time>2018-09-15T12:01:46Z</time>
      </trkpt>
      <trkpt lat="43.4047870" lon="-6.0117290">
        <ele>76.1</ele>
        <time>2018-09-15T12:01:47Z</time>
      </trkpt>
      <trkpt lat="43.4048300" lon="-6.0116970">
        <ele>76.2</ele>
        <time>2018-09-15T12:01:48Z</time>
      </trkpt>
      <trkpt lat="43.4048760" lon="-6.0116650">
        <ele>76.2</ele>
        <time>2018-09-15T12:01:49Z</time>
      </trkpt>
      <trkpt lat="43.4049180" lon="-6.0116370">
        <ele>76.3</ele>
        <time>2018-09-15T12:01:50Z</time>
      </trkpt>
      <trkpt lat="43.4049620" lon="-6.0116040">
        <ele>76.4</ele>
        <time>2018-09-15T12:01:51Z</time>
      </trkpt>
      <trkpt lat="43.4050100" lon="-6.0115730">
        <ele>76.4</ele>
        <time>2018-09-15T12:01:52Z</time>
      </trkpt>
      <trkpt lat="43.4050460" lon="-6.0115410">
        <ele>76.5</ele>
        <time>2018-09-15T12:01:53Z</time>
      </trkpt>
      <trkpt lat="43.4050890" lon="-6.0115100">
        <ele>76.6</ele>
        <time>2018-09-15T12:01:54Z</time>
      </trkpt>
      <trkpt lat="43.4051280" lon="-6.0114780">
        <ele>76.6</ele>
        <time>2018-09-15T12:01:55Z</time>
      </trkpt>
      <trkpt lat="43.4051670" lon="-6.0114480">
        <ele>76.7</ele>
        <time>2018-09-15T12:01:56Z</time>
      </trkpt>
      <trkpt lat="43.4052090" lon="-6.0114190">
        <ele>76.8</ele>
        <time>2018-09-15T12:01:57Z</time>
      </trkpt>
      <trkpt lat="43.4052520" lon="-6.0113900">
        <ele>76.8</ele>
        <time>2018-09-15T12:01:58Z</time>
      </trkpt>
      <trkpt lat="43.4052930" lon="-6.0113590">
        <ele>76.9</ele>
        <time>2018-09-15T12:01:59Z</time>
      </trkpt>
      <trkpt lat="43.4053310" lon="-6.0113310">
        <ele>76.9</ele>
        <time>2018-09-15T12:02:00Z</time>
      </trkpt>
      <trkpt lat="43.4053670" lon="-6.0113030">
        <ele>76.9</ele>
        <time>2018-09-15T12:02:01Z</time>
      </trkpt>
      <trkpt lat="43.4054040" lon="-6.0112800">
        <ele>76.9</ele>
        <time>2018-09-15T12:02:02Z</time>
      </trkpt>
      <trkpt lat="43.4054520" lon="-6.0112640">
        <ele>76.9</ele>
        <time>2018-09-15T12:02:03Z</time>
      </trkpt>
      <trkpt lat="43.4054850" lon="-6.0112410">
        <ele>77.0</ele>
        <time>2018-09-15T12:02:04Z</time>
      </trkpt>
      <trkpt lat="43.4055210" lon="-6.0112200">
        <ele>77.0</ele>
        <time>2018-09-15T12:02:05Z</time>
      </trkpt>
      <trkpt lat="43.4055560" lon="-6.0112020">
        <ele>77.0</ele>
        <time>2018-09-15T12:02:06Z</time>
      </trkpt>
      <trkpt lat="43.4055840" lon="-6.0111750">
        <ele>77.0</ele>
        <time>2018-09-15T12:02:07Z</time>
      </trkpt>
      <trkpt lat="43.4056140" lon="-6.0111500">
        <ele>77.2</ele>
        <time>2018-09-15T12:02:08Z</time>
      </trkpt>
      <trkpt lat="43.4056420" lon="-6.0111330">
        <ele>77.3</ele>
        <time>2018-09-15T12:02:09Z</time>
      </trkpt>
      <trkpt lat="43.4056570" lon="-6.0111220">
        <ele>77.4</ele>
        <time>2018-09-15T12:02:10Z</time>
      </trkpt>
      <trkpt lat="43.4056990" lon="-6.0110820">
        <ele>77.7</ele>
        <time>2018-09-15T12:02:11Z</time>
      </trkpt>
      <trkpt lat="43.4057280" lon="-6.0110540">
        <ele>77.9</ele>
        <time>2018-09-15T12:02:12Z</time>
      </trkpt>
      <trkpt lat="43.4057580" lon="-6.0110260">
        <ele>78.1</ele>
        <time>2018-09-15T12:02:13Z</time>
      </trkpt>
      <trkpt lat="43.4057730" lon="-6.0110120">
        <ele>78.2</ele>
        <time>2018-09-15T12:02:14Z</time>
      </trkpt>
      <trkpt lat="43.4058160" lon="-6.0109700">
        <ele>78.5</ele>
        <time>2018-09-15T12:02:15Z</time>
      </trkpt>
      <trkpt lat="43.4058470" lon="-6.0109410">
        <ele>78.7</ele>
        <time>2018-09-15T12:02:16Z</time>
      </trkpt>
      <trkpt lat="43.4058780" lon="-6.0109100">
        <ele>78.9</ele>
        <time>2018-09-15T12:02:17Z</time>
      </trkpt>
      <trkpt lat="43.4058920" lon="-6.0108920">
        <ele>79.0</ele>
        <time>2018-09-15T12:02:18Z</time>
      </trkpt>
      <trkpt lat="43.4059130" lon="-6.0108710">
        <ele>79.2</ele>
        <time>2018-09-15T12:02:19Z</time>
      </trkpt>
      <trkpt lat="43.4059380" lon="-6.0108480">
        <ele>79.3</ele>
        <time>2018-09-15T12:02:20Z</time>
      </trkpt>
      <trkpt lat="43.4059600" lon="-6.0108290">
        <ele>79.5</ele>
        <time>2018-09-15T12:02:21Z</time>
      </trkpt>
      <trkpt lat="43.4059880" lon="-6.0108080">
        <ele>79.6</ele>
        <time>2018-09-15T12:02:22Z</time>
      </trkpt>
      <trkpt lat="43.4060100" lon="-6.0107840">
        <ele>79.8</ele>
        <time>2018-09-15T12:02:23Z</time>
      </trkpt>
      <trkpt lat="43.4060390" lon="-6.0107570">
        <ele>79.9</ele>
        <time>2018-09-15T12:02:24Z</time>
      </trkpt>
      <trkpt lat="43.4060620" lon="-6.0107310">
        <ele>80.1</ele>
        <time>2018-09-15T12:02:25Z</time>
      </trkpt>
      <trkpt lat="43.4060900" lon="-6.0107040">
        <ele>80.2</ele>
        <time>2018-09-15T12:02:26Z</time>
      </trkpt>
      <trkpt lat="43.4061190" lon="-6.0106780">
        <ele>80.4</ele>
        <time>2018-09-15T12:02:27Z</time>
      </trkpt>
      <trkpt lat="43.4061430" lon="-6.0106520">
        <ele>80.5</ele>
        <time>2018-09-15T12:02:28Z</time>
      </trkpt>
      <trkpt lat="43.4061730" lon="-6.0106240">
        <ele>80.7</ele>
        <time>2018-09-15T12:02:29Z</time>
      </trkpt>
      <trkpt lat="43.4061980" lon="-6.0105960">
        <ele>80.9</ele>
        <time>2018-09-15T12:02:30Z</time>
      </trkpt>
      <trkpt lat="43.4062250" lon="-6.0105670">
        <ele>81.0</ele>
        <time>2018-09-15T12:02:31Z</time>
      </trkpt>
      <trkpt lat="43.4062570" lon="-6.0105360">
        <ele>81.2</ele>
        <time>2018-09-15T12:02:32Z</time>
      </trkpt>
      <trkpt lat="43.4062830" lon="-6.0105080">
        <ele>81.3</ele>
        <time>2018-09-15T12:02:33Z</time>
      </trkpt>
      <trkpt lat="43.4063140" lon="-6.0104780">
        <ele>81.5</ele>
        <time>2018-09-15T12:02:34Z</time>
      </trkpt>
      <trkpt lat="43.4063430" lon="-6.0104480">
        <ele>81.6</ele>
        <time>2018-09-15T12:02:35Z</time>
      </trkpt>
      <trkpt lat="43.4063670" lon="-6.0104180">
        <ele>81.8</ele>
        <time>2018-09-15T12:02:36Z</time>
      </trkpt>
      <trkpt lat="43.4063930" lon="-6.0103870">
        <ele>81.9</ele>
        <time>2018-09-15T12:02:37Z</time>
      </trkpt>
      <trkpt lat="43.4064190" lon="-6.0103550">
        <ele>82.1</ele>
        <time>2018-09-15T12:02:38Z</time>
      </trkpt>
      <trkpt lat="43.4064470" lon="-6.0103220">
        <ele>82.2</ele>
        <time>2018-09-15T12:02:39Z</time>
      </trkpt>
      <trkpt lat="43.4064780" lon="-6.0102890">
        <ele>82.3</ele>
        <time>2018-09-15T12:02:40Z</time>
      </trkpt>
      <trkpt lat="43.4065030" lon="-6.0102610">
        <ele>82.4</ele>
        <time>2018-09-15T12:02:41Z</time>
      </trkpt>
      <trkpt lat="43.4065320" lon="-6.0102320">
        <ele>82.5</ele>
        <time>2018-09-15T12:02:42Z</time>
      </trkpt>
      <trkpt lat="43.4065610" lon="-6.0102050">
        <ele>82.7</ele>
        <time>2018-09-15T12:02:43Z</time>
      </trkpt>
      <trkpt lat="43.4065890" lon="-6.0101770">
        <ele>82.8</ele>
        <time>2018-09-15T12:02:44Z</time>
      </trkpt>
      <trkpt lat="43.4066170" lon="-6.0101490">
        <ele>82.9</ele>
        <time>2018-09-15T12:02:45Z</time>
      </trkpt>
      <trkpt lat="43.4066390" lon="-6.0101230">
        <ele>83.0</ele>
        <time>2018-09-15T12:02:46Z</time>
      </trkpt>
      <trkpt lat="43.4066640" lon="-6.0100970">
        <ele>83.1</ele>
        <time>2018-09-15T12:02:47Z</time>
      </trkpt>
      <trkpt lat="43.4066920" lon="-6.0100670">
        <ele>83.3</ele>
        <time>2018-09-15T12:02:48Z</time>
      </trkpt>
      <trkpt lat="43.4067230" lon="-6.0100360">
        <ele>83.5</ele>
        <time>2018-09-15T12:02:49Z</time>
      </trkpt>
      <trkpt lat="43.4067530" lon="-6.0100060">
        <ele>83.7</ele>
        <time>2018-09-15T12:02:50Z</time>
      </trkpt>
      <trkpt lat="43.4067760" lon="-6.0099790">
        <ele>83.8</ele>
        <time>2018-09-15T12:02:51Z</time>
      </trkpt>
      <trkpt lat="43.4068000" lon="-6.0099520">
        <ele>83.9</ele>
        <time>2018-09-15T12:02:52Z</time>
      </trkpt>
      <trkpt lat="43.4068260" lon="-6.0099240">
        <ele>84.1</ele>
        <time>2018-09-15T12:02:53Z</time>
      </trkpt>
      <trkpt lat="43.4068570" lon="-6.0098950">
        <ele>84.3</ele>
        <time>2018-09-15T12:02:54Z</time>
      </trkpt>
      <trkpt lat="43.4068860" lon="-6.0098660">
        <ele>84.4</ele>
        <time>2018-09-15T12:02:56Z</time>
      </trkpt>
      <trkpt lat="43.4069100" lon="-6.0098390">
        <ele>84.6</ele>
        <time>2018-09-15T12:02:57Z</time>
      </trkpt>
      <trkpt lat="43.4069350" lon="-6.0098120">
        <ele>84.7</ele>
        <time>2018-09-15T12:02:58Z</time>
      </trkpt>
      <trkpt lat="43.4069660" lon="-6.0097810">
        <ele>84.9</ele>
        <time>2018-09-15T12:02:59Z</time>
      </trkpt>
      <trkpt lat="43.4070220" lon="-6.0097210">
        <ele>85.1</ele>
        <time>2018-09-15T12:03:00Z</time>
      </trkpt>
      <trkpt lat="43.4070530" lon="-6.0096900">
        <ele>85.3</ele>
        <time>2018-09-15T12:03:01Z</time>
      </trkpt>
      <trkpt lat="43.4070770" lon="-6.0096600">
        <ele>85.4</ele>
        <time>2018-09-15T12:03:02Z</time>
      </trkpt>
      <trkpt lat="43.4071080" lon="-6.0096290">
        <ele>85.5</ele>
        <time>2018-09-15T12:03:03Z</time>
      </trkpt>
      <trkpt lat="43.4071730" lon="-6.0095380">
        <ele>86.0</ele>
        <time>2018-09-15T12:03:04Z</time>
      </trkpt>
      <trkpt lat="43.4072010" lon="-6.0095060">
        <ele>86.2</ele>
        <time>2018-09-15T12:03:05Z</time>
      </trkpt>
      <trkpt lat="43.4072160" lon="-6.0094900">
        <ele>86.3</ele>
        <time>2018-09-15T12:03:06Z</time>
      </trkpt>
      <trkpt lat="43.4072420" lon="-6.0094700">
        <ele>86.5</ele>
        <time>2018-09-15T12:03:07Z</time>
      </trkpt>
      <trkpt lat="43.4072640" lon="-6.0094490">
        <ele>86.6</ele>
        <time>2018-09-15T12:03:08Z</time>
      </trkpt>
      <trkpt lat="43.4072910" lon="-6.0094260">
        <ele>86.8</ele>
        <time>2018-09-15T12:03:09Z</time>
      </trkpt>
      <trkpt lat="43.4073180" lon="-6.0094030">
        <ele>86.9</ele>
        <time>2018-09-15T12:03:10Z</time>
      </trkpt>
      <trkpt lat="43.4073440" lon="-6.0093790">
        <ele>87.1</ele>
        <time>2018-09-15T12:03:11Z</time>
      </trkpt>
      <trkpt lat="43.4073660" lon="-6.0093530">
        <ele>87.2</ele>
        <time>2018-09-15T12:03:12Z</time>
      </trkpt>
      <trkpt lat="43.4073950" lon="-6.0093260">
        <ele>87.4</ele>
        <time>2018-09-15T12:03:13Z</time>
      </trkpt>
      <trkpt lat="43.4074170" lon="-6.0092940">
        <ele>87.6</ele>
        <time>2018-09-15T12:03:14Z</time>
      </trkpt>
      <trkpt lat="43.4074840" lon="-6.0092130">
        <ele>88.0</ele>
        <time>2018-09-15T12:03:15Z</time>
      </trkpt>
      <trkpt lat="43.4075000" lon="-6.0091980">
        <ele>88.1</ele>
        <time>2018-09-15T12:03:16Z</time>
      </trkpt>
      <trkpt lat="43.4075480" lon="-6.0091570">
        <ele>88.4</ele>
        <time>2018-09-15T12:03:18Z</time>
      </trkpt>
      <trkpt lat="43.4075720" lon="-6.0091340">
        <ele>88.5</ele>
        <time>2018-09-15T12:03:19Z</time>
      </trkpt>
      <trkpt lat="43.4075960" lon="-6.0091100">
        <ele>88.7</ele>
        <time>2018-09-15T12:03:20Z</time>
      </trkpt>
      <trkpt lat="43.4076250" lon="-6.0090840">
        <ele>88.8</ele>
        <time>2018-09-15T12:03:21Z</time>
      </trkpt>
      <trkpt lat="43.4076480" lon="-6.0090590">
        <ele>89.0</ele>
        <time>2018-09-15T12:03:22Z</time>
      </trkpt>
      <trkpt lat="43.4076780" lon="-6.0090330">
        <ele>89.1</ele>
        <time>2018-09-15T12:03:23Z</time>
      </trkpt>
      <trkpt lat="43.4077030" lon="-6.0090070">
        <ele>89.3</ele>
        <time>2018-09-15T12:03:24Z</time>
      </trkpt>
      <trkpt lat="43.4077330" lon="-6.0089780">
        <ele>89.4</ele>
        <time>2018-09-15T12:03:25Z</time>
      </trkpt>
      <trkpt lat="43.4077630" lon="-6.0089490">
        <ele>89.6</ele>
        <time>2018-09-15T12:03:26Z</time>
      </trkpt>
      <trkpt lat="43.4077910" lon="-6.0089200">
        <ele>89.7</ele>
        <time>2018-09-15T12:03:27Z</time>
      </trkpt>
      <trkpt lat="43.4078150" lon="-6.0088930">
        <ele>89.9</ele>
        <time>2018-09-15T12:03:28Z</time>
      </trkpt>
      <trkpt lat="43.4078450" lon="-6.0088630">
        <ele>90.0</ele>
        <time>2018-09-15T12:03:29Z</time>
      </trkpt>
      <trkpt lat="43.4078700" lon="-6.0088300">
        <ele>90.1</ele>
        <time>2018-09-15T12:03:30Z</time>
      </trkpt>
      <trkpt lat="43.4079040" lon="-6.0087960">
        <ele>90.2</ele>
        <time>2018-09-15T12:03:31Z</time>
      </trkpt>
      <trkpt lat="43.4079350" lon="-6.0087650">
        <ele>90.3</ele>
        <time>2018-09-15T12:03:32Z</time>
      </trkpt>
      <trkpt lat="43.4079610" lon="-6.0087370">
        <ele>90.4</ele>
        <time>2018-09-15T12:03:33Z</time>
      </trkpt>
      <trkpt lat="43.4079930" lon="-6.0087080">
        <ele>90.6</ele>
        <time>2018-09-15T12:03:34Z</time>
      </trkpt>
      <trkpt lat="43.4080240" lon="-6.0086780">
        <ele>90.8</ele>
        <time>2018-09-15T12:03:35Z</time>
      </trkpt>
      <trkpt lat="43.4080540" lon="-6.0086480">
        <ele>91.0</ele>
        <time>2018-09-15T12:03:36Z</time>
      </trkpt>
      <trkpt lat="43.4081180" lon="-6.0085650">
        <ele>91.4</ele>
        <time>2018-09-15T12:03:37Z</time>
      </trkpt>
      <trkpt lat="43.4081340" lon="-6.0085490">
        <ele>91.5</ele>
        <time>2018-09-15T12:03:38Z</time>
      </trkpt>
      <trkpt lat="43.4081560" lon="-6.0085290">
        <ele>91.6</ele>
        <time>2018-09-15T12:03:39Z</time>
      </trkpt>
      <trkpt lat="43.4081790" lon="-6.0085060">
        <ele>91.7</ele>
        <time>2018-09-15T12:03:40Z</time>
      </trkpt>
      <trkpt lat="43.4082070" lon="-6.0084810">
        <ele>91.9</ele>
        <time>2018-09-15T12:03:41Z</time>
      </trkpt>
      <trkpt lat="43.4082350" lon="-6.0084560">
        <ele>91.9</ele>
        <time>2018-09-15T12:03:42Z</time>
      </trkpt>
      <trkpt lat="43.4082580" lon="-6.0084320">
        <ele>92.0</ele>
        <time>2018-09-15T12:03:43Z</time>
      </trkpt>
      <trkpt lat="43.4082870" lon="-6.0084050">
        <ele>92.1</ele>
        <time>2018-09-15T12:03:44Z</time>
      </trkpt>
      <trkpt lat="43.4083120" lon="-6.0083790">
        <ele>92.2</ele>
        <time>2018-09-15T12:03:45Z</time>
      </trkpt>
      <trkpt lat="43.4083420" lon="-6.0083490">
        <ele>92.2</ele>
        <time>2018-09-15T12:03:46Z</time>
      </trkpt>
      <trkpt lat="43.4084030" lon="-6.0082760">
        <ele>92.4</ele>
        <time>2018-09-15T12:03:47Z</time>
      </trkpt>
      <trkpt lat="43.4084180" lon="-6.0082600">
        <ele>92.5</ele>
        <time>2018-09-15T12:03:48Z</time>
      </trkpt>
      <trkpt lat="43.4084390" lon="-6.0082410">
        <ele>92.5</ele>
        <time>2018-09-15T12:03:49Z</time>
      </trkpt>
      <trkpt lat="43.4084620" lon="-6.0082190">
        <ele>92.6</ele>
        <time>2018-09-15T12:03:50Z</time>
      </trkpt>
      <trkpt lat="43.4084900" lon="-6.0081940">
        <ele>92.7</ele>
        <time>2018-09-15T12:03:51Z</time>
      </trkpt>
      <trkpt lat="43.4085170" lon="-6.0081690">
        <ele>92.8</ele>
        <time>2018-09-15T12:03:52Z</time>
      </trkpt>
      <trkpt lat="43.4085390" lon="-6.0081440">
        <ele>92.9</ele>
        <time>2018-09-15T12:03:53Z</time>
      </trkpt>
      <trkpt lat="43.4085670" lon="-6.0081160">
        <ele>93.1</ele>
        <time>2018-09-15T12:03:54Z</time>
      </trkpt>
      <trkpt lat="43.4085920" lon="-6.0080880">
        <ele>93.2</ele>
        <time>2018-09-15T12:03:55Z</time>
      </trkpt>
      <trkpt lat="43.4086210" lon="-6.0080570">
        <ele>93.4</ele>
        <time>2018-09-15T12:03:56Z</time>
      </trkpt>
      <trkpt lat="43.4086450" lon="-6.0080300">
        <ele>93.5</ele>
        <time>2018-09-15T12:03:57Z</time>
      </trkpt>
      <trkpt lat="43.4086740" lon="-6.0080010">
        <ele>93.7</ele>
        <time>2018-09-15T12:03:58Z</time>
      </trkpt>
      <trkpt lat="43.4086990" lon="-6.0079740">
        <ele>93.8</ele>
        <time>2018-09-15T12:03:59Z</time>
      </trkpt>
      <trkpt lat="43.4087300" lon="-6.0079440">
        <ele>94.0</ele>
        <time>2018-09-15T12:04:00Z</time>
      </trkpt>
      <trkpt lat="43.4087590" lon="-6.0079140">
        <ele>94.2</ele>
        <time>2018-09-15T12:04:01Z</time>
      </trkpt>
      <trkpt lat="43.4087870" lon="-6.0078870">
        <ele>94.3</ele>
        <time>2018-09-15T12:04:02Z</time>
      </trkpt>
      <trkpt lat="43.4088150" lon="-6.0078590">
        <ele>94.4</ele>
        <time>2018-09-15T12:04:03Z</time>
      </trkpt>
      <trkpt lat="43.4088380" lon="-6.0078330">
        <ele>94.5</ele>
        <time>2018-09-15T12:04:04Z</time>
      </trkpt>
      <trkpt lat="43.4089040" lon="-6.0077490">
        <ele>94.6</ele>
        <time>2018-09-15T12:04:05Z</time>
      </trkpt>
      <trkpt lat="43.4089330" lon="-6.0077180">
        <ele>94.6</ele>
        <time>2018-09-15T12:04:06Z</time>
      </trkpt>
      <trkpt lat="43.4089620" lon="-6.0076860">
        <ele>94.7</ele>
        <time>2018-09-15T12:04:07Z</time>
      </trkpt>
      <trkpt lat="43.4089910" lon="-6.0076540">
        <ele>94.7</ele>
        <time>2018-09-15T12:04:08Z</time>
      </trkpt>
      <trkpt lat="43.4090200" lon="-6.0076210">
        <ele>94.7</ele>
        <time>2018-09-15T12:04:09Z</time>
      </trkpt>
      <trkpt lat="43.4090490" lon="-6.0075890">
        <ele>94.8</ele>
        <time>2018-09-15T12:04:10Z</time>
      </trkpt>
      <trkpt lat="43.4090790" lon="-6.0075580">
        <ele>94.8</ele>
        <time>2018-09-15T12:04:11Z</time>
      </trkpt>
      <trkpt lat="43.4091090" lon="-6.0075270">
        <ele>94.9</ele>
        <time>2018-09-15T12:04:12Z</time>
      </trkpt>
      <trkpt lat="43.4091390" lon="-6.0074950">
        <ele>94.9</ele>
        <time>2018-09-15T12:04:13Z</time>
      </trkpt>
      <trkpt lat="43.4091700" lon="-6.0074630">
        <ele>95.0</ele>
        <time>2018-09-15T12:04:14Z</time>
      </trkpt>
      <trkpt lat="43.4092000" lon="-6.0074310">
        <ele>95.0</ele>
        <time>2018-09-15T12:04:15Z</time>
      </trkpt>
      <trkpt lat="43.4092310" lon="-6.0074010">
        <ele>95.1</ele>
        <time>2018-09-15T12:04:16Z</time>
      </trkpt>
      <trkpt lat="43.4092640" lon="-6.0073700">
        <ele>95.1</ele>
        <time>2018-09-15T12:04:17Z</time>
      </trkpt>
      <trkpt lat="43.4092960" lon="-6.0073390">
        <ele>95.2</ele>
        <time>2018-09-15T12:04:18Z</time>
      </trkpt>
      <trkpt lat="43.4093260" lon="-6.0073080">
        <ele>95.2</ele>
        <time>2018-09-15T12:04:19Z</time>
      </trkpt>
      <trkpt lat="43.4093560" lon="-6.0072770">
        <ele>95.3</ele>
        <time>2018-09-15T12:04:20Z</time>
      </trkpt>
      <trkpt lat="43.4093870" lon="-6.0072450">
        <ele>95.3</ele>
        <time>2018-09-15T12:04:21Z</time>
      </trkpt>
      <trkpt lat="43.4094190" lon="-6.0072130">
        <ele>95.4</ele>
        <time>2018-09-15T12:04:22Z</time>
      </trkpt>
      <trkpt lat="43.4094520" lon="-6.0071790">
        <ele>95.5</ele>
        <time>2018-09-15T12:04:23Z</time>
      </trkpt>
      <trkpt lat="43.4094850" lon="-6.0071450">
        <ele>95.6</ele>
        <time>2018-09-15T12:04:24Z</time>
      </trkpt>
      <trkpt lat="43.4095200" lon="-6.0071090">
        <ele>95.8</ele>
        <time>2018-09-15T12:04:25Z</time>
      </trkpt>
      <trkpt lat="43.4095540" lon="-6.0070730">
        <ele>96.0</ele>
        <time>2018-09-15T12:04:26Z</time>
      </trkpt>
      <trkpt lat="43.4095880" lon="-6.0070360">
        <ele>96.2</ele>
        <time>2018-09-15T12:04:27Z</time>
      </trkpt>
      <trkpt lat="43.4096230" lon="-6.0069990">
        <ele>96.3</ele>
        <time>2018-09-15T12:04:28Z</time>
      </trkpt>
      <trkpt lat="43.4096580" lon="-6.0069620">
        <ele>96.5</ele>
        <time>2018-09-15T12:04:29Z</time>
      </trkpt>
      <trkpt lat="43.4096930" lon="-6.0069250">
        <ele>96.7</ele>
        <time>2018-09-15T12:04:30Z</time>
      </trkpt>
      <trkpt lat="43.4097280" lon="-6.0068890">
        <ele>96.8</ele>
        <time>2018-09-15T12:04:31Z</time>
      </trkpt>
      <trkpt lat="43.4097620" lon="-6.0068520">
        <ele>96.9</ele>
        <time>2018-09-15T12:04:32Z</time>
      </trkpt>
      <trkpt lat="43.4097970" lon="-6.0068140">
        <ele>97.0</ele>
        <time>2018-09-15T12:04:33Z</time>
      </trkpt>
      <trkpt lat="43.4098320" lon="-6.0067780">
        <ele>97.0</ele>
        <time>2018-09-15T12:04:34Z</time>
      </trkpt>
      <trkpt lat="43.4098660" lon="-6.0067410">
        <ele>97.1</ele>
        <time>2018-09-15T12:04:35Z</time>
      </trkpt>
      <trkpt lat="43.4099000" lon="-6.0067060">
        <ele>97.2</ele>
        <time>2018-09-15T12:04:36Z</time>
      </trkpt>
      <trkpt lat="43.4099330" lon="-6.0066700">
        <ele>97.3</ele>
        <time>2018-09-15T12:04:37Z</time>
      </trkpt>
      <trkpt lat="43.4099680" lon="-6.0066320">
        <ele>97.3</ele>
        <time>2018-09-15T12:04:38Z</time>
      </trkpt>
      <trkpt lat="43.4100030" lon="-6.0065940">
        <ele>97.4</ele>
        <time>2018-09-15T12:04:39Z</time>
      </trkpt>
      <trkpt lat="43.4100370" lon="-6.0065570">
        <ele>97.5</ele>
        <time>2018-09-15T12:04:40Z</time>
      </trkpt>
      <trkpt lat="43.4100710" lon="-6.0065200">
        <ele>97.6</ele>
        <time>2018-09-15T12:04:41Z</time>
      </trkpt>
      <trkpt lat="43.4101040" lon="-6.0064810">
        <ele>97.7</ele>
        <time>2018-09-15T12:04:42Z</time>
      </trkpt>
      <trkpt lat="43.4101380" lon="-6.0064440">
        <ele>97.8</ele>
        <time>2018-09-15T12:04:43Z</time>
      </trkpt>
      <trkpt lat="43.4101730" lon="-6.0064060">
        <ele>97.9</ele>
        <time>2018-09-15T12:04:44Z</time>
      </trkpt>
      <trkpt lat="43.4102080" lon="-6.0063690">
        <ele>98.1</ele>
        <time>2018-09-15T12:04:45Z</time>
      </trkpt>
      <trkpt lat="43.4102420" lon="-6.0063320">
        <ele>98.3</ele>
        <time>2018-09-15T12:04:46Z</time>
      </trkpt>
      <trkpt lat="43.4102770" lon="-6.0062960">
        <ele>98.5</ele>
        <time>2018-09-15T12:04:47Z</time>
      </trkpt>
      <trkpt lat="43.4103110" lon="-6.0062570">
        <ele>98.7</ele>
        <time>2018-09-15T12:04:48Z</time>
      </trkpt>
      <trkpt lat="43.4103460" lon="-6.0062180">
        <ele>98.9</ele>
        <time>2018-09-15T12:04:49Z</time>
      </trkpt>
      <trkpt lat="43.4103800" lon="-6.0061800">
        <ele>99.1</ele>
        <time>2018-09-15T12:04:50Z</time>
      </trkpt>
      <trkpt lat="43.4104150" lon="-6.0061370">
        <ele>99.2</ele>
        <time>2018-09-15T12:04:51Z</time>
      </trkpt>
      <trkpt lat="43.4104530" lon="-6.0060980">
        <ele>99.3</ele>
        <time>2018-09-15T12:04:52Z</time>
      </trkpt>
      <trkpt lat="43.4104860" lon="-6.0060630">
        <ele>99.4</ele>
        <time>2018-09-15T12:04:53Z</time>
      </trkpt>
      <trkpt lat="43.4105230" lon="-6.0060180">
        <ele>99.4</ele>
        <time>2018-09-15T12:04:54Z</time>
      </trkpt>
      <trkpt lat="43.4105540" lon="-6.0059690">
        <ele>99.5</ele>
        <time>2018-09-15T12:04:55Z</time>
      </trkpt>
      <trkpt lat="43.4105870" lon="-6.0059210">
        <ele>99.6</ele>
        <time>2018-09-15T12:04:56Z</time>
      </trkpt>
      <trkpt lat="43.4106220" lon="-6.0058860">
        <ele>99.6</ele>
        <time>2018-09-15T12:04:57Z</time>
      </trkpt>
      <trkpt lat="43.4106640" lon="-6.0058450">
        <ele>99.7</ele>
        <time>2018-09-15T12:04:58Z</time>
      </trkpt>
      <trkpt lat="43.4106980" lon="-6.0058000">
        <ele>99.7</ele>
        <time>2018-09-15T12:04:59Z</time>
      </trkpt>
      <trkpt lat="43.4107330" lon="-6.0057550">
        <ele>99.7</ele>
        <time>2018-09-15T12:05:00Z</time>
      </trkpt>
      <trkpt lat="43.4107630" lon="-6.0057100">
        <ele>99.8</ele>
        <time>2018-09-15T12:05:01Z</time>
      </trkpt>
      <trkpt lat="43.4107960" lon="-6.0056640">
        <ele>99.8</ele>
        <time>2018-09-15T12:05:02Z</time>
      </trkpt>
      <trkpt lat="43.4108240" lon="-6.0056220">
        <ele>99.9</ele>
        <time>2018-09-15T12:05:03Z</time>
      </trkpt>
      <trkpt lat="43.4108600" lon="-6.0055780">
        <ele>99.9</ele>
        <time>2018-09-15T12:05:04Z</time>
      </trkpt>
      <trkpt lat="43.4108940" lon="-6.0055290">
        <ele>99.9</ele>
        <time>2018-09-15T12:05:05Z</time>
      </trkpt>
      <trkpt lat="43.4109270" lon="-6.0054800">
        <ele>100.0</ele>
        <time>2018-09-15T12:05:06Z</time>
      </trkpt>
      <trkpt lat="43.4109610" lon="-6.0054320">
        <ele>100.1</ele>
        <time>2018-09-15T12:05:07Z</time>
      </trkpt>
      <trkpt lat="43.4109950" lon="-6.0053800">
        <ele>100.2</ele>
        <time>2018-09-15T12:05:08Z</time>
      </trkpt>
      <trkpt lat="43.4110290" lon="-6.0053340">
        <ele>100.4</ele>
        <time>2018-09-15T12:05:09Z</time>
      </trkpt>
      <trkpt lat="43.4110530" lon="-6.0052840">
        <ele>100.5</ele>
        <time>2018-09-15T12:05:10Z</time>
      </trkpt>
      <trkpt lat="43.4110900" lon="-6.0052390">
        <ele>100.8</ele>
        <time>2018-09-15T12:05:11Z</time>
      </trkpt>
      <trkpt lat="43.4111240" lon="-6.0051880">
        <ele>101.0</ele>
        <time>2018-09-15T12:05:12Z</time>
      </trkpt>
      <trkpt lat="43.4111540" lon="-6.0051350">
        <ele>101.2</ele>
        <time>2018-09-15T12:05:13Z</time>
      </trkpt>
      <trkpt lat="43.4111920" lon="-6.0050860">
        <ele>101.5</ele>
        <time>2018-09-15T12:05:14Z</time>
      </trkpt>
      <trkpt lat="43.4112240" lon="-6.0050380">
        <ele>101.6</ele>
        <time>2018-09-15T12:05:15Z</time>
      </trkpt>
      <trkpt lat="43.4112590" lon="-6.0050030">
        <ele>101.7</ele>
        <time>2018-09-15T12:05:16Z</time>
      </trkpt>
      <trkpt lat="43.4112900" lon="-6.0049570">
        <ele>101.8</ele>
        <time>2018-09-15T12:05:17Z</time>
      </trkpt>
      <trkpt lat="43.4113240" lon="-6.0049060">
        <ele>102.0</ele>
        <time>2018-09-15T12:05:18Z</time>
      </trkpt>
      <trkpt lat="43.4113590" lon="-6.0048540">
        <ele>102.1</ele>
        <time>2018-09-15T12:05:19Z</time>
      </trkpt>
      <trkpt lat="43.4113960" lon="-6.0048030">
        <ele>102.2</ele>
        <time>2018-09-15T12:05:20Z</time>
      </trkpt>
      <trkpt lat="43.4114290" lon="-6.0047540">
        <ele>102.2</ele>
        <time>2018-09-15T12:05:21Z</time>
      </trkpt>
      <trkpt lat="43.4114620" lon="-6.0047110">
        <ele>102.2</ele>
        <time>2018-09-15T12:05:22Z</time>
      </trkpt>
      <trkpt lat="43.4114980" lon="-6.0046690">
        <ele>102.3</ele>
        <time>2018-09-15T12:05:23Z</time>
      </trkpt>
      <trkpt lat="43.4115360" lon="-6.0046170">
        <ele>102.3</ele>
        <time>2018-09-15T12:05:24Z</time>
      </trkpt>
      <trkpt lat="43.4115710" lon="-6.0045640">
        <ele>102.4</ele>
        <time>2018-09-15T12:05:25Z</time>
      </trkpt>
      <trkpt lat="43.4116110" lon="-6.0045190">
        <ele>102.5</ele>
        <time>2018-09-15T12:05:26Z</time>
      </trkpt>
      <trkpt lat="43.4116410" lon="-6.0044690">
        <ele>102.6</ele>
        <time>2018-09-15T12:05:27Z</time>
      </trkpt>
      <trkpt lat="43.4116710" lon="-6.0044140">
        <ele>102.7</ele>
        <time>2018-09-15T12:05:28Z</time>
      </trkpt>
      <trkpt lat="43.4117080" lon="-6.0043650">
        <ele>102.7</ele>
        <time>2018-09-15T12:05:29Z</time>
      </trkpt>
      <trkpt lat="43.4117450" lon="-6.0043200">
        <ele>102.9</ele>
        <time>2018-09-15T12:05:30Z</time>
      </trkpt>
      <trkpt lat="43.4117760" lon="-6.0042700">
        <ele>103.0</ele>
        <time>2018-09-15T12:05:31Z</time>
      </trkpt>
      <trkpt lat="43.4118120" lon="-6.0042250">
        <ele>103.2</ele>
        <time>2018-09-15T12:05:32Z</time>
      </trkpt>
      <trkpt lat="43.4118460" lon="-6.0041720">
        <ele>103.4</ele>
        <time>2018-09-15T12:05:33Z</time>
      </trkpt>
      <trkpt lat="43.4118780" lon="-6.0041210">
        <ele>103.6</ele>
        <time>2018-09-15T12:05:34Z</time>
      </trkpt>
      <trkpt lat="43.4119150" lon="-6.0040660">
        <ele>103.8</ele>
        <time>2018-09-15T12:05:35Z</time>
      </trkpt>
      <trkpt lat="43.4119530" lon="-6.0040230">
        <ele>104.0</ele>
        <time>2018-09-15T12:05:36Z</time>
      </trkpt>
      <trkpt lat="43.4119830" lon="-6.0039760">
        <ele>104.1</ele>
        <time>2018-09-15T12:05:37Z</time>
      </trkpt>
      <trkpt lat="43.4120150" lon="-6.0039240">
        <ele>104.2</ele>
        <time>2018-09-15T12:05:38Z</time>
      </trkpt>
      <trkpt lat="43.4120480" lon="-6.0038670">
        <ele>104.2</ele>
        <time>2018-09-15T12:05:39Z</time>
      </trkpt>
      <trkpt lat="43.4120800" lon="-6.0038140">
        <ele>104.3</ele>
        <time>2018-09-15T12:05:40Z</time>
      </trkpt>
      <trkpt lat="43.4121070" lon="-6.0037600">
        <ele>104.4</ele>
        <time>2018-09-15T12:05:41Z</time>
      </trkpt>
      <trkpt lat="43.4121350" lon="-6.0037070">
        <ele>104.5</ele>
        <time>2018-09-15T12:05:42Z</time>
      </trkpt>
      <trkpt lat="43.4121620" lon="-6.0036520">
        <ele>104.5</ele>
        <time>2018-09-15T12:05:43Z</time>
      </trkpt>
      <trkpt lat="43.4121950" lon="-6.0035940">
        <ele>104.6</ele>
        <time>2018-09-15T12:05:44Z</time>
      </trkpt>
      <trkpt lat="43.4122220" lon="-6.0035410">
        <ele>104.6</ele>
        <time>2018-09-15T12:05:45Z</time>
      </trkpt>
      <trkpt lat="43.4122480" lon="-6.0034800">
        <ele>104.7</ele>
        <time>2018-09-15T12:05:46Z</time>
      </trkpt>
      <trkpt lat="43.4122780" lon="-6.0034320">
        <ele>104.8</ele>
        <time>2018-09-15T12:05:47Z</time>
      </trkpt>
      <trkpt lat="43.4122970" lon="-6.0033820">
        <ele>104.8</ele>
        <time>2018-09-15T12:05:48Z</time>
      </trkpt>
      <trkpt lat="43.4123270" lon="-6.0033140">
        <ele>105.0</ele>
        <time>2018-09-15T12:05:49Z</time>
      </trkpt>
      <trkpt lat="43.4123480" lon="-6.0032540">
        <ele>105.1</ele>
        <time>2018-09-15T12:05:50Z</time>
      </trkpt>
      <trkpt lat="43.4123680" lon="-6.0031890">
        <ele>105.3</ele>
        <time>2018-09-15T12:05:51Z</time>
      </trkpt>
      <trkpt lat="43.4123870" lon="-6.0031340">
        <ele>105.4</ele>
        <time>2018-09-15T12:05:52Z</time>
      </trkpt>
      <trkpt lat="43.4124010" lon="-6.0030750">
        <ele>105.6</ele>
        <time>2018-09-15T12:05:53Z</time>
      </trkpt>
      <trkpt lat="43.4124140" lon="-6.0030060">
        <ele>105.9</ele>
        <time>2018-09-15T12:05:54Z</time>
      </trkpt>
      <trkpt lat="43.4124230" lon="-6.0029400">
        <ele>106.1</ele>
        <time>2018-09-15T12:05:55Z</time>
      </trkpt>
      <trkpt lat="43.4124380" lon="-6.0028790">
        <ele>106.3</ele>
        <time>2018-09-15T12:05:56Z</time>
      </trkpt>
      <trkpt lat="43.4124470" lon="-6.0028170">
        <ele>106.4</ele>
        <time>2018-09-15T12:05:57Z</time>
      </trkpt>
      <trkpt lat="43.4124660" lon="-6.0027570">
        <ele>106.5</ele>
        <time>2018-09-15T12:05:58Z</time>
      </trkpt>
      <trkpt lat="43.4124760" lon="-6.0026890">
        <ele>106.6</ele>
        <time>2018-09-15T12:05:59Z</time>
      </trkpt>
      <trkpt lat="43.4124750" lon="-6.0026270">
        <ele>106.7</ele>
        <time>2018-09-15T12:06:00Z</time>
      </trkpt>
      <trkpt lat="43.4124770" lon="-6.0025560">
        <ele>106.8</ele>
        <time>2018-09-15T12:06:01Z</time>
      </trkpt>
      <trkpt lat="43.4124940" lon="-6.0024810">
        <ele>106.8</ele>
        <time>2018-09-15T12:06:02Z</time>
      </trkpt>
      <trkpt lat="43.4124990" lon="-6.0024180">
        <ele>106.9</ele>
        <time>2018-09-15T12:06:03Z</time>
      </trkpt>
      <trkpt lat="43.4125060" lon="-6.0023510">
        <ele>107.0</ele>
        <time>2018-09-15T12:06:04Z</time>
      </trkpt>
      <trkpt lat="43.4125110" lon="-6.0022830">
        <ele>107.0</ele>
        <time>2018-09-15T12:06:05Z</time>
      </trkpt>
      <trkpt lat="43.4125260" lon="-6.0022130">
        <ele>107.1</ele>
        <time>2018-09-15T12:06:06Z</time>
      </trkpt>
      <trkpt lat="43.4125290" lon="-6.0021630">
        <ele>107.1</ele>
        <time>2018-09-15T12:06:07Z</time>
      </trkpt>
      <trkpt lat="43.4125310" lon="-6.0020990">
        <ele>107.2</ele>
        <time>2018-09-15T12:06:08Z</time>
      </trkpt>
      <trkpt lat="43.4125310" lon="-6.0020340">
        <ele>107.3</ele>
        <time>2018-09-15T12:06:09Z</time>
      </trkpt>
      <trkpt lat="43.4125290" lon="-6.0019650">
        <ele>107.4</ele>
        <time>2018-09-15T12:06:10Z</time>
      </trkpt>
      <trkpt lat="43.4125280" lon="-6.0019000">
        <ele>107.5</ele>
        <time>2018-09-15T12:06:11Z</time>
      </trkpt>
      <trkpt lat="43.4125240" lon="-6.0018320">
        <ele>107.7</ele>
        <time>2018-09-15T12:06:12Z</time>
      </trkpt>
      <trkpt lat="43.4125190" lon="-6.0017640">
        <ele>107.9</ele>
        <time>2018-09-15T12:06:13Z</time>
      </trkpt>
      <trkpt lat="43.4125210" lon="-6.0016960">
        <ele>108.1</ele>
        <time>2018-09-15T12:06:14Z</time>
      </trkpt>
      <trkpt lat="43.4125220" lon="-6.0016290">
        <ele>108.3</ele>
        <time>2018-09-15T12:06:15Z</time>
      </trkpt>
      <trkpt lat="43.4125170" lon="-6.0015530">
        <ele>108.6</ele>
        <time>2018-09-15T12:06:16Z</time>
      </trkpt>
      <trkpt lat="43.4125210" lon="-6.0014840">
        <ele>108.8</ele>
        <time>2018-09-15T12:06:17Z</time>
      </trkpt>
      <trkpt lat="43.4125200" lon="-6.0014220">
        <ele>108.9</ele>
        <time>2018-09-15T12:06:18Z</time>
      </trkpt>
      <trkpt lat="43.4125180" lon="-6.0013500">
        <ele>109.1</ele>
        <time>2018-09-15T12:06:19Z</time>
      </trkpt>
      <trkpt lat="43.4125100" lon="-6.0012790">
        <ele>109.1</ele>
        <time>2018-09-15T12:06:20Z</time>
      </trkpt>
      <trkpt lat="43.4125060" lon="-6.0012110">
        <ele>109.2</ele>
        <time>2018-09-15T12:06:21Z</time>
      </trkpt>
      <trkpt lat="43.4124980" lon="-6.0011530">
        <ele>109.2</ele>
        <time>2018-09-15T12:06:22Z</time>
      </trkpt>
      <trkpt lat="43.4124970" lon="-6.0010830">
        <ele>109.2</ele>
        <time>2018-09-15T12:06:23Z</time>
      </trkpt>
      <trkpt lat="43.4124930" lon="-6.0010220">
        <ele>109.3</ele>
        <time>2018-09-15T12:06:24Z</time>
      </trkpt>
      <trkpt lat="43.4124940" lon="-6.0009570">
        <ele>109.3</ele>
        <time>2018-09-15T12:06:25Z</time>
      </trkpt>
      <trkpt lat="43.4124950" lon="-6.0008950">
        <ele>109.4</ele>
        <time>2018-09-15T12:06:26Z</time>
      </trkpt>
      <trkpt lat="43.4124960" lon="-6.0008300">
        <ele>109.4</ele>
        <time>2018-09-15T12:06:27Z</time>
      </trkpt>
      <trkpt lat="43.4124970" lon="-6.0007700">
        <ele>109.4</ele>
        <time>2018-09-15T12:06:28Z</time>
      </trkpt>
      <trkpt lat="43.4124960" lon="-6.0007030">
        <ele>109.5</ele>
        <time>2018-09-15T12:06:29Z</time>
      </trkpt>
      <trkpt lat="43.4125060" lon="-6.0006320">
        <ele>109.5</ele>
        <time>2018-09-15T12:06:30Z</time>
      </trkpt>
      <trkpt lat="43.4125140" lon="-6.0005680">
        <ele>109.6</ele>
        <time>2018-09-15T12:06:31Z</time>
      </trkpt>
      <trkpt lat="43.4125230" lon="-6.0005010">
        <ele>109.7</ele>
        <time>2018-09-15T12:06:32Z</time>
      </trkpt>
      <trkpt lat="43.4125290" lon="-6.0004370">
        <ele>109.8</ele>
        <time>2018-09-15T12:06:33Z</time>
      </trkpt>
      <trkpt lat="43.4125410" lon="-6.0003700">
        <ele>109.9</ele>
        <time>2018-09-15T12:06:34Z</time>
      </trkpt>
      <trkpt lat="43.4125530" lon="-6.0003070">
        <ele>110.0</ele>
        <time>2018-09-15T12:06:35Z</time>
      </trkpt>
      <trkpt lat="43.4125610" lon="-6.0002450">
        <ele>110.2</ele>
        <time>2018-09-15T12:06:36Z</time>
      </trkpt>
      <trkpt lat="43.4125710" lon="-6.0001920">
        <ele>110.3</ele>
        <time>2018-09-15T12:06:37Z</time>
      </trkpt>
      <trkpt lat="43.4125910" lon="-6.0001280">
        <ele>110.6</ele>
        <time>2018-09-15T12:06:38Z</time>
      </trkpt>
      <trkpt lat="43.4126190" lon="-6.0000620">
        <ele>110.8</ele>
        <time>2018-09-15T12:06:39Z</time>
      </trkpt>
      <trkpt lat="43.4126380" lon="-6.0000070">
        <ele>111.0</ele>
        <time>2018-09-15T12:06:40Z</time>
      </trkpt>
      <trkpt lat="43.4126550" lon="-5.9999470">
        <ele>111.2</ele>
        <time>2018-09-15T12:06:41Z</time>
      </trkpt>
      <trkpt lat="43.4126860" lon="-5.9999040">
        <ele>111.3</ele>
        <time>2018-09-15T12:06:42Z</time>
      </trkpt>
      <trkpt lat="43.4127050" lon="-5.9998410">
        <ele>111.4</ele>
        <time>2018-09-15T12:06:43Z</time>
      </trkpt>
      <trkpt lat="43.4127220" lon="-5.9997800">
        <ele>111.6</ele>
        <time>2018-09-15T12:06:44Z</time>
      </trkpt>
      <trkpt lat="43.4127400" lon="-5.9997160">
        <ele>111.7</ele>
        <time>2018-09-15T12:06:45Z</time>
      </trkpt>
      <trkpt lat="43.4127600" lon="-5.9996600">
        <ele>111.8</ele>
        <time>2018-09-15T12:06:46Z</time>
      </trkpt>
      <trkpt lat="43.4127850" lon="-5.9996030">
        <ele>111.9</ele>
        <time>2018-09-15T12:06:47Z</time>
      </trkpt>
      <trkpt lat="43.4128130" lon="-5.9995530">
        <ele>112.0</ele>
        <time>2018-09-15T12:06:48Z</time>
      </trkpt>
      <trkpt lat="43.4128400" lon="-5.9995010">
        <ele>112.0</ele>
        <time>2018-09-15T12:06:49Z</time>
      </trkpt>
      <trkpt lat="43.4128690" lon="-5.9994500">
        <ele>112.1</ele>
        <time>2018-09-15T12:06:50Z</time>
      </trkpt>
      <trkpt lat="43.4129000" lon="-5.9993940">
        <ele>112.1</ele>
        <time>2018-09-15T12:06:51Z</time>
      </trkpt>
      <trkpt lat="43.4129300" lon="-5.9993410">
        <ele>112.2</ele>
        <time>2018-09-15T12:06:52Z</time>
      </trkpt>
      <trkpt lat="43.4129640" lon="-5.9992910">
        <ele>112.3</ele>
        <time>2018-09-15T12:06:53Z</time>
      </trkpt>
      <trkpt lat="43.4130040" lon="-5.9992420">
        <ele>112.4</ele>
        <time>2018-09-15T12:06:54Z</time>
      </trkpt>
      <trkpt lat="43.4130390" lon="-5.9991920">
        <ele>112.6</ele>
        <time>2018-09-15T12:06:55Z</time>
      </trkpt>
      <trkpt lat="43.4130740" lon="-5.9991420">
        <ele>112.8</ele>
        <time>2018-09-15T12:06:56Z</time>
      </trkpt>
      <trkpt lat="43.4131090" lon="-5.9991040">
        <ele>112.9</ele>
        <time>2018-09-15T12:06:57Z</time>
      </trkpt>
      <trkpt lat="43.4131510" lon="-5.9990620">
        <ele>113.1</ele>
        <time>2018-09-15T12:06:58Z</time>
      </trkpt>
      <trkpt lat="43.4131860" lon="-5.9990180">
        <ele>113.2</ele>
        <time>2018-09-15T12:06:59Z</time>
      </trkpt>
      <trkpt lat="43.4132220" lon="-5.9989810">
        <ele>113.3</ele>
        <time>2018-09-15T12:07:00Z</time>
      </trkpt>
      <trkpt lat="43.4132680" lon="-5.9989350">
        <ele>113.3</ele>
        <time>2018-09-15T12:07:01Z</time>
      </trkpt>
      <trkpt lat="43.4133050" lon="-5.9988950">
        <ele>113.4</ele>
        <time>2018-09-15T12:07:02Z</time>
      </trkpt>
      <trkpt lat="43.4133470" lon="-5.9988590">
        <ele>113.4</ele>
        <time>2018-09-15T12:07:03Z</time>
      </trkpt>
      <trkpt lat="43.4133870" lon="-5.9988240">
        <ele>113.5</ele>
        <time>2018-09-15T12:07:04Z</time>
      </trkpt>
      <trkpt lat="43.4134290" lon="-5.9987950">
        <ele>113.5</ele>
        <time>2018-09-15T12:07:05Z</time>
      </trkpt>
      <trkpt lat="43.4134720" lon="-5.9987660">
        <ele>113.6</ele>
        <time>2018-09-15T12:07:06Z</time>
      </trkpt>
      <trkpt lat="43.4135170" lon="-5.9987460">
        <ele>113.6</ele>
        <time>2018-09-15T12:07:07Z</time>
      </trkpt>
      <trkpt lat="43.4135620" lon="-5.9987090">
        <ele>113.7</ele>
        <time>2018-09-15T12:07:08Z</time>
      </trkpt>
      <trkpt lat="43.4136040" lon="-5.9986800">
        <ele>113.7</ele>
        <time>2018-09-15T12:07:09Z</time>
      </trkpt>
      <trkpt lat="43.4136440" lon="-5.9986510">
        <ele>113.8</ele>
        <time>2018-09-15T12:07:10Z</time>
      </trkpt>
      <trkpt lat="43.4136960" lon="-5.9986250">
        <ele>113.8</ele>
        <time>2018-09-15T12:07:11Z</time>
      </trkpt>
      <trkpt lat="43.4137410" lon="-5.9986020">
        <ele>113.8</ele>
        <time>2018-09-15T12:07:12Z</time>
      </trkpt>
      <trkpt lat="43.4137890" lon="-5.9985790">
        <ele>113.9</ele>
        <time>2018-09-15T12:07:13Z</time>
      </trkpt>
      <trkpt lat="43.4138310" lon="-5.9985490">
        <ele>113.9</ele>
        <time>2018-09-15T12:07:14Z</time>
      </trkpt>
      <trkpt lat="43.4138780" lon="-5.9985270">
        <ele>114.0</ele>
        <time>2018-09-15T12:07:15Z</time>
      </trkpt>
      <trkpt lat="43.4139230" lon="-5.9985050">
        <ele>114.0</ele>
        <time>2018-09-15T12:07:16Z</time>
      </trkpt>
      <trkpt lat="43.4139680" lon="-5.9984700">
        <ele>114.2</ele>
        <time>2018-09-15T12:07:17Z</time>
      </trkpt>
      <trkpt lat="43.4140090" lon="-5.9984350">
        <ele>114.3</ele>
        <time>2018-09-15T12:07:18Z</time>
      </trkpt>
      <trkpt lat="43.4140490" lon="-5.9983890">
        <ele>114.5</ele>
        <time>2018-09-15T12:07:19Z</time>
      </trkpt>
      <trkpt lat="43.4140770" lon="-5.9983420">
        <ele>114.7</ele>
        <time>2018-09-15T12:07:20Z</time>
      </trkpt>
      <trkpt lat="43.4141080" lon="-5.9982900">
        <ele>114.8</ele>
        <time>2018-09-15T12:07:21Z</time>
      </trkpt>
      <trkpt lat="43.4141420" lon="-5.9982390">
        <ele>115.0</ele>
        <time>2018-09-15T12:07:22Z</time>
      </trkpt>
      <trkpt lat="43.4141680" lon="-5.9981960">
        <ele>115.1</ele>
        <time>2018-09-15T12:07:23Z</time>
      </trkpt>
      <trkpt lat="43.4141960" lon="-5.9981520">
        <ele>115.1</ele>
        <time>2018-09-15T12:07:24Z</time>
      </trkpt>
      <trkpt lat="43.4142260" lon="-5.9981010">
        <ele>115.2</ele>
        <time>2018-09-15T12:07:25Z</time>
      </trkpt>
      <trkpt lat="43.4142580" lon="-5.9980570">
        <ele>115.3</ele>
        <time>2018-09-15T12:07:26Z</time>
      </trkpt>
      <trkpt lat="43.4142930" lon="-5.9980070">
        <ele>115.4</ele>
        <time>2018-09-15T12:07:28Z</time>
      </trkpt>
      <trkpt lat="43.4143300" lon="-5.9979700">
        <ele>115.5</ele>
        <time>2018-09-15T12:07:28Z</time>
      </trkpt>
      <trkpt lat="43.4143700" lon="-5.9979470">
        <ele>115.5</ele>
        <time>2018-09-15T12:07:29Z</time>
      </trkpt>
      <trkpt lat="43.4144170" lon="-5.9979200">
        <ele>115.6</ele>
        <time>2018-09-15T12:07:30Z</time>
      </trkpt>
      <trkpt lat="43.4144630" lon="-5.9979010">
        <ele>115.7</ele>
        <time>2018-09-15T12:07:31Z</time>
      </trkpt>
      <trkpt lat="43.4145060" lon="-5.9978820">
        <ele>115.8</ele>
        <time>2018-09-15T12:07:32Z</time>
      </trkpt>
      <trkpt lat="43.4145530" lon="-5.9978790">
        <ele>115.9</ele>
        <time>2018-09-15T12:07:33Z</time>
      </trkpt>
      <trkpt lat="43.4145990" lon="-5.9978840">
        <ele>116.0</ele>
        <time>2018-09-15T12:07:34Z</time>
      </trkpt>
      <trkpt lat="43.4146440" lon="-5.9978990">
        <ele>116.2</ele>
        <time>2018-09-15T12:07:36Z</time>
      </trkpt>
      <trkpt lat="43.4146940" lon="-5.9979070">
        <ele>116.4</ele>
        <time>2018-09-15T12:07:37Z</time>
      </trkpt>
      <trkpt lat="43.4147410" lon="-5.9979140">
        <ele>116.5</ele>
        <time>2018-09-15T12:07:38Z</time>
      </trkpt>
      <trkpt lat="43.4147850" lon="-5.9979190">
        <ele>116.7</ele>
        <time>2018-09-15T12:07:39Z</time>
      </trkpt>
      <trkpt lat="43.4148360" lon="-5.9979150">
        <ele>116.9</ele>
        <time>2018-09-15T12:07:40Z</time>
      </trkpt>
      <trkpt lat="43.4148750" lon="-5.9979170">
        <ele>117.0</ele>
        <time>2018-09-15T12:07:41Z</time>
      </trkpt>
      <trkpt lat="43.4149190" lon="-5.9979180">
        <ele>117.1</ele>
        <time>2018-09-15T12:07:42Z</time>
      </trkpt>
      <trkpt lat="43.4149650" lon="-5.9979070">
        <ele>117.2</ele>
        <time>2018-09-15T12:07:43Z</time>
      </trkpt>
      <trkpt lat="43.4150040" lon="-5.9978820">
        <ele>117.2</ele>
        <time>2018-09-15T12:07:44Z</time>
      </trkpt>
      <trkpt lat="43.4150470" lon="-5.9978530">
        <ele>117.3</ele>
        <time>2018-09-15T12:07:45Z</time>
      </trkpt>
      <trkpt lat="43.4150870" lon="-5.9978270">
        <ele>117.3</ele>
        <time>2018-09-15T12:07:46Z</time>
      </trkpt>
      <trkpt lat="43.4151290" lon="-5.9977930">
        <ele>117.4</ele>
        <time>2018-09-15T12:07:47Z</time>
      </trkpt>
      <trkpt lat="43.4151660" lon="-5.9977560">
        <ele>117.4</ele>
        <time>2018-09-15T12:07:48Z</time>
      </trkpt>
      <trkpt lat="43.4152020" lon="-5.9977170">
        <ele>117.4</ele>
        <time>2018-09-15T12:07:49Z</time>
      </trkpt>
      <trkpt lat="43.4152370" lon="-5.9976750">
        <ele>117.4</ele>
        <time>2018-09-15T12:07:50Z</time>
      </trkpt>
      <trkpt lat="43.4152710" lon="-5.9976220">
        <ele>117.4</ele>
        <time>2018-09-15T12:07:51Z</time>
      </trkpt>
      <trkpt lat="43.4153030" lon="-5.9975700">
        <ele>117.4</ele>
        <time>2018-09-15T12:07:52Z</time>
      </trkpt>
      <trkpt lat="43.4153330" lon="-5.9975220">
        <ele>117.4</ele>
        <time>2018-09-15T12:07:53Z</time>
      </trkpt>
      <trkpt lat="43.4153520" lon="-5.9974720">
        <ele>117.5</ele>
        <time>2018-09-15T12:07:54Z</time>
      </trkpt>
      <trkpt lat="43.4153760" lon="-5.9974130">
        <ele>117.5</ele>
        <time>2018-09-15T12:07:55Z</time>
      </trkpt>
      <trkpt lat="43.4153940" lon="-5.9973490">
        <ele>117.5</ele>
        <time>2018-09-15T12:07:56Z</time>
      </trkpt>
      <trkpt lat="43.4154150" lon="-5.9972860">
        <ele>117.5</ele>
        <time>2018-09-15T12:07:57Z</time>
      </trkpt>
      <trkpt lat="43.4154290" lon="-5.9972200">
        <ele>117.5</ele>
        <time>2018-09-15T12:07:58Z</time>
      </trkpt>
      <trkpt lat="43.4154340" lon="-5.9971550">
        <ele>117.5</ele>
        <time>2018-09-15T12:07:59Z</time>
      </trkpt>
      <trkpt lat="43.4154400" lon="-5.9970950">
        <ele>117.5</ele>
        <time>2018-09-15T12:08:00Z</time>
      </trkpt>
      <trkpt lat="43.4154490" lon="-5.9970280">
        <ele>117.5</ele>
        <time>2018-09-15T12:08:01Z</time>
      </trkpt>
      <trkpt lat="43.4154570" lon="-5.9969570">
        <ele>117.5</ele>
        <time>2018-09-15T12:08:02Z</time>
      </trkpt>
      <trkpt lat="43.4154730" lon="-5.9968850">
        <ele>117.5</ele>
        <time>2018-09-15T12:08:03Z</time>
      </trkpt>
      <trkpt lat="43.4154750" lon="-5.9968100">
        <ele>117.5</ele>
        <time>2018-09-15T12:08:04Z</time>
      </trkpt>
      <trkpt lat="43.4154830" lon="-5.9967460">
        <ele>117.6</ele>
        <time>2018-09-15T12:08:05Z</time>
      </trkpt>
      <trkpt lat="43.4154850" lon="-5.9966790">
        <ele>117.6</ele>
        <time>2018-09-15T12:08:06Z</time>
      </trkpt>
      <trkpt lat="43.4154950" lon="-5.9966120">
        <ele>117.7</ele>
        <time>2018-09-15T12:08:07Z</time>
      </trkpt>
      <trkpt lat="43.4155020" lon="-5.9965390">
        <ele>117.7</ele>
        <time>2018-09-15T12:08:08Z</time>
      </trkpt>
      <trkpt lat="43.4155230" lon="-5.9964720">
        <ele>117.9</ele>
        <time>2018-09-15T12:08:09Z</time>
      </trkpt>
      <trkpt lat="43.4155220" lon="-5.9964080">
        <ele>118.0</ele>
        <time>2018-09-15T12:08:10Z</time>
      </trkpt>
      <trkpt lat="43.4155190" lon="-5.9963410">
        <ele>118.2</ele>
        <time>2018-09-15T12:08:11Z</time>
      </trkpt>
      <trkpt lat="43.4155250" lon="-5.9962700">
        <ele>118.4</ele>
        <time>2018-09-15T12:08:12Z</time>
      </trkpt>
      <trkpt lat="43.4155360" lon="-5.9962040">
        <ele>118.6</ele>
        <time>2018-09-15T12:08:13Z</time>
      </trkpt>
      <trkpt lat="43.4155350" lon="-5.9961340">
        <ele>118.7</ele>
        <time>2018-09-15T12:08:14Z</time>
      </trkpt>
      <trkpt lat="43.4155390" lon="-5.9960690">
        <ele>118.7</ele>
        <time>2018-09-15T12:08:15Z</time>
      </trkpt>
      <trkpt lat="43.4155430" lon="-5.9959980">
        <ele>118.8</ele>
        <time>2018-09-15T12:08:16Z</time>
      </trkpt>
      <trkpt lat="43.4155460" lon="-5.9959240">
        <ele>118.9</ele>
        <time>2018-09-15T12:08:17Z</time>
      </trkpt>
      <trkpt lat="43.4155570" lon="-5.9958590">
        <ele>118.9</ele>
        <time>2018-09-15T12:08:18Z</time>
      </trkpt>
      <trkpt lat="43.4155630" lon="-5.9957900">
        <ele>119.0</ele>
        <time>2018-09-15T12:08:19Z</time>
      </trkpt>
      <trkpt lat="43.4155690" lon="-5.9957310">
        <ele>119.0</ele>
        <time>2018-09-15T12:08:20Z</time>
      </trkpt>
      <trkpt lat="43.4155800" lon="-5.9956530">
        <ele>119.0</ele>
        <time>2018-09-15T12:08:21Z</time>
      </trkpt>
      <trkpt lat="43.4155850" lon="-5.9955830">
        <ele>119.1</ele>
        <time>2018-09-15T12:08:22Z</time>
      </trkpt>
      <trkpt lat="43.4155890" lon="-5.9955230">
        <ele>119.1</ele>
        <time>2018-09-15T12:08:23Z</time>
      </trkpt>
      <trkpt lat="43.4155940" lon="-5.9954580">
        <ele>119.1</ele>
        <time>2018-09-15T12:08:24Z</time>
      </trkpt>
      <trkpt lat="43.4155960" lon="-5.9953910">
        <ele>119.1</ele>
        <time>2018-09-15T12:08:25Z</time>
      </trkpt>
      <trkpt lat="43.4156000" lon="-5.9953250">
        <ele>119.1</ele>
        <time>2018-09-15T12:08:26Z</time>
      </trkpt>
      <trkpt lat="43.4156050" lon="-5.9952620">
        <ele>119.1</ele>
        <time>2018-09-15T12:08:27Z</time>
      </trkpt>
      <trkpt lat="43.4156160" lon="-5.9952000">
        <ele>119.1</ele>
        <time>2018-09-15T12:08:28Z</time>
      </trkpt>
      <trkpt lat="43.4156270" lon="-5.9951380">
        <ele>119.1</ele>
        <time>2018-09-15T12:08:29Z</time>
      </trkpt>
      <trkpt lat="43.4156460" lon="-5.9950820">
        <ele>119.1</ele>
        <time>2018-09-15T12:08:30Z</time>
      </trkpt>
      <trkpt lat="43.4156750" lon="-5.9950380">
        <ele>119.1</ele>
        <time>2018-09-15T12:08:31Z</time>
      </trkpt>
      <trkpt lat="43.4156980" lon="-5.9949900">
        <ele>119.1</ele>
        <time>2018-09-15T12:08:32Z</time>
      </trkpt>
      <trkpt lat="43.4157310" lon="-5.9949430">
        <ele>119.1</ele>
        <time>2018-09-15T12:08:33Z</time>
      </trkpt>
      <trkpt lat="43.4157670" lon="-5.9948880">
        <ele>119.1</ele>
        <time>2018-09-15T12:08:34Z</time>
      </trkpt>
      <trkpt lat="43.4158000" lon="-5.9948470">
        <ele>119.1</ele>
        <time>2018-09-15T12:08:35Z</time>
      </trkpt>
      <trkpt lat="43.4158360" lon="-5.9948070">
        <ele>119.1</ele>
        <time>2018-09-15T12:08:36Z</time>
      </trkpt>
      <trkpt lat="43.4158740" lon="-5.9947700">
        <ele>119.1</ele>
        <time>2018-09-15T12:08:37Z</time>
      </trkpt>
      <trkpt lat="43.4159170" lon="-5.9947280">
        <ele>119.2</ele>
        <time>2018-09-15T12:08:38Z</time>
      </trkpt>
      <trkpt lat="43.4159570" lon="-5.9946820">
        <ele>119.2</ele>
        <time>2018-09-15T12:08:39Z</time>
      </trkpt>
      <trkpt lat="43.4159980" lon="-5.9946480">
        <ele>119.3</ele>
        <time>2018-09-15T12:08:40Z</time>
      </trkpt>
      <trkpt lat="43.4160360" lon="-5.9946140">
        <ele>119.4</ele>
        <time>2018-09-15T12:08:41Z</time>
      </trkpt>
      <trkpt lat="43.4160750" lon="-5.9945780">
        <ele>119.5</ele>
        <time>2018-09-15T12:08:42Z</time>
      </trkpt>
      <trkpt lat="43.4161160" lon="-5.9945380">
        <ele>119.7</ele>
        <time>2018-09-15T12:08:43Z</time>
      </trkpt>
      <trkpt lat="43.4161550" lon="-5.9944930">
        <ele>119.9</ele>
        <time>2018-09-15T12:08:44Z</time>
      </trkpt>
      <trkpt lat="43.4162000" lon="-5.9944590">
        <ele>120.2</ele>
        <time>2018-09-15T12:08:45Z</time>
      </trkpt>
      <trkpt lat="43.4162340" lon="-5.9944200">
        <ele>120.3</ele>
        <time>2018-09-15T12:08:46Z</time>
      </trkpt>
      <trkpt lat="43.4162710" lon="-5.9943730">
        <ele>120.5</ele>
        <time>2018-09-15T12:08:47Z</time>
      </trkpt>
      <trkpt lat="43.4163000" lon="-5.9943110">
        <ele>120.6</ele>
        <time>2018-09-15T12:08:48Z</time>
      </trkpt>
      <trkpt lat="43.4163310" lon="-5.9942530">
        <ele>120.7</ele>
        <time>2018-09-15T12:08:49Z</time>
      </trkpt>
      <trkpt lat="43.4163540" lon="-5.9941860">
        <ele>120.8</ele>
        <time>2018-09-15T12:08:50Z</time>
      </trkpt>
      <trkpt lat="43.4163720" lon="-5.9941190">
        <ele>120.8</ele>
        <time>2018-09-15T12:08:51Z</time>
      </trkpt>
      <trkpt lat="43.4163890" lon="-5.9940560">
        <ele>120.8</ele>
        <time>2018-09-15T12:08:52Z</time>
      </trkpt>
      <trkpt lat="43.4164060" lon="-5.9939910">
        <ele>120.9</ele>
        <time>2018-09-15T12:08:53Z</time>
      </trkpt>
      <trkpt lat="43.4164100" lon="-5.9939200">
        <ele>120.9</ele>
        <time>2018-09-15T12:08:54Z</time>
      </trkpt>
      <trkpt lat="43.4164140" lon="-5.9938580">
        <ele>120.9</ele>
        <time>2018-09-15T12:08:55Z</time>
      </trkpt>
      <trkpt lat="43.4164140" lon="-5.9937930">
        <ele>120.9</ele>
        <time>2018-09-15T12:08:56Z</time>
      </trkpt>
      <trkpt lat="43.4164150" lon="-5.9937280">
        <ele>120.9</ele>
        <time>2018-09-15T12:08:57Z</time>
      </trkpt>
      <trkpt lat="43.4164180" lon="-5.9936610">
        <ele>121.0</ele>
        <time>2018-09-15T12:08:58Z</time>
      </trkpt>
      <trkpt lat="43.4164140" lon="-5.9935860">
        <ele>121.0</ele>
        <time>2018-09-15T12:08:59Z</time>
      </trkpt>
      <trkpt lat="43.4164270" lon="-5.9935110">
        <ele>121.0</ele>
        <time>2018-09-15T12:09:00Z</time>
      </trkpt>
      <trkpt lat="43.4164300" lon="-5.9934450">
        <ele>121.0</ele>
        <time>2018-09-15T12:09:01Z</time>
      </trkpt>
      <trkpt lat="43.4164360" lon="-5.9933700">
        <ele>120.9</ele>
        <time>2018-09-15T12:09:02Z</time>
      </trkpt>
      <trkpt lat="43.4164380" lon="-5.9932970">
        <ele>120.9</ele>
        <time>2018-09-15T12:09:03Z</time>
      </trkpt>
      <trkpt lat="43.4164480" lon="-5.9932240">
        <ele>120.9</ele>
        <time>2018-09-15T12:09:04Z</time>
      </trkpt>
      <trkpt lat="43.4164450" lon="-5.9931570">
        <ele>120.9</ele>
        <time>2018-09-15T12:09:05Z</time>
      </trkpt>
      <trkpt lat="43.4164450" lon="-5.9930900">
        <ele>120.9</ele>
        <time>2018-09-15T12:09:06Z</time>
      </trkpt>
      <trkpt lat="43.4164420" lon="-5.9930140">
        <ele>120.9</ele>
        <time>2018-09-15T12:09:07Z</time>
      </trkpt>
      <trkpt lat="43.4164480" lon="-5.9929400">
        <ele>120.9</ele>
        <time>2018-09-15T12:09:08Z</time>
      </trkpt>
      <trkpt lat="43.4164500" lon="-5.9928730">
        <ele>121.0</ele>
        <time>2018-09-15T12:09:09Z</time>
      </trkpt>
      <trkpt lat="43.4164570" lon="-5.9928090">
        <ele>121.0</ele>
        <time>2018-09-15T12:09:10Z</time>
      </trkpt>
      <trkpt lat="43.4164580" lon="-5.9927450">
        <ele>121.0</ele>
        <time>2018-09-15T12:09:11Z</time>
      </trkpt>
      <trkpt lat="43.4164620" lon="-5.9926790">
        <ele>121.0</ele>
        <time>2018-09-15T12:09:12Z</time>
      </trkpt>
      <trkpt lat="43.4164720" lon="-5.9925520">
        <ele>121.2</ele>
        <time>2018-09-15T12:09:13Z</time>
      </trkpt>
      <trkpt lat="43.4164830" lon="-5.9924840">
        <ele>121.3</ele>
        <time>2018-09-15T12:09:14Z</time>
      </trkpt>
      <trkpt lat="43.4165050" lon="-5.9924280">
        <ele>121.5</ele>
        <time>2018-09-15T12:09:15Z</time>
      </trkpt>
      <trkpt lat="43.4165280" lon="-5.9923670">
        <ele>121.7</ele>
        <time>2018-09-15T12:09:16Z</time>
      </trkpt>
      <trkpt lat="43.4165460" lon="-5.9923120">
        <ele>121.8</ele>
        <time>2018-09-15T12:09:17Z</time>
      </trkpt>
      <trkpt lat="43.4165800" lon="-5.9922590">
        <ele>122.0</ele>
        <time>2018-09-15T12:09:18Z</time>
      </trkpt>
      <trkpt lat="43.4166090" lon="-5.9922080">
        <ele>122.1</ele>
        <time>2018-09-15T12:09:19Z</time>
      </trkpt>
      <trkpt lat="43.4166430" lon="-5.9921570">
        <ele>122.1</ele>
        <time>2018-09-15T12:09:20Z</time>
      </trkpt>
      <trkpt lat="43.4166810" lon="-5.9921200">
        <ele>122.2</ele>
        <time>2018-09-15T12:09:21Z</time>
      </trkpt>
      <trkpt lat="43.4167220" lon="-5.9920770">
        <ele>122.2</ele>
        <time>2018-09-15T12:09:22Z</time>
      </trkpt>
      <trkpt lat="43.4167610" lon="-5.9920330">
        <ele>122.3</ele>
        <time>2018-09-15T12:09:23Z</time>
      </trkpt>
      <trkpt lat="43.4168030" lon="-5.9919920">
        <ele>122.3</ele>
        <time>2018-09-15T12:09:24Z</time>
      </trkpt>
      <trkpt lat="43.4168440" lon="-5.9919530">
        <ele>122.4</ele>
        <time>2018-09-15T12:09:25Z</time>
      </trkpt>
      <trkpt lat="43.4168810" lon="-5.9919160">
        <ele>122.4</ele>
        <time>2018-09-15T12:09:26Z</time>
      </trkpt>
      <trkpt lat="43.4169220" lon="-5.9918740">
        <ele>122.4</ele>
        <time>2018-09-15T12:09:27Z</time>
      </trkpt>
      <trkpt lat="43.4169610" lon="-5.9918330">
        <ele>122.5</ele>
        <time>2018-09-15T12:09:28Z</time>
      </trkpt>
      <trkpt lat="43.4170010" lon="-5.9917930">
        <ele>122.6</ele>
        <time>2018-09-15T12:09:29Z</time>
      </trkpt>
      <trkpt lat="43.4170370" lon="-5.9917610">
        <ele>122.6</ele>
        <time>2018-09-15T12:09:30Z</time>
      </trkpt>
      <trkpt lat="43.4170740" lon="-5.9917190">
        <ele>122.7</ele>
        <time>2018-09-15T12:09:31Z</time>
      </trkpt>
      <trkpt lat="43.4171110" lon="-5.9916830">
        <ele>122.7</ele>
        <time>2018-09-15T12:09:32Z</time>
      </trkpt>
      <trkpt lat="43.4171530" lon="-5.9916420">
        <ele>122.8</ele>
        <time>2018-09-15T12:09:33Z</time>
      </trkpt>
      <trkpt lat="43.4171890" lon="-5.9916170">
        <ele>122.8</ele>
        <time>2018-09-15T12:09:34Z</time>
      </trkpt>
      <trkpt lat="43.4172330" lon="-5.9915860">
        <ele>122.9</ele>
        <time>2018-09-15T12:09:35Z</time>
      </trkpt>
      <trkpt lat="43.4172750" lon="-5.9915530">
        <ele>123.0</ele>
        <time>2018-09-15T12:09:36Z</time>
      </trkpt>
      <trkpt lat="43.4173110" lon="-5.9915110">
        <ele>123.1</ele>
        <time>2018-09-15T12:09:37Z</time>
      </trkpt>
      <trkpt lat="43.4173520" lon="-5.9914750">
        <ele>123.2</ele>
        <time>2018-09-15T12:09:38Z</time>
      </trkpt>
      <trkpt lat="43.4173910" lon="-5.9914410">
        <ele>123.4</ele>
        <time>2018-09-15T12:09:39Z</time>
      </trkpt>
      <trkpt lat="43.4174320" lon="-5.9914050">
        <ele>123.6</ele>
        <time>2018-09-15T12:09:40Z</time>
      </trkpt>
      <trkpt lat="43.4174720" lon="-5.9913710">
        <ele>123.7</ele>
        <time>2018-09-15T12:09:41Z</time>
      </trkpt>
      <trkpt lat="43.4175050" lon="-5.9913290">
        <ele>123.9</ele>
        <time>2018-09-15T12:09:42Z</time>
      </trkpt>
      <trkpt lat="43.4175410" lon="-5.9912970">
        <ele>123.9</ele>
        <time>2018-09-15T12:09:43Z</time>
      </trkpt>
      <trkpt lat="43.4175860" lon="-5.9912620">
        <ele>124.0</ele>
        <time>2018-09-15T12:09:44Z</time>
      </trkpt>
      <trkpt lat="43.4176260" lon="-5.9912280">
        <ele>124.1</ele>
        <time>2018-09-15T12:09:45Z</time>
      </trkpt>
      <trkpt lat="43.4176650" lon="-5.9911960">
        <ele>124.1</ele>
        <time>2018-09-15T12:09:46Z</time>
      </trkpt>
      <trkpt lat="43.4177000" lon="-5.9911600">
        <ele>124.2</ele>
        <time>2018-09-15T12:09:47Z</time>
      </trkpt>
      <trkpt lat="43.4177370" lon="-5.9911340">
        <ele>124.2</ele>
        <time>2018-09-15T12:09:48Z</time>
      </trkpt>
      <trkpt lat="43.4177770" lon="-5.9911040">
        <ele>124.3</ele>
        <time>2018-09-15T12:09:49Z</time>
      </trkpt>
      <trkpt lat="43.4178190" lon="-5.9910790">
        <ele>124.3</ele>
        <time>2018-09-15T12:09:50Z</time>
      </trkpt>
      <trkpt lat="43.4178620" lon="-5.9910540">
        <ele>124.4</ele>
        <time>2018-09-15T12:09:51Z</time>
      </trkpt>
      <trkpt lat="43.4179070" lon="-5.9910300">
        <ele>124.4</ele>
        <time>2018-09-15T12:09:52Z</time>
      </trkpt>
      <trkpt lat="43.4179560" lon="-5.9910080">
        <ele>124.5</ele>
        <time>2018-09-15T12:09:53Z</time>
      </trkpt>
      <trkpt lat="43.4180020" lon="-5.9909870">
        <ele>124.6</ele>
        <time>2018-09-15T12:09:54Z</time>
      </trkpt>
      <trkpt lat="43.4180460" lon="-5.9909560">
        <ele>124.7</ele>
        <time>2018-09-15T12:09:55Z</time>
      </trkpt>
      <trkpt lat="43.4180880" lon="-5.9909210">
        <ele>124.7</ele>
        <time>2018-09-15T12:09:56Z</time>
      </trkpt>
      <trkpt lat="43.4181250" lon="-5.9908890">
        <ele>124.8</ele>
        <time>2018-09-15T12:09:57Z</time>
      </trkpt>
      <trkpt lat="43.4181620" lon="-5.9908510">
        <ele>124.8</ele>
        <time>2018-09-15T12:09:58Z</time>
      </trkpt>
      <trkpt lat="43.4182070" lon="-5.9908230">
        <ele>124.9</ele>
        <time>2018-09-15T12:09:59Z</time>
      </trkpt>
      <trkpt lat="43.4182480" lon="-5.9907830">
        <ele>125.0</ele>
        <time>2018-09-15T12:10:00Z</time>
      </trkpt>
      <trkpt lat="43.4182880" lon="-5.9907460">
        <ele>125.2</ele>
        <time>2018-09-15T12:10:01Z</time>
      </trkpt>
      <trkpt lat="43.4183260" lon="-5.9907030">
        <ele>125.3</ele>
        <time>2018-09-15T12:10:02Z</time>
      </trkpt>
      <trkpt lat="43.4183690" lon="-5.9906740">
        <ele>125.5</ele>
        <time>2018-09-15T12:10:03Z</time>
      </trkpt>
      <trkpt lat="43.4184110" lon="-5.9906430">
        <ele>125.7</ele>
        <time>2018-09-15T12:10:04Z</time>
      </trkpt>
      <trkpt lat="43.4184510" lon="-5.9906080">
        <ele>125.8</ele>
        <time>2018-09-15T12:10:05Z</time>
      </trkpt>
      <trkpt lat="43.4184930" lon="-5.9905770">
        <ele>125.9</ele>
        <time>2018-09-15T12:10:06Z</time>
      </trkpt>
      <trkpt lat="43.4185310" lon="-5.9905480">
        <ele>125.9</ele>
        <time>2018-09-15T12:10:07Z</time>
      </trkpt>
      <trkpt lat="43.4185700" lon="-5.9905120">
        <ele>126.0</ele>
        <time>2018-09-15T12:10:08Z</time>
      </trkpt>
      <trkpt lat="43.4186070" lon="-5.9904780">
        <ele>126.0</ele>
        <time>2018-09-15T12:10:09Z</time>
      </trkpt>
      <trkpt lat="43.4186480" lon="-5.9904440">
        <ele>126.0</ele>
        <time>2018-09-15T12:10:10Z</time>
      </trkpt>
      <trkpt lat="43.4186930" lon="-5.9904090">
        <ele>126.1</ele>
        <time>2018-09-15T12:10:11Z</time>
      </trkpt>
      <trkpt lat="43.4187350" lon="-5.9903740">
        <ele>126.1</ele>
        <time>2018-09-15T12:10:12Z</time>
      </trkpt>
      <trkpt lat="43.4187730" lon="-5.9903370">
        <ele>126.2</ele>
        <time>2018-09-15T12:10:13Z</time>
      </trkpt>
      <trkpt lat="43.4188100" lon="-5.9903020">
        <ele>126.2</ele>
        <time>2018-09-15T12:10:14Z</time>
      </trkpt>
      <trkpt lat="43.4188470" lon="-5.9902690">
        <ele>126.2</ele>
        <time>2018-09-15T12:10:15Z</time>
      </trkpt>
      <trkpt lat="43.4188830" lon="-5.9902370">
        <ele>126.2</ele>
        <time>2018-09-15T12:10:16Z</time>
      </trkpt>
      <trkpt lat="43.4189150" lon="-5.9901990">
        <ele>126.2</ele>
        <time>2018-09-15T12:10:17Z</time>
      </trkpt>
      <trkpt lat="43.4189580" lon="-5.9901610">
        <ele>126.2</ele>
        <time>2018-09-15T12:10:18Z</time>
      </trkpt>
      <trkpt lat="43.4189950" lon="-5.9901190">
        <ele>126.3</ele>
        <time>2018-09-15T12:10:19Z</time>
      </trkpt>
      <trkpt lat="43.4190390" lon="-5.9900770">
        <ele>126.3</ele>
        <time>2018-09-15T12:10:20Z</time>
      </trkpt>
      <trkpt lat="43.4190910" lon="-5.9900530">
        <ele>126.3</ele>
        <time>2018-09-15T12:10:21Z</time>
      </trkpt>
      <trkpt lat="43.4191310" lon="-5.9900200">
        <ele>126.3</ele>
        <time>2018-09-15T12:10:22Z</time>
      </trkpt>
      <trkpt lat="43.4191670" lon="-5.9899870">
        <ele>126.3</ele>
        <time>2018-09-15T12:10:23Z</time>
      </trkpt>
      <trkpt lat="43.4192050" lon="-5.9899490">
        <ele>126.3</ele>
        <time>2018-09-15T12:10:24Z</time>
      </trkpt>
      <trkpt lat="43.4192370" lon="-5.9899210">
        <ele>126.3</ele>
        <time>2018-09-15T12:10:25Z</time>
      </trkpt>
      <trkpt lat="43.4192750" lon="-5.9898880">
        <ele>126.3</ele>
        <time>2018-09-15T12:10:26Z</time>
      </trkpt>
      <trkpt lat="43.4193150" lon="-5.9898550">
        <ele>126.3</ele>
        <time>2018-09-15T12:10:27Z</time>
      </trkpt>
      <trkpt lat="43.4193520" lon="-5.9898180">
        <ele>126.3</ele>
        <time>2018-09-15T12:10:28Z</time>
      </trkpt>
      <trkpt lat="43.4193870" lon="-5.9897880">
        <ele>126.3</ele>
        <time>2018-09-15T12:10:29Z</time>
      </trkpt>
      <trkpt lat="43.4194260" lon="-5.9897540">
        <ele>126.3</ele>
        <time>2018-09-15T12:10:30Z</time>
      </trkpt>
      <trkpt lat="43.4194630" lon="-5.9897250">
        <ele>126.3</ele>
        <time>2018-09-15T12:10:31Z</time>
      </trkpt>
      <trkpt lat="43.4195040" lon="-5.9896940">
        <ele>126.3</ele>
        <time>2018-09-15T12:10:32Z</time>
      </trkpt>
      <trkpt lat="43.4195420" lon="-5.9896590">
        <ele>126.3</ele>
        <time>2018-09-15T12:10:33Z</time>
      </trkpt>
      <trkpt lat="43.4195790" lon="-5.9896300">
        <ele>126.3</ele>
        <time>2018-09-15T12:10:34Z</time>
      </trkpt>
      <trkpt lat="43.4196140" lon="-5.9896010">
        <ele>126.3</ele>
        <time>2018-09-15T12:10:35Z</time>
      </trkpt>
      <trkpt lat="43.4196480" lon="-5.9895720">
        <ele>126.3</ele>
        <time>2018-09-15T12:10:36Z</time>
      </trkpt>
      <trkpt lat="43.4196830" lon="-5.9895440">
        <ele>126.2</ele>
        <time>2018-09-15T12:10:37Z</time>
      </trkpt>
      <trkpt lat="43.4197220" lon="-5.9895130">
        <ele>126.2</ele>
        <time>2018-09-15T12:10:38Z</time>
      </trkpt>
      <trkpt lat="43.4197610" lon="-5.9894740">
        <ele>126.2</ele>
        <time>2018-09-15T12:10:39Z</time>
      </trkpt>
      <trkpt lat="43.4197960" lon="-5.9894300">
        <ele>126.2</ele>
        <time>2018-09-15T12:10:40Z</time>
      </trkpt>
      <trkpt lat="43.4198360" lon="-5.9894020">
        <ele>126.2</ele>
        <time>2018-09-15T12:10:41Z</time>
      </trkpt>
      <trkpt lat="43.4198720" lon="-5.9893660">
        <ele>126.2</ele>
        <time>2018-09-15T12:10:42Z</time>
      </trkpt>
      <trkpt lat="43.4199100" lon="-5.9893290">
        <ele>126.2</ele>
        <time>2018-09-15T12:10:43Z</time>
      </trkpt>
      <trkpt lat="43.4199490" lon="-5.9892910">
        <ele>126.2</ele>
        <time>2018-09-15T12:10:44Z</time>
      </trkpt>
      <trkpt lat="43.4199830" lon="-5.9892450">
        <ele>126.2</ele>
        <time>2018-09-15T12:10:45Z</time>
      </trkpt>
      <trkpt lat="43.4200220" lon="-5.9892090">
        <ele>126.2</ele>
        <time>2018-09-15T12:10:46Z</time>
      </trkpt>
      <trkpt lat="43.4200620" lon="-5.9891690">
        <ele>126.2</ele>
        <time>2018-09-15T12:10:47Z</time>
      </trkpt>
      <trkpt lat="43.4200980" lon="-5.9891290">
        <ele>126.1</ele>
        <time>2018-09-15T12:10:48Z</time>
      </trkpt>
      <trkpt lat="43.4201300" lon="-5.9890860">
        <ele>126.1</ele>
        <time>2018-09-15T12:10:49Z</time>
      </trkpt>
      <trkpt lat="43.4201600" lon="-5.9890400">
        <ele>126.1</ele>
        <time>2018-09-15T12:10:50Z</time>
      </trkpt>
      <trkpt lat="43.4201920" lon="-5.9889970">
        <ele>126.1</ele>
        <time>2018-09-15T12:10:51Z</time>
      </trkpt>
      <trkpt lat="43.4202230" lon="-5.9889550">
        <ele>126.1</ele>
        <time>2018-09-15T12:10:52Z</time>
      </trkpt>
      <trkpt lat="43.4202510" lon="-5.9889130">
        <ele>126.1</ele>
        <time>2018-09-15T12:10:53Z</time>
      </trkpt>
      <trkpt lat="43.4202780" lon="-5.9888750">
        <ele>126.1</ele>
        <time>2018-09-15T12:10:54Z</time>
      </trkpt>
      <trkpt lat="43.4203010" lon="-5.9888390">
        <ele>126.1</ele>
        <time>2018-09-15T12:10:55Z</time>
      </trkpt>
      <trkpt lat="43.4203240" lon="-5.9888010">
        <ele>126.1</ele>
        <time>2018-09-15T12:10:56Z</time>
      </trkpt>
      <trkpt lat="43.4203520" lon="-5.9887540">
        <ele>126.1</ele>
        <time>2018-09-15T12:10:57Z</time>
      </trkpt>
      <trkpt lat="43.4203870" lon="-5.9887040">
        <ele>126.1</ele>
        <time>2018-09-15T12:10:58Z</time>
      </trkpt>
      <trkpt lat="43.4204150" lon="-5.9886620">
        <ele>126.1</ele>
        <time>2018-09-15T12:10:59Z</time>
      </trkpt>
      <trkpt lat="43.4204490" lon="-5.9886110">
        <ele>126.1</ele>
        <time>2018-09-15T12:11:00Z</time>
      </trkpt>
      <trkpt lat="43.4204790" lon="-5.9885530">
        <ele>126.1</ele>
        <time>2018-09-15T12:11:01Z</time>
      </trkpt>
      <trkpt lat="43.4205110" lon="-5.9885000">
        <ele>126.1</ele>
        <time>2018-09-15T12:11:02Z</time>
      </trkpt>
      <trkpt lat="43.4205390" lon="-5.9884490">
        <ele>126.1</ele>
        <time>2018-09-15T12:11:03Z</time>
      </trkpt>
      <trkpt lat="43.4205720" lon="-5.9884010">
        <ele>126.0</ele>
        <time>2018-09-15T12:11:04Z</time>
      </trkpt>
      <trkpt lat="43.4206090" lon="-5.9883560">
        <ele>126.0</ele>
        <time>2018-09-15T12:11:05Z</time>
      </trkpt>
      <trkpt lat="43.4206330" lon="-5.9883030">
        <ele>126.0</ele>
        <time>2018-09-15T12:11:06Z</time>
      </trkpt>
      <trkpt lat="43.4206640" lon="-5.9882450">
        <ele>126.0</ele>
        <time>2018-09-15T12:11:07Z</time>
      </trkpt>
      <trkpt lat="43.4206950" lon="-5.9881970">
        <ele>126.0</ele>
        <time>2018-09-15T12:11:08Z</time>
      </trkpt>
      <trkpt lat="43.4207270" lon="-5.9881370">
        <ele>126.0</ele>
        <time>2018-09-15T12:11:09Z</time>
      </trkpt>
      <trkpt lat="43.4207530" lon="-5.9880760">
        <ele>127.1</ele>
        <time>2018-09-15T12:11:10Z</time>
      </trkpt>
      <trkpt lat="43.4207890" lon="-5.9880200">
        <ele>129.0</ele>
        <time>2018-09-15T12:11:11Z</time>
      </trkpt>
      <trkpt lat="43.4208270" lon="-5.9879690">
        <ele>130.9</ele>
        <time>2018-09-15T12:11:12Z</time>
      </trkpt>
      <trkpt lat="43.4208590" lon="-5.9879090">
        <ele>132.8</ele>
        <time>2018-09-15T12:11:13Z</time>
      </trkpt>
      <trkpt lat="43.4208910" lon="-5.9878480">
        <ele>134.7</ele>
        <time>2018-09-15T12:11:14Z</time>
      </trkpt>
      <trkpt lat="43.4209310" lon="-5.9877970">
        <ele>136.6</ele>
        <time>2018-09-15T12:11:15Z</time>
      </trkpt>
      <trkpt lat="43.4209620" lon="-5.9877410">
        <ele>138.4</ele>
        <time>2018-09-15T12:11:16Z</time>
      </trkpt>
      <trkpt lat="43.4210000" lon="-5.9876910">
        <ele>140.3</ele>
        <time>2018-09-15T12:11:17Z</time>
      </trkpt>
      <trkpt lat="43.4210260" lon="-5.9876390">
        <ele>141.0</ele>
        <time>2018-09-15T12:11:18Z</time>
      </trkpt>
      <trkpt lat="43.4210580" lon="-5.9875900">
        <ele>141.0</ele>
        <time>2018-09-15T12:11:19Z</time>
      </trkpt>
      <trkpt lat="43.4210890" lon="-5.9875340">
        <ele>140.5</ele>
        <time>2018-09-15T12:11:20Z</time>
      </trkpt>
      <trkpt lat="43.4211200" lon="-5.9874830">
        <ele>137.5</ele>
        <time>2018-09-15T12:11:21Z</time>
      </trkpt>
      <trkpt lat="43.4211490" lon="-5.9874310">
        <ele>134.6</ele>
        <time>2018-09-15T12:11:22Z</time>
      </trkpt>
      <trkpt lat="43.4211780" lon="-5.9873760">
        <ele>131.6</ele>
        <time>2018-09-15T12:11:23Z</time>
      </trkpt>
      <trkpt lat="43.4212090" lon="-5.9873300">
        <ele>131.1</ele>
        <time>2018-09-15T12:11:24Z</time>
      </trkpt>
      <trkpt lat="43.4212380" lon="-5.9872780">
        <ele>131.3</ele>
        <time>2018-09-15T12:11:25Z</time>
      </trkpt>
      <trkpt lat="43.4212670" lon="-5.9872230">
        <ele>131.5</ele>
        <time>2018-09-15T12:11:26Z</time>
      </trkpt>
      <trkpt lat="43.4213020" lon="-5.9871770">
        <ele>131.6</ele>
        <time>2018-09-15T12:11:27Z</time>
      </trkpt>
      <trkpt lat="43.4213270" lon="-5.9871230">
        <ele>131.8</ele>
        <time>2018-09-15T12:11:28Z</time>
      </trkpt>
      <trkpt lat="43.4213630" lon="-5.9870730">
        <ele>132.0</ele>
        <time>2018-09-15T12:11:29Z</time>
      </trkpt>
      <trkpt lat="43.4213900" lon="-5.9870250">
        <ele>132.2</ele>
        <time>2018-09-15T12:11:30Z</time>
      </trkpt>
      <trkpt lat="43.4214240" lon="-5.9869840">
        <ele>132.5</ele>
        <time>2018-09-15T12:11:31Z</time>
      </trkpt>
      <trkpt lat="43.4214580" lon="-5.9869380">
        <ele>132.8</ele>
        <time>2018-09-15T12:11:32Z</time>
      </trkpt>
      <trkpt lat="43.4214870" lon="-5.9868870">
        <ele>133.1</ele>
        <time>2018-09-15T12:11:33Z</time>
      </trkpt>
      <trkpt lat="43.4215200" lon="-5.9868530">
        <ele>133.3</ele>
        <time>2018-09-15T12:11:34Z</time>
      </trkpt>
      <trkpt lat="43.4215510" lon="-5.9868190">
        <ele>133.5</ele>
        <time>2018-09-15T12:11:35Z</time>
      </trkpt>
      <trkpt lat="43.4215860" lon="-5.9867830">
        <ele>133.8</ele>
        <time>2018-09-15T12:11:36Z</time>
      </trkpt>
      <trkpt lat="43.4216200" lon="-5.9867490">
        <ele>134.0</ele>
        <time>2018-09-15T12:11:37Z</time>
      </trkpt>
      <trkpt lat="43.4216480" lon="-5.9866980">
        <ele>134.2</ele>
        <time>2018-09-15T12:11:38Z</time>
      </trkpt>
      <trkpt lat="43.4216800" lon="-5.9866530">
        <ele>134.4</ele>
        <time>2018-09-15T12:11:39Z</time>
      </trkpt>
      <trkpt lat="43.4217130" lon="-5.9866150">
        <ele>134.6</ele>
        <time>2018-09-15T12:11:40Z</time>
      </trkpt>
      <trkpt lat="43.4217460" lon="-5.9865800">
        <ele>134.7</ele>
        <time>2018-09-15T12:11:41Z</time>
      </trkpt>
      <trkpt lat="43.4217560" lon="-5.9865670">
        <ele>134.7</ele>
        <time>2018-09-15T12:11:42Z</time>
      </trkpt>
      <trkpt lat="43.4217990" lon="-5.9865290">
        <ele>134.8</ele>
        <time>2018-09-15T12:11:43Z</time>
      </trkpt>
      <trkpt lat="43.4218300" lon="-5.9864970">
        <ele>134.9</ele>
        <time>2018-09-15T12:11:44Z</time>
      </trkpt>
      <trkpt lat="43.4218640" lon="-5.9864630">
        <ele>135.0</ele>
        <time>2018-09-15T12:11:45Z</time>
      </trkpt>
      <trkpt lat="43.4219040" lon="-5.9864290">
        <ele>135.1</ele>
        <time>2018-09-15T12:11:46Z</time>
      </trkpt>
      <trkpt lat="43.4219420" lon="-5.9863940">
        <ele>135.1</ele>
        <time>2018-09-15T12:11:47Z</time>
      </trkpt>
      <trkpt lat="43.4219800" lon="-5.9863600">
        <ele>135.2</ele>
        <time>2018-09-15T12:11:48Z</time>
      </trkpt>
      <trkpt lat="43.4220280" lon="-5.9863200">
        <ele>135.4</ele>
        <time>2018-09-15T12:11:49Z</time>
      </trkpt>
      <trkpt lat="43.4220640" lon="-5.9862950">
        <ele>135.5</ele>
        <time>2018-09-15T12:11:50Z</time>
      </trkpt>
      <trkpt lat="43.4221080" lon="-5.9862710">
        <ele>135.6</ele>
        <time>2018-09-15T12:11:51Z</time>
      </trkpt>
      <trkpt lat="43.4221420" lon="-5.9862390">
        <ele>135.7</ele>
        <time>2018-09-15T12:11:52Z</time>
      </trkpt>
      <trkpt lat="43.4221770" lon="-5.9862090">
        <ele>135.9</ele>
        <time>2018-09-15T12:11:53Z</time>
      </trkpt>
      <trkpt lat="43.4222110" lon="-5.9861760">
        <ele>136.1</ele>
        <time>2018-09-15T12:11:54Z</time>
      </trkpt>
      <trkpt lat="43.4222490" lon="-5.9861490">
        <ele>136.3</ele>
        <time>2018-09-15T12:11:55Z</time>
      </trkpt>
      <trkpt lat="43.4222810" lon="-5.9861190">
        <ele>136.5</ele>
        <time>2018-09-15T12:11:56Z</time>
      </trkpt>
      <trkpt lat="43.4223190" lon="-5.9860800">
        <ele>136.7</ele>
        <time>2018-09-15T12:11:57Z</time>
      </trkpt>
      <trkpt lat="43.4223560" lon="-5.9860520">
        <ele>136.9</ele>
        <time>2018-09-15T12:11:58Z</time>
      </trkpt>
      <trkpt lat="43.4223940" lon="-5.9860190">
        <ele>137.1</ele>
        <time>2018-09-15T12:11:59Z</time>
      </trkpt>
      <trkpt lat="43.4224270" lon="-5.9859880">
        <ele>137.3</ele>
        <time>2018-09-15T12:12:00Z</time>
      </trkpt>
      <trkpt lat="43.4224680" lon="-5.9859590">
        <ele>137.6</ele>
        <time>2018-09-15T12:12:01Z</time>
      </trkpt>
      <trkpt lat="43.4224980" lon="-5.9859260">
        <ele>137.7</ele>
        <time>2018-09-15T12:12:02Z</time>
      </trkpt>
      <trkpt lat="43.4225350" lon="-5.9858910">
        <ele>137.9</ele>
        <time>2018-09-15T12:12:03Z</time>
      </trkpt>
      <trkpt lat="43.4225780" lon="-5.9858660">
        <ele>138.1</ele>
        <time>2018-09-15T12:12:04Z</time>
      </trkpt>
      <trkpt lat="43.4226170" lon="-5.9858480">
        <ele>138.2</ele>
        <time>2018-09-15T12:12:05Z</time>
      </trkpt>
      <trkpt lat="43.4226530" lon="-5.9858290">
        <ele>138.3</ele>
        <time>2018-09-15T12:12:06Z</time>
      </trkpt>
      <trkpt lat="43.4226940" lon="-5.9858180">
        <ele>138.4</ele>
        <time>2018-09-15T12:12:07Z</time>
      </trkpt>
      <trkpt lat="43.4227370" lon="-5.9858000">
        <ele>138.5</ele>
        <time>2018-09-15T12:12:08Z</time>
      </trkpt>
      <trkpt lat="43.4227770" lon="-5.9857910">
        <ele>138.6</ele>
        <time>2018-09-15T12:12:09Z</time>
      </trkpt>
      <trkpt lat="43.4228160" lon="-5.9857840">
        <ele>138.6</ele>
        <time>2018-09-15T12:12:10Z</time>
      </trkpt>
      <trkpt lat="43.4228580" lon="-5.9857850">
        <ele>138.7</ele>
        <time>2018-09-15T12:12:11Z</time>
      </trkpt>
      <trkpt lat="43.4229010" lon="-5.9857810">
        <ele>138.9</ele>
        <time>2018-09-15T12:12:12Z</time>
      </trkpt>
      <trkpt lat="43.4229480" lon="-5.9857750">
        <ele>139.1</ele>
        <time>2018-09-15T12:12:13Z</time>
      </trkpt>
      <trkpt lat="43.4229880" lon="-5.9857650">
        <ele>139.3</ele>
        <time>2018-09-15T12:12:14Z</time>
      </trkpt>
      <trkpt lat="43.4230300" lon="-5.9857420">
        <ele>139.5</ele>
        <time>2018-09-15T12:12:15Z</time>
      </trkpt>
      <trkpt lat="43.4230700" lon="-5.9857090">
        <ele>139.7</ele>
        <time>2018-09-15T12:12:16Z</time>
      </trkpt>
      <trkpt lat="43.4231100" lon="-5.9856700">
        <ele>139.9</ele>
        <time>2018-09-15T12:12:17Z</time>
      </trkpt>
      <trkpt lat="43.4231430" lon="-5.9856260">
        <ele>140.1</ele>
        <time>2018-09-15T12:12:18Z</time>
      </trkpt>
      <trkpt lat="43.4231740" lon="-5.9855780">
        <ele>140.3</ele>
        <time>2018-09-15T12:12:19Z</time>
      </trkpt>
      <trkpt lat="43.4232080" lon="-5.9855340">
        <ele>140.5</ele>
        <time>2018-09-15T12:12:20Z</time>
      </trkpt>
      <trkpt lat="43.4232420" lon="-5.9854940">
        <ele>140.5</ele>
        <time>2018-09-15T12:12:21Z</time>
      </trkpt>
      <trkpt lat="43.4232730" lon="-5.9854500">
        <ele>140.6</ele>
        <time>2018-09-15T12:12:22Z</time>
      </trkpt>
      <trkpt lat="43.4233030" lon="-5.9854040">
        <ele>140.7</ele>
        <time>2018-09-15T12:12:23Z</time>
      </trkpt>
      <trkpt lat="43.4233340" lon="-5.9853680">
        <ele>140.8</ele>
        <time>2018-09-15T12:12:24Z</time>
      </trkpt>
      <trkpt lat="43.4233650" lon="-5.9853200">
        <ele>140.8</ele>
        <time>2018-09-15T12:12:25Z</time>
      </trkpt>
      <trkpt lat="43.4233950" lon="-5.9852750">
        <ele>140.9</ele>
        <time>2018-09-15T12:12:26Z</time>
      </trkpt>
      <trkpt lat="43.4234260" lon="-5.9852350">
        <ele>141.0</ele>
        <time>2018-09-15T12:12:27Z</time>
      </trkpt>
      <trkpt lat="43.4234570" lon="-5.9851980">
        <ele>141.1</ele>
        <time>2018-09-15T12:12:28Z</time>
      </trkpt>
      <trkpt lat="43.4234920" lon="-5.9851660">
        <ele>141.2</ele>
        <time>2018-09-15T12:12:29Z</time>
      </trkpt>
      <trkpt lat="43.4235270" lon="-5.9851270">
        <ele>141.4</ele>
        <time>2018-09-15T12:12:30Z</time>
      </trkpt>
      <trkpt lat="43.4235660" lon="-5.9850960">
        <ele>141.6</ele>
        <time>2018-09-15T12:12:31Z</time>
      </trkpt>
      <trkpt lat="43.4236040" lon="-5.9850660">
        <ele>141.8</ele>
        <time>2018-09-15T12:12:32Z</time>
      </trkpt>
      <trkpt lat="43.4236450" lon="-5.9850460">
        <ele>142.0</ele>
        <time>2018-09-15T12:12:33Z</time>
      </trkpt>
      <trkpt lat="43.4236860" lon="-5.9850250">
        <ele>142.3</ele>
        <time>2018-09-15T12:12:34Z</time>
      </trkpt>
      <trkpt lat="43.4237270" lon="-5.9850000">
        <ele>142.5</ele>
        <time>2018-09-15T12:12:35Z</time>
      </trkpt>
      <trkpt lat="43.4237660" lon="-5.9849740">
        <ele>142.7</ele>
        <time>2018-09-15T12:12:36Z</time>
      </trkpt>
      <trkpt lat="43.4238060" lon="-5.9849560">
        <ele>142.9</ele>
        <time>2018-09-15T12:12:37Z</time>
      </trkpt>
      <trkpt lat="43.4238500" lon="-5.9849430">
        <ele>143.1</ele>
        <time>2018-09-15T12:12:38Z</time>
      </trkpt>
      <trkpt lat="43.4238960" lon="-5.9849280">
        <ele>143.2</ele>
        <time>2018-09-15T12:12:39Z</time>
      </trkpt>
      <trkpt lat="43.4239340" lon="-5.9849030">
        <ele>143.3</ele>
        <time>2018-09-15T12:12:40Z</time>
      </trkpt>
      <trkpt lat="43.4239810" lon="-5.9848850">
        <ele>143.4</ele>
        <time>2018-09-15T12:12:41Z</time>
      </trkpt>
      <trkpt lat="43.4240290" lon="-5.9848630">
        <ele>143.5</ele>
        <time>2018-09-15T12:12:42Z</time>
      </trkpt>
      <trkpt lat="43.4240750" lon="-5.9848430">
        <ele>143.5</ele>
        <time>2018-09-15T12:12:43Z</time>
      </trkpt>
      <trkpt lat="43.4241230" lon="-5.9848270">
        <ele>143.6</ele>
        <time>2018-09-15T12:12:44Z</time>
      </trkpt>
      <trkpt lat="43.4241630" lon="-5.9848050">
        <ele>143.6</ele>
        <time>2018-09-15T12:12:45Z</time>
      </trkpt>
      <trkpt lat="43.4242090" lon="-5.9847800">
        <ele>143.7</ele>
        <time>2018-09-15T12:12:46Z</time>
      </trkpt>
      <trkpt lat="43.4242580" lon="-5.9847660">
        <ele>143.8</ele>
        <time>2018-09-15T12:12:47Z</time>
      </trkpt>
      <trkpt lat="43.4243030" lon="-5.9847560">
        <ele>143.8</ele>
        <time>2018-09-15T12:12:48Z</time>
      </trkpt>
      <trkpt lat="43.4243430" lon="-5.9847350">
        <ele>143.9</ele>
        <time>2018-09-15T12:12:49Z</time>
      </trkpt>
      <trkpt lat="43.4243810" lon="-5.9847100">
        <ele>143.9</ele>
        <time>2018-09-15T12:12:50Z</time>
      </trkpt>
      <trkpt lat="43.4244260" lon="-5.9846970">
        <ele>144.0</ele>
        <time>2018-09-15T12:12:51Z</time>
      </trkpt>
      <trkpt lat="43.4244640" lon="-5.9846720">
        <ele>144.0</ele>
        <time>2018-09-15T12:12:52Z</time>
      </trkpt>
      <trkpt lat="43.4245050" lon="-5.9846510">
        <ele>144.2</ele>
        <time>2018-09-15T12:12:53Z</time>
      </trkpt>
      <trkpt lat="43.4245470" lon="-5.9846200">
        <ele>144.4</ele>
        <time>2018-09-15T12:12:54Z</time>
      </trkpt>
      <trkpt lat="43.4245860" lon="-5.9845910">
        <ele>144.5</ele>
        <time>2018-09-15T12:12:55Z</time>
      </trkpt>
      <trkpt lat="43.4246270" lon="-5.9845560">
        <ele>144.7</ele>
        <time>2018-09-15T12:12:56Z</time>
      </trkpt>
      <trkpt lat="43.4246630" lon="-5.9845170">
        <ele>144.9</ele>
        <time>2018-09-15T12:12:57Z</time>
      </trkpt>
      <trkpt lat="43.4247030" lon="-5.9844730">
        <ele>145.1</ele>
        <time>2018-09-15T12:12:58Z</time>
      </trkpt>
      <trkpt lat="43.4247390" lon="-5.9844410">
        <ele>145.3</ele>
        <time>2018-09-15T12:12:59Z</time>
      </trkpt>
      <trkpt lat="43.4247780" lon="-5.9844100">
        <ele>145.4</ele>
        <time>2018-09-15T12:13:00Z</time>
      </trkpt>
      <trkpt lat="43.4248160" lon="-5.9843760">
        <ele>145.6</ele>
        <time>2018-09-15T12:13:01Z</time>
      </trkpt>
      <trkpt lat="43.4248500" lon="-5.9843330">
        <ele>145.7</ele>
        <time>2018-09-15T12:13:02Z</time>
      </trkpt>
      <trkpt lat="43.4248880" lon="-5.9842920">
        <ele>145.8</ele>
        <time>2018-09-15T12:13:03Z</time>
      </trkpt>
      <trkpt lat="43.4249230" lon="-5.9842520">
        <ele>145.9</ele>
        <time>2018-09-15T12:13:04Z</time>
      </trkpt>
      <trkpt lat="43.4249590" lon="-5.9842230">
        <ele>146.0</ele>
        <time>2018-09-15T12:13:05Z</time>
      </trkpt>
      <trkpt lat="43.4250040" lon="-5.9841890">
        <ele>146.1</ele>
        <time>2018-09-15T12:13:06Z</time>
      </trkpt>
      <trkpt lat="43.4250330" lon="-5.9841510">
        <ele>146.2</ele>
        <time>2018-09-15T12:13:07Z</time>
      </trkpt>
      <trkpt lat="43.4250700" lon="-5.9841090">
        <ele>146.3</ele>
        <time>2018-09-15T12:13:08Z</time>
      </trkpt>
      <trkpt lat="43.4251090" lon="-5.9840840">
        <ele>146.4</ele>
        <time>2018-09-15T12:13:09Z</time>
      </trkpt>
      <trkpt lat="43.4251510" lon="-5.9840510">
        <ele>146.6</ele>
        <time>2018-09-15T12:13:10Z</time>
      </trkpt>
      <trkpt lat="43.4251900" lon="-5.9840120">
        <ele>146.8</ele>
        <time>2018-09-15T12:13:11Z</time>
      </trkpt>
      <trkpt lat="43.4252250" lon="-5.9839790">
        <ele>146.9</ele>
        <time>2018-09-15T12:13:12Z</time>
      </trkpt>
      <trkpt lat="43.4252610" lon="-5.9839460">
        <ele>147.1</ele>
        <time>2018-09-15T12:13:13Z</time>
      </trkpt>
      <trkpt lat="43.4252980" lon="-5.9839050">
        <ele>147.2</ele>
        <time>2018-09-15T12:13:14Z</time>
      </trkpt>
      <trkpt lat="43.4253350" lon="-5.9838760">
        <ele>147.4</ele>
        <time>2018-09-15T12:13:15Z</time>
      </trkpt>
      <trkpt lat="43.4253630" lon="-5.9838540">
        <ele>147.5</ele>
        <time>2018-09-15T12:13:16Z</time>
      </trkpt>
      <trkpt lat="43.4253960" lon="-5.9838220">
        <ele>147.6</ele>
        <time>2018-09-15T12:13:17Z</time>
      </trkpt>
      <trkpt lat="43.4254300" lon="-5.9837840">
        <ele>147.7</ele>
        <time>2018-09-15T12:13:18Z</time>
      </trkpt>
      <trkpt lat="43.4254680" lon="-5.9837510">
        <ele>147.8</ele>
        <time>2018-09-15T12:13:19Z</time>
      </trkpt>
      <trkpt lat="43.4255070" lon="-5.9837140">
        <ele>147.9</ele>
        <time>2018-09-15T12:13:20Z</time>
      </trkpt>
      <trkpt lat="43.4255440" lon="-5.9836790">
        <ele>147.9</ele>
        <time>2018-09-15T12:13:21Z</time>
      </trkpt>
      <trkpt lat="43.4255830" lon="-5.9836440">
        <ele>148.0</ele>
        <time>2018-09-15T12:13:22Z</time>
      </trkpt>
      <trkpt lat="43.4256220" lon="-5.9836140">
        <ele>148.0</ele>
        <time>2018-09-15T12:13:23Z</time>
      </trkpt>
      <trkpt lat="43.4256560" lon="-5.9835740">
        <ele>148.1</ele>
        <time>2018-09-15T12:13:24Z</time>
      </trkpt>
      <trkpt lat="43.4256860" lon="-5.9835380">
        <ele>148.1</ele>
        <time>2018-09-15T12:13:25Z</time>
      </trkpt>
      <trkpt lat="43.4257190" lon="-5.9834940">
        <ele>148.1</ele>
        <time>2018-09-15T12:13:26Z</time>
      </trkpt>
      <trkpt lat="43.4257630" lon="-5.9834580">
        <ele>148.2</ele>
        <time>2018-09-15T12:13:27Z</time>
      </trkpt>
      <trkpt lat="43.4258020" lon="-5.9834190">
        <ele>148.2</ele>
        <time>2018-09-15T12:13:28Z</time>
      </trkpt>
      <trkpt lat="43.4258380" lon="-5.9833780">
        <ele>148.3</ele>
        <time>2018-09-15T12:13:29Z</time>
      </trkpt>
      <trkpt lat="43.4258680" lon="-5.9833450">
        <ele>148.3</ele>
        <time>2018-09-15T12:13:30Z</time>
      </trkpt>
      <trkpt lat="43.4259010" lon="-5.9832980">
        <ele>148.4</ele>
        <time>2018-09-15T12:13:31Z</time>
      </trkpt>
      <trkpt lat="43.4259360" lon="-5.9832590">
        <ele>148.4</ele>
        <time>2018-09-15T12:13:32Z</time>
      </trkpt>
      <trkpt lat="43.4259680" lon="-5.9832160">
        <ele>148.5</ele>
        <time>2018-09-15T12:13:33Z</time>
      </trkpt>
      <trkpt lat="43.4260130" lon="-5.9831870">
        <ele>148.7</ele>
        <time>2018-09-15T12:13:34Z</time>
      </trkpt>
      <trkpt lat="43.4260550" lon="-5.9831600">
        <ele>148.8</ele>
        <time>2018-09-15T12:13:35Z</time>
      </trkpt>
      <trkpt lat="43.4260940" lon="-5.9831280">
        <ele>148.9</ele>
        <time>2018-09-15T12:13:36Z</time>
      </trkpt>
      <trkpt lat="43.4261340" lon="-5.9831010">
        <ele>149.0</ele>
        <time>2018-09-15T12:13:37Z</time>
      </trkpt>
      <trkpt lat="43.4261750" lon="-5.9830740">
        <ele>148.9</ele>
        <time>2018-09-15T12:13:38Z</time>
      </trkpt>
      <trkpt lat="43.4262130" lon="-5.9830430">
        <ele>148.9</ele>
        <time>2018-09-15T12:13:39Z</time>
      </trkpt>
      <trkpt lat="43.4262510" lon="-5.9830150">
        <ele>148.8</ele>
        <time>2018-09-15T12:13:40Z</time>
      </trkpt>
      <trkpt lat="43.4262920" lon="-5.9829770">
        <ele>148.8</ele>
        <time>2018-09-15T12:13:41Z</time>
      </trkpt>
      <trkpt lat="43.4263290" lon="-5.9829430">
        <ele>148.7</ele>
        <time>2018-09-15T12:13:42Z</time>
      </trkpt>
      <trkpt lat="43.4263710" lon="-5.9829100">
        <ele>148.7</ele>
        <time>2018-09-15T12:13:43Z</time>
      </trkpt>
      <trkpt lat="43.4264060" lon="-5.9828780">
        <ele>148.6</ele>
        <time>2018-09-15T12:13:44Z</time>
      </trkpt>
      <trkpt lat="43.4264410" lon="-5.9828380">
        <ele>148.6</ele>
        <time>2018-09-15T12:13:45Z</time>
      </trkpt>
      <trkpt lat="43.4264800" lon="-5.9828100">
        <ele>148.5</ele>
        <time>2018-09-15T12:13:46Z</time>
      </trkpt>
      <trkpt lat="43.4265140" lon="-5.9827740">
        <ele>148.5</ele>
        <time>2018-09-15T12:13:47Z</time>
      </trkpt>
      <trkpt lat="43.4265470" lon="-5.9827450">
        <ele>148.4</ele>
        <time>2018-09-15T12:13:48Z</time>
      </trkpt>
      <trkpt lat="43.4265870" lon="-5.9827180">
        <ele>148.4</ele>
        <time>2018-09-15T12:13:49Z</time>
      </trkpt>
      <trkpt lat="43.4266280" lon="-5.9826840">
        <ele>148.3</ele>
        <time>2018-09-15T12:13:50Z</time>
      </trkpt>
      <trkpt lat="43.4266680" lon="-5.9826500">
        <ele>148.3</ele>
        <time>2018-09-15T12:13:51Z</time>
      </trkpt>
      <trkpt lat="43.4267100" lon="-5.9826180">
        <ele>148.3</ele>
        <time>2018-09-15T12:13:52Z</time>
      </trkpt>
      <trkpt lat="43.4267490" lon="-5.9825850">
        <ele>148.2</ele>
        <time>2018-09-15T12:13:53Z</time>
      </trkpt>
      <trkpt lat="43.4267880" lon="-5.9825510">
        <ele>148.2</ele>
        <time>2018-09-15T12:13:54Z</time>
      </trkpt>
      <trkpt lat="43.4268300" lon="-5.9825140">
        <ele>148.2</ele>
        <time>2018-09-15T12:13:55Z</time>
      </trkpt>
      <trkpt lat="43.4268610" lon="-5.9824770">
        <ele>148.1</ele>
        <time>2018-09-15T12:13:56Z</time>
      </trkpt>
      <trkpt lat="43.4268990" lon="-5.9824480">
        <ele>148.1</ele>
        <time>2018-09-15T12:13:57Z</time>
      </trkpt>
      <trkpt lat="43.4269460" lon="-5.9824320">
        <ele>148.1</ele>
        <time>2018-09-15T12:13:58Z</time>
      </trkpt>
      <trkpt lat="43.4269790" lon="-5.9824010">
        <ele>148.1</ele>
        <time>2018-09-15T12:13:59Z</time>
      </trkpt>
      <trkpt lat="43.4270170" lon="-5.9823710">
        <ele>148.1</ele>
        <time>2018-09-15T12:14:00Z</time>
      </trkpt>
      <trkpt lat="43.4270580" lon="-5.9823350">
        <ele>148.1</ele>
        <time>2018-09-15T12:14:01Z</time>
      </trkpt>
      <trkpt lat="43.4271020" lon="-5.9823020">
        <ele>148.0</ele>
        <time>2018-09-15T12:14:02Z</time>
      </trkpt>
      <trkpt lat="43.4271400" lon="-5.9822680">
        <ele>148.0</ele>
        <time>2018-09-15T12:14:03Z</time>
      </trkpt>
      <trkpt lat="43.4271790" lon="-5.9822330">
        <ele>148.0</ele>
        <time>2018-09-15T12:14:04Z</time>
      </trkpt>
      <trkpt lat="43.4272140" lon="-5.9821960">
        <ele>148.0</ele>
        <time>2018-09-15T12:14:05Z</time>
      </trkpt>
      <trkpt lat="43.4272390" lon="-5.9821550">
        <ele>147.9</ele>
        <time>2018-09-15T12:14:06Z</time>
      </trkpt>
      <trkpt lat="43.4272780" lon="-5.9821190">
        <ele>147.9</ele>
        <time>2018-09-15T12:14:07Z</time>
      </trkpt>
      <trkpt lat="43.4273140" lon="-5.9820790">
        <ele>147.9</ele>
        <time>2018-09-15T12:14:08Z</time>
      </trkpt>
      <trkpt lat="43.4273500" lon="-5.9820460">
        <ele>147.9</ele>
        <time>2018-09-15T12:14:09Z</time>
      </trkpt>
      <trkpt lat="43.4273880" lon="-5.9820130">
        <ele>147.8</ele>
        <time>2018-09-15T12:14:10Z</time>
      </trkpt>
      <trkpt lat="43.4274240" lon="-5.9819870">
        <ele>147.8</ele>
        <time>2018-09-15T12:14:11Z</time>
      </trkpt>
      <trkpt lat="43.4274670" lon="-5.9819630">
        <ele>147.8</ele>
        <time>2018-09-15T12:14:12Z</time>
      </trkpt>
      <trkpt lat="43.4275040" lon="-5.9819420">
        <ele>147.7</ele>
        <time>2018-09-15T12:14:13Z</time>
      </trkpt>
      <trkpt lat="43.4275410" lon="-5.9819160">
        <ele>147.7</ele>
        <time>2018-09-15T12:14:14Z</time>
      </trkpt>
      <trkpt lat="43.4275850" lon="-5.9818830">
        <ele>147.7</ele>
        <time>2018-09-15T12:14:15Z</time>
      </trkpt>
      <trkpt lat="43.4276230" lon="-5.9818470">
        <ele>147.6</ele>
        <time>2018-09-15T12:14:16Z</time>
      </trkpt>
      <trkpt lat="43.4276620" lon="-5.9818220">
        <ele>147.6</ele>
        <time>2018-09-15T12:14:17Z</time>
      </trkpt>
      <trkpt lat="43.4276990" lon="-5.9817900">
        <ele>147.5</ele>
        <time>2018-09-15T12:14:18Z</time>
      </trkpt>
      <trkpt lat="43.4277320" lon="-5.9817520">
        <ele>147.5</ele>
        <time>2018-09-15T12:14:19Z</time>
      </trkpt>
      <trkpt lat="43.4277710" lon="-5.9817150">
        <ele>147.5</ele>
        <time>2018-09-15T12:14:20Z</time>
      </trkpt>
      <trkpt lat="43.4278050" lon="-5.9816780">
        <ele>147.4</ele>
        <time>2018-09-15T12:14:21Z</time>
      </trkpt>
      <trkpt lat="43.4278450" lon="-5.9816460">
        <ele>147.4</ele>
        <time>2018-09-15T12:14:22Z</time>
      </trkpt>
      <trkpt lat="43.4278790" lon="-5.9816100">
        <ele>147.4</ele>
        <time>2018-09-15T12:14:23Z</time>
      </trkpt>
      <trkpt lat="43.4279230" lon="-5.9815790">
        <ele>147.3</ele>
        <time>2018-09-15T12:14:24Z</time>
      </trkpt>
      <trkpt lat="43.4279610" lon="-5.9815430">
        <ele>147.3</ele>
        <time>2018-09-15T12:14:25Z</time>
      </trkpt>
      <trkpt lat="43.4279930" lon="-5.9815150">
        <ele>147.3</ele>
        <time>2018-09-15T12:14:26Z</time>
      </trkpt>
      <trkpt lat="43.4280300" lon="-5.9814820">
        <ele>147.2</ele>
        <time>2018-09-15T12:14:27Z</time>
      </trkpt>
      <trkpt lat="43.4280680" lon="-5.9814490">
        <ele>147.2</ele>
        <time>2018-09-15T12:14:28Z</time>
      </trkpt>
      <trkpt lat="43.4281090" lon="-5.9814110">
        <ele>147.2</ele>
        <time>2018-09-15T12:14:29Z</time>
      </trkpt>
      <trkpt lat="43.4281460" lon="-5.9813790">
        <ele>147.1</ele>
        <time>2018-09-15T12:14:30Z</time>
      </trkpt>
      <trkpt lat="43.4281850" lon="-5.9813460">
        <ele>147.1</ele>
        <time>2018-09-15T12:14:31Z</time>
      </trkpt>
      <trkpt lat="43.4282230" lon="-5.9813180">
        <ele>147.1</ele>
        <time>2018-09-15T12:14:32Z</time>
      </trkpt>
      <trkpt lat="43.4282610" lon="-5.9812760">
        <ele>147.1</ele>
        <time>2018-09-15T12:14:33Z</time>
      </trkpt>
      <trkpt lat="43.4283010" lon="-5.9812470">
        <ele>147.0</ele>
        <time>2018-09-15T12:14:34Z</time>
      </trkpt>
      <trkpt lat="43.4283380" lon="-5.9812080">
        <ele>147.0</ele>
        <time>2018-09-15T12:14:35Z</time>
      </trkpt>
      <trkpt lat="43.4283750" lon="-5.9811800">
        <ele>147.0</ele>
        <time>2018-09-15T12:14:36Z</time>
      </trkpt>
      <trkpt lat="43.4284130" lon="-5.9811480">
        <ele>147.0</ele>
        <time>2018-09-15T12:14:37Z</time>
      </trkpt>
      <trkpt lat="43.4284580" lon="-5.9811170">
        <ele>146.9</ele>
        <time>2018-09-15T12:14:38Z</time>
      </trkpt>
      <trkpt lat="43.4284950" lon="-5.9810820">
        <ele>146.9</ele>
        <time>2018-09-15T12:14:39Z</time>
      </trkpt>
      <trkpt lat="43.4285200" lon="-5.9810450">
        <ele>146.9</ele>
        <time>2018-09-15T12:14:40Z</time>
      </trkpt>
      <trkpt lat="43.4285610" lon="-5.9810080">
        <ele>146.9</ele>
        <time>2018-09-15T12:14:41Z</time>
      </trkpt>
      <trkpt lat="43.4286000" lon="-5.9809700">
        <ele>146.8</ele>
        <time>2018-09-15T12:14:42Z</time>
      </trkpt>
      <trkpt lat="43.4286250" lon="-5.9809270">
        <ele>146.8</ele>
        <time>2018-09-15T12:14:43Z</time>
      </trkpt>
      <trkpt lat="43.4286600" lon="-5.9808930">
        <ele>146.7</ele>
        <time>2018-09-15T12:14:44Z</time>
      </trkpt>
      <trkpt lat="43.4286910" lon="-5.9808510">
        <ele>146.7</ele>
        <time>2018-09-15T12:14:45Z</time>
      </trkpt>
      <trkpt lat="43.4287270" lon="-5.9808170">
        <ele>146.6</ele>
        <time>2018-09-15T12:14:46Z</time>
      </trkpt>
      <trkpt lat="43.4287640" lon="-5.9807870">
        <ele>146.6</ele>
        <time>2018-09-15T12:14:47Z</time>
      </trkpt>
      <trkpt lat="43.4288050" lon="-5.9807600">
        <ele>146.5</ele>
        <time>2018-09-15T12:14:48Z</time>
      </trkpt>
      <trkpt lat="43.4288390" lon="-5.9807280">
        <ele>146.4</ele>
        <time>2018-09-15T12:14:49Z</time>
      </trkpt>
      <trkpt lat="43.4288710" lon="-5.9806940">
        <ele>146.3</ele>
        <time>2018-09-15T12:14:50Z</time>
      </trkpt>
      <trkpt lat="43.4289110" lon="-5.9806590">
        <ele>146.3</ele>
        <time>2018-09-15T12:14:51Z</time>
      </trkpt>
      <trkpt lat="43.4289440" lon="-5.9806310">
        <ele>146.2</ele>
        <time>2018-09-15T12:14:52Z</time>
      </trkpt>
      <trkpt lat="43.4289810" lon="-5.9805960">
        <ele>146.0</ele>
        <time>2018-09-15T12:14:53Z</time>
      </trkpt>
      <trkpt lat="43.4290180" lon="-5.9805730">
        <ele>146.7</ele>
        <time>2018-09-15T12:14:54Z</time>
      </trkpt>
      <trkpt lat="43.4290590" lon="-5.9805390">
        <ele>148.2</ele>
        <time>2018-09-15T12:14:55Z</time>
      </trkpt>
      <trkpt lat="43.4290960" lon="-5.9805120">
        <ele>149.6</ele>
        <time>2018-09-15T12:14:56Z</time>
      </trkpt>
      <trkpt lat="43.4291120" lon="-5.9804990">
        <ele>150.2</ele>
        <time>2018-09-15T12:14:57Z</time>
      </trkpt>
      <trkpt lat="43.4291720" lon="-5.9804500">
        <ele>152.5</ele>
        <time>2018-09-15T12:14:58Z</time>
      </trkpt>
      <trkpt lat="43.4292120" lon="-5.9804200">
        <ele>154.0</ele>
        <time>2018-09-15T12:14:59Z</time>
      </trkpt>
      <trkpt lat="43.4292550" lon="-5.9803960">
        <ele>155.5</ele>
        <time>2018-09-15T12:15:00Z</time>
      </trkpt>
      <trkpt lat="43.4292950" lon="-5.9803680">
        <ele>156.3</ele>
        <time>2018-09-15T12:15:01Z</time>
      </trkpt>
      <trkpt lat="43.4293330" lon="-5.9803390">
        <ele>157.2</ele>
        <time>2018-09-15T12:15:02Z</time>
      </trkpt>
      <trkpt lat="43.4293710" lon="-5.9803060">
        <ele>158.1</ele>
        <time>2018-09-15T12:15:03Z</time>
      </trkpt>
      <trkpt lat="43.4294060" lon="-5.9802710">
        <ele>158.9</ele>
        <time>2018-09-15T12:15:04Z</time>
      </trkpt>
      <trkpt lat="43.4294410" lon="-5.9802370">
        <ele>159.8</ele>
        <time>2018-09-15T12:15:05Z</time>
      </trkpt>
      <trkpt lat="43.4294760" lon="-5.9802020">
        <ele>160.6</ele>
        <time>2018-09-15T12:15:06Z</time>
      </trkpt>
      <trkpt lat="43.4295100" lon="-5.9801660">
        <ele>161.1</ele>
        <time>2018-09-15T12:15:07Z</time>
      </trkpt>
      <trkpt lat="43.4295420" lon="-5.9801280">
        <ele>161.3</ele>
        <time>2018-09-15T12:15:08Z</time>
      </trkpt>
      <trkpt lat="43.4295730" lon="-5.9800870">
        <ele>161.5</ele>
        <time>2018-09-15T12:15:09Z</time>
      </trkpt>
      <trkpt lat="43.4296070" lon="-5.9800490">
        <ele>161.7</ele>
        <time>2018-09-15T12:15:10Z</time>
      </trkpt>
      <trkpt lat="43.4296320" lon="-5.9800130">
        <ele>161.9</ele>
        <time>2018-09-15T12:15:11Z</time>
      </trkpt>
      <trkpt lat="43.4296650" lon="-5.9799740">
        <ele>162.0</ele>
        <time>2018-09-15T12:15:12Z</time>
      </trkpt>
      <trkpt lat="43.4296980" lon="-5.9799400">
        <ele>162.1</ele>
        <time>2018-09-15T12:15:13Z</time>
      </trkpt>
      <trkpt lat="43.4297340" lon="-5.9799030">
        <ele>162.2</ele>
        <time>2018-09-15T12:15:14Z</time>
      </trkpt>
      <trkpt lat="43.4297690" lon="-5.9798700">
        <ele>162.3</ele>
        <time>2018-09-15T12:15:15Z</time>
      </trkpt>
      <trkpt lat="43.4298040" lon="-5.9798410">
        <ele>162.3</ele>
        <time>2018-09-15T12:15:16Z</time>
      </trkpt>
      <trkpt lat="43.4298300" lon="-5.9798030">
        <ele>162.4</ele>
        <time>2018-09-15T12:15:17Z</time>
      </trkpt>
      <trkpt lat="43.4298650" lon="-5.9797680">
        <ele>162.5</ele>
        <time>2018-09-15T12:15:18Z</time>
      </trkpt>
      <trkpt lat="43.4299060" lon="-5.9797370">
        <ele>162.7</ele>
        <time>2018-09-15T12:15:19Z</time>
      </trkpt>
      <trkpt lat="43.4299420" lon="-5.9797190">
        <ele>162.9</ele>
        <time>2018-09-15T12:15:20Z</time>
      </trkpt>
      <trkpt lat="43.4299830" lon="-5.9796860">
        <ele>163.1</ele>
        <time>2018-09-15T12:15:21Z</time>
      </trkpt>
      <trkpt lat="43.4300320" lon="-5.9796670">
        <ele>163.3</ele>
        <time>2018-09-15T12:15:22Z</time>
      </trkpt>
      <trkpt lat="43.4300690" lon="-5.9796380">
        <ele>163.5</ele>
        <time>2018-09-15T12:15:23Z</time>
      </trkpt>
      <trkpt lat="43.4301100" lon="-5.9796170">
        <ele>163.7</ele>
        <time>2018-09-15T12:15:24Z</time>
      </trkpt>
      <trkpt lat="43.4301410" lon="-5.9795900">
        <ele>163.9</ele>
        <time>2018-09-15T12:15:25Z</time>
      </trkpt>
      <trkpt lat="43.4301780" lon="-5.9795600">
        <ele>164.1</ele>
        <time>2018-09-15T12:15:26Z</time>
      </trkpt>
      <trkpt lat="43.4302210" lon="-5.9795370">
        <ele>164.3</ele>
        <time>2018-09-15T12:15:27Z</time>
      </trkpt>
      <trkpt lat="43.4302640" lon="-5.9795060">
        <ele>164.5</ele>
        <time>2018-09-15T12:15:28Z</time>
      </trkpt>
      <trkpt lat="43.4302990" lon="-5.9794810">
        <ele>164.6</ele>
        <time>2018-09-15T12:15:29Z</time>
      </trkpt>
      <trkpt lat="43.4303360" lon="-5.9794560">
        <ele>164.7</ele>
        <time>2018-09-15T12:15:30Z</time>
      </trkpt>
      <trkpt lat="43.4303760" lon="-5.9794320">
        <ele>164.8</ele>
        <time>2018-09-15T12:15:31Z</time>
      </trkpt>
      <trkpt lat="43.4304170" lon="-5.9794030">
        <ele>165.0</ele>
        <time>2018-09-15T12:15:32Z</time>
      </trkpt>
      <trkpt lat="43.4304550" lon="-5.9793740">
        <ele>165.1</ele>
        <time>2018-09-15T12:15:33Z</time>
      </trkpt>
      <trkpt lat="43.4304930" lon="-5.9793440">
        <ele>165.2</ele>
        <time>2018-09-15T12:15:34Z</time>
      </trkpt>
      <trkpt lat="43.4305310" lon="-5.9793130">
        <ele>165.2</ele>
        <time>2018-09-15T12:15:35Z</time>
      </trkpt>
      <trkpt lat="43.4305700" lon="-5.9792830">
        <ele>165.3</ele>
        <time>2018-09-15T12:15:36Z</time>
      </trkpt>
      <trkpt lat="43.4305820" lon="-5.9792730">
        <ele>165.4</ele>
        <time>2018-09-15T12:15:37Z</time>
      </trkpt>
      <trkpt lat="43.4305940" lon="-5.9792640">
        <ele>165.4</ele>
        <time>2018-09-15T12:15:38Z</time>
      </trkpt>
      <trkpt lat="43.4306280" lon="-5.9792350">
        <ele>165.5</ele>
        <time>2018-09-15T12:15:39Z</time>
      </trkpt>
      <trkpt lat="43.4307250" lon="-5.9791700">
        <ele>165.7</ele>
        <time>2018-09-15T12:15:40Z</time>
      </trkpt>
      <trkpt lat="43.4307640" lon="-5.9791510">
        <ele>165.8</ele>
        <time>2018-09-15T12:15:41Z</time>
      </trkpt>
      <trkpt lat="43.4308040" lon="-5.9791140">
        <ele>166.0</ele>
        <time>2018-09-15T12:15:42Z</time>
      </trkpt>
      <trkpt lat="43.4308450" lon="-5.9790890">
        <ele>166.2</ele>
        <time>2018-09-15T12:15:43Z</time>
      </trkpt>
      <trkpt lat="43.4308810" lon="-5.9790570">
        <ele>166.4</ele>
        <time>2018-09-15T12:15:44Z</time>
      </trkpt>
      <trkpt lat="43.4309220" lon="-5.9790320">
        <ele>166.6</ele>
        <time>2018-09-15T12:15:45Z</time>
      </trkpt>
      <trkpt lat="43.4309590" lon="-5.9790090">
        <ele>166.8</ele>
        <time>2018-09-15T12:15:46Z</time>
      </trkpt>
      <trkpt lat="43.4309980" lon="-5.9789890">
        <ele>167.0</ele>
        <time>2018-09-15T12:15:47Z</time>
      </trkpt>
      <trkpt lat="43.4310320" lon="-5.9789650">
        <ele>167.2</ele>
        <time>2018-09-15T12:15:48Z</time>
      </trkpt>
      <trkpt lat="43.4310730" lon="-5.9789380">
        <ele>167.4</ele>
        <time>2018-09-15T12:15:49Z</time>
      </trkpt>
      <trkpt lat="43.4311090" lon="-5.9789150">
        <ele>167.6</ele>
        <time>2018-09-15T12:15:50Z</time>
      </trkpt>
      <trkpt lat="43.4311510" lon="-5.9788900">
        <ele>167.7</ele>
        <time>2018-09-15T12:15:51Z</time>
      </trkpt>
      <trkpt lat="43.4311870" lon="-5.9788640">
        <ele>167.7</ele>
        <time>2018-09-15T12:15:52Z</time>
      </trkpt>
      <trkpt lat="43.4312240" lon="-5.9788420">
        <ele>167.8</ele>
        <time>2018-09-15T12:15:53Z</time>
      </trkpt>
      <trkpt lat="43.4312610" lon="-5.9788120">
        <ele>167.8</ele>
        <time>2018-09-15T12:15:54Z</time>
      </trkpt>
      <trkpt lat="43.4313000" lon="-5.9787860">
        <ele>167.9</ele>
        <time>2018-09-15T12:15:55Z</time>
      </trkpt>
      <trkpt lat="43.4313420" lon="-5.9787570">
        <ele>168.0</ele>
        <time>2018-09-15T12:15:56Z</time>
      </trkpt>
      <trkpt lat="43.4313750" lon="-5.9787270">
        <ele>168.0</ele>
        <time>2018-09-15T12:15:57Z</time>
      </trkpt>
      <trkpt lat="43.4314220" lon="-5.9787060">
        <ele>168.1</ele>
        <time>2018-09-15T12:15:58Z</time>
      </trkpt>
      <trkpt lat="43.4314630" lon="-5.9786800">
        <ele>168.2</ele>
        <time>2018-09-15T12:15:59Z</time>
      </trkpt>
      <trkpt lat="43.4315040" lon="-5.9786530">
        <ele>168.2</ele>
        <time>2018-09-15T12:16:00Z</time>
      </trkpt>
      <trkpt lat="43.4315450" lon="-5.9786250">
        <ele>168.3</ele>
        <time>2018-09-15T12:16:01Z</time>
      </trkpt>
      <trkpt lat="43.4315830" lon="-5.9785960">
        <ele>168.4</ele>
        <time>2018-09-15T12:16:02Z</time>
      </trkpt>
      <trkpt lat="43.4316250" lon="-5.9785750">
        <ele>168.4</ele>
        <time>2018-09-15T12:16:03Z</time>
      </trkpt>
      <trkpt lat="43.4316710" lon="-5.9785620">
        <ele>168.5</ele>
        <time>2018-09-15T12:16:04Z</time>
      </trkpt>
      <trkpt lat="43.4317120" lon="-5.9785410">
        <ele>168.7</ele>
        <time>2018-09-15T12:16:05Z</time>
      </trkpt>
      <trkpt lat="43.4317480" lon="-5.9785170">
        <ele>168.9</ele>
        <time>2018-09-15T12:16:06Z</time>
      </trkpt>
      <trkpt lat="43.4317850" lon="-5.9784930">
        <ele>169.1</ele>
        <time>2018-09-15T12:16:07Z</time>
      </trkpt>
      <trkpt lat="43.4318240" lon="-5.9784690">
        <ele>169.3</ele>
        <time>2018-09-15T12:16:08Z</time>
      </trkpt>
      <trkpt lat="43.4318630" lon="-5.9784460">
        <ele>169.6</ele>
        <time>2018-09-15T12:16:09Z</time>
      </trkpt>
      <trkpt lat="43.4319020" lon="-5.9784220">
        <ele>169.8</ele>
        <time>2018-09-15T12:16:10Z</time>
      </trkpt>
      <trkpt lat="43.4319410" lon="-5.9783940">
        <ele>170.0</ele>
        <time>2018-09-15T12:16:11Z</time>
      </trkpt>
      <trkpt lat="43.4319790" lon="-5.9783650">
        <ele>170.1</ele>
        <time>2018-09-15T12:16:12Z</time>
      </trkpt>
      <trkpt lat="43.4320180" lon="-5.9783390">
        <ele>170.1</ele>
        <time>2018-09-15T12:16:13Z</time>
      </trkpt>
      <trkpt lat="43.4320580" lon="-5.9783130">
        <ele>170.2</ele>
        <time>2018-09-15T12:16:14Z</time>
      </trkpt>
      <trkpt lat="43.4320970" lon="-5.9782890">
        <ele>170.3</ele>
        <time>2018-09-15T12:16:15Z</time>
      </trkpt>
      <trkpt lat="43.4321370" lon="-5.9782630">
        <ele>170.3</ele>
        <time>2018-09-15T12:16:16Z</time>
      </trkpt>
      <trkpt lat="43.4321780" lon="-5.9782370">
        <ele>170.4</ele>
        <time>2018-09-15T12:16:17Z</time>
      </trkpt>
      <trkpt lat="43.4322180" lon="-5.9782120">
        <ele>170.4</ele>
        <time>2018-09-15T12:16:18Z</time>
      </trkpt>
      <trkpt lat="43.4322560" lon="-5.9781860">
        <ele>170.5</ele>
        <time>2018-09-15T12:16:19Z</time>
      </trkpt>
      <trkpt lat="43.4322940" lon="-5.9781590">
        <ele>170.6</ele>
        <time>2018-09-15T12:16:20Z</time>
      </trkpt>
      <trkpt lat="43.4323310" lon="-5.9781300">
        <ele>170.7</ele>
        <time>2018-09-15T12:16:21Z</time>
      </trkpt>
      <trkpt lat="43.4323690" lon="-5.9781060">
        <ele>170.9</ele>
        <time>2018-09-15T12:16:22Z</time>
      </trkpt>
      <trkpt lat="43.4324080" lon="-5.9780800">
        <ele>171.0</ele>
        <time>2018-09-15T12:16:23Z</time>
      </trkpt>
      <trkpt lat="43.4324480" lon="-5.9780540">
        <ele>171.2</ele>
        <time>2018-09-15T12:16:24Z</time>
      </trkpt>
      <trkpt lat="43.4324880" lon="-5.9780280">
        <ele>171.3</ele>
        <time>2018-09-15T12:16:25Z</time>
      </trkpt>
      <trkpt lat="43.4325300" lon="-5.9780060">
        <ele>171.5</ele>
        <time>2018-09-15T12:16:26Z</time>
      </trkpt>
      <trkpt lat="43.4325700" lon="-5.9779820">
        <ele>171.6</ele>
        <time>2018-09-15T12:16:27Z</time>
      </trkpt>
      <trkpt lat="43.4326110" lon="-5.9779590">
        <ele>171.8</ele>
        <time>2018-09-15T12:16:28Z</time>
      </trkpt>
      <trkpt lat="43.4326500" lon="-5.9779330">
        <ele>171.8</ele>
        <time>2018-09-15T12:16:29Z</time>
      </trkpt>
      <trkpt lat="43.4326880" lon="-5.9779080">
        <ele>171.9</ele>
        <time>2018-09-15T12:16:30Z</time>
      </trkpt>
      <trkpt lat="43.4327270" lon="-5.9778840">
        <ele>171.9</ele>
        <time>2018-09-15T12:16:31Z</time>
      </trkpt>
      <trkpt lat="43.4327670" lon="-5.9778630">
        <ele>172.0</ele>
        <time>2018-09-15T12:16:32Z</time>
      </trkpt>
      <trkpt lat="43.4328080" lon="-5.9778410">
        <ele>172.1</ele>
        <time>2018-09-15T12:16:33Z</time>
      </trkpt>
      <trkpt lat="43.4328510" lon="-5.9778200">
        <ele>172.1</ele>
        <time>2018-09-15T12:16:34Z</time>
      </trkpt>
      <trkpt lat="43.4328930" lon="-5.9777990">
        <ele>172.2</ele>
        <time>2018-09-15T12:16:35Z</time>
      </trkpt>
      <trkpt lat="43.4329350" lon="-5.9777790">
        <ele>172.3</ele>
        <time>2018-09-15T12:16:36Z</time>
      </trkpt>
      <trkpt lat="43.4329760" lon="-5.9777580">
        <ele>172.4</ele>
        <time>2018-09-15T12:16:37Z</time>
      </trkpt>
      <trkpt lat="43.4330180" lon="-5.9777350">
        <ele>172.5</ele>
        <time>2018-09-15T12:16:38Z</time>
      </trkpt>
      <trkpt lat="43.4330590" lon="-5.9777120">
        <ele>172.7</ele>
        <time>2018-09-15T12:16:39Z</time>
      </trkpt>
      <trkpt lat="43.4331020" lon="-5.9776890">
        <ele>172.8</ele>
        <time>2018-09-15T12:16:40Z</time>
      </trkpt>
      <trkpt lat="43.4331430" lon="-5.9776650">
        <ele>172.9</ele>
        <time>2018-09-15T12:16:41Z</time>
      </trkpt>
      <trkpt lat="43.4331860" lon="-5.9776430">
        <ele>173.1</ele>
        <time>2018-09-15T12:16:42Z</time>
      </trkpt>
      <trkpt lat="43.4332250" lon="-5.9776190">
        <ele>173.2</ele>
        <time>2018-09-15T12:16:43Z</time>
      </trkpt>
      <trkpt lat="43.4332650" lon="-5.9775970">
        <ele>173.3</ele>
        <time>2018-09-15T12:16:44Z</time>
      </trkpt>
      <trkpt lat="43.4333050" lon="-5.9775730">
        <ele>173.4</ele>
        <time>2018-09-15T12:16:45Z</time>
      </trkpt>
      <trkpt lat="43.4333450" lon="-5.9775510">
        <ele>173.5</ele>
        <time>2018-09-15T12:16:46Z</time>
      </trkpt>
      <trkpt lat="43.4333880" lon="-5.9775330">
        <ele>173.5</ele>
        <time>2018-09-15T12:16:47Z</time>
      </trkpt>
      <trkpt lat="43.4334260" lon="-5.9775080">
        <ele>173.6</ele>
        <time>2018-09-15T12:16:48Z</time>
      </trkpt>
      <trkpt lat="43.4334710" lon="-5.9775030">
        <ele>173.7</ele>
        <time>2018-09-15T12:16:49Z</time>
      </trkpt>
      <trkpt lat="43.4335110" lon="-5.9774760">
        <ele>173.7</ele>
        <time>2018-09-15T12:16:50Z</time>
      </trkpt>
      <trkpt lat="43.4335550" lon="-5.9774650">
        <ele>173.8</ele>
        <time>2018-09-15T12:16:51Z</time>
      </trkpt>
      <trkpt lat="43.4335970" lon="-5.9774360">
        <ele>173.8</ele>
        <time>2018-09-15T12:16:52Z</time>
      </trkpt>
      <trkpt lat="43.4336380" lon="-5.9774090">
        <ele>173.9</ele>
        <time>2018-09-15T12:16:53Z</time>
      </trkpt>
      <trkpt lat="43.4336800" lon="-5.9773850">
        <ele>173.9</ele>
        <time>2018-09-15T12:16:54Z</time>
      </trkpt>
      <trkpt lat="43.4337070" lon="-5.9773700">
        <ele>174.0</ele>
        <time>2018-09-15T12:16:55Z</time>
      </trkpt>
      <trkpt lat="43.4337480" lon="-5.9773540">
        <ele>174.0</ele>
        <time>2018-09-15T12:16:56Z</time>
      </trkpt>
      <trkpt lat="43.4337840" lon="-5.9773330">
        <ele>174.1</ele>
        <time>2018-09-15T12:16:57Z</time>
      </trkpt>
      <trkpt lat="43.4338260" lon="-5.9773140">
        <ele>174.2</ele>
        <time>2018-09-15T12:16:58Z</time>
      </trkpt>
      <trkpt lat="43.4338670" lon="-5.9772930">
        <ele>174.3</ele>
        <time>2018-09-15T12:16:59Z</time>
      </trkpt>
      <trkpt lat="43.4339090" lon="-5.9772660">
        <ele>174.5</ele>
        <time>2018-09-15T12:17:00Z</time>
      </trkpt>
      <trkpt lat="43.4339470" lon="-5.9772380">
        <ele>174.6</ele>
        <time>2018-09-15T12:17:01Z</time>
      </trkpt>
      <trkpt lat="43.4339880" lon="-5.9772110">
        <ele>174.8</ele>
        <time>2018-09-15T12:17:02Z</time>
      </trkpt>
      <trkpt lat="43.4340320" lon="-5.9771860">
        <ele>174.9</ele>
        <time>2018-09-15T12:17:03Z</time>
      </trkpt>
      <trkpt lat="43.4340600" lon="-5.9771560">
        <ele>175.0</ele>
        <time>2018-09-15T12:17:04Z</time>
      </trkpt>
      <trkpt lat="43.4341020" lon="-5.9771290">
        <ele>175.2</ele>
        <time>2018-09-15T12:17:05Z</time>
      </trkpt>
      <trkpt lat="43.4341460" lon="-5.9771040">
        <ele>175.3</ele>
        <time>2018-09-15T12:17:06Z</time>
      </trkpt>
      <trkpt lat="43.4341880" lon="-5.9770770">
        <ele>175.3</ele>
        <time>2018-09-15T12:17:07Z</time>
      </trkpt>
      <trkpt lat="43.4342330" lon="-5.9770480">
        <ele>175.4</ele>
        <time>2018-09-15T12:17:08Z</time>
      </trkpt>
      <trkpt lat="43.4342760" lon="-5.9770280">
        <ele>175.4</ele>
        <time>2018-09-15T12:17:09Z</time>
      </trkpt>
      <trkpt lat="43.4343190" lon="-5.9769880">
        <ele>175.5</ele>
        <time>2018-09-15T12:17:10Z</time>
      </trkpt>
      <trkpt lat="43.4343610" lon="-5.9769710">
        <ele>175.5</ele>
        <time>2018-09-15T12:17:11Z</time>
      </trkpt>
      <trkpt lat="43.4344020" lon="-5.9769670">
        <ele>175.6</ele>
        <time>2018-09-15T12:17:12Z</time>
      </trkpt>
      <trkpt lat="43.4344430" lon="-5.9769400">
        <ele>175.6</ele>
        <time>2018-09-15T12:17:13Z</time>
      </trkpt>
      <trkpt lat="43.4344760" lon="-5.9769020">
        <ele>175.7</ele>
        <time>2018-09-15T12:17:14Z</time>
      </trkpt>
      <trkpt lat="43.4345190" lon="-5.9768790">
        <ele>175.7</ele>
        <time>2018-09-15T12:17:16Z</time>
      </trkpt>
      <trkpt lat="43.4345620" lon="-5.9768630">
        <ele>175.8</ele>
        <time>2018-09-15T12:17:17Z</time>
      </trkpt>
      <trkpt lat="43.4345950" lon="-5.9768330">
        <ele>175.9</ele>
        <time>2018-09-15T12:17:18Z</time>
      </trkpt>
      <trkpt lat="43.4346270" lon="-5.9767960">
        <ele>176.0</ele>
        <time>2018-09-15T12:17:19Z</time>
      </trkpt>
      <trkpt lat="43.4346630" lon="-5.9767580">
        <ele>176.1</ele>
        <time>2018-09-15T12:17:20Z</time>
      </trkpt>
      <trkpt lat="43.4346990" lon="-5.9767190">
        <ele>176.2</ele>
        <time>2018-09-15T12:17:21Z</time>
      </trkpt>
      <trkpt lat="43.4347310" lon="-5.9766790">
        <ele>176.4</ele>
        <time>2018-09-15T12:17:22Z</time>
      </trkpt>
      <trkpt lat="43.4347600" lon="-5.9766390">
        <ele>176.5</ele>
        <time>2018-09-15T12:17:23Z</time>
      </trkpt>
      <trkpt lat="43.4347940" lon="-5.9766030">
        <ele>176.6</ele>
        <time>2018-09-15T12:17:24Z</time>
      </trkpt>
      <trkpt lat="43.4348290" lon="-5.9765550">
        <ele>176.7</ele>
        <time>2018-09-15T12:17:25Z</time>
      </trkpt>
      <trkpt lat="43.4348570" lon="-5.9765100">
        <ele>176.8</ele>
        <time>2018-09-15T12:17:26Z</time>
      </trkpt>
      <trkpt lat="43.4348820" lon="-5.9764660">
        <ele>176.9</ele>
        <time>2018-09-15T12:17:27Z</time>
      </trkpt>
      <trkpt lat="43.4349180" lon="-5.9764180">
        <ele>177.0</ele>
        <time>2018-09-15T12:17:28Z</time>
      </trkpt>
      <trkpt lat="43.4349540" lon="-5.9763750">
        <ele>177.1</ele>
        <time>2018-09-15T12:17:29Z</time>
      </trkpt>
      <trkpt lat="43.4349830" lon="-5.9763360">
        <ele>177.1</ele>
        <time>2018-09-15T12:17:30Z</time>
      </trkpt>
      <trkpt lat="43.4350200" lon="-5.9763090">
        <ele>177.2</ele>
        <time>2018-09-15T12:17:31Z</time>
      </trkpt>
      <trkpt lat="43.4350560" lon="-5.9762740">
        <ele>177.2</ele>
        <time>2018-09-15T12:17:32Z</time>
      </trkpt>
      <trkpt lat="43.4350940" lon="-5.9762350">
        <ele>177.3</ele>
        <time>2018-09-15T12:17:33Z</time>
      </trkpt>
      <trkpt lat="43.4351310" lon="-5.9762040">
        <ele>177.3</ele>
        <time>2018-09-15T12:17:34Z</time>
      </trkpt>
      <trkpt lat="43.4351730" lon="-5.9761700">
        <ele>177.4</ele>
        <time>2018-09-15T12:17:35Z</time>
      </trkpt>
      <trkpt lat="43.4352120" lon="-5.9761330">
        <ele>177.4</ele>
        <time>2018-09-15T12:17:36Z</time>
      </trkpt>
      <trkpt lat="43.4352540" lon="-5.9761070">
        <ele>177.5</ele>
        <time>2018-09-15T12:17:37Z</time>
      </trkpt>
      <trkpt lat="43.4352970" lon="-5.9760790">
        <ele>177.7</ele>
        <time>2018-09-15T12:17:38Z</time>
      </trkpt>
      <trkpt lat="43.4353350" lon="-5.9760540">
        <ele>177.8</ele>
        <time>2018-09-15T12:17:39Z</time>
      </trkpt>
      <trkpt lat="43.4353710" lon="-5.9760240">
        <ele>177.9</ele>
        <time>2018-09-15T12:17:40Z</time>
      </trkpt>
      <trkpt lat="43.4354140" lon="-5.9759990">
        <ele>178.0</ele>
        <time>2018-09-15T12:17:41Z</time>
      </trkpt>
      <trkpt lat="43.4354530" lon="-5.9759680">
        <ele>178.1</ele>
        <time>2018-09-15T12:17:42Z</time>
      </trkpt>
      <trkpt lat="43.4354930" lon="-5.9759380">
        <ele>178.3</ele>
        <time>2018-09-15T12:17:43Z</time>
      </trkpt>
      <trkpt lat="43.4355450" lon="-5.9759220">
        <ele>178.4</ele>
        <time>2018-09-15T12:17:44Z</time>
      </trkpt>
      <trkpt lat="43.4355800" lon="-5.9759000">
        <ele>178.5</ele>
        <time>2018-09-15T12:17:45Z</time>
      </trkpt>
      <trkpt lat="43.4356190" lon="-5.9758680">
        <ele>178.7</ele>
        <time>2018-09-15T12:17:46Z</time>
      </trkpt>
      <trkpt lat="43.4356620" lon="-5.9758470">
        <ele>178.7</ele>
        <time>2018-09-15T12:17:47Z</time>
      </trkpt>
      <trkpt lat="43.4357010" lon="-5.9758120">
        <ele>178.8</ele>
        <time>2018-09-15T12:17:48Z</time>
      </trkpt>
      <trkpt lat="43.4357380" lon="-5.9757850">
        <ele>178.9</ele>
        <time>2018-09-15T12:17:49Z</time>
      </trkpt>
      <trkpt lat="43.4357730" lon="-5.9757560">
        <ele>178.9</ele>
        <time>2018-09-15T12:17:50Z</time>
      </trkpt>
      <trkpt lat="43.4358100" lon="-5.9757230">
        <ele>179.0</ele>
        <time>2018-09-15T12:17:51Z</time>
      </trkpt>
      <trkpt lat="43.4358450" lon="-5.9756920">
        <ele>179.0</ele>
        <time>2018-09-15T12:17:52Z</time>
      </trkpt>
      <trkpt lat="43.4358800" lon="-5.9756650">
        <ele>179.1</ele>
        <time>2018-09-15T12:17:53Z</time>
      </trkpt>
      <trkpt lat="43.4359170" lon="-5.9756360">
        <ele>179.2</ele>
        <time>2018-09-15T12:17:54Z</time>
      </trkpt>
      <trkpt lat="43.4359540" lon="-5.9756060">
        <ele>179.2</ele>
        <time>2018-09-15T12:17:55Z</time>
      </trkpt>
      <trkpt lat="43.4359920" lon="-5.9755770">
        <ele>179.4</ele>
        <time>2018-09-15T12:17:56Z</time>
      </trkpt>
      <trkpt lat="43.4360300" lon="-5.9755450">
        <ele>179.5</ele>
        <time>2018-09-15T12:17:57Z</time>
      </trkpt>
      <trkpt lat="43.4360680" lon="-5.9755170">
        <ele>179.6</ele>
        <time>2018-09-15T12:17:58Z</time>
      </trkpt>
      <trkpt lat="43.4361070" lon="-5.9754890">
        <ele>179.8</ele>
        <time>2018-09-15T12:17:59Z</time>
      </trkpt>
      <trkpt lat="43.4361460" lon="-5.9754610">
        <ele>179.9</ele>
        <time>2018-09-15T12:18:00Z</time>
      </trkpt>
      <trkpt lat="43.4361820" lon="-5.9754310">
        <ele>180.0</ele>
        <time>2018-09-15T12:18:01Z</time>
      </trkpt>
      <trkpt lat="43.4362210" lon="-5.9754020">
        <ele>180.1</ele>
        <time>2018-09-15T12:18:02Z</time>
      </trkpt>
      <trkpt lat="43.4362600" lon="-5.9753730">
        <ele>180.3</ele>
        <time>2018-09-15T12:18:03Z</time>
      </trkpt>
      <trkpt lat="43.4362970" lon="-5.9753440">
        <ele>180.3</ele>
        <time>2018-09-15T12:18:04Z</time>
      </trkpt>
      <trkpt lat="43.4363340" lon="-5.9753170">
        <ele>180.3</ele>
        <time>2018-09-15T12:18:05Z</time>
      </trkpt>
      <trkpt lat="43.4363690" lon="-5.9752890">
        <ele>180.4</ele>
        <time>2018-09-15T12:18:06Z</time>
      </trkpt>
      <trkpt lat="43.4364060" lon="-5.9752600">
        <ele>180.4</ele>
        <time>2018-09-15T12:18:07Z</time>
      </trkpt>
      <trkpt lat="43.4364440" lon="-5.9752300">
        <ele>180.5</ele>
        <time>2018-09-15T12:18:08Z</time>
      </trkpt>
      <trkpt lat="43.4364810" lon="-5.9752010">
        <ele>180.5</ele>
        <time>2018-09-15T12:18:09Z</time>
      </trkpt>
      <trkpt lat="43.4365170" lon="-5.9751700">
        <ele>180.6</ele>
        <time>2018-09-15T12:18:10Z</time>
      </trkpt>
      <trkpt lat="43.4365540" lon="-5.9751410">
        <ele>180.6</ele>
        <time>2018-09-15T12:18:11Z</time>
      </trkpt>
      <trkpt lat="43.4365910" lon="-5.9751140">
        <ele>180.7</ele>
        <time>2018-09-15T12:18:12Z</time>
      </trkpt>
      <trkpt lat="43.4366300" lon="-5.9750890">
        <ele>180.7</ele>
        <time>2018-09-15T12:18:13Z</time>
      </trkpt>
      <trkpt lat="43.4366700" lon="-5.9750660">
        <ele>180.8</ele>
        <time>2018-09-15T12:18:14Z</time>
      </trkpt>
      <trkpt lat="43.4367120" lon="-5.9750460">
        <ele>180.9</ele>
        <time>2018-09-15T12:18:15Z</time>
      </trkpt>
      <trkpt lat="43.4368010" lon="-5.9750210">
        <ele>181.1</ele>
        <time>2018-09-15T12:18:16Z</time>
      </trkpt>
      <trkpt lat="43.4368460" lon="-5.9750170">
        <ele>181.2</ele>
        <time>2018-09-15T12:18:17Z</time>
      </trkpt>
      <trkpt lat="43.4368910" lon="-5.9750210">
        <ele>181.4</ele>
        <time>2018-09-15T12:18:18Z</time>
      </trkpt>
      <trkpt lat="43.4369370" lon="-5.9750270">
        <ele>181.6</ele>
        <time>2018-09-15T12:18:19Z</time>
      </trkpt>
      <trkpt lat="43.4369830" lon="-5.9750350">
        <ele>181.7</ele>
        <time>2018-09-15T12:18:20Z</time>
      </trkpt>
      <trkpt lat="43.4370280" lon="-5.9750460">
        <ele>181.9</ele>
        <time>2018-09-15T12:18:21Z</time>
      </trkpt>
      <trkpt lat="43.4370720" lon="-5.9750590">
        <ele>182.1</ele>
        <time>2018-09-15T12:18:22Z</time>
      </trkpt>
      <trkpt lat="43.4371150" lon="-5.9750720">
        <ele>182.2</ele>
        <time>2018-09-15T12:18:23Z</time>
      </trkpt>
      <trkpt lat="43.4371580" lon="-5.9750860">
        <ele>182.3</ele>
        <time>2018-09-15T12:18:24Z</time>
      </trkpt>
      <trkpt lat="43.4372000" lon="-5.9751000">
        <ele>182.3</ele>
        <time>2018-09-15T12:18:25Z</time>
      </trkpt>
      <trkpt lat="43.4372440" lon="-5.9751140">
        <ele>182.4</ele>
        <time>2018-09-15T12:18:26Z</time>
      </trkpt>
      <trkpt lat="43.4372890" lon="-5.9751270">
        <ele>182.5</ele>
        <time>2018-09-15T12:18:27Z</time>
      </trkpt>
      <trkpt lat="43.4373350" lon="-5.9751370">
        <ele>182.6</ele>
        <time>2018-09-15T12:18:28Z</time>
      </trkpt>
      <trkpt lat="43.4373800" lon="-5.9751440">
        <ele>182.7</ele>
        <time>2018-09-15T12:18:29Z</time>
      </trkpt>
      <trkpt lat="43.4374250" lon="-5.9751500">
        <ele>182.8</ele>
        <time>2018-09-15T12:18:30Z</time>
      </trkpt>
      <trkpt lat="43.4374690" lon="-5.9751540">
        <ele>183.0</ele>
        <time>2018-09-15T12:18:31Z</time>
      </trkpt>
      <trkpt lat="43.4375110" lon="-5.9751550">
        <ele>183.1</ele>
        <time>2018-09-15T12:18:32Z</time>
      </trkpt>
      <trkpt lat="43.4375540" lon="-5.9751500">
        <ele>183.3</ele>
        <time>2018-09-15T12:18:33Z</time>
      </trkpt>
      <trkpt lat="43.4375970" lon="-5.9751410">
        <ele>183.4</ele>
        <time>2018-09-15T12:18:34Z</time>
      </trkpt>
      <trkpt lat="43.4376400" lon="-5.9751290">
        <ele>183.6</ele>
        <time>2018-09-15T12:18:35Z</time>
      </trkpt>
      <trkpt lat="43.4376830" lon="-5.9751130">
        <ele>183.7</ele>
        <time>2018-09-15T12:18:36Z</time>
      </trkpt>
      <trkpt lat="43.4377250" lon="-5.9750950">
        <ele>183.8</ele>
        <time>2018-09-15T12:18:37Z</time>
      </trkpt>
      <trkpt lat="43.4377680" lon="-5.9750740">
        <ele>184.0</ele>
        <time>2018-09-15T12:18:38Z</time>
      </trkpt>
      <trkpt lat="43.4378100" lon="-5.9750510">
        <ele>184.0</ele>
        <time>2018-09-15T12:18:39Z</time>
      </trkpt>
      <trkpt lat="43.4378520" lon="-5.9750280">
        <ele>184.1</ele>
        <time>2018-09-15T12:18:40Z</time>
      </trkpt>
      <trkpt lat="43.4378930" lon="-5.9750060">
        <ele>184.2</ele>
        <time>2018-09-15T12:18:41Z</time>
      </trkpt>
      <trkpt lat="43.4379280" lon="-5.9749680">
        <ele>184.2</ele>
        <time>2018-09-15T12:18:42Z</time>
      </trkpt>
      <trkpt lat="43.4379680" lon="-5.9749480">
        <ele>184.3</ele>
        <time>2018-09-15T12:18:43Z</time>
      </trkpt>
      <trkpt lat="43.4380090" lon="-5.9749310">
        <ele>184.3</ele>
        <time>2018-09-15T12:18:44Z</time>
      </trkpt>
      <trkpt lat="43.4380520" lon="-5.9749140">
        <ele>184.3</ele>
        <time>2018-09-15T12:18:45Z</time>
      </trkpt>
      <trkpt lat="43.4380970" lon="-5.9748980">
        <ele>184.4</ele>
        <time>2018-09-15T12:18:46Z</time>
      </trkpt>
      <trkpt lat="43.4381330" lon="-5.9748800">
        <ele>184.4</ele>
        <time>2018-09-15T12:18:47Z</time>
      </trkpt>
      <trkpt lat="43.4381750" lon="-5.9748570">
        <ele>184.4</ele>
        <time>2018-09-15T12:18:48Z</time>
      </trkpt>
      <trkpt lat="43.4382150" lon="-5.9748300">
        <ele>184.4</ele>
        <time>2018-09-15T12:18:49Z</time>
      </trkpt>
      <trkpt lat="43.4382560" lon="-5.9748020">
        <ele>184.5</ele>
        <time>2018-09-15T12:18:50Z</time>
      </trkpt>
      <trkpt lat="43.4382960" lon="-5.9747880">
        <ele>184.5</ele>
        <time>2018-09-15T12:18:51Z</time>
      </trkpt>
      <trkpt lat="43.4383380" lon="-5.9747700">
        <ele>184.5</ele>
        <time>2018-09-15T12:18:52Z</time>
      </trkpt>
      <trkpt lat="43.4383770" lon="-5.9747480">
        <ele>184.6</ele>
        <time>2018-09-15T12:18:53Z</time>
      </trkpt>
      <trkpt lat="43.4384180" lon="-5.9747240">
        <ele>184.6</ele>
        <time>2018-09-15T12:18:54Z</time>
      </trkpt>
      <trkpt lat="43.4384650" lon="-5.9747120">
        <ele>184.6</ele>
        <time>2018-09-15T12:18:55Z</time>
      </trkpt>
      <trkpt lat="43.4385080" lon="-5.9747020">
        <ele>184.7</ele>
        <time>2018-09-15T12:18:56Z</time>
      </trkpt>
      <trkpt lat="43.4385520" lon="-5.9746850">
        <ele>184.8</ele>
        <time>2018-09-15T12:18:57Z</time>
      </trkpt>
      <trkpt lat="43.4385980" lon="-5.9746630">
        <ele>184.9</ele>
        <time>2018-09-15T12:18:58Z</time>
      </trkpt>
      <trkpt lat="43.4386410" lon="-5.9746420">
        <ele>185.0</ele>
        <time>2018-09-15T12:18:59Z</time>
      </trkpt>
      <trkpt lat="43.4386800" lon="-5.9746200">
        <ele>185.0</ele>
        <time>2018-09-15T12:19:00Z</time>
      </trkpt>
      <trkpt lat="43.4387340" lon="-5.9746090">
        <ele>185.1</ele>
        <time>2018-09-15T12:19:01Z</time>
      </trkpt>
      <trkpt lat="43.4387840" lon="-5.9745910">
        <ele>185.1</ele>
        <time>2018-09-15T12:19:02Z</time>
      </trkpt>
      <trkpt lat="43.4388230" lon="-5.9745670">
        <ele>185.2</ele>
        <time>2018-09-15T12:19:03Z</time>
      </trkpt>
      <trkpt lat="43.4388610" lon="-5.9745450">
        <ele>185.2</ele>
        <time>2018-09-15T12:19:04Z</time>
      </trkpt>
      <trkpt lat="43.4389110" lon="-5.9745360">
        <ele>185.2</ele>
        <time>2018-09-15T12:19:05Z</time>
      </trkpt>
      <trkpt lat="43.4389640" lon="-5.9745310">
        <ele>185.2</ele>
        <time>2018-09-15T12:19:06Z</time>
      </trkpt>
      <trkpt lat="43.4390040" lon="-5.9745120">
        <ele>185.3</ele>
        <time>2018-09-15T12:19:07Z</time>
      </trkpt>
      <trkpt lat="43.4390420" lon="-5.9744950">
        <ele>185.3</ele>
        <time>2018-09-15T12:19:08Z</time>
      </trkpt>
      <trkpt lat="43.4390820" lon="-5.9744740">
        <ele>185.3</ele>
        <time>2018-09-15T12:19:09Z</time>
      </trkpt>
      <trkpt lat="43.4391190" lon="-5.9744440">
        <ele>185.3</ele>
        <time>2018-09-15T12:19:10Z</time>
      </trkpt>
      <trkpt lat="43.4391610" lon="-5.9744270">
        <ele>185.3</ele>
        <time>2018-09-15T12:19:11Z</time>
      </trkpt>
      <trkpt lat="43.4391990" lon="-5.9744050">
        <ele>185.4</ele>
        <time>2018-09-15T12:19:12Z</time>
      </trkpt>
      <trkpt lat="43.4392370" lon="-5.9743770">
        <ele>185.4</ele>
        <time>2018-09-15T12:19:13Z</time>
      </trkpt>
      <trkpt lat="43.4392740" lon="-5.9743560">
        <ele>185.4</ele>
        <time>2018-09-15T12:19:14Z</time>
      </trkpt>
      <trkpt lat="43.4393110" lon="-5.9743320">
        <ele>185.4</ele>
        <time>2018-09-15T12:19:15Z</time>
      </trkpt>
      <trkpt lat="43.4393500" lon="-5.9743070">
        <ele>185.4</ele>
        <time>2018-09-15T12:19:16Z</time>
      </trkpt>
      <trkpt lat="43.4393930" lon="-5.9742760">
        <ele>185.4</ele>
        <time>2018-09-15T12:19:17Z</time>
      </trkpt>
      <trkpt lat="43.4394330" lon="-5.9742520">
        <ele>185.5</ele>
        <time>2018-09-15T12:19:18Z</time>
      </trkpt>
      <trkpt lat="43.4394740" lon="-5.9742250">
        <ele>185.5</ele>
        <time>2018-09-15T12:19:19Z</time>
      </trkpt>
      <trkpt lat="43.4395140" lon="-5.9741990">
        <ele>185.5</ele>
        <time>2018-09-15T12:19:20Z</time>
      </trkpt>
      <trkpt lat="43.4395560" lon="-5.9741720">
        <ele>185.6</ele>
        <time>2018-09-15T12:19:21Z</time>
      </trkpt>
      <trkpt lat="43.4395930" lon="-5.9741420">
        <ele>185.7</ele>
        <time>2018-09-15T12:19:22Z</time>
      </trkpt>
      <trkpt lat="43.4396320" lon="-5.9741160">
        <ele>185.8</ele>
        <time>2018-09-15T12:19:23Z</time>
      </trkpt>
      <trkpt lat="43.4396660" lon="-5.9740770">
        <ele>185.8</ele>
        <time>2018-09-15T12:19:24Z</time>
      </trkpt>
      <trkpt lat="43.4397030" lon="-5.9740520">
        <ele>185.9</ele>
        <time>2018-09-15T12:19:25Z</time>
      </trkpt>
      <trkpt lat="43.4397430" lon="-5.9740250">
        <ele>186.0</ele>
        <time>2018-09-15T12:19:26Z</time>
      </trkpt>
      <trkpt lat="43.4397840" lon="-5.9739960">
        <ele>186.1</ele>
        <time>2018-09-15T12:19:27Z</time>
      </trkpt>
      <trkpt lat="43.4398210" lon="-5.9739790">
        <ele>186.2</ele>
        <time>2018-09-15T12:19:28Z</time>
      </trkpt>
      <trkpt lat="43.4398590" lon="-5.9739520">
        <ele>186.2</ele>
        <time>2018-09-15T12:19:29Z</time>
      </trkpt>
      <trkpt lat="43.4398990" lon="-5.9739260">
        <ele>186.3</ele>
        <time>2018-09-15T12:19:30Z</time>
      </trkpt>
      <trkpt lat="43.4399340" lon="-5.9738980">
        <ele>186.3</ele>
        <time>2018-09-15T12:19:31Z</time>
      </trkpt>
      <trkpt lat="43.4399750" lon="-5.9738630">
        <ele>186.4</ele>
        <time>2018-09-15T12:19:32Z</time>
      </trkpt>
      <trkpt lat="43.4400070" lon="-5.9738380">
        <ele>186.4</ele>
        <time>2018-09-15T12:19:33Z</time>
      </trkpt>
      <trkpt lat="43.4400450" lon="-5.9738110">
        <ele>186.4</ele>
        <time>2018-09-15T12:19:34Z</time>
      </trkpt>
      <trkpt lat="43.4400870" lon="-5.9737870">
        <ele>186.5</ele>
        <time>2018-09-15T12:19:35Z</time>
      </trkpt>
      <trkpt lat="43.4401260" lon="-5.9737590">
        <ele>186.5</ele>
        <time>2018-09-15T12:19:36Z</time>
      </trkpt>
      <trkpt lat="43.4401640" lon="-5.9737320">
        <ele>186.5</ele>
        <time>2018-09-15T12:19:37Z</time>
      </trkpt>
      <trkpt lat="43.4402040" lon="-5.9737080">
        <ele>186.6</ele>
        <time>2018-09-15T12:19:38Z</time>
      </trkpt>
      <trkpt lat="43.4402480" lon="-5.9736830">
        <ele>186.6</ele>
        <time>2018-09-15T12:19:39Z</time>
      </trkpt>
      <trkpt lat="43.4402850" lon="-5.9736490">
        <ele>186.6</ele>
        <time>2018-09-15T12:19:40Z</time>
      </trkpt>
      <trkpt lat="43.4403220" lon="-5.9736120">
        <ele>186.7</ele>
        <time>2018-09-15T12:19:41Z</time>
      </trkpt>
      <trkpt lat="43.4403600" lon="-5.9735740">
        <ele>186.7</ele>
        <time>2018-09-15T12:19:42Z</time>
      </trkpt>
      <trkpt lat="43.4403950" lon="-5.9735370">
        <ele>186.8</ele>
        <time>2018-09-15T12:19:43Z</time>
      </trkpt>
      <trkpt lat="43.4404310" lon="-5.9735010">
        <ele>186.9</ele>
        <time>2018-09-15T12:19:44Z</time>
      </trkpt>
      <trkpt lat="43.4404650" lon="-5.9734580">
        <ele>187.0</ele>
        <time>2018-09-15T12:19:45Z</time>
      </trkpt>
      <trkpt lat="43.4404920" lon="-5.9734030">
        <ele>187.1</ele>
        <time>2018-09-15T12:19:46Z</time>
      </trkpt>
      <trkpt lat="43.4405210" lon="-5.9733600">
        <ele>187.1</ele>
        <time>2018-09-15T12:19:47Z</time>
      </trkpt>
      <trkpt lat="43.4405580" lon="-5.9733210">
        <ele>187.2</ele>
        <time>2018-09-15T12:19:48Z</time>
      </trkpt>
      <trkpt lat="43.4405930" lon="-5.9732740">
        <ele>187.3</ele>
        <time>2018-09-15T12:19:49Z</time>
      </trkpt>
      <trkpt lat="43.4406190" lon="-5.9732330">
        <ele>187.4</ele>
        <time>2018-09-15T12:19:50Z</time>
      </trkpt>
      <trkpt lat="43.4406520" lon="-5.9731840">
        <ele>187.5</ele>
        <time>2018-09-15T12:19:51Z</time>
      </trkpt>
      <trkpt lat="43.4406900" lon="-5.9731460">
        <ele>187.6</ele>
        <time>2018-09-15T12:19:52Z</time>
      </trkpt>
      <trkpt lat="43.4407310" lon="-5.9731210">
        <ele>187.6</ele>
        <time>2018-09-15T12:19:53Z</time>
      </trkpt>
      <trkpt lat="43.4407680" lon="-5.9730800">
        <ele>187.7</ele>
        <time>2018-09-15T12:19:54Z</time>
      </trkpt>
      <trkpt lat="43.4408030" lon="-5.9730490">
        <ele>187.7</ele>
        <time>2018-09-15T12:19:55Z</time>
      </trkpt>
      <trkpt lat="43.4408410" lon="-5.9730240">
        <ele>187.8</ele>
        <time>2018-09-15T12:19:56Z</time>
      </trkpt>
      <trkpt lat="43.4408840" lon="-5.9730080">
        <ele>187.9</ele>
        <time>2018-09-15T12:19:57Z</time>
      </trkpt>
      <trkpt lat="43.4409270" lon="-5.9729850">
        <ele>188.0</ele>
        <time>2018-09-15T12:19:58Z</time>
      </trkpt>
      <trkpt lat="43.4409720" lon="-5.9729690">
        <ele>188.1</ele>
        <time>2018-09-15T12:19:59Z</time>
      </trkpt>
      <trkpt lat="43.4410170" lon="-5.9729570">
        <ele>188.2</ele>
        <time>2018-09-15T12:20:00Z</time>
      </trkpt>
      <trkpt lat="43.4410570" lon="-5.9729390">
        <ele>188.3</ele>
        <time>2018-09-15T12:20:01Z</time>
      </trkpt>
      <trkpt lat="43.4411010" lon="-5.9729250">
        <ele>188.5</ele>
        <time>2018-09-15T12:20:02Z</time>
      </trkpt>
      <trkpt lat="43.4411480" lon="-5.9729280">
        <ele>188.6</ele>
        <time>2018-09-15T12:20:03Z</time>
      </trkpt>
      <trkpt lat="43.4411900" lon="-5.9729170">
        <ele>188.7</ele>
        <time>2018-09-15T12:20:04Z</time>
      </trkpt>
      <trkpt lat="43.4412390" lon="-5.9729070">
        <ele>188.8</ele>
        <time>2018-09-15T12:20:05Z</time>
      </trkpt>
      <trkpt lat="43.4412770" lon="-5.9728880">
        <ele>188.9</ele>
        <time>2018-09-15T12:20:06Z</time>
      </trkpt>
      <trkpt lat="43.4413200" lon="-5.9728770">
        <ele>188.9</ele>
        <time>2018-09-15T12:20:07Z</time>
      </trkpt>
      <trkpt lat="43.4413580" lon="-5.9728620">
        <ele>189.0</ele>
        <time>2018-09-15T12:20:08Z</time>
      </trkpt>
      <trkpt lat="43.4413920" lon="-5.9728430">
        <ele>189.0</ele>
        <time>2018-09-15T12:20:09Z</time>
      </trkpt>
      <trkpt lat="43.4414360" lon="-5.9728290">
        <ele>189.0</ele>
        <time>2018-09-15T12:20:10Z</time>
      </trkpt>
      <trkpt lat="43.4414730" lon="-5.9728060">
        <ele>189.1</ele>
        <time>2018-09-15T12:20:11Z</time>
      </trkpt>
      <trkpt lat="43.4415110" lon="-5.9727830">
        <ele>189.1</ele>
        <time>2018-09-15T12:20:12Z</time>
      </trkpt>
      <trkpt lat="43.4415510" lon="-5.9727610">
        <ele>189.1</ele>
        <time>2018-09-15T12:20:13Z</time>
      </trkpt>
      <trkpt lat="43.4415850" lon="-5.9727300">
        <ele>189.1</ele>
        <time>2018-09-15T12:20:14Z</time>
      </trkpt>
      <trkpt lat="43.4416180" lon="-5.9726990">
        <ele>189.1</ele>
        <time>2018-09-15T12:20:15Z</time>
      </trkpt>
      <trkpt lat="43.4416540" lon="-5.9726700">
        <ele>189.2</ele>
        <time>2018-09-15T12:20:16Z</time>
      </trkpt>
      <trkpt lat="43.4416860" lon="-5.9726390">
        <ele>189.2</ele>
        <time>2018-09-15T12:20:17Z</time>
      </trkpt>
      <trkpt lat="43.4417180" lon="-5.9726070">
        <ele>189.2</ele>
        <time>2018-09-15T12:20:18Z</time>
      </trkpt>
      <trkpt lat="43.4417530" lon="-5.9725720">
        <ele>189.2</ele>
        <time>2018-09-15T12:20:19Z</time>
      </trkpt>
      <trkpt lat="43.4417860" lon="-5.9725400">
        <ele>189.2</ele>
        <time>2018-09-15T12:20:20Z</time>
      </trkpt>
      <trkpt lat="43.4418180" lon="-5.9725000">
        <ele>189.3</ele>
        <time>2018-09-15T12:20:21Z</time>
      </trkpt>
      <trkpt lat="43.4418560" lon="-5.9724620">
        <ele>189.3</ele>
        <time>2018-09-15T12:20:22Z</time>
      </trkpt>
      <trkpt lat="43.4418910" lon="-5.9724250">
        <ele>189.4</ele>
        <time>2018-09-15T12:20:23Z</time>
      </trkpt>
      <trkpt lat="43.4419210" lon="-5.9723830">
        <ele>189.5</ele>
        <time>2018-09-15T12:20:24Z</time>
      </trkpt>
      <trkpt lat="43.4419570" lon="-5.9723430">
        <ele>189.6</ele>
        <time>2018-09-15T12:20:25Z</time>
      </trkpt>
      <trkpt lat="43.4419980" lon="-5.9723060">
        <ele>189.7</ele>
        <time>2018-09-15T12:20:26Z</time>
      </trkpt>
      <trkpt lat="43.4420400" lon="-5.9722780">
        <ele>189.8</ele>
        <time>2018-09-15T12:20:27Z</time>
      </trkpt>
      <trkpt lat="43.4420780" lon="-5.9722500">
        <ele>189.9</ele>
        <time>2018-09-15T12:20:28Z</time>
      </trkpt>
      <trkpt lat="43.4421180" lon="-5.9722260">
        <ele>190.1</ele>
        <time>2018-09-15T12:20:29Z</time>
      </trkpt>
      <trkpt lat="43.4421570" lon="-5.9722030">
        <ele>190.1</ele>
        <time>2018-09-15T12:20:30Z</time>
      </trkpt>
      <trkpt lat="43.4421980" lon="-5.9721830">
        <ele>190.2</ele>
        <time>2018-09-15T12:20:31Z</time>
      </trkpt>
      <trkpt lat="43.4422400" lon="-5.9721640">
        <ele>190.3</ele>
        <time>2018-09-15T12:20:32Z</time>
      </trkpt>
      <trkpt lat="43.4422810" lon="-5.9721440">
        <ele>190.3</ele>
        <time>2018-09-15T12:20:33Z</time>
      </trkpt>
      <trkpt lat="43.4423220" lon="-5.9721270">
        <ele>190.4</ele>
        <time>2018-09-15T12:20:34Z</time>
      </trkpt>
      <trkpt lat="43.4423630" lon="-5.9721120">
        <ele>190.5</ele>
        <time>2018-09-15T12:20:35Z</time>
      </trkpt>
      <trkpt lat="43.4424050" lon="-5.9720980">
        <ele>190.5</ele>
        <time>2018-09-15T12:20:36Z</time>
      </trkpt>
      <trkpt lat="43.4424470" lon="-5.9720850">
        <ele>190.5</ele>
        <time>2018-09-15T12:20:37Z</time>
      </trkpt>
      <trkpt lat="43.4424880" lon="-5.9720710">
        <ele>190.5</ele>
        <time>2018-09-15T12:20:38Z</time>
      </trkpt>
      <trkpt lat="43.4425280" lon="-5.9720560">
        <ele>190.6</ele>
        <time>2018-09-15T12:20:39Z</time>
      </trkpt>
      <trkpt lat="43.4425680" lon="-5.9720400">
        <ele>190.6</ele>
        <time>2018-09-15T12:20:40Z</time>
      </trkpt>
      <trkpt lat="43.4426070" lon="-5.9720250">
        <ele>190.6</ele>
        <time>2018-09-15T12:20:41Z</time>
      </trkpt>
      <trkpt lat="43.4426460" lon="-5.9720100">
        <ele>190.6</ele>
        <time>2018-09-15T12:20:42Z</time>
      </trkpt>
      <trkpt lat="43.4426860" lon="-5.9719970">
        <ele>190.7</ele>
        <time>2018-09-15T12:20:43Z</time>
      </trkpt>
      <trkpt lat="43.4427280" lon="-5.9719810">
        <ele>190.7</ele>
        <time>2018-09-15T12:20:44Z</time>
      </trkpt>
      <trkpt lat="43.4427700" lon="-5.9719640">
        <ele>190.7</ele>
        <time>2018-09-15T12:20:45Z</time>
      </trkpt>
      <trkpt lat="43.4428120" lon="-5.9719460">
        <ele>190.7</ele>
        <time>2018-09-15T12:20:46Z</time>
      </trkpt>
      <trkpt lat="43.4428540" lon="-5.9719290">
        <ele>190.7</ele>
        <time>2018-09-15T12:20:47Z</time>
      </trkpt>
      <trkpt lat="43.4428950" lon="-5.9719140">
        <ele>190.8</ele>
        <time>2018-09-15T12:20:48Z</time>
      </trkpt>
      <trkpt lat="43.4429360" lon="-5.9718970">
        <ele>190.8</ele>
        <time>2018-09-15T12:20:49Z</time>
      </trkpt>
      <trkpt lat="43.4429810" lon="-5.9718680">
        <ele>190.8</ele>
        <time>2018-09-15T12:20:50Z</time>
      </trkpt>
      <trkpt lat="43.4430260" lon="-5.9718520">
        <ele>190.8</ele>
        <time>2018-09-15T12:20:51Z</time>
      </trkpt>
      <trkpt lat="43.4430740" lon="-5.9718350">
        <ele>190.9</ele>
        <time>2018-09-15T12:20:52Z</time>
      </trkpt>
      <trkpt lat="43.4431200" lon="-5.9718110">
        <ele>191.0</ele>
        <time>2018-09-15T12:20:53Z</time>
      </trkpt>
      <trkpt lat="43.4431630" lon="-5.9717840">
        <ele>191.0</ele>
        <time>2018-09-15T12:20:54Z</time>
      </trkpt>
      <trkpt lat="43.4432070" lon="-5.9717630">
        <ele>191.1</ele>
        <time>2018-09-15T12:20:55Z</time>
      </trkpt>
      <trkpt lat="43.4432470" lon="-5.9717310">
        <ele>191.2</ele>
        <time>2018-09-15T12:20:56Z</time>
      </trkpt>
      <trkpt lat="43.4432860" lon="-5.9717070">
        <ele>191.3</ele>
        <time>2018-09-15T12:20:57Z</time>
      </trkpt>
      <trkpt lat="43.4433190" lon="-5.9716820">
        <ele>191.4</ele>
        <time>2018-09-15T12:20:58Z</time>
      </trkpt>
      <trkpt lat="43.4433700" lon="-5.9716730">
        <ele>191.5</ele>
        <time>2018-09-15T12:20:59Z</time>
      </trkpt>
      <trkpt lat="43.4434090" lon="-5.9716510">
        <ele>191.6</ele>
        <time>2018-09-15T12:21:00Z</time>
      </trkpt>
      <trkpt lat="43.4434500" lon="-5.9716230">
        <ele>191.7</ele>
        <time>2018-09-15T12:21:01Z</time>
      </trkpt>
      <trkpt lat="43.4434920" lon="-5.9715950">
        <ele>191.8</ele>
        <time>2018-09-15T12:21:02Z</time>
      </trkpt>
      <trkpt lat="43.4435460" lon="-5.9715830">
        <ele>191.9</ele>
        <time>2018-09-15T12:21:03Z</time>
      </trkpt>
      <trkpt lat="43.4435890" lon="-5.9715620">
        <ele>191.9</ele>
        <time>2018-09-15T12:21:04Z</time>
      </trkpt>
      <trkpt lat="43.4436290" lon="-5.9715360">
        <ele>192.0</ele>
        <time>2018-09-15T12:21:05Z</time>
      </trkpt>
      <trkpt lat="43.4436690" lon="-5.9714960">
        <ele>192.3</ele>
        <time>2018-09-15T12:21:06Z</time>
      </trkpt>
      <trkpt lat="43.4437120" lon="-5.9714760">
        <ele>192.6</ele>
        <time>2018-09-15T12:21:07Z</time>
      </trkpt>
      <trkpt lat="43.4437520" lon="-5.9714450">
        <ele>192.9</ele>
        <time>2018-09-15T12:21:08Z</time>
      </trkpt>
      <trkpt lat="43.4437860" lon="-5.9714270">
        <ele>193.2</ele>
        <time>2018-09-15T12:21:09Z</time>
      </trkpt>
      <trkpt lat="43.4438170" lon="-5.9714110">
        <ele>193.4</ele>
        <time>2018-09-15T12:21:10Z</time>
      </trkpt>
      <trkpt lat="43.4438520" lon="-5.9713890">
        <ele>193.7</ele>
        <time>2018-09-15T12:21:11Z</time>
      </trkpt>
      <trkpt lat="43.4439010" lon="-5.9713750">
        <ele>194.1</ele>
        <time>2018-09-15T12:21:12Z</time>
      </trkpt>
      <trkpt lat="43.4439410" lon="-5.9713520">
        <ele>194.4</ele>
        <time>2018-09-15T12:21:13Z</time>
      </trkpt>
      <trkpt lat="43.4439760" lon="-5.9713290">
        <ele>194.7</ele>
        <time>2018-09-15T12:21:14Z</time>
      </trkpt>
      <trkpt lat="43.4440110" lon="-5.9713060">
        <ele>195.0</ele>
        <time>2018-09-15T12:21:15Z</time>
      </trkpt>
      <trkpt lat="43.4440430" lon="-5.9712760">
        <ele>195.3</ele>
        <time>2018-09-15T12:21:16Z</time>
      </trkpt>
      <trkpt lat="43.4440810" lon="-5.9712420">
        <ele>195.6</ele>
        <time>2018-09-15T12:21:17Z</time>
      </trkpt>
      <trkpt lat="43.4441180" lon="-5.9712130">
        <ele>195.9</ele>
        <time>2018-09-15T12:21:18Z</time>
      </trkpt>
      <trkpt lat="43.4441510" lon="-5.9711800">
        <ele>196.2</ele>
        <time>2018-09-15T12:21:19Z</time>
      </trkpt>
      <trkpt lat="43.4441740" lon="-5.9711360">
        <ele>196.5</ele>
        <time>2018-09-15T12:21:20Z</time>
      </trkpt>
      <trkpt lat="43.4442010" lon="-5.9710960">
        <ele>196.8</ele>
        <time>2018-09-15T12:21:21Z</time>
      </trkpt>
      <trkpt lat="43.4442230" lon="-5.9710470">
        <ele>197.1</ele>
        <time>2018-09-15T12:21:22Z</time>
      </trkpt>
      <trkpt lat="43.4442460" lon="-5.9710060">
        <ele>197.4</ele>
        <time>2018-09-15T12:21:23Z</time>
      </trkpt>
      <trkpt lat="43.4442630" lon="-5.9709610">
        <ele>197.6</ele>
        <time>2018-09-15T12:21:24Z</time>
      </trkpt>
      <trkpt lat="43.4442690" lon="-5.9709390">
        <ele>197.8</ele>
        <time>2018-09-15T12:21:25Z</time>
      </trkpt>
      <trkpt lat="43.4442810" lon="-5.9709090">
        <ele>198.0</ele>
        <time>2018-09-15T12:21:26Z</time>
      </trkpt>
      <trkpt lat="43.4442930" lon="-5.9708770">
        <ele>198.1</ele>
        <time>2018-09-15T12:21:27Z</time>
      </trkpt>
      <trkpt lat="43.4443020" lon="-5.9708400">
        <ele>198.4</ele>
        <time>2018-09-15T12:21:28Z</time>
      </trkpt>
      <trkpt lat="43.4443120" lon="-5.9707970">
        <ele>198.6</ele>
        <time>2018-09-15T12:21:29Z</time>
      </trkpt>
      <trkpt lat="43.4443220" lon="-5.9707530">
        <ele>198.9</ele>
        <time>2018-09-15T12:21:30Z</time>
      </trkpt>
      <trkpt lat="43.4443340" lon="-5.9707100">
        <ele>199.1</ele>
        <time>2018-09-15T12:21:31Z</time>
      </trkpt>
      <trkpt lat="43.4443430" lon="-5.9706710">
        <ele>199.4</ele>
        <time>2018-09-15T12:21:32Z</time>
      </trkpt>
      <trkpt lat="43.4443570" lon="-5.9706250">
        <ele>199.7</ele>
        <time>2018-09-15T12:21:33Z</time>
      </trkpt>
      <trkpt lat="43.4443720" lon="-5.9705830">
        <ele>199.9</ele>
        <time>2018-09-15T12:21:34Z</time>
      </trkpt>
      <trkpt lat="43.4443830" lon="-5.9705460">
        <ele>200.2</ele>
        <time>2018-09-15T12:21:35Z</time>
      </trkpt>
      <trkpt lat="43.4443980" lon="-5.9705050">
        <ele>200.5</ele>
        <time>2018-09-15T12:21:36Z</time>
      </trkpt>
      <trkpt lat="43.4444180" lon="-5.9704610">
        <ele>200.8</ele>
        <time>2018-09-15T12:21:37Z</time>
      </trkpt>
      <trkpt lat="43.4444360" lon="-5.9704250">
        <ele>201.0</ele>
        <time>2018-09-15T12:21:38Z</time>
      </trkpt>
      <trkpt lat="43.4444460" lon="-5.9703990">
        <ele>201.2</ele>
        <time>2018-09-15T12:21:39Z</time>
      </trkpt>
      <trkpt lat="43.4444600" lon="-5.9703770">
        <ele>201.4</ele>
        <time>2018-09-15T12:21:40Z</time>
      </trkpt>
      <trkpt lat="43.4444900" lon="-5.9703320">
        <ele>201.7</ele>
        <time>2018-09-15T12:21:41Z</time>
      </trkpt>
      <trkpt lat="43.4445140" lon="-5.9702930">
        <ele>202.1</ele>
        <time>2018-09-15T12:21:42Z</time>
      </trkpt>
      <trkpt lat="43.4445410" lon="-5.9702510">
        <ele>202.4</ele>
        <time>2018-09-15T12:21:43Z</time>
      </trkpt>
      <trkpt lat="43.4445630" lon="-5.9702150">
        <ele>202.7</ele>
        <time>2018-09-15T12:21:44Z</time>
      </trkpt>
      <trkpt lat="43.4445890" lon="-5.9701770">
        <ele>203.0</ele>
        <time>2018-09-15T12:21:45Z</time>
      </trkpt>
      <trkpt lat="43.4446150" lon="-5.9701350">
        <ele>203.4</ele>
        <time>2018-09-15T12:21:46Z</time>
      </trkpt>
      <trkpt lat="43.4446400" lon="-5.9700970">
        <ele>203.7</ele>
        <time>2018-09-15T12:21:47Z</time>
      </trkpt>
      <trkpt lat="43.4446630" lon="-5.9700600">
        <ele>204.0</ele>
        <time>2018-09-15T12:21:48Z</time>
      </trkpt>
      <trkpt lat="43.4446870" lon="-5.9700220">
        <ele>204.3</ele>
        <time>2018-09-15T12:21:49Z</time>
      </trkpt>
      <trkpt lat="43.4447070" lon="-5.9699850">
        <ele>204.5</ele>
        <time>2018-09-15T12:21:50Z</time>
      </trkpt>
      <trkpt lat="43.4447320" lon="-5.9699450">
        <ele>204.9</ele>
        <time>2018-09-15T12:21:51Z</time>
      </trkpt>
      <trkpt lat="43.4447530" lon="-5.9699080">
        <ele>205.1</ele>
        <time>2018-09-15T12:21:52Z</time>
      </trkpt>
      <trkpt lat="43.4447710" lon="-5.9698760">
        <ele>205.4</ele>
        <time>2018-09-15T12:21:53Z</time>
      </trkpt>
      <trkpt lat="43.4447890" lon="-5.9698430">
        <ele>205.6</ele>
        <time>2018-09-15T12:21:54Z</time>
      </trkpt>
      <trkpt lat="43.4448160" lon="-5.9698110">
        <ele>205.9</ele>
        <time>2018-09-15T12:21:55Z</time>
      </trkpt>
      <trkpt lat="43.4448370" lon="-5.9697880">
        <ele>206.1</ele>
        <time>2018-09-15T12:21:56Z</time>
      </trkpt>
      <trkpt lat="43.4448590" lon="-5.9697610">
        <ele>206.4</ele>
        <time>2018-09-15T12:21:57Z</time>
      </trkpt>
      <trkpt lat="43.4448850" lon="-5.9697320">
        <ele>206.7</ele>
        <time>2018-09-15T12:21:58Z</time>
      </trkpt>
      <trkpt lat="43.4449100" lon="-5.9697070">
        <ele>206.9</ele>
        <time>2018-09-15T12:21:59Z</time>
      </trkpt>
      <trkpt lat="43.4449350" lon="-5.9696830">
        <ele>207.2</ele>
        <time>2018-09-15T12:22:00Z</time>
      </trkpt>
      <trkpt lat="43.4449580" lon="-5.9696610">
        <ele>207.4</ele>
        <time>2018-09-15T12:22:01Z</time>
      </trkpt>
      <trkpt lat="43.4449850" lon="-5.9696400">
        <ele>207.7</ele>
        <time>2018-09-15T12:22:02Z</time>
      </trkpt>
      <trkpt lat="43.4450190" lon="-5.9696220">
        <ele>208.1</ele>
        <time>2018-09-15T12:22:03Z</time>
      </trkpt>
      <trkpt lat="43.4450510" lon="-5.9696080">
        <ele>208.4</ele>
        <time>2018-09-15T12:22:04Z</time>
      </trkpt>
      <trkpt lat="43.4450770" lon="-5.9695960">
        <ele>208.7</ele>
        <time>2018-09-15T12:22:05Z</time>
      </trkpt>
      <trkpt lat="43.4451090" lon="-5.9695850">
        <ele>209.0</ele>
        <time>2018-09-15T12:22:06Z</time>
      </trkpt>
      <trkpt lat="43.4451340" lon="-5.9695730">
        <ele>209.2</ele>
        <time>2018-09-15T12:22:07Z</time>
      </trkpt>
      <trkpt lat="43.4451610" lon="-5.9695630">
        <ele>209.5</ele>
        <time>2018-09-15T12:22:08Z</time>
      </trkpt>
      <trkpt lat="43.4451940" lon="-5.9695570">
        <ele>209.8</ele>
        <time>2018-09-15T12:22:09Z</time>
      </trkpt>
      <trkpt lat="43.4452220" lon="-5.9695490">
        <ele>210.0</ele>
        <time>2018-09-15T12:22:10Z</time>
      </trkpt>
      <trkpt lat="43.4452540" lon="-5.9695420">
        <ele>210.3</ele>
        <time>2018-09-15T12:22:11Z</time>
      </trkpt>
      <trkpt lat="43.4452780" lon="-5.9695320">
        <ele>210.6</ele>
        <time>2018-09-15T12:22:12Z</time>
      </trkpt>
      <trkpt lat="43.4453070" lon="-5.9695230">
        <ele>210.8</ele>
        <time>2018-09-15T12:22:13Z</time>
      </trkpt>
      <trkpt lat="43.4453350" lon="-5.9695160">
        <ele>211.1</ele>
        <time>2018-09-15T12:22:14Z</time>
      </trkpt>
      <trkpt lat="43.4453640" lon="-5.9695080">
        <ele>211.3</ele>
        <time>2018-09-15T12:22:15Z</time>
      </trkpt>
      <trkpt lat="43.4453920" lon="-5.9695020">
        <ele>211.5</ele>
        <time>2018-09-15T12:22:16Z</time>
      </trkpt>
      <trkpt lat="43.4454230" lon="-5.9694940">
        <ele>211.8</ele>
        <time>2018-09-15T12:22:17Z</time>
      </trkpt>
      <trkpt lat="43.4454580" lon="-5.9694890">
        <ele>212.1</ele>
        <time>2018-09-15T12:22:18Z</time>
      </trkpt>
      <trkpt lat="43.4454860" lon="-5.9694830">
        <ele>212.3</ele>
        <time>2018-09-15T12:22:19Z</time>
      </trkpt>
      <trkpt lat="43.4455180" lon="-5.9694770">
        <ele>212.6</ele>
        <time>2018-09-15T12:22:20Z</time>
      </trkpt>
      <trkpt lat="43.4455450" lon="-5.9694720">
        <ele>212.8</ele>
        <time>2018-09-15T12:22:21Z</time>
      </trkpt>
      <trkpt lat="43.4455780" lon="-5.9694670">
        <ele>213.0</ele>
        <time>2018-09-15T12:22:22Z</time>
      </trkpt>
      <trkpt lat="43.4456080" lon="-5.9694630">
        <ele>213.2</ele>
        <time>2018-09-15T12:22:23Z</time>
      </trkpt>
      <trkpt lat="43.4456320" lon="-5.9694590">
        <ele>213.4</ele>
        <time>2018-09-15T12:22:24Z</time>
      </trkpt>
      <trkpt lat="43.4456580" lon="-5.9694580">
        <ele>213.6</ele>
        <time>2018-09-15T12:22:25Z</time>
      </trkpt>
      <trkpt lat="43.4456870" lon="-5.9694600">
        <ele>213.8</ele>
        <time>2018-09-15T12:22:26Z</time>
      </trkpt>
      <trkpt lat="43.4457210" lon="-5.9694650">
        <ele>214.1</ele>
        <time>2018-09-15T12:22:27Z</time>
      </trkpt>
      <trkpt lat="43.4457520" lon="-5.9694680">
        <ele>214.3</ele>
        <time>2018-09-15T12:22:28Z</time>
      </trkpt>
      <trkpt lat="43.4457870" lon="-5.9694750">
        <ele>214.6</ele>
        <time>2018-09-15T12:22:29Z</time>
      </trkpt>
      <trkpt lat="43.4458170" lon="-5.9694790">
        <ele>214.8</ele>
        <time>2018-09-15T12:22:31Z</time>
      </trkpt>
      <trkpt lat="43.4458460" lon="-5.9694860">
        <ele>215.0</ele>
        <time>2018-09-15T12:22:32Z</time>
      </trkpt>
      <trkpt lat="43.4458770" lon="-5.9694930">
        <ele>215.2</ele>
        <time>2018-09-15T12:22:33Z</time>
      </trkpt>
      <trkpt lat="43.4459100" lon="-5.9695010">
        <ele>215.5</ele>
        <time>2018-09-15T12:22:34Z</time>
      </trkpt>
      <trkpt lat="43.4459470" lon="-5.9695080">
        <ele>215.8</ele>
        <time>2018-09-15T12:22:35Z</time>
      </trkpt>
      <trkpt lat="43.4459820" lon="-5.9695140">
        <ele>216.0</ele>
        <time>2018-09-15T12:22:36Z</time>
      </trkpt>
      <trkpt lat="43.4460170" lon="-5.9695160">
        <ele>216.3</ele>
        <time>2018-09-15T12:22:37Z</time>
      </trkpt>
      <trkpt lat="43.4460450" lon="-5.9695150">
        <ele>216.5</ele>
        <time>2018-09-15T12:22:38Z</time>
      </trkpt>
      <trkpt lat="43.4460790" lon="-5.9695170">
        <ele>216.7</ele>
        <time>2018-09-15T12:22:39Z</time>
      </trkpt>
      <trkpt lat="43.4461080" lon="-5.9695130">
        <ele>217.0</ele>
        <time>2018-09-15T12:22:40Z</time>
      </trkpt>
      <trkpt lat="43.4461370" lon="-5.9695100">
        <ele>217.2</ele>
        <time>2018-09-15T12:22:41Z</time>
      </trkpt>
      <trkpt lat="43.4461690" lon="-5.9695030">
        <ele>217.4</ele>
        <time>2018-09-15T12:22:42Z</time>
      </trkpt>
      <trkpt lat="43.4462040" lon="-5.9694960">
        <ele>217.7</ele>
        <time>2018-09-15T12:22:43Z</time>
      </trkpt>
      <trkpt lat="43.4462330" lon="-5.9694880">
        <ele>217.9</ele>
        <time>2018-09-15T12:22:44Z</time>
      </trkpt>
      <trkpt lat="43.4462650" lon="-5.9694770">
        <ele>218.2</ele>
        <time>2018-09-15T12:22:45Z</time>
      </trkpt>
      <trkpt lat="43.4462940" lon="-5.9694670">
        <ele>218.4</ele>
        <time>2018-09-15T12:22:46Z</time>
      </trkpt>
      <trkpt lat="43.4463240" lon="-5.9694570">
        <ele>218.7</ele>
        <time>2018-09-15T12:22:47Z</time>
      </trkpt>
      <trkpt lat="43.4463500" lon="-5.9694480">
        <ele>218.9</ele>
        <time>2018-09-15T12:22:48Z</time>
      </trkpt>
      <trkpt lat="43.4463680" lon="-5.9694390">
        <ele>219.0</ele>
        <time>2018-09-15T12:22:49Z</time>
      </trkpt>
      <trkpt lat="43.4463900" lon="-5.9694330">
        <ele>219.2</ele>
        <time>2018-09-15T12:22:50Z</time>
      </trkpt>
      <trkpt lat="43.4464120" lon="-5.9694260">
        <ele>219.4</ele>
        <time>2018-09-15T12:22:51Z</time>
      </trkpt>
      <trkpt lat="43.4464310" lon="-5.9694170">
        <ele>219.5</ele>
        <time>2018-09-15T12:22:52Z</time>
      </trkpt>
      <trkpt lat="43.4464570" lon="-5.9694070">
        <ele>219.8</ele>
        <time>2018-09-15T12:22:53Z</time>
      </trkpt>
      <trkpt lat="43.4464790" lon="-5.9693970">
        <ele>219.9</ele>
        <time>2018-09-15T12:22:54Z</time>
      </trkpt>
      <trkpt lat="43.4465300" lon="-5.9693790">
        <ele>220.4</ele>
        <time>2018-09-15T12:22:55Z</time>
      </trkpt>
      <trkpt lat="43.4465600" lon="-5.9693700">
        <ele>220.6</ele>
        <time>2018-09-15T12:22:56Z</time>
      </trkpt>
      <trkpt lat="43.4465870" lon="-5.9693590">
        <ele>220.8</ele>
        <time>2018-09-15T12:22:57Z</time>
      </trkpt>
      <trkpt lat="43.4466060" lon="-5.9693470">
        <ele>221.0</ele>
        <time>2018-09-15T12:22:58Z</time>
      </trkpt>
      <trkpt lat="43.4466240" lon="-5.9693350">
        <ele>221.1</ele>
        <time>2018-09-15T12:22:59Z</time>
      </trkpt>
      <trkpt lat="43.4466440" lon="-5.9693220">
        <ele>221.3</ele>
        <time>2018-09-15T12:23:00Z</time>
      </trkpt>
      <trkpt lat="43.4466640" lon="-5.9693080">
        <ele>221.5</ele>
        <time>2018-09-15T12:23:01Z</time>
      </trkpt>
      <trkpt lat="43.4466900" lon="-5.9692940">
        <ele>221.7</ele>
        <time>2018-09-15T12:23:02Z</time>
      </trkpt>
      <trkpt lat="43.4467240" lon="-5.9692860">
        <ele>222.0</ele>
        <time>2018-09-15T12:23:03Z</time>
      </trkpt>
      <trkpt lat="43.4467590" lon="-5.9692810">
        <ele>222.3</ele>
        <time>2018-09-15T12:23:04Z</time>
      </trkpt>
      <trkpt lat="43.4467910" lon="-5.9692760">
        <ele>222.5</ele>
        <time>2018-09-15T12:23:05Z</time>
      </trkpt>
      <trkpt lat="43.4468240" lon="-5.9692750">
        <ele>222.8</ele>
        <time>2018-09-15T12:23:06Z</time>
      </trkpt>
      <trkpt lat="43.4468620" lon="-5.9692800">
        <ele>223.1</ele>
        <time>2018-09-15T12:23:07Z</time>
      </trkpt>
      <trkpt lat="43.4469000" lon="-5.9692860">
        <ele>223.4</ele>
        <time>2018-09-15T12:23:08Z</time>
      </trkpt>
      <trkpt lat="43.4469320" lon="-5.9692910">
        <ele>223.7</ele>
        <time>2018-09-15T12:23:09Z</time>
      </trkpt>
      <trkpt lat="43.4469700" lon="-5.9693020">
        <ele>224.0</ele>
        <time>2018-09-15T12:23:10Z</time>
      </trkpt>
      <trkpt lat="43.4470050" lon="-5.9693100">
        <ele>224.3</ele>
        <time>2018-09-15T12:23:11Z</time>
      </trkpt>
      <trkpt lat="43.4470430" lon="-5.9693240">
        <ele>224.7</ele>
        <time>2018-09-15T12:23:12Z</time>
      </trkpt>
      <trkpt lat="43.4470750" lon="-5.9693330">
        <ele>224.9</ele>
        <time>2018-09-15T12:23:13Z</time>
      </trkpt>
      <trkpt lat="43.4471130" lon="-5.9693460">
        <ele>225.3</ele>
        <time>2018-09-15T12:23:14Z</time>
      </trkpt>
      <trkpt lat="43.4471520" lon="-5.9693580">
        <ele>225.6</ele>
        <time>2018-09-15T12:23:15Z</time>
      </trkpt>
      <trkpt lat="43.4471880" lon="-5.9693680">
        <ele>225.9</ele>
        <time>2018-09-15T12:23:16Z</time>
      </trkpt>
      <trkpt lat="43.4472180" lon="-5.9693730">
        <ele>226.1</ele>
        <time>2018-09-15T12:23:17Z</time>
      </trkpt>
      <trkpt lat="43.4472560" lon="-5.9693790">
        <ele>226.4</ele>
        <time>2018-09-15T12:23:18Z</time>
      </trkpt>
      <trkpt lat="43.4472920" lon="-5.9693800">
        <ele>226.7</ele>
        <time>2018-09-15T12:23:19Z</time>
      </trkpt>
      <trkpt lat="43.4473210" lon="-5.9693780">
        <ele>226.9</ele>
        <time>2018-09-15T12:23:20Z</time>
      </trkpt>
      <trkpt lat="43.4473520" lon="-5.9693740">
        <ele>227.2</ele>
        <time>2018-09-15T12:23:21Z</time>
      </trkpt>
      <trkpt lat="43.4473850" lon="-5.9693680">
        <ele>227.5</ele>
        <time>2018-09-15T12:23:22Z</time>
      </trkpt>
      <trkpt lat="43.4474200" lon="-5.9693600">
        <ele>227.7</ele>
        <time>2018-09-15T12:23:23Z</time>
      </trkpt>
      <trkpt lat="43.4474500" lon="-5.9693530">
        <ele>228.0</ele>
        <time>2018-09-15T12:23:24Z</time>
      </trkpt>
      <trkpt lat="43.4474850" lon="-5.9693430">
        <ele>228.2</ele>
        <time>2018-09-15T12:23:25Z</time>
      </trkpt>
      <trkpt lat="43.4475130" lon="-5.9693330">
        <ele>228.5</ele>
        <time>2018-09-15T12:23:26Z</time>
      </trkpt>
      <trkpt lat="43.4475390" lon="-5.9693220">
        <ele>228.7</ele>
        <time>2018-09-15T12:23:27Z</time>
      </trkpt>
      <trkpt lat="43.4475730" lon="-5.9693050">
        <ele>228.9</ele>
        <time>2018-09-15T12:23:28Z</time>
      </trkpt>
      <trkpt lat="43.4476000" lon="-5.9692890">
        <ele>229.1</ele>
        <time>2018-09-15T12:23:29Z</time>
      </trkpt>
      <trkpt lat="43.4476270" lon="-5.9692730">
        <ele>229.4</ele>
        <time>2018-09-15T12:23:30Z</time>
      </trkpt>
      <trkpt lat="43.4476580" lon="-5.9692510">
        <ele>229.6</ele>
        <time>2018-09-15T12:23:31Z</time>
      </trkpt>
      <trkpt lat="43.4476860" lon="-5.9692280">
        <ele>229.9</ele>
        <time>2018-09-15T12:23:32Z</time>
      </trkpt>
      <trkpt lat="43.4477100" lon="-5.9692080">
        <ele>230.1</ele>
        <time>2018-09-15T12:23:33Z</time>
      </trkpt>
      <trkpt lat="43.4477330" lon="-5.9691840">
        <ele>230.3</ele>
        <time>2018-09-15T12:23:34Z</time>
      </trkpt>
      <trkpt lat="43.4477600" lon="-5.9691530">
        <ele>230.6</ele>
        <time>2018-09-15T12:23:35Z</time>
      </trkpt>
      <trkpt lat="43.4477810" lon="-5.9691260">
        <ele>230.8</ele>
        <time>2018-09-15T12:23:36Z</time>
      </trkpt>
      <trkpt lat="43.4478050" lon="-5.9690940">
        <ele>231.1</ele>
        <time>2018-09-15T12:23:37Z</time>
      </trkpt>
      <trkpt lat="43.4478250" lon="-5.9690650">
        <ele>231.3</ele>
        <time>2018-09-15T12:23:38Z</time>
      </trkpt>
      <trkpt lat="43.4478430" lon="-5.9690360">
        <ele>231.6</ele>
        <time>2018-09-15T12:23:39Z</time>
      </trkpt>
      <trkpt lat="43.4478630" lon="-5.9690000">
        <ele>231.8</ele>
        <time>2018-09-15T12:23:40Z</time>
      </trkpt>
      <trkpt lat="43.4478780" lon="-5.9689690">
        <ele>232.1</ele>
        <time>2018-09-15T12:23:41Z</time>
      </trkpt>
      <trkpt lat="43.4478940" lon="-5.9689360">
        <ele>232.3</ele>
        <time>2018-09-15T12:23:42Z</time>
      </trkpt>
      <trkpt lat="43.4479130" lon="-5.9688990">
        <ele>232.6</ele>
        <time>2018-09-15T12:23:43Z</time>
      </trkpt>
      <trkpt lat="43.4479300" lon="-5.9688630">
        <ele>232.9</ele>
        <time>2018-09-15T12:23:44Z</time>
      </trkpt>
      <trkpt lat="43.4479430" lon="-5.9688320">
        <ele>233.1</ele>
        <time>2018-09-15T12:23:45Z</time>
      </trkpt>
      <trkpt lat="43.4479570" lon="-5.9687980">
        <ele>233.3</ele>
        <time>2018-09-15T12:23:46Z</time>
      </trkpt>
      <trkpt lat="43.4479710" lon="-5.9687640">
        <ele>233.6</ele>
        <time>2018-09-15T12:23:47Z</time>
      </trkpt>
      <trkpt lat="43.4479890" lon="-5.9687250">
        <ele>233.9</ele>
        <time>2018-09-15T12:23:48Z</time>
      </trkpt>
      <trkpt lat="43.4480030" lon="-5.9686900">
        <ele>234.1</ele>
        <time>2018-09-15T12:23:49Z</time>
      </trkpt>
      <trkpt lat="43.4480220" lon="-5.9686520">
        <ele>234.4</ele>
        <time>2018-09-15T12:23:50Z</time>
      </trkpt>
      <trkpt lat="43.4480370" lon="-5.9686220">
        <ele>234.7</ele>
        <time>2018-09-15T12:23:51Z</time>
      </trkpt>
      <trkpt lat="43.4480590" lon="-5.9685840">
        <ele>235.0</ele>
        <time>2018-09-15T12:23:52Z</time>
      </trkpt>
      <trkpt lat="43.4480800" lon="-5.9685490">
        <ele>235.3</ele>
        <time>2018-09-15T12:23:53Z</time>
      </trkpt>
      <trkpt lat="43.4480940" lon="-5.9685220">
        <ele>235.5</ele>
        <time>2018-09-15T12:23:54Z</time>
      </trkpt>
      <trkpt lat="43.4481160" lon="-5.9684860">
        <ele>235.8</ele>
        <time>2018-09-15T12:23:55Z</time>
      </trkpt>
      <trkpt lat="43.4481310" lon="-5.9684590">
        <ele>236.0</ele>
        <time>2018-09-15T12:23:56Z</time>
      </trkpt>
      <trkpt lat="43.4481520" lon="-5.9684230">
        <ele>236.3</ele>
        <time>2018-09-15T12:23:57Z</time>
      </trkpt>
      <trkpt lat="43.4481650" lon="-5.9683950">
        <ele>236.5</ele>
        <time>2018-09-15T12:23:58Z</time>
      </trkpt>
      <trkpt lat="43.4481810" lon="-5.9683630">
        <ele>236.8</ele>
        <time>2018-09-15T12:23:59Z</time>
      </trkpt>
      <trkpt lat="43.4481950" lon="-5.9683330">
        <ele>237.0</ele>
        <time>2018-09-15T12:24:00Z</time>
      </trkpt>
      <trkpt lat="43.4482120" lon="-5.9682980">
        <ele>237.3</ele>
        <time>2018-09-15T12:24:01Z</time>
      </trkpt>
      <trkpt lat="43.4482270" lon="-5.9682630">
        <ele>237.5</ele>
        <time>2018-09-15T12:24:02Z</time>
      </trkpt>
      <trkpt lat="43.4482430" lon="-5.9682300">
        <ele>237.8</ele>
        <time>2018-09-15T12:24:03Z</time>
      </trkpt>
      <trkpt lat="43.4482620" lon="-5.9681940">
        <ele>238.1</ele>
        <time>2018-09-15T12:24:04Z</time>
      </trkpt>
      <trkpt lat="43.4482810" lon="-5.9681600">
        <ele>238.4</ele>
        <time>2018-09-15T12:24:05Z</time>
      </trkpt>
      <trkpt lat="43.4482960" lon="-5.9681310">
        <ele>238.6</ele>
        <time>2018-09-15T12:24:06Z</time>
      </trkpt>
      <trkpt lat="43.4483150" lon="-5.9680970">
        <ele>238.9</ele>
        <time>2018-09-15T12:24:07Z</time>
      </trkpt>
      <trkpt lat="43.4483310" lon="-5.9680690">
        <ele>238.0</ele>
        <time>2018-09-15T12:24:08Z</time>
      </trkpt>
      <trkpt lat="43.4483520" lon="-5.9680370">
        <ele>235.9</ele>
        <time>2018-09-15T12:24:09Z</time>
      </trkpt>
      <trkpt lat="43.4483690" lon="-5.9680130">
        <ele>234.3</ele>
        <time>2018-09-15T12:24:10Z</time>
      </trkpt>
      <trkpt lat="43.4483900" lon="-5.9679830">
        <ele>232.2</ele>
        <time>2018-09-15T12:24:11Z</time>
      </trkpt>
      <trkpt lat="43.4484100" lon="-5.9679550">
        <ele>230.3</ele>
        <time>2018-09-15T12:24:12Z</time>
      </trkpt>
      <trkpt lat="43.4484270" lon="-5.9679330">
        <ele>228.7</ele>
        <time>2018-09-15T12:24:13Z</time>
      </trkpt>
      <trkpt lat="43.4484450" lon="-5.9679090">
        <ele>227.1</ele>
        <time>2018-09-15T12:24:14Z</time>
      </trkpt>
      <trkpt lat="43.4484670" lon="-5.9678860">
        <ele>225.2</ele>
        <time>2018-09-15T12:24:15Z</time>
      </trkpt>
      <trkpt lat="43.4484940" lon="-5.9678610">
        <ele>223.0</ele>
        <time>2018-09-15T12:24:16Z</time>
      </trkpt>
      <trkpt lat="43.4485190" lon="-5.9678350">
        <ele>223.1</ele>
        <time>2018-09-15T12:24:17Z</time>
      </trkpt>
      <trkpt lat="43.4485390" lon="-5.9678140">
        <ele>223.3</ele>
        <time>2018-09-15T12:24:18Z</time>
      </trkpt>
      <trkpt lat="43.4485580" lon="-5.9677920">
        <ele>223.4</ele>
        <time>2018-09-15T12:24:19Z</time>
      </trkpt>
      <trkpt lat="43.4485860" lon="-5.9677640">
        <ele>223.6</ele>
        <time>2018-09-15T12:24:20Z</time>
      </trkpt>
      <trkpt lat="43.4486080" lon="-5.9677410">
        <ele>223.7</ele>
        <time>2018-09-15T12:24:21Z</time>
      </trkpt>
      <trkpt lat="43.4486330" lon="-5.9677150">
        <ele>223.9</ele>
        <time>2018-09-15T12:24:22Z</time>
      </trkpt>
      <trkpt lat="43.4486530" lon="-5.9676920">
        <ele>224.0</ele>
        <time>2018-09-15T12:24:23Z</time>
      </trkpt>
      <trkpt lat="43.4486740" lon="-5.9676670">
        <ele>224.1</ele>
        <time>2018-09-15T12:24:24Z</time>
      </trkpt>
      <trkpt lat="43.4487010" lon="-5.9676400">
        <ele>224.3</ele>
        <time>2018-09-15T12:24:25Z</time>
      </trkpt>
      <trkpt lat="43.4487260" lon="-5.9676130">
        <ele>224.5</ele>
        <time>2018-09-15T12:24:26Z</time>
      </trkpt>
      <trkpt lat="43.4487440" lon="-5.9675900">
        <ele>224.6</ele>
        <time>2018-09-15T12:24:27Z</time>
      </trkpt>
      <trkpt lat="43.4487720" lon="-5.9675630">
        <ele>224.8</ele>
        <time>2018-09-15T12:24:28Z</time>
      </trkpt>
      <trkpt lat="43.4488000" lon="-5.9675390">
        <ele>225.0</ele>
        <time>2018-09-15T12:24:29Z</time>
      </trkpt>
      <trkpt lat="43.4488190" lon="-5.9675170">
        <ele>225.1</ele>
        <time>2018-09-15T12:24:30Z</time>
      </trkpt>
      <trkpt lat="43.4488500" lon="-5.9674930">
        <ele>225.3</ele>
        <time>2018-09-15T12:24:31Z</time>
      </trkpt>
      <trkpt lat="43.4488780" lon="-5.9674720">
        <ele>225.5</ele>
        <time>2018-09-15T12:24:32Z</time>
      </trkpt>
      <trkpt lat="43.4489010" lon="-5.9674550">
        <ele>225.6</ele>
        <time>2018-09-15T12:24:33Z</time>
      </trkpt>
      <trkpt lat="43.4489290" lon="-5.9674370">
        <ele>225.8</ele>
        <time>2018-09-15T12:24:34Z</time>
      </trkpt>
      <trkpt lat="43.4489530" lon="-5.9674210">
        <ele>226.0</ele>
        <time>2018-09-15T12:24:35Z</time>
      </trkpt>
      <trkpt lat="43.4489770" lon="-5.9674040">
        <ele>226.1</ele>
        <time>2018-09-15T12:24:36Z</time>
      </trkpt>
      <trkpt lat="43.4490070" lon="-5.9673860">
        <ele>226.3</ele>
        <time>2018-09-15T12:24:37Z</time>
      </trkpt>
      <trkpt lat="43.4490310" lon="-5.9673720">
        <ele>226.4</ele>
        <time>2018-09-15T12:24:38Z</time>
      </trkpt>
      <trkpt lat="43.4490600" lon="-5.9673590">
        <ele>226.6</ele>
        <time>2018-09-15T12:24:39Z</time>
      </trkpt>
      <trkpt lat="43.4490840" lon="-5.9673470">
        <ele>226.8</ele>
        <time>2018-09-15T12:24:40Z</time>
      </trkpt>
      <trkpt lat="43.4491080" lon="-5.9673350">
        <ele>226.9</ele>
        <time>2018-09-15T12:24:41Z</time>
      </trkpt>
      <trkpt lat="43.4491330" lon="-5.9673220">
        <ele>227.1</ele>
        <time>2018-09-15T12:24:42Z</time>
      </trkpt>
      <trkpt lat="43.4491590" lon="-5.9673100">
        <ele>227.2</ele>
        <time>2018-09-15T12:24:43Z</time>
      </trkpt>
      <trkpt lat="43.4491900" lon="-5.9672990">
        <ele>227.4</ele>
        <time>2018-09-15T12:24:44Z</time>
      </trkpt>
      <trkpt lat="43.4492200" lon="-5.9672870">
        <ele>227.6</ele>
        <time>2018-09-15T12:24:45Z</time>
      </trkpt>
      <trkpt lat="43.4492440" lon="-5.9672770">
        <ele>227.7</ele>
        <time>2018-09-15T12:24:46Z</time>
      </trkpt>
      <trkpt lat="43.4492700" lon="-5.9672660">
        <ele>227.9</ele>
        <time>2018-09-15T12:24:47Z</time>
      </trkpt>
      <trkpt lat="43.4492970" lon="-5.9672570">
        <ele>228.0</ele>
        <time>2018-09-15T12:24:48Z</time>
      </trkpt>
      <trkpt lat="43.4493280" lon="-5.9672490">
        <ele>228.2</ele>
        <time>2018-09-15T12:24:49Z</time>
      </trkpt>
      <trkpt lat="43.4493550" lon="-5.9672400">
        <ele>228.4</ele>
        <time>2018-09-15T12:24:50Z</time>
      </trkpt>
      <trkpt lat="43.4493820" lon="-5.9672310">
        <ele>228.5</ele>
        <time>2018-09-15T12:24:51Z</time>
      </trkpt>
      <trkpt lat="43.4494100" lon="-5.9672220">
        <ele>228.7</ele>
        <time>2018-09-15T12:24:52Z</time>
      </trkpt>
      <trkpt lat="43.4494410" lon="-5.9672160">
        <ele>228.9</ele>
        <time>2018-09-15T12:24:53Z</time>
      </trkpt>
      <trkpt lat="43.4494700" lon="-5.9672090">
        <ele>229.0</ele>
        <time>2018-09-15T12:24:54Z</time>
      </trkpt>
      <trkpt lat="43.4494980" lon="-5.9672030">
        <ele>229.2</ele>
        <time>2018-09-15T12:24:55Z</time>
      </trkpt>
      <trkpt lat="43.4495210" lon="-5.9671970">
        <ele>229.3</ele>
        <time>2018-09-15T12:24:56Z</time>
      </trkpt>
      <trkpt lat="43.4495460" lon="-5.9671910">
        <ele>229.5</ele>
        <time>2018-09-15T12:24:57Z</time>
      </trkpt>
      <trkpt lat="43.4495760" lon="-5.9671850">
        <ele>229.7</ele>
        <time>2018-09-15T12:24:58Z</time>
      </trkpt>
      <trkpt lat="43.4496010" lon="-5.9671790">
        <ele>229.8</ele>
        <time>2018-09-15T12:24:59Z</time>
      </trkpt>
      <trkpt lat="43.4496320" lon="-5.9671720">
        <ele>230.0</ele>
        <time>2018-09-15T12:25:00Z</time>
      </trkpt>
      <trkpt lat="43.4496580" lon="-5.9671650">
        <ele>230.1</ele>
        <time>2018-09-15T12:25:01Z</time>
      </trkpt>
      <trkpt lat="43.4496870" lon="-5.9671580">
        <ele>230.3</ele>
        <time>2018-09-15T12:25:02Z</time>
      </trkpt>
      <trkpt lat="43.4497200" lon="-5.9671520">
        <ele>230.5</ele>
        <time>2018-09-15T12:25:03Z</time>
      </trkpt>
      <trkpt lat="43.4497470" lon="-5.9671460">
        <ele>230.6</ele>
        <time>2018-09-15T12:25:04Z</time>
      </trkpt>
      <trkpt lat="43.4497790" lon="-5.9671410">
        <ele>230.8</ele>
        <time>2018-09-15T12:25:05Z</time>
      </trkpt>
      <trkpt lat="43.4498090" lon="-5.9671350">
        <ele>231.0</ele>
        <time>2018-09-15T12:25:06Z</time>
      </trkpt>
      <trkpt lat="43.4498330" lon="-5.9671310">
        <ele>231.1</ele>
        <time>2018-09-15T12:25:07Z</time>
      </trkpt>
      <trkpt lat="43.4498630" lon="-5.9671250">
        <ele>231.3</ele>
        <time>2018-09-15T12:25:08Z</time>
      </trkpt>
      <trkpt lat="43.4498870" lon="-5.9671180">
        <ele>231.4</ele>
        <time>2018-09-15T12:25:09Z</time>
      </trkpt>
      <trkpt lat="43.4499170" lon="-5.9671090">
        <ele>231.6</ele>
        <time>2018-09-15T12:25:10Z</time>
      </trkpt>
      <trkpt lat="43.4499410" lon="-5.9670980">
        <ele>231.7</ele>
        <time>2018-09-15T12:25:11Z</time>
      </trkpt>
      <trkpt lat="43.4499730" lon="-5.9670890">
        <ele>231.9</ele>
        <time>2018-09-15T12:25:12Z</time>
      </trkpt>
      <trkpt lat="43.4500000" lon="-5.9670760">
        <ele>232.0</ele>
        <time>2018-09-15T12:25:13Z</time>
      </trkpt>
      <trkpt lat="43.4500280" lon="-5.9670640">
        <ele>232.2</ele>
        <time>2018-09-15T12:25:14Z</time>
      </trkpt>
      <trkpt lat="43.4500600" lon="-5.9670510">
        <ele>232.4</ele>
        <time>2018-09-15T12:25:15Z</time>
      </trkpt>
      <trkpt lat="43.4500830" lon="-5.9670380">
        <ele>232.5</ele>
        <time>2018-09-15T12:25:16Z</time>
      </trkpt>
      <trkpt lat="43.4501080" lon="-5.9670230">
        <ele>232.7</ele>
        <time>2018-09-15T12:25:17Z</time>
      </trkpt>
      <trkpt lat="43.4501290" lon="-5.9670090">
        <ele>232.8</ele>
        <time>2018-09-15T12:25:18Z</time>
      </trkpt>
      <trkpt lat="43.4501560" lon="-5.9669930">
        <ele>232.9</ele>
        <time>2018-09-15T12:25:19Z</time>
      </trkpt>
      <trkpt lat="43.4501860" lon="-5.9669760">
        <ele>233.1</ele>
        <time>2018-09-15T12:25:20Z</time>
      </trkpt>
      <trkpt lat="43.4502100" lon="-5.9669590">
        <ele>233.3</ele>
        <time>2018-09-15T12:25:21Z</time>
      </trkpt>
      <trkpt lat="43.4502390" lon="-5.9669400">
        <ele>233.4</ele>
        <time>2018-09-15T12:25:22Z</time>
      </trkpt>
      <trkpt lat="43.4502610" lon="-5.9669230">
        <ele>233.6</ele>
        <time>2018-09-15T12:25:23Z</time>
      </trkpt>
      <trkpt lat="43.4502890" lon="-5.9669060">
        <ele>233.7</ele>
        <time>2018-09-15T12:25:24Z</time>
      </trkpt>
      <trkpt lat="43.4503100" lon="-5.9668920">
        <ele>233.9</ele>
        <time>2018-09-15T12:25:25Z</time>
      </trkpt>
      <trkpt lat="43.4503370" lon="-5.9668750">
        <ele>234.0</ele>
        <time>2018-09-15T12:25:26Z</time>
      </trkpt>
      <trkpt lat="43.4503590" lon="-5.9668610">
        <ele>234.2</ele>
        <time>2018-09-15T12:25:27Z</time>
      </trkpt>
      <trkpt lat="43.4503820" lon="-5.9668460">
        <ele>234.3</ele>
        <time>2018-09-15T12:25:28Z</time>
      </trkpt>
      <trkpt lat="43.4504120" lon="-5.9668310">
        <ele>234.5</ele>
        <time>2018-09-15T12:25:29Z</time>
      </trkpt>
      <trkpt lat="43.4504360" lon="-5.9668180">
        <ele>234.6</ele>
        <time>2018-09-15T12:25:30Z</time>
      </trkpt>
      <trkpt lat="43.4504660" lon="-5.9668070">
        <ele>234.8</ele>
        <time>2018-09-15T12:25:31Z</time>
      </trkpt>
      <trkpt lat="43.4504920" lon="-5.9667950">
        <ele>235.0</ele>
        <time>2018-09-15T12:25:32Z</time>
      </trkpt>
      <trkpt lat="43.4505230" lon="-5.9667850">
        <ele>235.2</ele>
        <time>2018-09-15T12:25:33Z</time>
      </trkpt>
      <trkpt lat="43.4505530" lon="-5.9667770">
        <ele>235.3</ele>
        <time>2018-09-15T12:25:34Z</time>
      </trkpt>
      <trkpt lat="43.4505740" lon="-5.9667660">
        <ele>235.5</ele>
        <time>2018-09-15T12:25:35Z</time>
      </trkpt>
      <trkpt lat="43.4506070" lon="-5.9667570">
        <ele>235.7</ele>
        <time>2018-09-15T12:25:36Z</time>
      </trkpt>
      <trkpt lat="43.4506330" lon="-5.9667470">
        <ele>235.8</ele>
        <time>2018-09-15T12:25:37Z</time>
      </trkpt>
      <trkpt lat="43.4506590" lon="-5.9667390">
        <ele>236.0</ele>
        <time>2018-09-15T12:25:38Z</time>
      </trkpt>
      <trkpt lat="43.4506910" lon="-5.9667310">
        <ele>236.1</ele>
        <time>2018-09-15T12:25:39Z</time>
      </trkpt>
      <trkpt lat="43.4507200" lon="-5.9667230">
        <ele>236.3</ele>
        <time>2018-09-15T12:25:40Z</time>
      </trkpt>
      <trkpt lat="43.4507450" lon="-5.9667140">
        <ele>236.5</ele>
        <time>2018-09-15T12:25:41Z</time>
      </trkpt>
      <trkpt lat="43.4507720" lon="-5.9667030">
        <ele>236.6</ele>
        <time>2018-09-15T12:25:42Z</time>
      </trkpt>
      <trkpt lat="43.4508030" lon="-5.9666900">
        <ele>236.8</ele>
        <time>2018-09-15T12:25:43Z</time>
      </trkpt>
      <trkpt lat="43.4508270" lon="-5.9666780">
        <ele>236.9</ele>
        <time>2018-09-15T12:25:44Z</time>
      </trkpt>
      <trkpt lat="43.4508550" lon="-5.9666640">
        <ele>237.1</ele>
        <time>2018-09-15T12:25:45Z</time>
      </trkpt>
      <trkpt lat="43.4508740" lon="-5.9666510">
        <ele>237.2</ele>
        <time>2018-09-15T12:25:46Z</time>
      </trkpt>
      <trkpt lat="43.4508990" lon="-5.9666350">
        <ele>237.3</ele>
        <time>2018-09-15T12:25:47Z</time>
      </trkpt>
      <trkpt lat="43.4509240" lon="-5.9666200">
        <ele>237.5</ele>
        <time>2018-09-15T12:25:48Z</time>
      </trkpt>
      <trkpt lat="43.4509530" lon="-5.9666030">
        <ele>237.6</ele>
        <time>2018-09-15T12:25:49Z</time>
      </trkpt>
      <trkpt lat="43.4509760" lon="-5.9665880">
        <ele>237.8</ele>
        <time>2018-09-15T12:25:50Z</time>
      </trkpt>
      <trkpt lat="43.4510040" lon="-5.9665700">
        <ele>237.9</ele>
        <time>2018-09-15T12:25:51Z</time>
      </trkpt>
      <trkpt lat="43.4510270" lon="-5.9665530">
        <ele>238.1</ele>
        <time>2018-09-15T12:25:52Z</time>
      </trkpt>
      <trkpt lat="43.4510500" lon="-5.9665370">
        <ele>238.2</ele>
        <time>2018-09-15T12:25:53Z</time>
      </trkpt>
      <trkpt lat="43.4510740" lon="-5.9665220">
        <ele>238.4</ele>
        <time>2018-09-15T12:25:54Z</time>
      </trkpt>
      <trkpt lat="43.4510990" lon="-5.9665070">
        <ele>238.5</ele>
        <time>2018-09-15T12:25:55Z</time>
      </trkpt>
      <trkpt lat="43.4511250" lon="-5.9664910">
        <ele>238.7</ele>
        <time>2018-09-15T12:25:56Z</time>
      </trkpt>
      <trkpt lat="43.4511490" lon="-5.9664740">
        <ele>238.8</ele>
        <time>2018-09-15T12:25:57Z</time>
      </trkpt>
      <trkpt lat="43.4511790" lon="-5.9664570">
        <ele>239.0</ele>
        <time>2018-09-15T12:25:58Z</time>
      </trkpt>
      <trkpt lat="43.4512030" lon="-5.9664390">
        <ele>239.2</ele>
        <time>2018-09-15T12:25:59Z</time>
      </trkpt>
      <trkpt lat="43.4512310" lon="-5.9664170">
        <ele>239.3</ele>
        <time>2018-09-15T12:26:00Z</time>
      </trkpt>
      <trkpt lat="43.4512590" lon="-5.9663970">
        <ele>239.5</ele>
        <time>2018-09-15T12:26:01Z</time>
      </trkpt>
      <trkpt lat="43.4512810" lon="-5.9663770">
        <ele>239.7</ele>
        <time>2018-09-15T12:26:02Z</time>
      </trkpt>
      <trkpt lat="43.4513050" lon="-5.9663570">
        <ele>239.8</ele>
        <time>2018-09-15T12:26:03Z</time>
      </trkpt>
      <trkpt lat="43.4513320" lon="-5.9663350">
        <ele>240.0</ele>
        <time>2018-09-15T12:26:04Z</time>
      </trkpt>
      <trkpt lat="43.4513540" lon="-5.9663160">
        <ele>240.2</ele>
        <time>2018-09-15T12:26:05Z</time>
      </trkpt>
      <trkpt lat="43.4513800" lon="-5.9662950">
        <ele>240.3</ele>
        <time>2018-09-15T12:26:06Z</time>
      </trkpt>
      <trkpt lat="43.4513960" lon="-5.9662780">
        <ele>240.4</ele>
        <time>2018-09-15T12:26:07Z</time>
      </trkpt>
      <trkpt lat="43.4514230" lon="-5.9662560">
        <ele>240.6</ele>
        <time>2018-09-15T12:26:08Z</time>
      </trkpt>
      <trkpt lat="43.4514450" lon="-5.9662360">
        <ele>240.8</ele>
        <time>2018-09-15T12:26:09Z</time>
      </trkpt>
      <trkpt lat="43.4514710" lon="-5.9662120">
        <ele>240.9</ele>
        <time>2018-09-15T12:26:10Z</time>
      </trkpt>
      <trkpt lat="43.4514890" lon="-5.9661920">
        <ele>241.1</ele>
        <time>2018-09-15T12:26:11Z</time>
      </trkpt>
      <trkpt lat="43.4515110" lon="-5.9661710">
        <ele>241.2</ele>
        <time>2018-09-15T12:26:12Z</time>
      </trkpt>
      <trkpt lat="43.4515280" lon="-5.9661510">
        <ele>241.3</ele>
        <time>2018-09-15T12:26:13Z</time>
      </trkpt>
      <trkpt lat="43.4515460" lon="-5.9661290">
        <ele>241.5</ele>
        <time>2018-09-15T12:26:14Z</time>
      </trkpt>
      <trkpt lat="43.4515710" lon="-5.9661030">
        <ele>241.6</ele>
        <time>2018-09-15T12:26:15Z</time>
      </trkpt>
      <trkpt lat="43.4515940" lon="-5.9660790">
        <ele>241.8</ele>
        <time>2018-09-15T12:26:16Z</time>
      </trkpt>
      <trkpt lat="43.4516130" lon="-5.9660570">
        <ele>241.9</ele>
        <time>2018-09-15T12:26:17Z</time>
      </trkpt>
      <trkpt lat="43.4516360" lon="-5.9660320">
        <ele>242.1</ele>
        <time>2018-09-15T12:26:18Z</time>
      </trkpt>
      <trkpt lat="43.4516550" lon="-5.9660130">
        <ele>242.2</ele>
        <time>2018-09-15T12:26:19Z</time>
      </trkpt>
      <trkpt lat="43.4516800" lon="-5.9659920">
        <ele>242.3</ele>
        <time>2018-09-15T12:26:20Z</time>
      </trkpt>
      <trkpt lat="43.4516990" lon="-5.9659730">
        <ele>242.5</ele>
        <time>2018-09-15T12:26:21Z</time>
      </trkpt>
      <trkpt lat="43.4517270" lon="-5.9659490">
        <ele>242.6</ele>
        <time>2018-09-15T12:26:22Z</time>
      </trkpt>
      <trkpt lat="43.4517500" lon="-5.9659300">
        <ele>242.8</ele>
        <time>2018-09-15T12:26:23Z</time>
      </trkpt>
      <trkpt lat="43.4517780" lon="-5.9659090">
        <ele>242.9</ele>
        <time>2018-09-15T12:26:24Z</time>
      </trkpt>
      <trkpt lat="43.4518040" lon="-5.9658900">
        <ele>243.0</ele>
        <time>2018-09-15T12:26:25Z</time>
      </trkpt>
      <trkpt lat="43.4518290" lon="-5.9658710">
        <ele>243.2</ele>
        <time>2018-09-15T12:26:26Z</time>
      </trkpt>
      <trkpt lat="43.4518490" lon="-5.9658550">
        <ele>243.3</ele>
        <time>2018-09-15T12:26:27Z</time>
      </trkpt>
      <trkpt lat="43.4518760" lon="-5.9658370">
        <ele>243.4</ele>
        <time>2018-09-15T12:26:28Z</time>
      </trkpt>
      <trkpt lat="43.4518990" lon="-5.9658220">
        <ele>243.5</ele>
        <time>2018-09-15T12:26:29Z</time>
      </trkpt>
      <trkpt lat="43.4519270" lon="-5.9658060">
        <ele>243.7</ele>
        <time>2018-09-15T12:26:30Z</time>
      </trkpt>
      <trkpt lat="43.4519500" lon="-5.9657900">
        <ele>243.8</ele>
        <time>2018-09-15T12:26:31Z</time>
      </trkpt>
      <trkpt lat="43.4519750" lon="-5.9657740">
        <ele>243.9</ele>
        <time>2018-09-15T12:26:32Z</time>
      </trkpt>
      <trkpt lat="43.4520050" lon="-5.9657530">
        <ele>244.1</ele>
        <time>2018-09-15T12:26:33Z</time>
      </trkpt>
      <trkpt lat="43.4520340" lon="-5.9657340">
        <ele>244.2</ele>
        <time>2018-09-15T12:26:34Z</time>
      </trkpt>
      <trkpt lat="43.4520620" lon="-5.9657140">
        <ele>244.4</ele>
        <time>2018-09-15T12:26:35Z</time>
      </trkpt>
      <trkpt lat="43.4520840" lon="-5.9656930">
        <ele>244.5</ele>
        <time>2018-09-15T12:26:36Z</time>
      </trkpt>
      <trkpt lat="43.4521080" lon="-5.9656710">
        <ele>244.6</ele>
        <time>2018-09-15T12:26:37Z</time>
      </trkpt>
      <trkpt lat="43.4521350" lon="-5.9656450">
        <ele>244.7</ele>
        <time>2018-09-15T12:26:38Z</time>
      </trkpt>
      <trkpt lat="43.4521560" lon="-5.9656230">
        <ele>244.9</ele>
        <time>2018-09-15T12:26:39Z</time>
      </trkpt>
      <trkpt lat="43.4521830" lon="-5.9655980">
        <ele>245.0</ele>
        <time>2018-09-15T12:26:40Z</time>
      </trkpt>
      <trkpt lat="43.4522030" lon="-5.9655750">
        <ele>245.1</ele>
        <time>2018-09-15T12:26:41Z</time>
      </trkpt>
      <trkpt lat="43.4522250" lon="-5.9655490">
        <ele>245.2</ele>
        <time>2018-09-15T12:26:42Z</time>
      </trkpt>
      <trkpt lat="43.4522510" lon="-5.9655220">
        <ele>245.4</ele>
        <time>2018-09-15T12:26:43Z</time>
      </trkpt>
      <trkpt lat="43.4522730" lon="-5.9655000">
        <ele>245.5</ele>
        <time>2018-09-15T12:26:44Z</time>
      </trkpt>
      <trkpt lat="43.4523000" lon="-5.9654740">
        <ele>245.6</ele>
        <time>2018-09-15T12:26:45Z</time>
      </trkpt>
      <trkpt lat="43.4523240" lon="-5.9654500">
        <ele>245.7</ele>
        <time>2018-09-15T12:26:46Z</time>
      </trkpt>
      <trkpt lat="43.4523540" lon="-5.9654210">
        <ele>245.9</ele>
        <time>2018-09-15T12:26:47Z</time>
      </trkpt>
      <trkpt lat="43.4523830" lon="-5.9653950">
        <ele>246.1</ele>
        <time>2018-09-15T12:26:48Z</time>
      </trkpt>
      <trkpt lat="43.4524070" lon="-5.9653690">
        <ele>246.2</ele>
        <time>2018-09-15T12:26:49Z</time>
      </trkpt>
      <trkpt lat="43.4524370" lon="-5.9653390">
        <ele>246.4</ele>
        <time>2018-09-15T12:26:50Z</time>
      </trkpt>
      <trkpt lat="43.4524640" lon="-5.9653110">
        <ele>246.5</ele>
        <time>2018-09-15T12:26:51Z</time>
      </trkpt>
      <trkpt lat="43.4524960" lon="-5.9652820">
        <ele>246.7</ele>
        <time>2018-09-15T12:26:52Z</time>
      </trkpt>
      <trkpt lat="43.4525240" lon="-5.9652560">
        <ele>246.9</ele>
        <time>2018-09-15T12:26:53Z</time>
      </trkpt>
      <trkpt lat="43.4525550" lon="-5.9652290">
        <ele>247.1</ele>
        <time>2018-09-15T12:26:54Z</time>
      </trkpt>
      <trkpt lat="43.4525820" lon="-5.9652020">
        <ele>247.3</ele>
        <time>2018-09-15T12:26:55Z</time>
      </trkpt>
      <trkpt lat="43.4526120" lon="-5.9651730">
        <ele>247.5</ele>
        <time>2018-09-15T12:26:56Z</time>
      </trkpt>
      <trkpt lat="43.4526370" lon="-5.9651480">
        <ele>247.7</ele>
        <time>2018-09-15T12:26:57Z</time>
      </trkpt>
      <trkpt lat="43.4526680" lon="-5.9651220">
        <ele>247.9</ele>
        <time>2018-09-15T12:26:58Z</time>
      </trkpt>
      <trkpt lat="43.4526940" lon="-5.9651010">
        <ele>248.1</ele>
        <time>2018-09-15T12:26:59Z</time>
      </trkpt>
      <trkpt lat="43.4527270" lon="-5.9650820">
        <ele>248.3</ele>
        <time>2018-09-15T12:27:00Z</time>
      </trkpt>
      <trkpt lat="43.4527560" lon="-5.9650630">
        <ele>248.5</ele>
        <time>2018-09-15T12:27:01Z</time>
      </trkpt>
      <trkpt lat="43.4527910" lon="-5.9650480">
        <ele>248.8</ele>
        <time>2018-09-15T12:27:02Z</time>
      </trkpt>
      <trkpt lat="43.4528250" lon="-5.9650360">
        <ele>249.0</ele>
        <time>2018-09-15T12:27:03Z</time>
      </trkpt>
      <trkpt lat="43.4528580" lon="-5.9650270">
        <ele>249.2</ele>
        <time>2018-09-15T12:27:04Z</time>
      </trkpt>
      <trkpt lat="43.4528860" lon="-5.9650190">
        <ele>249.4</ele>
        <time>2018-09-15T12:27:05Z</time>
      </trkpt>
      <trkpt lat="43.4529170" lon="-5.9650140">
        <ele>249.6</ele>
        <time>2018-09-15T12:27:06Z</time>
      </trkpt>
      <trkpt lat="43.4529540" lon="-5.9650120">
        <ele>249.9</ele>
        <time>2018-09-15T12:27:07Z</time>
      </trkpt>
      <trkpt lat="43.4529860" lon="-5.9650110">
        <ele>250.1</ele>
        <time>2018-09-15T12:27:08Z</time>
      </trkpt>
      <trkpt lat="43.4530230" lon="-5.9650150">
        <ele>250.3</ele>
        <time>2018-09-15T12:27:09Z</time>
      </trkpt>
      <trkpt lat="43.4530580" lon="-5.9650180">
        <ele>250.5</ele>
        <time>2018-09-15T12:27:10Z</time>
      </trkpt>
      <trkpt lat="43.4530860" lon="-5.9650180">
        <ele>250.7</ele>
        <time>2018-09-15T12:27:11Z</time>
      </trkpt>
      <trkpt lat="43.4531240" lon="-5.9650250">
        <ele>250.9</ele>
        <time>2018-09-15T12:27:12Z</time>
      </trkpt>
      <trkpt lat="43.4531630" lon="-5.9650340">
        <ele>251.1</ele>
        <time>2018-09-15T12:27:13Z</time>
      </trkpt>
      <trkpt lat="43.4531900" lon="-5.9650390">
        <ele>251.3</ele>
        <time>2018-09-15T12:27:14Z</time>
      </trkpt>
      <trkpt lat="43.4532190" lon="-5.9650450">
        <ele>251.4</ele>
        <time>2018-09-15T12:27:15Z</time>
      </trkpt>
      <trkpt lat="43.4532530" lon="-5.9650530">
        <ele>251.6</ele>
        <time>2018-09-15T12:27:16Z</time>
      </trkpt>
      <trkpt lat="43.4532850" lon="-5.9650610">
        <ele>251.8</ele>
        <time>2018-09-15T12:27:17Z</time>
      </trkpt>
      <trkpt lat="43.4533160" lon="-5.9650700">
        <ele>252.0</ele>
        <time>2018-09-15T12:27:18Z</time>
      </trkpt>
      <trkpt lat="43.4533460" lon="-5.9650770">
        <ele>252.1</ele>
        <time>2018-09-15T12:27:19Z</time>
      </trkpt>
      <trkpt lat="43.4533720" lon="-5.9650820">
        <ele>252.3</ele>
        <time>2018-09-15T12:27:20Z</time>
      </trkpt>
      <trkpt lat="43.4534030" lon="-5.9650880">
        <ele>252.4</ele>
        <time>2018-09-15T12:27:21Z</time>
      </trkpt>
      <trkpt lat="43.4534370" lon="-5.9650970">
        <ele>252.6</ele>
        <time>2018-09-15T12:27:22Z</time>
      </trkpt>
      <trkpt lat="43.4534700" lon="-5.9651040">
        <ele>252.8</ele>
        <time>2018-09-15T12:27:23Z</time>
      </trkpt>
      <trkpt lat="43.4534980" lon="-5.9651100">
        <ele>252.9</ele>
        <time>2018-09-15T12:27:24Z</time>
      </trkpt>
      <trkpt lat="43.4535310" lon="-5.9651190">
        <ele>253.1</ele>
        <time>2018-09-15T12:27:25Z</time>
      </trkpt>
      <trkpt lat="43.4535640" lon="-5.9651270">
        <ele>253.2</ele>
        <time>2018-09-15T12:27:26Z</time>
      </trkpt>
      <trkpt lat="43.4535930" lon="-5.9651320">
        <ele>253.3</ele>
        <time>2018-09-15T12:27:27Z</time>
      </trkpt>
      <trkpt lat="43.4536270" lon="-5.9651400">
        <ele>253.4</ele>
        <time>2018-09-15T12:27:28Z</time>
      </trkpt>
      <trkpt lat="43.4536600" lon="-5.9651480">
        <ele>253.5</ele>
        <time>2018-09-15T12:27:29Z</time>
      </trkpt>
      <trkpt lat="43.4536900" lon="-5.9651520">
        <ele>253.5</ele>
        <time>2018-09-15T12:27:30Z</time>
      </trkpt>
      <trkpt lat="43.4537220" lon="-5.9651570">
        <ele>253.6</ele>
        <time>2018-09-15T12:27:31Z</time>
      </trkpt>
      <trkpt lat="43.4537580" lon="-5.9651640">
        <ele>253.7</ele>
        <time>2018-09-15T12:27:32Z</time>
      </trkpt>
      <trkpt lat="43.4537880" lon="-5.9651680">
        <ele>253.7</ele>
        <time>2018-09-15T12:27:33Z</time>
      </trkpt>
      <trkpt lat="43.4538220" lon="-5.9651730">
        <ele>253.7</ele>
        <time>2018-09-15T12:27:34Z</time>
      </trkpt>
      <trkpt lat="43.4538550" lon="-5.9651760">
        <ele>253.8</ele>
        <time>2018-09-15T12:27:35Z</time>
      </trkpt>
      <trkpt lat="43.4538880" lon="-5.9651760">
        <ele>253.8</ele>
        <time>2018-09-15T12:27:36Z</time>
      </trkpt>
      <trkpt lat="43.4539200" lon="-5.9651730">
        <ele>253.9</ele>
        <time>2018-09-15T12:27:37Z</time>
      </trkpt>
      <trkpt lat="43.4539460" lon="-5.9651700">
        <ele>253.9</ele>
        <time>2018-09-15T12:27:38Z</time>
      </trkpt>
      <trkpt lat="43.4539780" lon="-5.9651640">
        <ele>254.0</ele>
        <time>2018-09-15T12:27:39Z</time>
      </trkpt>
      <trkpt lat="43.4540050" lon="-5.9651530">
        <ele>254.0</ele>
        <time>2018-09-15T12:27:40Z</time>
      </trkpt>
      <trkpt lat="43.4540360" lon="-5.9651390">
        <ele>254.1</ele>
        <time>2018-09-15T12:27:41Z</time>
      </trkpt>
      <trkpt lat="43.4540690" lon="-5.9651220">
        <ele>254.1</ele>
        <time>2018-09-15T12:27:42Z</time>
      </trkpt>
      <trkpt lat="43.4540960" lon="-5.9651040">
        <ele>254.2</ele>
        <time>2018-09-15T12:27:43Z</time>
      </trkpt>
      <trkpt lat="43.4541230" lon="-5.9650820">
        <ele>254.3</ele>
        <time>2018-09-15T12:27:44Z</time>
      </trkpt>
      <trkpt lat="43.4541530" lon="-5.9650590">
        <ele>254.3</ele>
        <time>2018-09-15T12:27:45Z</time>
      </trkpt>
      <trkpt lat="43.4541760" lon="-5.9650370">
        <ele>254.4</ele>
        <time>2018-09-15T12:27:46Z</time>
      </trkpt>
      <trkpt lat="43.4542030" lon="-5.9650110">
        <ele>254.5</ele>
        <time>2018-09-15T12:27:47Z</time>
      </trkpt>
      <trkpt lat="43.4542230" lon="-5.9649850">
        <ele>254.6</ele>
        <time>2018-09-15T12:27:48Z</time>
      </trkpt>
      <trkpt lat="43.4542490" lon="-5.9649550">
        <ele>254.8</ele>
        <time>2018-09-15T12:27:49Z</time>
      </trkpt>
      <trkpt lat="43.4542690" lon="-5.9649280">
        <ele>255.0</ele>
        <time>2018-09-15T12:27:50Z</time>
      </trkpt>
      <trkpt lat="43.4542900" lon="-5.9649000">
        <ele>255.2</ele>
        <time>2018-09-15T12:27:51Z</time>
      </trkpt>
      <trkpt lat="43.4543120" lon="-5.9648710">
        <ele>255.4</ele>
        <time>2018-09-15T12:27:52Z</time>
      </trkpt>
      <trkpt lat="43.4543350" lon="-5.9648350">
        <ele>255.6</ele>
        <time>2018-09-15T12:27:53Z</time>
      </trkpt>
      <trkpt lat="43.4543560" lon="-5.9648030">
        <ele>255.7</ele>
        <time>2018-09-15T12:27:54Z</time>
      </trkpt>
      <trkpt lat="43.4543710" lon="-5.9647850">
        <ele>255.7</ele>
        <time>2018-09-15T12:27:55Z</time>
      </trkpt>
      <trkpt lat="43.4544010" lon="-5.9647430">
        <ele>255.8</ele>
        <time>2018-09-15T12:34:38Z</time>
      </trkpt>
      <trkpt lat="43.4543990" lon="-5.9647430">
        <ele>255.8</ele>
        <time>2018-09-15T12:34:39Z</time>
      </trkpt>
      <trkpt lat="43.4543970" lon="-5.9647430">
        <ele>255.8</ele>
        <time>2018-09-15T12:34:40Z</time>
      </trkpt>
      <trkpt lat="43.4543960" lon="-5.9647430">
        <ele>255.8</ele>
        <time>2018-09-15T12:34:41Z</time>
      </trkpt>
      <trkpt lat="43.4544060" lon="-5.9647470">
        <ele>255.9</ele>
        <time>2018-09-15T12:34:42Z</time>
      </trkpt>
      <trkpt lat="43.4544100" lon="-5.9647430">
        <ele>255.9</ele>
        <time>2018-09-15T12:34:43Z</time>
      </trkpt>
      <trkpt lat="43.4544150" lon="-5.9647410">
        <ele>255.9</ele>
        <time>2018-09-15T12:34:44Z</time>
      </trkpt>
      <trkpt lat="43.4544220" lon="-5.9647370">
        <ele>255.9</ele>
        <time>2018-09-15T12:34:45Z</time>
      </trkpt>
      <trkpt lat="43.4544370" lon="-5.9647340">
        <ele>255.9</ele>
        <time>2018-09-15T12:34:46Z</time>
      </trkpt>
      <trkpt lat="43.4544470" lon="-5.9647260">
        <ele>255.9</ele>
        <time>2018-09-15T12:34:47Z</time>
      </trkpt>
      <trkpt lat="43.4544660" lon="-5.9647140">
        <ele>256.0</ele>
        <time>2018-09-15T12:34:48Z</time>
      </trkpt>
      <trkpt lat="43.4544810" lon="-5.9647010">
        <ele>256.0</ele>
        <time>2018-09-15T12:34:49Z</time>
      </trkpt>
      <trkpt lat="43.4545000" lon="-5.9646880">
        <ele>256.0</ele>
        <time>2018-09-15T12:34:50Z</time>
      </trkpt>
      <trkpt lat="43.4545230" lon="-5.9646710">
        <ele>256.1</ele>
        <time>2018-09-15T12:34:51Z</time>
      </trkpt>
      <trkpt lat="43.4545490" lon="-5.9646540">
        <ele>256.1</ele>
        <time>2018-09-15T12:34:52Z</time>
      </trkpt>
      <trkpt lat="43.4545710" lon="-5.9646400">
        <ele>256.1</ele>
        <time>2018-09-15T12:34:53Z</time>
      </trkpt>
      <trkpt lat="43.4546000" lon="-5.9646220">
        <ele>256.1</ele>
        <time>2018-09-15T12:34:54Z</time>
      </trkpt>
      <trkpt lat="43.4546640" lon="-5.9645720">
        <ele>256.1</ele>
        <time>2018-09-15T12:34:55Z</time>
      </trkpt>
      <trkpt lat="43.4546960" lon="-5.9645490">
        <ele>256.1</ele>
        <time>2018-09-15T12:34:56Z</time>
      </trkpt>
      <trkpt lat="43.4547290" lon="-5.9645260">
        <ele>256.1</ele>
        <time>2018-09-15T12:34:57Z</time>
      </trkpt>
      <trkpt lat="43.4547640" lon="-5.9645020">
        <ele>256.1</ele>
        <time>2018-09-15T12:34:58Z</time>
      </trkpt>
      <trkpt lat="43.4548020" lon="-5.9644780">
        <ele>256.1</ele>
        <time>2018-09-15T12:34:59Z</time>
      </trkpt>
      <trkpt lat="43.4548410" lon="-5.9644510">
        <ele>256.1</ele>
        <time>2018-09-15T12:35:00Z</time>
      </trkpt>
      <trkpt lat="43.4548930" lon="-5.9644290">
        <ele>256.0</ele>
        <time>2018-09-15T12:35:01Z</time>
      </trkpt>
      <trkpt lat="43.4549320" lon="-5.9643900">
        <ele>256.0</ele>
        <time>2018-09-15T12:35:02Z</time>
      </trkpt>
      <trkpt lat="43.4549720" lon="-5.9643530">
        <ele>256.0</ele>
        <time>2018-09-15T12:35:03Z</time>
      </trkpt>
      <trkpt lat="43.4550220" lon="-5.9643170">
        <ele>255.9</ele>
        <time>2018-09-15T12:35:04Z</time>
      </trkpt>
      <trkpt lat="43.4550710" lon="-5.9642770">
        <ele>255.9</ele>
        <time>2018-09-15T12:35:05Z</time>
      </trkpt>
      <trkpt lat="43.4551210" lon="-5.9642370">
        <ele>255.8</ele>
        <time>2018-09-15T12:35:06Z</time>
      </trkpt>
      <trkpt lat="43.4551760" lon="-5.9642050">
        <ele>255.7</ele>
        <time>2018-09-15T12:35:07Z</time>
      </trkpt>
      <trkpt lat="43.4552250" lon="-5.9641700">
        <ele>255.6</ele>
        <time>2018-09-15T12:35:08Z</time>
      </trkpt>
      <trkpt lat="43.4552740" lon="-5.9641400">
        <ele>255.4</ele>
        <time>2018-09-15T12:35:09Z</time>
      </trkpt>
      <trkpt lat="43.4553250" lon="-5.9641040">
        <ele>255.1</ele>
        <time>2018-09-15T12:35:10Z</time>
      </trkpt>
      <trkpt lat="43.4553760" lon="-5.9640750">
        <ele>254.9</ele>
        <time>2018-09-15T12:35:11Z</time>
      </trkpt>
      <trkpt lat="43.4554240" lon="-5.9640330">
        <ele>254.7</ele>
        <time>2018-09-15T12:35:12Z</time>
      </trkpt>
      <trkpt lat="43.4554770" lon="-5.9639870">
        <ele>254.5</ele>
        <time>2018-09-15T12:35:13Z</time>
      </trkpt>
      <trkpt lat="43.4555330" lon="-5.9639500">
        <ele>254.4</ele>
        <time>2018-09-15T12:35:14Z</time>
      </trkpt>
      <trkpt lat="43.4555870" lon="-5.9639140">
        <ele>254.4</ele>
        <time>2018-09-15T12:35:15Z</time>
      </trkpt>
      <trkpt lat="43.4556440" lon="-5.9638900">
        <ele>254.3</ele>
        <time>2018-09-15T12:35:16Z</time>
      </trkpt>
      <trkpt lat="43.4557050" lon="-5.9638670">
        <ele>254.1</ele>
        <time>2018-09-15T12:35:17Z</time>
      </trkpt>
      <trkpt lat="43.4557680" lon="-5.9638450">
        <ele>254.0</ele>
        <time>2018-09-15T12:35:18Z</time>
      </trkpt>
      <trkpt lat="43.4558310" lon="-5.9638230">
        <ele>253.8</ele>
        <time>2018-09-15T12:35:19Z</time>
      </trkpt>
      <trkpt lat="43.4558940" lon="-5.9637970">
        <ele>253.6</ele>
        <time>2018-09-15T12:35:20Z</time>
      </trkpt>
      <trkpt lat="43.4559590" lon="-5.9637730">
        <ele>253.3</ele>
        <time>2018-09-15T12:35:21Z</time>
      </trkpt>
      <trkpt lat="43.4560300" lon="-5.9637460">
        <ele>253.0</ele>
        <time>2018-09-15T12:35:22Z</time>
      </trkpt>
      <trkpt lat="43.4560970" lon="-5.9637190">
        <ele>252.8</ele>
        <time>2018-09-15T12:35:23Z</time>
      </trkpt>
      <trkpt lat="43.4561610" lon="-5.9636860">
        <ele>252.6</ele>
        <time>2018-09-15T12:35:24Z</time>
      </trkpt>
      <trkpt lat="43.4562230" lon="-5.9636590">
        <ele>252.6</ele>
        <time>2018-09-15T12:35:25Z</time>
      </trkpt>
      <trkpt lat="43.4562880" lon="-5.9636220">
        <ele>252.5</ele>
        <time>2018-09-15T12:35:26Z</time>
      </trkpt>
      <trkpt lat="43.4563450" lon="-5.9635720">
        <ele>252.4</ele>
        <time>2018-09-15T12:35:27Z</time>
      </trkpt>
      <trkpt lat="43.4563990" lon="-5.9635220">
        <ele>252.3</ele>
        <time>2018-09-15T12:35:28Z</time>
      </trkpt>
      <trkpt lat="43.4564560" lon="-5.9634600">
        <ele>252.1</ele>
        <time>2018-09-15T12:35:29Z</time>
      </trkpt>
      <trkpt lat="43.4565090" lon="-5.9634100">
        <ele>252.0</ele>
        <time>2018-09-15T12:35:30Z</time>
      </trkpt>
      <trkpt lat="43.4565520" lon="-5.9633510">
        <ele>251.8</ele>
        <time>2018-09-15T12:35:31Z</time>
      </trkpt>
      <trkpt lat="43.4565990" lon="-5.9632840">
        <ele>251.6</ele>
        <time>2018-09-15T12:35:32Z</time>
      </trkpt>
      <trkpt lat="43.4566490" lon="-5.9632200">
        <ele>251.3</ele>
        <time>2018-09-15T12:35:33Z</time>
      </trkpt>
      <trkpt lat="43.4567040" lon="-5.9631560">
        <ele>251.0</ele>
        <time>2018-09-15T12:35:34Z</time>
      </trkpt>
      <trkpt lat="43.4567520" lon="-5.9630840">
        <ele>250.7</ele>
        <time>2018-09-15T12:35:35Z</time>
      </trkpt>
      <trkpt lat="43.4567990" lon="-5.9630240">
        <ele>250.5</ele>
        <time>2018-09-15T12:35:36Z</time>
      </trkpt>
      <trkpt lat="43.4568450" lon="-5.9629620">
        <ele>250.5</ele>
        <time>2018-09-15T12:35:37Z</time>
      </trkpt>
      <trkpt lat="43.4568930" lon="-5.9628930">
        <ele>250.4</ele>
        <time>2018-09-15T12:35:38Z</time>
      </trkpt>
      <trkpt lat="43.4569420" lon="-5.9628220">
        <ele>250.3</ele>
        <time>2018-09-15T12:35:39Z</time>
      </trkpt>
      <trkpt lat="43.4569910" lon="-5.9627520">
        <ele>250.2</ele>
        <time>2018-09-15T12:35:40Z</time>
      </trkpt>
      <trkpt lat="43.4570460" lon="-5.9626980">
        <ele>250.2</ele>
        <time>2018-09-15T12:35:41Z</time>
      </trkpt>
      <trkpt lat="43.4570920" lon="-5.9626200">
        <ele>250.2</ele>
        <time>2018-09-15T12:35:42Z</time>
      </trkpt>
      <trkpt lat="43.4571390" lon="-5.9625500">
        <ele>250.1</ele>
        <time>2018-09-15T12:35:43Z</time>
      </trkpt>
      <trkpt lat="43.4571920" lon="-5.9624890">
        <ele>250.1</ele>
        <time>2018-09-15T12:35:44Z</time>
      </trkpt>
      <trkpt lat="43.4572270" lon="-5.9624090">
        <ele>250.1</ele>
        <time>2018-09-15T12:35:45Z</time>
      </trkpt>
      <trkpt lat="43.4572650" lon="-5.9623280">
        <ele>250.0</ele>
        <time>2018-09-15T12:35:46Z</time>
      </trkpt>
      <trkpt lat="43.4572780" lon="-5.9622210">
        <ele>249.9</ele>
        <time>2018-09-15T12:35:47Z</time>
      </trkpt>
      <trkpt lat="43.4572800" lon="-5.9621150">
        <ele>249.8</ele>
        <time>2018-09-15T12:35:48Z</time>
      </trkpt>
      <trkpt lat="43.4572680" lon="-5.9620180">
        <ele>249.7</ele>
        <time>2018-09-15T12:35:49Z</time>
      </trkpt>
      <trkpt lat="43.4572490" lon="-5.9619290">
        <ele>249.5</ele>
        <time>2018-09-15T12:35:50Z</time>
      </trkpt>
      <trkpt lat="43.4572190" lon="-5.9618420">
        <ele>249.3</ele>
        <time>2018-09-15T12:35:51Z</time>
      </trkpt>
      <trkpt lat="43.4571890" lon="-5.9617520">
        <ele>248.9</ele>
        <time>2018-09-15T12:35:52Z</time>
      </trkpt>
      <trkpt lat="43.4571600" lon="-5.9616630">
        <ele>248.5</ele>
        <time>2018-09-15T12:35:53Z</time>
      </trkpt>
      <trkpt lat="43.4571220" lon="-5.9615850">
        <ele>248.3</ele>
        <time>2018-09-15T12:35:54Z</time>
      </trkpt>
      <trkpt lat="43.4570720" lon="-5.9615150">
        <ele>248.1</ele>
        <time>2018-09-15T12:35:55Z</time>
      </trkpt>
      <trkpt lat="43.4570130" lon="-5.9614620">
        <ele>248.0</ele>
        <time>2018-09-15T12:35:56Z</time>
      </trkpt>
      <trkpt lat="43.4569490" lon="-5.9614290">
        <ele>248.0</ele>
        <time>2018-09-15T12:35:57Z</time>
      </trkpt>
      <trkpt lat="43.4568810" lon="-5.9614060">
        <ele>247.9</ele>
        <time>2018-09-15T12:35:58Z</time>
      </trkpt>
      <trkpt lat="43.4568140" lon="-5.9613990">
        <ele>247.9</ele>
        <time>2018-09-15T12:35:59Z</time>
      </trkpt>
      <trkpt lat="43.4567480" lon="-5.9613950">
        <ele>247.9</ele>
        <time>2018-09-15T12:36:00Z</time>
      </trkpt>
      <trkpt lat="43.4566820" lon="-5.9614050">
        <ele>247.9</ele>
        <time>2018-09-15T12:36:01Z</time>
      </trkpt>
      <trkpt lat="43.4566130" lon="-5.9614090">
        <ele>247.8</ele>
        <time>2018-09-15T12:36:02Z</time>
      </trkpt>
      <trkpt lat="43.4565410" lon="-5.9614090">
        <ele>247.8</ele>
        <time>2018-09-15T12:36:03Z</time>
      </trkpt>
      <trkpt lat="43.4564690" lon="-5.9614110">
        <ele>247.8</ele>
        <time>2018-09-15T12:36:04Z</time>
      </trkpt>
      <trkpt lat="43.4563930" lon="-5.9614030">
        <ele>247.8</ele>
        <time>2018-09-15T12:36:05Z</time>
      </trkpt>
      <trkpt lat="43.4563200" lon="-5.9613880">
        <ele>247.8</ele>
        <time>2018-09-15T12:36:06Z</time>
      </trkpt>
      <trkpt lat="43.4562420" lon="-5.9613690">
        <ele>247.6</ele>
        <time>2018-09-15T12:36:07Z</time>
      </trkpt>
      <trkpt lat="43.4561710" lon="-5.9613280">
        <ele>247.3</ele>
        <time>2018-09-15T12:36:08Z</time>
      </trkpt>
      <trkpt lat="43.4561010" lon="-5.9612720">
        <ele>247.0</ele>
        <time>2018-09-15T12:36:09Z</time>
      </trkpt>
      <trkpt lat="43.4560400" lon="-5.9611960">
        <ele>246.7</ele>
        <time>2018-09-15T12:36:10Z</time>
      </trkpt>
      <trkpt lat="43.4559880" lon="-5.9611070">
        <ele>246.5</ele>
        <time>2018-09-15T12:36:11Z</time>
      </trkpt>
      <trkpt lat="43.4559380" lon="-5.9610140">
        <ele>246.4</ele>
        <time>2018-09-15T12:36:12Z</time>
      </trkpt>
      <trkpt lat="43.4559080" lon="-5.9609010">
        <ele>246.4</ele>
        <time>2018-09-15T12:36:13Z</time>
      </trkpt>
      <trkpt lat="43.4558880" lon="-5.9607860">
        <ele>246.4</ele>
        <time>2018-09-15T12:36:14Z</time>
      </trkpt>
      <trkpt lat="43.4558790" lon="-5.9606660">
        <ele>246.4</ele>
        <time>2018-09-15T12:36:15Z</time>
      </trkpt>
      <trkpt lat="43.4558810" lon="-5.9605420">
        <ele>246.3</ele>
        <time>2018-09-15T12:36:16Z</time>
      </trkpt>
      <trkpt lat="43.4558940" lon="-5.9604180">
        <ele>246.1</ele>
        <time>2018-09-15T12:36:17Z</time>
      </trkpt>
      <trkpt lat="43.4559020" lon="-5.9602950">
        <ele>245.7</ele>
        <time>2018-09-15T12:36:18Z</time>
      </trkpt>
      <trkpt lat="43.4559190" lon="-5.9601710">
        <ele>245.1</ele>
        <time>2018-09-15T12:36:19Z</time>
      </trkpt>
      <trkpt lat="43.4559300" lon="-5.9600470">
        <ele>244.4</ele>
        <time>2018-09-15T12:36:20Z</time>
      </trkpt>
      <trkpt lat="43.4559380" lon="-5.9599230">
        <ele>243.7</ele>
        <time>2018-09-15T12:36:21Z</time>
      </trkpt>
      <trkpt lat="43.4559460" lon="-5.9597990">
        <ele>243.1</ele>
        <time>2018-09-15T12:36:22Z</time>
      </trkpt>
      <trkpt lat="43.4559560" lon="-5.9596690">
        <ele>242.6</ele>
        <time>2018-09-15T12:36:23Z</time>
      </trkpt>
      <trkpt lat="43.4559600" lon="-5.9595510">
        <ele>242.3</ele>
        <time>2018-09-15T12:36:24Z</time>
      </trkpt>
      <trkpt lat="43.4559660" lon="-5.9594220">
        <ele>241.8</ele>
        <time>2018-09-15T12:36:25Z</time>
      </trkpt>
      <trkpt lat="43.4559800" lon="-5.9593090">
        <ele>241.5</ele>
        <time>2018-09-15T12:36:26Z</time>
      </trkpt>
      <trkpt lat="43.4559780" lon="-5.9591880">
        <ele>241.2</ele>
        <time>2018-09-15T12:36:27Z</time>
      </trkpt>
      <trkpt lat="43.4559760" lon="-5.9590630">
        <ele>240.9</ele>
        <time>2018-09-15T12:36:28Z</time>
      </trkpt>
      <trkpt lat="43.4559730" lon="-5.9589340">
        <ele>240.7</ele>
        <time>2018-09-15T12:36:29Z</time>
      </trkpt>
      <trkpt lat="43.4559660" lon="-5.9588130">
        <ele>240.7</ele>
        <time>2018-09-15T12:36:30Z</time>
      </trkpt>
      <trkpt lat="43.4559550" lon="-5.9586930">
        <ele>240.6</ele>
        <time>2018-09-15T12:36:31Z</time>
      </trkpt>
      <trkpt lat="43.4559530" lon="-5.9585610">
        <ele>240.5</ele>
        <time>2018-09-15T12:36:32Z</time>
      </trkpt>
      <trkpt lat="43.4559550" lon="-5.9584360">
        <ele>240.4</ele>
        <time>2018-09-15T12:36:33Z</time>
      </trkpt>
      <trkpt lat="43.4559620" lon="-5.9583150">
        <ele>240.3</ele>
        <time>2018-09-15T12:36:34Z</time>
      </trkpt>
      <trkpt lat="43.4559670" lon="-5.9581910">
        <ele>240.0</ele>
        <time>2018-09-15T12:36:35Z</time>
      </trkpt>
      <trkpt lat="43.4559790" lon="-5.9580730">
        <ele>239.7</ele>
        <time>2018-09-15T12:36:36Z</time>
      </trkpt>
      <trkpt lat="43.4560080" lon="-5.9579700">
        <ele>239.4</ele>
        <time>2018-09-15T12:36:37Z</time>
      </trkpt>
      <trkpt lat="43.4560230" lon="-5.9578450">
        <ele>239.0</ele>
        <time>2018-09-15T12:36:38Z</time>
      </trkpt>
      <trkpt lat="43.4560360" lon="-5.9577190">
        <ele>238.7</ele>
        <time>2018-09-15T12:36:39Z</time>
      </trkpt>
      <trkpt lat="43.4560460" lon="-5.9575990">
        <ele>238.3</ele>
        <time>2018-09-15T12:36:40Z</time>
      </trkpt>
      <trkpt lat="43.4560470" lon="-5.9574770">
        <ele>238.1</ele>
        <time>2018-09-15T12:36:41Z</time>
      </trkpt>
      <trkpt lat="43.4560480" lon="-5.9573530">
        <ele>237.9</ele>
        <time>2018-09-15T12:36:42Z</time>
      </trkpt>
      <trkpt lat="43.4560370" lon="-5.9572320">
        <ele>237.6</ele>
        <time>2018-09-15T12:36:43Z</time>
      </trkpt>
      <trkpt lat="43.4560300" lon="-5.9571090">
        <ele>237.3</ele>
        <time>2018-09-15T12:36:44Z</time>
      </trkpt>
      <trkpt lat="43.4560110" lon="-5.9569960">
        <ele>237.0</ele>
        <time>2018-09-15T12:36:45Z</time>
      </trkpt>
      <trkpt lat="43.4559930" lon="-5.9568790">
        <ele>236.6</ele>
        <time>2018-09-15T12:36:46Z</time>
      </trkpt>
      <trkpt lat="43.4559810" lon="-5.9567600">
        <ele>236.2</ele>
        <time>2018-09-15T12:36:47Z</time>
      </trkpt>
      <trkpt lat="43.4559760" lon="-5.9566480">
        <ele>235.8</ele>
        <time>2018-09-15T12:36:48Z</time>
      </trkpt>
      <trkpt lat="43.4559780" lon="-5.9565400">
        <ele>235.4</ele>
        <time>2018-09-15T12:36:49Z</time>
      </trkpt>
      <trkpt lat="43.4559910" lon="-5.9564330">
        <ele>235.0</ele>
        <time>2018-09-15T12:36:50Z</time>
      </trkpt>
      <trkpt lat="43.4560140" lon="-5.9563350">
        <ele>235.0</ele>
        <time>2018-09-15T12:36:51Z</time>
      </trkpt>
      <trkpt lat="43.4560500" lon="-5.9562300">
        <ele>235.1</ele>
        <time>2018-09-15T12:36:52Z</time>
      </trkpt>
      <trkpt lat="43.4560720" lon="-5.9561210">
        <ele>235.1</ele>
        <time>2018-09-15T12:36:53Z</time>
      </trkpt>
      <trkpt lat="43.4561050" lon="-5.9560130">
        <ele>235.2</ele>
        <time>2018-09-15T12:36:54Z</time>
      </trkpt>
      <trkpt lat="43.4561380" lon="-5.9559030">
        <ele>235.2</ele>
        <time>2018-09-15T12:36:55Z</time>
      </trkpt>
      <trkpt lat="43.4561770" lon="-5.9557970">
        <ele>235.3</ele>
        <time>2018-09-15T12:36:56Z</time>
      </trkpt>
      <trkpt lat="43.4562090" lon="-5.9556960">
        <ele>235.4</ele>
        <time>2018-09-15T12:36:57Z</time>
      </trkpt>
      <trkpt lat="43.4562540" lon="-5.9556010">
        <ele>235.4</ele>
        <time>2018-09-15T12:36:58Z</time>
      </trkpt>
      <trkpt lat="43.4563040" lon="-5.9555050">
        <ele>235.4</ele>
        <time>2018-09-15T12:36:59Z</time>
      </trkpt>
      <trkpt lat="43.4563620" lon="-5.9554210">
        <ele>235.4</ele>
        <time>2018-09-15T12:37:00Z</time>
      </trkpt>
      <trkpt lat="43.4564210" lon="-5.9553330">
        <ele>235.3</ele>
        <time>2018-09-15T12:37:01Z</time>
      </trkpt>
      <trkpt lat="43.4564810" lon="-5.9552490">
        <ele>235.2</ele>
        <time>2018-09-15T12:37:02Z</time>
      </trkpt>
      <trkpt lat="43.4565370" lon="-5.9551570">
        <ele>235.0</ele>
        <time>2018-09-15T12:37:03Z</time>
      </trkpt>
      <trkpt lat="43.4565970" lon="-5.9550740">
        <ele>234.9</ele>
        <time>2018-09-15T12:37:04Z</time>
      </trkpt>
      <trkpt lat="43.4566540" lon="-5.9549860">
        <ele>234.8</ele>
        <time>2018-09-15T12:37:05Z</time>
      </trkpt>
      <trkpt lat="43.4567060" lon="-5.9548930">
        <ele>234.7</ele>
        <time>2018-09-15T12:37:06Z</time>
      </trkpt>
      <trkpt lat="43.4567590" lon="-5.9548050">
        <ele>234.6</ele>
        <time>2018-09-15T12:37:07Z</time>
      </trkpt>
      <trkpt lat="43.4568200" lon="-5.9547250">
        <ele>234.5</ele>
        <time>2018-09-15T12:37:08Z</time>
      </trkpt>
      <trkpt lat="43.4568630" lon="-5.9546300">
        <ele>234.5</ele>
        <time>2018-09-15T12:37:09Z</time>
      </trkpt>
      <trkpt lat="43.4569220" lon="-5.9545500">
        <ele>234.5</ele>
        <time>2018-09-15T12:37:10Z</time>
      </trkpt>
      <trkpt lat="43.4569840" lon="-5.9544690">
        <ele>234.5</ele>
        <time>2018-09-15T12:37:11Z</time>
      </trkpt>
      <trkpt lat="43.4570520" lon="-5.9544130">
        <ele>234.5</ele>
        <time>2018-09-15T12:37:12Z</time>
      </trkpt>
      <trkpt lat="43.4571210" lon="-5.9543530">
        <ele>234.4</ele>
        <time>2018-09-15T12:37:13Z</time>
      </trkpt>
      <trkpt lat="43.4571860" lon="-5.9542970">
        <ele>234.4</ele>
        <time>2018-09-15T12:37:14Z</time>
      </trkpt>
      <trkpt lat="43.4572530" lon="-5.9542490">
        <ele>234.3</ele>
        <time>2018-09-15T12:37:15Z</time>
      </trkpt>
      <trkpt lat="43.4573090" lon="-5.9541950">
        <ele>234.3</ele>
        <time>2018-09-15T12:37:16Z</time>
      </trkpt>
      <trkpt lat="43.4573780" lon="-5.9541360">
        <ele>234.2</ele>
        <time>2018-09-15T12:37:17Z</time>
      </trkpt>
      <trkpt lat="43.4574530" lon="-5.9540900">
        <ele>234.2</ele>
        <time>2018-09-15T12:37:18Z</time>
      </trkpt>
      <trkpt lat="43.4575270" lon="-5.9540310">
        <ele>234.1</ele>
        <time>2018-09-15T12:37:19Z</time>
      </trkpt>
      <trkpt lat="43.4575900" lon="-5.9539520">
        <ele>234.1</ele>
        <time>2018-09-15T12:37:20Z</time>
      </trkpt>
      <trkpt lat="43.4576510" lon="-5.9538680">
        <ele>234.0</ele>
        <time>2018-09-15T12:37:21Z</time>
      </trkpt>
      <trkpt lat="43.4577140" lon="-5.9537930">
        <ele>234.0</ele>
        <time>2018-09-15T12:37:22Z</time>
      </trkpt>
      <trkpt lat="43.4577700" lon="-5.9537090">
        <ele>234.0</ele>
        <time>2018-09-15T12:37:23Z</time>
      </trkpt>
      <trkpt lat="43.4578200" lon="-5.9536250">
        <ele>235.0</ele>
        <time>2018-09-15T12:37:24Z</time>
      </trkpt>
      <trkpt lat="43.4578730" lon="-5.9535410">
        <ele>236.5</ele>
        <time>2018-09-15T12:37:25Z</time>
      </trkpt>
      <trkpt lat="43.4579430" lon="-5.9534740">
        <ele>238.1</ele>
        <time>2018-09-15T12:37:26Z</time>
      </trkpt>
      <trkpt lat="43.4580180" lon="-5.9534190">
        <ele>239.6</ele>
        <time>2018-09-15T12:37:27Z</time>
      </trkpt>
      <trkpt lat="43.4581040" lon="-5.9533850">
        <ele>241.4</ele>
        <time>2018-09-15T12:37:28Z</time>
      </trkpt>
      <trkpt lat="43.4581900" lon="-5.9533590">
        <ele>243.3</ele>
        <time>2018-09-15T12:37:29Z</time>
      </trkpt>
      <trkpt lat="43.4582820" lon="-5.9533430">
        <ele>245.4</ele>
        <time>2018-09-15T12:37:30Z</time>
      </trkpt>
      <trkpt lat="43.4583740" lon="-5.9533380">
        <ele>247.7</ele>
        <time>2018-09-15T12:37:31Z</time>
      </trkpt>
      <trkpt lat="43.4584570" lon="-5.9533220">
        <ele>248.2</ele>
        <time>2018-09-15T12:37:32Z</time>
      </trkpt>
      <trkpt lat="43.4585460" lon="-5.9533020">
        <ele>246.1</ele>
        <time>2018-09-15T12:37:33Z</time>
      </trkpt>
      <trkpt lat="43.4586360" lon="-5.9532590">
        <ele>243.9</ele>
        <time>2018-09-15T12:37:34Z</time>
      </trkpt>
      <trkpt lat="43.4587080" lon="-5.9531880">
        <ele>241.7</ele>
        <time>2018-09-15T12:37:35Z</time>
      </trkpt>
      <trkpt lat="43.4587680" lon="-5.9530990">
        <ele>239.3</ele>
        <time>2018-09-15T12:37:36Z</time>
      </trkpt>
      <trkpt lat="43.4588150" lon="-5.9529930">
        <ele>236.9</ele>
        <time>2018-09-15T12:37:37Z</time>
      </trkpt>
      <trkpt lat="43.4588450" lon="-5.9528810">
        <ele>234.3</ele>
        <time>2018-09-15T12:37:38Z</time>
      </trkpt>
      <trkpt lat="43.4588540" lon="-5.9527620">
        <ele>232.6</ele>
        <time>2018-09-15T12:37:39Z</time>
      </trkpt>
      <trkpt lat="43.4588430" lon="-5.9526410">
        <ele>232.1</ele>
        <time>2018-09-15T12:37:40Z</time>
      </trkpt>
      <trkpt lat="43.4588100" lon="-5.9525230">
        <ele>231.7</ele>
        <time>2018-09-15T12:37:41Z</time>
      </trkpt>
      <trkpt lat="43.4587680" lon="-5.9524190">
        <ele>231.3</ele>
        <time>2018-09-15T12:37:42Z</time>
      </trkpt>
      <trkpt lat="43.4587210" lon="-5.9523150">
        <ele>230.7</ele>
        <time>2018-09-15T12:37:43Z</time>
      </trkpt>
      <trkpt lat="43.4586790" lon="-5.9522180">
        <ele>230.3</ele>
        <time>2018-09-15T12:37:44Z</time>
      </trkpt>
      <trkpt lat="43.4586460" lon="-5.9521170">
        <ele>229.9</ele>
        <time>2018-09-15T12:37:45Z</time>
      </trkpt>
      <trkpt lat="43.4586130" lon="-5.9520090">
        <ele>229.5</ele>
        <time>2018-09-15T12:37:46Z</time>
      </trkpt>
      <trkpt lat="43.4585920" lon="-5.9519030">
        <ele>229.0</ele>
        <time>2018-09-15T12:37:47Z</time>
      </trkpt>
      <trkpt lat="43.4585780" lon="-5.9517990">
        <ele>228.4</ele>
        <time>2018-09-15T12:37:48Z</time>
      </trkpt>
      <trkpt lat="43.4585680" lon="-5.9516940">
        <ele>227.8</ele>
        <time>2018-09-15T12:37:49Z</time>
      </trkpt>
      <trkpt lat="43.4585600" lon="-5.9515760">
        <ele>227.1</ele>
        <time>2018-09-15T12:37:50Z</time>
      </trkpt>
      <trkpt lat="43.4585500" lon="-5.9514550">
        <ele>226.4</ele>
        <time>2018-09-15T12:37:51Z</time>
      </trkpt>
      <trkpt lat="43.4585350" lon="-5.9513450">
        <ele>225.7</ele>
        <time>2018-09-15T12:37:52Z</time>
      </trkpt>
      <trkpt lat="43.4585270" lon="-5.9512300">
        <ele>225.2</ele>
        <time>2018-09-15T12:37:53Z</time>
      </trkpt>
      <trkpt lat="43.4585080" lon="-5.9511150">
        <ele>224.7</ele>
        <time>2018-09-15T12:37:54Z</time>
      </trkpt>
      <trkpt lat="43.4584870" lon="-5.9510100">
        <ele>224.2</ele>
        <time>2018-09-15T12:37:55Z</time>
      </trkpt>
      <trkpt lat="43.4584590" lon="-5.9508970">
        <ele>223.5</ele>
        <time>2018-09-15T12:37:56Z</time>
      </trkpt>
      <trkpt lat="43.4584260" lon="-5.9507890">
        <ele>222.7</ele>
        <time>2018-09-15T12:37:57Z</time>
      </trkpt>
      <trkpt lat="43.4583710" lon="-5.9506940">
        <ele>221.9</ele>
        <time>2018-09-15T12:37:58Z</time>
      </trkpt>
      <trkpt lat="43.4583160" lon="-5.9506130">
        <ele>221.2</ele>
        <time>2018-09-15T12:37:59Z</time>
      </trkpt>
      <trkpt lat="43.4582550" lon="-5.9505380">
        <ele>220.5</ele>
        <time>2018-09-15T12:38:00Z</time>
      </trkpt>
      <trkpt lat="43.4581970" lon="-5.9504690">
        <ele>220.0</ele>
        <time>2018-09-15T12:38:01Z</time>
      </trkpt>
      <trkpt lat="43.4581440" lon="-5.9503900">
        <ele>219.5</ele>
        <time>2018-09-15T12:38:02Z</time>
      </trkpt>
      <trkpt lat="43.4581020" lon="-5.9503100">
        <ele>219.3</ele>
        <time>2018-09-15T12:38:03Z</time>
      </trkpt>
      <trkpt lat="43.4580610" lon="-5.9502110">
        <ele>219.0</ele>
        <time>2018-09-15T12:38:04Z</time>
      </trkpt>
      <trkpt lat="43.4580310" lon="-5.9501120">
        <ele>218.8</ele>
        <time>2018-09-15T12:38:05Z</time>
      </trkpt>
      <trkpt lat="43.4579980" lon="-5.9500070">
        <ele>218.4</ele>
        <time>2018-09-15T12:38:06Z</time>
      </trkpt>
      <trkpt lat="43.4579650" lon="-5.9499000">
        <ele>218.0</ele>
        <time>2018-09-15T12:38:07Z</time>
      </trkpt>
      <trkpt lat="43.4579300" lon="-5.9497990">
        <ele>217.7</ele>
        <time>2018-09-15T12:38:08Z</time>
      </trkpt>
      <trkpt lat="43.4578940" lon="-5.9496910">
        <ele>217.4</ele>
        <time>2018-09-15T12:38:09Z</time>
      </trkpt>
      <trkpt lat="43.4578630" lon="-5.9495870">
        <ele>217.1</ele>
        <time>2018-09-15T12:38:10Z</time>
      </trkpt>
      <trkpt lat="43.4578340" lon="-5.9494870">
        <ele>216.8</ele>
        <time>2018-09-15T12:38:11Z</time>
      </trkpt>
      <trkpt lat="43.4578030" lon="-5.9493890">
        <ele>216.1</ele>
        <time>2018-09-15T12:38:12Z</time>
      </trkpt>
      <trkpt lat="43.4577700" lon="-5.9492880">
        <ele>215.3</ele>
        <time>2018-09-15T12:38:13Z</time>
      </trkpt>
      <trkpt lat="43.4577370" lon="-5.9491870">
        <ele>214.3</ele>
        <time>2018-09-15T12:38:14Z</time>
      </trkpt>
      <trkpt lat="43.4577070" lon="-5.9490980">
        <ele>213.8</ele>
        <time>2018-09-15T12:38:15Z</time>
      </trkpt>
      <trkpt lat="43.4576730" lon="-5.9489940">
        <ele>213.6</ele>
        <time>2018-09-15T12:38:16Z</time>
      </trkpt>
      <trkpt lat="43.4576370" lon="-5.9488860">
        <ele>213.4</ele>
        <time>2018-09-15T12:38:17Z</time>
      </trkpt>
      <trkpt lat="43.4575890" lon="-5.9487970">
        <ele>213.1</ele>
        <time>2018-09-15T12:38:18Z</time>
      </trkpt>
      <trkpt lat="43.4575380" lon="-5.9487050">
        <ele>212.8</ele>
        <time>2018-09-15T12:38:19Z</time>
      </trkpt>
      <trkpt lat="43.4574780" lon="-5.9486050">
        <ele>212.3</ele>
        <time>2018-09-15T12:38:20Z</time>
      </trkpt>
      <trkpt lat="43.4574240" lon="-5.9485250">
        <ele>212.0</ele>
        <time>2018-09-15T12:38:21Z</time>
      </trkpt>
      <trkpt lat="43.4573690" lon="-5.9484420">
        <ele>211.7</ele>
        <time>2018-09-15T12:38:22Z</time>
      </trkpt>
      <trkpt lat="43.4573140" lon="-5.9483590">
        <ele>211.4</ele>
        <time>2018-09-15T12:38:23Z</time>
      </trkpt>
      <trkpt lat="43.4572610" lon="-5.9482680">
        <ele>211.4</ele>
        <time>2018-09-15T12:38:24Z</time>
      </trkpt>
      <trkpt lat="43.4572070" lon="-5.9482000">
        <ele>211.3</ele>
        <time>2018-09-15T12:38:25Z</time>
      </trkpt>
      <trkpt lat="43.4571570" lon="-5.9481150">
        <ele>211.2</ele>
        <time>2018-09-15T12:38:26Z</time>
      </trkpt>
      <trkpt lat="43.4571010" lon="-5.9480270">
        <ele>211.1</ele>
        <time>2018-09-15T12:38:27Z</time>
      </trkpt>
      <trkpt lat="43.4570430" lon="-5.9479360">
        <ele>211.1</ele>
        <time>2018-09-15T12:38:28Z</time>
      </trkpt>
      <trkpt lat="43.4569940" lon="-5.9478530">
        <ele>211.0</ele>
        <time>2018-09-15T12:38:29Z</time>
      </trkpt>
      <trkpt lat="43.4569530" lon="-5.9477690">
        <ele>211.0</ele>
        <time>2018-09-15T12:38:30Z</time>
      </trkpt>
      <trkpt lat="43.4569170" lon="-5.9477050">
        <ele>210.9</ele>
        <time>2018-09-15T12:38:31Z</time>
      </trkpt>
      <trkpt lat="43.4568730" lon="-5.9476170">
        <ele>210.9</ele>
        <time>2018-09-15T12:38:32Z</time>
      </trkpt>
      <trkpt lat="43.4568300" lon="-5.9475290">
        <ele>210.7</ele>
        <time>2018-09-15T12:38:33Z</time>
      </trkpt>
      <trkpt lat="43.4567890" lon="-5.9474300">
        <ele>210.4</ele>
        <time>2018-09-15T12:38:34Z</time>
      </trkpt>
      <trkpt lat="43.4567610" lon="-5.9473380">
        <ele>210.2</ele>
        <time>2018-09-15T12:38:35Z</time>
      </trkpt>
      <trkpt lat="43.4567340" lon="-5.9472270">
        <ele>210.1</ele>
        <time>2018-09-15T12:38:36Z</time>
      </trkpt>
      <trkpt lat="43.4567040" lon="-5.9471250">
        <ele>210.3</ele>
        <time>2018-09-15T12:38:37Z</time>
      </trkpt>
      <trkpt lat="43.4566880" lon="-5.9470260">
        <ele>210.4</ele>
        <time>2018-09-15T12:38:38Z</time>
      </trkpt>
      <trkpt lat="43.4566720" lon="-5.9469170">
        <ele>210.5</ele>
        <time>2018-09-15T12:38:39Z</time>
      </trkpt>
      <trkpt lat="43.4566680" lon="-5.9468030">
        <ele>210.5</ele>
        <time>2018-09-15T12:38:40Z</time>
      </trkpt>
      <trkpt lat="43.4566790" lon="-5.9466980">
        <ele>210.6</ele>
        <time>2018-09-15T12:38:41Z</time>
      </trkpt>
      <trkpt lat="43.4566970" lon="-5.9465830">
        <ele>210.6</ele>
        <time>2018-09-15T12:38:42Z</time>
      </trkpt>
      <trkpt lat="43.4567310" lon="-5.9464860">
        <ele>210.5</ele>
        <time>2018-09-15T12:38:43Z</time>
      </trkpt>
      <trkpt lat="43.4567760" lon="-5.9463750">
        <ele>210.5</ele>
        <time>2018-09-15T12:38:44Z</time>
      </trkpt>
      <trkpt lat="43.4568270" lon="-5.9462760">
        <ele>210.5</ele>
        <time>2018-09-15T12:38:45Z</time>
      </trkpt>
      <trkpt lat="43.4568850" lon="-5.9461900">
        <ele>210.6</ele>
        <time>2018-09-15T12:38:46Z</time>
      </trkpt>
      <trkpt lat="43.4569480" lon="-5.9460970">
        <ele>210.7</ele>
        <time>2018-09-15T12:38:47Z</time>
      </trkpt>
      <trkpt lat="43.4570050" lon="-5.9460160">
        <ele>210.9</ele>
        <time>2018-09-15T12:38:48Z</time>
      </trkpt>
      <trkpt lat="43.4570630" lon="-5.9459310">
        <ele>210.8</ele>
        <time>2018-09-15T12:38:49Z</time>
      </trkpt>
      <trkpt lat="43.4571280" lon="-5.9458360">
        <ele>210.3</ele>
        <time>2018-09-15T12:38:50Z</time>
      </trkpt>
      <trkpt lat="43.4571800" lon="-5.9457400">
        <ele>209.9</ele>
        <time>2018-09-15T12:38:51Z</time>
      </trkpt>
      <trkpt lat="43.4572260" lon="-5.9456440">
        <ele>209.5</ele>
        <time>2018-09-15T12:38:52Z</time>
      </trkpt>
      <trkpt lat="43.4572710" lon="-5.9455420">
        <ele>209.1</ele>
        <time>2018-09-15T12:38:53Z</time>
      </trkpt>
      <trkpt lat="43.4573120" lon="-5.9454380">
        <ele>208.7</ele>
        <time>2018-09-15T12:38:54Z</time>
      </trkpt>
      <trkpt lat="43.4573250" lon="-5.9453190">
        <ele>208.3</ele>
        <time>2018-09-15T12:38:55Z</time>
      </trkpt>
      <trkpt lat="43.4573680" lon="-5.9452100">
        <ele>207.9</ele>
        <time>2018-09-15T12:38:56Z</time>
      </trkpt>
      <trkpt lat="43.4574100" lon="-5.9451020">
        <ele>207.6</ele>
        <time>2018-09-15T12:38:57Z</time>
      </trkpt>
      <trkpt lat="43.4574470" lon="-5.9449950">
        <ele>207.2</ele>
        <time>2018-09-15T12:38:58Z</time>
      </trkpt>
      <trkpt lat="43.4574920" lon="-5.9448770">
        <ele>206.8</ele>
        <time>2018-09-15T12:38:59Z</time>
      </trkpt>
      <trkpt lat="43.4575330" lon="-5.9447710">
        <ele>206.4</ele>
        <time>2018-09-15T12:39:00Z</time>
      </trkpt>
      <trkpt lat="43.4575710" lon="-5.9446670">
        <ele>206.0</ele>
        <time>2018-09-15T12:39:01Z</time>
      </trkpt>
      <trkpt lat="43.4576160" lon="-5.9445500">
        <ele>205.6</ele>
        <time>2018-09-15T12:39:02Z</time>
      </trkpt>
      <trkpt lat="43.4576400" lon="-5.9444390">
        <ele>205.2</ele>
        <time>2018-09-15T12:39:03Z</time>
      </trkpt>
      <trkpt lat="43.4576720" lon="-5.9443320">
        <ele>204.8</ele>
        <time>2018-09-15T12:39:04Z</time>
      </trkpt>
      <trkpt lat="43.4577170" lon="-5.9442160">
        <ele>204.4</ele>
        <time>2018-09-15T12:39:05Z</time>
      </trkpt>
      <trkpt lat="43.4577570" lon="-5.9441040">
        <ele>204.0</ele>
        <time>2018-09-15T12:39:06Z</time>
      </trkpt>
      <trkpt lat="43.4578050" lon="-5.9439900">
        <ele>203.6</ele>
        <time>2018-09-15T12:39:07Z</time>
      </trkpt>
      <trkpt lat="43.4578450" lon="-5.9438810">
        <ele>203.2</ele>
        <time>2018-09-15T12:39:08Z</time>
      </trkpt>
      <trkpt lat="43.4578970" lon="-5.9437760">
        <ele>202.9</ele>
        <time>2018-09-15T12:39:09Z</time>
      </trkpt>
      <trkpt lat="43.4579440" lon="-5.9436720">
        <ele>202.6</ele>
        <time>2018-09-15T12:39:10Z</time>
      </trkpt>
      <trkpt lat="43.4579880" lon="-5.9435720">
        <ele>202.3</ele>
        <time>2018-09-15T12:39:11Z</time>
      </trkpt>
      <trkpt lat="43.4580220" lon="-5.9434650">
        <ele>202.0</ele>
        <time>2018-09-15T12:39:12Z</time>
      </trkpt>
      <trkpt lat="43.4580540" lon="-5.9433650">
        <ele>201.7</ele>
        <time>2018-09-15T12:39:13Z</time>
      </trkpt>
      <trkpt lat="43.4580930" lon="-5.9432660">
        <ele>201.5</ele>
        <time>2018-09-15T12:39:14Z</time>
      </trkpt>
      <trkpt lat="43.4581270" lon="-5.9431710">
        <ele>201.3</ele>
        <time>2018-09-15T12:39:15Z</time>
      </trkpt>
      <trkpt lat="43.4581600" lon="-5.9430750">
        <ele>201.2</ele>
        <time>2018-09-15T12:39:16Z</time>
      </trkpt>
      <trkpt lat="43.4582030" lon="-5.9429820">
        <ele>201.2</ele>
        <time>2018-09-15T12:39:17Z</time>
      </trkpt>
      <trkpt lat="43.4582350" lon="-5.9428890">
        <ele>201.1</ele>
        <time>2018-09-15T12:39:18Z</time>
      </trkpt>
      <trkpt lat="43.4582630" lon="-5.9427890">
        <ele>201.1</ele>
        <time>2018-09-15T12:39:19Z</time>
      </trkpt>
      <trkpt lat="43.4582980" lon="-5.9426970">
        <ele>201.1</ele>
        <time>2018-09-15T12:39:20Z</time>
      </trkpt>
      <trkpt lat="43.4583340" lon="-5.9426030">
        <ele>201.1</ele>
        <time>2018-09-15T12:39:21Z</time>
      </trkpt>
      <trkpt lat="43.4583630" lon="-5.9425090">
        <ele>201.0</ele>
        <time>2018-09-15T12:39:22Z</time>
      </trkpt>
      <trkpt lat="43.4583960" lon="-5.9424160">
        <ele>201.0</ele>
        <time>2018-09-15T12:39:23Z</time>
      </trkpt>
      <trkpt lat="43.4584180" lon="-5.9423260">
        <ele>201.0</ele>
        <time>2018-09-15T12:39:24Z</time>
      </trkpt>
      <trkpt lat="43.4584540" lon="-5.9422360">
        <ele>201.0</ele>
        <time>2018-09-15T12:39:25Z</time>
      </trkpt>
      <trkpt lat="43.4584780" lon="-5.9421470">
        <ele>201.0</ele>
        <time>2018-09-15T12:39:26Z</time>
      </trkpt>
      <trkpt lat="43.4584980" lon="-5.9420580">
        <ele>201.0</ele>
        <time>2018-09-15T12:39:27Z</time>
      </trkpt>
      <trkpt lat="43.4585200" lon="-5.9419680">
        <ele>201.0</ele>
        <time>2018-09-15T12:39:28Z</time>
      </trkpt>
      <trkpt lat="43.4585280" lon="-5.9418750">
        <ele>201.0</ele>
        <time>2018-09-15T12:39:29Z</time>
      </trkpt>
      <trkpt lat="43.4585270" lon="-5.9417880">
        <ele>201.0</ele>
        <time>2018-09-15T12:39:30Z</time>
      </trkpt>
      <trkpt lat="43.4585210" lon="-5.9416990">
        <ele>201.3</ele>
        <time>2018-09-15T12:39:31Z</time>
      </trkpt>
      <trkpt lat="43.4585160" lon="-5.9416200">
        <ele>201.7</ele>
        <time>2018-09-15T12:39:32Z</time>
      </trkpt>
      <trkpt lat="43.4585080" lon="-5.9415380">
        <ele>202.2</ele>
        <time>2018-09-15T12:39:33Z</time>
      </trkpt>
      <trkpt lat="43.4584910" lon="-5.9414740">
        <ele>202.5</ele>
        <time>2018-09-15T12:39:34Z</time>
      </trkpt>
      <trkpt lat="43.4584770" lon="-5.9414140">
        <ele>202.9</ele>
        <time>2018-09-15T12:39:35Z</time>
      </trkpt>
      <trkpt lat="43.4584660" lon="-5.9413520">
        <ele>203.2</ele>
        <time>2018-09-15T12:39:36Z</time>
      </trkpt>
      <trkpt lat="43.4584580" lon="-5.9412990">
        <ele>203.5</ele>
        <time>2018-09-15T12:39:37Z</time>
      </trkpt>
      <trkpt lat="43.4584520" lon="-5.9412400">
        <ele>203.8</ele>
        <time>2018-09-15T12:39:38Z</time>
      </trkpt>
      <trkpt lat="43.4584500" lon="-5.9411770">
        <ele>204.1</ele>
        <time>2018-09-15T12:39:39Z</time>
      </trkpt>
      <trkpt lat="43.4584480" lon="-5.9411160">
        <ele>204.4</ele>
        <time>2018-09-15T12:39:40Z</time>
      </trkpt>
      <trkpt lat="43.4584460" lon="-5.9410640">
        <ele>204.7</ele>
        <time>2018-09-15T12:39:41Z</time>
      </trkpt>
      <trkpt lat="43.4584490" lon="-5.9410110">
        <ele>205.0</ele>
        <time>2018-09-15T12:39:42Z</time>
      </trkpt>
      <trkpt lat="43.4584540" lon="-5.9409560">
        <ele>205.3</ele>
        <time>2018-09-15T12:39:43Z</time>
      </trkpt>
      <trkpt lat="43.4584620" lon="-5.9409050">
        <ele>205.6</ele>
        <time>2018-09-15T12:39:44Z</time>
      </trkpt>
      <trkpt lat="43.4584720" lon="-5.9408520">
        <ele>205.9</ele>
        <time>2018-09-15T12:39:45Z</time>
      </trkpt>
      <trkpt lat="43.4584800" lon="-5.9408000">
        <ele>206.1</ele>
        <time>2018-09-15T12:39:46Z</time>
      </trkpt>
      <trkpt lat="43.4584860" lon="-5.9407460">
        <ele>206.4</ele>
        <time>2018-09-15T12:39:47Z</time>
      </trkpt>
      <trkpt lat="43.4584980" lon="-5.9406970">
        <ele>206.7</ele>
        <time>2018-09-15T12:39:48Z</time>
      </trkpt>
      <trkpt lat="43.4585090" lon="-5.9406480">
        <ele>206.9</ele>
        <time>2018-09-15T12:39:49Z</time>
      </trkpt>
      <trkpt lat="43.4585160" lon="-5.9406220">
        <ele>207.0</ele>
        <time>2018-09-15T12:39:50Z</time>
      </trkpt>
      <trkpt lat="43.4585290" lon="-5.9405500">
        <ele>207.4</ele>
        <time>2018-09-15T12:39:51Z</time>
      </trkpt>
      <trkpt lat="43.4585340" lon="-5.9405250">
        <ele>207.5</ele>
        <time>2018-09-15T12:39:52Z</time>
      </trkpt>
      <trkpt lat="43.4585390" lon="-5.9404550">
        <ele>207.9</ele>
        <time>2018-09-15T12:39:53Z</time>
      </trkpt>
      <trkpt lat="43.4585450" lon="-5.9404040">
        <ele>208.1</ele>
        <time>2018-09-15T12:39:54Z</time>
      </trkpt>
      <trkpt lat="43.4585460" lon="-5.9403760">
        <ele>208.2</ele>
        <time>2018-09-15T12:39:55Z</time>
      </trkpt>
      <trkpt lat="43.4585480" lon="-5.9403370">
        <ele>208.4</ele>
        <time>2018-09-15T12:39:56Z</time>
      </trkpt>
      <trkpt lat="43.4585540" lon="-5.9402920">
        <ele>208.7</ele>
        <time>2018-09-15T12:39:57Z</time>
      </trkpt>
      <trkpt lat="43.4585570" lon="-5.9402560">
        <ele>208.8</ele>
        <time>2018-09-15T12:39:58Z</time>
      </trkpt>
      <trkpt lat="43.4585580" lon="-5.9401570">
        <ele>209.3</ele>
        <time>2018-09-15T12:39:59Z</time>
      </trkpt>
      <trkpt lat="43.4585540" lon="-5.9401310">
        <ele>209.4</ele>
        <time>2018-09-15T12:40:00Z</time>
      </trkpt>
      <trkpt lat="43.4585510" lon="-5.9400910">
        <ele>209.6</ele>
        <time>2018-09-15T12:40:01Z</time>
      </trkpt>
      <trkpt lat="43.4585420" lon="-5.9400600">
        <ele>209.8</ele>
        <time>2018-09-15T12:40:02Z</time>
      </trkpt>
      <trkpt lat="43.4585350" lon="-5.9400180">
        <ele>210.0</ele>
        <time>2018-09-15T12:40:03Z</time>
      </trkpt>
      <trkpt lat="43.4585290" lon="-5.9399820">
        <ele>210.2</ele>
        <time>2018-09-15T12:40:04Z</time>
      </trkpt>
      <trkpt lat="43.4585230" lon="-5.9399380">
        <ele>210.4</ele>
        <time>2018-09-15T12:40:05Z</time>
      </trkpt>
      <trkpt lat="43.4585180" lon="-5.9399000">
        <ele>210.6</ele>
        <time>2018-09-15T12:40:06Z</time>
      </trkpt>
      <trkpt lat="43.4585150" lon="-5.9398590">
        <ele>210.8</ele>
        <time>2018-09-15T12:40:07Z</time>
      </trkpt>
      <trkpt lat="43.4585080" lon="-5.9397400">
        <ele>211.4</ele>
        <time>2018-09-15T12:40:08Z</time>
      </trkpt>
      <trkpt lat="43.4585090" lon="-5.9397140">
        <ele>211.5</ele>
        <time>2018-09-15T12:40:09Z</time>
      </trkpt>
      <trkpt lat="43.4585090" lon="-5.9396780">
        <ele>211.7</ele>
        <time>2018-09-15T12:40:10Z</time>
      </trkpt>
      <trkpt lat="43.4585100" lon="-5.9396400">
        <ele>211.8</ele>
        <time>2018-09-15T12:40:11Z</time>
      </trkpt>
      <trkpt lat="43.4585110" lon="-5.9396000">
        <ele>212.0</ele>
        <time>2018-09-15T12:40:12Z</time>
      </trkpt>
      <trkpt lat="43.4585120" lon="-5.9395590">
        <ele>212.2</ele>
        <time>2018-09-15T12:40:13Z</time>
      </trkpt>
      <trkpt lat="43.4585150" lon="-5.9395130">
        <ele>212.5</ele>
        <time>2018-09-15T12:40:14Z</time>
      </trkpt>
      <trkpt lat="43.4585180" lon="-5.9394630">
        <ele>212.7</ele>
        <time>2018-09-15T12:40:15Z</time>
      </trkpt>
      <trkpt lat="43.4585230" lon="-5.9394110">
        <ele>213.0</ele>
        <time>2018-09-15T12:40:16Z</time>
      </trkpt>
      <trkpt lat="43.4585260" lon="-5.9393680">
        <ele>213.2</ele>
        <time>2018-09-15T12:40:17Z</time>
      </trkpt>
      <trkpt lat="43.4585290" lon="-5.9393250">
        <ele>213.4</ele>
        <time>2018-09-15T12:40:18Z</time>
      </trkpt>
      <trkpt lat="43.4585330" lon="-5.9391990">
        <ele>214.1</ele>
        <time>2018-09-15T12:40:19Z</time>
      </trkpt>
      <trkpt lat="43.4585350" lon="-5.9391730">
        <ele>214.2</ele>
        <time>2018-09-15T12:40:20Z</time>
      </trkpt>
      <trkpt lat="43.4585400" lon="-5.9391370">
        <ele>214.4</ele>
        <time>2018-09-15T12:40:21Z</time>
      </trkpt>
      <trkpt lat="43.4585440" lon="-5.9391000">
        <ele>214.6</ele>
        <time>2018-09-15T12:40:22Z</time>
      </trkpt>
      <trkpt lat="43.4585490" lon="-5.9390560">
        <ele>214.8</ele>
        <time>2018-09-15T12:40:23Z</time>
      </trkpt>
      <trkpt lat="43.4585480" lon="-5.9389540">
        <ele>215.3</ele>
        <time>2018-09-15T12:40:24Z</time>
      </trkpt>
      <trkpt lat="43.4585490" lon="-5.9389260">
        <ele>215.4</ele>
        <time>2018-09-15T12:40:25Z</time>
      </trkpt>
      <trkpt lat="43.4585520" lon="-5.9388480">
        <ele>215.8</ele>
        <time>2018-09-15T12:40:26Z</time>
      </trkpt>
      <trkpt lat="43.4585520" lon="-5.9388200">
        <ele>216.0</ele>
        <time>2018-09-15T12:40:27Z</time>
      </trkpt>
      <trkpt lat="43.4585540" lon="-5.9387840">
        <ele>216.2</ele>
        <time>2018-09-15T12:40:28Z</time>
      </trkpt>
      <trkpt lat="43.4585560" lon="-5.9387440">
        <ele>216.4</ele>
        <time>2018-09-15T12:40:29Z</time>
      </trkpt>
      <trkpt lat="43.4585560" lon="-5.9387030">
        <ele>216.6</ele>
        <time>2018-09-15T12:40:30Z</time>
      </trkpt>
      <trkpt lat="43.4585510" lon="-5.9386670">
        <ele>216.7</ele>
        <time>2018-09-15T12:40:31Z</time>
      </trkpt>
      <trkpt lat="43.4585300" lon="-5.9385600">
        <ele>217.3</ele>
        <time>2018-09-15T12:40:32Z</time>
      </trkpt>
      <trkpt lat="43.4585290" lon="-5.9385330">
        <ele>217.4</ele>
        <time>2018-09-15T12:40:33Z</time>
      </trkpt>
      <trkpt lat="43.4585280" lon="-5.9384960">
        <ele>217.6</ele>
        <time>2018-09-15T12:40:34Z</time>
      </trkpt>
      <trkpt lat="43.4585270" lon="-5.9384510">
        <ele>217.8</ele>
        <time>2018-09-15T12:40:35Z</time>
      </trkpt>
      <trkpt lat="43.4585260" lon="-5.9384110">
        <ele>218.0</ele>
        <time>2018-09-15T12:40:36Z</time>
      </trkpt>
      <trkpt lat="43.4585250" lon="-5.9383690">
        <ele>218.2</ele>
        <time>2018-09-15T12:40:37Z</time>
      </trkpt>
      <trkpt lat="43.4585240" lon="-5.9383200">
        <ele>218.5</ele>
        <time>2018-09-15T12:40:38Z</time>
      </trkpt>
      <trkpt lat="43.4585240" lon="-5.9382770">
        <ele>218.7</ele>
        <time>2018-09-15T12:40:39Z</time>
      </trkpt>
      <trkpt lat="43.4585250" lon="-5.9382260">
        <ele>218.9</ele>
        <time>2018-09-15T12:40:40Z</time>
      </trkpt>
      <trkpt lat="43.4585340" lon="-5.9381100">
        <ele>219.5</ele>
        <time>2018-09-15T12:40:41Z</time>
      </trkpt>
      <trkpt lat="43.4585390" lon="-5.9380830">
        <ele>219.7</ele>
        <time>2018-09-15T12:40:42Z</time>
      </trkpt>
      <trkpt lat="43.4585500" lon="-5.9380080">
        <ele>220.1</ele>
        <time>2018-09-15T12:40:43Z</time>
      </trkpt>
      <trkpt lat="43.4585580" lon="-5.9379550">
        <ele>220.3</ele>
        <time>2018-09-15T12:40:44Z</time>
      </trkpt>
      <trkpt lat="43.4585610" lon="-5.9379290">
        <ele>220.5</ele>
        <time>2018-09-15T12:40:45Z</time>
      </trkpt>
      <trkpt lat="43.4585660" lon="-5.9378920">
        <ele>220.7</ele>
        <time>2018-09-15T12:40:46Z</time>
      </trkpt>
      <trkpt lat="43.4585740" lon="-5.9378540">
        <ele>220.9</ele>
        <time>2018-09-15T12:40:47Z</time>
      </trkpt>
      <trkpt lat="43.4585840" lon="-5.9378080">
        <ele>221.1</ele>
        <time>2018-09-15T12:40:48Z</time>
      </trkpt>
      <trkpt lat="43.4586090" lon="-5.9377140">
        <ele>221.6</ele>
        <time>2018-09-15T12:40:49Z</time>
      </trkpt>
      <trkpt lat="43.4586230" lon="-5.9376650">
        <ele>221.9</ele>
        <time>2018-09-15T12:40:50Z</time>
      </trkpt>
      <trkpt lat="43.4586410" lon="-5.9376150">
        <ele>222.2</ele>
        <time>2018-09-15T12:40:51Z</time>
      </trkpt>
      <trkpt lat="43.4586510" lon="-5.9375900">
        <ele>222.4</ele>
        <time>2018-09-15T12:40:52Z</time>
      </trkpt>
      <trkpt lat="43.4586650" lon="-5.9375530">
        <ele>222.6</ele>
        <time>2018-09-15T12:40:53Z</time>
      </trkpt>
      <trkpt lat="43.4586770" lon="-5.9375200">
        <ele>222.8</ele>
        <time>2018-09-15T12:40:54Z</time>
      </trkpt>
      <trkpt lat="43.4586900" lon="-5.9374860">
        <ele>223.0</ele>
        <time>2018-09-15T12:40:55Z</time>
      </trkpt>
      <trkpt lat="43.4587060" lon="-5.9374470">
        <ele>223.2</ele>
        <time>2018-09-15T12:40:56Z</time>
      </trkpt>
      <trkpt lat="43.4587220" lon="-5.9374070">
        <ele>223.5</ele>
        <time>2018-09-15T12:40:57Z</time>
      </trkpt>
      <trkpt lat="43.4587400" lon="-5.9373660">
        <ele>223.7</ele>
        <time>2018-09-15T12:40:58Z</time>
      </trkpt>
      <trkpt lat="43.4587580" lon="-5.9373250">
        <ele>224.0</ele>
        <time>2018-09-15T12:40:59Z</time>
      </trkpt>
      <trkpt lat="43.4588030" lon="-5.9372170">
        <ele>224.6</ele>
        <time>2018-09-15T12:41:00Z</time>
      </trkpt>
      <trkpt lat="43.4588140" lon="-5.9371920">
        <ele>224.7</ele>
        <time>2018-09-15T12:41:01Z</time>
      </trkpt>
      <trkpt lat="43.4588410" lon="-5.9371250">
        <ele>225.1</ele>
        <time>2018-09-15T12:41:02Z</time>
      </trkpt>
      <trkpt lat="43.4588560" lon="-5.9370780">
        <ele>225.3</ele>
        <time>2018-09-15T12:41:03Z</time>
      </trkpt>
      <trkpt lat="43.4588630" lon="-5.9370530">
        <ele>225.5</ele>
        <time>2018-09-15T12:41:04Z</time>
      </trkpt>
      <trkpt lat="43.4588830" lon="-5.9369840">
        <ele>225.8</ele>
        <time>2018-09-15T12:41:05Z</time>
      </trkpt>
      <trkpt lat="43.4588980" lon="-5.9369230">
        <ele>226.1</ele>
        <time>2018-09-15T12:41:07Z</time>
      </trkpt>
      <trkpt lat="43.4589060" lon="-5.9368880">
        <ele>226.3</ele>
        <time>2018-09-15T12:41:07Z</time>
      </trkpt>
      <trkpt lat="43.4589120" lon="-5.9368380">
        <ele>226.5</ele>
        <time>2018-09-15T12:41:08Z</time>
      </trkpt>
      <trkpt lat="43.4589150" lon="-5.9367750">
        <ele>226.8</ele>
        <time>2018-09-15T12:41:10Z</time>
      </trkpt>
      <trkpt lat="43.4589160" lon="-5.9367370">
        <ele>227.0</ele>
        <time>2018-09-15T12:41:10Z</time>
      </trkpt>
      <trkpt lat="43.4589180" lon="-5.9367100">
        <ele>227.1</ele>
        <time>2018-09-15T12:41:11Z</time>
      </trkpt>
      <trkpt lat="43.4589230" lon="-5.9366350">
        <ele>227.4</ele>
        <time>2018-09-15T12:41:12Z</time>
      </trkpt>
      <trkpt lat="43.4589260" lon="-5.9366080">
        <ele>227.6</ele>
        <time>2018-09-15T12:41:14Z</time>
      </trkpt>
      <trkpt lat="43.4589290" lon="-5.9365710">
        <ele>227.7</ele>
        <time>2018-09-15T12:41:15Z</time>
      </trkpt>
      <trkpt lat="43.4589310" lon="-5.9365290">
        <ele>228.0</ele>
        <time>2018-09-15T12:41:15Z</time>
      </trkpt>
      <trkpt lat="43.4589300" lon="-5.9364930">
        <ele>228.1</ele>
        <time>2018-09-15T12:41:17Z</time>
      </trkpt>
      <trkpt lat="43.4589280" lon="-5.9364470">
        <ele>228.4</ele>
        <time>2018-09-15T12:41:18Z</time>
      </trkpt>
      <trkpt lat="43.4589230" lon="-5.9364050">
        <ele>228.6</ele>
        <time>2018-09-15T12:41:19Z</time>
      </trkpt>
      <trkpt lat="43.4589180" lon="-5.9363560">
        <ele>228.8</ele>
        <time>2018-09-15T12:41:20Z</time>
      </trkpt>
      <trkpt lat="43.4589120" lon="-5.9363100">
        <ele>229.0</ele>
        <time>2018-09-15T12:41:21Z</time>
      </trkpt>
      <trkpt lat="43.4589040" lon="-5.9362590">
        <ele>229.3</ele>
        <time>2018-09-15T12:41:22Z</time>
      </trkpt>
      <trkpt lat="43.4588980" lon="-5.9362110">
        <ele>229.5</ele>
        <time>2018-09-15T12:41:23Z</time>
      </trkpt>
      <trkpt lat="43.4588790" lon="-5.9361010">
        <ele>230.1</ele>
        <time>2018-09-15T12:41:24Z</time>
      </trkpt>
      <trkpt lat="43.4588750" lon="-5.9360760">
        <ele>230.2</ele>
        <time>2018-09-15T12:41:25Z</time>
      </trkpt>
      <trkpt lat="43.4588620" lon="-5.9360070">
        <ele>230.6</ele>
        <time>2018-09-15T12:41:26Z</time>
      </trkpt>
      <trkpt lat="43.4588560" lon="-5.9359820">
        <ele>230.8</ele>
        <time>2018-09-15T12:41:27Z</time>
      </trkpt>
      <trkpt lat="43.4588420" lon="-5.9359120">
        <ele>231.1</ele>
        <time>2018-09-15T12:41:28Z</time>
      </trkpt>
      <trkpt lat="43.4588370" lon="-5.9358870">
        <ele>231.3</ele>
        <time>2018-09-15T12:41:29Z</time>
      </trkpt>
      <trkpt lat="43.4588250" lon="-5.9358170">
        <ele>231.6</ele>
        <time>2018-09-15T12:41:30Z</time>
      </trkpt>
      <trkpt lat="43.4588190" lon="-5.9357680">
        <ele>231.9</ele>
        <time>2018-09-15T12:41:31Z</time>
      </trkpt>
      <trkpt lat="43.4588130" lon="-5.9357200">
        <ele>232.0</ele>
        <time>2018-09-15T12:41:32Z</time>
      </trkpt>
      <trkpt lat="43.4588070" lon="-5.9356700">
        <ele>231.9</ele>
        <time>2018-09-15T12:41:33Z</time>
      </trkpt>
      <trkpt lat="43.4588050" lon="-5.9356440">
        <ele>231.8</ele>
        <time>2018-09-15T12:41:34Z</time>
      </trkpt>
      <trkpt lat="43.4588020" lon="-5.9356090">
        <ele>231.8</ele>
        <time>2018-09-15T12:41:35Z</time>
      </trkpt>
      <trkpt lat="43.4587970" lon="-5.9355660">
        <ele>231.7</ele>
        <time>2018-09-15T12:41:36Z</time>
      </trkpt>
      <trkpt lat="43.4587810" lon="-5.9354780">
        <ele>231.6</ele>
        <time>2018-09-15T12:41:37Z</time>
      </trkpt>
      <trkpt lat="43.4587760" lon="-5.9354520">
        <ele>231.5</ele>
        <time>2018-09-15T12:41:38Z</time>
      </trkpt>
      <trkpt lat="43.4587640" lon="-5.9353800">
        <ele>231.4</ele>
        <time>2018-09-15T12:41:39Z</time>
      </trkpt>
      <trkpt lat="43.4587570" lon="-5.9353320">
        <ele>231.4</ele>
        <time>2018-09-15T12:41:40Z</time>
      </trkpt>
      <trkpt lat="43.4587520" lon="-5.9353070">
        <ele>231.4</ele>
        <time>2018-09-15T12:41:41Z</time>
      </trkpt>
      <trkpt lat="43.4587370" lon="-5.9352370">
        <ele>231.3</ele>
        <time>2018-09-15T12:41:42Z</time>
      </trkpt>
      <trkpt lat="43.4587330" lon="-5.9352120">
        <ele>231.3</ele>
        <time>2018-09-15T12:41:43Z</time>
      </trkpt>
      <trkpt lat="43.4587270" lon="-5.9351770">
        <ele>231.2</ele>
        <time>2018-09-15T12:41:44Z</time>
      </trkpt>
      <trkpt lat="43.4587210" lon="-5.9351350">
        <ele>231.1</ele>
        <time>2018-09-15T12:41:45Z</time>
      </trkpt>
      <trkpt lat="43.4587140" lon="-5.9350930">
        <ele>231.1</ele>
        <time>2018-09-15T12:41:46Z</time>
      </trkpt>
      <trkpt lat="43.4586900" lon="-5.9350050">
        <ele>230.9</ele>
        <time>2018-09-15T12:41:47Z</time>
      </trkpt>
      <trkpt lat="43.4586820" lon="-5.9349780">
        <ele>230.8</ele>
        <time>2018-09-15T12:41:48Z</time>
      </trkpt>
      <trkpt lat="43.4586600" lon="-5.9349090">
        <ele>230.6</ele>
        <time>2018-09-15T12:41:49Z</time>
      </trkpt>
      <trkpt lat="43.4586510" lon="-5.9348840">
        <ele>230.6</ele>
        <time>2018-09-15T12:41:50Z</time>
      </trkpt>
      <trkpt lat="43.4586380" lon="-5.9348470">
        <ele>230.4</ele>
        <time>2018-09-15T12:41:51Z</time>
      </trkpt>
      <trkpt lat="43.4586250" lon="-5.9348170">
        <ele>230.3</ele>
        <time>2018-09-15T12:41:52Z</time>
      </trkpt>
      <trkpt lat="43.4586090" lon="-5.9347780">
        <ele>230.2</ele>
        <time>2018-09-15T12:41:53Z</time>
      </trkpt>
      <trkpt lat="43.4585930" lon="-5.9347480">
        <ele>230.1</ele>
        <time>2018-09-15T12:41:54Z</time>
      </trkpt>
      <trkpt lat="43.4585440" lon="-5.9346570">
        <ele>230.2</ele>
        <time>2018-09-15T12:41:55Z</time>
      </trkpt>
      <trkpt lat="43.4585180" lon="-5.9346170">
        <ele>230.4</ele>
        <time>2018-09-15T12:41:56Z</time>
      </trkpt>
      <trkpt lat="43.4585040" lon="-5.9345950">
        <ele>230.5</ele>
        <time>2018-09-15T12:41:57Z</time>
      </trkpt>
      <trkpt lat="43.4584850" lon="-5.9345670">
        <ele>230.6</ele>
        <time>2018-09-15T12:41:58Z</time>
      </trkpt>
      <trkpt lat="43.4584630" lon="-5.9345340">
        <ele>230.7</ele>
        <time>2018-09-15T12:41:59Z</time>
      </trkpt>
      <trkpt lat="43.4584070" lon="-5.9344400">
        <ele>231.0</ele>
        <time>2018-09-15T12:42:00Z</time>
      </trkpt>
      <trkpt lat="43.4583730" lon="-5.9343810">
        <ele>231.2</ele>
        <time>2018-09-15T12:42:01Z</time>
      </trkpt>
      <trkpt lat="43.4583730" lon="-5.9343810">
        <ele>231.2</ele>
        <time>2018-09-15T12:42:02Z</time>
      </trkpt>
      <trkpt lat="43.4583620" lon="-5.9343580">
        <ele>231.3</ele>
        <time>2018-09-15T12:42:03Z</time>
      </trkpt>
      <trkpt lat="43.4583350" lon="-5.9342910">
        <ele>231.4</ele>
        <time>2018-09-15T12:42:04Z</time>
      </trkpt>
      <trkpt lat="43.4583290" lon="-5.9342680">
        <ele>231.5</ele>
        <time>2018-09-15T12:42:05Z</time>
      </trkpt>
      <trkpt lat="43.4583150" lon="-5.9341970">
        <ele>231.7</ele>
        <time>2018-09-15T12:42:06Z</time>
      </trkpt>
      <trkpt lat="43.4583110" lon="-5.9341700">
        <ele>231.8</ele>
        <time>2018-09-15T12:42:07Z</time>
      </trkpt>
      <trkpt lat="43.4583010" lon="-5.9340450">
        <ele>232.0</ele>
        <time>2018-09-15T12:42:08Z</time>
      </trkpt>
      <trkpt lat="43.4583010" lon="-5.9339970">
        <ele>232.2</ele>
        <time>2018-09-15T12:42:09Z</time>
      </trkpt>
      <trkpt lat="43.4583050" lon="-5.9339680">
        <ele>232.2</ele>
        <time>2018-09-15T12:42:10Z</time>
      </trkpt>
      <trkpt lat="43.4583080" lon="-5.9339380">
        <ele>232.3</ele>
        <time>2018-09-15T12:42:11Z</time>
      </trkpt>
      <trkpt lat="43.4583180" lon="-5.9338970">
        <ele>232.4</ele>
        <time>2018-09-15T12:42:12Z</time>
      </trkpt>
      <trkpt lat="43.4583270" lon="-5.9338620">
        <ele>232.4</ele>
        <time>2018-09-15T12:42:13Z</time>
      </trkpt>
      <trkpt lat="43.4583560" lon="-5.9337670">
        <ele>232.6</ele>
        <time>2018-09-15T12:42:14Z</time>
      </trkpt>
      <trkpt lat="43.4583660" lon="-5.9337400">
        <ele>232.6</ele>
        <time>2018-09-15T12:42:15Z</time>
      </trkpt>
      <trkpt lat="43.4583760" lon="-5.9337120">
        <ele>232.7</ele>
        <time>2018-09-15T12:42:16Z</time>
      </trkpt>
      <trkpt lat="43.4583900" lon="-5.9336730">
        <ele>232.8</ele>
        <time>2018-09-15T12:42:17Z</time>
      </trkpt>
      <trkpt lat="43.4584030" lon="-5.9336400">
        <ele>232.8</ele>
        <time>2018-09-15T12:42:18Z</time>
      </trkpt>
      <trkpt lat="43.4584170" lon="-5.9335980">
        <ele>232.9</ele>
        <time>2018-09-15T12:42:19Z</time>
      </trkpt>
      <trkpt lat="43.4584280" lon="-5.9335680">
        <ele>232.9</ele>
        <time>2018-09-15T12:42:20Z</time>
      </trkpt>
      <trkpt lat="43.4584360" lon="-5.9335390">
        <ele>233.0</ele>
        <time>2018-09-15T12:42:21Z</time>
      </trkpt>
      <trkpt lat="43.4584440" lon="-5.9335110">
        <ele>233.0</ele>
        <time>2018-09-15T12:42:22Z</time>
      </trkpt>
      <trkpt lat="43.4584690" lon="-5.9334400">
        <ele>233.1</ele>
        <time>2018-09-15T12:42:23Z</time>
      </trkpt>
      <trkpt lat="43.4584900" lon="-5.9333180">
        <ele>233.3</ele>
        <time>2018-09-15T12:42:24Z</time>
      </trkpt>
      <trkpt lat="43.4584950" lon="-5.9332630">
        <ele>233.4</ele>
        <time>2018-09-15T12:42:25Z</time>
      </trkpt>
      <trkpt lat="43.4584960" lon="-5.9332130">
        <ele>233.5</ele>
        <time>2018-09-15T12:42:26Z</time>
      </trkpt>
      <trkpt lat="43.4584900" lon="-5.9331660">
        <ele>233.6</ele>
        <time>2018-09-15T12:42:27Z</time>
      </trkpt>
      <trkpt lat="43.4584980" lon="-5.9331190">
        <ele>233.7</ele>
        <time>2018-09-15T12:42:28Z</time>
      </trkpt>
      <trkpt lat="43.4584910" lon="-5.9330630">
        <ele>233.8</ele>
        <time>2018-09-15T12:42:29Z</time>
      </trkpt>
      <trkpt lat="43.4584880" lon="-5.9330140">
        <ele>233.9</ele>
        <time>2018-09-15T12:42:30Z</time>
      </trkpt>
      <trkpt lat="43.4584860" lon="-5.9329590">
        <ele>234.0</ele>
        <time>2018-09-15T12:42:31Z</time>
      </trkpt>
      <trkpt lat="43.4584820" lon="-5.9329080">
        <ele>234.1</ele>
        <time>2018-09-15T12:42:32Z</time>
      </trkpt>
      <trkpt lat="43.4584770" lon="-5.9328820">
        <ele>234.2</ele>
        <time>2018-09-15T12:42:33Z</time>
      </trkpt>
      <trkpt lat="43.4584720" lon="-5.9328470">
        <ele>234.2</ele>
        <time>2018-09-15T12:42:34Z</time>
      </trkpt>
      <trkpt lat="43.4584640" lon="-5.9327640">
        <ele>234.4</ele>
        <time>2018-09-15T12:42:35Z</time>
      </trkpt>
      <trkpt lat="43.4584610" lon="-5.9327100">
        <ele>234.5</ele>
        <time>2018-09-15T12:42:36Z</time>
      </trkpt>
      <trkpt lat="43.4584500" lon="-5.9326560">
        <ele>234.6</ele>
        <time>2018-09-15T12:42:37Z</time>
      </trkpt>
      <trkpt lat="43.4584510" lon="-5.9326050">
        <ele>234.7</ele>
        <time>2018-09-15T12:42:38Z</time>
      </trkpt>
      <trkpt lat="43.4584510" lon="-5.9325510">
        <ele>234.8</ele>
        <time>2018-09-15T12:42:39Z</time>
      </trkpt>
      <trkpt lat="43.4584440" lon="-5.9325070">
        <ele>234.9</ele>
        <time>2018-09-15T12:42:40Z</time>
      </trkpt>
      <trkpt lat="43.4584440" lon="-5.9324620">
        <ele>235.0</ele>
        <time>2018-09-15T12:42:41Z</time>
      </trkpt>
      <trkpt lat="43.4584480" lon="-5.9324340">
        <ele>235.0</ele>
        <time>2018-09-15T12:42:42Z</time>
      </trkpt>
      <trkpt lat="43.4584510" lon="-5.9323960">
        <ele>235.1</ele>
        <time>2018-09-15T12:42:43Z</time>
      </trkpt>
      <trkpt lat="43.4584540" lon="-5.9323570">
        <ele>235.2</ele>
        <time>2018-09-15T12:42:44Z</time>
      </trkpt>
      <trkpt lat="43.4584590" lon="-5.9323250">
        <ele>235.2</ele>
        <time>2018-09-15T12:42:45Z</time>
      </trkpt>
      <trkpt lat="43.4584680" lon="-5.9322850">
        <ele>235.3</ele>
        <time>2018-09-15T12:42:46Z</time>
      </trkpt>
      <trkpt lat="43.4584790" lon="-5.9322460">
        <ele>235.4</ele>
        <time>2018-09-15T12:42:47Z</time>
      </trkpt>
      <trkpt lat="43.4584990" lon="-5.9321910">
        <ele>235.5</ele>
        <time>2018-09-15T12:42:48Z</time>
      </trkpt>
      <trkpt lat="43.4585180" lon="-5.9321350">
        <ele>235.5</ele>
        <time>2018-09-15T12:42:49Z</time>
      </trkpt>
      <trkpt lat="43.4585470" lon="-5.9320750">
        <ele>235.6</ele>
        <time>2018-09-15T12:42:50Z</time>
      </trkpt>
      <trkpt lat="43.4585580" lon="-5.9320500">
        <ele>235.7</ele>
        <time>2018-09-15T12:42:51Z</time>
      </trkpt>
      <trkpt lat="43.4585740" lon="-5.9320210">
        <ele>235.7</ele>
        <time>2018-09-15T12:42:52Z</time>
      </trkpt>
      <trkpt lat="43.4585930" lon="-5.9319940">
        <ele>235.8</ele>
        <time>2018-09-15T12:42:53Z</time>
      </trkpt>
      <trkpt lat="43.4586160" lon="-5.9319630">
        <ele>235.8</ele>
        <time>2018-09-15T12:42:54Z</time>
      </trkpt>
      <trkpt lat="43.4586350" lon="-5.9319380">
        <ele>235.9</ele>
        <time>2018-09-15T12:42:55Z</time>
      </trkpt>
      <trkpt lat="43.4586550" lon="-5.9319120">
        <ele>235.9</ele>
        <time>2018-09-15T12:42:56Z</time>
      </trkpt>
      <trkpt lat="43.4586770" lon="-5.9318840">
        <ele>235.9</ele>
        <time>2018-09-15T12:42:57Z</time>
      </trkpt>
      <trkpt lat="43.4587030" lon="-5.9318540">
        <ele>236.0</ele>
        <time>2018-09-15T12:42:58Z</time>
      </trkpt>
      <trkpt lat="43.4587240" lon="-5.9318300">
        <ele>236.0</ele>
        <time>2018-09-15T12:42:59Z</time>
      </trkpt>
      <trkpt lat="43.4587460" lon="-5.9318050">
        <ele>236.1</ele>
        <time>2018-09-15T12:43:00Z</time>
      </trkpt>
      <trkpt lat="43.4587680" lon="-5.9317800">
        <ele>236.1</ele>
        <time>2018-09-15T12:43:01Z</time>
      </trkpt>
      <trkpt lat="43.4587950" lon="-5.9317500">
        <ele>236.2</ele>
        <time>2018-09-15T12:43:02Z</time>
      </trkpt>
      <trkpt lat="43.4588160" lon="-5.9317260">
        <ele>236.2</ele>
        <time>2018-09-15T12:43:03Z</time>
      </trkpt>
      <trkpt lat="43.4588400" lon="-5.9317000">
        <ele>236.2</ele>
        <time>2018-09-15T12:43:04Z</time>
      </trkpt>
      <trkpt lat="43.4588660" lon="-5.9316690">
        <ele>236.3</ele>
        <time>2018-09-15T12:43:05Z</time>
      </trkpt>
      <trkpt lat="43.4588890" lon="-5.9316420">
        <ele>236.3</ele>
        <time>2018-09-15T12:43:06Z</time>
      </trkpt>
      <trkpt lat="43.4589160" lon="-5.9316110">
        <ele>236.4</ele>
        <time>2018-09-15T12:43:07Z</time>
      </trkpt>
      <trkpt lat="43.4589400" lon="-5.9315840">
        <ele>236.4</ele>
        <time>2018-09-15T12:43:08Z</time>
      </trkpt>
      <trkpt lat="43.4589670" lon="-5.9315520">
        <ele>236.5</ele>
        <time>2018-09-15T12:43:09Z</time>
      </trkpt>
      <trkpt lat="43.4589900" lon="-5.9315240">
        <ele>236.5</ele>
        <time>2018-09-15T12:43:10Z</time>
      </trkpt>
      <trkpt lat="43.4590150" lon="-5.9314920">
        <ele>236.6</ele>
        <time>2018-09-15T12:43:11Z</time>
      </trkpt>
      <trkpt lat="43.4590360" lon="-5.9314630">
        <ele>236.7</ele>
        <time>2018-09-15T12:43:12Z</time>
      </trkpt>
      <trkpt lat="43.4590570" lon="-5.9314330">
        <ele>236.7</ele>
        <time>2018-09-15T12:43:13Z</time>
      </trkpt>
      <trkpt lat="43.4590820" lon="-5.9313990">
        <ele>236.8</ele>
        <time>2018-09-15T12:43:14Z</time>
      </trkpt>
      <trkpt lat="43.4591040" lon="-5.9313670">
        <ele>236.9</ele>
        <time>2018-09-15T12:43:15Z</time>
      </trkpt>
      <trkpt lat="43.4591300" lon="-5.9313330">
        <ele>236.9</ele>
        <time>2018-09-15T12:43:16Z</time>
      </trkpt>
      <trkpt lat="43.4591500" lon="-5.9313040">
        <ele>237.0</ele>
        <time>2018-09-15T12:43:17Z</time>
      </trkpt>
      <trkpt lat="43.4591740" lon="-5.9312700">
        <ele>237.0</ele>
        <time>2018-09-15T12:43:18Z</time>
      </trkpt>
      <trkpt lat="43.4591930" lon="-5.9312400">
        <ele>237.1</ele>
        <time>2018-09-15T12:43:19Z</time>
      </trkpt>
      <trkpt lat="43.4592170" lon="-5.9312060">
        <ele>237.2</ele>
        <time>2018-09-15T12:43:20Z</time>
      </trkpt>
      <trkpt lat="43.4592360" lon="-5.9311790">
        <ele>237.3</ele>
        <time>2018-09-15T12:43:21Z</time>
      </trkpt>
      <trkpt lat="43.4592580" lon="-5.9311500">
        <ele>237.3</ele>
        <time>2018-09-15T12:43:22Z</time>
      </trkpt>
      <trkpt lat="43.4592810" lon="-5.9311170">
        <ele>237.4</ele>
        <time>2018-09-15T12:43:23Z</time>
      </trkpt>
      <trkpt lat="43.4593010" lon="-5.9310910">
        <ele>237.5</ele>
        <time>2018-09-15T12:43:24Z</time>
      </trkpt>
      <trkpt lat="43.4593260" lon="-5.9310600">
        <ele>237.6</ele>
        <time>2018-09-15T12:43:25Z</time>
      </trkpt>
      <trkpt lat="43.4593510" lon="-5.9310310">
        <ele>237.7</ele>
        <time>2018-09-15T12:43:26Z</time>
      </trkpt>
      <trkpt lat="43.4593720" lon="-5.9310070">
        <ele>237.8</ele>
        <time>2018-09-15T12:43:27Z</time>
      </trkpt>
      <trkpt lat="43.4593990" lon="-5.9309770">
        <ele>237.9</ele>
        <time>2018-09-15T12:43:28Z</time>
      </trkpt>
      <trkpt lat="43.4594220" lon="-5.9309520">
        <ele>238.1</ele>
        <time>2018-09-15T12:43:29Z</time>
      </trkpt>
      <trkpt lat="43.4594450" lon="-5.9309280">
        <ele>238.2</ele>
        <time>2018-09-15T12:43:30Z</time>
      </trkpt>
      <trkpt lat="43.4594770" lon="-5.9309000">
        <ele>238.3</ele>
        <time>2018-09-15T12:43:31Z</time>
      </trkpt>
      <trkpt lat="43.4595050" lon="-5.9308770">
        <ele>238.5</ele>
        <time>2018-09-15T12:43:32Z</time>
      </trkpt>
      <trkpt lat="43.4595380" lon="-5.9308540">
        <ele>238.6</ele>
        <time>2018-09-15T12:43:33Z</time>
      </trkpt>
      <trkpt lat="43.4595710" lon="-5.9308340">
        <ele>238.8</ele>
        <time>2018-09-15T12:43:34Z</time>
      </trkpt>
      <trkpt lat="43.4595990" lon="-5.9308180">
        <ele>238.9</ele>
        <time>2018-09-15T12:43:35Z</time>
      </trkpt>
      <trkpt lat="43.4596330" lon="-5.9308050">
        <ele>239.1</ele>
        <time>2018-09-15T12:43:36Z</time>
      </trkpt>
      <trkpt lat="43.4596610" lon="-5.9307950">
        <ele>239.2</ele>
        <time>2018-09-15T12:43:37Z</time>
      </trkpt>
      <trkpt lat="43.4596970" lon="-5.9307880">
        <ele>239.3</ele>
        <time>2018-09-15T12:43:38Z</time>
      </trkpt>
      <trkpt lat="43.4597260" lon="-5.9307820">
        <ele>239.4</ele>
        <time>2018-09-15T12:43:39Z</time>
      </trkpt>
      <trkpt lat="43.4597580" lon="-5.9307810">
        <ele>239.6</ele>
        <time>2018-09-15T12:43:40Z</time>
      </trkpt>
      <trkpt lat="43.4597900" lon="-5.9307820">
        <ele>239.7</ele>
        <time>2018-09-15T12:43:41Z</time>
      </trkpt>
      <trkpt lat="43.4598210" lon="-5.9307880">
        <ele>239.8</ele>
        <time>2018-09-15T12:43:42Z</time>
      </trkpt>
      <trkpt lat="43.4598550" lon="-5.9308000">
        <ele>239.9</ele>
        <time>2018-09-15T12:43:43Z</time>
      </trkpt>
      <trkpt lat="43.4598830" lon="-5.9308110">
        <ele>240.0</ele>
        <time>2018-09-15T12:43:44Z</time>
      </trkpt>
      <trkpt lat="43.4599150" lon="-5.9308290">
        <ele>240.1</ele>
        <time>2018-09-15T12:43:45Z</time>
      </trkpt>
      <trkpt lat="43.4599400" lon="-5.9308440">
        <ele>240.2</ele>
        <time>2018-09-15T12:43:46Z</time>
      </trkpt>
      <trkpt lat="43.4599710" lon="-5.9308640">
        <ele>240.3</ele>
        <time>2018-09-15T12:43:47Z</time>
      </trkpt>
      <trkpt lat="43.4599960" lon="-5.9308810">
        <ele>240.3</ele>
        <time>2018-09-15T12:43:48Z</time>
      </trkpt>
      <trkpt lat="43.4600240" lon="-5.9309020">
        <ele>240.4</ele>
        <time>2018-09-15T12:43:49Z</time>
      </trkpt>
      <trkpt lat="43.4600540" lon="-5.9309290">
        <ele>240.5</ele>
        <time>2018-09-15T12:43:50Z</time>
      </trkpt>
      <trkpt lat="43.4600790" lon="-5.9309520">
        <ele>240.6</ele>
        <time>2018-09-15T12:43:51Z</time>
      </trkpt>
      <trkpt lat="43.4601060" lon="-5.9309810">
        <ele>240.7</ele>
        <time>2018-09-15T12:43:52Z</time>
      </trkpt>
      <trkpt lat="43.4601320" lon="-5.9310100">
        <ele>240.8</ele>
        <time>2018-09-15T12:43:53Z</time>
      </trkpt>
      <trkpt lat="43.4601550" lon="-5.9310350">
        <ele>240.8</ele>
        <time>2018-09-15T12:43:54Z</time>
      </trkpt>
      <trkpt lat="43.4601790" lon="-5.9310620">
        <ele>240.9</ele>
        <time>2018-09-15T12:43:55Z</time>
      </trkpt>
      <trkpt lat="43.4602060" lon="-5.9310930">
        <ele>241.0</ele>
        <time>2018-09-15T12:43:56Z</time>
      </trkpt>
      <trkpt lat="43.4602280" lon="-5.9311190">
        <ele>241.1</ele>
        <time>2018-09-15T12:43:57Z</time>
      </trkpt>
      <trkpt lat="43.4602540" lon="-5.9311490">
        <ele>241.2</ele>
        <time>2018-09-15T12:43:58Z</time>
      </trkpt>
      <trkpt lat="43.4602770" lon="-5.9311760">
        <ele>241.2</ele>
        <time>2018-09-15T12:43:59Z</time>
      </trkpt>
      <trkpt lat="43.4603010" lon="-5.9312020">
        <ele>241.3</ele>
        <time>2018-09-15T12:44:00Z</time>
      </trkpt>
      <trkpt lat="43.4603290" lon="-5.9312330">
        <ele>241.4</ele>
        <time>2018-09-15T12:44:01Z</time>
      </trkpt>
      <trkpt lat="43.4603540" lon="-5.9312590">
        <ele>241.5</ele>
        <time>2018-09-15T12:44:02Z</time>
      </trkpt>
      <trkpt lat="43.4603790" lon="-5.9312870">
        <ele>241.6</ele>
        <time>2018-09-15T12:44:03Z</time>
      </trkpt>
      <trkpt lat="43.4604040" lon="-5.9313140">
        <ele>241.7</ele>
        <time>2018-09-15T12:44:04Z</time>
      </trkpt>
      <trkpt lat="43.4604290" lon="-5.9313400">
        <ele>241.8</ele>
        <time>2018-09-15T12:44:05Z</time>
      </trkpt>
      <trkpt lat="43.4604530" lon="-5.9313650">
        <ele>241.8</ele>
        <time>2018-09-15T12:44:06Z</time>
      </trkpt>
      <trkpt lat="43.4604810" lon="-5.9313900">
        <ele>241.9</ele>
        <time>2018-09-15T12:44:07Z</time>
      </trkpt>
      <trkpt lat="43.4605080" lon="-5.9314170">
        <ele>242.0</ele>
        <time>2018-09-15T12:44:08Z</time>
      </trkpt>
      <trkpt lat="43.4605380" lon="-5.9314470">
        <ele>242.1</ele>
        <time>2018-09-15T12:44:09Z</time>
      </trkpt>
      <trkpt lat="43.4605640" lon="-5.9314720">
        <ele>242.2</ele>
        <time>2018-09-15T12:44:10Z</time>
      </trkpt>
      <trkpt lat="43.4605930" lon="-5.9314990">
        <ele>242.3</ele>
        <time>2018-09-15T12:44:11Z</time>
      </trkpt>
      <trkpt lat="43.4606210" lon="-5.9315260">
        <ele>242.4</ele>
        <time>2018-09-15T12:44:12Z</time>
      </trkpt>
      <trkpt lat="43.4606450" lon="-5.9315480">
        <ele>242.4</ele>
        <time>2018-09-15T12:44:13Z</time>
      </trkpt>
      <trkpt lat="43.4606710" lon="-5.9315710">
        <ele>242.5</ele>
        <time>2018-09-15T12:44:14Z</time>
      </trkpt>
      <trkpt lat="43.4607000" lon="-5.9315950">
        <ele>242.6</ele>
        <time>2018-09-15T12:44:15Z</time>
      </trkpt>
      <trkpt lat="43.4607240" lon="-5.9316150">
        <ele>242.6</ele>
        <time>2018-09-15T12:44:16Z</time>
      </trkpt>
      <trkpt lat="43.4607540" lon="-5.9316360">
        <ele>242.7</ele>
        <time>2018-09-15T12:44:17Z</time>
      </trkpt>
      <trkpt lat="43.4607790" lon="-5.9316510">
        <ele>242.8</ele>
        <time>2018-09-15T12:44:18Z</time>
      </trkpt>
      <trkpt lat="43.4608060" lon="-5.9316640">
        <ele>242.9</ele>
        <time>2018-09-15T12:44:19Z</time>
      </trkpt>
      <trkpt lat="43.4608390" lon="-5.9316740">
        <ele>243.0</ele>
        <time>2018-09-15T12:44:20Z</time>
      </trkpt>
      <trkpt lat="43.4608680" lon="-5.9316790">
        <ele>243.1</ele>
        <time>2018-09-15T12:44:21Z</time>
      </trkpt>
      <trkpt lat="43.4608990" lon="-5.9316820">
        <ele>243.2</ele>
        <time>2018-09-15T12:44:22Z</time>
      </trkpt>
      <trkpt lat="43.4609300" lon="-5.9316820">
        <ele>243.3</ele>
        <time>2018-09-15T12:44:23Z</time>
      </trkpt>
      <trkpt lat="43.4609630" lon="-5.9316810">
        <ele>243.4</ele>
        <time>2018-09-15T12:44:24Z</time>
      </trkpt>
      <trkpt lat="43.4609980" lon="-5.9316750">
        <ele>243.5</ele>
        <time>2018-09-15T12:44:25Z</time>
      </trkpt>
      <trkpt lat="43.4610340" lon="-5.9316670">
        <ele>243.5</ele>
        <time>2018-09-15T12:44:26Z</time>
      </trkpt>
      <trkpt lat="43.4610600" lon="-5.9316590">
        <ele>243.6</ele>
        <time>2018-09-15T12:44:27Z</time>
      </trkpt>
      <trkpt lat="43.4610960" lon="-5.9316530">
        <ele>243.6</ele>
        <time>2018-09-15T12:44:28Z</time>
      </trkpt>
      <trkpt lat="43.4611240" lon="-5.9316440">
        <ele>243.6</ele>
        <time>2018-09-15T12:44:29Z</time>
      </trkpt>
      <trkpt lat="43.4611560" lon="-5.9316430">
        <ele>243.6</ele>
        <time>2018-09-15T12:44:30Z</time>
      </trkpt>
      <trkpt lat="43.4611870" lon="-5.9316410">
        <ele>243.6</ele>
        <time>2018-09-15T12:44:31Z</time>
      </trkpt>
      <trkpt lat="43.4612110" lon="-5.9316350">
        <ele>243.6</ele>
        <time>2018-09-15T12:44:32Z</time>
      </trkpt>
      <trkpt lat="43.4612380" lon="-5.9316260">
        <ele>243.6</ele>
        <time>2018-09-15T12:44:33Z</time>
      </trkpt>
      <trkpt lat="43.4612640" lon="-5.9316150">
        <ele>243.6</ele>
        <time>2018-09-15T12:44:34Z</time>
      </trkpt>
      <trkpt lat="43.4612890" lon="-5.9316040">
        <ele>243.6</ele>
        <time>2018-09-15T12:44:35Z</time>
      </trkpt>
      <trkpt lat="43.4613130" lon="-5.9315880">
        <ele>243.6</ele>
        <time>2018-09-15T12:44:36Z</time>
      </trkpt>
      <trkpt lat="43.4613370" lon="-5.9315730">
        <ele>243.5</ele>
        <time>2018-09-15T12:44:37Z</time>
      </trkpt>
      <trkpt lat="43.4613610" lon="-5.9315560">
        <ele>243.5</ele>
        <time>2018-09-15T12:44:38Z</time>
      </trkpt>
      <trkpt lat="43.4613890" lon="-5.9315370">
        <ele>243.5</ele>
        <time>2018-09-15T12:44:39Z</time>
      </trkpt>
      <trkpt lat="43.4614120" lon="-5.9315230">
        <ele>243.4</ele>
        <time>2018-09-15T12:44:40Z</time>
      </trkpt>
      <trkpt lat="43.4614360" lon="-5.9315110">
        <ele>243.3</ele>
        <time>2018-09-15T12:44:41Z</time>
      </trkpt>
      <trkpt lat="43.4614660" lon="-5.9315080">
        <ele>243.1</ele>
        <time>2018-09-15T12:44:42Z</time>
      </trkpt>
      <trkpt lat="43.4614940" lon="-5.9315140">
        <ele>243.0</ele>
        <time>2018-09-15T12:44:43Z</time>
      </trkpt>
      <trkpt lat="43.4615180" lon="-5.9315220">
        <ele>243.0</ele>
        <time>2018-09-15T12:44:44Z</time>
      </trkpt>
      <trkpt lat="43.4615460" lon="-5.9315400">
        <ele>243.2</ele>
        <time>2018-09-15T12:44:45Z</time>
      </trkpt>
      <trkpt lat="43.4615740" lon="-5.9315610">
        <ele>243.3</ele>
        <time>2018-09-15T12:44:46Z</time>
      </trkpt>
      <trkpt lat="43.4615990" lon="-5.9315800">
        <ele>243.4</ele>
        <time>2018-09-15T12:44:47Z</time>
      </trkpt>
      <trkpt lat="43.4616290" lon="-5.9316060">
        <ele>243.5</ele>
        <time>2018-09-15T12:44:48Z</time>
      </trkpt>
      <trkpt lat="43.4616580" lon="-5.9316320">
        <ele>243.5</ele>
        <time>2018-09-15T12:44:49Z</time>
      </trkpt>
      <trkpt lat="43.4616850" lon="-5.9316530">
        <ele>243.6</ele>
        <time>2018-09-15T12:44:50Z</time>
      </trkpt>
      <trkpt lat="43.4617160" lon="-5.9316790">
        <ele>243.8</ele>
        <time>2018-09-15T12:44:51Z</time>
      </trkpt>
      <trkpt lat="43.4617430" lon="-5.9316960">
        <ele>243.9</ele>
        <time>2018-09-15T12:44:52Z</time>
      </trkpt>
      <trkpt lat="43.4617740" lon="-5.9317140">
        <ele>244.1</ele>
        <time>2018-09-15T12:44:53Z</time>
      </trkpt>
      <trkpt lat="43.4618040" lon="-5.9317290">
        <ele>244.3</ele>
        <time>2018-09-15T12:44:54Z</time>
      </trkpt>
      <trkpt lat="43.4618300" lon="-5.9317420">
        <ele>244.6</ele>
        <time>2018-09-15T12:44:55Z</time>
      </trkpt>
      <trkpt lat="43.4618570" lon="-5.9317560">
        <ele>244.9</ele>
        <time>2018-09-15T12:44:56Z</time>
      </trkpt>
      <trkpt lat="43.4618890" lon="-5.9317730">
        <ele>245.0</ele>
        <time>2018-09-15T12:44:57Z</time>
      </trkpt>
      <trkpt lat="43.4619210" lon="-5.9317870">
        <ele>245.0</ele>
        <time>2018-09-15T12:44:58Z</time>
      </trkpt>
      <trkpt lat="43.4619470" lon="-5.9318020">
        <ele>245.0</ele>
        <time>2018-09-15T12:44:59Z</time>
      </trkpt>
      <trkpt lat="43.4619760" lon="-5.9318230">
        <ele>245.0</ele>
        <time>2018-09-15T12:45:00Z</time>
      </trkpt>
      <trkpt lat="43.4619980" lon="-5.9318420">
        <ele>245.0</ele>
        <time>2018-09-15T12:45:01Z</time>
      </trkpt>
      <trkpt lat="43.4620180" lon="-5.9318630">
        <ele>245.0</ele>
        <time>2018-09-15T12:45:02Z</time>
      </trkpt>
      <trkpt lat="43.4620340" lon="-5.9318930">
        <ele>245.0</ele>
        <time>2018-09-15T12:45:03Z</time>
      </trkpt>
      <trkpt lat="43.4620400" lon="-5.9319190">
        <ele>245.0</ele>
        <time>2018-09-15T12:45:04Z</time>
      </trkpt>
      <trkpt lat="43.4620460" lon="-5.9319320">
        <ele>245.0</ele>
        <time>2018-09-15T12:45:05Z</time>
      </trkpt>
      <trkpt lat="43.4620490" lon="-5.9319420">
        <ele>245.0</ele>
        <time>2018-09-15T12:45:06Z</time>
      </trkpt>
      <trkpt lat="43.4620510" lon="-5.9319510">
        <ele>245.0</ele>
        <time>2018-09-15T12:45:07Z</time>
      </trkpt>
      <trkpt lat="43.4620500" lon="-5.9319590">
        <ele>245.0</ele>
        <time>2018-09-15T12:45:08Z</time>
      </trkpt>
      <trkpt lat="43.4620470" lon="-5.9319610">
        <ele>245.0</ele>
        <time>2018-09-15T12:45:09Z</time>
      </trkpt>
      <trkpt lat="43.4620400" lon="-5.9319630">
        <ele>245.0</ele>
        <time>2018-09-15T12:45:10Z</time>
      </trkpt>
      <trkpt lat="43.4620400" lon="-5.9319630">
        <ele>245.0</ele>
        <time>2018-09-15T12:45:11Z</time>
      </trkpt>
      <trkpt lat="43.4620400" lon="-5.9319630">
        <ele>245.0</ele>
        <time>2018-09-15T12:45:12Z</time>
      </trkpt>
      <trkpt lat="43.4620300" lon="-5.9319640">
        <ele>245.0</ele>
        <time>2018-09-15T12:45:13Z</time>
      </trkpt>
      <trkpt lat="43.4620310" lon="-5.9319610">
        <ele>245.0</ele>
        <time>2018-09-15T12:45:14Z</time>
      </trkpt>
      <trkpt lat="43.4620320" lon="-5.9319590">
        <ele>245.0</ele>
        <time>2018-09-15T12:45:15Z</time>
      </trkpt>
      <trkpt lat="43.4620330" lon="-5.9319570">
        <ele>245.0</ele>
        <time>2018-09-15T12:45:16Z</time>
      </trkpt>
      <trkpt lat="43.4620330" lon="-5.9319560">
        <ele>245.0</ele>
        <time>2018-09-15T12:45:17Z</time>
      </trkpt>
      <trkpt lat="43.4620330" lon="-5.9319550">
        <ele>245.0</ele>
        <time>2018-09-15T12:45:18Z</time>
      </trkpt>
      <trkpt lat="43.4620270" lon="-5.9319640">
        <ele>245.0</ele>
        <time>2018-09-15T12:49:03Z</time>
      </trkpt>
      <trkpt lat="43.4620270" lon="-5.9319640">
        <ele>245.0</ele>
        <time>2018-09-15T12:49:04Z</time>
      </trkpt>
      <trkpt lat="43.4620270" lon="-5.9319640">
        <ele>245.0</ele>
        <time>2018-09-15T12:49:05Z</time>
      </trkpt>
      <trkpt lat="43.4620240" lon="-5.9319660">
        <ele>245.0</ele>
        <time>2018-09-15T12:49:06Z</time>
      </trkpt>
      <trkpt lat="43.4620070" lon="-5.9319690">
        <ele>245.0</ele>
        <time>2018-09-15T12:49:07Z</time>
      </trkpt>
      <trkpt lat="43.4619890" lon="-5.9319560">
        <ele>245.0</ele>
        <time>2018-09-15T12:49:08Z</time>
      </trkpt>
      <trkpt lat="43.4619830" lon="-5.9319450">
        <ele>245.0</ele>
        <time>2018-09-15T12:49:09Z</time>
      </trkpt>
      <trkpt lat="43.4619840" lon="-5.9319220">
        <ele>245.0</ele>
        <time>2018-09-15T12:49:10Z</time>
      </trkpt>
      <trkpt lat="43.4619910" lon="-5.9319020">
        <ele>245.0</ele>
        <time>2018-09-15T12:49:11Z</time>
      </trkpt>
      <trkpt lat="43.4620070" lon="-5.9318810">
        <ele>245.0</ele>
        <time>2018-09-15T12:49:12Z</time>
      </trkpt>
      <trkpt lat="43.4620300" lon="-5.9318610">
        <ele>245.0</ele>
        <time>2018-09-15T12:49:13Z</time>
      </trkpt>
      <trkpt lat="43.4620460" lon="-5.9318520">
        <ele>245.0</ele>
        <time>2018-09-15T12:49:14Z</time>
      </trkpt>
      <trkpt lat="43.4620620" lon="-5.9318470">
        <ele>245.0</ele>
        <time>2018-09-15T12:49:15Z</time>
      </trkpt>
      <trkpt lat="43.4620810" lon="-5.9318440">
        <ele>245.0</ele>
        <time>2018-09-15T12:49:16Z</time>
      </trkpt>
      <trkpt lat="43.4621260" lon="-5.9318430">
        <ele>245.1</ele>
        <time>2018-09-15T12:49:17Z</time>
      </trkpt>
      <trkpt lat="43.4621700" lon="-5.9318410">
        <ele>245.1</ele>
        <time>2018-09-15T12:49:19Z</time>
      </trkpt>
      <trkpt lat="43.4622140" lon="-5.9318420">
        <ele>245.1</ele>
        <time>2018-09-15T12:49:20Z</time>
      </trkpt>
      <trkpt lat="43.4623210" lon="-5.9318550">
        <ele>245.1</ele>
        <time>2018-09-15T12:49:21Z</time>
      </trkpt>
      <trkpt lat="43.4623580" lon="-5.9318660">
        <ele>245.1</ele>
        <time>2018-09-15T12:49:22Z</time>
      </trkpt>
      <trkpt lat="43.4624080" lon="-5.9318770">
        <ele>245.2</ele>
        <time>2018-09-15T12:49:23Z</time>
      </trkpt>
      <trkpt lat="43.4624490" lon="-5.9318800">
        <ele>245.2</ele>
        <time>2018-09-15T12:49:24Z</time>
      </trkpt>
      <trkpt lat="43.4624920" lon="-5.9318850">
        <ele>245.2</ele>
        <time>2018-09-15T12:49:25Z</time>
      </trkpt>
      <trkpt lat="43.4625230" lon="-5.9319060">
        <ele>245.2</ele>
        <time>2018-09-15T12:49:26Z</time>
      </trkpt>
      <trkpt lat="43.4625650" lon="-5.9319440">
        <ele>245.3</ele>
        <time>2018-09-15T12:49:27Z</time>
      </trkpt>
      <trkpt lat="43.4625970" lon="-5.9319830">
        <ele>245.3</ele>
        <time>2018-09-15T12:49:28Z</time>
      </trkpt>
      <trkpt lat="43.4626290" lon="-5.9320290">
        <ele>245.3</ele>
        <time>2018-09-15T12:49:29Z</time>
      </trkpt>
      <trkpt lat="43.4626570" lon="-5.9320700">
        <ele>245.3</ele>
        <time>2018-09-15T12:49:30Z</time>
      </trkpt>
      <trkpt lat="43.4626750" lon="-5.9321230">
        <ele>245.4</ele>
        <time>2018-09-15T12:49:31Z</time>
      </trkpt>
      <trkpt lat="43.4626920" lon="-5.9321870">
        <ele>245.4</ele>
        <time>2018-09-15T12:49:32Z</time>
      </trkpt>
      <trkpt lat="43.4626960" lon="-5.9322500">
        <ele>245.4</ele>
        <time>2018-09-15T12:49:33Z</time>
      </trkpt>
      <trkpt lat="43.4626910" lon="-5.9323110">
        <ele>245.5</ele>
        <time>2018-09-15T12:49:34Z</time>
      </trkpt>
      <trkpt lat="43.4627030" lon="-5.9324220">
        <ele>245.5</ele>
        <time>2018-09-15T12:49:35Z</time>
      </trkpt>
      <trkpt lat="43.4627070" lon="-5.9324860">
        <ele>245.5</ele>
        <time>2018-09-15T12:49:36Z</time>
      </trkpt>
      <trkpt lat="43.4627100" lon="-5.9325510">
        <ele>245.6</ele>
        <time>2018-09-15T12:49:37Z</time>
      </trkpt>
      <trkpt lat="43.4627130" lon="-5.9326160">
        <ele>245.6</ele>
        <time>2018-09-15T12:49:38Z</time>
      </trkpt>
      <trkpt lat="43.4627150" lon="-5.9326810">
        <ele>245.6</ele>
        <time>2018-09-15T12:49:39Z</time>
      </trkpt>
      <trkpt lat="43.4627290" lon="-5.9327520">
        <ele>245.7</ele>
        <time>2018-09-15T12:49:40Z</time>
      </trkpt>
      <trkpt lat="43.4627540" lon="-5.9328100">
        <ele>245.7</ele>
        <time>2018-09-15T12:49:41Z</time>
      </trkpt>
      <trkpt lat="43.4627790" lon="-5.9328690">
        <ele>245.7</ele>
        <time>2018-09-15T12:49:42Z</time>
      </trkpt>
      <trkpt lat="43.4628110" lon="-5.9329170">
        <ele>245.8</ele>
        <time>2018-09-15T12:49:43Z</time>
      </trkpt>
      <trkpt lat="43.4628390" lon="-5.9329590">
        <ele>245.8</ele>
        <time>2018-09-15T12:49:44Z</time>
      </trkpt>
      <trkpt lat="43.4628900" lon="-5.9329930">
        <ele>245.8</ele>
        <time>2018-09-15T12:49:45Z</time>
      </trkpt>
      <trkpt lat="43.4629320" lon="-5.9330190">
        <ele>245.9</ele>
        <time>2018-09-15T12:49:46Z</time>
      </trkpt>
      <trkpt lat="43.4629710" lon="-5.9330400">
        <ele>245.9</ele>
        <time>2018-09-15T12:49:47Z</time>
      </trkpt>
      <trkpt lat="43.4630100" lon="-5.9330600">
        <ele>246.0</ele>
        <time>2018-09-15T12:49:48Z</time>
      </trkpt>
      <trkpt lat="43.4630580" lon="-5.9330600">
        <ele>246.0</ele>
        <time>2018-09-15T12:49:49Z</time>
      </trkpt>
      <trkpt lat="43.4631090" lon="-5.9330730">
        <ele>246.1</ele>
        <time>2018-09-15T12:49:50Z</time>
      </trkpt>
      <trkpt lat="43.4631500" lon="-5.9330670">
        <ele>246.2</ele>
        <time>2018-09-15T12:49:51Z</time>
      </trkpt>
      <trkpt lat="43.4631960" lon="-5.9330510">
        <ele>246.4</ele>
        <time>2018-09-15T12:49:52Z</time>
      </trkpt>
      <trkpt lat="43.4632430" lon="-5.9330450">
        <ele>246.6</ele>
        <time>2018-09-15T12:49:53Z</time>
      </trkpt>
      <trkpt lat="43.4632840" lon="-5.9330350">
        <ele>246.9</ele>
        <time>2018-09-15T12:49:54Z</time>
      </trkpt>
      <trkpt lat="43.4633390" lon="-5.9330090">
        <ele>247.4</ele>
        <time>2018-09-15T12:49:55Z</time>
      </trkpt>
      <trkpt lat="43.4633930" lon="-5.9329830">
        <ele>247.7</ele>
        <time>2018-09-15T12:49:56Z</time>
      </trkpt>
      <trkpt lat="43.4634450" lon="-5.9329810">
        <ele>248.0</ele>
        <time>2018-09-15T12:49:57Z</time>
      </trkpt>
      <trkpt lat="43.4635000" lon="-5.9329670">
        <ele>248.2</ele>
        <time>2018-09-15T12:49:58Z</time>
      </trkpt>
      <trkpt lat="43.4635540" lon="-5.9329570">
        <ele>248.4</ele>
        <time>2018-09-15T12:49:59Z</time>
      </trkpt>
      <trkpt lat="43.4636030" lon="-5.9329250">
        <ele>248.4</ele>
        <time>2018-09-15T12:50:00Z</time>
      </trkpt>
      <trkpt lat="43.4636630" lon="-5.9329050">
        <ele>248.5</ele>
        <time>2018-09-15T12:50:01Z</time>
      </trkpt>
      <trkpt lat="43.4637250" lon="-5.9328910">
        <ele>248.6</ele>
        <time>2018-09-15T12:50:02Z</time>
      </trkpt>
      <trkpt lat="43.4637870" lon="-5.9328760">
        <ele>248.6</ele>
        <time>2018-09-15T12:50:03Z</time>
      </trkpt>
      <trkpt lat="43.4638480" lon="-5.9328590">
        <ele>248.7</ele>
        <time>2018-09-15T12:50:04Z</time>
      </trkpt>
      <trkpt lat="43.4639070" lon="-5.9328660">
        <ele>248.7</ele>
        <time>2018-09-15T12:50:05Z</time>
      </trkpt>
      <trkpt lat="43.4639720" lon="-5.9328960">
        <ele>248.8</ele>
        <time>2018-09-15T12:50:06Z</time>
      </trkpt>
      <trkpt lat="43.4640440" lon="-5.9329190">
        <ele>248.9</ele>
        <time>2018-09-15T12:50:07Z</time>
      </trkpt>
      <trkpt lat="43.4641150" lon="-5.9329610">
        <ele>248.9</ele>
        <time>2018-09-15T12:50:08Z</time>
      </trkpt>
      <trkpt lat="43.4641760" lon="-5.9330100">
        <ele>249.0</ele>
        <time>2018-09-15T12:50:09Z</time>
      </trkpt>
      <trkpt lat="43.4642420" lon="-5.9330440">
        <ele>249.0</ele>
        <time>2018-09-15T12:50:10Z</time>
      </trkpt>
      <trkpt lat="43.4643000" lon="-5.9330850">
        <ele>249.0</ele>
        <time>2018-09-15T12:50:11Z</time>
      </trkpt>
      <trkpt lat="43.4643560" lon="-5.9331310">
        <ele>249.0</ele>
        <time>2018-09-15T12:50:12Z</time>
      </trkpt>
      <trkpt lat="43.4644120" lon="-5.9331790">
        <ele>249.0</ele>
        <time>2018-09-15T12:50:13Z</time>
      </trkpt>
      <trkpt lat="43.4644650" lon="-5.9332190">
        <ele>249.1</ele>
        <time>2018-09-15T12:50:14Z</time>
      </trkpt>
      <trkpt lat="43.4645180" lon="-5.9332690">
        <ele>249.1</ele>
        <time>2018-09-15T12:50:15Z</time>
      </trkpt>
      <trkpt lat="43.4645820" lon="-5.9333170">
        <ele>249.1</ele>
        <time>2018-09-15T12:50:16Z</time>
      </trkpt>
      <trkpt lat="43.4646400" lon="-5.9333550">
        <ele>249.0</ele>
        <time>2018-09-15T12:50:17Z</time>
      </trkpt>
      <trkpt lat="43.4646900" lon="-5.9333990">
        <ele>249.0</ele>
        <time>2018-09-15T12:50:18Z</time>
      </trkpt>
      <trkpt lat="43.4647450" lon="-5.9334390">
        <ele>249.0</ele>
        <time>2018-09-15T12:50:19Z</time>
      </trkpt>
      <trkpt lat="43.4648030" lon="-5.9334840">
        <ele>248.9</ele>
        <time>2018-09-15T12:50:20Z</time>
      </trkpt>
      <trkpt lat="43.4648640" lon="-5.9335240">
        <ele>248.8</ele>
        <time>2018-09-15T12:50:21Z</time>
      </trkpt>
      <trkpt lat="43.4649230" lon="-5.9335680">
        <ele>248.5</ele>
        <time>2018-09-15T12:50:22Z</time>
      </trkpt>
      <trkpt lat="43.4649880" lon="-5.9336110">
        <ele>248.3</ele>
        <time>2018-09-15T12:50:23Z</time>
      </trkpt>
      <trkpt lat="43.4650510" lon="-5.9336570">
        <ele>248.1</ele>
        <time>2018-09-15T12:50:24Z</time>
      </trkpt>
      <trkpt lat="43.4651160" lon="-5.9337030">
        <ele>247.9</ele>
        <time>2018-09-15T12:50:25Z</time>
      </trkpt>
      <trkpt lat="43.4651820" lon="-5.9337550">
        <ele>247.8</ele>
        <time>2018-09-15T12:50:26Z</time>
      </trkpt>
      <trkpt lat="43.4652460" lon="-5.9338030">
        <ele>247.8</ele>
        <time>2018-09-15T12:50:27Z</time>
      </trkpt>
      <trkpt lat="43.4653110" lon="-5.9338440">
        <ele>247.7</ele>
        <time>2018-09-15T12:50:28Z</time>
      </trkpt>
      <trkpt lat="43.4653710" lon="-5.9338930">
        <ele>247.7</ele>
        <time>2018-09-15T12:50:29Z</time>
      </trkpt>
      <trkpt lat="43.4654390" lon="-5.9339380">
        <ele>247.7</ele>
        <time>2018-09-15T12:50:30Z</time>
      </trkpt>
      <trkpt lat="43.4655040" lon="-5.9339800">
        <ele>247.7</ele>
        <time>2018-09-15T12:50:31Z</time>
      </trkpt>
      <trkpt lat="43.4655680" lon="-5.9340180">
        <ele>247.6</ele>
        <time>2018-09-15T12:50:32Z</time>
      </trkpt>
      <trkpt lat="43.4656360" lon="-5.9340350">
        <ele>247.6</ele>
        <time>2018-09-15T12:50:33Z</time>
      </trkpt>
      <trkpt lat="43.4657080" lon="-5.9340360">
        <ele>247.5</ele>
        <time>2018-09-15T12:50:34Z</time>
      </trkpt>
      <trkpt lat="43.4657710" lon="-5.9340110">
        <ele>247.4</ele>
        <time>2018-09-15T12:50:35Z</time>
      </trkpt>
      <trkpt lat="43.4658280" lon="-5.9339680">
        <ele>247.2</ele>
        <time>2018-09-15T12:50:36Z</time>
      </trkpt>
      <trkpt lat="43.4658800" lon="-5.9339100">
        <ele>247.0</ele>
        <time>2018-09-15T12:50:37Z</time>
      </trkpt>
      <trkpt lat="43.4659400" lon="-5.9338460">
        <ele>246.8</ele>
        <time>2018-09-15T12:50:38Z</time>
      </trkpt>
      <trkpt lat="43.4659950" lon="-5.9337850">
        <ele>246.6</ele>
        <time>2018-09-15T12:50:39Z</time>
      </trkpt>
      <trkpt lat="43.4660500" lon="-5.9337210">
        <ele>246.5</ele>
        <time>2018-09-15T12:50:40Z</time>
      </trkpt>
      <trkpt lat="43.4661000" lon="-5.9336470">
        <ele>246.3</ele>
        <time>2018-09-15T12:50:41Z</time>
      </trkpt>
      <trkpt lat="43.4661570" lon="-5.9335750">
        <ele>246.2</ele>
        <time>2018-09-15T12:50:42Z</time>
      </trkpt>
      <trkpt lat="43.4662160" lon="-5.9335120">
        <ele>246.0</ele>
        <time>2018-09-15T12:50:43Z</time>
      </trkpt>
      <trkpt lat="43.4662750" lon="-5.9334420">
        <ele>245.7</ele>
        <time>2018-09-15T12:50:44Z</time>
      </trkpt>
      <trkpt lat="43.4663360" lon="-5.9333850">
        <ele>245.4</ele>
        <time>2018-09-15T12:50:45Z</time>
      </trkpt>
      <trkpt lat="43.4663940" lon="-5.9333110">
        <ele>245.1</ele>
        <time>2018-09-15T12:50:46Z</time>
      </trkpt>
      <trkpt lat="43.4664510" lon="-5.9332480">
        <ele>244.9</ele>
        <time>2018-09-15T12:50:47Z</time>
      </trkpt>
      <trkpt lat="43.4665040" lon="-5.9331820">
        <ele>244.8</ele>
        <time>2018-09-15T12:50:48Z</time>
      </trkpt>
      <trkpt lat="43.4665630" lon="-5.9331120">
        <ele>244.8</ele>
        <time>2018-09-15T12:50:49Z</time>
      </trkpt>
      <trkpt lat="43.4666190" lon="-5.9330430">
        <ele>244.7</ele>
        <time>2018-09-15T12:50:50Z</time>
      </trkpt>
      <trkpt lat="43.4666730" lon="-5.9329740">
        <ele>244.7</ele>
        <time>2018-09-15T12:50:51Z</time>
      </trkpt>
      <trkpt lat="43.4667310" lon="-5.9329110">
        <ele>244.6</ele>
        <time>2018-09-15T12:50:52Z</time>
      </trkpt>
      <trkpt lat="43.4667870" lon="-5.9328510">
        <ele>244.6</ele>
        <time>2018-09-15T12:50:53Z</time>
      </trkpt>
      <trkpt lat="43.4668410" lon="-5.9327800">
        <ele>244.5</ele>
        <time>2018-09-15T12:50:54Z</time>
      </trkpt>
      <trkpt lat="43.4668960" lon="-5.9327180">
        <ele>244.4</ele>
        <time>2018-09-15T12:50:55Z</time>
      </trkpt>
      <trkpt lat="43.4669520" lon="-5.9326660">
        <ele>244.3</ele>
        <time>2018-09-15T12:50:56Z</time>
      </trkpt>
      <trkpt lat="43.4670060" lon="-5.9325990">
        <ele>244.2</ele>
        <time>2018-09-15T12:50:57Z</time>
      </trkpt>
      <trkpt lat="43.4670610" lon="-5.9325410">
        <ele>243.9</ele>
        <time>2018-09-15T12:50:58Z</time>
      </trkpt>
      <trkpt lat="43.4671170" lon="-5.9324800">
        <ele>243.7</ele>
        <time>2018-09-15T12:50:59Z</time>
      </trkpt>
      <trkpt lat="43.4671850" lon="-5.9324380">
        <ele>243.4</ele>
        <time>2018-09-15T12:51:00Z</time>
      </trkpt>
      <trkpt lat="43.4672480" lon="-5.9323860">
        <ele>243.3</ele>
        <time>2018-09-15T12:51:01Z</time>
      </trkpt>
      <trkpt lat="43.4673120" lon="-5.9323470">
        <ele>243.2</ele>
        <time>2018-09-15T12:51:02Z</time>
      </trkpt>
      <trkpt lat="43.4673830" lon="-5.9323080">
        <ele>243.1</ele>
        <time>2018-09-15T12:51:03Z</time>
      </trkpt>
      <trkpt lat="43.4674540" lon="-5.9322800">
        <ele>243.0</ele>
        <time>2018-09-15T12:51:04Z</time>
      </trkpt>
      <trkpt lat="43.4675230" lon="-5.9322540">
        <ele>242.9</ele>
        <time>2018-09-15T12:51:05Z</time>
      </trkpt>
      <trkpt lat="43.4675990" lon="-5.9322390">
        <ele>242.8</ele>
        <time>2018-09-15T12:51:06Z</time>
      </trkpt>
      <trkpt lat="43.4676710" lon="-5.9322120">
        <ele>242.7</ele>
        <time>2018-09-15T12:51:07Z</time>
      </trkpt>
      <trkpt lat="43.4677420" lon="-5.9321830">
        <ele>242.6</ele>
        <time>2018-09-15T12:51:08Z</time>
      </trkpt>
      <trkpt lat="43.4678140" lon="-5.9321590">
        <ele>242.3</ele>
        <time>2018-09-15T12:51:09Z</time>
      </trkpt>
      <trkpt lat="43.4678830" lon="-5.9321280">
        <ele>242.0</ele>
        <time>2018-09-15T12:51:10Z</time>
      </trkpt>
      <trkpt lat="43.4679510" lon="-5.9321020">
        <ele>241.8</ele>
        <time>2018-09-15T12:51:11Z</time>
      </trkpt>
      <trkpt lat="43.4680240" lon="-5.9320820">
        <ele>241.5</ele>
        <time>2018-09-15T12:51:12Z</time>
      </trkpt>
      <trkpt lat="43.4681010" lon="-5.9320540">
        <ele>241.3</ele>
        <time>2018-09-15T12:51:13Z</time>
      </trkpt>
      <trkpt lat="43.4681820" lon="-5.9320320">
        <ele>241.2</ele>
        <time>2018-09-15T12:51:14Z</time>
      </trkpt>
      <trkpt lat="43.4682590" lon="-5.9320080">
        <ele>240.9</ele>
        <time>2018-09-15T12:51:15Z</time>
      </trkpt>
      <trkpt lat="43.4683340" lon="-5.9319780">
        <ele>240.6</ele>
        <time>2018-09-15T12:51:16Z</time>
      </trkpt>
      <trkpt lat="43.4684120" lon="-5.9319530">
        <ele>240.3</ele>
        <time>2018-09-15T12:51:17Z</time>
      </trkpt>
      <trkpt lat="43.4684820" lon="-5.9319240">
        <ele>240.1</ele>
        <time>2018-09-15T12:51:18Z</time>
      </trkpt>
      <trkpt lat="43.4685550" lon="-5.9319010">
        <ele>239.9</ele>
        <time>2018-09-15T12:51:19Z</time>
      </trkpt>
      <trkpt lat="43.4686330" lon="-5.9318710">
        <ele>239.8</ele>
        <time>2018-09-15T12:51:20Z</time>
      </trkpt>
      <trkpt lat="43.4687050" lon="-5.9318530">
        <ele>239.7</ele>
        <time>2018-09-15T12:51:21Z</time>
      </trkpt>
      <trkpt lat="43.4687740" lon="-5.9318320">
        <ele>239.7</ele>
        <time>2018-09-15T12:51:22Z</time>
      </trkpt>
      <trkpt lat="43.4688440" lon="-5.9317960">
        <ele>239.6</ele>
        <time>2018-09-15T12:51:23Z</time>
      </trkpt>
      <trkpt lat="43.4689150" lon="-5.9317560">
        <ele>239.5</ele>
        <time>2018-09-15T12:51:24Z</time>
      </trkpt>
      <trkpt lat="43.4689880" lon="-5.9317340">
        <ele>239.5</ele>
        <time>2018-09-15T12:51:25Z</time>
      </trkpt>
      <trkpt lat="43.4690590" lon="-5.9317020">
        <ele>239.4</ele>
        <time>2018-09-15T12:51:26Z</time>
      </trkpt>
      <trkpt lat="43.4691340" lon="-5.9316800">
        <ele>239.3</ele>
        <time>2018-09-15T12:51:27Z</time>
      </trkpt>
      <trkpt lat="43.4692080" lon="-5.9316630">
        <ele>239.2</ele>
        <time>2018-09-15T12:51:28Z</time>
      </trkpt>
      <trkpt lat="43.4692840" lon="-5.9316400">
        <ele>239.0</ele>
        <time>2018-09-15T12:51:29Z</time>
      </trkpt>
      <trkpt lat="43.4693510" lon="-5.9316110">
        <ele>238.8</ele>
        <time>2018-09-15T12:51:30Z</time>
      </trkpt>
      <trkpt lat="43.4694190" lon="-5.9315830">
        <ele>238.6</ele>
        <time>2018-09-15T12:51:31Z</time>
      </trkpt>
      <trkpt lat="43.4694850" lon="-5.9315630">
        <ele>238.5</ele>
        <time>2018-09-15T12:51:32Z</time>
      </trkpt>
      <trkpt lat="43.4695470" lon="-5.9315560">
        <ele>238.4</ele>
        <time>2018-09-15T12:51:33Z</time>
      </trkpt>
      <trkpt lat="43.4696100" lon="-5.9315380">
        <ele>238.4</ele>
        <time>2018-09-15T12:51:34Z</time>
      </trkpt>
      <trkpt lat="43.4696680" lon="-5.9315180">
        <ele>238.4</ele>
        <time>2018-09-15T12:51:35Z</time>
      </trkpt>
      <trkpt lat="43.4697280" lon="-5.9315020">
        <ele>238.3</ele>
        <time>2018-09-15T12:51:36Z</time>
      </trkpt>
      <trkpt lat="43.4697870" lon="-5.9314870">
        <ele>238.3</ele>
        <time>2018-09-15T12:51:37Z</time>
      </trkpt>
      <trkpt lat="43.4698440" lon="-5.9314630">
        <ele>238.3</ele>
        <time>2018-09-15T12:51:38Z</time>
      </trkpt>
      <trkpt lat="43.4698980" lon="-5.9314460">
        <ele>238.3</ele>
        <time>2018-09-15T12:51:39Z</time>
      </trkpt>
      <trkpt lat="43.4699460" lon="-5.9314280">
        <ele>238.3</ele>
        <time>2018-09-15T12:51:40Z</time>
      </trkpt>
      <trkpt lat="43.4699940" lon="-5.9314080">
        <ele>238.3</ele>
        <time>2018-09-15T12:51:41Z</time>
      </trkpt>
      <trkpt lat="43.4700390" lon="-5.9313840">
        <ele>238.4</ele>
        <time>2018-09-15T12:51:42Z</time>
      </trkpt>
      <trkpt lat="43.4700770" lon="-5.9313530">
        <ele>238.4</ele>
        <time>2018-09-15T12:51:43Z</time>
      </trkpt>
      <trkpt lat="43.4701070" lon="-5.9313230">
        <ele>238.4</ele>
        <time>2018-09-15T12:51:44Z</time>
      </trkpt>
      <trkpt lat="43.4701310" lon="-5.9312860">
        <ele>238.5</ele>
        <time>2018-09-15T12:51:45Z</time>
      </trkpt>
      <trkpt lat="43.4701760" lon="-5.9312530">
        <ele>238.5</ele>
        <time>2018-09-15T12:51:46Z</time>
      </trkpt>
      <trkpt lat="43.4702070" lon="-5.9312230">
        <ele>238.6</ele>
        <time>2018-09-15T12:51:47Z</time>
      </trkpt>
      <trkpt lat="43.4702450" lon="-5.9311880">
        <ele>238.6</ele>
        <time>2018-09-15T12:51:48Z</time>
      </trkpt>
      <trkpt lat="43.4702850" lon="-5.9311420">
        <ele>238.7</ele>
        <time>2018-09-15T12:51:49Z</time>
      </trkpt>
      <trkpt lat="43.4703190" lon="-5.9310940">
        <ele>238.8</ele>
        <time>2018-09-15T12:51:50Z</time>
      </trkpt>
      <trkpt lat="43.4703440" lon="-5.9310480">
        <ele>238.8</ele>
        <time>2018-09-15T12:51:51Z</time>
      </trkpt>
      <trkpt lat="43.4703830" lon="-5.9310090">
        <ele>238.9</ele>
        <time>2018-09-15T12:51:52Z</time>
      </trkpt>
      <trkpt lat="43.4704050" lon="-5.9309650">
        <ele>239.0</ele>
        <time>2018-09-15T12:51:53Z</time>
      </trkpt>
      <trkpt lat="43.4704200" lon="-5.9309160">
        <ele>239.0</ele>
        <time>2018-09-15T12:51:54Z</time>
      </trkpt>
      <trkpt lat="43.4704390" lon="-5.9308640">
        <ele>239.0</ele>
        <time>2018-09-15T12:51:55Z</time>
      </trkpt>
      <trkpt lat="43.4704570" lon="-5.9308090">
        <ele>239.0</ele>
        <time>2018-09-15T12:51:56Z</time>
      </trkpt>
      <trkpt lat="43.4704740" lon="-5.9307570">
        <ele>239.0</ele>
        <time>2018-09-15T12:51:57Z</time>
      </trkpt>
      <trkpt lat="43.4704770" lon="-5.9307500">
        <ele>239.0</ele>
        <time>2018-09-15T12:51:58Z</time>
      </trkpt>
      <trkpt lat="43.4704820" lon="-5.9307350">
        <ele>239.0</ele>
        <time>2018-09-15T12:51:59Z</time>
      </trkpt>
      <trkpt lat="43.4704930" lon="-5.9307010">
        <ele>239.1</ele>
        <time>2018-09-15T12:52:00Z</time>
      </trkpt>
      <trkpt lat="43.4704980" lon="-5.9306750">
        <ele>239.1</ele>
        <time>2018-09-15T12:52:01Z</time>
      </trkpt>
      <trkpt lat="43.4705170" lon="-5.9305670">
        <ele>239.1</ele>
        <time>2018-09-15T12:52:02Z</time>
      </trkpt>
      <trkpt lat="43.4705360" lon="-5.9305130">
        <ele>239.1</ele>
        <time>2018-09-15T12:52:03Z</time>
      </trkpt>
      <trkpt lat="43.4705500" lon="-5.9304550">
        <ele>239.2</ele>
        <time>2018-09-15T12:52:04Z</time>
      </trkpt>
      <trkpt lat="43.4705570" lon="-5.9304280">
        <ele>239.2</ele>
        <time>2018-09-15T12:52:05Z</time>
      </trkpt>
      <trkpt lat="43.4705750" lon="-5.9303090">
        <ele>239.2</ele>
        <time>2018-09-15T12:52:06Z</time>
      </trkpt>
      <trkpt lat="43.4705800" lon="-5.9302820">
        <ele>239.2</ele>
        <time>2018-09-15T12:52:07Z</time>
      </trkpt>
      <trkpt lat="43.4706030" lon="-5.9302110">
        <ele>239.3</ele>
        <time>2018-09-15T12:52:08Z</time>
      </trkpt>
      <trkpt lat="43.4706090" lon="-5.9301610">
        <ele>239.4</ele>
        <time>2018-09-15T12:52:09Z</time>
      </trkpt>
      <trkpt lat="43.4706180" lon="-5.9301080">
        <ele>239.4</ele>
        <time>2018-09-15T12:52:10Z</time>
      </trkpt>
      <trkpt lat="43.4706340" lon="-5.9300610">
        <ele>239.5</ele>
        <time>2018-09-15T12:52:11Z</time>
      </trkpt>
      <trkpt lat="43.4706410" lon="-5.9300110">
        <ele>239.7</ele>
        <time>2018-09-15T12:52:12Z</time>
      </trkpt>
      <trkpt lat="43.4706490" lon="-5.9299630">
        <ele>239.8</ele>
        <time>2018-09-15T12:52:13Z</time>
      </trkpt>
      <trkpt lat="43.4706640" lon="-5.9299140">
        <ele>240.0</ele>
        <time>2018-09-15T12:52:14Z</time>
      </trkpt>
      <trkpt lat="43.4706790" lon="-5.9298720">
        <ele>240.3</ele>
        <time>2018-09-15T12:52:15Z</time>
      </trkpt>
      <trkpt lat="43.4706930" lon="-5.9298200">
        <ele>240.6</ele>
        <time>2018-09-15T12:52:16Z</time>
      </trkpt>
      <trkpt lat="43.4706940" lon="-5.9298110">
        <ele>240.7</ele>
        <time>2018-09-15T12:52:17Z</time>
      </trkpt>
      <trkpt lat="43.4707030" lon="-5.9297810">
        <ele>240.9</ele>
        <time>2018-09-15T12:52:18Z</time>
      </trkpt>
      <trkpt lat="43.4707120" lon="-5.9297480">
        <ele>241.0</ele>
        <time>2018-09-15T12:52:19Z</time>
      </trkpt>
      <trkpt lat="43.4707170" lon="-5.9297150">
        <ele>241.1</ele>
        <time>2018-09-15T12:52:20Z</time>
      </trkpt>
      <trkpt lat="43.4707270" lon="-5.9296800">
        <ele>241.2</ele>
        <time>2018-09-15T12:52:21Z</time>
      </trkpt>
      <trkpt lat="43.4707360" lon="-5.9296460">
        <ele>241.3</ele>
        <time>2018-09-15T12:52:22Z</time>
      </trkpt>
      <trkpt lat="43.4707420" lon="-5.9296220">
        <ele>241.3</ele>
        <time>2018-09-15T12:52:23Z</time>
      </trkpt>
      <trkpt lat="43.4707470" lon="-5.9295980">
        <ele>241.4</ele>
        <time>2018-09-15T12:52:24Z</time>
      </trkpt>
      <trkpt lat="43.4707620" lon="-5.9294720">
        <ele>241.5</ele>
        <time>2018-09-15T12:52:25Z</time>
      </trkpt>
      <trkpt lat="43.4707760" lon="-5.9293450">
        <ele>241.6</ele>
        <time>2018-09-15T12:52:26Z</time>
      </trkpt>
      <trkpt lat="43.4707890" lon="-5.9293110">
        <ele>241.6</ele>
        <time>2018-09-15T12:52:27Z</time>
      </trkpt>
      <trkpt lat="43.4707960" lon="-5.9292740">
        <ele>241.7</ele>
        <time>2018-09-15T12:52:28Z</time>
      </trkpt>
      <trkpt lat="43.4708050" lon="-5.9291700">
        <ele>241.7</ele>
        <time>2018-09-15T12:52:29Z</time>
      </trkpt>
      <trkpt lat="43.4708100" lon="-5.9291440">
        <ele>241.8</ele>
        <time>2018-09-15T12:52:30Z</time>
      </trkpt>
      <trkpt lat="43.4708200" lon="-5.9291120">
        <ele>241.8</ele>
        <time>2018-09-15T12:52:31Z</time>
      </trkpt>
      <trkpt lat="43.4708310" lon="-5.9290770">
        <ele>241.9</ele>
        <time>2018-09-15T12:52:32Z</time>
      </trkpt>
      <trkpt lat="43.4708360" lon="-5.9290490">
        <ele>241.9</ele>
        <time>2018-09-15T12:52:33Z</time>
      </trkpt>
      <trkpt lat="43.4708420" lon="-5.9290140">
        <ele>242.0</ele>
        <time>2018-09-15T12:52:34Z</time>
      </trkpt>
      <trkpt lat="43.4708520" lon="-5.9289820">
        <ele>242.0</ele>
        <time>2018-09-15T12:52:35Z</time>
      </trkpt>
      <trkpt lat="43.4708620" lon="-5.9289510">
        <ele>242.1</ele>
        <time>2018-09-15T12:52:36Z</time>
      </trkpt>
      <trkpt lat="43.4709190" lon="-5.9288210">
        <ele>242.4</ele>
        <time>2018-09-15T12:52:37Z</time>
      </trkpt>
      <trkpt lat="43.4709320" lon="-5.9288050">
        <ele>242.5</ele>
        <time>2018-09-15T12:52:38Z</time>
      </trkpt>
      <trkpt lat="43.4709710" lon="-5.9287560">
        <ele>242.9</ele>
        <time>2018-09-15T12:52:39Z</time>
      </trkpt>
      <trkpt lat="43.4709980" lon="-5.9287210">
        <ele>243.2</ele>
        <time>2018-09-15T12:52:40Z</time>
      </trkpt>
      <trkpt lat="43.4710300" lon="-5.9286930">
        <ele>243.4</ele>
        <time>2018-09-15T12:52:41Z</time>
      </trkpt>
      <trkpt lat="43.4710610" lon="-5.9286650">
        <ele>243.5</ele>
        <time>2018-09-15T12:52:42Z</time>
      </trkpt>
      <trkpt lat="43.4710890" lon="-5.9286310">
        <ele>243.6</ele>
        <time>2018-09-15T12:52:43Z</time>
      </trkpt>
      <trkpt lat="43.4711220" lon="-5.9285980">
        <ele>243.7</ele>
        <time>2018-09-15T12:52:44Z</time>
      </trkpt>
      <trkpt lat="43.4711560" lon="-5.9285770">
        <ele>243.7</ele>
        <time>2018-09-15T12:52:45Z</time>
      </trkpt>
      <trkpt lat="43.4711970" lon="-5.9285520">
        <ele>243.8</ele>
        <time>2018-09-15T12:52:46Z</time>
      </trkpt>
      <trkpt lat="43.4712380" lon="-5.9285260">
        <ele>243.8</ele>
        <time>2018-09-15T12:52:47Z</time>
      </trkpt>
      <trkpt lat="43.4712760" lon="-5.9285050">
        <ele>243.9</ele>
        <time>2018-09-15T12:52:48Z</time>
      </trkpt>
      <trkpt lat="43.4713070" lon="-5.9284750">
        <ele>243.9</ele>
        <time>2018-09-15T12:52:49Z</time>
      </trkpt>
      <trkpt lat="43.4713480" lon="-5.9284540">
        <ele>243.9</ele>
        <time>2018-09-15T12:52:50Z</time>
      </trkpt>
      <trkpt lat="43.4713800" lon="-5.9284230">
        <ele>243.9</ele>
        <time>2018-09-15T12:52:51Z</time>
      </trkpt>
      <trkpt lat="43.4714190" lon="-5.9283990">
        <ele>244.0</ele>
        <time>2018-09-15T12:52:52Z</time>
      </trkpt>
      <trkpt lat="43.4714400" lon="-5.9283600">
        <ele>244.0</ele>
        <time>2018-09-15T12:52:53Z</time>
      </trkpt>
      <trkpt lat="43.4714670" lon="-5.9283240">
        <ele>244.1</ele>
        <time>2018-09-15T12:52:54Z</time>
      </trkpt>
      <trkpt lat="43.4714790" lon="-5.9283060">
        <ele>244.2</ele>
        <time>2018-09-15T12:52:55Z</time>
      </trkpt>
      <trkpt lat="43.4714990" lon="-5.9282860">
        <ele>244.3</ele>
        <time>2018-09-15T12:52:56Z</time>
      </trkpt>
      <trkpt lat="43.4715190" lon="-5.9282560">
        <ele>244.5</ele>
        <time>2018-09-15T12:52:57Z</time>
      </trkpt>
      <trkpt lat="43.4715370" lon="-5.9282230">
        <ele>244.7</ele>
        <time>2018-09-15T12:52:58Z</time>
      </trkpt>
      <trkpt lat="43.4715520" lon="-5.9281960">
        <ele>244.8</ele>
        <time>2018-09-15T12:52:59Z</time>
      </trkpt>
      <trkpt lat="43.4715650" lon="-5.9281680">
        <ele>245.0</ele>
        <time>2018-09-15T12:53:00Z</time>
      </trkpt>
      <trkpt lat="43.4715770" lon="-5.9281410">
        <ele>245.2</ele>
        <time>2018-09-15T12:53:01Z</time>
      </trkpt>
      <trkpt lat="43.4715880" lon="-5.9281140">
        <ele>245.4</ele>
        <time>2018-09-15T12:53:02Z</time>
      </trkpt>
      <trkpt lat="43.4716060" lon="-5.9280750">
        <ele>245.7</ele>
        <time>2018-09-15T12:53:03Z</time>
      </trkpt>
      <trkpt lat="43.4716290" lon="-5.9280260">
        <ele>245.9</ele>
        <time>2018-09-15T12:53:04Z</time>
      </trkpt>
      <trkpt lat="43.4716510" lon="-5.9279790">
        <ele>246.0</ele>
        <time>2018-09-15T12:53:05Z</time>
      </trkpt>
      <trkpt lat="43.4716740" lon="-5.9279300">
        <ele>246.1</ele>
        <time>2018-09-15T12:53:06Z</time>
      </trkpt>
      <trkpt lat="43.4716940" lon="-5.9278830">
        <ele>246.2</ele>
        <time>2018-09-15T12:53:07Z</time>
      </trkpt>
      <trkpt lat="43.4717130" lon="-5.9278450">
        <ele>246.3</ele>
        <time>2018-09-15T12:53:08Z</time>
      </trkpt>
      <trkpt lat="43.4717330" lon="-5.9278010">
        <ele>246.4</ele>
        <time>2018-09-15T12:53:09Z</time>
      </trkpt>
      <trkpt lat="43.4717490" lon="-5.9277630">
        <ele>246.5</ele>
        <time>2018-09-15T12:53:10Z</time>
      </trkpt>
      <trkpt lat="43.4717680" lon="-5.9277220">
        <ele>246.6</ele>
        <time>2018-09-15T12:53:11Z</time>
      </trkpt>
      <trkpt lat="43.4717880" lon="-5.9276750">
        <ele>246.9</ele>
        <time>2018-09-15T12:53:12Z</time>
      </trkpt>
      <trkpt lat="43.4718090" lon="-5.9276320">
        <ele>247.2</ele>
        <time>2018-09-15T12:53:13Z</time>
      </trkpt>
      <trkpt lat="43.4718290" lon="-5.9275920">
        <ele>247.5</ele>
        <time>2018-09-15T12:53:14Z</time>
      </trkpt>
      <trkpt lat="43.4718460" lon="-5.9275540">
        <ele>247.8</ele>
        <time>2018-09-15T12:53:15Z</time>
      </trkpt>
      <trkpt lat="43.4718860" lon="-5.9274550">
        <ele>248.1</ele>
        <time>2018-09-15T12:53:16Z</time>
      </trkpt>
      <trkpt lat="43.4718950" lon="-5.9274360">
        <ele>248.2</ele>
        <time>2018-09-15T12:53:17Z</time>
      </trkpt>
      <trkpt lat="43.4719090" lon="-5.9274090">
        <ele>248.2</ele>
        <time>2018-09-15T12:53:18Z</time>
      </trkpt>
      <trkpt lat="43.4719240" lon="-5.9273760">
        <ele>248.3</ele>
        <time>2018-09-15T12:53:19Z</time>
      </trkpt>
      <trkpt lat="43.4719400" lon="-5.9273410">
        <ele>248.3</ele>
        <time>2018-09-15T12:53:20Z</time>
      </trkpt>
      <trkpt lat="43.4719570" lon="-5.9273040">
        <ele>248.4</ele>
        <time>2018-09-15T12:53:21Z</time>
      </trkpt>
      <trkpt lat="43.4719760" lon="-5.9272650">
        <ele>248.5</ele>
        <time>2018-09-15T12:53:22Z</time>
      </trkpt>
      <trkpt lat="43.4719960" lon="-5.9272280">
        <ele>248.5</ele>
        <time>2018-09-15T12:53:23Z</time>
      </trkpt>
      <trkpt lat="43.4720140" lon="-5.9271910">
        <ele>248.6</ele>
        <time>2018-09-15T12:53:24Z</time>
      </trkpt>
      <trkpt lat="43.4720300" lon="-5.9271600">
        <ele>248.6</ele>
        <time>2018-09-15T12:53:25Z</time>
      </trkpt>
      <trkpt lat="43.4720500" lon="-5.9271230">
        <ele>248.7</ele>
        <time>2018-09-15T12:53:26Z</time>
      </trkpt>
      <trkpt lat="43.4720680" lon="-5.9270880">
        <ele>248.7</ele>
        <time>2018-09-15T12:53:27Z</time>
      </trkpt>
      <trkpt lat="43.4720790" lon="-5.9270650">
        <ele>248.7</ele>
        <time>2018-09-15T12:53:28Z</time>
      </trkpt>
      <trkpt lat="43.4720930" lon="-5.9270400">
        <ele>248.8</ele>
        <time>2018-09-15T12:53:29Z</time>
      </trkpt>
      <trkpt lat="43.4721070" lon="-5.9270110">
        <ele>248.8</ele>
        <time>2018-09-15T12:53:30Z</time>
      </trkpt>
      <trkpt lat="43.4721190" lon="-5.9269850">
        <ele>248.9</ele>
        <time>2018-09-15T12:53:31Z</time>
      </trkpt>
      <trkpt lat="43.4721380" lon="-5.9269350">
        <ele>249.0</ele>
        <time>2018-09-15T12:53:32Z</time>
      </trkpt>
      <trkpt lat="43.4721560" lon="-5.9268920">
        <ele>249.1</ele>
        <time>2018-09-15T12:53:33Z</time>
      </trkpt>
      <trkpt lat="43.4721760" lon="-5.9268480">
        <ele>249.2</ele>
        <time>2018-09-15T12:53:34Z</time>
      </trkpt>
      <trkpt lat="43.4721940" lon="-5.9268080">
        <ele>249.5</ele>
        <time>2018-09-15T12:53:35Z</time>
      </trkpt>
      <trkpt lat="43.4722120" lon="-5.9267680">
        <ele>249.8</ele>
        <time>2018-09-15T12:53:36Z</time>
      </trkpt>
      <trkpt lat="43.4722260" lon="-5.9267330">
        <ele>250.0</ele>
        <time>2018-09-15T12:53:37Z</time>
      </trkpt>
      <trkpt lat="43.4722410" lon="-5.9266910">
        <ele>250.1</ele>
        <time>2018-09-15T12:53:38Z</time>
      </trkpt>
      <trkpt lat="43.4722570" lon="-5.9266510">
        <ele>250.2</ele>
        <time>2018-09-15T12:53:39Z</time>
      </trkpt>
      <trkpt lat="43.4722730" lon="-5.9266120">
        <ele>250.2</ele>
        <time>2018-09-15T12:53:40Z</time>
      </trkpt>
      <trkpt lat="43.4722890" lon="-5.9265730">
        <ele>250.3</ele>
        <time>2018-09-15T12:53:41Z</time>
      </trkpt>
      <trkpt lat="43.4723020" lon="-5.9265460">
        <ele>250.4</ele>
        <time>2018-09-15T12:53:42Z</time>
      </trkpt>
      <trkpt lat="43.4723130" lon="-5.9265230">
        <ele>250.5</ele>
        <time>2018-09-15T12:53:43Z</time>
      </trkpt>
      <trkpt lat="43.4723320" lon="-5.9264930">
        <ele>250.5</ele>
        <time>2018-09-15T12:53:44Z</time>
      </trkpt>
      <trkpt lat="43.4723520" lon="-5.9264520">
        <ele>250.6</ele>
        <time>2018-09-15T12:53:45Z</time>
      </trkpt>
      <trkpt lat="43.4723710" lon="-5.9264110">
        <ele>250.7</ele>
        <time>2018-09-15T12:53:46Z</time>
      </trkpt>
      <trkpt lat="43.4723890" lon="-5.9263740">
        <ele>250.8</ele>
        <time>2018-09-15T12:53:47Z</time>
      </trkpt>
      <trkpt lat="43.4724030" lon="-5.9263400">
        <ele>250.9</ele>
        <time>2018-09-15T12:53:48Z</time>
      </trkpt>
      <trkpt lat="43.4724220" lon="-5.9263020">
        <ele>251.1</ele>
        <time>2018-09-15T12:53:49Z</time>
      </trkpt>
      <trkpt lat="43.4724360" lon="-5.9262700">
        <ele>251.2</ele>
        <time>2018-09-15T12:53:50Z</time>
      </trkpt>
      <trkpt lat="43.4724500" lon="-5.9262310">
        <ele>251.5</ele>
        <time>2018-09-15T12:53:51Z</time>
      </trkpt>
      <trkpt lat="43.4724620" lon="-5.9261930">
        <ele>251.8</ele>
        <time>2018-09-15T12:53:52Z</time>
      </trkpt>
      <trkpt lat="43.4724770" lon="-5.9261580">
        <ele>252.1</ele>
        <time>2018-09-15T12:53:53Z</time>
      </trkpt>
      <trkpt lat="43.4724870" lon="-5.9261290">
        <ele>252.3</ele>
        <time>2018-09-15T12:53:54Z</time>
      </trkpt>
      <trkpt lat="43.4724980" lon="-5.9261000">
        <ele>252.4</ele>
        <time>2018-09-15T12:53:55Z</time>
      </trkpt>
      <trkpt lat="43.4725080" lon="-5.9260710">
        <ele>252.5</ele>
        <time>2018-09-15T12:53:56Z</time>
      </trkpt>
      <trkpt lat="43.4725280" lon="-5.9260290">
        <ele>252.6</ele>
        <time>2018-09-15T12:53:57Z</time>
      </trkpt>
      <trkpt lat="43.4725490" lon="-5.9259900">
        <ele>252.7</ele>
        <time>2018-09-15T12:53:58Z</time>
      </trkpt>
      <trkpt lat="43.4725700" lon="-5.9259530">
        <ele>252.8</ele>
        <time>2018-09-15T12:53:59Z</time>
      </trkpt>
      <trkpt lat="43.4725870" lon="-5.9259200">
        <ele>252.9</ele>
        <time>2018-09-15T12:54:00Z</time>
      </trkpt>
      <trkpt lat="43.4726040" lon="-5.9258850">
        <ele>253.0</ele>
        <time>2018-09-15T12:54:01Z</time>
      </trkpt>
      <trkpt lat="43.4726250" lon="-5.9258460">
        <ele>253.1</ele>
        <time>2018-09-15T12:54:02Z</time>
      </trkpt>
      <trkpt lat="43.4726400" lon="-5.9258060">
        <ele>253.3</ele>
        <time>2018-09-15T12:54:03Z</time>
      </trkpt>
      <trkpt lat="43.4726560" lon="-5.9257650">
        <ele>253.6</ele>
        <time>2018-09-15T12:54:04Z</time>
      </trkpt>
      <trkpt lat="43.4726710" lon="-5.9257260">
        <ele>253.9</ele>
        <time>2018-09-15T12:54:05Z</time>
      </trkpt>
      <trkpt lat="43.4726940" lon="-5.9256880">
        <ele>254.2</ele>
        <time>2018-09-15T12:54:06Z</time>
      </trkpt>
      <trkpt lat="43.4727100" lon="-5.9256540">
        <ele>254.4</ele>
        <time>2018-09-15T12:54:07Z</time>
      </trkpt>
      <trkpt lat="43.4727280" lon="-5.9256150">
        <ele>254.6</ele>
        <time>2018-09-15T12:54:08Z</time>
      </trkpt>
      <trkpt lat="43.4727480" lon="-5.9255720">
        <ele>254.7</ele>
        <time>2018-09-15T12:54:09Z</time>
      </trkpt>
      <trkpt lat="43.4727680" lon="-5.9255320">
        <ele>254.8</ele>
        <time>2018-09-15T12:54:10Z</time>
      </trkpt>
      <trkpt lat="43.4727870" lon="-5.9254930">
        <ele>254.9</ele>
        <time>2018-09-15T12:54:11Z</time>
      </trkpt>
      <trkpt lat="43.4728030" lon="-5.9254590">
        <ele>255.0</ele>
        <time>2018-09-15T12:54:12Z</time>
      </trkpt>
      <trkpt lat="43.4728220" lon="-5.9254180">
        <ele>255.2</ele>
        <time>2018-09-15T12:54:13Z</time>
      </trkpt>
      <trkpt lat="43.4728380" lon="-5.9253830">
        <ele>255.3</ele>
        <time>2018-09-15T12:54:14Z</time>
      </trkpt>
      <trkpt lat="43.4728570" lon="-5.9253420">
        <ele>255.4</ele>
        <time>2018-09-15T12:54:15Z</time>
      </trkpt>
      <trkpt lat="43.4728750" lon="-5.9253020">
        <ele>255.5</ele>
        <time>2018-09-15T12:54:16Z</time>
      </trkpt>
      <trkpt lat="43.4728930" lon="-5.9252640">
        <ele>255.8</ele>
        <time>2018-09-15T12:54:17Z</time>
      </trkpt>
      <trkpt lat="43.4729080" lon="-5.9252310">
        <ele>256.0</ele>
        <time>2018-09-15T12:54:18Z</time>
      </trkpt>
      <trkpt lat="43.4729290" lon="-5.9251950">
        <ele>256.3</ele>
        <time>2018-09-15T12:54:19Z</time>
      </trkpt>
      <trkpt lat="43.4729500" lon="-5.9251610">
        <ele>256.4</ele>
        <time>2018-09-15T12:54:20Z</time>
      </trkpt>
      <trkpt lat="43.4729680" lon="-5.9251320">
        <ele>256.5</ele>
        <time>2018-09-15T12:54:21Z</time>
      </trkpt>
      <trkpt lat="43.4729870" lon="-5.9251030">
        <ele>256.6</ele>
        <time>2018-09-15T12:54:22Z</time>
      </trkpt>
      <trkpt lat="43.4730120" lon="-5.9250690">
        <ele>256.7</ele>
        <time>2018-09-15T12:54:23Z</time>
      </trkpt>
      <trkpt lat="43.4730330" lon="-5.9250420">
        <ele>256.8</ele>
        <time>2018-09-15T12:54:24Z</time>
      </trkpt>
      <trkpt lat="43.4730600" lon="-5.9250120">
        <ele>256.8</ele>
        <time>2018-09-15T12:54:25Z</time>
      </trkpt>
      <trkpt lat="43.4730820" lon="-5.9249880">
        <ele>256.9</ele>
        <time>2018-09-15T12:54:26Z</time>
      </trkpt>
      <trkpt lat="43.4731070" lon="-5.9249630">
        <ele>256.9</ele>
        <time>2018-09-15T12:54:27Z</time>
      </trkpt>
      <trkpt lat="43.4731360" lon="-5.9249350">
        <ele>257.0</ele>
        <time>2018-09-15T12:54:28Z</time>
      </trkpt>
      <trkpt lat="43.4731700" lon="-5.9249090">
        <ele>257.1</ele>
        <time>2018-09-15T12:54:29Z</time>
      </trkpt>
      <trkpt lat="43.4732410" lon="-5.9248460">
        <ele>257.2</ele>
        <time>2018-09-15T12:54:30Z</time>
      </trkpt>
      <trkpt lat="43.4732740" lon="-5.9248240">
        <ele>257.3</ele>
        <time>2018-09-15T12:54:31Z</time>
      </trkpt>
      <trkpt lat="43.4733080" lon="-5.9248040">
        <ele>257.3</ele>
        <time>2018-09-15T12:54:32Z</time>
      </trkpt>
      <trkpt lat="43.4733170" lon="-5.9247990">
        <ele>257.3</ele>
        <time>2018-09-15T12:54:33Z</time>
      </trkpt>
      <trkpt lat="43.4733520" lon="-5.9247840">
        <ele>257.4</ele>
        <time>2018-09-15T12:54:34Z</time>
      </trkpt>
      <trkpt lat="43.4733740" lon="-5.9247740">
        <ele>257.4</ele>
        <time>2018-09-15T12:54:35Z</time>
      </trkpt>
      <trkpt lat="43.4734010" lon="-5.9247610">
        <ele>257.5</ele>
        <time>2018-09-15T12:54:36Z</time>
      </trkpt>
      <trkpt lat="43.4734340" lon="-5.9247490">
        <ele>257.6</ele>
        <time>2018-09-15T12:54:37Z</time>
      </trkpt>
      <trkpt lat="43.4734620" lon="-5.9247350">
        <ele>257.7</ele>
        <time>2018-09-15T12:54:38Z</time>
      </trkpt>
      <trkpt lat="43.4735360" lon="-5.9246960">
        <ele>258.2</ele>
        <time>2018-09-15T12:54:39Z</time>
      </trkpt>
      <trkpt lat="43.4735900" lon="-5.9246760">
        <ele>258.6</ele>
        <time>2018-09-15T12:54:40Z</time>
      </trkpt>
      <trkpt lat="43.4736220" lon="-5.9246580">
        <ele>258.7</ele>
        <time>2018-09-15T12:54:41Z</time>
      </trkpt>
      <trkpt lat="43.4736530" lon="-5.9246390">
        <ele>258.8</ele>
        <time>2018-09-15T12:54:42Z</time>
      </trkpt>
      <trkpt lat="43.4736720" lon="-5.9246340">
        <ele>258.9</ele>
        <time>2018-09-15T12:54:43Z</time>
      </trkpt>
      <trkpt lat="43.4737250" lon="-5.9246110">
        <ele>259.1</ele>
        <time>2018-09-15T12:54:44Z</time>
      </trkpt>
      <trkpt lat="43.4737590" lon="-5.9245920">
        <ele>259.3</ele>
        <time>2018-09-15T12:54:45Z</time>
      </trkpt>
      <trkpt lat="43.4737770" lon="-5.9245830">
        <ele>259.4</ele>
        <time>2018-09-15T12:54:46Z</time>
      </trkpt>
      <trkpt lat="43.4738260" lon="-5.9245580">
        <ele>259.6</ele>
        <time>2018-09-15T12:54:47Z</time>
      </trkpt>
      <trkpt lat="43.4738660" lon="-5.9245440">
        <ele>259.9</ele>
        <time>2018-09-15T12:54:48Z</time>
      </trkpt>
      <trkpt lat="43.4738740" lon="-5.9245400">
        <ele>260.0</ele>
        <time>2018-09-15T12:54:49Z</time>
      </trkpt>
      <trkpt lat="43.4738910" lon="-5.9245320">
        <ele>260.1</ele>
        <time>2018-09-15T12:54:50Z</time>
      </trkpt>
      <trkpt lat="43.4739440" lon="-5.9245020">
        <ele>260.6</ele>
        <time>2018-09-15T12:54:51Z</time>
      </trkpt>
      <trkpt lat="43.4739560" lon="-5.9244940">
        <ele>260.6</ele>
        <time>2018-09-15T12:54:52Z</time>
      </trkpt>
      <trkpt lat="43.4739790" lon="-5.9244810">
        <ele>260.6</ele>
        <time>2018-09-15T12:54:53Z</time>
      </trkpt>
      <trkpt lat="43.4740040" lon="-5.9244680">
        <ele>260.7</ele>
        <time>2018-09-15T12:54:54Z</time>
      </trkpt>
      <trkpt lat="43.4740330" lon="-5.9244530">
        <ele>260.8</ele>
        <time>2018-09-15T12:54:55Z</time>
      </trkpt>
      <trkpt lat="43.4741110" lon="-5.9244090">
        <ele>261.0</ele>
        <time>2018-09-15T12:54:56Z</time>
      </trkpt>
      <trkpt lat="43.4741270" lon="-5.9243950">
        <ele>261.0</ele>
        <time>2018-09-15T12:54:57Z</time>
      </trkpt>
      <trkpt lat="43.4741540" lon="-5.9243840">
        <ele>261.2</ele>
        <time>2018-09-15T12:54:58Z</time>
      </trkpt>
      <trkpt lat="43.4741740" lon="-5.9243750">
        <ele>261.3</ele>
        <time>2018-09-15T12:54:59Z</time>
      </trkpt>
      <trkpt lat="43.4741990" lon="-5.9243660">
        <ele>261.4</ele>
        <time>2018-09-15T12:55:00Z</time>
      </trkpt>
      <trkpt lat="43.4742210" lon="-5.9243570">
        <ele>261.6</ele>
        <time>2018-09-15T12:55:01Z</time>
      </trkpt>
      <trkpt lat="43.4742490" lon="-5.9243440">
        <ele>261.7</ele>
        <time>2018-09-15T12:55:02Z</time>
      </trkpt>
      <trkpt lat="43.4742750" lon="-5.9243310">
        <ele>261.9</ele>
        <time>2018-09-15T12:55:03Z</time>
      </trkpt>
      <trkpt lat="43.4743100" lon="-5.9243180">
        <ele>262.1</ele>
        <time>2018-09-15T12:55:04Z</time>
      </trkpt>
      <trkpt lat="43.4743430" lon="-5.9243040">
        <ele>262.4</ele>
        <time>2018-09-15T12:55:05Z</time>
      </trkpt>
      <trkpt lat="43.4743830" lon="-5.9242870">
        <ele>263.0</ele>
        <time>2018-09-15T12:55:06Z</time>
      </trkpt>
      <trkpt lat="43.4744180" lon="-5.9242700">
        <ele>263.5</ele>
        <time>2018-09-15T12:55:07Z</time>
      </trkpt>
      <trkpt lat="43.4744570" lon="-5.9242530">
        <ele>264.0</ele>
        <time>2018-09-15T12:55:08Z</time>
      </trkpt>
      <trkpt lat="43.4744960" lon="-5.9242360">
        <ele>264.4</ele>
        <time>2018-09-15T12:55:09Z</time>
      </trkpt>
      <trkpt lat="43.4745300" lon="-5.9242190">
        <ele>264.6</ele>
        <time>2018-09-15T12:55:10Z</time>
      </trkpt>
      <trkpt lat="43.4745700" lon="-5.9242000">
        <ele>264.8</ele>
        <time>2018-09-15T12:55:11Z</time>
      </trkpt>
      <trkpt lat="43.4746150" lon="-5.9241790">
        <ele>265.0</ele>
        <time>2018-09-15T12:55:12Z</time>
      </trkpt>
      <trkpt lat="43.4747400" lon="-5.9241180">
        <ele>265.6</ele>
        <time>2018-09-15T12:55:13Z</time>
      </trkpt>
      <trkpt lat="43.4747740" lon="-5.9240960">
        <ele>265.7</ele>
        <time>2018-09-15T12:55:14Z</time>
      </trkpt>
      <trkpt lat="43.4747910" lon="-5.9240870">
        <ele>265.8</ele>
        <time>2018-09-15T12:55:15Z</time>
      </trkpt>
      <trkpt lat="43.4748410" lon="-5.9240650">
        <ele>266.0</ele>
        <time>2018-09-15T12:55:16Z</time>
      </trkpt>
      <trkpt lat="43.4748710" lon="-5.9240360">
        <ele>266.3</ele>
        <time>2018-09-15T12:55:17Z</time>
      </trkpt>
      <trkpt lat="43.4748870" lon="-5.9240220">
        <ele>266.4</ele>
        <time>2018-09-15T12:55:18Z</time>
      </trkpt>
      <trkpt lat="43.4749320" lon="-5.9239830">
        <ele>266.9</ele>
        <time>2018-09-15T12:55:19Z</time>
      </trkpt>
      <trkpt lat="43.4749640" lon="-5.9239570">
        <ele>267.5</ele>
        <time>2018-09-15T12:55:20Z</time>
      </trkpt>
      <trkpt lat="43.4749940" lon="-5.9239260">
        <ele>268.2</ele>
        <time>2018-09-15T12:55:21Z</time>
      </trkpt>
      <trkpt lat="43.4750100" lon="-5.9239110">
        <ele>268.5</ele>
        <time>2018-09-15T12:55:22Z</time>
      </trkpt>
      <trkpt lat="43.4750510" lon="-5.9238690">
        <ele>269.4</ele>
        <time>2018-09-15T12:55:23Z</time>
      </trkpt>
      <trkpt lat="43.4750790" lon="-5.9238350">
        <ele>270.0</ele>
        <time>2018-09-15T12:55:24Z</time>
      </trkpt>
      <trkpt lat="43.4750940" lon="-5.9238190">
        <ele>270.1</ele>
        <time>2018-09-15T12:55:25Z</time>
      </trkpt>
      <trkpt lat="43.4751340" lon="-5.9237730">
        <ele>270.6</ele>
        <time>2018-09-15T12:55:26Z</time>
      </trkpt>
      <trkpt lat="43.4751480" lon="-5.9237540">
        <ele>270.7</ele>
        <time>2018-09-15T12:55:27Z</time>
      </trkpt>
      <trkpt lat="43.4751680" lon="-5.9237280">
        <ele>271.0</ele>
        <time>2018-09-15T12:55:28Z</time>
      </trkpt>
      <trkpt lat="43.4751910" lon="-5.9236980">
        <ele>271.2</ele>
        <time>2018-09-15T12:55:29Z</time>
      </trkpt>
      <trkpt lat="43.4752090" lon="-5.9236710">
        <ele>271.4</ele>
        <time>2018-09-15T12:55:30Z</time>
      </trkpt>
      <trkpt lat="43.4752280" lon="-5.9236420">
        <ele>271.5</ele>
        <time>2018-09-15T12:55:31Z</time>
      </trkpt>
      <trkpt lat="43.4752750" lon="-5.9235480">
        <ele>271.7</ele>
        <time>2018-09-15T12:55:32Z</time>
      </trkpt>
      <trkpt lat="43.4753010" lon="-5.9235080">
        <ele>271.8</ele>
        <time>2018-09-15T12:55:33Z</time>
      </trkpt>
      <trkpt lat="43.4753320" lon="-5.9234690">
        <ele>271.9</ele>
        <time>2018-09-15T12:55:34Z</time>
      </trkpt>
      <trkpt lat="43.4753590" lon="-5.9234290">
        <ele>271.9</ele>
        <time>2018-09-15T12:55:35Z</time>
      </trkpt>
      <trkpt lat="43.4753860" lon="-5.9233880">
        <ele>271.9</ele>
        <time>2018-09-15T12:55:36Z</time>
      </trkpt>
      <trkpt lat="43.4754120" lon="-5.9233470">
        <ele>272.0</ele>
        <time>2018-09-15T12:55:37Z</time>
      </trkpt>
      <trkpt lat="43.4754360" lon="-5.9233080">
        <ele>272.0</ele>
        <time>2018-09-15T12:55:38Z</time>
      </trkpt>
      <trkpt lat="43.4754610" lon="-5.9232680">
        <ele>272.0</ele>
        <time>2018-09-15T12:55:39Z</time>
      </trkpt>
      <trkpt lat="43.4754920" lon="-5.9232330">
        <ele>272.1</ele>
        <time>2018-09-15T12:55:40Z</time>
      </trkpt>
      <trkpt lat="43.4755180" lon="-5.9231950">
        <ele>272.1</ele>
        <time>2018-09-15T12:55:41Z</time>
      </trkpt>
      <trkpt lat="43.4755290" lon="-5.9231800">
        <ele>272.2</ele>
        <time>2018-09-15T12:55:42Z</time>
      </trkpt>
      <trkpt lat="43.4755640" lon="-5.9231190">
        <ele>272.3</ele>
        <time>2018-09-15T12:55:43Z</time>
      </trkpt>
      <trkpt lat="43.4755900" lon="-5.9230830">
        <ele>272.4</ele>
        <time>2018-09-15T12:55:44Z</time>
      </trkpt>
      <trkpt lat="43.4756140" lon="-5.9230450">
        <ele>272.5</ele>
        <time>2018-09-15T12:55:45Z</time>
      </trkpt>
      <trkpt lat="43.4756410" lon="-5.9230070">
        <ele>272.7</ele>
        <time>2018-09-15T12:55:46Z</time>
      </trkpt>
      <trkpt lat="43.4756520" lon="-5.9229860">
        <ele>272.8</ele>
        <time>2018-09-15T12:55:47Z</time>
      </trkpt>
      <trkpt lat="43.4756890" lon="-5.9229270">
        <ele>273.0</ele>
        <time>2018-09-15T12:55:48Z</time>
      </trkpt>
      <trkpt lat="43.4757150" lon="-5.9228860">
        <ele>273.1</ele>
        <time>2018-09-15T12:55:49Z</time>
      </trkpt>
      <trkpt lat="43.4757250" lon="-5.9228660">
        <ele>273.1</ele>
        <time>2018-09-15T12:55:50Z</time>
      </trkpt>
      <trkpt lat="43.4757540" lon="-5.9228060">
        <ele>273.2</ele>
        <time>2018-09-15T12:55:51Z</time>
      </trkpt>
      <trkpt lat="43.4757800" lon="-5.9227720">
        <ele>273.3</ele>
        <time>2018-09-15T12:55:52Z</time>
      </trkpt>
      <trkpt lat="43.4758020" lon="-5.9227320">
        <ele>273.3</ele>
        <time>2018-09-15T12:55:53Z</time>
      </trkpt>
      <trkpt lat="43.4758280" lon="-5.9226960">
        <ele>273.4</ele>
        <time>2018-09-15T12:55:54Z</time>
      </trkpt>
      <trkpt lat="43.4758540" lon="-5.9226580">
        <ele>273.5</ele>
        <time>2018-09-15T12:55:55Z</time>
      </trkpt>
      <trkpt lat="43.4758760" lon="-5.9226200">
        <ele>273.5</ele>
        <time>2018-09-15T12:55:56Z</time>
      </trkpt>
      <trkpt lat="43.4758830" lon="-5.9226090">
        <ele>273.6</ele>
        <time>2018-09-15T12:55:57Z</time>
      </trkpt>
      <trkpt lat="43.4758950" lon="-5.9225920">
        <ele>273.7</ele>
        <time>2018-09-15T12:55:58Z</time>
      </trkpt>
      <trkpt lat="43.4759120" lon="-5.9225720">
        <ele>273.9</ele>
        <time>2018-09-15T12:55:59Z</time>
      </trkpt>
      <trkpt lat="43.4759230" lon="-5.9225540">
        <ele>274.1</ele>
        <time>2018-09-15T12:56:00Z</time>
      </trkpt>
      <trkpt lat="43.4759560" lon="-5.9225000">
        <ele>274.8</ele>
        <time>2018-09-15T12:56:02Z</time>
      </trkpt>
      <trkpt lat="43.4759730" lon="-5.9224670">
        <ele>275.1</ele>
        <time>2018-09-15T12:56:03Z</time>
      </trkpt>
      <trkpt lat="43.4760150" lon="-5.9224170">
        <ele>275.5</ele>
        <time>2018-09-15T12:56:04Z</time>
      </trkpt>
      <trkpt lat="43.4760740" lon="-5.9223510">
        <ele>275.7</ele>
        <time>2018-09-15T12:56:05Z</time>
      </trkpt>
      <trkpt lat="43.4761310" lon="-5.9223120">
        <ele>275.8</ele>
        <time>2018-09-15T12:56:06Z</time>
      </trkpt>
      <trkpt lat="43.4761620" lon="-5.9222860">
        <ele>275.9</ele>
        <time>2018-09-15T12:56:07Z</time>
      </trkpt>
      <trkpt lat="43.4761950" lon="-5.9222570">
        <ele>275.9</ele>
        <time>2018-09-15T12:56:08Z</time>
      </trkpt>
      <trkpt lat="43.4762230" lon="-5.9222230">
        <ele>275.9</ele>
        <time>2018-09-15T12:56:09Z</time>
      </trkpt>
      <trkpt lat="43.4762520" lon="-5.9221920">
        <ele>276.0</ele>
        <time>2018-09-15T12:56:10Z</time>
      </trkpt>
      <trkpt lat="43.4762860" lon="-5.9221630">
        <ele>276.0</ele>
        <time>2018-09-15T12:56:11Z</time>
      </trkpt>
      <trkpt lat="43.4763160" lon="-5.9221380">
        <ele>276.0</ele>
        <time>2018-09-15T12:56:12Z</time>
      </trkpt>
      <trkpt lat="43.4763490" lon="-5.9221090">
        <ele>276.1</ele>
        <time>2018-09-15T12:56:13Z</time>
      </trkpt>
      <trkpt lat="43.4763850" lon="-5.9220870">
        <ele>276.1</ele>
        <time>2018-09-15T12:56:14Z</time>
      </trkpt>
      <trkpt lat="43.4764170" lon="-5.9220550">
        <ele>276.1</ele>
        <time>2018-09-15T12:56:15Z</time>
      </trkpt>
      <trkpt lat="43.4764260" lon="-5.9220450">
        <ele>276.1</ele>
        <time>2018-09-15T12:56:16Z</time>
      </trkpt>
      <trkpt lat="43.4764380" lon="-5.9220350">
        <ele>276.1</ele>
        <time>2018-09-15T12:56:17Z</time>
      </trkpt>
      <trkpt lat="43.4764720" lon="-5.9220060">
        <ele>276.1</ele>
        <time>2018-09-15T12:56:18Z</time>
      </trkpt>
      <trkpt lat="43.4765250" lon="-5.9219590">
        <ele>276.2</ele>
        <time>2018-09-15T12:56:19Z</time>
      </trkpt>
      <trkpt lat="43.4765800" lon="-5.9219130">
        <ele>276.2</ele>
        <time>2018-09-15T12:56:20Z</time>
      </trkpt>
      <trkpt lat="43.4766080" lon="-5.9218820">
        <ele>276.3</ele>
        <time>2018-09-15T12:56:21Z</time>
      </trkpt>
      <trkpt lat="43.4766430" lon="-5.9218490">
        <ele>276.3</ele>
        <time>2018-09-15T12:56:22Z</time>
      </trkpt>
      <trkpt lat="43.4766790" lon="-5.9218200">
        <ele>276.3</ele>
        <time>2018-09-15T12:56:23Z</time>
      </trkpt>
      <trkpt lat="43.4767100" lon="-5.9217910">
        <ele>276.4</ele>
        <time>2018-09-15T12:56:24Z</time>
      </trkpt>
      <trkpt lat="43.4767410" lon="-5.9217580">
        <ele>276.4</ele>
        <time>2018-09-15T12:56:25Z</time>
      </trkpt>
      <trkpt lat="43.4767720" lon="-5.9217290">
        <ele>276.5</ele>
        <time>2018-09-15T12:56:26Z</time>
      </trkpt>
      <trkpt lat="43.4768030" lon="-5.9216970">
        <ele>276.6</ele>
        <time>2018-09-15T12:56:27Z</time>
      </trkpt>
      <trkpt lat="43.4768110" lon="-5.9216870">
        <ele>276.6</ele>
        <time>2018-09-15T12:56:28Z</time>
      </trkpt>
      <trkpt lat="43.4768290" lon="-5.9216700">
        <ele>276.7</ele>
        <time>2018-09-15T12:56:29Z</time>
      </trkpt>
      <trkpt lat="43.4768500" lon="-5.9216500">
        <ele>276.8</ele>
        <time>2018-09-15T12:56:30Z</time>
      </trkpt>
      <trkpt lat="43.4768680" lon="-5.9216340">
        <ele>276.9</ele>
        <time>2018-09-15T12:56:31Z</time>
      </trkpt>
      <trkpt lat="43.4769330" lon="-5.9215630">
        <ele>277.4</ele>
        <time>2018-09-15T12:56:32Z</time>
      </trkpt>
      <trkpt lat="43.4769680" lon="-5.9215280">
        <ele>277.6</ele>
        <time>2018-09-15T12:56:33Z</time>
      </trkpt>
      <trkpt lat="43.4770020" lon="-5.9214890">
        <ele>277.6</ele>
        <time>2018-09-15T12:56:34Z</time>
      </trkpt>
      <trkpt lat="43.4770340" lon="-5.9214560">
        <ele>277.7</ele>
        <time>2018-09-15T12:56:35Z</time>
      </trkpt>
      <trkpt lat="43.4770620" lon="-5.9214220">
        <ele>277.8</ele>
        <time>2018-09-15T12:56:36Z</time>
      </trkpt>
      <trkpt lat="43.4770940" lon="-5.9213870">
        <ele>277.9</ele>
        <time>2018-09-15T12:56:37Z</time>
      </trkpt>
      <trkpt lat="43.4771260" lon="-5.9213550">
        <ele>277.9</ele>
        <time>2018-09-15T12:56:38Z</time>
      </trkpt>
      <trkpt lat="43.4771610" lon="-5.9213250">
        <ele>278.0</ele>
        <time>2018-09-15T12:56:39Z</time>
      </trkpt>
      <trkpt lat="43.4772050" lon="-5.9212820">
        <ele>278.1</ele>
        <time>2018-09-15T12:56:40Z</time>
      </trkpt>
      <trkpt lat="43.4772380" lon="-5.9212480">
        <ele>278.2</ele>
        <time>2018-09-15T12:56:41Z</time>
      </trkpt>
      <trkpt lat="43.4772660" lon="-5.9212220">
        <ele>278.2</ele>
        <time>2018-09-15T12:56:42Z</time>
      </trkpt>
      <trkpt lat="43.4772950" lon="-5.9211910">
        <ele>278.3</ele>
        <time>2018-09-15T12:56:43Z</time>
      </trkpt>
      <trkpt lat="43.4773250" lon="-5.9211590">
        <ele>278.4</ele>
        <time>2018-09-15T12:56:44Z</time>
      </trkpt>
      <trkpt lat="43.4773540" lon="-5.9211300">
        <ele>278.5</ele>
        <time>2018-09-15T12:56:45Z</time>
      </trkpt>
      <trkpt lat="43.4773860" lon="-5.9211020">
        <ele>278.5</ele>
        <time>2018-09-15T12:56:46Z</time>
      </trkpt>
      <trkpt lat="43.4774190" lon="-5.9210730">
        <ele>278.7</ele>
        <time>2018-09-15T12:56:47Z</time>
      </trkpt>
      <trkpt lat="43.4774500" lon="-5.9210440">
        <ele>278.9</ele>
        <time>2018-09-15T12:56:48Z</time>
      </trkpt>
      <trkpt lat="43.4774770" lon="-5.9210170">
        <ele>279.1</ele>
        <time>2018-09-15T12:56:49Z</time>
      </trkpt>
      <trkpt lat="43.4775030" lon="-5.9209790">
        <ele>279.4</ele>
        <time>2018-09-15T12:56:50Z</time>
      </trkpt>
      <trkpt lat="43.4775190" lon="-5.9209630">
        <ele>279.4</ele>
        <time>2018-09-15T12:56:51Z</time>
      </trkpt>
      <trkpt lat="43.4775410" lon="-5.9209410">
        <ele>279.5</ele>
        <time>2018-09-15T12:56:52Z</time>
      </trkpt>
      <trkpt lat="43.4775930" lon="-5.9208910">
        <ele>279.6</ele>
        <time>2018-09-15T12:56:53Z</time>
      </trkpt>
      <trkpt lat="43.4776250" lon="-5.9208610">
        <ele>279.7</ele>
        <time>2018-09-15T12:56:54Z</time>
      </trkpt>
      <trkpt lat="43.4776890" lon="-5.9207960">
        <ele>279.8</ele>
        <time>2018-09-15T12:56:55Z</time>
      </trkpt>
      <trkpt lat="43.4777240" lon="-5.9207600">
        <ele>279.8</ele>
        <time>2018-09-15T12:56:56Z</time>
      </trkpt>
      <trkpt lat="43.4777550" lon="-5.9207330">
        <ele>279.9</ele>
        <time>2018-09-15T12:56:57Z</time>
      </trkpt>
      <trkpt lat="43.4777850" lon="-5.9207050">
        <ele>279.9</ele>
        <time>2018-09-15T12:56:58Z</time>
      </trkpt>
      <trkpt lat="43.4778150" lon="-5.9206710">
        <ele>279.9</ele>
        <time>2018-09-15T12:56:59Z</time>
      </trkpt>
      <trkpt lat="43.4778450" lon="-5.9206370">
        <ele>280.0</ele>
        <time>2018-09-15T12:57:00Z</time>
      </trkpt>
      <trkpt lat="43.4778640" lon="-5.9206220">
        <ele>280.0</ele>
        <time>2018-09-15T12:57:01Z</time>
      </trkpt>
      <trkpt lat="43.4778820" lon="-5.9206070">
        <ele>280.0</ele>
        <time>2018-09-15T12:57:02Z</time>
      </trkpt>
      <trkpt lat="43.4779160" lon="-5.9205810">
        <ele>280.1</ele>
        <time>2018-09-15T12:57:03Z</time>
      </trkpt>
      <trkpt lat="43.4779160" lon="-5.9205810">
        <ele>280.1</ele>
        <time>2018-09-15T12:57:04Z</time>
      </trkpt>
      <trkpt lat="43.4779330" lon="-5.9205680">
        <ele>280.1</ele>
        <time>2018-09-15T12:57:05Z</time>
      </trkpt>
      <trkpt lat="43.4779530" lon="-5.9205480">
        <ele>280.1</ele>
        <time>2018-09-15T12:57:06Z</time>
      </trkpt>
      <trkpt lat="43.4780260" lon="-5.9204650">
        <ele>280.4</ele>
        <time>2018-09-15T12:57:07Z</time>
      </trkpt>
      <trkpt lat="43.4780990" lon="-5.9203820">
        <ele>280.9</ele>
        <time>2018-09-15T12:57:08Z</time>
      </trkpt>
      <trkpt lat="43.4781290" lon="-5.9203520">
        <ele>281.0</ele>
        <time>2018-09-15T12:57:09Z</time>
      </trkpt>
      <trkpt lat="43.4781620" lon="-5.9203200">
        <ele>281.2</ele>
        <time>2018-09-15T12:57:10Z</time>
      </trkpt>
      <trkpt lat="43.4781930" lon="-5.9202880">
        <ele>281.2</ele>
        <time>2018-09-15T12:57:11Z</time>
      </trkpt>
      <trkpt lat="43.4782250" lon="-5.9202650">
        <ele>281.3</ele>
        <time>2018-09-15T12:57:12Z</time>
      </trkpt>
      <trkpt lat="43.4782540" lon="-5.9202300">
        <ele>281.4</ele>
        <time>2018-09-15T12:57:13Z</time>
      </trkpt>
      <trkpt lat="43.4782840" lon="-5.9201960">
        <ele>281.4</ele>
        <time>2018-09-15T12:57:14Z</time>
      </trkpt>
      <trkpt lat="43.4782840" lon="-5.9201960">
        <ele>281.4</ele>
        <time>2018-09-15T12:57:15Z</time>
      </trkpt>
      <trkpt lat="43.4783120" lon="-5.9201610">
        <ele>281.5</ele>
        <time>2018-09-15T12:57:16Z</time>
      </trkpt>
      <trkpt lat="43.4783420" lon="-5.9201290">
        <ele>281.5</ele>
        <time>2018-09-15T12:57:17Z</time>
      </trkpt>
      <trkpt lat="43.4783720" lon="-5.9200990">
        <ele>281.6</ele>
        <time>2018-09-15T12:57:18Z</time>
      </trkpt>
      <trkpt lat="43.4784030" lon="-5.9200660">
        <ele>281.6</ele>
        <time>2018-09-15T12:57:19Z</time>
      </trkpt>
      <trkpt lat="43.4784350" lon="-5.9200330">
        <ele>281.7</ele>
        <time>2018-09-15T12:57:20Z</time>
      </trkpt>
      <trkpt lat="43.4784740" lon="-5.9199960">
        <ele>281.8</ele>
        <time>2018-09-15T12:57:21Z</time>
      </trkpt>
      <trkpt lat="43.4784940" lon="-5.9199780">
        <ele>281.9</ele>
        <time>2018-09-15T12:57:22Z</time>
      </trkpt>
      <trkpt lat="43.4785130" lon="-5.9199600">
        <ele>281.9</ele>
        <time>2018-09-15T12:57:23Z</time>
      </trkpt>
      <trkpt lat="43.4785880" lon="-5.9198940">
        <ele>282.4</ele>
        <time>2018-09-15T12:57:24Z</time>
      </trkpt>
      <trkpt lat="43.4786380" lon="-5.9198430">
        <ele>282.6</ele>
        <time>2018-09-15T12:57:25Z</time>
      </trkpt>
      <trkpt lat="43.4786660" lon="-5.9198150">
        <ele>282.8</ele>
        <time>2018-09-15T12:57:26Z</time>
      </trkpt>
      <trkpt lat="43.4787010" lon="-5.9197860">
        <ele>282.9</ele>
        <time>2018-09-15T12:57:27Z</time>
      </trkpt>
      <trkpt lat="43.4787340" lon="-5.9197570">
        <ele>282.9</ele>
        <time>2018-09-15T12:57:28Z</time>
      </trkpt>
      <trkpt lat="43.4787690" lon="-5.9197290">
        <ele>282.9</ele>
        <time>2018-09-15T12:57:29Z</time>
      </trkpt>
      <trkpt lat="43.4787980" lon="-5.9197010">
        <ele>282.9</ele>
        <time>2018-09-15T12:57:30Z</time>
      </trkpt>
      <trkpt lat="43.4788260" lon="-5.9196700">
        <ele>282.9</ele>
        <time>2018-09-15T12:57:31Z</time>
      </trkpt>
      <trkpt lat="43.4788590" lon="-5.9196410">
        <ele>282.9</ele>
        <time>2018-09-15T12:57:32Z</time>
      </trkpt>
      <trkpt lat="43.4788820" lon="-5.9196090">
        <ele>283.0</ele>
        <time>2018-09-15T12:57:33Z</time>
      </trkpt>
      <trkpt lat="43.4788970" lon="-5.9195930">
        <ele>283.0</ele>
        <time>2018-09-15T12:57:34Z</time>
      </trkpt>
      <trkpt lat="43.4789410" lon="-5.9195500">
        <ele>283.0</ele>
        <time>2018-09-15T12:57:35Z</time>
      </trkpt>
      <trkpt lat="43.4789700" lon="-5.9195180">
        <ele>283.0</ele>
        <time>2018-09-15T12:57:36Z</time>
      </trkpt>
      <trkpt lat="43.4789980" lon="-5.9194830">
        <ele>283.4</ele>
        <time>2018-09-15T12:57:37Z</time>
      </trkpt>
      <trkpt lat="43.4790290" lon="-5.9194510">
        <ele>283.8</ele>
        <time>2018-09-15T12:57:38Z</time>
      </trkpt>
      <trkpt lat="43.4790610" lon="-5.9194200">
        <ele>284.2</ele>
        <time>2018-09-15T12:57:39Z</time>
      </trkpt>
      <trkpt lat="43.4790930" lon="-5.9193900">
        <ele>284.5</ele>
        <time>2018-09-15T12:57:40Z</time>
      </trkpt>
      <trkpt lat="43.4791260" lon="-5.9193570">
        <ele>284.8</ele>
        <time>2018-09-15T12:57:41Z</time>
      </trkpt>
      <trkpt lat="43.4791610" lon="-5.9193240">
        <ele>285.0</ele>
        <time>2018-09-15T12:57:42Z</time>
      </trkpt>
      <trkpt lat="43.4791950" lon="-5.9192900">
        <ele>285.1</ele>
        <time>2018-09-15T12:57:43Z</time>
      </trkpt>
      <trkpt lat="43.4792400" lon="-5.9192540">
        <ele>285.2</ele>
        <time>2018-09-15T12:57:44Z</time>
      </trkpt>
      <trkpt lat="43.4792750" lon="-5.9192100">
        <ele>285.4</ele>
        <time>2018-09-15T12:57:45Z</time>
      </trkpt>
      <trkpt lat="43.4793190" lon="-5.9191640">
        <ele>285.5</ele>
        <time>2018-09-15T12:57:46Z</time>
      </trkpt>
      <trkpt lat="43.4793620" lon="-5.9191200">
        <ele>285.7</ele>
        <time>2018-09-15T12:57:47Z</time>
      </trkpt>
      <trkpt lat="43.4794010" lon="-5.9190730">
        <ele>285.8</ele>
        <time>2018-09-15T12:57:48Z</time>
      </trkpt>
      <trkpt lat="43.4794490" lon="-5.9190210">
        <ele>286.0</ele>
        <time>2018-09-15T12:57:49Z</time>
      </trkpt>
      <trkpt lat="43.4794950" lon="-5.9189730">
        <ele>285.9</ele>
        <time>2018-09-15T12:57:50Z</time>
      </trkpt>
      <trkpt lat="43.4795410" lon="-5.9189180">
        <ele>285.9</ele>
        <time>2018-09-15T12:57:51Z</time>
      </trkpt>
      <trkpt lat="43.4795860" lon="-5.9188670">
        <ele>285.8</ele>
        <time>2018-09-15T12:57:52Z</time>
      </trkpt>
      <trkpt lat="43.4796340" lon="-5.9188110">
        <ele>285.7</ele>
        <time>2018-09-15T12:57:53Z</time>
      </trkpt>
      <trkpt lat="43.4796850" lon="-5.9187560">
        <ele>285.5</ele>
        <time>2018-09-15T12:57:54Z</time>
      </trkpt>
      <trkpt lat="43.4797320" lon="-5.9187050">
        <ele>285.4</ele>
        <time>2018-09-15T12:57:55Z</time>
      </trkpt>
      <trkpt lat="43.4797780" lon="-5.9186470">
        <ele>285.3</ele>
        <time>2018-09-15T12:57:56Z</time>
      </trkpt>
      <trkpt lat="43.4798270" lon="-5.9185890">
        <ele>285.2</ele>
        <time>2018-09-15T12:57:57Z</time>
      </trkpt>
      <trkpt lat="43.4798770" lon="-5.9185370">
        <ele>285.0</ele>
        <time>2018-09-15T12:57:58Z</time>
      </trkpt>
      <trkpt lat="43.4799240" lon="-5.9184830">
        <ele>284.8</ele>
        <time>2018-09-15T12:57:59Z</time>
      </trkpt>
      <trkpt lat="43.4799740" lon="-5.9184230">
        <ele>284.5</ele>
        <time>2018-09-15T12:58:00Z</time>
      </trkpt>
      <trkpt lat="43.4800250" lon="-5.9183650">
        <ele>284.0</ele>
        <time>2018-09-15T12:58:01Z</time>
      </trkpt>
      <trkpt lat="43.4800760" lon="-5.9183100">
        <ele>283.6</ele>
        <time>2018-09-15T12:58:02Z</time>
      </trkpt>
      <trkpt lat="43.4801350" lon="-5.9182620">
        <ele>283.2</ele>
        <time>2018-09-15T12:58:03Z</time>
      </trkpt>
      <trkpt lat="43.4801960" lon="-5.9182100">
        <ele>282.8</ele>
        <time>2018-09-15T12:58:04Z</time>
      </trkpt>
      <trkpt lat="43.4802610" lon="-5.9181610">
        <ele>282.5</ele>
        <time>2018-09-15T12:58:05Z</time>
      </trkpt>
      <trkpt lat="43.4803240" lon="-5.9181070">
        <ele>282.1</ele>
        <time>2018-09-15T12:58:06Z</time>
      </trkpt>
      <trkpt lat="43.4803860" lon="-5.9180430">
        <ele>281.6</ele>
        <time>2018-09-15T12:58:07Z</time>
      </trkpt>
      <trkpt lat="43.4804490" lon="-5.9179720">
        <ele>281.1</ele>
        <time>2018-09-15T12:58:08Z</time>
      </trkpt>
      <trkpt lat="43.4805000" lon="-5.9178980">
        <ele>280.7</ele>
        <time>2018-09-15T12:58:09Z</time>
      </trkpt>
      <trkpt lat="43.4805540" lon="-5.9178160">
        <ele>280.2</ele>
        <time>2018-09-15T12:58:10Z</time>
      </trkpt>
      <trkpt lat="43.4806060" lon="-5.9177310">
        <ele>279.6</ele>
        <time>2018-09-15T12:58:11Z</time>
      </trkpt>
      <trkpt lat="43.4806570" lon="-5.9176480">
        <ele>279.0</ele>
        <time>2018-09-15T12:58:12Z</time>
      </trkpt>
      <trkpt lat="43.4807060" lon="-5.9175640">
        <ele>278.5</ele>
        <time>2018-09-15T12:58:13Z</time>
      </trkpt>
      <trkpt lat="43.4807590" lon="-5.9174840">
        <ele>277.9</ele>
        <time>2018-09-15T12:58:14Z</time>
      </trkpt>
      <trkpt lat="43.4808060" lon="-5.9173950">
        <ele>277.3</ele>
        <time>2018-09-15T12:58:15Z</time>
      </trkpt>
      <trkpt lat="43.4808540" lon="-5.9173070">
        <ele>276.7</ele>
        <time>2018-09-15T12:58:16Z</time>
      </trkpt>
      <trkpt lat="43.4809110" lon="-5.9172290">
        <ele>276.2</ele>
        <time>2018-09-15T12:58:17Z</time>
      </trkpt>
      <trkpt lat="43.4809540" lon="-5.9171390">
        <ele>275.7</ele>
        <time>2018-09-15T12:58:18Z</time>
      </trkpt>
      <trkpt lat="43.4810020" lon="-5.9170520">
        <ele>275.2</ele>
        <time>2018-09-15T12:58:19Z</time>
      </trkpt>
      <trkpt lat="43.4810550" lon="-5.9169660">
        <ele>274.6</ele>
        <time>2018-09-15T12:58:20Z</time>
      </trkpt>
      <trkpt lat="43.4811080" lon="-5.9168760">
        <ele>274.1</ele>
        <time>2018-09-15T12:58:21Z</time>
      </trkpt>
      <trkpt lat="43.4811590" lon="-5.9167890">
        <ele>273.6</ele>
        <time>2018-09-15T12:58:22Z</time>
      </trkpt>
      <trkpt lat="43.4812130" lon="-5.9167020">
        <ele>273.1</ele>
        <time>2018-09-15T12:58:23Z</time>
      </trkpt>
      <trkpt lat="43.4812640" lon="-5.9166020">
        <ele>272.6</ele>
        <time>2018-09-15T12:58:24Z</time>
      </trkpt>
      <trkpt lat="43.4813180" lon="-5.9165070">
        <ele>272.0</ele>
        <time>2018-09-15T12:58:25Z</time>
      </trkpt>
      <trkpt lat="43.4813750" lon="-5.9164100">
        <ele>271.4</ele>
        <time>2018-09-15T12:58:26Z</time>
      </trkpt>
      <trkpt lat="43.4814340" lon="-5.9163150">
        <ele>270.8</ele>
        <time>2018-09-15T12:58:27Z</time>
      </trkpt>
      <trkpt lat="43.4815010" lon="-5.9162250">
        <ele>270.2</ele>
        <time>2018-09-15T12:58:28Z</time>
      </trkpt>
      <trkpt lat="43.4815710" lon="-5.9161430">
        <ele>269.5</ele>
        <time>2018-09-15T12:58:29Z</time>
      </trkpt>
      <trkpt lat="43.4816490" lon="-5.9160690">
        <ele>268.9</ele>
        <time>2018-09-15T12:58:30Z</time>
      </trkpt>
      <trkpt lat="43.4817300" lon="-5.9160060">
        <ele>268.2</ele>
        <time>2018-09-15T12:58:31Z</time>
      </trkpt>
      <trkpt lat="43.4818140" lon="-5.9159430">
        <ele>267.5</ele>
        <time>2018-09-15T12:58:32Z</time>
      </trkpt>
      <trkpt lat="43.4818980" lon="-5.9158850">
        <ele>266.7</ele>
        <time>2018-09-15T12:58:33Z</time>
      </trkpt>
      <trkpt lat="43.4819820" lon="-5.9158230">
        <ele>266.0</ele>
        <time>2018-09-15T12:58:34Z</time>
      </trkpt>
      <trkpt lat="43.4820690" lon="-5.9157590">
        <ele>265.2</ele>
        <time>2018-09-15T12:58:35Z</time>
      </trkpt>
      <trkpt lat="43.4821560" lon="-5.9156980">
        <ele>264.4</ele>
        <time>2018-09-15T12:58:36Z</time>
      </trkpt>
      <trkpt lat="43.4822390" lon="-5.9156250">
        <ele>263.5</ele>
        <time>2018-09-15T12:58:37Z</time>
      </trkpt>
      <trkpt lat="43.4823270" lon="-5.9155590">
        <ele>262.6</ele>
        <time>2018-09-15T12:58:38Z</time>
      </trkpt>
      <trkpt lat="43.4824130" lon="-5.9154960">
        <ele>261.7</ele>
        <time>2018-09-15T12:58:39Z</time>
      </trkpt>
      <trkpt lat="43.4825010" lon="-5.9154340">
        <ele>260.8</ele>
        <time>2018-09-15T12:58:40Z</time>
      </trkpt>
      <trkpt lat="43.4825890" lon="-5.9153680">
        <ele>259.9</ele>
        <time>2018-09-15T12:58:41Z</time>
      </trkpt>
      <trkpt lat="43.4826790" lon="-5.9153010">
        <ele>259.0</ele>
        <time>2018-09-15T12:58:42Z</time>
      </trkpt>
      <trkpt lat="43.4827700" lon="-5.9152290">
        <ele>258.1</ele>
        <time>2018-09-15T12:58:43Z</time>
      </trkpt>
      <trkpt lat="43.4828590" lon="-5.9151550">
        <ele>257.3</ele>
        <time>2018-09-15T12:58:44Z</time>
      </trkpt>
      <trkpt lat="43.4829480" lon="-5.9150850">
        <ele>256.4</ele>
        <time>2018-09-15T12:58:45Z</time>
      </trkpt>
      <trkpt lat="43.4830400" lon="-5.9150210">
        <ele>255.6</ele>
        <time>2018-09-15T12:58:46Z</time>
      </trkpt>
      <trkpt lat="43.4831310" lon="-5.9149550">
        <ele>254.9</ele>
        <time>2018-09-15T12:58:47Z</time>
      </trkpt>
      <trkpt lat="43.4832160" lon="-5.9148760">
        <ele>254.2</ele>
        <time>2018-09-15T12:58:48Z</time>
      </trkpt>
      <trkpt lat="43.4832880" lon="-5.9147650">
        <ele>253.4</ele>
        <time>2018-09-15T12:58:49Z</time>
      </trkpt>
      <trkpt lat="43.4833430" lon="-5.9146440">
        <ele>252.7</ele>
        <time>2018-09-15T12:58:50Z</time>
      </trkpt>
      <trkpt lat="43.4833750" lon="-5.9145090">
        <ele>252.0</ele>
        <time>2018-09-15T12:58:51Z</time>
      </trkpt>
      <trkpt lat="43.4833960" lon="-5.9143740">
        <ele>251.3</ele>
        <time>2018-09-15T12:58:52Z</time>
      </trkpt>
      <trkpt lat="43.4834260" lon="-5.9142410">
        <ele>250.6</ele>
        <time>2018-09-15T12:58:53Z</time>
      </trkpt>
      <trkpt lat="43.4834630" lon="-5.9141100">
        <ele>250.0</ele>
        <time>2018-09-15T12:58:54Z</time>
      </trkpt>
      <trkpt lat="43.4835150" lon="-5.9139920">
        <ele>249.4</ele>
        <time>2018-09-15T12:58:55Z</time>
      </trkpt>
      <trkpt lat="43.4835830" lon="-5.9139010">
        <ele>248.8</ele>
        <time>2018-09-15T12:58:56Z</time>
      </trkpt>
      <trkpt lat="43.4836640" lon="-5.9138330">
        <ele>248.2</ele>
        <time>2018-09-15T12:58:57Z</time>
      </trkpt>
      <trkpt lat="43.4837520" lon="-5.9137800">
        <ele>247.7</ele>
        <time>2018-09-15T12:58:58Z</time>
      </trkpt>
      <trkpt lat="43.4838440" lon="-5.9137260">
        <ele>247.1</ele>
        <time>2018-09-15T12:58:59Z</time>
      </trkpt>
      <trkpt lat="43.4839260" lon="-5.9136450">
        <ele>246.5</ele>
        <time>2018-09-15T12:59:00Z</time>
      </trkpt>
      <trkpt lat="43.4839970" lon="-5.9135430">
        <ele>245.8</ele>
        <time>2018-09-15T12:59:01Z</time>
      </trkpt>
      <trkpt lat="43.4840510" lon="-5.9134210">
        <ele>245.0</ele>
        <time>2018-09-15T12:59:02Z</time>
      </trkpt>
      <trkpt lat="43.4841040" lon="-5.9133000">
        <ele>244.2</ele>
        <time>2018-09-15T12:59:03Z</time>
      </trkpt>
      <trkpt lat="43.4841580" lon="-5.9131760">
        <ele>243.3</ele>
        <time>2018-09-15T12:59:04Z</time>
      </trkpt>
      <trkpt lat="43.4842110" lon="-5.9130540">
        <ele>242.3</ele>
        <time>2018-09-15T12:59:05Z</time>
      </trkpt>
      <trkpt lat="43.4842660" lon="-5.9129370">
        <ele>241.3</ele>
        <time>2018-09-15T12:59:06Z</time>
      </trkpt>
      <trkpt lat="43.4843310" lon="-5.9128210">
        <ele>240.4</ele>
        <time>2018-09-15T12:59:07Z</time>
      </trkpt>
      <trkpt lat="43.4843900" lon="-5.9127220">
        <ele>239.6</ele>
        <time>2018-09-15T12:59:08Z</time>
      </trkpt>
      <trkpt lat="43.4844560" lon="-5.9126260">
        <ele>238.9</ele>
        <time>2018-09-15T12:59:09Z</time>
      </trkpt>
      <trkpt lat="43.4845210" lon="-5.9125170">
        <ele>238.2</ele>
        <time>2018-09-15T12:59:10Z</time>
      </trkpt>
      <trkpt lat="43.4845860" lon="-5.9124120">
        <ele>237.6</ele>
        <time>2018-09-15T12:59:11Z</time>
      </trkpt>
      <trkpt lat="43.4846530" lon="-5.9123060">
        <ele>236.9</ele>
        <time>2018-09-15T12:59:12Z</time>
      </trkpt>
      <trkpt lat="43.4847220" lon="-5.9121960">
        <ele>236.3</ele>
        <time>2018-09-15T12:59:13Z</time>
      </trkpt>
      <trkpt lat="43.4847800" lon="-5.9120820">
        <ele>235.7</ele>
        <time>2018-09-15T12:59:14Z</time>
      </trkpt>
      <trkpt lat="43.4848520" lon="-5.9119870">
        <ele>235.0</ele>
        <time>2018-09-15T12:59:15Z</time>
      </trkpt>
      <trkpt lat="43.4849190" lon="-5.9118850">
        <ele>234.4</ele>
        <time>2018-09-15T12:59:16Z</time>
      </trkpt>
      <trkpt lat="43.4849840" lon="-5.9117830">
        <ele>233.7</ele>
        <time>2018-09-15T12:59:17Z</time>
      </trkpt>
      <trkpt lat="43.4850580" lon="-5.9116820">
        <ele>233.1</ele>
        <time>2018-09-15T12:59:18Z</time>
      </trkpt>
      <trkpt lat="43.4851290" lon="-5.9115880">
        <ele>232.4</ele>
        <time>2018-09-15T12:59:19Z</time>
      </trkpt>
      <trkpt lat="43.4852050" lon="-5.9115010">
        <ele>231.7</ele>
        <time>2018-09-15T12:59:20Z</time>
      </trkpt>
      <trkpt lat="43.4852930" lon="-5.9114150">
        <ele>231.0</ele>
        <time>2018-09-15T12:59:21Z</time>
      </trkpt>
      <trkpt lat="43.4853710" lon="-5.9113330">
        <ele>230.3</ele>
        <time>2018-09-15T12:59:22Z</time>
      </trkpt>
      <trkpt lat="43.4854560" lon="-5.9112430">
        <ele>229.5</ele>
        <time>2018-09-15T12:59:23Z</time>
      </trkpt>
      <trkpt lat="43.4855250" lon="-5.9111330">
        <ele>228.7</ele>
        <time>2018-09-15T12:59:24Z</time>
      </trkpt>
      <trkpt lat="43.4855900" lon="-5.9110160">
        <ele>227.9</ele>
        <time>2018-09-15T12:59:25Z</time>
      </trkpt>
      <trkpt lat="43.4856510" lon="-5.9108980">
        <ele>227.2</ele>
        <time>2018-09-15T12:59:26Z</time>
      </trkpt>
      <trkpt lat="43.4857080" lon="-5.9107760">
        <ele>226.4</ele>
        <time>2018-09-15T12:59:27Z</time>
      </trkpt>
      <trkpt lat="43.4857650" lon="-5.9106630">
        <ele>225.6</ele>
        <time>2018-09-15T12:59:28Z</time>
      </trkpt>
      <trkpt lat="43.4858190" lon="-5.9105480">
        <ele>224.8</ele>
        <time>2018-09-15T12:59:29Z</time>
      </trkpt>
      <trkpt lat="43.4858760" lon="-5.9104310">
        <ele>224.0</ele>
        <time>2018-09-15T12:59:30Z</time>
      </trkpt>
      <trkpt lat="43.4859340" lon="-5.9103150">
        <ele>223.1</ele>
        <time>2018-09-15T12:59:31Z</time>
      </trkpt>
      <trkpt lat="43.4859930" lon="-5.9101930">
        <ele>222.2</ele>
        <time>2018-09-15T12:59:32Z</time>
      </trkpt>
      <trkpt lat="43.4860510" lon="-5.9100800">
        <ele>221.4</ele>
        <time>2018-09-15T12:59:33Z</time>
      </trkpt>
      <trkpt lat="43.4861160" lon="-5.9099640">
        <ele>220.5</ele>
        <time>2018-09-15T12:59:34Z</time>
      </trkpt>
      <trkpt lat="43.4861470" lon="-5.9098880">
        <ele>219.9</ele>
        <time>2018-09-15T12:59:35Z</time>
      </trkpt>
      <trkpt lat="43.4861840" lon="-5.9098110">
        <ele>219.3</ele>
        <time>2018-09-15T12:59:36Z</time>
      </trkpt>
      <trkpt lat="43.4862110" lon="-5.9097560">
        <ele>218.8</ele>
        <time>2018-09-15T12:59:37Z</time>
      </trkpt>
      <trkpt lat="43.4862330" lon="-5.9097100">
        <ele>218.4</ele>
        <time>2018-09-15T12:59:38Z</time>
      </trkpt>
      <trkpt lat="43.4862190" lon="-5.9096910">
        <ele>218.2</ele>
        <time>2018-09-15T12:59:39Z</time>
      </trkpt>
      <trkpt lat="43.4861610" lon="-5.9096600">
        <ele>217.0</ele>
        <time>2018-09-15T12:59:40Z</time>
      </trkpt>
      <trkpt lat="43.4861160" lon="-5.9096770">
        <ele>217.0</ele>
        <time>2018-09-15T12:59:41Z</time>
      </trkpt>
      <trkpt lat="43.4860700" lon="-5.9097030">
        <ele>217.0</ele>
        <time>2018-09-15T12:59:42Z</time>
      </trkpt>
      <trkpt lat="43.4860240" lon="-5.9097410">
        <ele>217.0</ele>
        <time>2018-09-15T12:59:43Z</time>
      </trkpt>
      <trkpt lat="43.4859800" lon="-5.9097770">
        <ele>217.0</ele>
        <time>2018-09-15T12:59:44Z</time>
      </trkpt>
      <trkpt lat="43.4859500" lon="-5.9098090">
        <ele>217.0</ele>
        <time>2018-09-15T12:59:45Z</time>
      </trkpt>
      <trkpt lat="43.4859360" lon="-5.9098110">
        <ele>217.0</ele>
        <time>2018-09-15T12:59:46Z</time>
      </trkpt>
      <trkpt lat="43.4859230" lon="-5.9098200">
        <ele>217.0</ele>
        <time>2018-09-15T12:59:47Z</time>
      </trkpt>
      <trkpt lat="43.4859220" lon="-5.9098420">
        <ele>217.0</ele>
        <time>2018-09-15T12:59:48Z</time>
      </trkpt>
      <trkpt lat="43.4859190" lon="-5.9098510">
        <ele>217.0</ele>
        <time>2018-09-15T12:59:49Z</time>
      </trkpt>
      <trkpt lat="43.4859560" lon="-5.9098310">
        <ele>217.0</ele>
        <time>2018-09-15T13:01:40Z</time>
      </trkpt>
      <trkpt lat="43.4859560" lon="-5.9098310">
        <ele>217.0</ele>
        <time>2018-09-15T13:01:41Z</time>
      </trkpt>
      <trkpt lat="43.4859550" lon="-5.9098420">
        <ele>217.0</ele>
        <time>2018-09-15T13:01:42Z</time>
      </trkpt>
      <trkpt lat="43.4859520" lon="-5.9098580">
        <ele>217.0</ele>
        <time>2018-09-15T13:01:43Z</time>
      </trkpt>
      <trkpt lat="43.4859470" lon="-5.9098870">
        <ele>216.9</ele>
        <time>2018-09-15T13:01:44Z</time>
      </trkpt>
      <trkpt lat="43.4859400" lon="-5.9099210">
        <ele>216.9</ele>
        <time>2018-09-15T13:01:45Z</time>
      </trkpt>
      <trkpt lat="43.4859180" lon="-5.9100080">
        <ele>216.7</ele>
        <time>2018-09-15T13:01:46Z</time>
      </trkpt>
      <trkpt lat="43.4859010" lon="-5.9100670">
        <ele>216.7</ele>
        <time>2018-09-15T13:01:47Z</time>
      </trkpt>
      <trkpt lat="43.4858700" lon="-5.9101430">
        <ele>216.5</ele>
        <time>2018-09-15T13:01:48Z</time>
      </trkpt>
      <trkpt lat="43.4858290" lon="-5.9102000">
        <ele>216.3</ele>
        <time>2018-09-15T13:01:49Z</time>
      </trkpt>
      <trkpt lat="43.4857730" lon="-5.9102440">
        <ele>216.1</ele>
        <time>2018-09-15T13:01:50Z</time>
      </trkpt>
      <trkpt lat="43.4857160" lon="-5.9102830">
        <ele>215.8</ele>
        <time>2018-09-15T13:01:51Z</time>
      </trkpt>
      <trkpt lat="43.4856510" lon="-5.9103090">
        <ele>215.5</ele>
        <time>2018-09-15T13:01:52Z</time>
      </trkpt>
      <trkpt lat="43.4855790" lon="-5.9103230">
        <ele>215.1</ele>
        <time>2018-09-15T13:01:53Z</time>
      </trkpt>
      <trkpt lat="43.4855070" lon="-5.9103150">
        <ele>214.7</ele>
        <time>2018-09-15T13:01:54Z</time>
      </trkpt>
      <trkpt lat="43.4854340" lon="-5.9102940">
        <ele>214.3</ele>
        <time>2018-09-15T13:01:55Z</time>
      </trkpt>
      <trkpt lat="43.4853600" lon="-5.9102570">
        <ele>213.8</ele>
        <time>2018-09-15T13:01:56Z</time>
      </trkpt>
      <trkpt lat="43.4852890" lon="-5.9102110">
        <ele>213.3</ele>
        <time>2018-09-15T13:01:57Z</time>
      </trkpt>
      <trkpt lat="43.4852160" lon="-5.9101630">
        <ele>212.9</ele>
        <time>2018-09-15T13:01:58Z</time>
      </trkpt>
      <trkpt lat="43.4851410" lon="-5.9101180">
        <ele>212.5</ele>
        <time>2018-09-15T13:01:59Z</time>
      </trkpt>
      <trkpt lat="43.4850620" lon="-5.9100730">
        <ele>212.1</ele>
        <time>2018-09-15T13:02:00Z</time>
      </trkpt>
      <trkpt lat="43.4849830" lon="-5.9100200">
        <ele>211.7</ele>
        <time>2018-09-15T13:02:01Z</time>
      </trkpt>
      <trkpt lat="43.4849040" lon="-5.9099710">
        <ele>211.3</ele>
        <time>2018-09-15T13:02:02Z</time>
      </trkpt>
      <trkpt lat="43.4847370" lon="-5.9098620">
        <ele>210.6</ele>
        <time>2018-09-15T13:02:04Z</time>
      </trkpt>
      <trkpt lat="43.4846530" lon="-5.9098080">
        <ele>210.2</ele>
        <time>2018-09-15T13:02:05Z</time>
      </trkpt>
      <trkpt lat="43.4845670" lon="-5.9097520">
        <ele>209.8</ele>
        <time>2018-09-15T13:02:06Z</time>
      </trkpt>
      <trkpt lat="43.4844870" lon="-5.9096970">
        <ele>209.5</ele>
        <time>2018-09-15T13:02:07Z</time>
      </trkpt>
      <trkpt lat="43.4844060" lon="-5.9096360">
        <ele>209.1</ele>
        <time>2018-09-15T13:02:08Z</time>
      </trkpt>
      <trkpt lat="43.4843180" lon="-5.9095890">
        <ele>208.7</ele>
        <time>2018-09-15T13:02:09Z</time>
      </trkpt>
      <trkpt lat="43.4842360" lon="-5.9095380">
        <ele>208.4</ele>
        <time>2018-09-15T13:02:10Z</time>
      </trkpt>
      <trkpt lat="43.4841490" lon="-5.9094840">
        <ele>208.0</ele>
        <time>2018-09-15T13:02:11Z</time>
      </trkpt>
      <trkpt lat="43.4840600" lon="-5.9094280">
        <ele>207.6</ele>
        <time>2018-09-15T13:02:12Z</time>
      </trkpt>
      <trkpt lat="43.4839730" lon="-5.9093720">
        <ele>207.3</ele>
        <time>2018-09-15T13:02:13Z</time>
      </trkpt>
      <trkpt lat="43.4838880" lon="-5.9093120">
        <ele>206.9</ele>
        <time>2018-09-15T13:02:14Z</time>
      </trkpt>
      <trkpt lat="43.4837960" lon="-5.9092590">
        <ele>206.5</ele>
        <time>2018-09-15T13:02:15Z</time>
      </trkpt>
      <trkpt lat="43.4837050" lon="-5.9092030">
        <ele>206.1</ele>
        <time>2018-09-15T13:02:16Z</time>
      </trkpt>
      <trkpt lat="43.4836140" lon="-5.9091460">
        <ele>205.7</ele>
        <time>2018-09-15T13:02:17Z</time>
      </trkpt>
      <trkpt lat="43.4835280" lon="-5.9090900">
        <ele>205.3</ele>
        <time>2018-09-15T13:02:18Z</time>
      </trkpt>
      <trkpt lat="43.4834370" lon="-5.9090330">
        <ele>204.8</ele>
        <time>2018-09-15T13:02:19Z</time>
      </trkpt>
      <trkpt lat="43.4833460" lon="-5.9089710">
        <ele>204.3</ele>
        <time>2018-09-15T13:02:20Z</time>
      </trkpt>
      <trkpt lat="43.4832540" lon="-5.9089120">
        <ele>203.8</ele>
        <time>2018-09-15T13:02:21Z</time>
      </trkpt>
      <trkpt lat="43.4831650" lon="-5.9088550">
        <ele>203.3</ele>
        <time>2018-09-15T13:02:22Z</time>
      </trkpt>
      <trkpt lat="43.4830780" lon="-5.9087970">
        <ele>202.9</ele>
        <time>2018-09-15T13:02:23Z</time>
      </trkpt>
      <trkpt lat="43.4829940" lon="-5.9087430">
        <ele>202.4</ele>
        <time>2018-09-15T13:02:24Z</time>
      </trkpt>
      <trkpt lat="43.4829140" lon="-5.9086900">
        <ele>202.1</ele>
        <time>2018-09-15T13:02:25Z</time>
      </trkpt>
      <trkpt lat="43.4828330" lon="-5.9086350">
        <ele>202.0</ele>
        <time>2018-09-15T13:02:26Z</time>
      </trkpt>
      <trkpt lat="43.4827560" lon="-5.9085870">
        <ele>201.9</ele>
        <time>2018-09-15T13:02:27Z</time>
      </trkpt>
      <trkpt lat="43.4826820" lon="-5.9085400">
        <ele>201.9</ele>
        <time>2018-09-15T13:02:28Z</time>
      </trkpt>
      <trkpt lat="43.4826100" lon="-5.9084910">
        <ele>201.8</ele>
        <time>2018-09-15T13:02:29Z</time>
      </trkpt>
      <trkpt lat="43.4825330" lon="-5.9084500">
        <ele>201.7</ele>
        <time>2018-09-15T13:02:30Z</time>
      </trkpt>
      <trkpt lat="43.4824630" lon="-5.9084020">
        <ele>201.6</ele>
        <time>2018-09-15T13:02:31Z</time>
      </trkpt>
      <trkpt lat="43.4823950" lon="-5.9083630">
        <ele>201.5</ele>
        <time>2018-09-15T13:02:32Z</time>
      </trkpt>
      <trkpt lat="43.4823320" lon="-5.9083160">
        <ele>201.3</ele>
        <time>2018-09-15T13:02:33Z</time>
      </trkpt>
      <trkpt lat="43.4822670" lon="-5.9082740">
        <ele>201.1</ele>
        <time>2018-09-15T13:02:34Z</time>
      </trkpt>
      <trkpt lat="43.4822090" lon="-5.9082340">
        <ele>200.9</ele>
        <time>2018-09-15T13:02:35Z</time>
      </trkpt>
      <trkpt lat="43.4821510" lon="-5.9081990">
        <ele>200.7</ele>
        <time>2018-09-15T13:02:36Z</time>
      </trkpt>
      <trkpt lat="43.4820990" lon="-5.9081660">
        <ele>200.7</ele>
        <time>2018-09-15T13:02:37Z</time>
      </trkpt>
      <trkpt lat="43.4820490" lon="-5.9081360">
        <ele>200.7</ele>
        <time>2018-09-15T13:02:38Z</time>
      </trkpt>
      <trkpt lat="43.4819940" lon="-5.9081050">
        <ele>200.6</ele>
        <time>2018-09-15T13:02:39Z</time>
      </trkpt>
      <trkpt lat="43.4819390" lon="-5.9080730">
        <ele>200.6</ele>
        <time>2018-09-15T13:02:40Z</time>
      </trkpt>
      <trkpt lat="43.4818890" lon="-5.9080380">
        <ele>200.6</ele>
        <time>2018-09-15T13:02:41Z</time>
      </trkpt>
      <trkpt lat="43.4818400" lon="-5.9080060">
        <ele>200.7</ele>
        <time>2018-09-15T13:02:42Z</time>
      </trkpt>
      <trkpt lat="43.4817960" lon="-5.9079780">
        <ele>200.7</ele>
        <time>2018-09-15T13:02:43Z</time>
      </trkpt>
      <trkpt lat="43.4817470" lon="-5.9079460">
        <ele>200.9</ele>
        <time>2018-09-15T13:02:44Z</time>
      </trkpt>
      <trkpt lat="43.4817000" lon="-5.9079170">
        <ele>201.0</ele>
        <time>2018-09-15T13:02:45Z</time>
      </trkpt>
      <trkpt lat="43.4816550" lon="-5.9078890">
        <ele>201.2</ele>
        <time>2018-09-15T13:02:46Z</time>
      </trkpt>
      <trkpt lat="43.4816090" lon="-5.9078610">
        <ele>201.5</ele>
        <time>2018-09-15T13:02:47Z</time>
      </trkpt>
      <trkpt lat="43.4815620" lon="-5.9078350">
        <ele>201.8</ele>
        <time>2018-09-15T13:02:48Z</time>
      </trkpt>
      <trkpt lat="43.4815170" lon="-5.9078050">
        <ele>202.2</ele>
        <time>2018-09-15T13:02:49Z</time>
      </trkpt>
      <trkpt lat="43.4814720" lon="-5.9077740">
        <ele>202.6</ele>
        <time>2018-09-15T13:02:50Z</time>
      </trkpt>
      <trkpt lat="43.4814290" lon="-5.9077440">
        <ele>202.9</ele>
        <time>2018-09-15T13:02:51Z</time>
      </trkpt>
      <trkpt lat="43.4813870" lon="-5.9077180">
        <ele>203.0</ele>
        <time>2018-09-15T13:02:52Z</time>
      </trkpt>
      <trkpt lat="43.4813440" lon="-5.9076890">
        <ele>203.1</ele>
        <time>2018-09-15T13:02:53Z</time>
      </trkpt>
      <trkpt lat="43.4813050" lon="-5.9076610">
        <ele>203.1</ele>
        <time>2018-09-15T13:02:54Z</time>
      </trkpt>
      <trkpt lat="43.4812770" lon="-5.9076270">
        <ele>203.2</ele>
        <time>2018-09-15T13:02:55Z</time>
      </trkpt>
      <trkpt lat="43.4812370" lon="-5.9075940">
        <ele>203.3</ele>
        <time>2018-09-15T13:02:56Z</time>
      </trkpt>
      <trkpt lat="43.4811980" lon="-5.9075730">
        <ele>203.4</ele>
        <time>2018-09-15T13:02:57Z</time>
      </trkpt>
      <trkpt lat="43.4811620" lon="-5.9075380">
        <ele>203.5</ele>
        <time>2018-09-15T13:02:58Z</time>
      </trkpt>
      <trkpt lat="43.4811210" lon="-5.9075080">
        <ele>203.6</ele>
        <time>2018-09-15T13:02:59Z</time>
      </trkpt>
      <trkpt lat="43.4810890" lon="-5.9074900">
        <ele>203.7</ele>
        <time>2018-09-15T13:03:00Z</time>
      </trkpt>
      <trkpt lat="43.4810470" lon="-5.9074710">
        <ele>203.9</ele>
        <time>2018-09-15T13:03:01Z</time>
      </trkpt>
      <trkpt lat="43.4810430" lon="-5.9074690">
        <ele>203.9</ele>
        <time>2018-09-15T13:03:02Z</time>
      </trkpt>
      <trkpt lat="43.4810300" lon="-5.9074570">
        <ele>203.9</ele>
        <time>2018-09-15T13:03:03Z</time>
      </trkpt>
      <trkpt lat="43.4810070" lon="-5.9074440">
        <ele>204.0</ele>
        <time>2018-09-15T13:03:04Z</time>
      </trkpt>
      <trkpt lat="43.4809240" lon="-5.9073990">
        <ele>204.7</ele>
        <time>2018-09-15T13:03:05Z</time>
      </trkpt>
      <trkpt lat="43.4808910" lon="-5.9073790">
        <ele>205.0</ele>
        <time>2018-09-15T13:03:06Z</time>
      </trkpt>
      <trkpt lat="43.4808440" lon="-5.9073520">
        <ele>205.4</ele>
        <time>2018-09-15T13:03:07Z</time>
      </trkpt>
      <trkpt lat="43.4808050" lon="-5.9073210">
        <ele>205.6</ele>
        <time>2018-09-15T13:03:08Z</time>
      </trkpt>
      <trkpt lat="43.4807660" lon="-5.9072920">
        <ele>205.8</ele>
        <time>2018-09-15T13:03:09Z</time>
      </trkpt>
      <trkpt lat="43.4807260" lon="-5.9072680">
        <ele>206.0</ele>
        <time>2018-09-15T13:03:10Z</time>
      </trkpt>
      <trkpt lat="43.4806850" lon="-5.9072400">
        <ele>206.2</ele>
        <time>2018-09-15T13:03:11Z</time>
      </trkpt>
      <trkpt lat="43.4806440" lon="-5.9072160">
        <ele>206.4</ele>
        <time>2018-09-15T13:03:12Z</time>
      </trkpt>
      <trkpt lat="43.4806030" lon="-5.9071920">
        <ele>206.6</ele>
        <time>2018-09-15T13:03:13Z</time>
      </trkpt>
      <trkpt lat="43.4805460" lon="-5.9071600">
        <ele>206.9</ele>
        <time>2018-09-15T13:03:14Z</time>
      </trkpt>
      <trkpt lat="43.4805070" lon="-5.9071340">
        <ele>207.3</ele>
        <time>2018-09-15T13:03:15Z</time>
      </trkpt>
      <trkpt lat="43.4804690" lon="-5.9071110">
        <ele>207.7</ele>
        <time>2018-09-15T13:03:16Z</time>
      </trkpt>
      <trkpt lat="43.4804290" lon="-5.9070890">
        <ele>208.0</ele>
        <time>2018-09-15T13:03:17Z</time>
      </trkpt>
      <trkpt lat="43.4803950" lon="-5.9070670">
        <ele>208.3</ele>
        <time>2018-09-15T13:03:18Z</time>
      </trkpt>
      <trkpt lat="43.4803570" lon="-5.9070450">
        <ele>208.4</ele>
        <time>2018-09-15T13:03:19Z</time>
      </trkpt>
      <trkpt lat="43.4803210" lon="-5.9070200">
        <ele>208.5</ele>
        <time>2018-09-15T13:03:20Z</time>
      </trkpt>
      <trkpt lat="43.4802850" lon="-5.9069930">
        <ele>208.7</ele>
        <time>2018-09-15T13:03:21Z</time>
      </trkpt>
      <trkpt lat="43.4802730" lon="-5.9069840">
        <ele>208.7</ele>
        <time>2018-09-15T13:03:22Z</time>
      </trkpt>
      <trkpt lat="43.4802610" lon="-5.9069680">
        <ele>208.8</ele>
        <time>2018-09-15T13:03:23Z</time>
      </trkpt>
      <trkpt lat="43.4802470" lon="-5.9069460">
        <ele>208.9</ele>
        <time>2018-09-15T13:03:24Z</time>
      </trkpt>
      <trkpt lat="43.4802330" lon="-5.9069150">
        <ele>209.0</ele>
        <time>2018-09-15T13:03:25Z</time>
      </trkpt>
      <trkpt lat="43.4801850" lon="-5.9068260">
        <ele>209.5</ele>
        <time>2018-09-15T13:03:26Z</time>
      </trkpt>
      <trkpt lat="43.4801700" lon="-5.9067670">
        <ele>209.8</ele>
        <time>2018-09-15T13:03:27Z</time>
      </trkpt>
      <trkpt lat="43.4801630" lon="-5.9067090">
        <ele>210.2</ele>
        <time>2018-09-15T13:03:28Z</time>
      </trkpt>
      <trkpt lat="43.4801550" lon="-5.9066510">
        <ele>210.6</ele>
        <time>2018-09-15T13:03:29Z</time>
      </trkpt>
      <trkpt lat="43.4801530" lon="-5.9065930">
        <ele>211.0</ele>
        <time>2018-09-15T13:03:30Z</time>
      </trkpt>
      <trkpt lat="43.4801520" lon="-5.9065370">
        <ele>211.1</ele>
        <time>2018-09-15T13:03:31Z</time>
      </trkpt>
      <trkpt lat="43.4801510" lon="-5.9064800">
        <ele>211.3</ele>
        <time>2018-09-15T13:03:32Z</time>
      </trkpt>
      <trkpt lat="43.4801480" lon="-5.9064210">
        <ele>211.4</ele>
        <time>2018-09-15T13:03:33Z</time>
      </trkpt>
      <trkpt lat="43.4801470" lon="-5.9063840">
        <ele>211.5</ele>
        <time>2018-09-15T13:03:34Z</time>
      </trkpt>
      <trkpt lat="43.4801460" lon="-5.9063470">
        <ele>211.5</ele>
        <time>2018-09-15T13:03:35Z</time>
      </trkpt>
      <trkpt lat="43.4801440" lon="-5.9063100">
        <ele>211.6</ele>
        <time>2018-09-15T13:03:36Z</time>
      </trkpt>
      <trkpt lat="43.4801430" lon="-5.9062730">
        <ele>211.6</ele>
        <time>2018-09-15T13:03:37Z</time>
      </trkpt>
      <trkpt lat="43.4801370" lon="-5.9061260">
        <ele>211.8</ele>
        <time>2018-09-15T13:03:38Z</time>
      </trkpt>
      <trkpt lat="43.4801340" lon="-5.9060620">
        <ele>211.9</ele>
        <time>2018-09-15T13:03:39Z</time>
      </trkpt>
      <trkpt lat="43.4801330" lon="-5.9060200">
        <ele>212.0</ele>
        <time>2018-09-15T13:03:40Z</time>
      </trkpt>
      <trkpt lat="43.4801340" lon="-5.9059610">
        <ele>212.2</ele>
        <time>2018-09-15T13:03:41Z</time>
      </trkpt>
      <trkpt lat="43.4801340" lon="-5.9059050">
        <ele>212.3</ele>
        <time>2018-09-15T13:03:42Z</time>
      </trkpt>
      <trkpt lat="43.4801340" lon="-5.9058460">
        <ele>212.5</ele>
        <time>2018-09-15T13:03:43Z</time>
      </trkpt>
      <trkpt lat="43.4801340" lon="-5.9057900">
        <ele>212.8</ele>
        <time>2018-09-15T13:03:44Z</time>
      </trkpt>
      <trkpt lat="43.4801340" lon="-5.9057320">
        <ele>213.2</ele>
        <time>2018-09-15T13:03:45Z</time>
      </trkpt>
      <trkpt lat="43.4801360" lon="-5.9056780">
        <ele>213.5</ele>
        <time>2018-09-15T13:03:46Z</time>
      </trkpt>
      <trkpt lat="43.4801360" lon="-5.9056590">
        <ele>213.6</ele>
        <time>2018-09-15T13:03:47Z</time>
      </trkpt>
      <trkpt lat="43.4801370" lon="-5.9056360">
        <ele>213.7</ele>
        <time>2018-09-15T13:03:48Z</time>
      </trkpt>
      <trkpt lat="43.4801370" lon="-5.9056140">
        <ele>213.7</ele>
        <time>2018-09-15T13:03:49Z</time>
      </trkpt>
      <trkpt lat="43.4801290" lon="-5.9054630">
        <ele>214.1</ele>
        <time>2018-09-15T13:03:50Z</time>
      </trkpt>
      <trkpt lat="43.4801300" lon="-5.9054040">
        <ele>214.2</ele>
        <time>2018-09-15T13:03:51Z</time>
      </trkpt>
      <trkpt lat="43.4801290" lon="-5.9053450">
        <ele>214.3</ele>
        <time>2018-09-15T13:03:52Z</time>
      </trkpt>
      <trkpt lat="43.4801280" lon="-5.9052880">
        <ele>214.4</ele>
        <time>2018-09-15T13:03:53Z</time>
      </trkpt>
      <trkpt lat="43.4801280" lon="-5.9052320">
        <ele>214.5</ele>
        <time>2018-09-15T13:03:54Z</time>
      </trkpt>
      <trkpt lat="43.4801200" lon="-5.9051780">
        <ele>214.6</ele>
        <time>2018-09-15T13:03:55Z</time>
      </trkpt>
      <trkpt lat="43.4801090" lon="-5.9051240">
        <ele>214.7</ele>
        <time>2018-09-15T13:03:56Z</time>
      </trkpt>
      <trkpt lat="43.4800980" lon="-5.9050750">
        <ele>214.8</ele>
        <time>2018-09-15T13:03:57Z</time>
      </trkpt>
      <trkpt lat="43.4800930" lon="-5.9050580">
        <ele>214.8</ele>
        <time>2018-09-15T13:03:58Z</time>
      </trkpt>
      <trkpt lat="43.4800840" lon="-5.9050360">
        <ele>214.9</ele>
        <time>2018-09-15T13:03:59Z</time>
      </trkpt>
      <trkpt lat="43.4800740" lon="-5.9050080">
        <ele>214.9</ele>
        <time>2018-09-15T13:04:00Z</time>
      </trkpt>
      <trkpt lat="43.4800540" lon="-5.9049500">
        <ele>215.1</ele>
        <time>2018-09-15T13:04:01Z</time>
      </trkpt>
      <trkpt lat="43.4800330" lon="-5.9048920">
        <ele>215.4</ele>
        <time>2018-09-15T13:04:02Z</time>
      </trkpt>
      <trkpt lat="43.4800100" lon="-5.9048330">
        <ele>215.8</ele>
        <time>2018-09-15T13:04:03Z</time>
      </trkpt>
      <trkpt lat="43.4799910" lon="-5.9047830">
        <ele>216.1</ele>
        <time>2018-09-15T13:04:04Z</time>
      </trkpt>
      <trkpt lat="43.4799720" lon="-5.9047270">
        <ele>216.5</ele>
        <time>2018-09-15T13:04:05Z</time>
      </trkpt>
      <trkpt lat="43.4799370" lon="-5.9046380">
        <ele>216.7</ele>
        <time>2018-09-15T13:04:06Z</time>
      </trkpt>
      <trkpt lat="43.4799280" lon="-5.9046150">
        <ele>216.8</ele>
        <time>2018-09-15T13:04:07Z</time>
      </trkpt>
      <trkpt lat="43.4799020" lon="-5.9045490">
        <ele>217.0</ele>
        <time>2018-09-15T13:04:08Z</time>
      </trkpt>
      <trkpt lat="43.4798840" lon="-5.9045010">
        <ele>217.1</ele>
        <time>2018-09-15T13:04:09Z</time>
      </trkpt>
      <trkpt lat="43.4798680" lon="-5.9044540">
        <ele>217.2</ele>
        <time>2018-09-15T13:04:10Z</time>
      </trkpt>
      <trkpt lat="43.4798520" lon="-5.9044100">
        <ele>217.3</ele>
        <time>2018-09-15T13:04:11Z</time>
      </trkpt>
      <trkpt lat="43.4798450" lon="-5.9043870">
        <ele>217.4</ele>
        <time>2018-09-15T13:04:12Z</time>
      </trkpt>
      <trkpt lat="43.4798330" lon="-5.9043560">
        <ele>217.4</ele>
        <time>2018-09-15T13:04:13Z</time>
      </trkpt>
      <trkpt lat="43.4798200" lon="-5.9043260">
        <ele>217.5</ele>
        <time>2018-09-15T13:04:14Z</time>
      </trkpt>
      <trkpt lat="43.4798160" lon="-5.9042880">
        <ele>217.6</ele>
        <time>2018-09-15T13:04:15Z</time>
      </trkpt>
      <trkpt lat="43.4798080" lon="-5.9042520">
        <ele>217.7</ele>
        <time>2018-09-15T13:04:16Z</time>
      </trkpt>
      <trkpt lat="43.4798020" lon="-5.9042130">
        <ele>217.8</ele>
        <time>2018-09-15T13:04:17Z</time>
      </trkpt>
      <trkpt lat="43.4797930" lon="-5.9041720">
        <ele>217.9</ele>
        <time>2018-09-15T13:04:18Z</time>
      </trkpt>
      <trkpt lat="43.4797860" lon="-5.9041330">
        <ele>218.1</ele>
        <time>2018-09-15T13:04:19Z</time>
      </trkpt>
      <trkpt lat="43.4797780" lon="-5.9040950">
        <ele>218.4</ele>
        <time>2018-09-15T13:04:20Z</time>
      </trkpt>
      <trkpt lat="43.4797620" lon="-5.9040580">
        <ele>218.7</ele>
        <time>2018-09-15T13:04:21Z</time>
      </trkpt>
      <trkpt lat="43.4797510" lon="-5.9040170">
        <ele>219.0</ele>
        <time>2018-09-15T13:04:22Z</time>
      </trkpt>
      <trkpt lat="43.4797390" lon="-5.9039770">
        <ele>219.1</ele>
        <time>2018-09-15T13:04:23Z</time>
      </trkpt>
      <trkpt lat="43.4797260" lon="-5.9039390">
        <ele>219.3</ele>
        <time>2018-09-15T13:04:24Z</time>
      </trkpt>
      <trkpt lat="43.4797120" lon="-5.9039020">
        <ele>219.4</ele>
        <time>2018-09-15T13:04:25Z</time>
      </trkpt>
      <trkpt lat="43.4796990" lon="-5.9038680">
        <ele>219.5</ele>
        <time>2018-09-15T13:04:26Z</time>
      </trkpt>
      <trkpt lat="43.4796810" lon="-5.9038440">
        <ele>219.6</ele>
        <time>2018-09-15T13:04:27Z</time>
      </trkpt>
      <trkpt lat="43.4796600" lon="-5.9038190">
        <ele>219.7</ele>
        <time>2018-09-15T13:04:28Z</time>
      </trkpt>
      <trkpt lat="43.4796360" lon="-5.9038010">
        <ele>219.8</ele>
        <time>2018-09-15T13:04:29Z</time>
      </trkpt>
      <trkpt lat="43.4796120" lon="-5.9037930">
        <ele>219.9</ele>
        <time>2018-09-15T13:04:30Z</time>
      </trkpt>
      <trkpt lat="43.4795860" lon="-5.9037780">
        <ele>220.0</ele>
        <time>2018-09-15T13:04:31Z</time>
      </trkpt>
      <trkpt lat="43.4795620" lon="-5.9037750">
        <ele>220.0</ele>
        <time>2018-09-15T13:04:32Z</time>
      </trkpt>
      <trkpt lat="43.4795340" lon="-5.9037750">
        <ele>220.0</ele>
        <time>2018-09-15T13:04:33Z</time>
      </trkpt>
      <trkpt lat="43.4795060" lon="-5.9037790">
        <ele>220.0</ele>
        <time>2018-09-15T13:04:34Z</time>
      </trkpt>
      <trkpt lat="43.4794740" lon="-5.9037840">
        <ele>220.0</ele>
        <time>2018-09-15T13:04:35Z</time>
      </trkpt>
      <trkpt lat="43.4794450" lon="-5.9037900">
        <ele>220.0</ele>
        <time>2018-09-15T13:04:36Z</time>
      </trkpt>
      <trkpt lat="43.4794210" lon="-5.9038010">
        <ele>220.4</ele>
        <time>2018-09-15T13:04:37Z</time>
      </trkpt>
      <trkpt lat="43.4793930" lon="-5.9038060">
        <ele>220.7</ele>
        <time>2018-09-15T13:04:38Z</time>
      </trkpt>
      <trkpt lat="43.4793660" lon="-5.9038100">
        <ele>221.0</ele>
        <time>2018-09-15T13:04:39Z</time>
      </trkpt>
      <trkpt lat="43.4793430" lon="-5.9038170">
        <ele>221.3</ele>
        <time>2018-09-15T13:04:40Z</time>
      </trkpt>
      <trkpt lat="43.4793140" lon="-5.9038230">
        <ele>221.7</ele>
        <time>2018-09-15T13:04:41Z</time>
      </trkpt>
      <trkpt lat="43.4792860" lon="-5.9038300">
        <ele>222.1</ele>
        <time>2018-09-15T13:04:42Z</time>
      </trkpt>
      <trkpt lat="43.4792650" lon="-5.9038390">
        <ele>222.4</ele>
        <time>2018-09-15T13:04:43Z</time>
      </trkpt>
      <trkpt lat="43.4792400" lon="-5.9038470">
        <ele>222.8</ele>
        <time>2018-09-15T13:04:44Z</time>
      </trkpt>
      <trkpt lat="43.4792160" lon="-5.9038530">
        <ele>223.1</ele>
        <time>2018-09-15T13:04:45Z</time>
      </trkpt>
      <trkpt lat="43.4791970" lon="-5.9038580">
        <ele>223.3</ele>
        <time>2018-09-15T13:04:46Z</time>
      </trkpt>
      <trkpt lat="43.4791830" lon="-5.9038630">
        <ele>223.4</ele>
        <time>2018-09-15T13:04:47Z</time>
      </trkpt>
      <trkpt lat="43.4791610" lon="-5.9038670">
        <ele>223.7</ele>
        <time>2018-09-15T13:04:48Z</time>
      </trkpt>
      <trkpt lat="43.4791400" lon="-5.9038730">
        <ele>223.9</ele>
        <time>2018-09-15T13:04:49Z</time>
      </trkpt>
      <trkpt lat="43.4791230" lon="-5.9038770">
        <ele>224.1</ele>
        <time>2018-09-15T13:04:50Z</time>
      </trkpt>
      <trkpt lat="43.4791000" lon="-5.9038810">
        <ele>224.4</ele>
        <time>2018-09-15T13:04:51Z</time>
      </trkpt>
      <trkpt lat="43.4790570" lon="-5.9038780">
        <ele>225.1</ele>
        <time>2018-09-15T13:04:53Z</time>
      </trkpt>
      <trkpt lat="43.4790360" lon="-5.9038750">
        <ele>225.4</ele>
        <time>2018-09-15T13:04:54Z</time>
      </trkpt>
      <trkpt lat="43.4790210" lon="-5.9038740">
        <ele>225.6</ele>
        <time>2018-09-15T13:04:55Z</time>
      </trkpt>
      <trkpt lat="43.4790010" lon="-5.9038710">
        <ele>226.0</ele>
        <time>2018-09-15T13:04:56Z</time>
      </trkpt>
      <trkpt lat="43.4789770" lon="-5.9038640">
        <ele>226.2</ele>
        <time>2018-09-15T13:04:57Z</time>
      </trkpt>
      <trkpt lat="43.4789520" lon="-5.9038570">
        <ele>226.4</ele>
        <time>2018-09-15T13:04:58Z</time>
      </trkpt>
      <trkpt lat="43.4789250" lon="-5.9038470">
        <ele>226.6</ele>
        <time>2018-09-15T13:04:59Z</time>
      </trkpt>
      <trkpt lat="43.4789050" lon="-5.9038390">
        <ele>226.8</ele>
        <time>2018-09-15T13:05:00Z</time>
      </trkpt>
      <trkpt lat="43.4788840" lon="-5.9038320">
        <ele>226.9</ele>
        <time>2018-09-15T13:05:01Z</time>
      </trkpt>
      <trkpt lat="43.4788630" lon="-5.9038240">
        <ele>227.2</ele>
        <time>2018-09-15T13:05:02Z</time>
      </trkpt>
      <trkpt lat="43.4788380" lon="-5.9038120">
        <ele>227.6</ele>
        <time>2018-09-15T13:05:03Z</time>
      </trkpt>
      <trkpt lat="43.4788150" lon="-5.9038000">
        <ele>228.0</ele>
        <time>2018-09-15T13:05:04Z</time>
      </trkpt>
      <trkpt lat="43.4787990" lon="-5.9037910">
        <ele>228.2</ele>
        <time>2018-09-15T13:05:05Z</time>
      </trkpt>
      <trkpt lat="43.4787780" lon="-5.9037790">
        <ele>228.5</ele>
        <time>2018-09-15T13:05:06Z</time>
      </trkpt>
      <trkpt lat="43.4787610" lon="-5.9037680">
        <ele>228.8</ele>
        <time>2018-09-15T13:05:07Z</time>
      </trkpt>
      <trkpt lat="43.4787410" lon="-5.9037580">
        <ele>228.9</ele>
        <time>2018-09-15T13:05:08Z</time>
      </trkpt>
      <trkpt lat="43.4787160" lon="-5.9037420">
        <ele>229.0</ele>
        <time>2018-09-15T13:05:09Z</time>
      </trkpt>
      <trkpt lat="43.4786920" lon="-5.9037260">
        <ele>229.1</ele>
        <time>2018-09-15T13:05:10Z</time>
      </trkpt>
      <trkpt lat="43.4786730" lon="-5.9037130">
        <ele>229.2</ele>
        <time>2018-09-15T13:05:11Z</time>
      </trkpt>
      <trkpt lat="43.4786490" lon="-5.9036960">
        <ele>229.4</ele>
        <time>2018-09-15T13:05:12Z</time>
      </trkpt>
      <trkpt lat="43.4786250" lon="-5.9036810">
        <ele>229.5</ele>
        <time>2018-09-15T13:05:13Z</time>
      </trkpt>
      <trkpt lat="43.4786020" lon="-5.9036650">
        <ele>229.6</ele>
        <time>2018-09-15T13:05:14Z</time>
      </trkpt>
      <trkpt lat="43.4785830" lon="-5.9036540">
        <ele>229.7</ele>
        <time>2018-09-15T13:05:15Z</time>
      </trkpt>
      <trkpt lat="43.4785630" lon="-5.9036410">
        <ele>229.9</ele>
        <time>2018-09-15T13:05:16Z</time>
      </trkpt>
      <trkpt lat="43.4785380" lon="-5.9036250">
        <ele>230.2</ele>
        <time>2018-09-15T13:05:17Z</time>
      </trkpt>
      <trkpt lat="43.4785180" lon="-5.9036120">
        <ele>230.4</ele>
        <time>2018-09-15T13:05:18Z</time>
      </trkpt>
      <trkpt lat="43.4784920" lon="-5.9035970">
        <ele>230.8</ele>
        <time>2018-09-15T13:05:19Z</time>
      </trkpt>
      <trkpt lat="43.4784660" lon="-5.9035830">
        <ele>231.1</ele>
        <time>2018-09-15T13:05:20Z</time>
      </trkpt>
      <trkpt lat="43.4784420" lon="-5.9035690">
        <ele>231.5</ele>
        <time>2018-09-15T13:05:21Z</time>
      </trkpt>
      <trkpt lat="43.4784230" lon="-5.9035570">
        <ele>231.7</ele>
        <time>2018-09-15T13:05:22Z</time>
      </trkpt>
      <trkpt lat="43.4784030" lon="-5.9035440">
        <ele>232.0</ele>
        <time>2018-09-15T13:05:23Z</time>
      </trkpt>
      <trkpt lat="43.4783770" lon="-5.9035280">
        <ele>232.3</ele>
        <time>2018-09-15T13:05:24Z</time>
      </trkpt>
      <trkpt lat="43.4783570" lon="-5.9035160">
        <ele>232.4</ele>
        <time>2018-09-15T13:05:25Z</time>
      </trkpt>
      <trkpt lat="43.4783310" lon="-5.9035010">
        <ele>232.5</ele>
        <time>2018-09-15T13:05:26Z</time>
      </trkpt>
      <trkpt lat="43.4783110" lon="-5.9034880">
        <ele>232.5</ele>
        <time>2018-09-15T13:05:27Z</time>
      </trkpt>
      <trkpt lat="43.4782860" lon="-5.9034720">
        <ele>232.6</ele>
        <time>2018-09-15T13:05:28Z</time>
      </trkpt>
      <trkpt lat="43.4782690" lon="-5.9034590">
        <ele>232.7</ele>
        <time>2018-09-15T13:05:29Z</time>
      </trkpt>
      <trkpt lat="43.4782420" lon="-5.9034420">
        <ele>232.8</ele>
        <time>2018-09-15T13:05:30Z</time>
      </trkpt>
      <trkpt lat="43.4782210" lon="-5.9034280">
        <ele>232.9</ele>
        <time>2018-09-15T13:05:31Z</time>
      </trkpt>
      <trkpt lat="43.4782000" lon="-5.9034140">
        <ele>233.0</ele>
        <time>2018-09-15T13:05:32Z</time>
      </trkpt>
      <trkpt lat="43.4781750" lon="-5.9033960">
        <ele>233.1</ele>
        <time>2018-09-15T13:05:33Z</time>
      </trkpt>
      <trkpt lat="43.4781510" lon="-5.9033800">
        <ele>233.3</ele>
        <time>2018-09-15T13:05:34Z</time>
      </trkpt>
      <trkpt lat="43.4781320" lon="-5.9033640">
        <ele>233.4</ele>
        <time>2018-09-15T13:05:35Z</time>
      </trkpt>
      <trkpt lat="43.4781120" lon="-5.9033480">
        <ele>233.5</ele>
        <time>2018-09-15T13:05:36Z</time>
      </trkpt>
      <trkpt lat="43.4780860" lon="-5.9033290">
        <ele>233.7</ele>
        <time>2018-09-15T13:05:37Z</time>
      </trkpt>
      <trkpt lat="43.4780650" lon="-5.9033130">
        <ele>234.0</ele>
        <time>2018-09-15T13:05:38Z</time>
      </trkpt>
      <trkpt lat="43.4780390" lon="-5.9032920">
        <ele>234.4</ele>
        <time>2018-09-15T13:05:39Z</time>
      </trkpt>
      <trkpt lat="43.4780130" lon="-5.9032750">
        <ele>234.8</ele>
        <time>2018-09-15T13:05:40Z</time>
      </trkpt>
      <trkpt lat="43.4779930" lon="-5.9032610">
        <ele>235.0</ele>
        <time>2018-09-15T13:05:41Z</time>
      </trkpt>
      <trkpt lat="43.4779680" lon="-5.9032430">
        <ele>235.2</ele>
        <time>2018-09-15T13:05:42Z</time>
      </trkpt>
      <trkpt lat="43.4779440" lon="-5.9032250">
        <ele>235.4</ele>
        <time>2018-09-15T13:05:43Z</time>
      </trkpt>
      <trkpt lat="43.4779260" lon="-5.9032110">
        <ele>235.5</ele>
        <time>2018-09-15T13:05:44Z</time>
      </trkpt>
      <trkpt lat="43.4779020" lon="-5.9031940">
        <ele>235.6</ele>
        <time>2018-09-15T13:05:45Z</time>
      </trkpt>
      <trkpt lat="43.4778790" lon="-5.9031740">
        <ele>235.7</ele>
        <time>2018-09-15T13:05:46Z</time>
      </trkpt>
      <trkpt lat="43.4778560" lon="-5.9031570">
        <ele>235.8</ele>
        <time>2018-09-15T13:05:47Z</time>
      </trkpt>
      <trkpt lat="43.4778380" lon="-5.9031440">
        <ele>235.9</ele>
        <time>2018-09-15T13:05:48Z</time>
      </trkpt>
      <trkpt lat="43.4778140" lon="-5.9031280">
        <ele>236.0</ele>
        <time>2018-09-15T13:05:49Z</time>
      </trkpt>
      <trkpt lat="43.4777980" lon="-5.9031160">
        <ele>236.1</ele>
        <time>2018-09-15T13:05:50Z</time>
      </trkpt>
      <trkpt lat="43.4777740" lon="-5.9031020">
        <ele>236.4</ele>
        <time>2018-09-15T13:05:51Z</time>
      </trkpt>
      <trkpt lat="43.4777450" lon="-5.9030880">
        <ele>236.8</ele>
        <time>2018-09-15T13:05:52Z</time>
      </trkpt>
      <trkpt lat="43.4777190" lon="-5.9030760">
        <ele>237.2</ele>
        <time>2018-09-15T13:05:53Z</time>
      </trkpt>
      <trkpt lat="43.4776990" lon="-5.9030650">
        <ele>237.4</ele>
        <time>2018-09-15T13:05:54Z</time>
      </trkpt>
      <trkpt lat="43.4776740" lon="-5.9030530">
        <ele>237.6</ele>
        <time>2018-09-15T13:05:55Z</time>
      </trkpt>
      <trkpt lat="43.4776540" lon="-5.9030430">
        <ele>237.7</ele>
        <time>2018-09-15T13:05:56Z</time>
      </trkpt>
      <trkpt lat="43.4776330" lon="-5.9030320">
        <ele>237.8</ele>
        <time>2018-09-15T13:05:57Z</time>
      </trkpt>
      <trkpt lat="43.4776120" lon="-5.9030210">
        <ele>237.9</ele>
        <time>2018-09-15T13:05:58Z</time>
      </trkpt>
      <trkpt lat="43.4775870" lon="-5.9030080">
        <ele>238.1</ele>
        <time>2018-09-15T13:05:59Z</time>
      </trkpt>
      <trkpt lat="43.4775630" lon="-5.9029960">
        <ele>238.4</ele>
        <time>2018-09-15T13:06:00Z</time>
      </trkpt>
      <trkpt lat="43.4775400" lon="-5.9029820">
        <ele>238.6</ele>
        <time>2018-09-15T13:06:01Z</time>
      </trkpt>
      <trkpt lat="43.4775240" lon="-5.9029690">
        <ele>238.8</ele>
        <time>2018-09-15T13:06:02Z</time>
      </trkpt>
      <trkpt lat="43.4775010" lon="-5.9029530">
        <ele>239.2</ele>
        <time>2018-09-15T13:06:03Z</time>
      </trkpt>
      <trkpt lat="43.4774840" lon="-5.9029400">
        <ele>239.4</ele>
        <time>2018-09-15T13:06:04Z</time>
      </trkpt>
      <trkpt lat="43.4774660" lon="-5.9029270">
        <ele>239.7</ele>
        <time>2018-09-15T13:06:05Z</time>
      </trkpt>
      <trkpt lat="43.4774480" lon="-5.9029140">
        <ele>239.9</ele>
        <time>2018-09-15T13:06:06Z</time>
      </trkpt>
      <trkpt lat="43.4774240" lon="-5.9028990">
        <ele>240.1</ele>
        <time>2018-09-15T13:06:07Z</time>
      </trkpt>
      <trkpt lat="43.4774050" lon="-5.9028870">
        <ele>240.3</ele>
        <time>2018-09-15T13:06:08Z</time>
      </trkpt>
      <trkpt lat="43.4773810" lon="-5.9028710">
        <ele>240.5</ele>
        <time>2018-09-15T13:06:09Z</time>
      </trkpt>
      <trkpt lat="43.4773630" lon="-5.9028570">
        <ele>240.6</ele>
        <time>2018-09-15T13:06:10Z</time>
      </trkpt>
      <trkpt lat="43.4773390" lon="-5.9028390">
        <ele>240.8</ele>
        <time>2018-09-15T13:06:11Z</time>
      </trkpt>
      <trkpt lat="43.4773210" lon="-5.9028230">
        <ele>240.9</ele>
        <time>2018-09-15T13:06:12Z</time>
      </trkpt>
      <trkpt lat="43.4772970" lon="-5.9028050">
        <ele>241.1</ele>
        <time>2018-09-15T13:06:13Z</time>
      </trkpt>
      <trkpt lat="43.4772750" lon="-5.9027870">
        <ele>241.2</ele>
        <time>2018-09-15T13:06:14Z</time>
      </trkpt>
      <trkpt lat="43.4772540" lon="-5.9027700">
        <ele>241.6</ele>
        <time>2018-09-15T13:06:15Z</time>
      </trkpt>
      <trkpt lat="43.4772370" lon="-5.9027550">
        <ele>241.9</ele>
        <time>2018-09-15T13:06:16Z</time>
      </trkpt>
      <trkpt lat="43.4772140" lon="-5.9027380">
        <ele>242.2</ele>
        <time>2018-09-15T13:06:17Z</time>
      </trkpt>
      <trkpt lat="43.4771920" lon="-5.9027190">
        <ele>242.6</ele>
        <time>2018-09-15T13:06:18Z</time>
      </trkpt>
      <trkpt lat="43.4771750" lon="-5.9027000">
        <ele>242.8</ele>
        <time>2018-09-15T13:06:19Z</time>
      </trkpt>
      <trkpt lat="43.4771520" lon="-5.9026820">
        <ele>243.0</ele>
        <time>2018-09-15T13:06:20Z</time>
      </trkpt>
      <trkpt lat="43.4771340" lon="-5.9026640">
        <ele>243.1</ele>
        <time>2018-09-15T13:06:21Z</time>
      </trkpt>
      <trkpt lat="43.4771100" lon="-5.9026430">
        <ele>243.3</ele>
        <time>2018-09-15T13:06:22Z</time>
      </trkpt>
      <trkpt lat="43.4770900" lon="-5.9026270">
        <ele>243.4</ele>
        <time>2018-09-15T13:06:23Z</time>
      </trkpt>
      <trkpt lat="43.4770690" lon="-5.9026090">
        <ele>243.6</ele>
        <time>2018-09-15T13:06:24Z</time>
      </trkpt>
      <trkpt lat="43.4770430" lon="-5.9025910">
        <ele>243.9</ele>
        <time>2018-09-15T13:06:25Z</time>
      </trkpt>
      <trkpt lat="43.4770180" lon="-5.9025760">
        <ele>244.3</ele>
        <time>2018-09-15T13:06:26Z</time>
      </trkpt>
      <trkpt lat="43.4769980" lon="-5.9025630">
        <ele>244.6</ele>
        <time>2018-09-15T13:06:27Z</time>
      </trkpt>
      <trkpt lat="43.4769720" lon="-5.9025490">
        <ele>245.0</ele>
        <time>2018-09-15T13:06:28Z</time>
      </trkpt>
      <trkpt lat="43.4769540" lon="-5.9025380">
        <ele>245.2</ele>
        <time>2018-09-15T13:06:29Z</time>
      </trkpt>
      <trkpt lat="43.4769350" lon="-5.9025240">
        <ele>245.4</ele>
        <time>2018-09-15T13:06:30Z</time>
      </trkpt>
      <trkpt lat="43.4769160" lon="-5.9025090">
        <ele>245.6</ele>
        <time>2018-09-15T13:06:31Z</time>
      </trkpt>
      <trkpt lat="43.4768920" lon="-5.9024950">
        <ele>245.8</ele>
        <time>2018-09-15T13:06:32Z</time>
      </trkpt>
      <trkpt lat="43.4768680" lon="-5.9024840">
        <ele>246.0</ele>
        <time>2018-09-15T13:06:33Z</time>
      </trkpt>
      <trkpt lat="43.4768440" lon="-5.9024760">
        <ele>246.2</ele>
        <time>2018-09-15T13:06:34Z</time>
      </trkpt>
      <trkpt lat="43.4768220" lon="-5.9024720">
        <ele>246.3</ele>
        <time>2018-09-15T13:06:35Z</time>
      </trkpt>
      <trkpt lat="43.4768030" lon="-5.9024680">
        <ele>246.6</ele>
        <time>2018-09-15T13:06:36Z</time>
      </trkpt>
      <trkpt lat="43.4767810" lon="-5.9024670">
        <ele>246.9</ele>
        <time>2018-09-15T13:06:37Z</time>
      </trkpt>
      <trkpt lat="43.4767520" lon="-5.9024700">
        <ele>247.4</ele>
        <time>2018-09-15T13:06:38Z</time>
      </trkpt>
      <trkpt lat="43.4767250" lon="-5.9024730">
        <ele>247.7</ele>
        <time>2018-09-15T13:06:39Z</time>
      </trkpt>
      <trkpt lat="43.4766990" lon="-5.9024760">
        <ele>247.9</ele>
        <time>2018-09-15T13:06:40Z</time>
      </trkpt>
      <trkpt lat="43.4766790" lon="-5.9024790">
        <ele>248.0</ele>
        <time>2018-09-15T13:06:41Z</time>
      </trkpt>
      <trkpt lat="43.4766520" lon="-5.9024850">
        <ele>248.2</ele>
        <time>2018-09-15T13:06:42Z</time>
      </trkpt>
      <trkpt lat="43.4766260" lon="-5.9024880">
        <ele>248.4</ele>
        <time>2018-09-15T13:06:43Z</time>
      </trkpt>
      <trkpt lat="43.4766070" lon="-5.9024910">
        <ele>248.5</ele>
        <time>2018-09-15T13:06:44Z</time>
      </trkpt>
      <trkpt lat="43.4765830" lon="-5.9024950">
        <ele>248.7</ele>
        <time>2018-09-15T13:06:45Z</time>
      </trkpt>
      <trkpt lat="43.4765640" lon="-5.9024960">
        <ele>248.9</ele>
        <time>2018-09-15T13:06:46Z</time>
      </trkpt>
      <trkpt lat="43.4765380" lon="-5.9024970">
        <ele>249.3</ele>
        <time>2018-09-15T13:06:47Z</time>
      </trkpt>
      <trkpt lat="43.4765160" lon="-5.9024960">
        <ele>249.6</ele>
        <time>2018-09-15T13:06:48Z</time>
      </trkpt>
      <trkpt lat="43.4764870" lon="-5.9024930">
        <ele>250.0</ele>
        <time>2018-09-15T13:06:49Z</time>
      </trkpt>
      <trkpt lat="43.4764600" lon="-5.9024900">
        <ele>250.4</ele>
        <time>2018-09-15T13:06:50Z</time>
      </trkpt>
      <trkpt lat="43.4764340" lon="-5.9024820">
        <ele>250.5</ele>
        <time>2018-09-15T13:06:51Z</time>
      </trkpt>
      <trkpt lat="43.4764090" lon="-5.9024720">
        <ele>250.7</ele>
        <time>2018-09-15T13:06:52Z</time>
      </trkpt>
      <trkpt lat="43.4763870" lon="-5.9024630">
        <ele>250.8</ele>
        <time>2018-09-15T13:06:53Z</time>
      </trkpt>
      <trkpt lat="43.4763720" lon="-5.9024530">
        <ele>250.9</ele>
        <time>2018-09-15T13:06:54Z</time>
      </trkpt>
      <trkpt lat="43.4763490" lon="-5.9024380">
        <ele>251.0</ele>
        <time>2018-09-15T13:06:55Z</time>
      </trkpt>
      <trkpt lat="43.4763280" lon="-5.9024280">
        <ele>251.1</ele>
        <time>2018-09-15T13:06:56Z</time>
      </trkpt>
      <trkpt lat="43.4763070" lon="-5.9024140">
        <ele>251.3</ele>
        <time>2018-09-15T13:06:57Z</time>
      </trkpt>
      <trkpt lat="43.4762810" lon="-5.9023930">
        <ele>251.7</ele>
        <time>2018-09-15T13:06:58Z</time>
      </trkpt>
      <trkpt lat="43.4762620" lon="-5.9023750">
        <ele>252.1</ele>
        <time>2018-09-15T13:06:59Z</time>
      </trkpt>
      <trkpt lat="43.4762390" lon="-5.9023520">
        <ele>252.5</ele>
        <time>2018-09-15T13:07:00Z</time>
      </trkpt>
      <trkpt lat="43.4762220" lon="-5.9023320">
        <ele>252.8</ele>
        <time>2018-09-15T13:07:01Z</time>
      </trkpt>
      <trkpt lat="43.4762020" lon="-5.9023060">
        <ele>253.1</ele>
        <time>2018-09-15T13:07:02Z</time>
      </trkpt>
      <trkpt lat="43.4761880" lon="-5.9022880">
        <ele>253.3</ele>
        <time>2018-09-15T13:07:03Z</time>
      </trkpt>
      <trkpt lat="43.4761690" lon="-5.9022650">
        <ele>253.6</ele>
        <time>2018-09-15T13:07:04Z</time>
      </trkpt>
      <trkpt lat="43.4761520" lon="-5.9022370">
        <ele>253.7</ele>
        <time>2018-09-15T13:07:05Z</time>
      </trkpt>
      <trkpt lat="43.4761400" lon="-5.9022110">
        <ele>253.9</ele>
        <time>2018-09-15T13:07:06Z</time>
      </trkpt>
      <trkpt lat="43.4761270" lon="-5.9021830">
        <ele>254.0</ele>
        <time>2018-09-15T13:07:07Z</time>
      </trkpt>
      <trkpt lat="43.4761130" lon="-5.9021530">
        <ele>254.1</ele>
        <time>2018-09-15T13:07:08Z</time>
      </trkpt>
      <trkpt lat="43.4760950" lon="-5.9021180">
        <ele>254.3</ele>
        <time>2018-09-15T13:07:09Z</time>
      </trkpt>
      <trkpt lat="43.4760830" lon="-5.9020920">
        <ele>254.5</ele>
        <time>2018-09-15T13:07:10Z</time>
      </trkpt>
      <trkpt lat="43.4760700" lon="-5.9020590">
        <ele>254.9</ele>
        <time>2018-09-15T13:07:11Z</time>
      </trkpt>
      <trkpt lat="43.4760580" lon="-5.9020260">
        <ele>255.2</ele>
        <time>2018-09-15T13:07:12Z</time>
      </trkpt>
      <trkpt lat="43.4760490" lon="-5.9019930">
        <ele>255.6</ele>
        <time>2018-09-15T13:07:13Z</time>
      </trkpt>
      <trkpt lat="43.4760430" lon="-5.9019650">
        <ele>255.7</ele>
        <time>2018-09-15T13:07:14Z</time>
      </trkpt>
      <trkpt lat="43.4760320" lon="-5.9019300">
        <ele>255.9</ele>
        <time>2018-09-15T13:07:15Z</time>
      </trkpt>
      <trkpt lat="43.4760260" lon="-5.9019010">
        <ele>256.1</ele>
        <time>2018-09-15T13:07:16Z</time>
      </trkpt>
      <trkpt lat="43.4760180" lon="-5.9018650">
        <ele>256.3</ele>
        <time>2018-09-15T13:07:17Z</time>
      </trkpt>
      <trkpt lat="43.4760100" lon="-5.9018290">
        <ele>256.6</ele>
        <time>2018-09-15T13:07:18Z</time>
      </trkpt>
      <trkpt lat="43.4760030" lon="-5.9017950">
        <ele>256.8</ele>
        <time>2018-09-15T13:07:19Z</time>
      </trkpt>
      <trkpt lat="43.4759980" lon="-5.9017680">
        <ele>257.1</ele>
        <time>2018-09-15T13:07:20Z</time>
      </trkpt>
      <trkpt lat="43.4759900" lon="-5.9017340">
        <ele>257.5</ele>
        <time>2018-09-15T13:07:21Z</time>
      </trkpt>
      <trkpt lat="43.4759860" lon="-5.9017060">
        <ele>257.9</ele>
        <time>2018-09-15T13:07:22Z</time>
      </trkpt>
      <trkpt lat="43.4759790" lon="-5.9016780">
        <ele>258.2</ele>
        <time>2018-09-15T13:07:23Z</time>
      </trkpt>
      <trkpt lat="43.4759720" lon="-5.9016460">
        <ele>258.4</ele>
        <time>2018-09-15T13:07:24Z</time>
      </trkpt>
      <trkpt lat="43.4759650" lon="-5.9016120">
        <ele>258.5</ele>
        <time>2018-09-15T13:07:25Z</time>
      </trkpt>
      <trkpt lat="43.4759540" lon="-5.9015740">
        <ele>258.7</ele>
        <time>2018-09-15T13:07:26Z</time>
      </trkpt>
      <trkpt lat="43.4759430" lon="-5.9015390">
        <ele>258.9</ele>
        <time>2018-09-15T13:07:27Z</time>
      </trkpt>
      <trkpt lat="43.4759330" lon="-5.9015060">
        <ele>259.2</ele>
        <time>2018-09-15T13:07:28Z</time>
      </trkpt>
      <trkpt lat="43.4759220" lon="-5.9014750">
        <ele>259.7</ele>
        <time>2018-09-15T13:07:29Z</time>
      </trkpt>
      <trkpt lat="43.4759120" lon="-5.9014440">
        <ele>260.1</ele>
        <time>2018-09-15T13:07:30Z</time>
      </trkpt>
      <trkpt lat="43.4759040" lon="-5.9014190">
        <ele>260.5</ele>
        <time>2018-09-15T13:07:31Z</time>
      </trkpt>
      <trkpt lat="43.4758900" lon="-5.9013900">
        <ele>261.0</ele>
        <time>2018-09-15T13:07:32Z</time>
      </trkpt>
      <trkpt lat="43.4758780" lon="-5.9013610">
        <ele>261.3</ele>
        <time>2018-09-15T13:07:33Z</time>
      </trkpt>
      <trkpt lat="43.4758670" lon="-5.9013380">
        <ele>261.5</ele>
        <time>2018-09-15T13:07:34Z</time>
      </trkpt>
      <trkpt lat="43.4758550" lon="-5.9013120">
        <ele>261.7</ele>
        <time>2018-09-15T13:07:35Z</time>
      </trkpt>
      <trkpt lat="43.4758360" lon="-5.9012850">
        <ele>262.1</ele>
        <time>2018-09-15T13:07:36Z</time>
      </trkpt>
      <trkpt lat="43.4758190" lon="-5.9012570">
        <ele>262.5</ele>
        <time>2018-09-15T13:07:37Z</time>
      </trkpt>
      <trkpt lat="43.4758010" lon="-5.9012340">
        <ele>262.8</ele>
        <time>2018-09-15T13:07:38Z</time>
      </trkpt>
      <trkpt lat="43.4757860" lon="-5.9012160">
        <ele>263.0</ele>
        <time>2018-09-15T13:07:39Z</time>
      </trkpt>
      <trkpt lat="43.4757650" lon="-5.9011950">
        <ele>263.3</ele>
        <time>2018-09-15T13:07:40Z</time>
      </trkpt>
      <trkpt lat="43.4757490" lon="-5.9011790">
        <ele>263.4</ele>
        <time>2018-09-15T13:07:41Z</time>
      </trkpt>
      <trkpt lat="43.4757320" lon="-5.9011630">
        <ele>263.6</ele>
        <time>2018-09-15T13:07:42Z</time>
      </trkpt>
      <trkpt lat="43.4757140" lon="-5.9011470">
        <ele>263.7</ele>
        <time>2018-09-15T13:07:43Z</time>
      </trkpt>
      <trkpt lat="43.4756940" lon="-5.9011300">
        <ele>263.8</ele>
        <time>2018-09-15T13:07:44Z</time>
      </trkpt>
      <trkpt lat="43.4756680" lon="-5.9011120">
        <ele>264.0</ele>
        <time>2018-09-15T13:07:45Z</time>
      </trkpt>
      <trkpt lat="43.4756510" lon="-5.9011000">
        <ele>264.1</ele>
        <time>2018-09-15T13:07:46Z</time>
      </trkpt>
      <trkpt lat="43.4756250" lon="-5.9010840">
        <ele>264.2</ele>
        <time>2018-09-15T13:07:47Z</time>
      </trkpt>
      <trkpt lat="43.4756040" lon="-5.9010700">
        <ele>264.4</ele>
        <time>2018-09-15T13:07:48Z</time>
      </trkpt>
      <trkpt lat="43.4755790" lon="-5.9010540">
        <ele>264.5</ele>
        <time>2018-09-15T13:07:49Z</time>
      </trkpt>
      <trkpt lat="43.4755550" lon="-5.9010440">
        <ele>264.8</ele>
        <time>2018-09-15T13:07:50Z</time>
      </trkpt>
      <trkpt lat="43.4755390" lon="-5.9010380">
        <ele>264.9</ele>
        <time>2018-09-15T13:07:51Z</time>
      </trkpt>
      <trkpt lat="43.4755120" lon="-5.9010350">
        <ele>265.3</ele>
        <time>2018-09-15T13:07:52Z</time>
      </trkpt>
      <trkpt lat="43.4754860" lon="-5.9010340">
        <ele>265.6</ele>
        <time>2018-09-15T13:07:53Z</time>
      </trkpt>
      <trkpt lat="43.4754590" lon="-5.9010360">
        <ele>265.9</ele>
        <time>2018-09-15T13:07:54Z</time>
      </trkpt>
      <trkpt lat="43.4754370" lon="-5.9010360">
        <ele>266.1</ele>
        <time>2018-09-15T13:07:55Z</time>
      </trkpt>
      <trkpt lat="43.4754140" lon="-5.9010380">
        <ele>266.2</ele>
        <time>2018-09-15T13:07:56Z</time>
      </trkpt>
      <trkpt lat="43.4753850" lon="-5.9010420">
        <ele>266.4</ele>
        <time>2018-09-15T13:07:57Z</time>
      </trkpt>
      <trkpt lat="43.4753610" lon="-5.9010430">
        <ele>266.5</ele>
        <time>2018-09-15T13:07:58Z</time>
      </trkpt>
      <trkpt lat="43.4753350" lon="-5.9010460">
        <ele>266.6</ele>
        <time>2018-09-15T13:07:59Z</time>
      </trkpt>
      <trkpt lat="43.4753100" lon="-5.9010470">
        <ele>266.8</ele>
        <time>2018-09-15T13:08:00Z</time>
      </trkpt>
      <trkpt lat="43.4752850" lon="-5.9010500">
        <ele>267.0</ele>
        <time>2018-09-15T13:08:01Z</time>
      </trkpt>
      <trkpt lat="43.4752670" lon="-5.9010500">
        <ele>267.2</ele>
        <time>2018-09-15T13:08:02Z</time>
      </trkpt>
      <trkpt lat="43.4752440" lon="-5.9010490">
        <ele>267.4</ele>
        <time>2018-09-15T13:08:03Z</time>
      </trkpt>
      <trkpt lat="43.4752260" lon="-5.9010480">
        <ele>267.7</ele>
        <time>2018-09-15T13:08:04Z</time>
      </trkpt>
      <trkpt lat="43.4752020" lon="-5.9010450">
        <ele>268.0</ele>
        <time>2018-09-15T13:08:05Z</time>
      </trkpt>
      <trkpt lat="43.4751800" lon="-5.9010380">
        <ele>268.2</ele>
        <time>2018-09-15T13:08:06Z</time>
      </trkpt>
      <trkpt lat="43.4751590" lon="-5.9010280">
        <ele>268.5</ele>
        <time>2018-09-15T13:08:07Z</time>
      </trkpt>
      <trkpt lat="43.4751400" lon="-5.9010200">
        <ele>268.8</ele>
        <time>2018-09-15T13:08:08Z</time>
      </trkpt>
      <trkpt lat="43.4751200" lon="-5.9010100">
        <ele>268.9</ele>
        <time>2018-09-15T13:08:09Z</time>
      </trkpt>
      <trkpt lat="43.4750990" lon="-5.9009970">
        <ele>269.1</ele>
        <time>2018-09-15T13:08:10Z</time>
      </trkpt>
      <trkpt lat="43.4750800" lon="-5.9009850">
        <ele>269.2</ele>
        <time>2018-09-15T13:08:11Z</time>
      </trkpt>
      <trkpt lat="43.4750640" lon="-5.9009750">
        <ele>269.3</ele>
        <time>2018-09-15T13:08:12Z</time>
      </trkpt>
      <trkpt lat="43.4750410" lon="-5.9009590">
        <ele>269.4</ele>
        <time>2018-09-15T13:08:13Z</time>
      </trkpt>
      <trkpt lat="43.4750230" lon="-5.9009440">
        <ele>269.5</ele>
        <time>2018-09-15T13:08:14Z</time>
      </trkpt>
      <trkpt lat="43.4749990" lon="-5.9009240">
        <ele>269.6</ele>
        <time>2018-09-15T13:08:15Z</time>
      </trkpt>
      <trkpt lat="43.4749770" lon="-5.9009030">
        <ele>269.8</ele>
        <time>2018-09-15T13:08:16Z</time>
      </trkpt>
      <trkpt lat="43.4749540" lon="-5.9008840">
        <ele>269.9</ele>
        <time>2018-09-15T13:08:17Z</time>
      </trkpt>
      <trkpt lat="43.4749400" lon="-5.9008670">
        <ele>269.9</ele>
        <time>2018-09-15T13:08:18Z</time>
      </trkpt>
      <trkpt lat="43.4749250" lon="-5.9008490">
        <ele>270.1</ele>
        <time>2018-09-15T13:08:19Z</time>
      </trkpt>
      <trkpt lat="43.4749040" lon="-5.9008250">
        <ele>270.4</ele>
        <time>2018-09-15T13:08:20Z</time>
      </trkpt>
      <trkpt lat="43.4748840" lon="-5.9008000">
        <ele>270.7</ele>
        <time>2018-09-15T13:08:21Z</time>
      </trkpt>
      <trkpt lat="43.4748680" lon="-5.9007780">
        <ele>271.0</ele>
        <time>2018-09-15T13:08:22Z</time>
      </trkpt>
      <trkpt lat="43.4748490" lon="-5.9007500">
        <ele>271.3</ele>
        <time>2018-09-15T13:08:23Z</time>
      </trkpt>
      <trkpt lat="43.4748340" lon="-5.9007270">
        <ele>271.6</ele>
        <time>2018-09-15T13:08:24Z</time>
      </trkpt>
      <trkpt lat="43.4748150" lon="-5.9006960">
        <ele>271.8</ele>
        <time>2018-09-15T13:08:25Z</time>
      </trkpt>
      <trkpt lat="43.4747980" lon="-5.9006650">
        <ele>272.0</ele>
        <time>2018-09-15T13:08:26Z</time>
      </trkpt>
      <trkpt lat="43.4747820" lon="-5.9006350">
        <ele>272.1</ele>
        <time>2018-09-15T13:08:27Z</time>
      </trkpt>
      <trkpt lat="43.4747690" lon="-5.9006030">
        <ele>272.3</ele>
        <time>2018-09-15T13:08:28Z</time>
      </trkpt>
      <trkpt lat="43.4747570" lon="-5.9005710">
        <ele>272.4</ele>
        <time>2018-09-15T13:08:29Z</time>
      </trkpt>
      <trkpt lat="43.4747490" lon="-5.9005440">
        <ele>272.5</ele>
        <time>2018-09-15T13:08:30Z</time>
      </trkpt>
      <trkpt lat="43.4747400" lon="-5.9005130">
        <ele>272.6</ele>
        <time>2018-09-15T13:08:31Z</time>
      </trkpt>
      <trkpt lat="43.4747350" lon="-5.9004880">
        <ele>272.7</ele>
        <time>2018-09-15T13:08:32Z</time>
      </trkpt>
      <trkpt lat="43.4747290" lon="-5.9004540">
        <ele>273.1</ele>
        <time>2018-09-15T13:08:33Z</time>
      </trkpt>
      <trkpt lat="43.4747230" lon="-5.9004190">
        <ele>273.5</ele>
        <time>2018-09-15T13:08:34Z</time>
      </trkpt>
      <trkpt lat="43.4747190" lon="-5.9003910">
        <ele>273.8</ele>
        <time>2018-09-15T13:08:35Z</time>
      </trkpt>
      <trkpt lat="43.4747140" lon="-5.9003600">
        <ele>274.1</ele>
        <time>2018-09-15T13:08:36Z</time>
      </trkpt>
      <trkpt lat="43.4747070" lon="-5.9003220">
        <ele>274.3</ele>
        <time>2018-09-15T13:08:37Z</time>
      </trkpt>
      <trkpt lat="43.4747030" lon="-5.9002910">
        <ele>274.4</ele>
        <time>2018-09-15T13:08:38Z</time>
      </trkpt>
      <trkpt lat="43.4746960" lon="-5.9002550">
        <ele>274.6</ele>
        <time>2018-09-15T13:08:39Z</time>
      </trkpt>
      <trkpt lat="43.4746900" lon="-5.9002270">
        <ele>274.7</ele>
        <time>2018-09-15T13:08:40Z</time>
      </trkpt>
      <trkpt lat="43.4746820" lon="-5.9001950">
        <ele>274.8</ele>
        <time>2018-09-15T13:08:41Z</time>
      </trkpt>
      <trkpt lat="43.4746750" lon="-5.9001650">
        <ele>274.9</ele>
        <time>2018-09-15T13:08:42Z</time>
      </trkpt>
      <trkpt lat="43.4746700" lon="-5.9001390">
        <ele>275.0</ele>
        <time>2018-09-15T13:08:43Z</time>
      </trkpt>
      <trkpt lat="43.4746620" lon="-5.9001050">
        <ele>275.2</ele>
        <time>2018-09-15T13:08:44Z</time>
      </trkpt>
      <trkpt lat="43.4746530" lon="-5.9000720">
        <ele>275.6</ele>
        <time>2018-09-15T13:08:45Z</time>
      </trkpt>
      <trkpt lat="43.4746470" lon="-5.9000460">
        <ele>276.0</ele>
        <time>2018-09-15T13:08:46Z</time>
      </trkpt>
      <trkpt lat="43.4746380" lon="-5.9000100">
        <ele>276.4</ele>
        <time>2018-09-15T13:08:47Z</time>
      </trkpt>
      <trkpt lat="43.4746290" lon="-5.8999760">
        <ele>276.7</ele>
        <time>2018-09-15T13:08:48Z</time>
      </trkpt>
      <trkpt lat="43.4746220" lon="-5.8999420">
        <ele>276.9</ele>
        <time>2018-09-15T13:08:49Z</time>
      </trkpt>
      <trkpt lat="43.4746150" lon="-5.8999150">
        <ele>277.0</ele>
        <time>2018-09-15T13:08:50Z</time>
      </trkpt>
      <trkpt lat="43.4746070" lon="-5.8998860">
        <ele>277.2</ele>
        <time>2018-09-15T13:08:51Z</time>
      </trkpt>
      <trkpt lat="43.4745970" lon="-5.8998500">
        <ele>277.3</ele>
        <time>2018-09-15T13:08:52Z</time>
      </trkpt>
      <trkpt lat="43.4745880" lon="-5.8998150">
        <ele>277.5</ele>
        <time>2018-09-15T13:08:53Z</time>
      </trkpt>
      <trkpt lat="43.4745800" lon="-5.8997880">
        <ele>277.6</ele>
        <time>2018-09-15T13:08:54Z</time>
      </trkpt>
      <trkpt lat="43.4745710" lon="-5.8997590">
        <ele>277.9</ele>
        <time>2018-09-15T13:08:55Z</time>
      </trkpt>
      <trkpt lat="43.4745600" lon="-5.8997240">
        <ele>278.3</ele>
        <time>2018-09-15T13:08:56Z</time>
      </trkpt>
      <trkpt lat="43.4745510" lon="-5.8996970">
        <ele>278.7</ele>
        <time>2018-09-15T13:08:57Z</time>
      </trkpt>
      <trkpt lat="43.4745400" lon="-5.8996630">
        <ele>279.0</ele>
        <time>2018-09-15T13:08:58Z</time>
      </trkpt>
      <trkpt lat="43.4745310" lon="-5.8996360">
        <ele>279.2</ele>
        <time>2018-09-15T13:08:59Z</time>
      </trkpt>
      <trkpt lat="43.4745190" lon="-5.8996040">
        <ele>279.4</ele>
        <time>2018-09-15T13:09:00Z</time>
      </trkpt>
      <trkpt lat="43.4745100" lon="-5.8995770">
        <ele>279.6</ele>
        <time>2018-09-15T13:09:01Z</time>
      </trkpt>
      <trkpt lat="43.4744990" lon="-5.8995440">
        <ele>279.8</ele>
        <time>2018-09-15T13:09:02Z</time>
      </trkpt>
      <trkpt lat="43.4744900" lon="-5.8995180">
        <ele>280.0</ele>
        <time>2018-09-15T13:09:03Z</time>
      </trkpt>
      <trkpt lat="43.4744770" lon="-5.8994850">
        <ele>280.2</ele>
        <time>2018-09-15T13:09:04Z</time>
      </trkpt>
      <trkpt lat="43.4744670" lon="-5.8994590">
        <ele>280.5</ele>
        <time>2018-09-15T13:09:05Z</time>
      </trkpt>
      <trkpt lat="43.4744530" lon="-5.8994280">
        <ele>281.0</ele>
        <time>2018-09-15T13:09:06Z</time>
      </trkpt>
      <trkpt lat="43.4744370" lon="-5.8993990">
        <ele>281.5</ele>
        <time>2018-09-15T13:09:07Z</time>
      </trkpt>
      <trkpt lat="43.4744210" lon="-5.8993720">
        <ele>281.7</ele>
        <time>2018-09-15T13:09:08Z</time>
      </trkpt>
      <trkpt lat="43.4744070" lon="-5.8993510">
        <ele>281.9</ele>
        <time>2018-09-15T13:09:09Z</time>
      </trkpt>
      <trkpt lat="43.4743910" lon="-5.8993220">
        <ele>282.1</ele>
        <time>2018-09-15T13:09:10Z</time>
      </trkpt>
      <trkpt lat="43.4743740" lon="-5.8992960">
        <ele>282.3</ele>
        <time>2018-09-15T13:09:11Z</time>
      </trkpt>
      <trkpt lat="43.4743610" lon="-5.8992780">
        <ele>282.4</ele>
        <time>2018-09-15T13:09:12Z</time>
      </trkpt>
      <trkpt lat="43.4743450" lon="-5.8992530">
        <ele>282.5</ele>
        <time>2018-09-15T13:09:13Z</time>
      </trkpt>
      <trkpt lat="43.4743300" lon="-5.8992280">
        <ele>282.7</ele>
        <time>2018-09-15T13:09:14Z</time>
      </trkpt>
      <trkpt lat="43.4743170" lon="-5.8992020">
        <ele>282.8</ele>
        <time>2018-09-15T13:09:15Z</time>
      </trkpt>
      <trkpt lat="43.4743070" lon="-5.8991800">
        <ele>283.0</ele>
        <time>2018-09-15T13:09:16Z</time>
      </trkpt>
      <trkpt lat="43.4742960" lon="-5.8991480">
        <ele>283.3</ele>
        <time>2018-09-15T13:09:17Z</time>
      </trkpt>
      <trkpt lat="43.4742870" lon="-5.8991150">
        <ele>283.6</ele>
        <time>2018-09-15T13:09:18Z</time>
      </trkpt>
      <trkpt lat="43.4742820" lon="-5.8990890">
        <ele>283.9</ele>
        <time>2018-09-15T13:09:19Z</time>
      </trkpt>
      <trkpt lat="43.4742770" lon="-5.8990530">
        <ele>284.3</ele>
        <time>2018-09-15T13:09:20Z</time>
      </trkpt>
      <trkpt lat="43.4742750" lon="-5.8990240">
        <ele>284.6</ele>
        <time>2018-09-15T13:09:21Z</time>
      </trkpt>
      <trkpt lat="43.4742730" lon="-5.8989850">
        <ele>284.8</ele>
        <time>2018-09-15T13:09:22Z</time>
      </trkpt>
      <trkpt lat="43.4742710" lon="-5.8989490">
        <ele>285.0</ele>
        <time>2018-09-15T13:09:23Z</time>
      </trkpt>
      <trkpt lat="43.4742700" lon="-5.8989150">
        <ele>285.1</ele>
        <time>2018-09-15T13:09:24Z</time>
      </trkpt>
      <trkpt lat="43.4742690" lon="-5.8988870">
        <ele>285.2</ele>
        <time>2018-09-15T13:09:25Z</time>
      </trkpt>
      <trkpt lat="43.4742670" lon="-5.8988520">
        <ele>285.4</ele>
        <time>2018-09-15T13:09:26Z</time>
      </trkpt>
      <trkpt lat="43.4742660" lon="-5.8988200">
        <ele>285.6</ele>
        <time>2018-09-15T13:09:27Z</time>
      </trkpt>
      <trkpt lat="43.4742650" lon="-5.8987950">
        <ele>285.9</ele>
        <time>2018-09-15T13:09:28Z</time>
      </trkpt>
      <trkpt lat="43.4742630" lon="-5.8987680">
        <ele>286.2</ele>
        <time>2018-09-15T13:09:29Z</time>
      </trkpt>
      <trkpt lat="43.4742590" lon="-5.8987310">
        <ele>286.6</ele>
        <time>2018-09-15T13:09:30Z</time>
      </trkpt>
      <trkpt lat="43.4742540" lon="-5.8987020">
        <ele>286.8</ele>
        <time>2018-09-15T13:09:31Z</time>
      </trkpt>
      <trkpt lat="43.4742480" lon="-5.8986650">
        <ele>287.0</ele>
        <time>2018-09-15T13:09:32Z</time>
      </trkpt>
      <trkpt lat="43.4742420" lon="-5.8986370">
        <ele>287.1</ele>
        <time>2018-09-15T13:09:33Z</time>
      </trkpt>
      <trkpt lat="43.4742340" lon="-5.8985950">
        <ele>287.3</ele>
        <time>2018-09-15T13:09:34Z</time>
      </trkpt>
      <trkpt lat="43.4742260" lon="-5.8985710">
        <ele>287.4</ele>
        <time>2018-09-15T13:09:35Z</time>
      </trkpt>
      <trkpt lat="43.4742200" lon="-5.8985440">
        <ele>287.5</ele>
        <time>2018-09-15T13:09:36Z</time>
      </trkpt>
      <trkpt lat="43.4742140" lon="-5.8985140">
        <ele>287.7</ele>
        <time>2018-09-15T13:09:37Z</time>
      </trkpt>
      <trkpt lat="43.4742060" lon="-5.8984770">
        <ele>287.9</ele>
        <time>2018-09-15T13:09:38Z</time>
      </trkpt>
      <trkpt lat="43.4741990" lon="-5.8984430">
        <ele>288.1</ele>
        <time>2018-09-15T13:09:39Z</time>
      </trkpt>
      <trkpt lat="43.4741930" lon="-5.8984150">
        <ele>288.4</ele>
        <time>2018-09-15T13:09:40Z</time>
      </trkpt>
      <trkpt lat="43.4741860" lon="-5.8983870">
        <ele>288.8</ele>
        <time>2018-09-15T13:09:41Z</time>
      </trkpt>
      <trkpt lat="43.4741800" lon="-5.8983600">
        <ele>289.1</ele>
        <time>2018-09-15T13:09:42Z</time>
      </trkpt>
      <trkpt lat="43.4741700" lon="-5.8983240">
        <ele>289.4</ele>
        <time>2018-09-15T13:09:43Z</time>
      </trkpt>
      <trkpt lat="43.4741620" lon="-5.8982900">
        <ele>289.5</ele>
        <time>2018-09-15T13:09:44Z</time>
      </trkpt>
      <trkpt lat="43.4741550" lon="-5.8982620">
        <ele>289.7</ele>
        <time>2018-09-15T13:09:45Z</time>
      </trkpt>
      <trkpt lat="43.4741440" lon="-5.8982260">
        <ele>289.9</ele>
        <time>2018-09-15T13:09:46Z</time>
      </trkpt>
      <trkpt lat="43.4741340" lon="-5.8981900">
        <ele>290.1</ele>
        <time>2018-09-15T13:09:47Z</time>
      </trkpt>
      <trkpt lat="43.4741260" lon="-5.8981550">
        <ele>290.3</ele>
        <time>2018-09-15T13:09:48Z</time>
      </trkpt>
      <trkpt lat="43.4741200" lon="-5.8981350">
        <ele>290.5</ele>
        <time>2018-09-15T13:09:49Z</time>
      </trkpt>
      <trkpt lat="43.4741090" lon="-5.8981010">
        <ele>290.8</ele>
        <time>2018-09-15T13:09:50Z</time>
      </trkpt>
      <trkpt lat="43.4741000" lon="-5.8980740">
        <ele>291.1</ele>
        <time>2018-09-15T13:09:51Z</time>
      </trkpt>
      <trkpt lat="43.4740900" lon="-5.8980390">
        <ele>291.5</ele>
        <time>2018-09-15T13:09:52Z</time>
      </trkpt>
      <trkpt lat="43.4740820" lon="-5.8980020">
        <ele>291.9</ele>
        <time>2018-09-15T13:09:53Z</time>
      </trkpt>
      <trkpt lat="43.4740710" lon="-5.8979660">
        <ele>292.1</ele>
        <time>2018-09-15T13:09:54Z</time>
      </trkpt>
      <trkpt lat="43.4740620" lon="-5.8979330">
        <ele>292.3</ele>
        <time>2018-09-15T13:09:55Z</time>
      </trkpt>
      <trkpt lat="43.4740530" lon="-5.8979060">
        <ele>292.4</ele>
        <time>2018-09-15T13:09:56Z</time>
      </trkpt>
      <trkpt lat="43.4740410" lon="-5.8978700">
        <ele>292.5</ele>
        <time>2018-09-15T13:09:57Z</time>
      </trkpt>
      <trkpt lat="43.4740280" lon="-5.8978320">
        <ele>292.7</ele>
        <time>2018-09-15T13:09:58Z</time>
      </trkpt>
      <trkpt lat="43.4740150" lon="-5.8977950">
        <ele>292.8</ele>
        <time>2018-09-15T13:09:59Z</time>
      </trkpt>
      <trkpt lat="43.4740040" lon="-5.8977700">
        <ele>293.0</ele>
        <time>2018-09-15T13:10:00Z</time>
      </trkpt>
      <trkpt lat="43.4739910" lon="-5.8977420">
        <ele>293.3</ele>
        <time>2018-09-15T13:10:01Z</time>
      </trkpt>
      <trkpt lat="43.4739780" lon="-5.8977130">
        <ele>293.7</ele>
        <time>2018-09-15T13:10:02Z</time>
      </trkpt>
      <trkpt lat="43.4739670" lon="-5.8976830">
        <ele>294.0</ele>
        <time>2018-09-15T13:10:03Z</time>
      </trkpt>
      <trkpt lat="43.4739560" lon="-5.8976530">
        <ele>294.3</ele>
        <time>2018-09-15T13:10:04Z</time>
      </trkpt>
      <trkpt lat="43.4739470" lon="-5.8976280">
        <ele>294.5</ele>
        <time>2018-09-15T13:10:05Z</time>
      </trkpt>
      <trkpt lat="43.4739350" lon="-5.8975890">
        <ele>294.8</ele>
        <time>2018-09-15T13:10:06Z</time>
      </trkpt>
      <trkpt lat="43.4739240" lon="-5.8975690">
        <ele>294.9</ele>
        <time>2018-09-15T13:10:07Z</time>
      </trkpt>
      <trkpt lat="43.4739130" lon="-5.8975480">
        <ele>295.0</ele>
        <time>2018-09-15T13:10:08Z</time>
      </trkpt>
      <trkpt lat="43.4739030" lon="-5.8975190">
        <ele>295.1</ele>
        <time>2018-09-15T13:10:09Z</time>
      </trkpt>
      <trkpt lat="43.4738940" lon="-5.8974900">
        <ele>295.3</ele>
        <time>2018-09-15T13:10:10Z</time>
      </trkpt>
      <trkpt lat="43.4738880" lon="-5.8974660">
        <ele>295.4</ele>
        <time>2018-09-15T13:10:11Z</time>
      </trkpt>
      <trkpt lat="43.4738820" lon="-5.8974380">
        <ele>295.5</ele>
        <time>2018-09-15T13:10:12Z</time>
      </trkpt>
      <trkpt lat="43.4738790" lon="-5.8974150">
        <ele>295.6</ele>
        <time>2018-09-15T13:10:13Z</time>
      </trkpt>
      <trkpt lat="43.4738750" lon="-5.8973910">
        <ele>295.7</ele>
        <time>2018-09-15T13:10:14Z</time>
      </trkpt>
      <trkpt lat="43.4738680" lon="-5.8973580">
        <ele>295.8</ele>
        <time>2018-09-15T13:10:15Z</time>
      </trkpt>
      <trkpt lat="43.4738620" lon="-5.8973280">
        <ele>296.1</ele>
        <time>2018-09-15T13:10:16Z</time>
      </trkpt>
      <trkpt lat="43.4738580" lon="-5.8973050">
        <ele>296.3</ele>
        <time>2018-09-15T13:10:17Z</time>
      </trkpt>
      <trkpt lat="43.4738510" lon="-5.8972710">
        <ele>296.6</ele>
        <time>2018-09-15T13:10:18Z</time>
      </trkpt>
      <trkpt lat="43.4738450" lon="-5.8972420">
        <ele>296.9</ele>
        <time>2018-09-15T13:10:19Z</time>
      </trkpt>
      <trkpt lat="43.4738400" lon="-5.8972040">
        <ele>297.1</ele>
        <time>2018-09-15T13:10:20Z</time>
      </trkpt>
      <trkpt lat="43.4738350" lon="-5.8971660">
        <ele>297.3</ele>
        <time>2018-09-15T13:10:21Z</time>
      </trkpt>
      <trkpt lat="43.4738300" lon="-5.8971290">
        <ele>297.5</ele>
        <time>2018-09-15T13:10:22Z</time>
      </trkpt>
      <trkpt lat="43.4738250" lon="-5.8970930">
        <ele>297.6</ele>
        <time>2018-09-15T13:10:23Z</time>
      </trkpt>
      <trkpt lat="43.4738220" lon="-5.8970650">
        <ele>297.7</ele>
        <time>2018-09-15T13:10:24Z</time>
      </trkpt>
      <trkpt lat="43.4738190" lon="-5.8970380">
        <ele>297.8</ele>
        <time>2018-09-15T13:10:25Z</time>
      </trkpt>
      <trkpt lat="43.4738160" lon="-5.8970060">
        <ele>297.9</ele>
        <time>2018-09-15T13:10:26Z</time>
      </trkpt>
      <trkpt lat="43.4738130" lon="-5.8969670">
        <ele>298.0</ele>
        <time>2018-09-15T13:10:27Z</time>
      </trkpt>
      <trkpt lat="43.4738060" lon="-5.8969310">
        <ele>298.2</ele>
        <time>2018-09-15T13:10:28Z</time>
      </trkpt>
      <trkpt lat="43.4737980" lon="-5.8968960">
        <ele>298.4</ele>
        <time>2018-09-15T13:10:29Z</time>
      </trkpt>
      <trkpt lat="43.4737910" lon="-5.8968650">
        <ele>298.7</ele>
        <time>2018-09-15T13:10:30Z</time>
      </trkpt>
      <trkpt lat="43.4737840" lon="-5.8968420">
        <ele>299.0</ele>
        <time>2018-09-15T13:10:31Z</time>
      </trkpt>
      <trkpt lat="43.4737720" lon="-5.8968110">
        <ele>299.4</ele>
        <time>2018-09-15T13:10:32Z</time>
      </trkpt>
      <trkpt lat="43.4737600" lon="-5.8967790">
        <ele>299.8</ele>
        <time>2018-09-15T13:10:33Z</time>
      </trkpt>
      <trkpt lat="43.4737470" lon="-5.8967480">
        <ele>300.1</ele>
        <time>2018-09-15T13:10:34Z</time>
      </trkpt>
      <trkpt lat="43.4737360" lon="-5.8967240">
        <ele>300.2</ele>
        <time>2018-09-15T13:10:35Z</time>
      </trkpt>
      <trkpt lat="43.4737230" lon="-5.8966980">
        <ele>300.3</ele>
        <time>2018-09-15T13:10:36Z</time>
      </trkpt>
      <trkpt lat="43.4737080" lon="-5.8966660">
        <ele>300.5</ele>
        <time>2018-09-15T13:10:37Z</time>
      </trkpt>
      <trkpt lat="43.4736950" lon="-5.8966410">
        <ele>300.6</ele>
        <time>2018-09-15T13:10:38Z</time>
      </trkpt>
      <trkpt lat="43.4736790" lon="-5.8966090">
        <ele>300.8</ele>
        <time>2018-09-15T13:10:39Z</time>
      </trkpt>
      <trkpt lat="43.4736660" lon="-5.8965830">
        <ele>301.0</ele>
        <time>2018-09-15T13:10:40Z</time>
      </trkpt>
      <trkpt lat="43.4736500" lon="-5.8965520">
        <ele>301.3</ele>
        <time>2018-09-15T13:10:41Z</time>
      </trkpt>
      <trkpt lat="43.4736340" lon="-5.8965250">
        <ele>301.7</ele>
        <time>2018-09-15T13:10:42Z</time>
      </trkpt>
      <trkpt lat="43.4736190" lon="-5.8965000">
        <ele>302.0</ele>
        <time>2018-09-15T13:10:43Z</time>
      </trkpt>
      <trkpt lat="43.4736070" lon="-5.8964780">
        <ele>302.3</ele>
        <time>2018-09-15T13:10:44Z</time>
      </trkpt>
      <trkpt lat="43.4735910" lon="-5.8964460">
        <ele>302.6</ele>
        <time>2018-09-15T13:10:45Z</time>
      </trkpt>
      <trkpt lat="43.4735780" lon="-5.8964170">
        <ele>302.8</ele>
        <time>2018-09-15T13:10:46Z</time>
      </trkpt>
      <trkpt lat="43.4735660" lon="-5.8963950">
        <ele>302.9</ele>
        <time>2018-09-15T13:10:47Z</time>
      </trkpt>
      <trkpt lat="43.4735530" lon="-5.8963620">
        <ele>303.1</ele>
        <time>2018-09-15T13:10:48Z</time>
      </trkpt>
      <trkpt lat="43.4735380" lon="-5.8963300">
        <ele>303.2</ele>
        <time>2018-09-15T13:10:49Z</time>
      </trkpt>
      <trkpt lat="43.4735240" lon="-5.8962960">
        <ele>303.4</ele>
        <time>2018-09-15T13:10:50Z</time>
      </trkpt>
      <trkpt lat="43.4735140" lon="-5.8962690">
        <ele>303.5</ele>
        <time>2018-09-15T13:10:51Z</time>
      </trkpt>
      <trkpt lat="43.4734990" lon="-5.8962270">
        <ele>304.0</ele>
        <time>2018-09-15T13:10:52Z</time>
      </trkpt>
      <trkpt lat="43.4734890" lon="-5.8962010">
        <ele>304.3</ele>
        <time>2018-09-15T13:10:53Z</time>
      </trkpt>
      <trkpt lat="43.4734780" lon="-5.8961720">
        <ele>304.6</ele>
        <time>2018-09-15T13:10:54Z</time>
      </trkpt>
      <trkpt lat="43.4734650" lon="-5.8961350">
        <ele>305.1</ele>
        <time>2018-09-15T13:10:55Z</time>
      </trkpt>
      <trkpt lat="43.4734520" lon="-5.8960990">
        <ele>305.4</ele>
        <time>2018-09-15T13:10:56Z</time>
      </trkpt>
      <trkpt lat="43.4734420" lon="-5.8960740">
        <ele>305.5</ele>
        <time>2018-09-15T13:10:57Z</time>
      </trkpt>
      <trkpt lat="43.4734300" lon="-5.8960430">
        <ele>305.6</ele>
        <time>2018-09-15T13:10:58Z</time>
      </trkpt>
      <trkpt lat="43.4734220" lon="-5.8960220">
        <ele>305.7</ele>
        <time>2018-09-15T13:10:59Z</time>
      </trkpt>
      <trkpt lat="43.4734130" lon="-5.8959920">
        <ele>305.9</ele>
        <time>2018-09-15T13:11:00Z</time>
      </trkpt>
      <trkpt lat="43.4734040" lon="-5.8959640">
        <ele>306.0</ele>
        <time>2018-09-15T13:11:01Z</time>
      </trkpt>
      <trkpt lat="43.4733970" lon="-5.8959450">
        <ele>306.1</ele>
        <time>2018-09-15T13:11:02Z</time>
      </trkpt>
      <trkpt lat="43.4733890" lon="-5.8959210">
        <ele>306.3</ele>
        <time>2018-09-15T13:11:03Z</time>
      </trkpt>
      <trkpt lat="43.4733840" lon="-5.8958870">
        <ele>306.6</ele>
        <time>2018-09-15T13:11:04Z</time>
      </trkpt>
      <trkpt lat="43.4733810" lon="-5.8958620">
        <ele>306.9</ele>
        <time>2018-09-15T13:11:05Z</time>
      </trkpt>
      <trkpt lat="43.4733800" lon="-5.8958200">
        <ele>307.2</ele>
        <time>2018-09-15T13:11:06Z</time>
      </trkpt>
      <trkpt lat="43.4733780" lon="-5.8957930">
        <ele>307.4</ele>
        <time>2018-09-15T13:11:07Z</time>
      </trkpt>
      <trkpt lat="43.4733740" lon="-5.8957620">
        <ele>307.6</ele>
        <time>2018-09-15T13:11:08Z</time>
      </trkpt>
      <trkpt lat="43.4733670" lon="-5.8957240">
        <ele>307.8</ele>
        <time>2018-09-15T13:11:09Z</time>
      </trkpt>
      <trkpt lat="43.4733590" lon="-5.8956950">
        <ele>307.9</ele>
        <time>2018-09-15T13:11:10Z</time>
      </trkpt>
      <trkpt lat="43.4733510" lon="-5.8956560">
        <ele>308.0</ele>
        <time>2018-09-15T13:11:11Z</time>
      </trkpt>
      <trkpt lat="43.4733450" lon="-5.8956240">
        <ele>308.1</ele>
        <time>2018-09-15T13:11:12Z</time>
      </trkpt>
      <trkpt lat="43.4733350" lon="-5.8955780">
        <ele>308.2</ele>
        <time>2018-09-15T13:11:13Z</time>
      </trkpt>
      <trkpt lat="43.4733270" lon="-5.8955490">
        <ele>308.3</ele>
        <time>2018-09-15T13:11:14Z</time>
      </trkpt>
      <trkpt lat="43.4733160" lon="-5.8955110">
        <ele>308.4</ele>
        <time>2018-09-15T13:11:15Z</time>
      </trkpt>
      <trkpt lat="43.4733070" lon="-5.8954810">
        <ele>308.7</ele>
        <time>2018-09-15T13:11:16Z</time>
      </trkpt>
      <trkpt lat="43.4733000" lon="-5.8954520">
        <ele>309.0</ele>
        <time>2018-09-15T13:11:17Z</time>
      </trkpt>
      <trkpt lat="43.4732900" lon="-5.8954160">
        <ele>309.3</ele>
        <time>2018-09-15T13:11:18Z</time>
      </trkpt>
      <trkpt lat="43.4732790" lon="-5.8953820">
        <ele>309.7</ele>
        <time>2018-09-15T13:11:19Z</time>
      </trkpt>
      <trkpt lat="43.4732650" lon="-5.8953500">
        <ele>310.1</ele>
        <time>2018-09-15T13:11:20Z</time>
      </trkpt>
      <trkpt lat="43.4732520" lon="-5.8953240">
        <ele>310.5</ele>
        <time>2018-09-15T13:11:21Z</time>
      </trkpt>
      <trkpt lat="43.4732350" lon="-5.8952930">
        <ele>310.7</ele>
        <time>2018-09-15T13:11:22Z</time>
      </trkpt>
      <trkpt lat="43.4732160" lon="-5.8952610">
        <ele>310.8</ele>
        <time>2018-09-15T13:11:23Z</time>
      </trkpt>
      <trkpt lat="43.4731950" lon="-5.8952310">
        <ele>311.0</ele>
        <time>2018-09-15T13:11:24Z</time>
      </trkpt>
      <trkpt lat="43.4731730" lon="-5.8951970">
        <ele>311.2</ele>
        <time>2018-09-15T13:11:25Z</time>
      </trkpt>
      <trkpt lat="43.4731580" lon="-5.8951770">
        <ele>311.3</ele>
        <time>2018-09-15T13:11:26Z</time>
      </trkpt>
      <trkpt lat="43.4731420" lon="-5.8951480">
        <ele>311.5</ele>
        <time>2018-09-15T13:11:27Z</time>
      </trkpt>
      <trkpt lat="43.4731290" lon="-5.8951260">
        <ele>311.8</ele>
        <time>2018-09-15T13:11:28Z</time>
      </trkpt>
      <trkpt lat="43.4731170" lon="-5.8951020">
        <ele>312.1</ele>
        <time>2018-09-15T13:11:29Z</time>
      </trkpt>
      <trkpt lat="43.4731040" lon="-5.8950700">
        <ele>312.4</ele>
        <time>2018-09-15T13:11:30Z</time>
      </trkpt>
      <trkpt lat="43.4730940" lon="-5.8950440">
        <ele>312.7</ele>
        <time>2018-09-15T13:11:31Z</time>
      </trkpt>
      <trkpt lat="43.4730860" lon="-5.8950080">
        <ele>312.8</ele>
        <time>2018-09-15T13:11:32Z</time>
      </trkpt>
      <trkpt lat="43.4730810" lon="-5.8949790">
        <ele>312.9</ele>
        <time>2018-09-15T13:11:33Z</time>
      </trkpt>
      <trkpt lat="43.4730770" lon="-5.8949480">
        <ele>313.1</ele>
        <time>2018-09-15T13:11:34Z</time>
      </trkpt>
      <trkpt lat="43.4730770" lon="-5.8949080">
        <ele>313.2</ele>
        <time>2018-09-15T13:11:35Z</time>
      </trkpt>
      <trkpt lat="43.4730760" lon="-5.8948740">
        <ele>313.4</ele>
        <time>2018-09-15T13:11:36Z</time>
      </trkpt>
      <trkpt lat="43.4730740" lon="-5.8948490">
        <ele>313.5</ele>
        <time>2018-09-15T13:11:37Z</time>
      </trkpt>
      <trkpt lat="43.4730720" lon="-5.8948180">
        <ele>313.7</ele>
        <time>2018-09-15T13:11:38Z</time>
      </trkpt>
      <trkpt lat="43.4730710" lon="-5.8947960">
        <ele>313.8</ele>
        <time>2018-09-15T13:11:39Z</time>
      </trkpt>
      <trkpt lat="43.4730680" lon="-5.8947600">
        <ele>314.0</ele>
        <time>2018-09-15T13:11:40Z</time>
      </trkpt>
      <trkpt lat="43.4730670" lon="-5.8947220">
        <ele>314.4</ele>
        <time>2018-09-15T13:11:41Z</time>
      </trkpt>
      <trkpt lat="43.4730650" lon="-5.8946950">
        <ele>314.6</ele>
        <time>2018-09-15T13:11:42Z</time>
      </trkpt>
      <trkpt lat="43.4730610" lon="-5.8946620">
        <ele>315.0</ele>
        <time>2018-09-15T13:11:43Z</time>
      </trkpt>
      <trkpt lat="43.4730570" lon="-5.8946360">
        <ele>315.2</ele>
        <time>2018-09-15T13:11:44Z</time>
      </trkpt>
      <trkpt lat="43.4730510" lon="-5.8946000">
        <ele>315.4</ele>
        <time>2018-09-15T13:11:45Z</time>
      </trkpt>
      <trkpt lat="43.4730440" lon="-5.8945660">
        <ele>315.5</ele>
        <time>2018-09-15T13:11:46Z</time>
      </trkpt>
      <trkpt lat="43.4730350" lon="-5.8945380">
        <ele>315.6</ele>
        <time>2018-09-15T13:11:47Z</time>
      </trkpt>
      <trkpt lat="43.4730260" lon="-5.8945070">
        <ele>315.8</ele>
        <time>2018-09-15T13:11:48Z</time>
      </trkpt>
      <trkpt lat="43.4730100" lon="-5.8944650">
        <ele>315.9</ele>
        <time>2018-09-15T13:11:49Z</time>
      </trkpt>
      <trkpt lat="43.4730000" lon="-5.8944380">
        <ele>316.0</ele>
        <time>2018-09-15T13:11:50Z</time>
      </trkpt>
      <trkpt lat="43.4729870" lon="-5.8944050">
        <ele>316.1</ele>
        <time>2018-09-15T13:11:51Z</time>
      </trkpt>
      <trkpt lat="43.4729750" lon="-5.8943720">
        <ele>316.5</ele>
        <time>2018-09-15T13:11:52Z</time>
      </trkpt>
      <trkpt lat="43.4729620" lon="-5.8943420">
        <ele>316.8</ele>
        <time>2018-09-15T13:11:53Z</time>
      </trkpt>
      <trkpt lat="43.4729510" lon="-5.8943170">
        <ele>317.1</ele>
        <time>2018-09-15T13:11:54Z</time>
      </trkpt>
      <trkpt lat="43.4729380" lon="-5.8942840">
        <ele>317.5</ele>
        <time>2018-09-15T13:11:55Z</time>
      </trkpt>
      <trkpt lat="43.4729250" lon="-5.8942530">
        <ele>317.8</ele>
        <time>2018-09-15T13:11:56Z</time>
      </trkpt>
      <trkpt lat="43.4729160" lon="-5.8942320">
        <ele>318.0</ele>
        <time>2018-09-15T13:11:57Z</time>
      </trkpt>
      <trkpt lat="43.4729060" lon="-5.8942010">
        <ele>318.2</ele>
        <time>2018-09-15T13:11:58Z</time>
      </trkpt>
      <trkpt lat="43.4728950" lon="-5.8941630">
        <ele>318.4</ele>
        <time>2018-09-15T13:11:59Z</time>
      </trkpt>
      <trkpt lat="43.4728870" lon="-5.8941340">
        <ele>318.5</ele>
        <time>2018-09-15T13:12:00Z</time>
      </trkpt>
      <trkpt lat="43.4728770" lon="-5.8940980">
        <ele>318.7</ele>
        <time>2018-09-15T13:12:01Z</time>
      </trkpt>
      <trkpt lat="43.4728690" lon="-5.8940700">
        <ele>318.9</ele>
        <time>2018-09-15T13:12:02Z</time>
      </trkpt>
      <trkpt lat="43.4728610" lon="-5.8940350">
        <ele>319.0</ele>
        <time>2018-09-15T13:12:03Z</time>
      </trkpt>
      <trkpt lat="43.4728540" lon="-5.8940070">
        <ele>319.2</ele>
        <time>2018-09-15T13:12:04Z</time>
      </trkpt>
      <trkpt lat="43.4728470" lon="-5.8939710">
        <ele>319.5</ele>
        <time>2018-09-15T13:12:05Z</time>
      </trkpt>
      <trkpt lat="43.4728410" lon="-5.8939430">
        <ele>319.8</ele>
        <time>2018-09-15T13:12:06Z</time>
      </trkpt>
      <trkpt lat="43.4728340" lon="-5.8939060">
        <ele>320.2</ele>
        <time>2018-09-15T13:12:07Z</time>
      </trkpt>
      <trkpt lat="43.4728290" lon="-5.8938760">
        <ele>320.5</ele>
        <time>2018-09-15T13:12:08Z</time>
      </trkpt>
      <trkpt lat="43.4728210" lon="-5.8938400">
        <ele>320.8</ele>
        <time>2018-09-15T13:12:09Z</time>
      </trkpt>
      <trkpt lat="43.4728140" lon="-5.8938050">
        <ele>321.0</ele>
        <time>2018-09-15T13:12:10Z</time>
      </trkpt>
      <trkpt lat="43.4728070" lon="-5.8937710">
        <ele>321.1</ele>
        <time>2018-09-15T13:12:11Z</time>
      </trkpt>
      <trkpt lat="43.4727990" lon="-5.8937400">
        <ele>321.3</ele>
        <time>2018-09-15T13:12:12Z</time>
      </trkpt>
      <trkpt lat="43.4727910" lon="-5.8937090">
        <ele>321.4</ele>
        <time>2018-09-15T13:12:13Z</time>
      </trkpt>
      <trkpt lat="43.4727840" lon="-5.8936780">
        <ele>321.7</ele>
        <time>2018-09-15T13:12:14Z</time>
      </trkpt>
      <trkpt lat="43.4727780" lon="-5.8936540">
        <ele>321.9</ele>
        <time>2018-09-15T13:12:15Z</time>
      </trkpt>
      <trkpt lat="43.4727690" lon="-5.8936210">
        <ele>322.3</ele>
        <time>2018-09-15T13:12:16Z</time>
      </trkpt>
      <trkpt lat="43.4727620" lon="-5.8935940">
        <ele>322.5</ele>
        <time>2018-09-15T13:12:17Z</time>
      </trkpt>
      <trkpt lat="43.4727490" lon="-5.8935620">
        <ele>322.9</ele>
        <time>2018-09-15T13:12:18Z</time>
      </trkpt>
      <trkpt lat="43.4727330" lon="-5.8935340">
        <ele>323.2</ele>
        <time>2018-09-15T13:12:19Z</time>
      </trkpt>
      <trkpt lat="43.4727190" lon="-5.8935120">
        <ele>323.3</ele>
        <time>2018-09-15T13:12:20Z</time>
      </trkpt>
      <trkpt lat="43.4726990" lon="-5.8934850">
        <ele>323.5</ele>
        <time>2018-09-15T13:12:21Z</time>
      </trkpt>
      <trkpt lat="43.4726790" lon="-5.8934600">
        <ele>323.7</ele>
        <time>2018-09-15T13:12:22Z</time>
      </trkpt>
      <trkpt lat="43.4726610" lon="-5.8934430">
        <ele>323.9</ele>
        <time>2018-09-15T13:12:23Z</time>
      </trkpt>
      <trkpt lat="43.4726430" lon="-5.8934270">
        <ele>324.1</ele>
        <time>2018-09-15T13:12:24Z</time>
      </trkpt>
      <trkpt lat="43.4726230" lon="-5.8934100">
        <ele>324.4</ele>
        <time>2018-09-15T13:12:25Z</time>
      </trkpt>
      <trkpt lat="43.4725990" lon="-5.8933870">
        <ele>324.8</ele>
        <time>2018-09-15T13:12:26Z</time>
      </trkpt>
      <trkpt lat="43.4725780" lon="-5.8933710">
        <ele>325.2</ele>
        <time>2018-09-15T13:12:27Z</time>
      </trkpt>
      <trkpt lat="43.4725540" lon="-5.8933500">
        <ele>325.6</ele>
        <time>2018-09-15T13:12:28Z</time>
      </trkpt>
      <trkpt lat="43.4725350" lon="-5.8933340">
        <ele>325.8</ele>
        <time>2018-09-15T13:12:29Z</time>
      </trkpt>
      <trkpt lat="43.4725150" lon="-5.8933180">
        <ele>326.0</ele>
        <time>2018-09-15T13:12:30Z</time>
      </trkpt>
      <trkpt lat="43.4724910" lon="-5.8932980">
        <ele>326.2</ele>
        <time>2018-09-15T13:12:31Z</time>
      </trkpt>
      <trkpt lat="43.4724670" lon="-5.8932780">
        <ele>326.4</ele>
        <time>2018-09-15T13:12:32Z</time>
      </trkpt>
      <trkpt lat="43.4724440" lon="-5.8932580">
        <ele>326.5</ele>
        <time>2018-09-15T13:12:33Z</time>
      </trkpt>
      <trkpt lat="43.4724250" lon="-5.8932420">
        <ele>326.7</ele>
        <time>2018-09-15T13:12:34Z</time>
      </trkpt>
      <trkpt lat="43.4724020" lon="-5.8932210">
        <ele>326.8</ele>
        <time>2018-09-15T13:12:35Z</time>
      </trkpt>
      <trkpt lat="43.4723800" lon="-5.8932000">
        <ele>327.1</ele>
        <time>2018-09-15T13:12:36Z</time>
      </trkpt>
      <trkpt lat="43.4723600" lon="-5.8931770">
        <ele>327.4</ele>
        <time>2018-09-15T13:12:37Z</time>
      </trkpt>
      <trkpt lat="43.4723430" lon="-5.8931580">
        <ele>327.7</ele>
        <time>2018-09-15T13:12:38Z</time>
      </trkpt>
      <trkpt lat="43.4723210" lon="-5.8931320">
        <ele>328.0</ele>
        <time>2018-09-15T13:12:39Z</time>
      </trkpt>
      <trkpt lat="43.4723010" lon="-5.8931060">
        <ele>328.2</ele>
        <time>2018-09-15T13:12:40Z</time>
      </trkpt>
      <trkpt lat="43.4722830" lon="-5.8930780">
        <ele>328.3</ele>
        <time>2018-09-15T13:12:41Z</time>
      </trkpt>
      <trkpt lat="43.4722640" lon="-5.8930510">
        <ele>328.4</ele>
        <time>2018-09-15T13:12:42Z</time>
      </trkpt>
      <trkpt lat="43.4722490" lon="-5.8930290">
        <ele>328.5</ele>
        <time>2018-09-15T13:12:43Z</time>
      </trkpt>
      <trkpt lat="43.4722330" lon="-5.8930040">
        <ele>328.6</ele>
        <time>2018-09-15T13:12:44Z</time>
      </trkpt>
      <trkpt lat="43.4722140" lon="-5.8929740">
        <ele>328.7</ele>
        <time>2018-09-15T13:12:45Z</time>
      </trkpt>
      <trkpt lat="43.4721980" lon="-5.8929490">
        <ele>328.8</ele>
        <time>2018-09-15T13:12:46Z</time>
      </trkpt>
      <trkpt lat="43.4721810" lon="-5.8929240">
        <ele>328.8</ele>
        <time>2018-09-15T13:12:47Z</time>
      </trkpt>
      <trkpt lat="43.4721590" lon="-5.8928960">
        <ele>328.9</ele>
        <time>2018-09-15T13:12:48Z</time>
      </trkpt>
      <trkpt lat="43.4721370" lon="-5.8928710">
        <ele>329.1</ele>
        <time>2018-09-15T13:12:49Z</time>
      </trkpt>
      <trkpt lat="43.4721150" lon="-5.8928480">
        <ele>329.3</ele>
        <time>2018-09-15T13:12:50Z</time>
      </trkpt>
      <trkpt lat="43.4720960" lon="-5.8928320">
        <ele>329.5</ele>
        <time>2018-09-15T13:12:51Z</time>
      </trkpt>
      <trkpt lat="43.4720670" lon="-5.8928140">
        <ele>329.9</ele>
        <time>2018-09-15T13:12:52Z</time>
      </trkpt>
      <trkpt lat="43.4720430" lon="-5.8927970">
        <ele>330.2</ele>
        <time>2018-09-15T13:12:53Z</time>
      </trkpt>
      <trkpt lat="43.4720150" lon="-5.8927800">
        <ele>330.5</ele>
        <time>2018-09-15T13:12:54Z</time>
      </trkpt>
      <trkpt lat="43.4719820" lon="-5.8927630">
        <ele>330.7</ele>
        <time>2018-09-15T13:12:55Z</time>
      </trkpt>
      <trkpt lat="43.4719510" lon="-5.8927470">
        <ele>330.9</ele>
        <time>2018-09-15T13:12:56Z</time>
      </trkpt>
      <trkpt lat="43.4719260" lon="-5.8927350">
        <ele>331.0</ele>
        <time>2018-09-15T13:12:57Z</time>
      </trkpt>
      <trkpt lat="43.4719000" lon="-5.8927230">
        <ele>331.1</ele>
        <time>2018-09-15T13:12:58Z</time>
      </trkpt>
      <trkpt lat="43.4718720" lon="-5.8927130">
        <ele>331.2</ele>
        <time>2018-09-15T13:12:59Z</time>
      </trkpt>
      <trkpt lat="43.4718410" lon="-5.8927000">
        <ele>331.3</ele>
        <time>2018-09-15T13:13:00Z</time>
      </trkpt>
      <trkpt lat="43.4718160" lon="-5.8926880">
        <ele>331.4</ele>
        <time>2018-09-15T13:13:01Z</time>
      </trkpt>
      <trkpt lat="43.4717940" lon="-5.8926780">
        <ele>331.4</ele>
        <time>2018-09-15T13:13:02Z</time>
      </trkpt>
      <trkpt lat="43.4717750" lon="-5.8926670">
        <ele>331.5</ele>
        <time>2018-09-15T13:13:03Z</time>
      </trkpt>
      <trkpt lat="43.4717380" lon="-5.8926470">
        <ele>331.6</ele>
        <time>2018-09-15T13:13:04Z</time>
      </trkpt>
      <trkpt lat="43.4717060" lon="-5.8926330">
        <ele>331.8</ele>
        <time>2018-09-15T13:13:05Z</time>
      </trkpt>
      <trkpt lat="43.4716700" lon="-5.8926180">
        <ele>331.9</ele>
        <time>2018-09-15T13:13:06Z</time>
      </trkpt>
      <trkpt lat="43.4716430" lon="-5.8926060">
        <ele>332.0</ele>
        <time>2018-09-15T13:13:07Z</time>
      </trkpt>
      <trkpt lat="43.4716090" lon="-5.8925920">
        <ele>332.1</ele>
        <time>2018-09-15T13:13:08Z</time>
      </trkpt>
      <trkpt lat="43.4715830" lon="-5.8925800">
        <ele>332.3</ele>
        <time>2018-09-15T13:13:09Z</time>
      </trkpt>
      <trkpt lat="43.4715500" lon="-5.8925640">
        <ele>332.8</ele>
        <time>2018-09-15T13:13:10Z</time>
      </trkpt>
      <trkpt lat="43.4715140" lon="-5.8925460">
        <ele>333.3</ele>
        <time>2018-09-15T13:13:11Z</time>
      </trkpt>
      <trkpt lat="43.4714880" lon="-5.8925320">
        <ele>333.5</ele>
        <time>2018-09-15T13:13:12Z</time>
      </trkpt>
      <trkpt lat="43.4714610" lon="-5.8925200">
        <ele>333.7</ele>
        <time>2018-09-15T13:13:13Z</time>
      </trkpt>
      <trkpt lat="43.4714410" lon="-5.8925110">
        <ele>333.9</ele>
        <time>2018-09-15T13:13:14Z</time>
      </trkpt>
      <trkpt lat="43.4714140" lon="-5.8924980">
        <ele>334.1</ele>
        <time>2018-09-15T13:13:15Z</time>
      </trkpt>
      <trkpt lat="43.4712910" lon="-5.8924420">
        <ele>334.4</ele>
        <time>2018-09-15T13:13:16Z</time>
      </trkpt>
      <trkpt lat="43.4712580" lon="-5.8924090">
        <ele>334.5</ele>
        <time>2018-09-15T13:13:17Z</time>
      </trkpt>
      <trkpt lat="43.4712230" lon="-5.8923790">
        <ele>334.5</ele>
        <time>2018-09-15T13:13:18Z</time>
      </trkpt>
      <trkpt lat="43.4711890" lon="-5.8923480">
        <ele>334.6</ele>
        <time>2018-09-15T13:13:19Z</time>
      </trkpt>
      <trkpt lat="43.4711510" lon="-5.8923110">
        <ele>334.6</ele>
        <time>2018-09-15T13:13:20Z</time>
      </trkpt>
      <trkpt lat="43.4711110" lon="-5.8922760">
        <ele>334.7</ele>
        <time>2018-09-15T13:13:21Z</time>
      </trkpt>
      <trkpt lat="43.4710720" lon="-5.8922390">
        <ele>334.7</ele>
        <time>2018-09-15T13:13:22Z</time>
      </trkpt>
      <trkpt lat="43.4710320" lon="-5.8922050">
        <ele>334.8</ele>
        <time>2018-09-15T13:13:23Z</time>
      </trkpt>
      <trkpt lat="43.4709920" lon="-5.8921640">
        <ele>334.8</ele>
        <time>2018-09-15T13:13:24Z</time>
      </trkpt>
      <trkpt lat="43.4709560" lon="-5.8921200">
        <ele>334.8</ele>
        <time>2018-09-15T13:13:25Z</time>
      </trkpt>
      <trkpt lat="43.4709180" lon="-5.8920780">
        <ele>334.9</ele>
        <time>2018-09-15T13:13:26Z</time>
      </trkpt>
      <trkpt lat="43.4708830" lon="-5.8920330">
        <ele>334.9</ele>
        <time>2018-09-15T13:13:27Z</time>
      </trkpt>
      <trkpt lat="43.4708440" lon="-5.8919930">
        <ele>334.9</ele>
        <time>2018-09-15T13:13:28Z</time>
      </trkpt>
      <trkpt lat="43.4708020" lon="-5.8919530">
        <ele>334.9</ele>
        <time>2018-09-15T13:13:29Z</time>
      </trkpt>
      <trkpt lat="43.4707630" lon="-5.8919200">
        <ele>335.0</ele>
        <time>2018-09-15T13:13:31Z</time>
      </trkpt>
      <trkpt lat="43.4707260" lon="-5.8918670">
        <ele>335.0</ele>
        <time>2018-09-15T13:13:32Z</time>
      </trkpt>
      <trkpt lat="43.4706940" lon="-5.8918060">
        <ele>335.0</ele>
        <time>2018-09-15T13:13:32Z</time>
      </trkpt>
      <trkpt lat="43.4706740" lon="-5.8917550">
        <ele>334.8</ele>
        <time>2018-09-15T13:13:33Z</time>
      </trkpt>
      <trkpt lat="43.4706760" lon="-5.8916950">
        <ele>334.6</ele>
        <time>2018-09-15T13:13:34Z</time>
      </trkpt>
      <trkpt lat="43.4706850" lon="-5.8916300">
        <ele>334.5</ele>
        <time>2018-09-15T13:13:36Z</time>
      </trkpt>
      <trkpt lat="43.4706890" lon="-5.8915470">
        <ele>334.3</ele>
        <time>2018-09-15T13:13:36Z</time>
      </trkpt>
      <trkpt lat="43.4706990" lon="-5.8914780">
        <ele>334.2</ele>
        <time>2018-09-15T13:13:37Z</time>
      </trkpt>
      <trkpt lat="43.4707170" lon="-5.8914050">
        <ele>334.0</ele>
        <time>2018-09-15T13:13:39Z</time>
      </trkpt>
      <trkpt lat="43.4707370" lon="-5.8913300">
        <ele>333.9</ele>
        <time>2018-09-15T13:13:39Z</time>
      </trkpt>
      <trkpt lat="43.4707590" lon="-5.8912600">
        <ele>333.7</ele>
        <time>2018-09-15T13:13:41Z</time>
      </trkpt>
      <trkpt lat="43.4707730" lon="-5.8911930">
        <ele>333.6</ele>
        <time>2018-09-15T13:13:42Z</time>
      </trkpt>
      <trkpt lat="43.4707800" lon="-5.8911290">
        <ele>333.4</ele>
        <time>2018-09-15T13:13:43Z</time>
      </trkpt>
      <trkpt lat="43.4707880" lon="-5.8910530">
        <ele>333.3</ele>
        <time>2018-09-15T13:13:44Z</time>
      </trkpt>
      <trkpt lat="43.4707890" lon="-5.8909770">
        <ele>333.2</ele>
        <time>2018-09-15T13:13:45Z</time>
      </trkpt>
      <trkpt lat="43.4707920" lon="-5.8909010">
        <ele>333.2</ele>
        <time>2018-09-15T13:13:46Z</time>
      </trkpt>
      <trkpt lat="43.4707950" lon="-5.8908350">
        <ele>333.1</ele>
        <time>2018-09-15T13:13:47Z</time>
      </trkpt>
      <trkpt lat="43.4707950" lon="-5.8907590">
        <ele>332.9</ele>
        <time>2018-09-15T13:13:48Z</time>
      </trkpt>
      <trkpt lat="43.4708000" lon="-5.8906950">
        <ele>332.8</ele>
        <time>2018-09-15T13:13:49Z</time>
      </trkpt>
      <trkpt lat="43.4707950" lon="-5.8906230">
        <ele>332.8</ele>
        <time>2018-09-15T13:13:50Z</time>
      </trkpt>
      <trkpt lat="43.4707930" lon="-5.8905490">
        <ele>332.7</ele>
        <time>2018-09-15T13:13:51Z</time>
      </trkpt>
      <trkpt lat="43.4707860" lon="-5.8904780">
        <ele>332.7</ele>
        <time>2018-09-15T13:13:52Z</time>
      </trkpt>
      <trkpt lat="43.4707790" lon="-5.8904050">
        <ele>332.6</ele>
        <time>2018-09-15T13:13:53Z</time>
      </trkpt>
      <trkpt lat="43.4707650" lon="-5.8903290">
        <ele>332.5</ele>
        <time>2018-09-15T13:13:54Z</time>
      </trkpt>
      <trkpt lat="43.4707570" lon="-5.8902500">
        <ele>332.5</ele>
        <time>2018-09-15T13:13:55Z</time>
      </trkpt>
      <trkpt lat="43.4707480" lon="-5.8901720">
        <ele>332.4</ele>
        <time>2018-09-15T13:13:56Z</time>
      </trkpt>
      <trkpt lat="43.4707360" lon="-5.8900930">
        <ele>332.3</ele>
        <time>2018-09-15T13:13:57Z</time>
      </trkpt>
      <trkpt lat="43.4707290" lon="-5.8900110">
        <ele>332.2</ele>
        <time>2018-09-15T13:13:58Z</time>
      </trkpt>
      <trkpt lat="43.4707180" lon="-5.8899320">
        <ele>332.1</ele>
        <time>2018-09-15T13:13:59Z</time>
      </trkpt>
      <trkpt lat="43.4707070" lon="-5.8898530">
        <ele>332.0</ele>
        <time>2018-09-15T13:14:00Z</time>
      </trkpt>
      <trkpt lat="43.4706990" lon="-5.8897770">
        <ele>332.0</ele>
        <time>2018-09-15T13:14:01Z</time>
      </trkpt>
      <trkpt lat="43.4706930" lon="-5.8896950">
        <ele>331.9</ele>
        <time>2018-09-15T13:14:02Z</time>
      </trkpt>
      <trkpt lat="43.4706900" lon="-5.8896150">
        <ele>331.8</ele>
        <time>2018-09-15T13:14:03Z</time>
      </trkpt>
      <trkpt lat="43.4706860" lon="-5.8895360">
        <ele>331.7</ele>
        <time>2018-09-15T13:14:04Z</time>
      </trkpt>
      <trkpt lat="43.4706840" lon="-5.8894580">
        <ele>331.7</ele>
        <time>2018-09-15T13:14:05Z</time>
      </trkpt>
      <trkpt lat="43.4706810" lon="-5.8893820">
        <ele>331.6</ele>
        <time>2018-09-15T13:14:06Z</time>
      </trkpt>
      <trkpt lat="43.4706740" lon="-5.8893020">
        <ele>331.6</ele>
        <time>2018-09-15T13:14:07Z</time>
      </trkpt>
      <trkpt lat="43.4706730" lon="-5.8892250">
        <ele>331.5</ele>
        <time>2018-09-15T13:14:08Z</time>
      </trkpt>
      <trkpt lat="43.4706690" lon="-5.8891490">
        <ele>331.4</ele>
        <time>2018-09-15T13:14:09Z</time>
      </trkpt>
      <trkpt lat="43.4706660" lon="-5.8890680">
        <ele>331.4</ele>
        <time>2018-09-15T13:14:10Z</time>
      </trkpt>
      <trkpt lat="43.4706670" lon="-5.8889950">
        <ele>331.2</ele>
        <time>2018-09-15T13:14:11Z</time>
      </trkpt>
      <trkpt lat="43.4706640" lon="-5.8889230">
        <ele>331.1</ele>
        <time>2018-09-15T13:14:12Z</time>
      </trkpt>
      <trkpt lat="43.4706630" lon="-5.8888490">
        <ele>331.1</ele>
        <time>2018-09-15T13:14:13Z</time>
      </trkpt>
      <trkpt lat="43.4706640" lon="-5.8887760">
        <ele>331.0</ele>
        <time>2018-09-15T13:14:14Z</time>
      </trkpt>
      <trkpt lat="43.4706650" lon="-5.8887040">
        <ele>331.0</ele>
        <time>2018-09-15T13:14:15Z</time>
      </trkpt>
      <trkpt lat="43.4706620" lon="-5.8886320">
        <ele>330.9</ele>
        <time>2018-09-15T13:14:16Z</time>
      </trkpt>
      <trkpt lat="43.4706550" lon="-5.8885540">
        <ele>330.8</ele>
        <time>2018-09-15T13:14:17Z</time>
      </trkpt>
      <trkpt lat="43.4706470" lon="-5.8884800">
        <ele>330.8</ele>
        <time>2018-09-15T13:14:18Z</time>
      </trkpt>
      <trkpt lat="43.4706360" lon="-5.8884070">
        <ele>330.6</ele>
        <time>2018-09-15T13:14:19Z</time>
      </trkpt>
      <trkpt lat="43.4706150" lon="-5.8883330">
        <ele>330.5</ele>
        <time>2018-09-15T13:14:20Z</time>
      </trkpt>
      <trkpt lat="43.4705920" lon="-5.8882630">
        <ele>330.4</ele>
        <time>2018-09-15T13:14:21Z</time>
      </trkpt>
      <trkpt lat="43.4705660" lon="-5.8881950">
        <ele>330.3</ele>
        <time>2018-09-15T13:14:22Z</time>
      </trkpt>
      <trkpt lat="43.4705390" lon="-5.8881300">
        <ele>330.2</ele>
        <time>2018-09-15T13:14:23Z</time>
      </trkpt>
      <trkpt lat="43.4704990" lon="-5.8880750">
        <ele>330.1</ele>
        <time>2018-09-15T13:14:24Z</time>
      </trkpt>
      <trkpt lat="43.4704560" lon="-5.8880300">
        <ele>329.9</ele>
        <time>2018-09-15T13:14:25Z</time>
      </trkpt>
      <trkpt lat="43.4704090" lon="-5.8879860">
        <ele>329.8</ele>
        <time>2018-09-15T13:14:26Z</time>
      </trkpt>
      <trkpt lat="43.4703630" lon="-5.8879430">
        <ele>329.7</ele>
        <time>2018-09-15T13:14:27Z</time>
      </trkpt>
      <trkpt lat="43.4703210" lon="-5.8878960">
        <ele>329.5</ele>
        <time>2018-09-15T13:14:28Z</time>
      </trkpt>
      <trkpt lat="43.4702800" lon="-5.8878460">
        <ele>329.4</ele>
        <time>2018-09-15T13:14:29Z</time>
      </trkpt>
      <trkpt lat="43.4702370" lon="-5.8877970">
        <ele>329.3</ele>
        <time>2018-09-15T13:14:30Z</time>
      </trkpt>
      <trkpt lat="43.4701990" lon="-5.8877420">
        <ele>329.2</ele>
        <time>2018-09-15T13:14:31Z</time>
      </trkpt>
      <trkpt lat="43.4701640" lon="-5.8876860">
        <ele>329.1</ele>
        <time>2018-09-15T13:14:32Z</time>
      </trkpt>
      <trkpt lat="43.4701300" lon="-5.8876280">
        <ele>329.0</ele>
        <time>2018-09-15T13:14:33Z</time>
      </trkpt>
      <trkpt lat="43.4700970" lon="-5.8875680">
        <ele>328.9</ele>
        <time>2018-09-15T13:14:34Z</time>
      </trkpt>
      <trkpt lat="43.4700650" lon="-5.8875100">
        <ele>328.8</ele>
        <time>2018-09-15T13:14:35Z</time>
      </trkpt>
      <trkpt lat="43.4700390" lon="-5.8874500">
        <ele>328.8</ele>
        <time>2018-09-15T13:14:36Z</time>
      </trkpt>
      <trkpt lat="43.4700190" lon="-5.8873880">
        <ele>328.7</ele>
        <time>2018-09-15T13:14:37Z</time>
      </trkpt>
      <trkpt lat="43.4700020" lon="-5.8873220">
        <ele>328.6</ele>
        <time>2018-09-15T13:14:38Z</time>
      </trkpt>
      <trkpt lat="43.4699880" lon="-5.8872540">
        <ele>328.5</ele>
        <time>2018-09-15T13:14:39Z</time>
      </trkpt>
      <trkpt lat="43.4699780" lon="-5.8871860">
        <ele>328.4</ele>
        <time>2018-09-15T13:14:40Z</time>
      </trkpt>
      <trkpt lat="43.4699790" lon="-5.8871270">
        <ele>328.4</ele>
        <time>2018-09-15T13:14:41Z</time>
      </trkpt>
      <trkpt lat="43.4699710" lon="-5.8870640">
        <ele>328.4</ele>
        <time>2018-09-15T13:14:42Z</time>
      </trkpt>
      <trkpt lat="43.4699530" lon="-5.8869940">
        <ele>328.4</ele>
        <time>2018-09-15T13:14:43Z</time>
      </trkpt>
      <trkpt lat="43.4699270" lon="-5.8869290">
        <ele>328.4</ele>
        <time>2018-09-15T13:14:44Z</time>
      </trkpt>
      <trkpt lat="43.4698750" lon="-5.8868020">
        <ele>328.3</ele>
        <time>2018-09-15T13:14:45Z</time>
      </trkpt>
      <trkpt lat="43.4698450" lon="-5.8867380">
        <ele>328.2</ele>
        <time>2018-09-15T13:14:46Z</time>
      </trkpt>
      <trkpt lat="43.4698290" lon="-5.8867080">
        <ele>328.2</ele>
        <time>2018-09-15T13:14:47Z</time>
      </trkpt>
      <trkpt lat="43.4698130" lon="-5.8866790">
        <ele>328.2</ele>
        <time>2018-09-15T13:14:48Z</time>
      </trkpt>
      <trkpt lat="43.4697510" lon="-5.8865630">
        <ele>328.1</ele>
        <time>2018-09-15T13:14:49Z</time>
      </trkpt>
      <trkpt lat="43.4697230" lon="-5.8865120">
        <ele>328.1</ele>
        <time>2018-09-15T13:14:50Z</time>
      </trkpt>
      <trkpt lat="43.4697040" lon="-5.8864560">
        <ele>328.0</ele>
        <time>2018-09-15T13:14:51Z</time>
      </trkpt>
      <trkpt lat="43.4697010" lon="-5.8863820">
        <ele>328.0</ele>
        <time>2018-09-15T13:14:52Z</time>
      </trkpt>
      <trkpt lat="43.4697020" lon="-5.8863080">
        <ele>327.8</ele>
        <time>2018-09-15T13:14:53Z</time>
      </trkpt>
      <trkpt lat="43.4697170" lon="-5.8862430">
        <ele>327.8</ele>
        <time>2018-09-15T13:14:54Z</time>
      </trkpt>
      <trkpt lat="43.4697290" lon="-5.8861760">
        <ele>327.7</ele>
        <time>2018-09-15T13:14:55Z</time>
      </trkpt>
      <trkpt lat="43.4697380" lon="-5.8861080">
        <ele>327.6</ele>
        <time>2018-09-15T13:14:56Z</time>
      </trkpt>
      <trkpt lat="43.4697450" lon="-5.8860330">
        <ele>327.6</ele>
        <time>2018-09-15T13:14:57Z</time>
      </trkpt>
      <trkpt lat="43.4697590" lon="-5.8859690">
        <ele>327.5</ele>
        <time>2018-09-15T13:14:58Z</time>
      </trkpt>
      <trkpt lat="43.4697660" lon="-5.8859010">
        <ele>327.5</ele>
        <time>2018-09-15T13:14:59Z</time>
      </trkpt>
      <trkpt lat="43.4697630" lon="-5.8858330">
        <ele>327.4</ele>
        <time>2018-09-15T13:15:00Z</time>
      </trkpt>
      <trkpt lat="43.4697550" lon="-5.8857610">
        <ele>327.4</ele>
        <time>2018-09-15T13:15:01Z</time>
      </trkpt>
      <trkpt lat="43.4697500" lon="-5.8856910">
        <ele>327.5</ele>
        <time>2018-09-15T13:15:02Z</time>
      </trkpt>
      <trkpt lat="43.4697410" lon="-5.8856150">
        <ele>327.5</ele>
        <time>2018-09-15T13:15:03Z</time>
      </trkpt>
      <trkpt lat="43.4697360" lon="-5.8855410">
        <ele>327.5</ele>
        <time>2018-09-15T13:15:04Z</time>
      </trkpt>
      <trkpt lat="43.4697350" lon="-5.8854690">
        <ele>327.5</ele>
        <time>2018-09-15T13:15:05Z</time>
      </trkpt>
      <trkpt lat="43.4697320" lon="-5.8853950">
        <ele>327.6</ele>
        <time>2018-09-15T13:15:06Z</time>
      </trkpt>
      <trkpt lat="43.4697390" lon="-5.8853240">
        <ele>327.7</ele>
        <time>2018-09-15T13:15:07Z</time>
      </trkpt>
      <trkpt lat="43.4697570" lon="-5.8852550">
        <ele>327.7</ele>
        <time>2018-09-15T13:15:08Z</time>
      </trkpt>
      <trkpt lat="43.4697750" lon="-5.8851880">
        <ele>327.8</ele>
        <time>2018-09-15T13:15:09Z</time>
      </trkpt>
      <trkpt lat="43.4697850" lon="-5.8851170">
        <ele>327.7</ele>
        <time>2018-09-15T13:15:10Z</time>
      </trkpt>
      <trkpt lat="43.4697960" lon="-5.8850540">
        <ele>327.7</ele>
        <time>2018-09-15T13:15:11Z</time>
      </trkpt>
      <trkpt lat="43.4698010" lon="-5.8849820">
        <ele>327.7</ele>
        <time>2018-09-15T13:15:12Z</time>
      </trkpt>
      <trkpt lat="43.4697990" lon="-5.8849110">
        <ele>327.6</ele>
        <time>2018-09-15T13:15:13Z</time>
      </trkpt>
      <trkpt lat="43.4697910" lon="-5.8848420">
        <ele>327.5</ele>
        <time>2018-09-15T13:15:14Z</time>
      </trkpt>
      <trkpt lat="43.4697870" lon="-5.8847740">
        <ele>327.4</ele>
        <time>2018-09-15T13:15:15Z</time>
      </trkpt>
      <trkpt lat="43.4697810" lon="-5.8847050">
        <ele>327.3</ele>
        <time>2018-09-15T13:15:16Z</time>
      </trkpt>
      <trkpt lat="43.4697730" lon="-5.8846360">
        <ele>327.3</ele>
        <time>2018-09-15T13:15:17Z</time>
      </trkpt>
      <trkpt lat="43.4697650" lon="-5.8845670">
        <ele>327.2</ele>
        <time>2018-09-15T13:15:18Z</time>
      </trkpt>
      <trkpt lat="43.4697570" lon="-5.8845100">
        <ele>327.2</ele>
        <time>2018-09-15T13:15:19Z</time>
      </trkpt>
      <trkpt lat="43.4697430" lon="-5.8844380">
        <ele>327.2</ele>
        <time>2018-09-15T13:15:20Z</time>
      </trkpt>
      <trkpt lat="43.4697260" lon="-5.8843690">
        <ele>327.2</ele>
        <time>2018-09-15T13:15:21Z</time>
      </trkpt>
      <trkpt lat="43.4697050" lon="-5.8843080">
        <ele>327.2</ele>
        <time>2018-09-15T13:15:22Z</time>
      </trkpt>
      <trkpt lat="43.4696840" lon="-5.8842480">
        <ele>327.1</ele>
        <time>2018-09-15T13:15:23Z</time>
      </trkpt>
      <trkpt lat="43.4696480" lon="-5.8842000">
        <ele>327.1</ele>
        <time>2018-09-15T13:15:24Z</time>
      </trkpt>
      <trkpt lat="43.4696140" lon="-5.8841480">
        <ele>327.1</ele>
        <time>2018-09-15T13:15:25Z</time>
      </trkpt>
      <trkpt lat="43.4695880" lon="-5.8840980">
        <ele>327.2</ele>
        <time>2018-09-15T13:15:26Z</time>
      </trkpt>
      <trkpt lat="43.4695450" lon="-5.8840500">
        <ele>327.3</ele>
        <time>2018-09-15T13:15:27Z</time>
      </trkpt>
      <trkpt lat="43.4695030" lon="-5.8839980">
        <ele>327.4</ele>
        <time>2018-09-15T13:15:28Z</time>
      </trkpt>
      <trkpt lat="43.4694670" lon="-5.8839590">
        <ele>327.5</ele>
        <time>2018-09-15T13:15:29Z</time>
      </trkpt>
      <trkpt lat="43.4694260" lon="-5.8839090">
        <ele>327.6</ele>
        <time>2018-09-15T13:15:30Z</time>
      </trkpt>
      <trkpt lat="43.4693810" lon="-5.8838580">
        <ele>327.6</ele>
        <time>2018-09-15T13:15:31Z</time>
      </trkpt>
      <trkpt lat="43.4693400" lon="-5.8838150">
        <ele>327.6</ele>
        <time>2018-09-15T13:15:32Z</time>
      </trkpt>
      <trkpt lat="43.4692990" lon="-5.8837700">
        <ele>327.6</ele>
        <time>2018-09-15T13:15:33Z</time>
      </trkpt>
      <trkpt lat="43.4692540" lon="-5.8837260">
        <ele>327.6</ele>
        <time>2018-09-15T13:15:34Z</time>
      </trkpt>
      <trkpt lat="43.4692140" lon="-5.8836810">
        <ele>327.6</ele>
        <time>2018-09-15T13:15:35Z</time>
      </trkpt>
      <trkpt lat="43.4691750" lon="-5.8836440">
        <ele>327.6</ele>
        <time>2018-09-15T13:15:36Z</time>
      </trkpt>
      <trkpt lat="43.4691410" lon="-5.8836060">
        <ele>327.6</ele>
        <time>2018-09-15T13:15:37Z</time>
      </trkpt>
      <trkpt lat="43.4690920" lon="-5.8835670">
        <ele>327.5</ele>
        <time>2018-09-15T13:15:38Z</time>
      </trkpt>
      <trkpt lat="43.4690580" lon="-5.8835320">
        <ele>327.5</ele>
        <time>2018-09-15T13:15:39Z</time>
      </trkpt>
      <trkpt lat="43.4690100" lon="-5.8834980">
        <ele>327.5</ele>
        <time>2018-09-15T13:15:40Z</time>
      </trkpt>
      <trkpt lat="43.4689620" lon="-5.8834680">
        <ele>327.5</ele>
        <time>2018-09-15T13:15:41Z</time>
      </trkpt>
      <trkpt lat="43.4689180" lon="-5.8834330">
        <ele>327.4</ele>
        <time>2018-09-15T13:15:42Z</time>
      </trkpt>
      <trkpt lat="43.4688800" lon="-5.8833960">
        <ele>327.4</ele>
        <time>2018-09-15T13:15:43Z</time>
      </trkpt>
      <trkpt lat="43.4688410" lon="-5.8833500">
        <ele>327.4</ele>
        <time>2018-09-15T13:15:44Z</time>
      </trkpt>
      <trkpt lat="43.4688060" lon="-5.8833140">
        <ele>327.3</ele>
        <time>2018-09-15T13:15:45Z</time>
      </trkpt>
      <trkpt lat="43.4687700" lon="-5.8832610">
        <ele>327.3</ele>
        <time>2018-09-15T13:15:46Z</time>
      </trkpt>
      <trkpt lat="43.4687350" lon="-5.8832140">
        <ele>327.3</ele>
        <time>2018-09-15T13:15:47Z</time>
      </trkpt>
      <trkpt lat="43.4687180" lon="-5.8831730">
        <ele>327.2</ele>
        <time>2018-09-15T13:15:48Z</time>
      </trkpt>
      <trkpt lat="43.4686880" lon="-5.8831070">
        <ele>327.2</ele>
        <time>2018-09-15T13:15:49Z</time>
      </trkpt>
      <trkpt lat="43.4686720" lon="-5.8830520">
        <ele>327.1</ele>
        <time>2018-09-15T13:15:50Z</time>
      </trkpt>
      <trkpt lat="43.4686600" lon="-5.8829750">
        <ele>327.0</ele>
        <time>2018-09-15T13:15:51Z</time>
      </trkpt>
      <trkpt lat="43.4686410" lon="-5.8828940">
        <ele>326.9</ele>
        <time>2018-09-15T13:15:52Z</time>
      </trkpt>
      <trkpt lat="43.4686280" lon="-5.8828210">
        <ele>326.8</ele>
        <time>2018-09-15T13:15:53Z</time>
      </trkpt>
      <trkpt lat="43.4686120" lon="-5.8827450">
        <ele>326.8</ele>
        <time>2018-09-15T13:15:54Z</time>
      </trkpt>
      <trkpt lat="43.4685980" lon="-5.8826730">
        <ele>326.7</ele>
        <time>2018-09-15T13:15:55Z</time>
      </trkpt>
      <trkpt lat="43.4685730" lon="-5.8825980">
        <ele>326.7</ele>
        <time>2018-09-15T13:15:56Z</time>
      </trkpt>
      <trkpt lat="43.4685560" lon="-5.8825290">
        <ele>326.6</ele>
        <time>2018-09-15T13:15:57Z</time>
      </trkpt>
      <trkpt lat="43.4685370" lon="-5.8824580">
        <ele>326.6</ele>
        <time>2018-09-15T13:15:58Z</time>
      </trkpt>
      <trkpt lat="43.4685140" lon="-5.8823850">
        <ele>326.4</ele>
        <time>2018-09-15T13:15:59Z</time>
      </trkpt>
      <trkpt lat="43.4684940" lon="-5.8823060">
        <ele>326.3</ele>
        <time>2018-09-15T13:16:00Z</time>
      </trkpt>
      <trkpt lat="43.4684560" lon="-5.8822530">
        <ele>326.2</ele>
        <time>2018-09-15T13:16:01Z</time>
      </trkpt>
      <trkpt lat="43.4684110" lon="-5.8822070">
        <ele>326.1</ele>
        <time>2018-09-15T13:16:02Z</time>
      </trkpt>
      <trkpt lat="43.4683580" lon="-5.8821690">
        <ele>325.9</ele>
        <time>2018-09-15T13:16:03Z</time>
      </trkpt>
      <trkpt lat="43.4683070" lon="-5.8821180">
        <ele>325.8</ele>
        <time>2018-09-15T13:16:04Z</time>
      </trkpt>
      <trkpt lat="43.4682600" lon="-5.8820600">
        <ele>325.6</ele>
        <time>2018-09-15T13:16:05Z</time>
      </trkpt>
      <trkpt lat="43.4682200" lon="-5.8819810">
        <ele>325.4</ele>
        <time>2018-09-15T13:16:06Z</time>
      </trkpt>
      <trkpt lat="43.4682020" lon="-5.8819110">
        <ele>325.4</ele>
        <time>2018-09-15T13:16:07Z</time>
      </trkpt>
      <trkpt lat="43.4681840" lon="-5.8818080">
        <ele>325.2</ele>
        <time>2018-09-15T13:16:08Z</time>
      </trkpt>
      <trkpt lat="43.4681670" lon="-5.8817100">
        <ele>325.1</ele>
        <time>2018-09-15T13:16:09Z</time>
      </trkpt>
      <trkpt lat="43.4681530" lon="-5.8816060">
        <ele>324.9</ele>
        <time>2018-09-15T13:16:10Z</time>
      </trkpt>
      <trkpt lat="43.4681440" lon="-5.8815020">
        <ele>324.8</ele>
        <time>2018-09-15T13:16:11Z</time>
      </trkpt>
      <trkpt lat="43.4681440" lon="-5.8813940">
        <ele>324.6</ele>
        <time>2018-09-15T13:16:12Z</time>
      </trkpt>
      <trkpt lat="43.4681500" lon="-5.8812900">
        <ele>324.4</ele>
        <time>2018-09-15T13:16:13Z</time>
      </trkpt>
      <trkpt lat="43.4681460" lon="-5.8811840">
        <ele>324.1</ele>
        <time>2018-09-15T13:16:14Z</time>
      </trkpt>
      <trkpt lat="43.4681290" lon="-5.8810800">
        <ele>323.6</ele>
        <time>2018-09-15T13:16:15Z</time>
      </trkpt>
      <trkpt lat="43.4681090" lon="-5.8809730">
        <ele>323.0</ele>
        <time>2018-09-15T13:16:16Z</time>
      </trkpt>
      <trkpt lat="43.4680730" lon="-5.8808710">
        <ele>322.3</ele>
        <time>2018-09-15T13:16:17Z</time>
      </trkpt>
      <trkpt lat="43.4680330" lon="-5.8807690">
        <ele>321.8</ele>
        <time>2018-09-15T13:16:18Z</time>
      </trkpt>
      <trkpt lat="43.4679800" lon="-5.8806770">
        <ele>321.4</ele>
        <time>2018-09-15T13:16:19Z</time>
      </trkpt>
      <trkpt lat="43.4679200" lon="-5.8805970">
        <ele>321.0</ele>
        <time>2018-09-15T13:16:20Z</time>
      </trkpt>
      <trkpt lat="43.4678580" lon="-5.8805220">
        <ele>320.6</ele>
        <time>2018-09-15T13:16:21Z</time>
      </trkpt>
      <trkpt lat="43.4677840" lon="-5.8804670">
        <ele>320.1</ele>
        <time>2018-09-15T13:16:22Z</time>
      </trkpt>
      <trkpt lat="43.4677080" lon="-5.8804190">
        <ele>319.5</ele>
        <time>2018-09-15T13:16:23Z</time>
      </trkpt>
      <trkpt lat="43.4676400" lon="-5.8803680">
        <ele>318.9</ele>
        <time>2018-09-15T13:16:24Z</time>
      </trkpt>
      <trkpt lat="43.4675830" lon="-5.8802920">
        <ele>318.4</ele>
        <time>2018-09-15T13:16:25Z</time>
      </trkpt>
      <trkpt lat="43.4675330" lon="-5.8802060">
        <ele>318.0</ele>
        <time>2018-09-15T13:16:26Z</time>
      </trkpt>
      <trkpt lat="43.4674930" lon="-5.8801120">
        <ele>317.7</ele>
        <time>2018-09-15T13:16:27Z</time>
      </trkpt>
      <trkpt lat="43.4674380" lon="-5.8800220">
        <ele>317.4</ele>
        <time>2018-09-15T13:16:28Z</time>
      </trkpt>
      <trkpt lat="43.4673690" lon="-5.8799430">
        <ele>317.1</ele>
        <time>2018-09-15T13:16:29Z</time>
      </trkpt>
      <trkpt lat="43.4672930" lon="-5.8798870">
        <ele>316.8</ele>
        <time>2018-09-15T13:16:30Z</time>
      </trkpt>
      <trkpt lat="43.4672170" lon="-5.8798410">
        <ele>316.5</ele>
        <time>2018-09-15T13:16:31Z</time>
      </trkpt>
      <trkpt lat="43.4671350" lon="-5.8797870">
        <ele>316.0</ele>
        <time>2018-09-15T13:16:32Z</time>
      </trkpt>
      <trkpt lat="43.4670650" lon="-5.8797050">
        <ele>315.4</ele>
        <time>2018-09-15T13:16:33Z</time>
      </trkpt>
      <trkpt lat="43.4670120" lon="-5.8796090">
        <ele>314.8</ele>
        <time>2018-09-15T13:16:34Z</time>
      </trkpt>
      <trkpt lat="43.4669690" lon="-5.8794960">
        <ele>314.2</ele>
        <time>2018-09-15T13:16:35Z</time>
      </trkpt>
      <trkpt lat="43.4669370" lon="-5.8793720">
        <ele>313.8</ele>
        <time>2018-09-15T13:16:36Z</time>
      </trkpt>
      <trkpt lat="43.4668980" lon="-5.8792700">
        <ele>313.4</ele>
        <time>2018-09-15T13:16:37Z</time>
      </trkpt>
      <trkpt lat="43.4668510" lon="-5.8791720">
        <ele>312.9</ele>
        <time>2018-09-15T13:16:38Z</time>
      </trkpt>
      <trkpt lat="43.4667970" lon="-5.8790790">
        <ele>312.4</ele>
        <time>2018-09-15T13:16:39Z</time>
      </trkpt>
      <trkpt lat="43.4667450" lon="-5.8789820">
        <ele>311.8</ele>
        <time>2018-09-15T13:16:40Z</time>
      </trkpt>
      <trkpt lat="43.4667000" lon="-5.8788930">
        <ele>311.2</ele>
        <time>2018-09-15T13:16:41Z</time>
      </trkpt>
      <trkpt lat="43.4666550" lon="-5.8788010">
        <ele>310.7</ele>
        <time>2018-09-15T13:16:42Z</time>
      </trkpt>
      <trkpt lat="43.4666200" lon="-5.8787000">
        <ele>310.2</ele>
        <time>2018-09-15T13:16:43Z</time>
      </trkpt>
      <trkpt lat="43.4665870" lon="-5.8786010">
        <ele>309.8</ele>
        <time>2018-09-15T13:16:44Z</time>
      </trkpt>
      <trkpt lat="43.4665430" lon="-5.8784850">
        <ele>309.6</ele>
        <time>2018-09-15T13:16:45Z</time>
      </trkpt>
      <trkpt lat="43.4664960" lon="-5.8783890">
        <ele>309.4</ele>
        <time>2018-09-15T13:16:46Z</time>
      </trkpt>
      <trkpt lat="43.4664440" lon="-5.8782990">
        <ele>309.1</ele>
        <time>2018-09-15T13:16:47Z</time>
      </trkpt>
      <trkpt lat="43.4663820" lon="-5.8782380">
        <ele>308.8</ele>
        <time>2018-09-15T13:16:48Z</time>
      </trkpt>
      <trkpt lat="43.4663030" lon="-5.8781880">
        <ele>308.4</ele>
        <time>2018-09-15T13:16:49Z</time>
      </trkpt>
      <trkpt lat="43.4662210" lon="-5.8781180">
        <ele>308.0</ele>
        <time>2018-09-15T13:16:50Z</time>
      </trkpt>
      <trkpt lat="43.4661470" lon="-5.8780380">
        <ele>307.4</ele>
        <time>2018-09-15T13:16:51Z</time>
      </trkpt>
      <trkpt lat="43.4660750" lon="-5.8779450">
        <ele>306.7</ele>
        <time>2018-09-15T13:16:52Z</time>
      </trkpt>
      <trkpt lat="43.4660080" lon="-5.8778400">
        <ele>306.0</ele>
        <time>2018-09-15T13:16:53Z</time>
      </trkpt>
      <trkpt lat="43.4659450" lon="-5.8777470">
        <ele>305.5</ele>
        <time>2018-09-15T13:16:54Z</time>
      </trkpt>
      <trkpt lat="43.4658800" lon="-5.8776430">
        <ele>305.2</ele>
        <time>2018-09-15T13:16:55Z</time>
      </trkpt>
      <trkpt lat="43.4658170" lon="-5.8775400">
        <ele>304.9</ele>
        <time>2018-09-15T13:16:56Z</time>
      </trkpt>
      <trkpt lat="43.4657560" lon="-5.8774500">
        <ele>304.6</ele>
        <time>2018-09-15T13:16:57Z</time>
      </trkpt>
      <trkpt lat="43.4656910" lon="-5.8773660">
        <ele>304.2</ele>
        <time>2018-09-15T13:16:58Z</time>
      </trkpt>
      <trkpt lat="43.4656420" lon="-5.8772700">
        <ele>303.6</ele>
        <time>2018-09-15T13:16:59Z</time>
      </trkpt>
      <trkpt lat="43.4655860" lon="-5.8771700">
        <ele>303.0</ele>
        <time>2018-09-15T13:17:00Z</time>
      </trkpt>
      <trkpt lat="43.4655430" lon="-5.8770530">
        <ele>302.5</ele>
        <time>2018-09-15T13:17:01Z</time>
      </trkpt>
      <trkpt lat="43.4655060" lon="-5.8769410">
        <ele>302.2</ele>
        <time>2018-09-15T13:17:02Z</time>
      </trkpt>
      <trkpt lat="43.4654790" lon="-5.8768300">
        <ele>302.2</ele>
        <time>2018-09-15T13:17:03Z</time>
      </trkpt>
      <trkpt lat="43.4654520" lon="-5.8767220">
        <ele>302.6</ele>
        <time>2018-09-15T13:17:04Z</time>
      </trkpt>
      <trkpt lat="43.4654240" lon="-5.8766250">
        <ele>303.0</ele>
        <time>2018-09-15T13:17:05Z</time>
      </trkpt>
      <trkpt lat="43.4653870" lon="-5.8765320">
        <ele>303.4</ele>
        <time>2018-09-15T13:17:06Z</time>
      </trkpt>
      <trkpt lat="43.4653210" lon="-5.8764410">
        <ele>303.9</ele>
        <time>2018-09-15T13:17:07Z</time>
      </trkpt>
      <trkpt lat="43.4652550" lon="-5.8763670">
        <ele>304.0</ele>
        <time>2018-09-15T13:17:08Z</time>
      </trkpt>
      <trkpt lat="43.4651970" lon="-5.8762870">
        <ele>304.0</ele>
        <time>2018-09-15T13:17:09Z</time>
      </trkpt>
      <trkpt lat="43.4651530" lon="-5.8761920">
        <ele>303.8</ele>
        <time>2018-09-15T13:17:10Z</time>
      </trkpt>
      <trkpt lat="43.4651260" lon="-5.8760770">
        <ele>303.2</ele>
        <time>2018-09-15T13:17:11Z</time>
      </trkpt>
      <trkpt lat="43.4651130" lon="-5.8759520">
        <ele>302.4</ele>
        <time>2018-09-15T13:17:12Z</time>
      </trkpt>
      <trkpt lat="43.4650960" lon="-5.8758300">
        <ele>300.9</ele>
        <time>2018-09-15T13:17:13Z</time>
      </trkpt>
      <trkpt lat="43.4650840" lon="-5.8757430">
        <ele>299.6</ele>
        <time>2018-09-15T13:17:14Z</time>
      </trkpt>
      <trkpt lat="43.4650710" lon="-5.8756570">
        <ele>299.0</ele>
        <time>2018-09-15T13:17:15Z</time>
      </trkpt>
      <trkpt lat="43.4650450" lon="-5.8754840">
        <ele>298.5</ele>
        <time>2018-09-15T13:17:16Z</time>
      </trkpt>
      <trkpt lat="43.4650300" lon="-5.8753640">
        <ele>298.3</ele>
        <time>2018-09-15T13:17:17Z</time>
      </trkpt>
      <trkpt lat="43.4650020" lon="-5.8752510">
        <ele>297.8</ele>
        <time>2018-09-15T13:17:18Z</time>
      </trkpt>
      <trkpt lat="43.4649730" lon="-5.8751200">
        <ele>297.1</ele>
        <time>2018-09-15T13:17:19Z</time>
      </trkpt>
      <trkpt lat="43.4649410" lon="-5.8749870">
        <ele>296.6</ele>
        <time>2018-09-15T13:17:20Z</time>
      </trkpt>
      <trkpt lat="43.4649110" lon="-5.8748550">
        <ele>296.3</ele>
        <time>2018-09-15T13:17:21Z</time>
      </trkpt>
      <trkpt lat="43.4649050" lon="-5.8747360">
        <ele>296.1</ele>
        <time>2018-09-15T13:17:22Z</time>
      </trkpt>
      <trkpt lat="43.4649070" lon="-5.8745990">
        <ele>295.9</ele>
        <time>2018-09-15T13:17:23Z</time>
      </trkpt>
      <trkpt lat="43.4649250" lon="-5.8744600">
        <ele>295.2</ele>
        <time>2018-09-15T13:17:24Z</time>
      </trkpt>
      <trkpt lat="43.4649550" lon="-5.8743380">
        <ele>294.6</ele>
        <time>2018-09-15T13:17:25Z</time>
      </trkpt>
      <trkpt lat="43.4649910" lon="-5.8742190">
        <ele>294.1</ele>
        <time>2018-09-15T13:17:26Z</time>
      </trkpt>
      <trkpt lat="43.4650340" lon="-5.8741080">
        <ele>293.6</ele>
        <time>2018-09-15T13:17:27Z</time>
      </trkpt>
      <trkpt lat="43.4650750" lon="-5.8739950">
        <ele>293.0</ele>
        <time>2018-09-15T13:17:28Z</time>
      </trkpt>
      <trkpt lat="43.4651080" lon="-5.8738850">
        <ele>292.5</ele>
        <time>2018-09-15T13:17:29Z</time>
      </trkpt>
      <trkpt lat="43.4651220" lon="-5.8737670">
        <ele>292.3</ele>
        <time>2018-09-15T13:17:30Z</time>
      </trkpt>
      <trkpt lat="43.4651230" lon="-5.8736600">
        <ele>292.1</ele>
        <time>2018-09-15T13:17:31Z</time>
      </trkpt>
      <trkpt lat="43.4651120" lon="-5.8735420">
        <ele>292.0</ele>
        <time>2018-09-15T13:17:32Z</time>
      </trkpt>
      <trkpt lat="43.4651050" lon="-5.8734370">
        <ele>292.0</ele>
        <time>2018-09-15T13:17:33Z</time>
      </trkpt>
      <trkpt lat="43.4650890" lon="-5.8733280">
        <ele>291.8</ele>
        <time>2018-09-15T13:17:34Z</time>
      </trkpt>
      <trkpt lat="43.4650710" lon="-5.8732080">
        <ele>291.5</ele>
        <time>2018-09-15T13:17:35Z</time>
      </trkpt>
      <trkpt lat="43.4650520" lon="-5.8730890">
        <ele>291.1</ele>
        <time>2018-09-15T13:17:36Z</time>
      </trkpt>
      <trkpt lat="43.4650310" lon="-5.8729810">
        <ele>290.5</ele>
        <time>2018-09-15T13:17:37Z</time>
      </trkpt>
      <trkpt lat="43.4650010" lon="-5.8728690">
        <ele>290.0</ele>
        <time>2018-09-15T13:17:38Z</time>
      </trkpt>
      <trkpt lat="43.4649600" lon="-5.8727820">
        <ele>289.6</ele>
        <time>2018-09-15T13:17:39Z</time>
      </trkpt>
      <trkpt lat="43.4649150" lon="-5.8726900">
        <ele>288.6</ele>
        <time>2018-09-15T13:17:40Z</time>
      </trkpt>
      <trkpt lat="43.4648660" lon="-5.8725980">
        <ele>288.2</ele>
        <time>2018-09-15T13:17:41Z</time>
      </trkpt>
      <trkpt lat="43.4648160" lon="-5.8724980">
        <ele>288.0</ele>
        <time>2018-09-15T13:17:42Z</time>
      </trkpt>
      <trkpt lat="43.4647650" lon="-5.8724070">
        <ele>287.8</ele>
        <time>2018-09-15T13:17:43Z</time>
      </trkpt>
      <trkpt lat="43.4647140" lon="-5.8723000">
        <ele>287.6</ele>
        <time>2018-09-15T13:17:44Z</time>
      </trkpt>
      <trkpt lat="43.4646630" lon="-5.8721960">
        <ele>287.5</ele>
        <time>2018-09-15T13:17:45Z</time>
      </trkpt>
      <trkpt lat="43.4646110" lon="-5.8720900">
        <ele>287.1</ele>
        <time>2018-09-15T13:17:46Z</time>
      </trkpt>
      <trkpt lat="43.4645610" lon="-5.8719800">
        <ele>286.7</ele>
        <time>2018-09-15T13:17:47Z</time>
      </trkpt>
      <trkpt lat="43.4644910" lon="-5.8718880">
        <ele>286.2</ele>
        <time>2018-09-15T13:17:48Z</time>
      </trkpt>
      <trkpt lat="43.4644060" lon="-5.8718200">
        <ele>285.7</ele>
        <time>2018-09-15T13:17:49Z</time>
      </trkpt>
      <trkpt lat="43.4643270" lon="-5.8717650">
        <ele>285.2</ele>
        <time>2018-09-15T13:17:50Z</time>
      </trkpt>
      <trkpt lat="43.4642380" lon="-5.8717050">
        <ele>284.7</ele>
        <time>2018-09-15T13:17:51Z</time>
      </trkpt>
      <trkpt lat="43.4641480" lon="-5.8716390">
        <ele>284.2</ele>
        <time>2018-09-15T13:17:52Z</time>
      </trkpt>
      <trkpt lat="43.4640530" lon="-5.8715740">
        <ele>283.7</ele>
        <time>2018-09-15T13:17:53Z</time>
      </trkpt>
      <trkpt lat="43.4639530" lon="-5.8715130">
        <ele>283.1</ele>
        <time>2018-09-15T13:17:54Z</time>
      </trkpt>
      <trkpt lat="43.4638560" lon="-5.8714560">
        <ele>282.6</ele>
        <time>2018-09-15T13:17:55Z</time>
      </trkpt>
      <trkpt lat="43.4637560" lon="-5.8713850">
        <ele>282.0</ele>
        <time>2018-09-15T13:17:56Z</time>
      </trkpt>
      <trkpt lat="43.4636510" lon="-5.8713160">
        <ele>281.3</ele>
        <time>2018-09-15T13:17:57Z</time>
      </trkpt>
      <trkpt lat="43.4635580" lon="-5.8712180">
        <ele>280.5</ele>
        <time>2018-09-15T13:17:58Z</time>
      </trkpt>
      <trkpt lat="43.4634690" lon="-5.8711070">
        <ele>279.6</ele>
        <time>2018-09-15T13:17:59Z</time>
      </trkpt>
      <trkpt lat="43.4633780" lon="-5.8709980">
        <ele>278.7</ele>
        <time>2018-09-15T13:18:00Z</time>
      </trkpt>
      <trkpt lat="43.4632820" lon="-5.8709000">
        <ele>277.8</ele>
        <time>2018-09-15T13:18:01Z</time>
      </trkpt>
      <trkpt lat="43.4631820" lon="-5.8708030">
        <ele>276.8</ele>
        <time>2018-09-15T13:18:02Z</time>
      </trkpt>
      <trkpt lat="43.4630710" lon="-5.8707080">
        <ele>275.8</ele>
        <time>2018-09-15T13:18:03Z</time>
      </trkpt>
      <trkpt lat="43.4629610" lon="-5.8706320">
        <ele>274.9</ele>
        <time>2018-09-15T13:18:04Z</time>
      </trkpt>
      <trkpt lat="43.4628550" lon="-5.8705560">
        <ele>274.0</ele>
        <time>2018-09-15T13:18:05Z</time>
      </trkpt>
      <trkpt lat="43.4627490" lon="-5.8704840">
        <ele>273.1</ele>
        <time>2018-09-15T13:18:06Z</time>
      </trkpt>
      <trkpt lat="43.4626550" lon="-5.8704130">
        <ele>272.3</ele>
        <time>2018-09-15T13:18:07Z</time>
      </trkpt>
      <trkpt lat="43.4625560" lon="-5.8703420">
        <ele>271.5</ele>
        <time>2018-09-15T13:18:08Z</time>
      </trkpt>
      <trkpt lat="43.4624480" lon="-5.8702780">
        <ele>270.6</ele>
        <time>2018-09-15T13:18:09Z</time>
      </trkpt>
      <trkpt lat="43.4623430" lon="-5.8702070">
        <ele>269.7</ele>
        <time>2018-09-15T13:18:10Z</time>
      </trkpt>
      <trkpt lat="43.4622520" lon="-5.8701750">
        <ele>268.9</ele>
        <time>2018-09-15T13:18:11Z</time>
      </trkpt>
      <trkpt lat="43.4621470" lon="-5.8701520">
        <ele>268.1</ele>
        <time>2018-09-15T13:18:12Z</time>
      </trkpt>
      <trkpt lat="43.4620410" lon="-5.8701440">
        <ele>267.2</ele>
        <time>2018-09-15T13:18:13Z</time>
      </trkpt>
      <trkpt lat="43.4619420" lon="-5.8701350">
        <ele>266.6</ele>
        <time>2018-09-15T13:18:14Z</time>
      </trkpt>
      <trkpt lat="43.4618360" lon="-5.8701220">
        <ele>265.9</ele>
        <time>2018-09-15T13:18:15Z</time>
      </trkpt>
      <trkpt lat="43.4617330" lon="-5.8701120">
        <ele>265.2</ele>
        <time>2018-09-15T13:18:16Z</time>
      </trkpt>
      <trkpt lat="43.4616310" lon="-5.8701000">
        <ele>264.5</ele>
        <time>2018-09-15T13:18:17Z</time>
      </trkpt>
      <trkpt lat="43.4615460" lon="-5.8700810">
        <ele>263.9</ele>
        <time>2018-09-15T13:18:18Z</time>
      </trkpt>
      <trkpt lat="43.4614650" lon="-5.8700460">
        <ele>263.3</ele>
        <time>2018-09-15T13:18:19Z</time>
      </trkpt>
      <trkpt lat="43.4613930" lon="-5.8699900">
        <ele>262.7</ele>
        <time>2018-09-15T13:18:20Z</time>
      </trkpt>
      <trkpt lat="43.4613330" lon="-5.8699080">
        <ele>262.1</ele>
        <time>2018-09-15T13:18:21Z</time>
      </trkpt>
      <trkpt lat="43.4612860" lon="-5.8698060">
        <ele>261.4</ele>
        <time>2018-09-15T13:18:22Z</time>
      </trkpt>
      <trkpt lat="43.4612430" lon="-5.8696980">
        <ele>260.7</ele>
        <time>2018-09-15T13:18:23Z</time>
      </trkpt>
      <trkpt lat="43.4612020" lon="-5.8695820">
        <ele>260.0</ele>
        <time>2018-09-15T13:18:24Z</time>
      </trkpt>
      <trkpt lat="43.4611570" lon="-5.8694700">
        <ele>259.3</ele>
        <time>2018-09-15T13:18:25Z</time>
      </trkpt>
      <trkpt lat="43.4611150" lon="-5.8693540">
        <ele>258.5</ele>
        <time>2018-09-15T13:18:26Z</time>
      </trkpt>
      <trkpt lat="43.4610770" lon="-5.8692390">
        <ele>257.8</ele>
        <time>2018-09-15T13:18:27Z</time>
      </trkpt>
      <trkpt lat="43.4610460" lon="-5.8691220">
        <ele>257.2</ele>
        <time>2018-09-15T13:18:28Z</time>
      </trkpt>
      <trkpt lat="43.4610120" lon="-5.8690060">
        <ele>256.6</ele>
        <time>2018-09-15T13:18:29Z</time>
      </trkpt>
      <trkpt lat="43.4609810" lon="-5.8688880">
        <ele>256.0</ele>
        <time>2018-09-15T13:18:30Z</time>
      </trkpt>
      <trkpt lat="43.4609410" lon="-5.8687730">
        <ele>255.5</ele>
        <time>2018-09-15T13:18:31Z</time>
      </trkpt>
      <trkpt lat="43.4608980" lon="-5.8686640">
        <ele>255.0</ele>
        <time>2018-09-15T13:18:32Z</time>
      </trkpt>
      <trkpt lat="43.4608470" lon="-5.8685550">
        <ele>254.5</ele>
        <time>2018-09-15T13:18:33Z</time>
      </trkpt>
      <trkpt lat="43.4607860" lon="-5.8684630">
        <ele>254.1</ele>
        <time>2018-09-15T13:18:34Z</time>
      </trkpt>
      <trkpt lat="43.4607210" lon="-5.8683750">
        <ele>253.7</ele>
        <time>2018-09-15T13:18:35Z</time>
      </trkpt>
      <trkpt lat="43.4606540" lon="-5.8682860">
        <ele>253.2</ele>
        <time>2018-09-15T13:18:36Z</time>
      </trkpt>
      <trkpt lat="43.4605930" lon="-5.8682080">
        <ele>252.9</ele>
        <time>2018-09-15T13:18:37Z</time>
      </trkpt>
      <trkpt lat="43.4605300" lon="-5.8681330">
        <ele>252.5</ele>
        <time>2018-09-15T13:18:38Z</time>
      </trkpt>
      <trkpt lat="43.4604630" lon="-5.8680500">
        <ele>252.1</ele>
        <time>2018-09-15T13:18:39Z</time>
      </trkpt>
      <trkpt lat="43.4603990" lon="-5.8679690">
        <ele>251.7</ele>
        <time>2018-09-15T13:18:40Z</time>
      </trkpt>
      <trkpt lat="43.4603270" lon="-5.8678880">
        <ele>251.3</ele>
        <time>2018-09-15T13:18:41Z</time>
      </trkpt>
      <trkpt lat="43.4602580" lon="-5.8678110">
        <ele>250.8</ele>
        <time>2018-09-15T13:18:42Z</time>
      </trkpt>
      <trkpt lat="43.4601850" lon="-5.8677420">
        <ele>250.4</ele>
        <time>2018-09-15T13:18:43Z</time>
      </trkpt>
      <trkpt lat="43.4601080" lon="-5.8676700">
        <ele>250.0</ele>
        <time>2018-09-15T13:18:44Z</time>
      </trkpt>
      <trkpt lat="43.4600340" lon="-5.8675890">
        <ele>249.6</ele>
        <time>2018-09-15T13:18:45Z</time>
      </trkpt>
      <trkpt lat="43.4599760" lon="-5.8675020">
        <ele>249.2</ele>
        <time>2018-09-15T13:18:46Z</time>
      </trkpt>
      <trkpt lat="43.4599180" lon="-5.8674080">
        <ele>248.8</ele>
        <time>2018-09-15T13:18:47Z</time>
      </trkpt>
      <trkpt lat="43.4598660" lon="-5.8673130">
        <ele>248.4</ele>
        <time>2018-09-15T13:18:48Z</time>
      </trkpt>
      <trkpt lat="43.4598130" lon="-5.8672110">
        <ele>247.9</ele>
        <time>2018-09-15T13:18:49Z</time>
      </trkpt>
      <trkpt lat="43.4597380" lon="-5.8671340">
        <ele>247.5</ele>
        <time>2018-09-15T13:18:50Z</time>
      </trkpt>
      <trkpt lat="43.4596650" lon="-5.8670510">
        <ele>247.0</ele>
        <time>2018-09-15T13:18:51Z</time>
      </trkpt>
      <trkpt lat="43.4596020" lon="-5.8669660">
        <ele>246.5</ele>
        <time>2018-09-15T13:18:52Z</time>
      </trkpt>
      <trkpt lat="43.4595380" lon="-5.8668700">
        <ele>246.0</ele>
        <time>2018-09-15T13:18:53Z</time>
      </trkpt>
      <trkpt lat="43.4594780" lon="-5.8667750">
        <ele>245.5</ele>
        <time>2018-09-15T13:18:54Z</time>
      </trkpt>
      <trkpt lat="43.4594240" lon="-5.8666710">
        <ele>245.0</ele>
        <time>2018-09-15T13:18:55Z</time>
      </trkpt>
      <trkpt lat="43.4593730" lon="-5.8665620">
        <ele>244.5</ele>
        <time>2018-09-15T13:18:56Z</time>
      </trkpt>
      <trkpt lat="43.4593290" lon="-5.8664550">
        <ele>244.0</ele>
        <time>2018-09-15T13:18:57Z</time>
      </trkpt>
      <trkpt lat="43.4592840" lon="-5.8663520">
        <ele>243.5</ele>
        <time>2018-09-15T13:18:58Z</time>
      </trkpt>
      <trkpt lat="43.4592210" lon="-5.8662560">
        <ele>243.0</ele>
        <time>2018-09-15T13:18:59Z</time>
      </trkpt>
      <trkpt lat="43.4591620" lon="-5.8661670">
        <ele>242.5</ele>
        <time>2018-09-15T13:19:00Z</time>
      </trkpt>
      <trkpt lat="43.4590960" lon="-5.8660730">
        <ele>242.0</ele>
        <time>2018-09-15T13:19:01Z</time>
      </trkpt>
      <trkpt lat="43.4590280" lon="-5.8659930">
        <ele>241.5</ele>
        <time>2018-09-15T13:19:02Z</time>
      </trkpt>
      <trkpt lat="43.4589610" lon="-5.8659100">
        <ele>241.0</ele>
        <time>2018-09-15T13:19:03Z</time>
      </trkpt>
      <trkpt lat="43.4588900" lon="-5.8658230">
        <ele>240.5</ele>
        <time>2018-09-15T13:19:04Z</time>
      </trkpt>
      <trkpt lat="43.4588180" lon="-5.8657360">
        <ele>240.0</ele>
        <time>2018-09-15T13:19:05Z</time>
      </trkpt>
      <trkpt lat="43.4587420" lon="-5.8656400">
        <ele>239.4</ele>
        <time>2018-09-15T13:19:06Z</time>
      </trkpt>
      <trkpt lat="43.4586710" lon="-5.8655570">
        <ele>239.0</ele>
        <time>2018-09-15T13:19:07Z</time>
      </trkpt>
      <trkpt lat="43.4585980" lon="-5.8654540">
        <ele>238.5</ele>
        <time>2018-09-15T13:19:08Z</time>
      </trkpt>
      <trkpt lat="43.4585260" lon="-5.8653580">
        <ele>238.0</ele>
        <time>2018-09-15T13:19:09Z</time>
      </trkpt>
      <trkpt lat="43.4584690" lon="-5.8652530">
        <ele>237.5</ele>
        <time>2018-09-15T13:19:10Z</time>
      </trkpt>
      <trkpt lat="43.4584120" lon="-5.8651290">
        <ele>237.0</ele>
        <time>2018-09-15T13:19:11Z</time>
      </trkpt>
      <trkpt lat="43.4583540" lon="-5.8650010">
        <ele>236.4</ele>
        <time>2018-09-15T13:19:12Z</time>
      </trkpt>
      <trkpt lat="43.4582940" lon="-5.8648750">
        <ele>235.8</ele>
        <time>2018-09-15T13:19:13Z</time>
      </trkpt>
      <trkpt lat="43.4582310" lon="-5.8647730">
        <ele>235.3</ele>
        <time>2018-09-15T13:19:14Z</time>
      </trkpt>
      <trkpt lat="43.4581620" lon="-5.8646600">
        <ele>234.7</ele>
        <time>2018-09-15T13:19:15Z</time>
      </trkpt>
      <trkpt lat="43.4580900" lon="-5.8645560">
        <ele>234.1</ele>
        <time>2018-09-15T13:19:16Z</time>
      </trkpt>
      <trkpt lat="43.4580160" lon="-5.8644460">
        <ele>233.4</ele>
        <time>2018-09-15T13:19:17Z</time>
      </trkpt>
      <trkpt lat="43.4579480" lon="-5.8643320">
        <ele>232.6</ele>
        <time>2018-09-15T13:19:18Z</time>
      </trkpt>
      <trkpt lat="43.4578840" lon="-5.8642250">
        <ele>231.9</ele>
        <time>2018-09-15T13:19:19Z</time>
      </trkpt>
      <trkpt lat="43.4578270" lon="-5.8641280">
        <ele>231.3</ele>
        <time>2018-09-15T13:19:20Z</time>
      </trkpt>
      <trkpt lat="43.4577630" lon="-5.8640340">
        <ele>230.6</ele>
        <time>2018-09-15T13:19:21Z</time>
      </trkpt>
      <trkpt lat="43.4577010" lon="-5.8639370">
        <ele>230.0</ele>
        <time>2018-09-15T13:19:22Z</time>
      </trkpt>
      <trkpt lat="43.4576380" lon="-5.8638470">
        <ele>229.4</ele>
        <time>2018-09-15T13:19:23Z</time>
      </trkpt>
      <trkpt lat="43.4575770" lon="-5.8637530">
        <ele>228.8</ele>
        <time>2018-09-15T13:19:24Z</time>
      </trkpt>
      <trkpt lat="43.4575090" lon="-5.8636630">
        <ele>228.2</ele>
        <time>2018-09-15T13:19:25Z</time>
      </trkpt>
      <trkpt lat="43.4574400" lon="-5.8635760">
        <ele>227.7</ele>
        <time>2018-09-15T13:19:26Z</time>
      </trkpt>
      <trkpt lat="43.4573700" lon="-5.8634750">
        <ele>227.1</ele>
        <time>2018-09-15T13:19:27Z</time>
      </trkpt>
      <trkpt lat="43.4573070" lon="-5.8633760">
        <ele>226.6</ele>
        <time>2018-09-15T13:19:28Z</time>
      </trkpt>
      <trkpt lat="43.4572490" lon="-5.8632770">
        <ele>226.0</ele>
        <time>2018-09-15T13:19:29Z</time>
      </trkpt>
      <trkpt lat="43.4571820" lon="-5.8631670">
        <ele>225.4</ele>
        <time>2018-09-15T13:19:30Z</time>
      </trkpt>
      <trkpt lat="43.4571100" lon="-5.8630630">
        <ele>224.8</ele>
        <time>2018-09-15T13:19:31Z</time>
      </trkpt>
      <trkpt lat="43.4570620" lon="-5.8629500">
        <ele>224.3</ele>
        <time>2018-09-15T13:19:32Z</time>
      </trkpt>
      <trkpt lat="43.4570080" lon="-5.8628430">
        <ele>223.7</ele>
        <time>2018-09-15T13:19:33Z</time>
      </trkpt>
      <trkpt lat="43.4569540" lon="-5.8627340">
        <ele>223.2</ele>
        <time>2018-09-15T13:19:34Z</time>
      </trkpt>
      <trkpt lat="43.4569000" lon="-5.8626330">
        <ele>222.6</ele>
        <time>2018-09-15T13:19:35Z</time>
      </trkpt>
      <trkpt lat="43.4568430" lon="-5.8625300">
        <ele>222.0</ele>
        <time>2018-09-15T13:19:36Z</time>
      </trkpt>
      <trkpt lat="43.4567860" lon="-5.8624410">
        <ele>221.5</ele>
        <time>2018-09-15T13:19:37Z</time>
      </trkpt>
      <trkpt lat="43.4567280" lon="-5.8623520">
        <ele>221.0</ele>
        <time>2018-09-15T13:19:38Z</time>
      </trkpt>
      <trkpt lat="43.4566640" lon="-5.8622630">
        <ele>220.5</ele>
        <time>2018-09-15T13:19:39Z</time>
      </trkpt>
      <trkpt lat="43.4565910" lon="-5.8621920">
        <ele>220.1</ele>
        <time>2018-09-15T13:19:40Z</time>
      </trkpt>
      <trkpt lat="43.4565200" lon="-5.8621160">
        <ele>219.7</ele>
        <time>2018-09-15T13:19:41Z</time>
      </trkpt>
      <trkpt lat="43.4564460" lon="-5.8620320">
        <ele>219.4</ele>
        <time>2018-09-15T13:19:42Z</time>
      </trkpt>
      <trkpt lat="43.4563750" lon="-5.8619550">
        <ele>219.1</ele>
        <time>2018-09-15T13:19:43Z</time>
      </trkpt>
      <trkpt lat="43.4563020" lon="-5.8618760">
        <ele>218.7</ele>
        <time>2018-09-15T13:19:44Z</time>
      </trkpt>
      <trkpt lat="43.4562320" lon="-5.8618000">
        <ele>218.4</ele>
        <time>2018-09-15T13:19:45Z</time>
      </trkpt>
      <trkpt lat="43.4561550" lon="-5.8617240">
        <ele>218.0</ele>
        <time>2018-09-15T13:19:46Z</time>
      </trkpt>
      <trkpt lat="43.4560800" lon="-5.8616570">
        <ele>217.7</ele>
        <time>2018-09-15T13:19:47Z</time>
      </trkpt>
      <trkpt lat="43.4559990" lon="-5.8615980">
        <ele>217.4</ele>
        <time>2018-09-15T13:19:48Z</time>
      </trkpt>
      <trkpt lat="43.4559140" lon="-5.8615500">
        <ele>217.1</ele>
        <time>2018-09-15T13:19:49Z</time>
      </trkpt>
      <trkpt lat="43.4558290" lon="-5.8615150">
        <ele>216.7</ele>
        <time>2018-09-15T13:19:50Z</time>
      </trkpt>
      <trkpt lat="43.4557360" lon="-5.8614850">
        <ele>216.3</ele>
        <time>2018-09-15T13:19:51Z</time>
      </trkpt>
      <trkpt lat="43.4556440" lon="-5.8614590">
        <ele>216.0</ele>
        <time>2018-09-15T13:19:52Z</time>
      </trkpt>
      <trkpt lat="43.4555520" lon="-5.8614300">
        <ele>215.8</ele>
        <time>2018-09-15T13:19:53Z</time>
      </trkpt>
      <trkpt lat="43.4554610" lon="-5.8613980">
        <ele>215.6</ele>
        <time>2018-09-15T13:19:54Z</time>
      </trkpt>
      <trkpt lat="43.4553700" lon="-5.8613720">
        <ele>215.4</ele>
        <time>2018-09-15T13:19:55Z</time>
      </trkpt>
      <trkpt lat="43.4552820" lon="-5.8613390">
        <ele>215.1</ele>
        <time>2018-09-15T13:19:56Z</time>
      </trkpt>
      <trkpt lat="43.4551900" lon="-5.8613080">
        <ele>214.7</ele>
        <time>2018-09-15T13:19:57Z</time>
      </trkpt>
      <trkpt lat="43.4551040" lon="-5.8612590">
        <ele>214.3</ele>
        <time>2018-09-15T13:19:58Z</time>
      </trkpt>
      <trkpt lat="43.4550170" lon="-5.8612000">
        <ele>213.9</ele>
        <time>2018-09-15T13:19:59Z</time>
      </trkpt>
      <trkpt lat="43.4549350" lon="-5.8611250">
        <ele>213.4</ele>
        <time>2018-09-15T13:20:00Z</time>
      </trkpt>
      <trkpt lat="43.4548640" lon="-5.8610390">
        <ele>213.0</ele>
        <time>2018-09-15T13:20:01Z</time>
      </trkpt>
      <trkpt lat="43.4547980" lon="-5.8609420">
        <ele>212.5</ele>
        <time>2018-09-15T13:20:02Z</time>
      </trkpt>
      <trkpt lat="43.4547390" lon="-5.8608300">
        <ele>212.0</ele>
        <time>2018-09-15T13:20:03Z</time>
      </trkpt>
      <trkpt lat="43.4546900" lon="-5.8607100">
        <ele>211.9</ele>
        <time>2018-09-15T13:20:04Z</time>
      </trkpt>
      <trkpt lat="43.4546580" lon="-5.8605850">
        <ele>211.7</ele>
        <time>2018-09-15T13:20:05Z</time>
      </trkpt>
      <trkpt lat="43.4546310" lon="-5.8604590">
        <ele>211.6</ele>
        <time>2018-09-15T13:20:06Z</time>
      </trkpt>
      <trkpt lat="43.4546140" lon="-5.8603290">
        <ele>211.3</ele>
        <time>2018-09-15T13:20:07Z</time>
      </trkpt>
      <trkpt lat="43.4545930" lon="-5.8601960">
        <ele>211.1</ele>
        <time>2018-09-15T13:20:08Z</time>
      </trkpt>
      <trkpt lat="43.4545730" lon="-5.8600710">
        <ele>210.8</ele>
        <time>2018-09-15T13:20:09Z</time>
      </trkpt>
      <trkpt lat="43.4545580" lon="-5.8599470">
        <ele>210.4</ele>
        <time>2018-09-15T13:20:10Z</time>
      </trkpt>
      <trkpt lat="43.4545460" lon="-5.8598210">
        <ele>210.1</ele>
        <time>2018-09-15T13:20:11Z</time>
      </trkpt>
      <trkpt lat="43.4545340" lon="-5.8596950">
        <ele>209.8</ele>
        <time>2018-09-15T13:20:12Z</time>
      </trkpt>
      <trkpt lat="43.4545170" lon="-5.8595770">
        <ele>209.7</ele>
        <time>2018-09-15T13:20:13Z</time>
      </trkpt>
      <trkpt lat="43.4545010" lon="-5.8594590">
        <ele>209.6</ele>
        <time>2018-09-15T13:20:14Z</time>
      </trkpt>
      <trkpt lat="43.4544840" lon="-5.8593450">
        <ele>209.6</ele>
        <time>2018-09-15T13:20:15Z</time>
      </trkpt>
      <trkpt lat="43.4544700" lon="-5.8592350">
        <ele>209.6</ele>
        <time>2018-09-15T13:20:16Z</time>
      </trkpt>
      <trkpt lat="43.4544560" lon="-5.8591210">
        <ele>209.7</ele>
        <time>2018-09-15T13:20:17Z</time>
      </trkpt>
      <trkpt lat="43.4544450" lon="-5.8590080">
        <ele>209.7</ele>
        <time>2018-09-15T13:20:18Z</time>
      </trkpt>
      <trkpt lat="43.4544340" lon="-5.8588960">
        <ele>209.7</ele>
        <time>2018-09-15T13:20:19Z</time>
      </trkpt>
      <trkpt lat="43.4544230" lon="-5.8587900">
        <ele>209.7</ele>
        <time>2018-09-15T13:20:20Z</time>
      </trkpt>
      <trkpt lat="43.4544150" lon="-5.8586800">
        <ele>209.7</ele>
        <time>2018-09-15T13:20:21Z</time>
      </trkpt>
      <trkpt lat="43.4544100" lon="-5.8585680">
        <ele>209.6</ele>
        <time>2018-09-15T13:20:22Z</time>
      </trkpt>
      <trkpt lat="43.4544070" lon="-5.8584570">
        <ele>209.6</ele>
        <time>2018-09-15T13:20:23Z</time>
      </trkpt>
      <trkpt lat="43.4544140" lon="-5.8583470">
        <ele>209.6</ele>
        <time>2018-09-15T13:20:24Z</time>
      </trkpt>
      <trkpt lat="43.4544200" lon="-5.8582370">
        <ele>209.5</ele>
        <time>2018-09-15T13:20:25Z</time>
      </trkpt>
      <trkpt lat="43.4544330" lon="-5.8581260">
        <ele>209.4</ele>
        <time>2018-09-15T13:20:26Z</time>
      </trkpt>
      <trkpt lat="43.4544430" lon="-5.8580250">
        <ele>209.3</ele>
        <time>2018-09-15T13:20:27Z</time>
      </trkpt>
      <trkpt lat="43.4544490" lon="-5.8579100">
        <ele>209.2</ele>
        <time>2018-09-15T13:20:28Z</time>
      </trkpt>
      <trkpt lat="43.4544570" lon="-5.8577930">
        <ele>209.1</ele>
        <time>2018-09-15T13:20:29Z</time>
      </trkpt>
      <trkpt lat="43.4544620" lon="-5.8576770">
        <ele>209.0</ele>
        <time>2018-09-15T13:20:30Z</time>
      </trkpt>
      <trkpt lat="43.4544650" lon="-5.8575560">
        <ele>209.0</ele>
        <time>2018-09-15T13:20:31Z</time>
      </trkpt>
      <trkpt lat="43.4544570" lon="-5.8574430">
        <ele>208.9</ele>
        <time>2018-09-15T13:20:32Z</time>
      </trkpt>
      <trkpt lat="43.4544420" lon="-5.8573300">
        <ele>208.7</ele>
        <time>2018-09-15T13:20:33Z</time>
      </trkpt>
      <trkpt lat="43.4544180" lon="-5.8572190">
        <ele>208.5</ele>
        <time>2018-09-15T13:20:34Z</time>
      </trkpt>
      <trkpt lat="43.4543860" lon="-5.8571150">
        <ele>208.3</ele>
        <time>2018-09-15T13:20:35Z</time>
      </trkpt>
      <trkpt lat="43.4543530" lon="-5.8570130">
        <ele>208.1</ele>
        <time>2018-09-15T13:20:36Z</time>
      </trkpt>
      <trkpt lat="43.4543230" lon="-5.8569050">
        <ele>208.1</ele>
        <time>2018-09-15T13:20:37Z</time>
      </trkpt>
      <trkpt lat="43.4542810" lon="-5.8568110">
        <ele>208.0</ele>
        <time>2018-09-15T13:20:38Z</time>
      </trkpt>
      <trkpt lat="43.4542400" lon="-5.8567190">
        <ele>207.9</ele>
        <time>2018-09-15T13:20:39Z</time>
      </trkpt>
      <trkpt lat="43.4541930" lon="-5.8566300">
        <ele>207.8</ele>
        <time>2018-09-15T13:20:40Z</time>
      </trkpt>
      <trkpt lat="43.4541510" lon="-5.8565410">
        <ele>207.7</ele>
        <time>2018-09-15T13:20:41Z</time>
      </trkpt>
      <trkpt lat="43.4541110" lon="-5.8564570">
        <ele>207.6</ele>
        <time>2018-09-15T13:20:42Z</time>
      </trkpt>
      <trkpt lat="43.4540700" lon="-5.8563720">
        <ele>207.5</ele>
        <time>2018-09-15T13:20:43Z</time>
      </trkpt>
      <trkpt lat="43.4540220" lon="-5.8562930">
        <ele>207.4</ele>
        <time>2018-09-15T13:20:44Z</time>
      </trkpt>
      <trkpt lat="43.4539770" lon="-5.8562110">
        <ele>207.4</ele>
        <time>2018-09-15T13:20:45Z</time>
      </trkpt>
      <trkpt lat="43.4539340" lon="-5.8561320">
        <ele>207.4</ele>
        <time>2018-09-15T13:20:46Z</time>
      </trkpt>
      <trkpt lat="43.4538910" lon="-5.8560520">
        <ele>207.5</ele>
        <time>2018-09-15T13:20:47Z</time>
      </trkpt>
      <trkpt lat="43.4538380" lon="-5.8559750">
        <ele>207.5</ele>
        <time>2018-09-15T13:20:48Z</time>
      </trkpt>
      <trkpt lat="43.4537870" lon="-5.8558990">
        <ele>207.5</ele>
        <time>2018-09-15T13:20:49Z</time>
      </trkpt>
      <trkpt lat="43.4537290" lon="-5.8558300">
        <ele>207.5</ele>
        <time>2018-09-15T13:20:50Z</time>
      </trkpt>
      <trkpt lat="43.4536660" lon="-5.8557570">
        <ele>207.5</ele>
        <time>2018-09-15T13:20:51Z</time>
      </trkpt>
      <trkpt lat="43.4536040" lon="-5.8556850">
        <ele>207.5</ele>
        <time>2018-09-15T13:20:52Z</time>
      </trkpt>
      <trkpt lat="43.4535390" lon="-5.8556130">
        <ele>207.5</ele>
        <time>2018-09-15T13:20:53Z</time>
      </trkpt>
      <trkpt lat="43.4534740" lon="-5.8555470">
        <ele>207.5</ele>
        <time>2018-09-15T13:20:54Z</time>
      </trkpt>
      <trkpt lat="43.4534100" lon="-5.8554770">
        <ele>207.5</ele>
        <time>2018-09-15T13:20:55Z</time>
      </trkpt>
      <trkpt lat="43.4533410" lon="-5.8554190">
        <ele>207.4</ele>
        <time>2018-09-15T13:20:56Z</time>
      </trkpt>
      <trkpt lat="43.4532740" lon="-5.8553450">
        <ele>207.3</ele>
        <time>2018-09-15T13:20:57Z</time>
      </trkpt>
      <trkpt lat="43.4532080" lon="-5.8552810">
        <ele>207.2</ele>
        <time>2018-09-15T13:20:58Z</time>
      </trkpt>
      <trkpt lat="43.4531390" lon="-5.8552160">
        <ele>207.1</ele>
        <time>2018-09-15T13:20:59Z</time>
      </trkpt>
      <trkpt lat="43.4530720" lon="-5.8551550">
        <ele>207.1</ele>
        <time>2018-09-15T13:21:00Z</time>
      </trkpt>
      <trkpt lat="43.4530050" lon="-5.8550880">
        <ele>207.0</ele>
        <time>2018-09-15T13:21:01Z</time>
      </trkpt>
      <trkpt lat="43.4529360" lon="-5.8550240">
        <ele>206.4</ele>
        <time>2018-09-15T13:21:02Z</time>
      </trkpt>
      <trkpt lat="43.4528680" lon="-5.8549560">
        <ele>203.1</ele>
        <time>2018-09-15T13:21:03Z</time>
      </trkpt>
      <trkpt lat="43.4527960" lon="-5.8548850">
        <ele>199.6</ele>
        <time>2018-09-15T13:21:04Z</time>
      </trkpt>
      <trkpt lat="43.4527190" lon="-5.8548220">
        <ele>196.0</ele>
        <time>2018-09-15T13:21:05Z</time>
      </trkpt>
      <trkpt lat="43.4526420" lon="-5.8547570">
        <ele>192.5</ele>
        <time>2018-09-15T13:21:06Z</time>
      </trkpt>
      <trkpt lat="43.4525610" lon="-5.8546930">
        <ele>189.6</ele>
        <time>2018-09-15T13:21:07Z</time>
      </trkpt>
      <trkpt lat="43.4524710" lon="-5.8546360">
        <ele>188.7</ele>
        <time>2018-09-15T13:21:08Z</time>
      </trkpt>
      <trkpt lat="43.4523780" lon="-5.8545950">
        <ele>187.8</ele>
        <time>2018-09-15T13:21:09Z</time>
      </trkpt>
      <trkpt lat="43.4522870" lon="-5.8545500">
        <ele>186.9</ele>
        <time>2018-09-15T13:21:10Z</time>
      </trkpt>
      <trkpt lat="43.4521920" lon="-5.8545150">
        <ele>185.9</ele>
        <time>2018-09-15T13:21:11Z</time>
      </trkpt>
      <trkpt lat="43.4520950" lon="-5.8544950">
        <ele>185.0</ele>
        <time>2018-09-15T13:21:12Z</time>
      </trkpt>
      <trkpt lat="43.4519980" lon="-5.8544880">
        <ele>185.0</ele>
        <time>2018-09-15T13:21:13Z</time>
      </trkpt>
      <trkpt lat="43.4519040" lon="-5.8544900">
        <ele>184.7</ele>
        <time>2018-09-15T13:21:14Z</time>
      </trkpt>
      <trkpt lat="43.4518110" lon="-5.8544930">
        <ele>184.5</ele>
        <time>2018-09-15T13:21:15Z</time>
      </trkpt>
      <trkpt lat="43.4517160" lon="-5.8544970">
        <ele>184.2</ele>
        <time>2018-09-15T13:21:16Z</time>
      </trkpt>
      <trkpt lat="43.4516240" lon="-5.8545030">
        <ele>184.0</ele>
        <time>2018-09-15T13:21:17Z</time>
      </trkpt>
      <trkpt lat="43.4515320" lon="-5.8545120">
        <ele>183.7</ele>
        <time>2018-09-15T13:21:18Z</time>
      </trkpt>
      <trkpt lat="43.4514430" lon="-5.8545260">
        <ele>183.3</ele>
        <time>2018-09-15T13:21:19Z</time>
      </trkpt>
      <trkpt lat="43.4513550" lon="-5.8545370">
        <ele>183.0</ele>
        <time>2018-09-15T13:21:20Z</time>
      </trkpt>
      <trkpt lat="43.4512680" lon="-5.8545360">
        <ele>182.8</ele>
        <time>2018-09-15T13:21:21Z</time>
      </trkpt>
      <trkpt lat="43.4511820" lon="-5.8545470">
        <ele>182.7</ele>
        <time>2018-09-15T13:21:22Z</time>
      </trkpt>
      <trkpt lat="43.4510950" lon="-5.8545580">
        <ele>182.6</ele>
        <time>2018-09-15T13:21:23Z</time>
      </trkpt>
      <trkpt lat="43.4510080" lon="-5.8545650">
        <ele>182.5</ele>
        <time>2018-09-15T13:21:24Z</time>
      </trkpt>
      <trkpt lat="43.4509220" lon="-5.8545710">
        <ele>182.4</ele>
        <time>2018-09-15T13:21:25Z</time>
      </trkpt>
      <trkpt lat="43.4508350" lon="-5.8545770">
        <ele>182.3</ele>
        <time>2018-09-15T13:21:26Z</time>
      </trkpt>
      <trkpt lat="43.4507480" lon="-5.8545820">
        <ele>182.2</ele>
        <time>2018-09-15T13:21:27Z</time>
      </trkpt>
      <trkpt lat="43.4506590" lon="-5.8545860">
        <ele>182.2</ele>
        <time>2018-09-15T13:21:28Z</time>
      </trkpt>
      <trkpt lat="43.4505710" lon="-5.8545930">
        <ele>182.1</ele>
        <time>2018-09-15T13:21:29Z</time>
      </trkpt>
      <trkpt lat="43.4504840" lon="-5.8545980">
        <ele>182.0</ele>
        <time>2018-09-15T13:21:30Z</time>
      </trkpt>
      <trkpt lat="43.4504000" lon="-5.8546020">
        <ele>182.0</ele>
        <time>2018-09-15T13:21:31Z</time>
      </trkpt>
      <trkpt lat="43.4503150" lon="-5.8546080">
        <ele>182.1</ele>
        <time>2018-09-15T13:21:32Z</time>
      </trkpt>
      <trkpt lat="43.4502330" lon="-5.8546100">
        <ele>182.1</ele>
        <time>2018-09-15T13:21:33Z</time>
      </trkpt>
      <trkpt lat="43.4501510" lon="-5.8546150">
        <ele>182.0</ele>
        <time>2018-09-15T13:21:34Z</time>
      </trkpt>
      <trkpt lat="43.4500700" lon="-5.8546170">
        <ele>182.0</ele>
        <time>2018-09-15T13:21:35Z</time>
      </trkpt>
      <trkpt lat="43.4499930" lon="-5.8546230">
        <ele>182.0</ele>
        <time>2018-09-15T13:21:36Z</time>
      </trkpt>
      <trkpt lat="43.4499130" lon="-5.8546300">
        <ele>182.0</ele>
        <time>2018-09-15T13:21:37Z</time>
      </trkpt>
      <trkpt lat="43.4498350" lon="-5.8546330">
        <ele>182.0</ele>
        <time>2018-09-15T13:21:38Z</time>
      </trkpt>
      <trkpt lat="43.4497550" lon="-5.8546350">
        <ele>182.0</ele>
        <time>2018-09-15T13:21:39Z</time>
      </trkpt>
      <trkpt lat="43.4496760" lon="-5.8546380">
        <ele>182.0</ele>
        <time>2018-09-15T13:21:40Z</time>
      </trkpt>
      <trkpt lat="43.4495970" lon="-5.8546430">
        <ele>182.0</ele>
        <time>2018-09-15T13:21:41Z</time>
      </trkpt>
      <trkpt lat="43.4495210" lon="-5.8546510">
        <ele>182.0</ele>
        <time>2018-09-15T13:21:42Z</time>
      </trkpt>
      <trkpt lat="43.4494420" lon="-5.8546580">
        <ele>182.0</ele>
        <time>2018-09-15T13:21:43Z</time>
      </trkpt>
      <trkpt lat="43.4493640" lon="-5.8546630">
        <ele>182.0</ele>
        <time>2018-09-15T13:21:44Z</time>
      </trkpt>
      <trkpt lat="43.4492870" lon="-5.8546700">
        <ele>182.0</ele>
        <time>2018-09-15T13:21:45Z</time>
      </trkpt>
      <trkpt lat="43.4492060" lon="-5.8546750">
        <ele>181.7</ele>
        <time>2018-09-15T13:21:46Z</time>
      </trkpt>
      <trkpt lat="43.4491250" lon="-5.8546810">
        <ele>181.4</ele>
        <time>2018-09-15T13:21:47Z</time>
      </trkpt>
      <trkpt lat="43.4490430" lon="-5.8546900">
        <ele>181.2</ele>
        <time>2018-09-15T13:21:48Z</time>
      </trkpt>
      <trkpt lat="43.4489630" lon="-5.8547050">
        <ele>181.0</ele>
        <time>2018-09-15T13:21:49Z</time>
      </trkpt>
      <trkpt lat="43.4488840" lon="-5.8547300">
        <ele>180.8</ele>
        <time>2018-09-15T13:21:50Z</time>
      </trkpt>
      <trkpt lat="43.4488110" lon="-5.8547700">
        <ele>180.5</ele>
        <time>2018-09-15T13:21:51Z</time>
      </trkpt>
      <trkpt lat="43.4487350" lon="-5.8548130">
        <ele>180.2</ele>
        <time>2018-09-15T13:21:52Z</time>
      </trkpt>
      <trkpt lat="43.4486610" lon="-5.8548560">
        <ele>179.9</ele>
        <time>2018-09-15T13:21:53Z</time>
      </trkpt>
      <trkpt lat="43.4485850" lon="-5.8549040">
        <ele>179.4</ele>
        <time>2018-09-15T13:21:54Z</time>
      </trkpt>
      <trkpt lat="43.4485080" lon="-5.8549520">
        <ele>178.8</ele>
        <time>2018-09-15T13:21:55Z</time>
      </trkpt>
      <trkpt lat="43.4484290" lon="-5.8550030">
        <ele>178.1</ele>
        <time>2018-09-15T13:21:56Z</time>
      </trkpt>
      <trkpt lat="43.4483500" lon="-5.8550530">
        <ele>177.5</ele>
        <time>2018-09-15T13:21:57Z</time>
      </trkpt>
      <trkpt lat="43.4482720" lon="-5.8551010">
        <ele>176.9</ele>
        <time>2018-09-15T13:21:58Z</time>
      </trkpt>
      <trkpt lat="43.4481930" lon="-5.8551540">
        <ele>176.3</ele>
        <time>2018-09-15T13:21:59Z</time>
      </trkpt>
      <trkpt lat="43.4481130" lon="-5.8552070">
        <ele>175.9</ele>
        <time>2018-09-15T13:22:00Z</time>
      </trkpt>
      <trkpt lat="43.4480330" lon="-5.8552610">
        <ele>175.6</ele>
        <time>2018-09-15T13:22:01Z</time>
      </trkpt>
      <trkpt lat="43.4479490" lon="-5.8553140">
        <ele>175.3</ele>
        <time>2018-09-15T13:22:02Z</time>
      </trkpt>
      <trkpt lat="43.4478670" lon="-5.8553650">
        <ele>174.9</ele>
        <time>2018-09-15T13:22:03Z</time>
      </trkpt>
      <trkpt lat="43.4477860" lon="-5.8554180">
        <ele>174.2</ele>
        <time>2018-09-15T13:22:04Z</time>
      </trkpt>
      <trkpt lat="43.4477030" lon="-5.8554720">
        <ele>173.4</ele>
        <time>2018-09-15T13:22:05Z</time>
      </trkpt>
      <trkpt lat="43.4476200" lon="-5.8555270">
        <ele>172.6</ele>
        <time>2018-09-15T13:22:06Z</time>
      </trkpt>
      <trkpt lat="43.4475330" lon="-5.8555830">
        <ele>171.9</ele>
        <time>2018-09-15T13:22:07Z</time>
      </trkpt>
      <trkpt lat="43.4474470" lon="-5.8556400">
        <ele>171.5</ele>
        <time>2018-09-15T13:22:08Z</time>
      </trkpt>
      <trkpt lat="43.4473600" lon="-5.8556970">
        <ele>171.0</ele>
        <time>2018-09-15T13:22:09Z</time>
      </trkpt>
      <trkpt lat="43.4472710" lon="-5.8557560">
        <ele>170.5</ele>
        <time>2018-09-15T13:22:10Z</time>
      </trkpt>
      <trkpt lat="43.4471810" lon="-5.8558120">
        <ele>169.9</ele>
        <time>2018-09-15T13:22:11Z</time>
      </trkpt>
      <trkpt lat="43.4470950" lon="-5.8558680">
        <ele>169.3</ele>
        <time>2018-09-15T13:22:12Z</time>
      </trkpt>
      <trkpt lat="43.4470090" lon="-5.8559280">
        <ele>168.9</ele>
        <time>2018-09-15T13:22:13Z</time>
      </trkpt>
      <trkpt lat="43.4469180" lon="-5.8559820">
        <ele>168.5</ele>
        <time>2018-09-15T13:22:14Z</time>
      </trkpt>
      <trkpt lat="43.4468300" lon="-5.8560340">
        <ele>168.0</ele>
        <time>2018-09-15T13:22:15Z</time>
      </trkpt>
      <trkpt lat="43.4467460" lon="-5.8560930">
        <ele>167.5</ele>
        <time>2018-09-15T13:22:16Z</time>
      </trkpt>
      <trkpt lat="43.4466590" lon="-5.8561470">
        <ele>167.1</ele>
        <time>2018-09-15T13:22:17Z</time>
      </trkpt>
      <trkpt lat="43.4465730" lon="-5.8562000">
        <ele>166.7</ele>
        <time>2018-09-15T13:22:18Z</time>
      </trkpt>
      <trkpt lat="43.4464900" lon="-5.8562570">
        <ele>166.4</ele>
        <time>2018-09-15T13:22:19Z</time>
      </trkpt>
      <trkpt lat="43.4464050" lon="-5.8563090">
        <ele>166.2</ele>
        <time>2018-09-15T13:22:20Z</time>
      </trkpt>
      <trkpt lat="43.4463240" lon="-5.8563660">
        <ele>166.2</ele>
        <time>2018-09-15T13:22:21Z</time>
      </trkpt>
      <trkpt lat="43.4462460" lon="-5.8564240">
        <ele>166.1</ele>
        <time>2018-09-15T13:22:22Z</time>
      </trkpt>
      <trkpt lat="43.4461620" lon="-5.8564620">
        <ele>166.0</ele>
        <time>2018-09-15T13:22:23Z</time>
      </trkpt>
      <trkpt lat="43.4460760" lon="-5.8564930">
        <ele>165.9</ele>
        <time>2018-09-15T13:22:24Z</time>
      </trkpt>
      <trkpt lat="43.4459900" lon="-5.8565130">
        <ele>165.9</ele>
        <time>2018-09-15T13:22:25Z</time>
      </trkpt>
      <trkpt lat="43.4459020" lon="-5.8565340">
        <ele>165.7</ele>
        <time>2018-09-15T13:22:26Z</time>
      </trkpt>
      <trkpt lat="43.4458180" lon="-5.8565500">
        <ele>165.7</ele>
        <time>2018-09-15T13:22:27Z</time>
      </trkpt>
      <trkpt lat="43.4457350" lon="-5.8565600">
        <ele>165.6</ele>
        <time>2018-09-15T13:22:28Z</time>
      </trkpt>
      <trkpt lat="43.4456510" lon="-5.8565690">
        <ele>165.6</ele>
        <time>2018-09-15T13:22:29Z</time>
      </trkpt>
      <trkpt lat="43.4455680" lon="-5.8565800">
        <ele>165.5</ele>
        <time>2018-09-15T13:22:30Z</time>
      </trkpt>
      <trkpt lat="43.4454920" lon="-5.8565860">
        <ele>165.5</ele>
        <time>2018-09-15T13:22:31Z</time>
      </trkpt>
      <trkpt lat="43.4454120" lon="-5.8565910">
        <ele>165.4</ele>
        <time>2018-09-15T13:22:32Z</time>
      </trkpt>
      <trkpt lat="43.4453320" lon="-5.8565820">
        <ele>165.4</ele>
        <time>2018-09-15T13:22:33Z</time>
      </trkpt>
      <trkpt lat="43.4452560" lon="-5.8565650">
        <ele>165.2</ele>
        <time>2018-09-15T13:22:34Z</time>
      </trkpt>
      <trkpt lat="43.4451760" lon="-5.8565480">
        <ele>165.1</ele>
        <time>2018-09-15T13:22:35Z</time>
      </trkpt>
      <trkpt lat="43.4451000" lon="-5.8565270">
        <ele>165.0</ele>
        <time>2018-09-15T13:22:36Z</time>
      </trkpt>
      <trkpt lat="43.4450230" lon="-5.8565030">
        <ele>165.1</ele>
        <time>2018-09-15T13:22:37Z</time>
      </trkpt>
      <trkpt lat="43.4449470" lon="-5.8564750">
        <ele>165.3</ele>
        <time>2018-09-15T13:22:38Z</time>
      </trkpt>
      <trkpt lat="43.4448730" lon="-5.8564460">
        <ele>165.4</ele>
        <time>2018-09-15T13:22:39Z</time>
      </trkpt>
      <trkpt lat="43.4447980" lon="-5.8564170">
        <ele>165.6</ele>
        <time>2018-09-15T13:22:40Z</time>
      </trkpt>
      <trkpt lat="43.4447310" lon="-5.8563910">
        <ele>165.7</ele>
        <time>2018-09-15T13:22:41Z</time>
      </trkpt>
      <trkpt lat="43.4446580" lon="-5.8563640">
        <ele>165.8</ele>
        <time>2018-09-15T13:22:42Z</time>
      </trkpt>
      <trkpt lat="43.4445870" lon="-5.8563360">
        <ele>165.8</ele>
        <time>2018-09-15T13:22:43Z</time>
      </trkpt>
      <trkpt lat="43.4445140" lon="-5.8563010">
        <ele>165.9</ele>
        <time>2018-09-15T13:22:44Z</time>
      </trkpt>
      <trkpt lat="43.4444420" lon="-5.8562700">
        <ele>166.0</ele>
        <time>2018-09-15T13:22:46Z</time>
      </trkpt>
      <trkpt lat="43.4443730" lon="-5.8562450">
        <ele>166.0</ele>
        <time>2018-09-15T13:22:47Z</time>
      </trkpt>
      <trkpt lat="43.4442970" lon="-5.8562170">
        <ele>166.1</ele>
        <time>2018-09-15T13:22:48Z</time>
      </trkpt>
      <trkpt lat="43.4442230" lon="-5.8561900">
        <ele>166.2</ele>
        <time>2018-09-15T13:22:49Z</time>
      </trkpt>
      <trkpt lat="43.4441490" lon="-5.8561580">
        <ele>166.3</ele>
        <time>2018-09-15T13:22:50Z</time>
      </trkpt>
      <trkpt lat="43.4440790" lon="-5.8561280">
        <ele>166.3</ele>
        <time>2018-09-15T13:22:51Z</time>
      </trkpt>
      <trkpt lat="43.4440110" lon="-5.8561060">
        <ele>166.4</ele>
        <time>2018-09-15T13:22:52Z</time>
      </trkpt>
      <trkpt lat="43.4439420" lon="-5.8560770">
        <ele>166.4</ele>
        <time>2018-09-15T13:22:53Z</time>
      </trkpt>
      <trkpt lat="43.4438710" lon="-5.8560450">
        <ele>166.6</ele>
        <time>2018-09-15T13:22:54Z</time>
      </trkpt>
      <trkpt lat="43.4438090" lon="-5.8560150">
        <ele>166.7</ele>
        <time>2018-09-15T13:22:55Z</time>
      </trkpt>
      <trkpt lat="43.4437410" lon="-5.8559820">
        <ele>166.8</ele>
        <time>2018-09-15T13:22:56Z</time>
      </trkpt>
      <trkpt lat="43.4436720" lon="-5.8559430">
        <ele>166.9</ele>
        <time>2018-09-15T13:22:57Z</time>
      </trkpt>
      <trkpt lat="43.4436110" lon="-5.8558860">
        <ele>167.0</ele>
        <time>2018-09-15T13:22:58Z</time>
      </trkpt>
      <trkpt lat="43.4435490" lon="-5.8558250">
        <ele>167.0</ele>
        <time>2018-09-15T13:22:59Z</time>
      </trkpt>
      <trkpt lat="43.4434880" lon="-5.8557560">
        <ele>167.0</ele>
        <time>2018-09-15T13:23:00Z</time>
      </trkpt>
      <trkpt lat="43.4434220" lon="-5.8556850">
        <ele>167.0</ele>
        <time>2018-09-15T13:23:01Z</time>
      </trkpt>
      <trkpt lat="43.4433610" lon="-5.8556170">
        <ele>167.0</ele>
        <time>2018-09-15T13:23:02Z</time>
      </trkpt>
      <trkpt lat="43.4432960" lon="-5.8555460">
        <ele>166.4</ele>
        <time>2018-09-15T13:23:03Z</time>
      </trkpt>
      <trkpt lat="43.4432320" lon="-5.8554730">
        <ele>165.8</ele>
        <time>2018-09-15T13:23:04Z</time>
      </trkpt>
      <trkpt lat="43.4431680" lon="-5.8554040">
        <ele>165.3</ele>
        <time>2018-09-15T13:23:05Z</time>
      </trkpt>
      <trkpt lat="43.4431070" lon="-5.8553330">
        <ele>165.0</ele>
        <time>2018-09-15T13:23:06Z</time>
      </trkpt>
      <trkpt lat="43.4430430" lon="-5.8552620">
        <ele>165.0</ele>
        <time>2018-09-15T13:23:07Z</time>
      </trkpt>
      <trkpt lat="43.4429830" lon="-5.8551890">
        <ele>164.9</ele>
        <time>2018-09-15T13:23:08Z</time>
      </trkpt>
      <trkpt lat="43.4429230" lon="-5.8551200">
        <ele>164.9</ele>
        <time>2018-09-15T13:23:09Z</time>
      </trkpt>
      <trkpt lat="43.4428590" lon="-5.8550470">
        <ele>164.9</ele>
        <time>2018-09-15T13:23:10Z</time>
      </trkpt>
      <trkpt lat="43.4427990" lon="-5.8549740">
        <ele>164.9</ele>
        <time>2018-09-15T13:23:11Z</time>
      </trkpt>
      <trkpt lat="43.4427320" lon="-5.8548970">
        <ele>164.7</ele>
        <time>2018-09-15T13:23:12Z</time>
      </trkpt>
      <trkpt lat="43.4426690" lon="-5.8548240">
        <ele>164.6</ele>
        <time>2018-09-15T13:23:13Z</time>
      </trkpt>
      <trkpt lat="43.4426070" lon="-5.8547530">
        <ele>164.4</ele>
        <time>2018-09-15T13:23:14Z</time>
      </trkpt>
      <trkpt lat="43.4425430" lon="-5.8546850">
        <ele>164.2</ele>
        <time>2018-09-15T13:23:15Z</time>
      </trkpt>
      <trkpt lat="43.4424830" lon="-5.8546140">
        <ele>164.1</ele>
        <time>2018-09-15T13:23:16Z</time>
      </trkpt>
      <trkpt lat="43.4424200" lon="-5.8545470">
        <ele>164.1</ele>
        <time>2018-09-15T13:23:17Z</time>
      </trkpt>
      <trkpt lat="43.4423570" lon="-5.8544830">
        <ele>164.0</ele>
        <time>2018-09-15T13:23:18Z</time>
      </trkpt>
      <trkpt lat="43.4422940" lon="-5.8544160">
        <ele>164.0</ele>
        <time>2018-09-15T13:23:19Z</time>
      </trkpt>
      <trkpt lat="43.4422360" lon="-5.8543480">
        <ele>164.2</ele>
        <time>2018-09-15T13:23:20Z</time>
      </trkpt>
      <trkpt lat="43.4421800" lon="-5.8542860">
        <ele>164.5</ele>
        <time>2018-09-15T13:23:21Z</time>
      </trkpt>
      <trkpt lat="43.4421200" lon="-5.8542270">
        <ele>164.8</ele>
        <time>2018-09-15T13:23:22Z</time>
      </trkpt>
      <trkpt lat="43.4420650" lon="-5.8541640">
        <ele>165.2</ele>
        <time>2018-09-15T13:23:23Z</time>
      </trkpt>
      <trkpt lat="43.4419560" lon="-5.8540370">
        <ele>165.9</ele>
        <time>2018-09-15T13:23:24Z</time>
      </trkpt>
      <trkpt lat="43.4419160" lon="-5.8539930">
        <ele>166.2</ele>
        <time>2018-09-15T13:23:25Z</time>
      </trkpt>
      <trkpt lat="43.4418760" lon="-5.8539490">
        <ele>166.4</ele>
        <time>2018-09-15T13:23:26Z</time>
      </trkpt>
      <trkpt lat="43.4417950" lon="-5.8538610">
        <ele>166.9</ele>
        <time>2018-09-15T13:23:27Z</time>
      </trkpt>
      <trkpt lat="43.4417560" lon="-5.8538150">
        <ele>166.8</ele>
        <time>2018-09-15T13:23:28Z</time>
      </trkpt>
      <trkpt lat="43.4417170" lon="-5.8537700">
        <ele>166.6</ele>
        <time>2018-09-15T13:23:29Z</time>
      </trkpt>
      <trkpt lat="43.4416380" lon="-5.8536800">
        <ele>166.0</ele>
        <time>2018-09-15T13:23:30Z</time>
      </trkpt>
      <trkpt lat="43.4415880" lon="-5.8536140">
        <ele>165.5</ele>
        <time>2018-09-15T13:23:31Z</time>
      </trkpt>
      <trkpt lat="43.4415320" lon="-5.8535510">
        <ele>165.0</ele>
        <time>2018-09-15T13:23:32Z</time>
      </trkpt>
      <trkpt lat="43.4414770" lon="-5.8534870">
        <ele>164.4</ele>
        <time>2018-09-15T13:23:33Z</time>
      </trkpt>
      <trkpt lat="43.4414230" lon="-5.8534250">
        <ele>163.8</ele>
        <time>2018-09-15T13:23:34Z</time>
      </trkpt>
      <trkpt lat="43.4413700" lon="-5.8533690">
        <ele>163.0</ele>
        <time>2018-09-15T13:23:35Z</time>
      </trkpt>
      <trkpt lat="43.4413160" lon="-5.8533120">
        <ele>163.0</ele>
        <time>2018-09-15T13:23:36Z</time>
      </trkpt>
      <trkpt lat="43.4412640" lon="-5.8532550">
        <ele>163.0</ele>
        <time>2018-09-15T13:23:37Z</time>
      </trkpt>
      <trkpt lat="43.4412120" lon="-5.8531970">
        <ele>163.0</ele>
        <time>2018-09-15T13:23:38Z</time>
      </trkpt>
      <trkpt lat="43.4411600" lon="-5.8531360">
        <ele>163.0</ele>
        <time>2018-09-15T13:23:39Z</time>
      </trkpt>
      <trkpt lat="43.4411100" lon="-5.8530730">
        <ele>163.0</ele>
        <time>2018-09-15T13:23:40Z</time>
      </trkpt>
      <trkpt lat="43.4410590" lon="-5.8530130">
        <ele>163.0</ele>
        <time>2018-09-15T13:23:41Z</time>
      </trkpt>
      <trkpt lat="43.4410100" lon="-5.8529570">
        <ele>163.0</ele>
        <time>2018-09-15T13:23:42Z</time>
      </trkpt>
      <trkpt lat="43.4409750" lon="-5.8529150">
        <ele>163.0</ele>
        <time>2018-09-15T13:23:43Z</time>
      </trkpt>
      <trkpt lat="43.4409390" lon="-5.8528740">
        <ele>163.0</ele>
        <time>2018-09-15T13:23:44Z</time>
      </trkpt>
      <trkpt lat="43.4408680" lon="-5.8527920">
        <ele>163.2</ele>
        <time>2018-09-15T13:23:45Z</time>
      </trkpt>
      <trkpt lat="43.4408180" lon="-5.8527370">
        <ele>163.3</ele>
        <time>2018-09-15T13:23:46Z</time>
      </trkpt>
      <trkpt lat="43.4407700" lon="-5.8526780">
        <ele>163.4</ele>
        <time>2018-09-15T13:23:47Z</time>
      </trkpt>
      <trkpt lat="43.4407210" lon="-5.8526280">
        <ele>163.7</ele>
        <time>2018-09-15T13:23:48Z</time>
      </trkpt>
      <trkpt lat="43.4406730" lon="-5.8525760">
        <ele>163.9</ele>
        <time>2018-09-15T13:23:49Z</time>
      </trkpt>
      <trkpt lat="43.4406220" lon="-5.8525280">
        <ele>164.0</ele>
        <time>2018-09-15T13:23:50Z</time>
      </trkpt>
      <trkpt lat="43.4405730" lon="-5.8524800">
        <ele>164.2</ele>
        <time>2018-09-15T13:23:51Z</time>
      </trkpt>
      <trkpt lat="43.4405280" lon="-5.8524280">
        <ele>164.3</ele>
        <time>2018-09-15T13:23:52Z</time>
      </trkpt>
      <trkpt lat="43.4404840" lon="-5.8523780">
        <ele>164.6</ele>
        <time>2018-09-15T13:23:53Z</time>
      </trkpt>
      <trkpt lat="43.4404460" lon="-5.8523320">
        <ele>164.8</ele>
        <time>2018-09-15T13:23:54Z</time>
      </trkpt>
      <trkpt lat="43.4404120" lon="-5.8522830">
        <ele>165.0</ele>
        <time>2018-09-15T13:23:55Z</time>
      </trkpt>
      <trkpt lat="43.4403770" lon="-5.8522390">
        <ele>165.2</ele>
        <time>2018-09-15T13:23:56Z</time>
      </trkpt>
      <trkpt lat="43.4403440" lon="-5.8521890">
        <ele>165.5</ele>
        <time>2018-09-15T13:23:57Z</time>
      </trkpt>
      <trkpt lat="43.4403070" lon="-5.8521490">
        <ele>165.8</ele>
        <time>2018-09-15T13:23:58Z</time>
      </trkpt>
      <trkpt lat="43.4402760" lon="-5.8521150">
        <ele>166.1</ele>
        <time>2018-09-15T13:23:59Z</time>
      </trkpt>
      <trkpt lat="43.4402430" lon="-5.8520770">
        <ele>166.2</ele>
        <time>2018-09-15T13:24:00Z</time>
      </trkpt>
      <trkpt lat="43.4402080" lon="-5.8520480">
        <ele>166.4</ele>
        <time>2018-09-15T13:24:01Z</time>
      </trkpt>
      <trkpt lat="43.4401740" lon="-5.8520180">
        <ele>166.6</ele>
        <time>2018-09-15T13:24:02Z</time>
      </trkpt>
      <trkpt lat="43.4401390" lon="-5.8519910">
        <ele>166.8</ele>
        <time>2018-09-15T13:24:03Z</time>
      </trkpt>
      <trkpt lat="43.4401020" lon="-5.8519850">
        <ele>167.1</ele>
        <time>2018-09-15T13:24:04Z</time>
      </trkpt>
      <trkpt lat="43.4401020" lon="-5.8519850">
        <ele>167.1</ele>
        <time>2018-09-15T13:24:05Z</time>
      </trkpt>
      <trkpt lat="43.4400720" lon="-5.8519620">
        <ele>167.3</ele>
        <time>2018-09-15T13:24:06Z</time>
      </trkpt>
      <trkpt lat="43.4400590" lon="-5.8519430">
        <ele>167.4</ele>
        <time>2018-09-15T13:24:07Z</time>
      </trkpt>
      <trkpt lat="43.4400420" lon="-5.8519230">
        <ele>167.5</ele>
        <time>2018-09-15T13:24:08Z</time>
      </trkpt>
      <trkpt lat="43.4400270" lon="-5.8519100">
        <ele>167.5</ele>
        <time>2018-09-15T13:24:09Z</time>
      </trkpt>
      <trkpt lat="43.4400090" lon="-5.8519020">
        <ele>167.6</ele>
        <time>2018-09-15T13:24:10Z</time>
      </trkpt>
      <trkpt lat="43.4399890" lon="-5.8518940">
        <ele>167.7</ele>
        <time>2018-09-15T13:24:11Z</time>
      </trkpt>
      <trkpt lat="43.4399750" lon="-5.8518960">
        <ele>167.7</ele>
        <time>2018-09-15T13:24:12Z</time>
      </trkpt>
      <trkpt lat="43.4399540" lon="-5.8519060">
        <ele>167.6</ele>
        <time>2018-09-15T13:24:13Z</time>
      </trkpt>
      <trkpt lat="43.4399360" lon="-5.8519170">
        <ele>167.5</ele>
        <time>2018-09-15T13:24:14Z</time>
      </trkpt>
      <trkpt lat="43.4399080" lon="-5.8519330">
        <ele>167.4</ele>
        <time>2018-09-15T13:24:15Z</time>
      </trkpt>
      <trkpt lat="43.4398840" lon="-5.8519540">
        <ele>167.3</ele>
        <time>2018-09-15T13:24:16Z</time>
      </trkpt>
      <trkpt lat="43.4398550" lon="-5.8519800">
        <ele>167.2</ele>
        <time>2018-09-15T13:24:17Z</time>
      </trkpt>
      <trkpt lat="43.4398220" lon="-5.8520090">
        <ele>167.1</ele>
        <time>2018-09-15T13:24:18Z</time>
      </trkpt>
      <trkpt lat="43.4397800" lon="-5.8520460">
        <ele>167.0</ele>
        <time>2018-09-15T13:24:19Z</time>
      </trkpt>
      <trkpt lat="43.4395990" lon="-5.8521720">
        <ele>166.1</ele>
        <time>2018-09-15T13:24:20Z</time>
      </trkpt>
      <trkpt lat="43.4394170" lon="-5.8522970">
        <ele>164.9</ele>
        <time>2018-09-15T13:24:21Z</time>
      </trkpt>
      <trkpt lat="43.4393420" lon="-5.8523460">
        <ele>164.5</ele>
        <time>2018-09-15T13:24:22Z</time>
      </trkpt>
      <trkpt lat="43.4392750" lon="-5.8524030">
        <ele>164.2</ele>
        <time>2018-09-15T13:24:23Z</time>
      </trkpt>
      <trkpt lat="43.4392100" lon="-5.8524560">
        <ele>164.0</ele>
        <time>2018-09-15T13:24:24Z</time>
      </trkpt>
      <trkpt lat="43.4391450" lon="-5.8525050">
        <ele>163.8</ele>
        <time>2018-09-15T13:24:25Z</time>
      </trkpt>
      <trkpt lat="43.4390780" lon="-5.8525580">
        <ele>163.6</ele>
        <time>2018-09-15T13:24:26Z</time>
      </trkpt>
      <trkpt lat="43.4390110" lon="-5.8526170">
        <ele>163.4</ele>
        <time>2018-09-15T13:24:27Z</time>
      </trkpt>
      <trkpt lat="43.4389430" lon="-5.8526770">
        <ele>163.2</ele>
        <time>2018-09-15T13:24:28Z</time>
      </trkpt>
      <trkpt lat="43.4388770" lon="-5.8527390">
        <ele>163.1</ele>
        <time>2018-09-15T13:24:29Z</time>
      </trkpt>
      <trkpt lat="43.4388010" lon="-5.8527970">
        <ele>163.0</ele>
        <time>2018-09-15T13:24:30Z</time>
      </trkpt>
      <trkpt lat="43.4387290" lon="-5.8528560">
        <ele>163.0</ele>
        <time>2018-09-15T13:24:31Z</time>
      </trkpt>
      <trkpt lat="43.4386560" lon="-5.8529110">
        <ele>163.0</ele>
        <time>2018-09-15T13:24:32Z</time>
      </trkpt>
      <trkpt lat="43.4385810" lon="-5.8529580">
        <ele>163.0</ele>
        <time>2018-09-15T13:24:33Z</time>
      </trkpt>
      <trkpt lat="43.4385040" lon="-5.8530020">
        <ele>162.9</ele>
        <time>2018-09-15T13:24:34Z</time>
      </trkpt>
      <trkpt lat="43.4384290" lon="-5.8530420">
        <ele>162.9</ele>
        <time>2018-09-15T13:24:35Z</time>
      </trkpt>
      <trkpt lat="43.4383560" lon="-5.8530840">
        <ele>162.9</ele>
        <time>2018-09-15T13:24:36Z</time>
      </trkpt>
      <trkpt lat="43.4382860" lon="-5.8531190">
        <ele>162.9</ele>
        <time>2018-09-15T13:24:37Z</time>
      </trkpt>
      <trkpt lat="43.4382150" lon="-5.8531480">
        <ele>162.8</ele>
        <time>2018-09-15T13:24:38Z</time>
      </trkpt>
      <trkpt lat="43.4381450" lon="-5.8531800">
        <ele>162.8</ele>
        <time>2018-09-15T13:24:39Z</time>
      </trkpt>
      <trkpt lat="43.4380730" lon="-5.8532030">
        <ele>162.7</ele>
        <time>2018-09-15T13:24:40Z</time>
      </trkpt>
      <trkpt lat="43.4380020" lon="-5.8532310">
        <ele>162.7</ele>
        <time>2018-09-15T13:24:41Z</time>
      </trkpt>
      <trkpt lat="43.4379380" lon="-5.8532540">
        <ele>162.7</ele>
        <time>2018-09-15T13:24:42Z</time>
      </trkpt>
      <trkpt lat="43.4378720" lon="-5.8532770">
        <ele>162.7</ele>
        <time>2018-09-15T13:24:43Z</time>
      </trkpt>
      <trkpt lat="43.4378130" lon="-5.8533000">
        <ele>162.8</ele>
        <time>2018-09-15T13:24:44Z</time>
      </trkpt>
      <trkpt lat="43.4377530" lon="-5.8533210">
        <ele>162.9</ele>
        <time>2018-09-15T13:24:45Z</time>
      </trkpt>
      <trkpt lat="43.4376970" lon="-5.8533420">
        <ele>163.0</ele>
        <time>2018-09-15T13:24:46Z</time>
      </trkpt>
      <trkpt lat="43.4376380" lon="-5.8533630">
        <ele>163.2</ele>
        <time>2018-09-15T13:24:47Z</time>
      </trkpt>
      <trkpt lat="43.4375810" lon="-5.8533850">
        <ele>163.5</ele>
        <time>2018-09-15T13:24:48Z</time>
      </trkpt>
      <trkpt lat="43.4375290" lon="-5.8534090">
        <ele>163.7</ele>
        <time>2018-09-15T13:24:49Z</time>
      </trkpt>
      <trkpt lat="43.4374780" lon="-5.8534240">
        <ele>164.0</ele>
        <time>2018-09-15T13:24:50Z</time>
      </trkpt>
      <trkpt lat="43.4374260" lon="-5.8534420">
        <ele>164.4</ele>
        <time>2018-09-15T13:24:51Z</time>
      </trkpt>
      <trkpt lat="43.4373770" lon="-5.8534610">
        <ele>164.7</ele>
        <time>2018-09-15T13:24:52Z</time>
      </trkpt>
      <trkpt lat="43.4373260" lon="-5.8534800">
        <ele>165.1</ele>
        <time>2018-09-15T13:24:53Z</time>
      </trkpt>
      <trkpt lat="43.4372780" lon="-5.8535030">
        <ele>165.4</ele>
        <time>2018-09-15T13:24:54Z</time>
      </trkpt>
      <trkpt lat="43.4372300" lon="-5.8535210">
        <ele>165.7</ele>
        <time>2018-09-15T13:24:55Z</time>
      </trkpt>
      <trkpt lat="43.4371810" lon="-5.8535350">
        <ele>166.0</ele>
        <time>2018-09-15T13:24:56Z</time>
      </trkpt>
      <trkpt lat="43.4371350" lon="-5.8535550">
        <ele>166.2</ele>
        <time>2018-09-15T13:24:57Z</time>
      </trkpt>
      <trkpt lat="43.4370910" lon="-5.8535800">
        <ele>166.4</ele>
        <time>2018-09-15T13:24:58Z</time>
      </trkpt>
      <trkpt lat="43.4370490" lon="-5.8536000">
        <ele>166.6</ele>
        <time>2018-09-15T13:24:59Z</time>
      </trkpt>
      <trkpt lat="43.4370070" lon="-5.8536200">
        <ele>166.8</ele>
        <time>2018-09-15T13:25:00Z</time>
      </trkpt>
      <trkpt lat="43.4369660" lon="-5.8536490">
        <ele>166.9</ele>
        <time>2018-09-15T13:25:01Z</time>
      </trkpt>
      <trkpt lat="43.4369220" lon="-5.8536820">
        <ele>165.9</ele>
        <time>2018-09-15T13:25:02Z</time>
      </trkpt>
      <trkpt lat="43.4368820" lon="-5.8537120">
        <ele>164.6</ele>
        <time>2018-09-15T13:25:03Z</time>
      </trkpt>
      <trkpt lat="43.4368470" lon="-5.8537520">
        <ele>163.8</ele>
        <time>2018-09-15T13:25:04Z</time>
      </trkpt>
      <trkpt lat="43.4368080" lon="-5.8537900">
        <ele>163.1</ele>
        <time>2018-09-15T13:25:05Z</time>
      </trkpt>
      <trkpt lat="43.4367740" lon="-5.8538340">
        <ele>162.5</ele>
        <time>2018-09-15T13:25:06Z</time>
      </trkpt>
      <trkpt lat="43.4367430" lon="-5.8538820">
        <ele>161.8</ele>
        <time>2018-09-15T13:25:07Z</time>
      </trkpt>
      <trkpt lat="43.4367140" lon="-5.8539320">
        <ele>161.1</ele>
        <time>2018-09-15T13:25:08Z</time>
      </trkpt>
      <trkpt lat="43.4366880" lon="-5.8539830">
        <ele>160.5</ele>
        <time>2018-09-15T13:25:09Z</time>
      </trkpt>
      <trkpt lat="43.4366670" lon="-5.8540400">
        <ele>159.8</ele>
        <time>2018-09-15T13:25:10Z</time>
      </trkpt>
      <trkpt lat="43.4366520" lon="-5.8540940">
        <ele>159.2</ele>
        <time>2018-09-15T13:25:11Z</time>
      </trkpt>
      <trkpt lat="43.4366380" lon="-5.8541550">
        <ele>159.1</ele>
        <time>2018-09-15T13:25:12Z</time>
      </trkpt>
      <trkpt lat="43.4366250" lon="-5.8542140">
        <ele>159.2</ele>
        <time>2018-09-15T13:25:13Z</time>
      </trkpt>
      <trkpt lat="43.4366180" lon="-5.8542780">
        <ele>159.3</ele>
        <time>2018-09-15T13:25:14Z</time>
      </trkpt>
      <trkpt lat="43.4366090" lon="-5.8543410">
        <ele>159.4</ele>
        <time>2018-09-15T13:25:15Z</time>
      </trkpt>
      <trkpt lat="43.4366050" lon="-5.8544030">
        <ele>159.5</ele>
        <time>2018-09-15T13:25:16Z</time>
      </trkpt>
      <trkpt lat="43.4366030" lon="-5.8544670">
        <ele>159.5</ele>
        <time>2018-09-15T13:25:17Z</time>
      </trkpt>
      <trkpt lat="43.4366060" lon="-5.8545310">
        <ele>159.5</ele>
        <time>2018-09-15T13:25:18Z</time>
      </trkpt>
      <trkpt lat="43.4366090" lon="-5.8545970">
        <ele>159.6</ele>
        <time>2018-09-15T13:25:19Z</time>
      </trkpt>
      <trkpt lat="43.4366130" lon="-5.8546630">
        <ele>159.6</ele>
        <time>2018-09-15T13:25:20Z</time>
      </trkpt>
      <trkpt lat="43.4366100" lon="-5.8547290">
        <ele>159.6</ele>
        <time>2018-09-15T13:25:21Z</time>
      </trkpt>
      <trkpt lat="43.4366150" lon="-5.8547970">
        <ele>159.6</ele>
        <time>2018-09-15T13:25:22Z</time>
      </trkpt>
      <trkpt lat="43.4366180" lon="-5.8548630">
        <ele>159.6</ele>
        <time>2018-09-15T13:25:23Z</time>
      </trkpt>
      <trkpt lat="43.4366190" lon="-5.8549280">
        <ele>159.6</ele>
        <time>2018-09-15T13:25:24Z</time>
      </trkpt>
      <trkpt lat="43.4366240" lon="-5.8549940">
        <ele>159.6</ele>
        <time>2018-09-15T13:25:25Z</time>
      </trkpt>
      <trkpt lat="43.4366290" lon="-5.8550590">
        <ele>159.6</ele>
        <time>2018-09-15T13:25:26Z</time>
      </trkpt>
      <trkpt lat="43.4366310" lon="-5.8551190">
        <ele>159.6</ele>
        <time>2018-09-15T13:25:27Z</time>
      </trkpt>
      <trkpt lat="43.4366330" lon="-5.8551810">
        <ele>159.6</ele>
        <time>2018-09-15T13:25:28Z</time>
      </trkpt>
      <trkpt lat="43.4366360" lon="-5.8552420">
        <ele>159.6</ele>
        <time>2018-09-15T13:25:29Z</time>
      </trkpt>
      <trkpt lat="43.4366370" lon="-5.8552990">
        <ele>159.6</ele>
        <time>2018-09-15T13:25:30Z</time>
      </trkpt>
      <trkpt lat="43.4366440" lon="-5.8553590">
        <ele>159.6</ele>
        <time>2018-09-15T13:25:31Z</time>
      </trkpt>
      <trkpt lat="43.4366440" lon="-5.8554170">
        <ele>159.7</ele>
        <time>2018-09-15T13:25:32Z</time>
      </trkpt>
      <trkpt lat="43.4366470" lon="-5.8554800">
        <ele>159.7</ele>
        <time>2018-09-15T13:25:33Z</time>
      </trkpt>
      <trkpt lat="43.4366520" lon="-5.8555400">
        <ele>159.8</ele>
        <time>2018-09-15T13:25:34Z</time>
      </trkpt>
      <trkpt lat="43.4366500" lon="-5.8556070">
        <ele>159.9</ele>
        <time>2018-09-15T13:25:35Z</time>
      </trkpt>
      <trkpt lat="43.4366520" lon="-5.8556750">
        <ele>160.0</ele>
        <time>2018-09-15T13:25:36Z</time>
      </trkpt>
      <trkpt lat="43.4366520" lon="-5.8557440">
        <ele>160.0</ele>
        <time>2018-09-15T13:25:37Z</time>
      </trkpt>
      <trkpt lat="43.4366540" lon="-5.8558180">
        <ele>160.1</ele>
        <time>2018-09-15T13:25:38Z</time>
      </trkpt>
      <trkpt lat="43.4366580" lon="-5.8558950">
        <ele>160.2</ele>
        <time>2018-09-15T13:25:39Z</time>
      </trkpt>
      <trkpt lat="43.4366600" lon="-5.8559700">
        <ele>160.2</ele>
        <time>2018-09-15T13:25:40Z</time>
      </trkpt>
      <trkpt lat="43.4366650" lon="-5.8560470">
        <ele>160.3</ele>
        <time>2018-09-15T13:25:41Z</time>
      </trkpt>
      <trkpt lat="43.4366650" lon="-5.8561250">
        <ele>160.4</ele>
        <time>2018-09-15T13:25:42Z</time>
      </trkpt>
      <trkpt lat="43.4366680" lon="-5.8562070">
        <ele>160.4</ele>
        <time>2018-09-15T13:25:43Z</time>
      </trkpt>
      <trkpt lat="43.4366700" lon="-5.8562880">
        <ele>160.6</ele>
        <time>2018-09-15T13:25:44Z</time>
      </trkpt>
      <trkpt lat="43.4366650" lon="-5.8563740">
        <ele>160.7</ele>
        <time>2018-09-15T13:25:45Z</time>
      </trkpt>
      <trkpt lat="43.4366660" lon="-5.8564590">
        <ele>160.8</ele>
        <time>2018-09-15T13:25:46Z</time>
      </trkpt>
      <trkpt lat="43.4366560" lon="-5.8565420">
        <ele>160.8</ele>
        <time>2018-09-15T13:25:47Z</time>
      </trkpt>
      <trkpt lat="43.4366460" lon="-5.8566310">
        <ele>160.9</ele>
        <time>2018-09-15T13:25:48Z</time>
      </trkpt>
      <trkpt lat="43.4366350" lon="-5.8567170">
        <ele>161.0</ele>
        <time>2018-09-15T13:25:49Z</time>
      </trkpt>
      <trkpt lat="43.4366180" lon="-5.8568080">
        <ele>161.0</ele>
        <time>2018-09-15T13:25:50Z</time>
      </trkpt>
      <trkpt lat="43.4366000" lon="-5.8568940">
        <ele>161.1</ele>
        <time>2018-09-15T13:25:51Z</time>
      </trkpt>
      <trkpt lat="43.4365830" lon="-5.8569830">
        <ele>161.2</ele>
        <time>2018-09-15T13:25:52Z</time>
      </trkpt>
      <trkpt lat="43.4365660" lon="-5.8570720">
        <ele>161.2</ele>
        <time>2018-09-15T13:25:53Z</time>
      </trkpt>
      <trkpt lat="43.4365470" lon="-5.8571600">
        <ele>161.3</ele>
        <time>2018-09-15T13:25:54Z</time>
      </trkpt>
      <trkpt lat="43.4365310" lon="-5.8572490">
        <ele>161.3</ele>
        <time>2018-09-15T13:25:55Z</time>
      </trkpt>
      <trkpt lat="43.4365110" lon="-5.8573380">
        <ele>161.4</ele>
        <time>2018-09-15T13:25:56Z</time>
      </trkpt>
      <trkpt lat="43.4364940" lon="-5.8574280">
        <ele>161.5</ele>
        <time>2018-09-15T13:25:57Z</time>
      </trkpt>
      <trkpt lat="43.4364740" lon="-5.8575140">
        <ele>161.5</ele>
        <time>2018-09-15T13:25:58Z</time>
      </trkpt>
      <trkpt lat="43.4364570" lon="-5.8576050">
        <ele>161.6</ele>
        <time>2018-09-15T13:25:59Z</time>
      </trkpt>
      <trkpt lat="43.4364390" lon="-5.8576960">
        <ele>161.6</ele>
        <time>2018-09-15T13:26:00Z</time>
      </trkpt>
      <trkpt lat="43.4364200" lon="-5.8577860">
        <ele>161.7</ele>
        <time>2018-09-15T13:26:01Z</time>
      </trkpt>
      <trkpt lat="43.4363980" lon="-5.8578750">
        <ele>161.7</ele>
        <time>2018-09-15T13:26:02Z</time>
      </trkpt>
      <trkpt lat="43.4363790" lon="-5.8579620">
        <ele>161.8</ele>
        <time>2018-09-15T13:26:03Z</time>
      </trkpt>
      <trkpt lat="43.4363650" lon="-5.8580500">
        <ele>161.8</ele>
        <time>2018-09-15T13:26:04Z</time>
      </trkpt>
      <trkpt lat="43.4363460" lon="-5.8581410">
        <ele>161.9</ele>
        <time>2018-09-15T13:26:05Z</time>
      </trkpt>
      <trkpt lat="43.4363280" lon="-5.8582290">
        <ele>161.9</ele>
        <time>2018-09-15T13:26:06Z</time>
      </trkpt>
      <trkpt lat="43.4363160" lon="-5.8583150">
        <ele>162.0</ele>
        <time>2018-09-15T13:26:07Z</time>
      </trkpt>
      <trkpt lat="43.4363000" lon="-5.8584020">
        <ele>162.1</ele>
        <time>2018-09-15T13:26:08Z</time>
      </trkpt>
      <trkpt lat="43.4362830" lon="-5.8584860">
        <ele>162.2</ele>
        <time>2018-09-15T13:26:09Z</time>
      </trkpt>
      <trkpt lat="43.4362640" lon="-5.8585720">
        <ele>162.3</ele>
        <time>2018-09-15T13:26:10Z</time>
      </trkpt>
      <trkpt lat="43.4362480" lon="-5.8586540">
        <ele>162.3</ele>
        <time>2018-09-15T13:26:11Z</time>
      </trkpt>
      <trkpt lat="43.4362310" lon="-5.8587360">
        <ele>162.4</ele>
        <time>2018-09-15T13:26:12Z</time>
      </trkpt>
      <trkpt lat="43.4362150" lon="-5.8588200">
        <ele>162.5</ele>
        <time>2018-09-15T13:26:13Z</time>
      </trkpt>
      <trkpt lat="43.4361950" lon="-5.8589030">
        <ele>162.5</ele>
        <time>2018-09-15T13:26:14Z</time>
      </trkpt>
      <trkpt lat="43.4361780" lon="-5.8589840">
        <ele>162.6</ele>
        <time>2018-09-15T13:26:15Z</time>
      </trkpt>
      <trkpt lat="43.4361600" lon="-5.8590670">
        <ele>162.6</ele>
        <time>2018-09-15T13:26:16Z</time>
      </trkpt>
      <trkpt lat="43.4361440" lon="-5.8591440">
        <ele>162.7</ele>
        <time>2018-09-15T13:26:17Z</time>
      </trkpt>
      <trkpt lat="43.4361290" lon="-5.8592200">
        <ele>162.7</ele>
        <time>2018-09-15T13:26:18Z</time>
      </trkpt>
      <trkpt lat="43.4361140" lon="-5.8592940">
        <ele>162.8</ele>
        <time>2018-09-15T13:26:19Z</time>
      </trkpt>
      <trkpt lat="43.4360970" lon="-5.8593710">
        <ele>162.9</ele>
        <time>2018-09-15T13:26:20Z</time>
      </trkpt>
      <trkpt lat="43.4360840" lon="-5.8594420">
        <ele>162.9</ele>
        <time>2018-09-15T13:26:21Z</time>
      </trkpt>
      <trkpt lat="43.4360560" lon="-5.8595920">
        <ele>163.1</ele>
        <time>2018-09-15T13:26:23Z</time>
      </trkpt>
      <trkpt lat="43.4360430" lon="-5.8596680">
        <ele>163.2</ele>
        <time>2018-09-15T13:26:24Z</time>
      </trkpt>
      <trkpt lat="43.4360310" lon="-5.8597420">
        <ele>163.2</ele>
        <time>2018-09-15T13:26:25Z</time>
      </trkpt>
      <trkpt lat="43.4360150" lon="-5.8598160">
        <ele>163.3</ele>
        <time>2018-09-15T13:26:26Z</time>
      </trkpt>
      <trkpt lat="43.4359990" lon="-5.8598900">
        <ele>163.4</ele>
        <time>2018-09-15T13:26:27Z</time>
      </trkpt>
      <trkpt lat="43.4359880" lon="-5.8599610">
        <ele>163.5</ele>
        <time>2018-09-15T13:26:28Z</time>
      </trkpt>
      <trkpt lat="43.4359720" lon="-5.8600370">
        <ele>163.6</ele>
        <time>2018-09-15T13:26:29Z</time>
      </trkpt>
      <trkpt lat="43.4359580" lon="-5.8601110">
        <ele>163.7</ele>
        <time>2018-09-15T13:26:30Z</time>
      </trkpt>
      <trkpt lat="43.4359450" lon="-5.8601840">
        <ele>163.9</ele>
        <time>2018-09-15T13:26:31Z</time>
      </trkpt>
      <trkpt lat="43.4359300" lon="-5.8602590">
        <ele>164.0</ele>
        <time>2018-09-15T13:26:32Z</time>
      </trkpt>
      <trkpt lat="43.4359170" lon="-5.8603330">
        <ele>164.1</ele>
        <time>2018-09-15T13:26:33Z</time>
      </trkpt>
      <trkpt lat="43.4359040" lon="-5.8604060">
        <ele>164.3</ele>
        <time>2018-09-15T13:26:34Z</time>
      </trkpt>
      <trkpt lat="43.4358910" lon="-5.8604830">
        <ele>164.7</ele>
        <time>2018-09-15T13:26:35Z</time>
      </trkpt>
      <trkpt lat="43.4358750" lon="-5.8605550">
        <ele>165.1</ele>
        <time>2018-09-15T13:26:36Z</time>
      </trkpt>
      <trkpt lat="43.4358600" lon="-5.8606310">
        <ele>165.5</ele>
        <time>2018-09-15T13:26:37Z</time>
      </trkpt>
      <trkpt lat="43.4358450" lon="-5.8607090">
        <ele>165.9</ele>
        <time>2018-09-15T13:26:38Z</time>
      </trkpt>
      <trkpt lat="43.4358310" lon="-5.8607800">
        <ele>166.3</ele>
        <time>2018-09-15T13:26:39Z</time>
      </trkpt>
      <trkpt lat="43.4358190" lon="-5.8608550">
        <ele>166.6</ele>
        <time>2018-09-15T13:26:40Z</time>
      </trkpt>
      <trkpt lat="43.4358030" lon="-5.8609270">
        <ele>166.7</ele>
        <time>2018-09-15T13:26:41Z</time>
      </trkpt>
      <trkpt lat="43.4357920" lon="-5.8609980">
        <ele>166.9</ele>
        <time>2018-09-15T13:26:42Z</time>
      </trkpt>
      <trkpt lat="43.4357770" lon="-5.8610680">
        <ele>167.0</ele>
        <time>2018-09-15T13:26:43Z</time>
      </trkpt>
      <trkpt lat="43.4357630" lon="-5.8611420">
        <ele>167.2</ele>
        <time>2018-09-15T13:26:44Z</time>
      </trkpt>
      <trkpt lat="43.4357490" lon="-5.8612110">
        <ele>167.3</ele>
        <time>2018-09-15T13:26:45Z</time>
      </trkpt>
      <trkpt lat="43.4357390" lon="-5.8612810">
        <ele>167.4</ele>
        <time>2018-09-15T13:26:46Z</time>
      </trkpt>
      <trkpt lat="43.4357250" lon="-5.8613500">
        <ele>167.5</ele>
        <time>2018-09-15T13:26:47Z</time>
      </trkpt>
      <trkpt lat="43.4357110" lon="-5.8614220">
        <ele>167.6</ele>
        <time>2018-09-15T13:26:48Z</time>
      </trkpt>
      <trkpt lat="43.4356970" lon="-5.8614920">
        <ele>167.7</ele>
        <time>2018-09-15T13:26:49Z</time>
      </trkpt>
      <trkpt lat="43.4356830" lon="-5.8615690">
        <ele>167.8</ele>
        <time>2018-09-15T13:26:50Z</time>
      </trkpt>
      <trkpt lat="43.4356680" lon="-5.8616440">
        <ele>167.9</ele>
        <time>2018-09-15T13:26:51Z</time>
      </trkpt>
      <trkpt lat="43.4356540" lon="-5.8617180">
        <ele>168.0</ele>
        <time>2018-09-15T13:26:52Z</time>
      </trkpt>
      <trkpt lat="43.4356430" lon="-5.8617860">
        <ele>168.1</ele>
        <time>2018-09-15T13:26:53Z</time>
      </trkpt>
      <trkpt lat="43.4356300" lon="-5.8618550">
        <ele>168.2</ele>
        <time>2018-09-15T13:26:54Z</time>
      </trkpt>
      <trkpt lat="43.4356160" lon="-5.8619290">
        <ele>168.4</ele>
        <time>2018-09-15T13:26:55Z</time>
      </trkpt>
      <trkpt lat="43.4356070" lon="-5.8619990">
        <ele>168.5</ele>
        <time>2018-09-15T13:26:56Z</time>
      </trkpt>
      <trkpt lat="43.4355900" lon="-5.8620670">
        <ele>168.7</ele>
        <time>2018-09-15T13:26:57Z</time>
      </trkpt>
      <trkpt lat="43.4355720" lon="-5.8621350">
        <ele>168.8</ele>
        <time>2018-09-15T13:26:58Z</time>
      </trkpt>
      <trkpt lat="43.4355580" lon="-5.8622080">
        <ele>169.0</ele>
        <time>2018-09-15T13:26:59Z</time>
      </trkpt>
      <trkpt lat="43.4355430" lon="-5.8622720">
        <ele>169.1</ele>
        <time>2018-09-15T13:27:00Z</time>
      </trkpt>
      <trkpt lat="43.4355310" lon="-5.8623430">
        <ele>169.3</ele>
        <time>2018-09-15T13:27:01Z</time>
      </trkpt>
      <trkpt lat="43.4355190" lon="-5.8624150">
        <ele>169.4</ele>
        <time>2018-09-15T13:27:02Z</time>
      </trkpt>
      <trkpt lat="43.4355020" lon="-5.8624850">
        <ele>169.5</ele>
        <time>2018-09-15T13:27:03Z</time>
      </trkpt>
      <trkpt lat="43.4354900" lon="-5.8625540">
        <ele>169.7</ele>
        <time>2018-09-15T13:27:04Z</time>
      </trkpt>
      <trkpt lat="43.4354760" lon="-5.8626230">
        <ele>169.9</ele>
        <time>2018-09-15T13:27:05Z</time>
      </trkpt>
      <trkpt lat="43.4354630" lon="-5.8626960">
        <ele>170.2</ele>
        <time>2018-09-15T13:27:06Z</time>
      </trkpt>
      <trkpt lat="43.4354460" lon="-5.8627670">
        <ele>170.4</ele>
        <time>2018-09-15T13:27:07Z</time>
      </trkpt>
      <trkpt lat="43.4354310" lon="-5.8628380">
        <ele>170.5</ele>
        <time>2018-09-15T13:27:08Z</time>
      </trkpt>
      <trkpt lat="43.4354190" lon="-5.8629070">
        <ele>170.5</ele>
        <time>2018-09-15T13:27:09Z</time>
      </trkpt>
      <trkpt lat="43.4354080" lon="-5.8629790">
        <ele>170.6</ele>
        <time>2018-09-15T13:27:10Z</time>
      </trkpt>
      <trkpt lat="43.4353930" lon="-5.8630510">
        <ele>170.6</ele>
        <time>2018-09-15T13:27:11Z</time>
      </trkpt>
      <trkpt lat="43.4353840" lon="-5.8631190">
        <ele>170.6</ele>
        <time>2018-09-15T13:27:12Z</time>
      </trkpt>
      <trkpt lat="43.4353720" lon="-5.8631900">
        <ele>170.7</ele>
        <time>2018-09-15T13:27:13Z</time>
      </trkpt>
      <trkpt lat="43.4353530" lon="-5.8632650">
        <ele>170.7</ele>
        <time>2018-09-15T13:27:14Z</time>
      </trkpt>
      <trkpt lat="43.4353380" lon="-5.8633290">
        <ele>170.7</ele>
        <time>2018-09-15T13:27:15Z</time>
      </trkpt>
      <trkpt lat="43.4353270" lon="-5.8633970">
        <ele>170.8</ele>
        <time>2018-09-15T13:27:16Z</time>
      </trkpt>
      <trkpt lat="43.4353140" lon="-5.8634640">
        <ele>170.8</ele>
        <time>2018-09-15T13:27:17Z</time>
      </trkpt>
      <trkpt lat="43.4352990" lon="-5.8635300">
        <ele>170.8</ele>
        <time>2018-09-15T13:27:18Z</time>
      </trkpt>
      <trkpt lat="43.4352870" lon="-5.8636000">
        <ele>170.9</ele>
        <time>2018-09-15T13:27:19Z</time>
      </trkpt>
      <trkpt lat="43.4352710" lon="-5.8636650">
        <ele>170.9</ele>
        <time>2018-09-15T13:27:20Z</time>
      </trkpt>
      <trkpt lat="43.4352600" lon="-5.8637390">
        <ele>170.9</ele>
        <time>2018-09-15T13:27:21Z</time>
      </trkpt>
      <trkpt lat="43.4352430" lon="-5.8638080">
        <ele>171.0</ele>
        <time>2018-09-15T13:27:22Z</time>
      </trkpt>
      <trkpt lat="43.4352290" lon="-5.8638760">
        <ele>171.0</ele>
        <time>2018-09-15T13:27:23Z</time>
      </trkpt>
      <trkpt lat="43.4352180" lon="-5.8639470">
        <ele>171.0</ele>
        <time>2018-09-15T13:27:24Z</time>
      </trkpt>
      <trkpt lat="43.4352070" lon="-5.8640180">
        <ele>171.1</ele>
        <time>2018-09-15T13:27:25Z</time>
      </trkpt>
      <trkpt lat="43.4351950" lon="-5.8640870">
        <ele>171.1</ele>
        <time>2018-09-15T13:27:26Z</time>
      </trkpt>
      <trkpt lat="43.4351840" lon="-5.8641540">
        <ele>171.1</ele>
        <time>2018-09-15T13:27:27Z</time>
      </trkpt>
      <trkpt lat="43.4351720" lon="-5.8642170">
        <ele>171.1</ele>
        <time>2018-09-15T13:27:28Z</time>
      </trkpt>
      <trkpt lat="43.4351610" lon="-5.8642840">
        <ele>171.2</ele>
        <time>2018-09-15T13:27:29Z</time>
      </trkpt>
      <trkpt lat="43.4351520" lon="-5.8643500">
        <ele>171.4</ele>
        <time>2018-09-15T13:27:30Z</time>
      </trkpt>
      <trkpt lat="43.4351330" lon="-5.8644190">
        <ele>171.6</ele>
        <time>2018-09-15T13:27:31Z</time>
      </trkpt>
      <trkpt lat="43.4351180" lon="-5.8644810">
        <ele>171.8</ele>
        <time>2018-09-15T13:27:32Z</time>
      </trkpt>
      <trkpt lat="43.4351050" lon="-5.8645490">
        <ele>172.1</ele>
        <time>2018-09-15T13:27:33Z</time>
      </trkpt>
      <trkpt lat="43.4350900" lon="-5.8646160">
        <ele>172.4</ele>
        <time>2018-09-15T13:27:34Z</time>
      </trkpt>
      <trkpt lat="43.4350780" lon="-5.8646820">
        <ele>172.6</ele>
        <time>2018-09-15T13:27:35Z</time>
      </trkpt>
      <trkpt lat="43.4350640" lon="-5.8647490">
        <ele>172.6</ele>
        <time>2018-09-15T13:27:36Z</time>
      </trkpt>
      <trkpt lat="43.4350530" lon="-5.8648170">
        <ele>172.7</ele>
        <time>2018-09-15T13:27:37Z</time>
      </trkpt>
      <trkpt lat="43.4350410" lon="-5.8648830">
        <ele>172.8</ele>
        <time>2018-09-15T13:27:38Z</time>
      </trkpt>
      <trkpt lat="43.4350310" lon="-5.8649500">
        <ele>172.8</ele>
        <time>2018-09-15T13:27:39Z</time>
      </trkpt>
      <trkpt lat="43.4350210" lon="-5.8650180">
        <ele>172.9</ele>
        <time>2018-09-15T13:27:40Z</time>
      </trkpt>
      <trkpt lat="43.4350070" lon="-5.8650870">
        <ele>172.9</ele>
        <time>2018-09-15T13:27:41Z</time>
      </trkpt>
      <trkpt lat="43.4349950" lon="-5.8651540">
        <ele>172.9</ele>
        <time>2018-09-15T13:27:42Z</time>
      </trkpt>
      <trkpt lat="43.4349780" lon="-5.8652260">
        <ele>172.9</ele>
        <time>2018-09-15T13:27:43Z</time>
      </trkpt>
      <trkpt lat="43.4349660" lon="-5.8652970">
        <ele>172.9</ele>
        <time>2018-09-15T13:27:44Z</time>
      </trkpt>
      <trkpt lat="43.4349530" lon="-5.8653720">
        <ele>172.9</ele>
        <time>2018-09-15T13:27:45Z</time>
      </trkpt>
      <trkpt lat="43.4349340" lon="-5.8654490">
        <ele>172.9</ele>
        <time>2018-09-15T13:27:46Z</time>
      </trkpt>
      <trkpt lat="43.4349150" lon="-5.8655280">
        <ele>172.9</ele>
        <time>2018-09-15T13:27:47Z</time>
      </trkpt>
      <trkpt lat="43.4348980" lon="-5.8656070">
        <ele>173.0</ele>
        <time>2018-09-15T13:27:48Z</time>
      </trkpt>
      <trkpt lat="43.4348800" lon="-5.8656870">
        <ele>173.0</ele>
        <time>2018-09-15T13:27:49Z</time>
      </trkpt>
      <trkpt lat="43.4348650" lon="-5.8657700">
        <ele>173.0</ele>
        <time>2018-09-15T13:27:50Z</time>
      </trkpt>
      <trkpt lat="43.4348480" lon="-5.8658560">
        <ele>173.0</ele>
        <time>2018-09-15T13:27:51Z</time>
      </trkpt>
      <trkpt lat="43.4348300" lon="-5.8659440">
        <ele>173.0</ele>
        <time>2018-09-15T13:27:52Z</time>
      </trkpt>
      <trkpt lat="43.4348160" lon="-5.8660310">
        <ele>173.0</ele>
        <time>2018-09-15T13:27:53Z</time>
      </trkpt>
      <trkpt lat="43.4348010" lon="-5.8661230">
        <ele>173.0</ele>
        <time>2018-09-15T13:27:54Z</time>
      </trkpt>
      <trkpt lat="43.4347830" lon="-5.8662150">
        <ele>173.0</ele>
        <time>2018-09-15T13:27:55Z</time>
      </trkpt>
      <trkpt lat="43.4347660" lon="-5.8663030">
        <ele>173.0</ele>
        <time>2018-09-15T13:27:56Z</time>
      </trkpt>
      <trkpt lat="43.4347500" lon="-5.8663960">
        <ele>173.0</ele>
        <time>2018-09-15T13:27:57Z</time>
      </trkpt>
      <trkpt lat="43.4347330" lon="-5.8664890">
        <ele>173.0</ele>
        <time>2018-09-15T13:27:58Z</time>
      </trkpt>
      <trkpt lat="43.4347160" lon="-5.8665840">
        <ele>173.0</ele>
        <time>2018-09-15T13:27:59Z</time>
      </trkpt>
      <trkpt lat="43.4346990" lon="-5.8666800">
        <ele>173.0</ele>
        <time>2018-09-15T13:28:00Z</time>
      </trkpt>
      <trkpt lat="43.4346770" lon="-5.8667780">
        <ele>172.9</ele>
        <time>2018-09-15T13:28:01Z</time>
      </trkpt>
      <trkpt lat="43.4346590" lon="-5.8668740">
        <ele>172.9</ele>
        <time>2018-09-15T13:28:02Z</time>
      </trkpt>
      <trkpt lat="43.4346400" lon="-5.8669700">
        <ele>172.9</ele>
        <time>2018-09-15T13:28:03Z</time>
      </trkpt>
      <trkpt lat="43.4346190" lon="-5.8670630">
        <ele>172.9</ele>
        <time>2018-09-15T13:28:04Z</time>
      </trkpt>
      <trkpt lat="43.4346030" lon="-5.8671590">
        <ele>172.9</ele>
        <time>2018-09-15T13:28:05Z</time>
      </trkpt>
      <trkpt lat="43.4345810" lon="-5.8672510">
        <ele>172.9</ele>
        <time>2018-09-15T13:28:06Z</time>
      </trkpt>
      <trkpt lat="43.4345640" lon="-5.8673480">
        <ele>172.9</ele>
        <time>2018-09-15T13:28:07Z</time>
      </trkpt>
      <trkpt lat="43.4345440" lon="-5.8674370">
        <ele>172.8</ele>
        <time>2018-09-15T13:28:08Z</time>
      </trkpt>
      <trkpt lat="43.4345260" lon="-5.8675340">
        <ele>172.8</ele>
        <time>2018-09-15T13:28:09Z</time>
      </trkpt>
      <trkpt lat="43.4345070" lon="-5.8676290">
        <ele>172.8</ele>
        <time>2018-09-15T13:28:10Z</time>
      </trkpt>
      <trkpt lat="43.4344880" lon="-5.8677200">
        <ele>172.7</ele>
        <time>2018-09-15T13:28:11Z</time>
      </trkpt>
      <trkpt lat="43.4344740" lon="-5.8678150">
        <ele>172.7</ele>
        <time>2018-09-15T13:28:12Z</time>
      </trkpt>
      <trkpt lat="43.4344540" lon="-5.8679110">
        <ele>172.6</ele>
        <time>2018-09-15T13:28:13Z</time>
      </trkpt>
      <trkpt lat="43.4344350" lon="-5.8680080">
        <ele>172.5</ele>
        <time>2018-09-15T13:28:14Z</time>
      </trkpt>
      <trkpt lat="43.4344160" lon="-5.8681000">
        <ele>172.4</ele>
        <time>2018-09-15T13:28:15Z</time>
      </trkpt>
      <trkpt lat="43.4344010" lon="-5.8681940">
        <ele>172.3</ele>
        <time>2018-09-15T13:28:16Z</time>
      </trkpt>
      <trkpt lat="43.4343800" lon="-5.8682900">
        <ele>172.1</ele>
        <time>2018-09-15T13:28:17Z</time>
      </trkpt>
      <trkpt lat="43.4343580" lon="-5.8683870">
        <ele>171.8</ele>
        <time>2018-09-15T13:28:18Z</time>
      </trkpt>
      <trkpt lat="43.4343400" lon="-5.8684880">
        <ele>171.5</ele>
        <time>2018-09-15T13:28:19Z</time>
      </trkpt>
      <trkpt lat="43.4343230" lon="-5.8685820">
        <ele>171.2</ele>
        <time>2018-09-15T13:28:20Z</time>
      </trkpt>
      <trkpt lat="43.4343080" lon="-5.8686720">
        <ele>170.9</ele>
        <time>2018-09-15T13:28:21Z</time>
      </trkpt>
      <trkpt lat="43.4342880" lon="-5.8687680">
        <ele>170.7</ele>
        <time>2018-09-15T13:28:22Z</time>
      </trkpt>
      <trkpt lat="43.4342720" lon="-5.8688630">
        <ele>170.6</ele>
        <time>2018-09-15T13:28:23Z</time>
      </trkpt>
      <trkpt lat="43.4342540" lon="-5.8689550">
        <ele>170.5</ele>
        <time>2018-09-15T13:28:24Z</time>
      </trkpt>
      <trkpt lat="43.4342370" lon="-5.8690530">
        <ele>170.4</ele>
        <time>2018-09-15T13:28:25Z</time>
      </trkpt>
      <trkpt lat="43.4342210" lon="-5.8691470">
        <ele>170.4</ele>
        <time>2018-09-15T13:28:26Z</time>
      </trkpt>
      <trkpt lat="43.4341990" lon="-5.8692450">
        <ele>170.3</ele>
        <time>2018-09-15T13:28:27Z</time>
      </trkpt>
      <trkpt lat="43.4341840" lon="-5.8693420">
        <ele>170.3</ele>
        <time>2018-09-15T13:28:28Z</time>
      </trkpt>
      <trkpt lat="43.4341670" lon="-5.8694350">
        <ele>170.2</ele>
        <time>2018-09-15T13:28:29Z</time>
      </trkpt>
      <trkpt lat="43.4341470" lon="-5.8695350">
        <ele>170.2</ele>
        <time>2018-09-15T13:28:30Z</time>
      </trkpt>
      <trkpt lat="43.4341280" lon="-5.8696360">
        <ele>170.2</ele>
        <time>2018-09-15T13:28:31Z</time>
      </trkpt>
      <trkpt lat="43.4341070" lon="-5.8697360">
        <ele>170.1</ele>
        <time>2018-09-15T13:28:32Z</time>
      </trkpt>
      <trkpt lat="43.4340840" lon="-5.8698450">
        <ele>170.1</ele>
        <time>2018-09-15T13:28:33Z</time>
      </trkpt>
      <trkpt lat="43.4340680" lon="-5.8699540">
        <ele>170.1</ele>
        <time>2018-09-15T13:28:34Z</time>
      </trkpt>
      <trkpt lat="43.4340450" lon="-5.8700550">
        <ele>170.1</ele>
        <time>2018-09-15T13:28:35Z</time>
      </trkpt>
      <trkpt lat="43.4340260" lon="-5.8701600">
        <ele>170.0</ele>
        <time>2018-09-15T13:28:36Z</time>
      </trkpt>
      <trkpt lat="43.4340020" lon="-5.8702650">
        <ele>170.0</ele>
        <time>2018-09-15T13:28:37Z</time>
      </trkpt>
      <trkpt lat="43.4339820" lon="-5.8703720">
        <ele>170.0</ele>
        <time>2018-09-15T13:28:38Z</time>
      </trkpt>
      <trkpt lat="43.4339650" lon="-5.8704750">
        <ele>170.0</ele>
        <time>2018-09-15T13:28:39Z</time>
      </trkpt>
      <trkpt lat="43.4339460" lon="-5.8705790">
        <ele>170.0</ele>
        <time>2018-09-15T13:28:40Z</time>
      </trkpt>
      <trkpt lat="43.4339270" lon="-5.8706830">
        <ele>170.0</ele>
        <time>2018-09-15T13:28:41Z</time>
      </trkpt>
      <trkpt lat="43.4339050" lon="-5.8707820">
        <ele>170.0</ele>
        <time>2018-09-15T13:28:42Z</time>
      </trkpt>
      <trkpt lat="43.4338850" lon="-5.8708850">
        <ele>170.0</ele>
        <time>2018-09-15T13:28:43Z</time>
      </trkpt>
      <trkpt lat="43.4338650" lon="-5.8709850">
        <ele>170.0</ele>
        <time>2018-09-15T13:28:44Z</time>
      </trkpt>
      <trkpt lat="43.4338450" lon="-5.8710850">
        <ele>170.0</ele>
        <time>2018-09-15T13:28:45Z</time>
      </trkpt>
      <trkpt lat="43.4338230" lon="-5.8711870">
        <ele>170.0</ele>
        <time>2018-09-15T13:28:46Z</time>
      </trkpt>
      <trkpt lat="43.4338050" lon="-5.8712810">
        <ele>170.0</ele>
        <time>2018-09-15T13:28:47Z</time>
      </trkpt>
      <trkpt lat="43.4337870" lon="-5.8713810">
        <ele>170.0</ele>
        <time>2018-09-15T13:28:48Z</time>
      </trkpt>
      <trkpt lat="43.4337660" lon="-5.8714770">
        <ele>169.9</ele>
        <time>2018-09-15T13:28:49Z</time>
      </trkpt>
      <trkpt lat="43.4337530" lon="-5.8715710">
        <ele>170.0</ele>
        <time>2018-09-15T13:28:50Z</time>
      </trkpt>
      <trkpt lat="43.4337360" lon="-5.8716670">
        <ele>170.0</ele>
        <time>2018-09-15T13:28:51Z</time>
      </trkpt>
      <trkpt lat="43.4337140" lon="-5.8717640">
        <ele>170.4</ele>
        <time>2018-09-15T13:28:52Z</time>
      </trkpt>
      <trkpt lat="43.4336990" lon="-5.8718580">
        <ele>170.8</ele>
        <time>2018-09-15T13:28:53Z</time>
      </trkpt>
      <trkpt lat="43.4336850" lon="-5.8719550">
        <ele>171.1</ele>
        <time>2018-09-15T13:28:54Z</time>
      </trkpt>
      <trkpt lat="43.4336730" lon="-5.8720480">
        <ele>171.5</ele>
        <time>2018-09-15T13:28:55Z</time>
      </trkpt>
      <trkpt lat="43.4336620" lon="-5.8721420">
        <ele>171.9</ele>
        <time>2018-09-15T13:28:56Z</time>
      </trkpt>
      <trkpt lat="43.4336570" lon="-5.8722400">
        <ele>172.4</ele>
        <time>2018-09-15T13:28:57Z</time>
      </trkpt>
      <trkpt lat="43.4336640" lon="-5.8723330">
        <ele>172.9</ele>
        <time>2018-09-15T13:28:58Z</time>
      </trkpt>
      <trkpt lat="43.4336700" lon="-5.8724230">
        <ele>173.5</ele>
        <time>2018-09-15T13:28:59Z</time>
      </trkpt>
      <trkpt lat="43.4336750" lon="-5.8725110">
        <ele>173.9</ele>
        <time>2018-09-15T13:29:00Z</time>
      </trkpt>
      <trkpt lat="43.4336790" lon="-5.8726060">
        <ele>174.3</ele>
        <time>2018-09-15T13:29:01Z</time>
      </trkpt>
      <trkpt lat="43.4336850" lon="-5.8726980">
        <ele>174.6</ele>
        <time>2018-09-15T13:29:02Z</time>
      </trkpt>
      <trkpt lat="43.4336870" lon="-5.8727880">
        <ele>174.9</ele>
        <time>2018-09-15T13:29:03Z</time>
      </trkpt>
      <trkpt lat="43.4336860" lon="-5.8728760">
        <ele>175.2</ele>
        <time>2018-09-15T13:29:04Z</time>
      </trkpt>
      <trkpt lat="43.4336900" lon="-5.8729630">
        <ele>175.6</ele>
        <time>2018-09-15T13:29:05Z</time>
      </trkpt>
      <trkpt lat="43.4336920" lon="-5.8730510">
        <ele>175.9</ele>
        <time>2018-09-15T13:29:06Z</time>
      </trkpt>
      <trkpt lat="43.4336970" lon="-5.8731350">
        <ele>176.2</ele>
        <time>2018-09-15T13:29:07Z</time>
      </trkpt>
      <trkpt lat="43.4336980" lon="-5.8732210">
        <ele>176.5</ele>
        <time>2018-09-15T13:29:08Z</time>
      </trkpt>
      <trkpt lat="43.4337030" lon="-5.8733050">
        <ele>176.8</ele>
        <time>2018-09-15T13:29:09Z</time>
      </trkpt>
      <trkpt lat="43.4337060" lon="-5.8733900">
        <ele>177.0</ele>
        <time>2018-09-15T13:29:10Z</time>
      </trkpt>
      <trkpt lat="43.4337080" lon="-5.8734770">
        <ele>177.0</ele>
        <time>2018-09-15T13:29:11Z</time>
      </trkpt>
      <trkpt lat="43.4337130" lon="-5.8735630">
        <ele>177.0</ele>
        <time>2018-09-15T13:29:12Z</time>
      </trkpt>
      <trkpt lat="43.4337170" lon="-5.8736450">
        <ele>177.1</ele>
        <time>2018-09-15T13:29:13Z</time>
      </trkpt>
      <trkpt lat="43.4337230" lon="-5.8737300">
        <ele>177.1</ele>
        <time>2018-09-15T13:29:14Z</time>
      </trkpt>
      <trkpt lat="43.4337240" lon="-5.8738090">
        <ele>177.1</ele>
        <time>2018-09-15T13:29:15Z</time>
      </trkpt>
      <trkpt lat="43.4337300" lon="-5.8738910">
        <ele>177.1</ele>
        <time>2018-09-15T13:29:16Z</time>
      </trkpt>
      <trkpt lat="43.4337360" lon="-5.8739720">
        <ele>177.1</ele>
        <time>2018-09-15T13:29:17Z</time>
      </trkpt>
      <trkpt lat="43.4337380" lon="-5.8740530">
        <ele>177.1</ele>
        <time>2018-09-15T13:29:18Z</time>
      </trkpt>
      <trkpt lat="43.4337400" lon="-5.8741340">
        <ele>177.2</ele>
        <time>2018-09-15T13:29:19Z</time>
      </trkpt>
      <trkpt lat="43.4337410" lon="-5.8742150">
        <ele>177.2</ele>
        <time>2018-09-15T13:29:20Z</time>
      </trkpt>
      <trkpt lat="43.4337450" lon="-5.8742970">
        <ele>177.2</ele>
        <time>2018-09-15T13:29:21Z</time>
      </trkpt>
      <trkpt lat="43.4337490" lon="-5.8743810">
        <ele>177.2</ele>
        <time>2018-09-15T13:29:22Z</time>
      </trkpt>
      <trkpt lat="43.4337530" lon="-5.8744660">
        <ele>177.2</ele>
        <time>2018-09-15T13:29:23Z</time>
      </trkpt>
      <trkpt lat="43.4337540" lon="-5.8745490">
        <ele>177.3</ele>
        <time>2018-09-15T13:29:24Z</time>
      </trkpt>
      <trkpt lat="43.4337540" lon="-5.8746340">
        <ele>177.3</ele>
        <time>2018-09-15T13:29:25Z</time>
      </trkpt>
      <trkpt lat="43.4337490" lon="-5.8747230">
        <ele>177.3</ele>
        <time>2018-09-15T13:29:26Z</time>
      </trkpt>
      <trkpt lat="43.4337460" lon="-5.8748090">
        <ele>177.3</ele>
        <time>2018-09-15T13:29:27Z</time>
      </trkpt>
      <trkpt lat="43.4337470" lon="-5.8748980">
        <ele>177.3</ele>
        <time>2018-09-15T13:29:28Z</time>
      </trkpt>
      <trkpt lat="43.4337500" lon="-5.8749850">
        <ele>177.4</ele>
        <time>2018-09-15T13:29:29Z</time>
      </trkpt>
      <trkpt lat="43.4337540" lon="-5.8750770">
        <ele>177.4</ele>
        <time>2018-09-15T13:29:30Z</time>
      </trkpt>
      <trkpt lat="43.4337550" lon="-5.8751640">
        <ele>177.4</ele>
        <time>2018-09-15T13:29:31Z</time>
      </trkpt>
      <trkpt lat="43.4337490" lon="-5.8752480">
        <ele>177.5</ele>
        <time>2018-09-15T13:29:32Z</time>
      </trkpt>
      <trkpt lat="43.4337470" lon="-5.8753340">
        <ele>177.5</ele>
        <time>2018-09-15T13:29:33Z</time>
      </trkpt>
      <trkpt lat="43.4337520" lon="-5.8754210">
        <ele>177.5</ele>
        <time>2018-09-15T13:29:34Z</time>
      </trkpt>
      <trkpt lat="43.4337510" lon="-5.8755080">
        <ele>177.5</ele>
        <time>2018-09-15T13:29:35Z</time>
      </trkpt>
      <trkpt lat="43.4337480" lon="-5.8756030">
        <ele>177.5</ele>
        <time>2018-09-15T13:29:36Z</time>
      </trkpt>
      <trkpt lat="43.4337440" lon="-5.8756890">
        <ele>177.6</ele>
        <time>2018-09-15T13:29:37Z</time>
      </trkpt>
      <trkpt lat="43.4337460" lon="-5.8757730">
        <ele>177.6</ele>
        <time>2018-09-15T13:29:38Z</time>
      </trkpt>
      <trkpt lat="43.4337470" lon="-5.8758560">
        <ele>177.6</ele>
        <time>2018-09-15T13:29:39Z</time>
      </trkpt>
      <trkpt lat="43.4337510" lon="-5.8759440">
        <ele>177.7</ele>
        <time>2018-09-15T13:29:40Z</time>
      </trkpt>
      <trkpt lat="43.4337540" lon="-5.8760310">
        <ele>177.7</ele>
        <time>2018-09-15T13:29:41Z</time>
      </trkpt>
      <trkpt lat="43.4337540" lon="-5.8761220">
        <ele>177.7</ele>
        <time>2018-09-15T13:29:42Z</time>
      </trkpt>
      <trkpt lat="43.4337520" lon="-5.8762150">
        <ele>177.8</ele>
        <time>2018-09-15T13:29:43Z</time>
      </trkpt>
      <trkpt lat="43.4337540" lon="-5.8763030">
        <ele>177.8</ele>
        <time>2018-09-15T13:29:44Z</time>
      </trkpt>
      <trkpt lat="43.4337560" lon="-5.8763940">
        <ele>177.9</ele>
        <time>2018-09-15T13:29:45Z</time>
      </trkpt>
      <trkpt lat="43.4337630" lon="-5.8764820">
        <ele>177.9</ele>
        <time>2018-09-15T13:29:46Z</time>
      </trkpt>
      <trkpt lat="43.4337750" lon="-5.8765710">
        <ele>177.9</ele>
        <time>2018-09-15T13:29:47Z</time>
      </trkpt>
      <trkpt lat="43.4337850" lon="-5.8766590">
        <ele>178.0</ele>
        <time>2018-09-15T13:29:48Z</time>
      </trkpt>
      <trkpt lat="43.4337930" lon="-5.8767380">
        <ele>178.0</ele>
        <time>2018-09-15T13:29:49Z</time>
      </trkpt>
      <trkpt lat="43.4338080" lon="-5.8768190">
        <ele>178.1</ele>
        <time>2018-09-15T13:29:50Z</time>
      </trkpt>
      <trkpt lat="43.4338230" lon="-5.8768990">
        <ele>178.1</ele>
        <time>2018-09-15T13:29:51Z</time>
      </trkpt>
      <trkpt lat="43.4338380" lon="-5.8769800">
        <ele>178.2</ele>
        <time>2018-09-15T13:29:52Z</time>
      </trkpt>
      <trkpt lat="43.4338550" lon="-5.8770590">
        <ele>178.3</ele>
        <time>2018-09-15T13:29:53Z</time>
      </trkpt>
      <trkpt lat="43.4338660" lon="-5.8771310">
        <ele>178.3</ele>
        <time>2018-09-15T13:29:54Z</time>
      </trkpt>
      <trkpt lat="43.4338850" lon="-5.8772110">
        <ele>178.4</ele>
        <time>2018-09-15T13:29:55Z</time>
      </trkpt>
      <trkpt lat="43.4338960" lon="-5.8772910">
        <ele>178.5</ele>
        <time>2018-09-15T13:29:56Z</time>
      </trkpt>
      <trkpt lat="43.4339120" lon="-5.8773650">
        <ele>178.7</ele>
        <time>2018-09-15T13:29:57Z</time>
      </trkpt>
      <trkpt lat="43.4339270" lon="-5.8774360">
        <ele>178.8</ele>
        <time>2018-09-15T13:29:58Z</time>
      </trkpt>
      <trkpt lat="43.4339390" lon="-5.8775140">
        <ele>179.0</ele>
        <time>2018-09-15T13:29:59Z</time>
      </trkpt>
      <trkpt lat="43.4339530" lon="-5.8775910">
        <ele>179.3</ele>
        <time>2018-09-15T13:30:00Z</time>
      </trkpt>
      <trkpt lat="43.4339660" lon="-5.8776630">
        <ele>179.6</ele>
        <time>2018-09-15T13:30:01Z</time>
      </trkpt>
      <trkpt lat="43.4339740" lon="-5.8777300">
        <ele>179.8</ele>
        <time>2018-09-15T13:30:02Z</time>
      </trkpt>
      <trkpt lat="43.4339880" lon="-5.8777900">
        <ele>180.1</ele>
        <time>2018-09-15T13:30:03Z</time>
      </trkpt>
      <trkpt lat="43.4340040" lon="-5.8778570">
        <ele>180.3</ele>
        <time>2018-09-15T13:30:04Z</time>
      </trkpt>
      <trkpt lat="43.4340060" lon="-5.8778840">
        <ele>180.4</ele>
        <time>2018-09-15T13:30:05Z</time>
      </trkpt>
      <trkpt lat="43.4340120" lon="-5.8779010">
        <ele>180.4</ele>
        <time>2018-09-15T13:30:06Z</time>
      </trkpt>
      <trkpt lat="43.4340160" lon="-5.8779140">
        <ele>180.4</ele>
        <time>2018-09-15T13:30:07Z</time>
      </trkpt>
      <trkpt lat="43.4340250" lon="-5.8779100">
        <ele>180.5</ele>
        <time>2018-09-15T13:30:32Z</time>
      </trkpt>
      <trkpt lat="43.4340250" lon="-5.8779130">
        <ele>180.5</ele>
        <time>2018-09-15T13:30:33Z</time>
      </trkpt>
      <trkpt lat="43.4340220" lon="-5.8779280">
        <ele>180.5</ele>
        <time>2018-09-15T13:30:34Z</time>
      </trkpt>
      <trkpt lat="43.4340190" lon="-5.8779460">
        <ele>180.5</ele>
        <time>2018-09-15T13:30:35Z</time>
      </trkpt>
      <trkpt lat="43.4340150" lon="-5.8779690">
        <ele>180.5</ele>
        <time>2018-09-15T13:30:36Z</time>
      </trkpt>
      <trkpt lat="43.4340130" lon="-5.8780030">
        <ele>180.6</ele>
        <time>2018-09-15T13:30:37Z</time>
      </trkpt>
      <trkpt lat="43.4340140" lon="-5.8780410">
        <ele>180.6</ele>
        <time>2018-09-15T13:30:38Z</time>
      </trkpt>
      <trkpt lat="43.4340230" lon="-5.8781300">
        <ele>180.7</ele>
        <time>2018-09-15T13:30:39Z</time>
      </trkpt>
      <trkpt lat="43.4340320" lon="-5.8781910">
        <ele>180.8</ele>
        <time>2018-09-15T13:30:40Z</time>
      </trkpt>
      <trkpt lat="43.4340380" lon="-5.8782480">
        <ele>180.8</ele>
        <time>2018-09-15T13:30:41Z</time>
      </trkpt>
      <trkpt lat="43.4340330" lon="-5.8783160">
        <ele>180.9</ele>
        <time>2018-09-15T13:30:42Z</time>
      </trkpt>
      <trkpt lat="43.4340330" lon="-5.8783820">
        <ele>181.0</ele>
        <time>2018-09-15T13:30:43Z</time>
      </trkpt>
      <trkpt lat="43.4340370" lon="-5.8784440">
        <ele>181.0</ele>
        <time>2018-09-15T13:30:45Z</time>
      </trkpt>
      <trkpt lat="43.4340380" lon="-5.8785230">
        <ele>181.0</ele>
        <time>2018-09-15T13:30:45Z</time>
      </trkpt>
      <trkpt lat="43.4340280" lon="-5.8786000">
        <ele>181.0</ele>
        <time>2018-09-15T13:30:46Z</time>
      </trkpt>
      <trkpt lat="43.4340260" lon="-5.8786730">
        <ele>181.0</ele>
        <time>2018-09-15T13:30:47Z</time>
      </trkpt>
      <trkpt lat="43.4340210" lon="-5.8787510">
        <ele>180.9</ele>
        <time>2018-09-15T13:30:48Z</time>
      </trkpt>
      <trkpt lat="43.4340200" lon="-5.8788320">
        <ele>180.9</ele>
        <time>2018-09-15T13:30:49Z</time>
      </trkpt>
      <trkpt lat="43.4340130" lon="-5.8789060">
        <ele>180.9</ele>
        <time>2018-09-15T13:30:50Z</time>
      </trkpt>
      <trkpt lat="43.4340090" lon="-5.8789920">
        <ele>180.9</ele>
        <time>2018-09-15T13:30:51Z</time>
      </trkpt>
      <trkpt lat="43.4340000" lon="-5.8790600">
        <ele>180.9</ele>
        <time>2018-09-15T13:30:52Z</time>
      </trkpt>
      <trkpt lat="43.4339960" lon="-5.8791390">
        <ele>180.8</ele>
        <time>2018-09-15T13:30:53Z</time>
      </trkpt>
      <trkpt lat="43.4339910" lon="-5.8792290">
        <ele>180.8</ele>
        <time>2018-09-15T13:30:54Z</time>
      </trkpt>
      <trkpt lat="43.4339660" lon="-5.8793280">
        <ele>180.8</ele>
        <time>2018-09-15T13:30:55Z</time>
      </trkpt>
      <trkpt lat="43.4339580" lon="-5.8794150">
        <ele>180.8</ele>
        <time>2018-09-15T13:30:56Z</time>
      </trkpt>
      <trkpt lat="43.4339530" lon="-5.8795020">
        <ele>180.8</ele>
        <time>2018-09-15T13:30:57Z</time>
      </trkpt>
      <trkpt lat="43.4339410" lon="-5.8795970">
        <ele>180.7</ele>
        <time>2018-09-15T13:30:58Z</time>
      </trkpt>
      <trkpt lat="43.4339310" lon="-5.8796910">
        <ele>180.7</ele>
        <time>2018-09-15T13:30:59Z</time>
      </trkpt>
      <trkpt lat="43.4339170" lon="-5.8797800">
        <ele>180.7</ele>
        <time>2018-09-15T13:31:00Z</time>
      </trkpt>
      <trkpt lat="43.4339150" lon="-5.8798800">
        <ele>180.7</ele>
        <time>2018-09-15T13:31:01Z</time>
      </trkpt>
      <trkpt lat="43.4339100" lon="-5.8799690">
        <ele>180.7</ele>
        <time>2018-09-15T13:31:02Z</time>
      </trkpt>
      <trkpt lat="43.4338970" lon="-5.8800700">
        <ele>180.6</ele>
        <time>2018-09-15T13:31:03Z</time>
      </trkpt>
      <trkpt lat="43.4338770" lon="-5.8801680">
        <ele>180.6</ele>
        <time>2018-09-15T13:31:04Z</time>
      </trkpt>
      <trkpt lat="43.4338540" lon="-5.8802600">
        <ele>180.6</ele>
        <time>2018-09-15T13:31:05Z</time>
      </trkpt>
      <trkpt lat="43.4338160" lon="-5.8803580">
        <ele>180.6</ele>
        <time>2018-09-15T13:31:06Z</time>
      </trkpt>
      <trkpt lat="43.4337860" lon="-5.8804560">
        <ele>180.5</ele>
        <time>2018-09-15T13:31:07Z</time>
      </trkpt>
      <trkpt lat="43.4337570" lon="-5.8805520">
        <ele>180.4</ele>
        <time>2018-09-15T13:31:08Z</time>
      </trkpt>
      <trkpt lat="43.4337200" lon="-5.8806500">
        <ele>180.2</ele>
        <time>2018-09-15T13:31:09Z</time>
      </trkpt>
      <trkpt lat="43.4336850" lon="-5.8807460">
        <ele>180.0</ele>
        <time>2018-09-15T13:31:10Z</time>
      </trkpt>
      <trkpt lat="43.4336590" lon="-5.8808590">
        <ele>179.6</ele>
        <time>2018-09-15T13:31:11Z</time>
      </trkpt>
      <trkpt lat="43.4336170" lon="-5.8809580">
        <ele>179.1</ele>
        <time>2018-09-15T13:31:12Z</time>
      </trkpt>
      <trkpt lat="43.4335840" lon="-5.8810560">
        <ele>178.7</ele>
        <time>2018-09-15T13:31:13Z</time>
      </trkpt>
      <trkpt lat="43.4335440" lon="-5.8811450">
        <ele>178.4</ele>
        <time>2018-09-15T13:31:14Z</time>
      </trkpt>
      <trkpt lat="43.4335060" lon="-5.8812350">
        <ele>178.2</ele>
        <time>2018-09-15T13:31:15Z</time>
      </trkpt>
      <trkpt lat="43.4334700" lon="-5.8813230">
        <ele>178.0</ele>
        <time>2018-09-15T13:31:16Z</time>
      </trkpt>
      <trkpt lat="43.4334080" lon="-5.8814020">
        <ele>177.8</ele>
        <time>2018-09-15T13:31:17Z</time>
      </trkpt>
      <trkpt lat="43.4333380" lon="-5.8814790">
        <ele>177.6</ele>
        <time>2018-09-15T13:31:18Z</time>
      </trkpt>
      <trkpt lat="43.4332640" lon="-5.8815530">
        <ele>177.3</ele>
        <time>2018-09-15T13:31:19Z</time>
      </trkpt>
      <trkpt lat="43.4331840" lon="-5.8816120">
        <ele>176.9</ele>
        <time>2018-09-15T13:31:20Z</time>
      </trkpt>
      <trkpt lat="43.4330930" lon="-5.8816650">
        <ele>176.3</ele>
        <time>2018-09-15T13:31:21Z</time>
      </trkpt>
      <trkpt lat="43.4330070" lon="-5.8817220">
        <ele>175.8</ele>
        <time>2018-09-15T13:31:22Z</time>
      </trkpt>
      <trkpt lat="43.4329180" lon="-5.8817740">
        <ele>175.3</ele>
        <time>2018-09-15T13:31:23Z</time>
      </trkpt>
      <trkpt lat="43.4328330" lon="-5.8818350">
        <ele>174.9</ele>
        <time>2018-09-15T13:31:24Z</time>
      </trkpt>
      <trkpt lat="43.4327500" lon="-5.8818970">
        <ele>174.4</ele>
        <time>2018-09-15T13:31:25Z</time>
      </trkpt>
      <trkpt lat="43.4326610" lon="-5.8819540">
        <ele>173.9</ele>
        <time>2018-09-15T13:31:26Z</time>
      </trkpt>
      <trkpt lat="43.4325760" lon="-5.8820150">
        <ele>173.5</ele>
        <time>2018-09-15T13:31:27Z</time>
      </trkpt>
      <trkpt lat="43.4325030" lon="-5.8820700">
        <ele>173.3</ele>
        <time>2018-09-15T13:31:28Z</time>
      </trkpt>
      <trkpt lat="43.4324270" lon="-5.8821170">
        <ele>173.1</ele>
        <time>2018-09-15T13:31:29Z</time>
      </trkpt>
      <trkpt lat="43.4323520" lon="-5.8821630">
        <ele>173.1</ele>
        <time>2018-09-15T13:31:30Z</time>
      </trkpt>
      <trkpt lat="43.4322690" lon="-5.8822150">
        <ele>173.1</ele>
        <time>2018-09-15T13:31:31Z</time>
      </trkpt>
      <trkpt lat="43.4321990" lon="-5.8822630">
        <ele>173.0</ele>
        <time>2018-09-15T13:31:32Z</time>
      </trkpt>
      <trkpt lat="43.4321380" lon="-5.8823170">
        <ele>173.0</ele>
        <time>2018-09-15T13:31:33Z</time>
      </trkpt>
      <trkpt lat="43.4320810" lon="-5.8823530">
        <ele>173.0</ele>
        <time>2018-09-15T13:31:34Z</time>
      </trkpt>
      <trkpt lat="43.4320230" lon="-5.8824080">
        <ele>173.0</ele>
        <time>2018-09-15T13:31:35Z</time>
      </trkpt>
      <trkpt lat="43.4319580" lon="-5.8824570">
        <ele>172.9</ele>
        <time>2018-09-15T13:31:36Z</time>
      </trkpt>
      <trkpt lat="43.4318940" lon="-5.8824930">
        <ele>172.9</ele>
        <time>2018-09-15T13:31:37Z</time>
      </trkpt>
      <trkpt lat="43.4318320" lon="-5.8825330">
        <ele>172.9</ele>
        <time>2018-09-15T13:31:38Z</time>
      </trkpt>
      <trkpt lat="43.4317740" lon="-5.8825800">
        <ele>172.9</ele>
        <time>2018-09-15T13:31:39Z</time>
      </trkpt>
      <trkpt lat="43.4317160" lon="-5.8826240">
        <ele>172.9</ele>
        <time>2018-09-15T13:31:40Z</time>
      </trkpt>
      <trkpt lat="43.4316560" lon="-5.8826690">
        <ele>172.9</ele>
        <time>2018-09-15T13:31:41Z</time>
      </trkpt>
      <trkpt lat="43.4316020" lon="-5.8827050">
        <ele>172.9</ele>
        <time>2018-09-15T13:31:42Z</time>
      </trkpt>
      <trkpt lat="43.4315430" lon="-5.8827430">
        <ele>172.9</ele>
        <time>2018-09-15T13:31:43Z</time>
      </trkpt>
      <trkpt lat="43.4314840" lon="-5.8827780">
        <ele>172.9</ele>
        <time>2018-09-15T13:31:44Z</time>
      </trkpt>
      <trkpt lat="43.4314260" lon="-5.8828130">
        <ele>172.9</ele>
        <time>2018-09-15T13:31:45Z</time>
      </trkpt>
      <trkpt lat="43.4313760" lon="-5.8828490">
        <ele>172.9</ele>
        <time>2018-09-15T13:31:46Z</time>
      </trkpt>
      <trkpt lat="43.4313210" lon="-5.8828880">
        <ele>172.9</ele>
        <time>2018-09-15T13:31:47Z</time>
      </trkpt>
      <trkpt lat="43.4312070" lon="-5.8829560">
        <ele>173.0</ele>
        <time>2018-09-15T13:31:49Z</time>
      </trkpt>
      <trkpt lat="43.4311510" lon="-5.8829980">
        <ele>173.0</ele>
        <time>2018-09-15T13:31:50Z</time>
      </trkpt>
      <trkpt lat="43.4310970" lon="-5.8830440">
        <ele>172.8</ele>
        <time>2018-09-15T13:31:51Z</time>
      </trkpt>
      <trkpt lat="43.4310420" lon="-5.8830860">
        <ele>172.5</ele>
        <time>2018-09-15T13:31:52Z</time>
      </trkpt>
      <trkpt lat="43.4309860" lon="-5.8831280">
        <ele>172.2</ele>
        <time>2018-09-15T13:31:53Z</time>
      </trkpt>
      <trkpt lat="43.4309230" lon="-5.8831680">
        <ele>171.8</ele>
        <time>2018-09-15T13:31:54Z</time>
      </trkpt>
      <trkpt lat="43.4308560" lon="-5.8832130">
        <ele>171.5</ele>
        <time>2018-09-15T13:31:55Z</time>
      </trkpt>
      <trkpt lat="43.4307900" lon="-5.8832540">
        <ele>171.1</ele>
        <time>2018-09-15T13:31:56Z</time>
      </trkpt>
      <trkpt lat="43.4307360" lon="-5.8832960">
        <ele>171.2</ele>
        <time>2018-09-15T13:31:57Z</time>
      </trkpt>
      <trkpt lat="43.4306650" lon="-5.8833330">
        <ele>171.7</ele>
        <time>2018-09-15T13:31:58Z</time>
      </trkpt>
      <trkpt lat="43.4305900" lon="-5.8833730">
        <ele>172.2</ele>
        <time>2018-09-15T13:31:59Z</time>
      </trkpt>
      <trkpt lat="43.4305210" lon="-5.8834010">
        <ele>172.6</ele>
        <time>2018-09-15T13:32:00Z</time>
      </trkpt>
      <trkpt lat="43.4304380" lon="-5.8834350">
        <ele>173.0</ele>
        <time>2018-09-15T13:32:01Z</time>
      </trkpt>
      <trkpt lat="43.4303550" lon="-5.8834650">
        <ele>173.0</ele>
        <time>2018-09-15T13:32:02Z</time>
      </trkpt>
      <trkpt lat="43.4302750" lon="-5.8835050">
        <ele>173.0</ele>
        <time>2018-09-15T13:32:03Z</time>
      </trkpt>
      <trkpt lat="43.4301960" lon="-5.8835550">
        <ele>173.0</ele>
        <time>2018-09-15T13:32:04Z</time>
      </trkpt>
      <trkpt lat="43.4301240" lon="-5.8835960">
        <ele>173.0</ele>
        <time>2018-09-15T13:32:05Z</time>
      </trkpt>
      <trkpt lat="43.4300510" lon="-5.8836450">
        <ele>172.9</ele>
        <time>2018-09-15T13:32:06Z</time>
      </trkpt>
      <trkpt lat="43.4299750" lon="-5.8836950">
        <ele>172.6</ele>
        <time>2018-09-15T13:32:07Z</time>
      </trkpt>
      <trkpt lat="43.4299060" lon="-5.8837440">
        <ele>172.4</ele>
        <time>2018-09-15T13:32:08Z</time>
      </trkpt>
      <trkpt lat="43.4298340" lon="-5.8837980">
        <ele>172.2</ele>
        <time>2018-09-15T13:32:09Z</time>
      </trkpt>
      <trkpt lat="43.4297680" lon="-5.8838510">
        <ele>171.9</ele>
        <time>2018-09-15T13:32:10Z</time>
      </trkpt>
      <trkpt lat="43.4296960" lon="-5.8839070">
        <ele>171.7</ele>
        <time>2018-09-15T13:32:11Z</time>
      </trkpt>
      <trkpt lat="43.4296300" lon="-5.8839820">
        <ele>171.5</ele>
        <time>2018-09-15T13:32:12Z</time>
      </trkpt>
      <trkpt lat="43.4295670" lon="-5.8840510">
        <ele>170.7</ele>
        <time>2018-09-15T13:32:13Z</time>
      </trkpt>
      <trkpt lat="43.4295300" lon="-5.8841170">
        <ele>170.1</ele>
        <time>2018-09-15T13:32:14Z</time>
      </trkpt>
      <trkpt lat="43.4294920" lon="-5.8841820">
        <ele>169.4</ele>
        <time>2018-09-15T13:32:15Z</time>
      </trkpt>
      <trkpt lat="43.4294170" lon="-5.8843130">
        <ele>168.0</ele>
        <time>2018-09-15T13:32:16Z</time>
      </trkpt>
      <trkpt lat="43.4293770" lon="-5.8844120">
        <ele>168.0</ele>
        <time>2018-09-15T13:32:17Z</time>
      </trkpt>
      <trkpt lat="43.4293440" lon="-5.8845160">
        <ele>168.0</ele>
        <time>2018-09-15T13:32:18Z</time>
      </trkpt>
      <trkpt lat="43.4293190" lon="-5.8846290">
        <ele>167.9</ele>
        <time>2018-09-15T13:32:19Z</time>
      </trkpt>
      <trkpt lat="43.4292990" lon="-5.8847390">
        <ele>167.7</ele>
        <time>2018-09-15T13:32:20Z</time>
      </trkpt>
      <trkpt lat="43.4292860" lon="-5.8848620">
        <ele>167.4</ele>
        <time>2018-09-15T13:32:21Z</time>
      </trkpt>
      <trkpt lat="43.4292670" lon="-5.8849820">
        <ele>166.9</ele>
        <time>2018-09-15T13:32:22Z</time>
      </trkpt>
      <trkpt lat="43.4292530" lon="-5.8851050">
        <ele>166.4</ele>
        <time>2018-09-15T13:32:23Z</time>
      </trkpt>
      <trkpt lat="43.4292380" lon="-5.8852170">
        <ele>165.9</ele>
        <time>2018-09-15T13:32:24Z</time>
      </trkpt>
      <trkpt lat="43.4292200" lon="-5.8853380">
        <ele>165.4</ele>
        <time>2018-09-15T13:32:25Z</time>
      </trkpt>
      <trkpt lat="43.4291940" lon="-5.8854570">
        <ele>165.1</ele>
        <time>2018-09-15T13:32:26Z</time>
      </trkpt>
      <trkpt lat="43.4291690" lon="-5.8855870">
        <ele>164.7</ele>
        <time>2018-09-15T13:32:27Z</time>
      </trkpt>
      <trkpt lat="43.4291490" lon="-5.8857180">
        <ele>164.4</ele>
        <time>2018-09-15T13:32:28Z</time>
      </trkpt>
      <trkpt lat="43.4291320" lon="-5.8858520">
        <ele>163.8</ele>
        <time>2018-09-15T13:32:29Z</time>
      </trkpt>
      <trkpt lat="43.4291290" lon="-5.8859840">
        <ele>163.2</ele>
        <time>2018-09-15T13:32:30Z</time>
      </trkpt>
      <trkpt lat="43.4291310" lon="-5.8861210">
        <ele>162.4</ele>
        <time>2018-09-15T13:32:31Z</time>
      </trkpt>
      <trkpt lat="43.4291400" lon="-5.8862510">
        <ele>161.8</ele>
        <time>2018-09-15T13:32:32Z</time>
      </trkpt>
      <trkpt lat="43.4291400" lon="-5.8863830">
        <ele>161.1</ele>
        <time>2018-09-15T13:32:33Z</time>
      </trkpt>
      <trkpt lat="43.4291430" lon="-5.8865160">
        <ele>160.4</ele>
        <time>2018-09-15T13:32:34Z</time>
      </trkpt>
      <trkpt lat="43.4291540" lon="-5.8866480">
        <ele>159.8</ele>
        <time>2018-09-15T13:32:35Z</time>
      </trkpt>
      <trkpt lat="43.4291540" lon="-5.8867730">
        <ele>159.3</ele>
        <time>2018-09-15T13:32:36Z</time>
      </trkpt>
      <trkpt lat="43.4291630" lon="-5.8868960">
        <ele>159.0</ele>
        <time>2018-09-15T13:32:37Z</time>
      </trkpt>
      <trkpt lat="43.4291670" lon="-5.8870240">
        <ele>158.6</ele>
        <time>2018-09-15T13:32:38Z</time>
      </trkpt>
      <trkpt lat="43.4291670" lon="-5.8871460">
        <ele>158.1</ele>
        <time>2018-09-15T13:32:39Z</time>
      </trkpt>
      <trkpt lat="43.4291690" lon="-5.8872700">
        <ele>157.6</ele>
        <time>2018-09-15T13:32:40Z</time>
      </trkpt>
      <trkpt lat="43.4291670" lon="-5.8873990">
        <ele>157.1</ele>
        <time>2018-09-15T13:32:41Z</time>
      </trkpt>
      <trkpt lat="43.4291680" lon="-5.8875260">
        <ele>156.6</ele>
        <time>2018-09-15T13:32:42Z</time>
      </trkpt>
      <trkpt lat="43.4291650" lon="-5.8876510">
        <ele>156.1</ele>
        <time>2018-09-15T13:32:43Z</time>
      </trkpt>
      <trkpt lat="43.4291620" lon="-5.8877820">
        <ele>155.5</ele>
        <time>2018-09-15T13:32:44Z</time>
      </trkpt>
      <trkpt lat="43.4291600" lon="-5.8879120">
        <ele>154.9</ele>
        <time>2018-09-15T13:32:45Z</time>
      </trkpt>
      <trkpt lat="43.4291460" lon="-5.8880440">
        <ele>154.3</ele>
        <time>2018-09-15T13:32:46Z</time>
      </trkpt>
      <trkpt lat="43.4291230" lon="-5.8881760">
        <ele>153.6</ele>
        <time>2018-09-15T13:32:47Z</time>
      </trkpt>
      <trkpt lat="43.4290900" lon="-5.8883060">
        <ele>153.0</ele>
        <time>2018-09-15T13:32:48Z</time>
      </trkpt>
      <trkpt lat="43.4290360" lon="-5.8884300">
        <ele>152.2</ele>
        <time>2018-09-15T13:32:49Z</time>
      </trkpt>
      <trkpt lat="43.4289780" lon="-5.8885540">
        <ele>151.5</ele>
        <time>2018-09-15T13:32:50Z</time>
      </trkpt>
      <trkpt lat="43.4289090" lon="-5.8886790">
        <ele>150.7</ele>
        <time>2018-09-15T13:32:51Z</time>
      </trkpt>
      <trkpt lat="43.4288440" lon="-5.8888070">
        <ele>149.9</ele>
        <time>2018-09-15T13:32:52Z</time>
      </trkpt>
      <trkpt lat="43.4287730" lon="-5.8889380">
        <ele>149.0</ele>
        <time>2018-09-15T13:32:53Z</time>
      </trkpt>
      <trkpt lat="43.4287030" lon="-5.8890670">
        <ele>148.2</ele>
        <time>2018-09-15T13:32:54Z</time>
      </trkpt>
      <trkpt lat="43.4286360" lon="-5.8891940">
        <ele>147.3</ele>
        <time>2018-09-15T13:32:55Z</time>
      </trkpt>
      <trkpt lat="43.4285660" lon="-5.8893330">
        <ele>146.3</ele>
        <time>2018-09-15T13:32:56Z</time>
      </trkpt>
      <trkpt lat="43.4284990" lon="-5.8894680">
        <ele>145.3</ele>
        <time>2018-09-15T13:32:57Z</time>
      </trkpt>
      <trkpt lat="43.4284420" lon="-5.8896050">
        <ele>144.3</ele>
        <time>2018-09-15T13:32:58Z</time>
      </trkpt>
      <trkpt lat="43.4284090" lon="-5.8897540">
        <ele>143.3</ele>
        <time>2018-09-15T13:32:59Z</time>
      </trkpt>
      <trkpt lat="43.4283960" lon="-5.8899050">
        <ele>141.5</ele>
        <time>2018-09-15T13:33:00Z</time>
      </trkpt>
      <trkpt lat="43.4284020" lon="-5.8900650">
        <ele>140.2</ele>
        <time>2018-09-15T13:33:01Z</time>
      </trkpt>
      <trkpt lat="43.4284080" lon="-5.8901960">
        <ele>140.5</ele>
        <time>2018-09-15T13:33:02Z</time>
      </trkpt>
      <trkpt lat="43.4284180" lon="-5.8903360">
        <ele>140.8</ele>
        <time>2018-09-15T13:33:03Z</time>
      </trkpt>
      <trkpt lat="43.4284260" lon="-5.8904640">
        <ele>141.1</ele>
        <time>2018-09-15T13:33:04Z</time>
      </trkpt>
      <trkpt lat="43.4284240" lon="-5.8905890">
        <ele>141.3</ele>
        <time>2018-09-15T13:33:05Z</time>
      </trkpt>
      <trkpt lat="43.4284280" lon="-5.8907300">
        <ele>141.6</ele>
        <time>2018-09-15T13:33:06Z</time>
      </trkpt>
      <trkpt lat="43.4284260" lon="-5.8908550">
        <ele>141.9</ele>
        <time>2018-09-15T13:33:07Z</time>
      </trkpt>
      <trkpt lat="43.4284420" lon="-5.8909710">
        <ele>142.2</ele>
        <time>2018-09-15T13:33:08Z</time>
      </trkpt>
      <trkpt lat="43.4284530" lon="-5.8910960">
        <ele>142.5</ele>
        <time>2018-09-15T13:33:09Z</time>
      </trkpt>
      <trkpt lat="43.4284570" lon="-5.8912180">
        <ele>142.7</ele>
        <time>2018-09-15T13:33:10Z</time>
      </trkpt>
      <trkpt lat="43.4284690" lon="-5.8913370">
        <ele>142.9</ele>
        <time>2018-09-15T13:33:11Z</time>
      </trkpt>
      <trkpt lat="43.4284810" lon="-5.8914460">
        <ele>143.1</ele>
        <time>2018-09-15T13:33:12Z</time>
      </trkpt>
      <trkpt lat="43.4284910" lon="-5.8915620">
        <ele>143.2</ele>
        <time>2018-09-15T13:33:13Z</time>
      </trkpt>
      <trkpt lat="43.4284930" lon="-5.8916660">
        <ele>143.4</ele>
        <time>2018-09-15T13:33:14Z</time>
      </trkpt>
      <trkpt lat="43.4285010" lon="-5.8917770">
        <ele>143.5</ele>
        <time>2018-09-15T13:33:15Z</time>
      </trkpt>
      <trkpt lat="43.4285040" lon="-5.8918810">
        <ele>143.7</ele>
        <time>2018-09-15T13:33:16Z</time>
      </trkpt>
      <trkpt lat="43.4285070" lon="-5.8919820">
        <ele>143.8</ele>
        <time>2018-09-15T13:33:17Z</time>
      </trkpt>
      <trkpt lat="43.4285170" lon="-5.8920850">
        <ele>144.0</ele>
        <time>2018-09-15T13:33:18Z</time>
      </trkpt>
      <trkpt lat="43.4285250" lon="-5.8921830">
        <ele>144.0</ele>
        <time>2018-09-15T13:33:19Z</time>
      </trkpt>
      <trkpt lat="43.4285260" lon="-5.8922750">
        <ele>144.0</ele>
        <time>2018-09-15T13:33:20Z</time>
      </trkpt>
      <trkpt lat="43.4285360" lon="-5.8923660">
        <ele>144.0</ele>
        <time>2018-09-15T13:33:21Z</time>
      </trkpt>
      <trkpt lat="43.4285410" lon="-5.8924510">
        <ele>144.0</ele>
        <time>2018-09-15T13:33:22Z</time>
      </trkpt>
      <trkpt lat="43.4285460" lon="-5.8925340">
        <ele>144.0</ele>
        <time>2018-09-15T13:33:23Z</time>
      </trkpt>
      <trkpt lat="43.4285520" lon="-5.8926130">
        <ele>144.1</ele>
        <time>2018-09-15T13:33:24Z</time>
      </trkpt>
      <trkpt lat="43.4285530" lon="-5.8926930">
        <ele>144.1</ele>
        <time>2018-09-15T13:33:25Z</time>
      </trkpt>
      <trkpt lat="43.4285570" lon="-5.8927650">
        <ele>144.2</ele>
        <time>2018-09-15T13:33:26Z</time>
      </trkpt>
      <trkpt lat="43.4285630" lon="-5.8928320">
        <ele>144.3</ele>
        <time>2018-09-15T13:33:27Z</time>
      </trkpt>
      <trkpt lat="43.4285660" lon="-5.8928980">
        <ele>144.4</ele>
        <time>2018-09-15T13:33:28Z</time>
      </trkpt>
      <trkpt lat="43.4285710" lon="-5.8929590">
        <ele>144.6</ele>
        <time>2018-09-15T13:33:29Z</time>
      </trkpt>
      <trkpt lat="43.4285720" lon="-5.8930170">
        <ele>144.8</ele>
        <time>2018-09-15T13:33:30Z</time>
      </trkpt>
      <trkpt lat="43.4285770" lon="-5.8930740">
        <ele>145.0</ele>
        <time>2018-09-15T13:33:31Z</time>
      </trkpt>
      <trkpt lat="43.4285800" lon="-5.8931300">
        <ele>145.2</ele>
        <time>2018-09-15T13:33:32Z</time>
      </trkpt>
      <trkpt lat="43.4285790" lon="-5.8931890">
        <ele>145.5</ele>
        <time>2018-09-15T13:33:33Z</time>
      </trkpt>
      <trkpt lat="43.4285840" lon="-5.8932420">
        <ele>145.8</ele>
        <time>2018-09-15T13:33:34Z</time>
      </trkpt>
      <trkpt lat="43.4285950" lon="-5.8932950">
        <ele>146.0</ele>
        <time>2018-09-15T13:33:35Z</time>
      </trkpt>
      <trkpt lat="43.4286000" lon="-5.8933510">
        <ele>146.2</ele>
        <time>2018-09-15T13:33:36Z</time>
      </trkpt>
      <trkpt lat="43.4286000" lon="-5.8933510">
        <ele>146.2</ele>
        <time>2018-09-15T13:33:37Z</time>
      </trkpt>
      <trkpt lat="43.4286020" lon="-5.8933900">
        <ele>146.3</ele>
        <time>2018-09-15T13:33:38Z</time>
      </trkpt>
      <trkpt lat="43.4286040" lon="-5.8934300">
        <ele>146.4</ele>
        <time>2018-09-15T13:33:39Z</time>
      </trkpt>
      <trkpt lat="43.4286060" lon="-5.8934680">
        <ele>146.5</ele>
        <time>2018-09-15T13:33:40Z</time>
      </trkpt>
      <trkpt lat="43.4286090" lon="-5.8935060">
        <ele>146.7</ele>
        <time>2018-09-15T13:33:41Z</time>
      </trkpt>
      <trkpt lat="43.4286110" lon="-5.8935450">
        <ele>146.9</ele>
        <time>2018-09-15T13:33:42Z</time>
      </trkpt>
      <trkpt lat="43.4286120" lon="-5.8935680">
        <ele>147.0</ele>
        <time>2018-09-15T13:33:43Z</time>
      </trkpt>
      <trkpt lat="43.4286180" lon="-5.8937110">
        <ele>147.6</ele>
        <time>2018-09-15T13:33:44Z</time>
      </trkpt>
      <trkpt lat="43.4286250" lon="-5.8938310">
        <ele>148.1</ele>
        <time>2018-09-15T13:33:45Z</time>
      </trkpt>
      <trkpt lat="43.4286310" lon="-5.8938970">
        <ele>148.2</ele>
        <time>2018-09-15T13:33:46Z</time>
      </trkpt>
      <trkpt lat="43.4286330" lon="-5.8939510">
        <ele>148.3</ele>
        <time>2018-09-15T13:33:47Z</time>
      </trkpt>
      <trkpt lat="43.4286360" lon="-5.8940030">
        <ele>148.4</ele>
        <time>2018-09-15T13:33:48Z</time>
      </trkpt>
      <trkpt lat="43.4286400" lon="-5.8940540">
        <ele>148.5</ele>
        <time>2018-09-15T13:33:49Z</time>
      </trkpt>
      <trkpt lat="43.4286430" lon="-5.8941070">
        <ele>148.6</ele>
        <time>2018-09-15T13:33:50Z</time>
      </trkpt>
      <trkpt lat="43.4286410" lon="-5.8941310">
        <ele>148.7</ele>
        <time>2018-09-15T13:33:51Z</time>
      </trkpt>
      <trkpt lat="43.4286400" lon="-5.8941640">
        <ele>148.7</ele>
        <time>2018-09-15T13:33:52Z</time>
      </trkpt>
      <trkpt lat="43.4286430" lon="-5.8942510">
        <ele>149.0</ele>
        <time>2018-09-15T13:33:53Z</time>
      </trkpt>
      <trkpt lat="43.4286440" lon="-5.8942770">
        <ele>149.1</ele>
        <time>2018-09-15T13:33:54Z</time>
      </trkpt>
      <trkpt lat="43.4286440" lon="-5.8943190">
        <ele>149.3</ele>
        <time>2018-09-15T13:33:55Z</time>
      </trkpt>
      <trkpt lat="43.4286440" lon="-5.8943610">
        <ele>149.5</ele>
        <time>2018-09-15T13:33:56Z</time>
      </trkpt>
      <trkpt lat="43.4286450" lon="-5.8943940">
        <ele>149.6</ele>
        <time>2018-09-15T13:33:57Z</time>
      </trkpt>
      <trkpt lat="43.4286460" lon="-5.8944350">
        <ele>149.8</ele>
        <time>2018-09-15T13:33:58Z</time>
      </trkpt>
      <trkpt lat="43.4286450" lon="-5.8944840">
        <ele>150.0</ele>
        <time>2018-09-15T13:33:59Z</time>
      </trkpt>
      <trkpt lat="43.4286410" lon="-5.8945310">
        <ele>150.2</ele>
        <time>2018-09-15T13:34:00Z</time>
      </trkpt>
      <trkpt lat="43.4286340" lon="-5.8945770">
        <ele>150.3</ele>
        <time>2018-09-15T13:34:01Z</time>
      </trkpt>
      <trkpt lat="43.4286290" lon="-5.8946230">
        <ele>150.4</ele>
        <time>2018-09-15T13:34:02Z</time>
      </trkpt>
      <trkpt lat="43.4286230" lon="-5.8946690">
        <ele>150.5</ele>
        <time>2018-09-15T13:34:03Z</time>
      </trkpt>
      <trkpt lat="43.4286190" lon="-5.8947100">
        <ele>150.6</ele>
        <time>2018-09-15T13:34:04Z</time>
      </trkpt>
      <trkpt lat="43.4286140" lon="-5.8947580">
        <ele>150.8</ele>
        <time>2018-09-15T13:34:05Z</time>
      </trkpt>
      <trkpt lat="43.4286040" lon="-5.8948780">
        <ele>151.4</ele>
        <time>2018-09-15T13:34:06Z</time>
      </trkpt>
      <trkpt lat="43.4285980" lon="-5.8949290">
        <ele>151.7</ele>
        <time>2018-09-15T13:34:07Z</time>
      </trkpt>
      <trkpt lat="43.4285950" lon="-5.8949560">
        <ele>151.8</ele>
        <time>2018-09-15T13:34:08Z</time>
      </trkpt>
      <trkpt lat="43.4285920" lon="-5.8949870">
        <ele>152.0</ele>
        <time>2018-09-15T13:34:09Z</time>
      </trkpt>
      <trkpt lat="43.4285900" lon="-5.8950120">
        <ele>152.1</ele>
        <time>2018-09-15T13:34:10Z</time>
      </trkpt>
      <trkpt lat="43.4285890" lon="-5.8950390">
        <ele>152.2</ele>
        <time>2018-09-15T13:34:11Z</time>
      </trkpt>
      <trkpt lat="43.4285790" lon="-5.8950930">
        <ele>152.3</ele>
        <time>2018-09-15T13:34:12Z</time>
      </trkpt>
      <trkpt lat="43.4285680" lon="-5.8952260">
        <ele>152.7</ele>
        <time>2018-09-15T13:34:13Z</time>
      </trkpt>
      <trkpt lat="43.4285640" lon="-5.8952700">
        <ele>152.9</ele>
        <time>2018-09-15T13:34:14Z</time>
      </trkpt>
      <trkpt lat="43.4285580" lon="-5.8953200">
        <ele>153.1</ele>
        <time>2018-09-15T13:34:15Z</time>
      </trkpt>
      <trkpt lat="43.4285600" lon="-5.8953680">
        <ele>153.2</ele>
        <time>2018-09-15T13:34:16Z</time>
      </trkpt>
      <trkpt lat="43.4285570" lon="-5.8954190">
        <ele>153.4</ele>
        <time>2018-09-15T13:34:17Z</time>
      </trkpt>
      <trkpt lat="43.4285550" lon="-5.8954460">
        <ele>153.5</ele>
        <time>2018-09-15T13:34:18Z</time>
      </trkpt>
      <trkpt lat="43.4285410" lon="-5.8955210">
        <ele>153.7</ele>
        <time>2018-09-15T13:34:19Z</time>
      </trkpt>
      <trkpt lat="43.4285390" lon="-5.8955720">
        <ele>153.8</ele>
        <time>2018-09-15T13:34:20Z</time>
      </trkpt>
      <trkpt lat="43.4285360" lon="-5.8955890">
        <ele>153.8</ele>
        <time>2018-09-15T13:34:21Z</time>
      </trkpt>
      <trkpt lat="43.4285330" lon="-5.8956160">
        <ele>153.9</ele>
        <time>2018-09-15T13:34:22Z</time>
      </trkpt>
      <trkpt lat="43.4285310" lon="-5.8956530">
        <ele>153.9</ele>
        <time>2018-09-15T13:34:23Z</time>
      </trkpt>
      <trkpt lat="43.4285170" lon="-5.8957570">
        <ele>154.1</ele>
        <time>2018-09-15T13:34:24Z</time>
      </trkpt>
      <trkpt lat="43.4285180" lon="-5.8958160">
        <ele>154.2</ele>
        <time>2018-09-15T13:34:25Z</time>
      </trkpt>
      <trkpt lat="43.4285130" lon="-5.8958730">
        <ele>154.3</ele>
        <time>2018-09-15T13:34:26Z</time>
      </trkpt>
      <trkpt lat="43.4285090" lon="-5.8959310">
        <ele>154.4</ele>
        <time>2018-09-15T13:34:27Z</time>
      </trkpt>
      <trkpt lat="43.4285010" lon="-5.8959950">
        <ele>154.5</ele>
        <time>2018-09-15T13:34:28Z</time>
      </trkpt>
      <trkpt lat="43.4284960" lon="-5.8960760">
        <ele>154.6</ele>
        <time>2018-09-15T13:34:29Z</time>
      </trkpt>
      <trkpt lat="43.4284950" lon="-5.8961380">
        <ele>154.7</ele>
        <time>2018-09-15T13:34:30Z</time>
      </trkpt>
      <trkpt lat="43.4284940" lon="-5.8962030">
        <ele>154.8</ele>
        <time>2018-09-15T13:34:31Z</time>
      </trkpt>
      <trkpt lat="43.4284920" lon="-5.8962730">
        <ele>155.0</ele>
        <time>2018-09-15T13:34:32Z</time>
      </trkpt>
      <trkpt lat="43.4284930" lon="-5.8963440">
        <ele>155.3</ele>
        <time>2018-09-15T13:34:33Z</time>
      </trkpt>
      <trkpt lat="43.4284920" lon="-5.8964160">
        <ele>155.5</ele>
        <time>2018-09-15T13:34:34Z</time>
      </trkpt>
      <trkpt lat="43.4284980" lon="-5.8964930">
        <ele>155.6</ele>
        <time>2018-09-15T13:34:35Z</time>
      </trkpt>
      <trkpt lat="43.4285070" lon="-5.8965670">
        <ele>155.7</ele>
        <time>2018-09-15T13:34:36Z</time>
      </trkpt>
      <trkpt lat="43.4285230" lon="-5.8966490">
        <ele>155.7</ele>
        <time>2018-09-15T13:34:37Z</time>
      </trkpt>
      <trkpt lat="43.4285400" lon="-5.8967300">
        <ele>155.7</ele>
        <time>2018-09-15T13:34:38Z</time>
      </trkpt>
      <trkpt lat="43.4285600" lon="-5.8968170">
        <ele>155.6</ele>
        <time>2018-09-15T13:34:39Z</time>
      </trkpt>
      <trkpt lat="43.4285880" lon="-5.8969020">
        <ele>155.6</ele>
        <time>2018-09-15T13:34:40Z</time>
      </trkpt>
      <trkpt lat="43.4286200" lon="-5.8969890">
        <ele>155.5</ele>
        <time>2018-09-15T13:34:41Z</time>
      </trkpt>
      <trkpt lat="43.4286580" lon="-5.8970670">
        <ele>155.4</ele>
        <time>2018-09-15T13:34:42Z</time>
      </trkpt>
      <trkpt lat="43.4287020" lon="-5.8971450">
        <ele>155.2</ele>
        <time>2018-09-15T13:34:43Z</time>
      </trkpt>
      <trkpt lat="43.4287500" lon="-5.8972210">
        <ele>155.0</ele>
        <time>2018-09-15T13:34:44Z</time>
      </trkpt>
      <trkpt lat="43.4288000" lon="-5.8972910">
        <ele>154.8</ele>
        <time>2018-09-15T13:34:45Z</time>
      </trkpt>
      <trkpt lat="43.4288520" lon="-5.8973640">
        <ele>154.4</ele>
        <time>2018-09-15T13:34:46Z</time>
      </trkpt>
      <trkpt lat="43.4289050" lon="-5.8974420">
        <ele>154.0</ele>
        <time>2018-09-15T13:34:47Z</time>
      </trkpt>
      <trkpt lat="43.4289610" lon="-5.8975220">
        <ele>153.9</ele>
        <time>2018-09-15T13:34:48Z</time>
      </trkpt>
      <trkpt lat="43.4290150" lon="-5.8976040">
        <ele>153.7</ele>
        <time>2018-09-15T13:34:49Z</time>
      </trkpt>
      <trkpt lat="43.4290650" lon="-5.8976950">
        <ele>153.6</ele>
        <time>2018-09-15T13:34:50Z</time>
      </trkpt>
      <trkpt lat="43.4291190" lon="-5.8977950">
        <ele>153.5</ele>
        <time>2018-09-15T13:34:51Z</time>
      </trkpt>
      <trkpt lat="43.4291680" lon="-5.8978940">
        <ele>153.3</ele>
        <time>2018-09-15T13:34:52Z</time>
      </trkpt>
      <trkpt lat="43.4292160" lon="-5.8979930">
        <ele>153.1</ele>
        <time>2018-09-15T13:34:53Z</time>
      </trkpt>
      <trkpt lat="43.4292650" lon="-5.8980930">
        <ele>152.7</ele>
        <time>2018-09-15T13:34:54Z</time>
      </trkpt>
      <trkpt lat="43.4293160" lon="-5.8981950">
        <ele>152.4</ele>
        <time>2018-09-15T13:34:55Z</time>
      </trkpt>
      <trkpt lat="43.4293670" lon="-5.8982940">
        <ele>152.0</ele>
        <time>2018-09-15T13:34:56Z</time>
      </trkpt>
      <trkpt lat="43.4294170" lon="-5.8984000">
        <ele>151.6</ele>
        <time>2018-09-15T13:34:57Z</time>
      </trkpt>
      <trkpt lat="43.4294710" lon="-5.8985020">
        <ele>151.2</ele>
        <time>2018-09-15T13:34:58Z</time>
      </trkpt>
      <trkpt lat="43.4295250" lon="-5.8986020">
        <ele>150.8</ele>
        <time>2018-09-15T13:34:59Z</time>
      </trkpt>
      <trkpt lat="43.4295790" lon="-5.8987020">
        <ele>150.4</ele>
        <time>2018-09-15T13:35:00Z</time>
      </trkpt>
      <trkpt lat="43.4296350" lon="-5.8987940">
        <ele>150.0</ele>
        <time>2018-09-15T13:35:01Z</time>
      </trkpt>
      <trkpt lat="43.4296930" lon="-5.8988880">
        <ele>149.6</ele>
        <time>2018-09-15T13:35:02Z</time>
      </trkpt>
      <trkpt lat="43.4297590" lon="-5.8989880">
        <ele>149.2</ele>
        <time>2018-09-15T13:35:03Z</time>
      </trkpt>
      <trkpt lat="43.4298100" lon="-5.8990750">
        <ele>149.0</ele>
        <time>2018-09-15T13:35:04Z</time>
      </trkpt>
      <trkpt lat="43.4298650" lon="-5.8991550">
        <ele>148.8</ele>
        <time>2018-09-15T13:35:05Z</time>
      </trkpt>
      <trkpt lat="43.4299170" lon="-5.8992300">
        <ele>148.6</ele>
        <time>2018-09-15T13:35:06Z</time>
      </trkpt>
      <trkpt lat="43.4299680" lon="-5.8993020">
        <ele>148.5</ele>
        <time>2018-09-15T13:35:07Z</time>
      </trkpt>
      <trkpt lat="43.4300160" lon="-5.8993770">
        <ele>148.3</ele>
        <time>2018-09-15T13:35:08Z</time>
      </trkpt>
      <trkpt lat="43.4300670" lon="-5.8994450">
        <ele>148.0</ele>
        <time>2018-09-15T13:35:09Z</time>
      </trkpt>
      <trkpt lat="43.4301130" lon="-5.8995140">
        <ele>147.7</ele>
        <time>2018-09-15T13:35:10Z</time>
      </trkpt>
      <trkpt lat="43.4301570" lon="-5.8995800">
        <ele>147.4</ele>
        <time>2018-09-15T13:35:11Z</time>
      </trkpt>
      <trkpt lat="43.4302030" lon="-5.8996390">
        <ele>147.1</ele>
        <time>2018-09-15T13:35:12Z</time>
      </trkpt>
      <trkpt lat="43.4302430" lon="-5.8997040">
        <ele>147.0</ele>
        <time>2018-09-15T13:35:13Z</time>
      </trkpt>
      <trkpt lat="43.4302860" lon="-5.8997650">
        <ele>147.0</ele>
        <time>2018-09-15T13:35:14Z</time>
      </trkpt>
      <trkpt lat="43.4303250" lon="-5.8998250">
        <ele>147.0</ele>
        <time>2018-09-15T13:35:15Z</time>
      </trkpt>
      <trkpt lat="43.4303650" lon="-5.8998800">
        <ele>147.1</ele>
        <time>2018-09-15T13:35:17Z</time>
      </trkpt>
      <trkpt lat="43.4303990" lon="-5.8999320">
        <ele>147.1</ele>
        <time>2018-09-15T13:35:17Z</time>
      </trkpt>
      <trkpt lat="43.4304360" lon="-5.8999880">
        <ele>147.1</ele>
        <time>2018-09-15T13:35:19Z</time>
      </trkpt>
      <trkpt lat="43.4304720" lon="-5.9000410">
        <ele>147.1</ele>
        <time>2018-09-15T13:35:20Z</time>
      </trkpt>
      <trkpt lat="43.4305040" lon="-5.9001000">
        <ele>147.1</ele>
        <time>2018-09-15T13:35:21Z</time>
      </trkpt>
      <trkpt lat="43.4305380" lon="-5.9001600">
        <ele>147.2</ele>
        <time>2018-09-15T13:35:22Z</time>
      </trkpt>
      <trkpt lat="43.4305670" lon="-5.9002220">
        <ele>147.2</ele>
        <time>2018-09-15T13:35:23Z</time>
      </trkpt>
      <trkpt lat="43.4305920" lon="-5.9002790">
        <ele>147.2</ele>
        <time>2018-09-15T13:35:24Z</time>
      </trkpt>
      <trkpt lat="43.4306190" lon="-5.9003390">
        <ele>147.3</ele>
        <time>2018-09-15T13:35:25Z</time>
      </trkpt>
      <trkpt lat="43.4306390" lon="-5.9004000">
        <ele>147.3</ele>
        <time>2018-09-15T13:35:26Z</time>
      </trkpt>
      <trkpt lat="43.4306530" lon="-5.9004640">
        <ele>147.4</ele>
        <time>2018-09-15T13:35:27Z</time>
      </trkpt>
      <trkpt lat="43.4306650" lon="-5.9005290">
        <ele>147.4</ele>
        <time>2018-09-15T13:35:28Z</time>
      </trkpt>
      <trkpt lat="43.4306780" lon="-5.9006000">
        <ele>147.4</ele>
        <time>2018-09-15T13:35:29Z</time>
      </trkpt>
      <trkpt lat="43.4306830" lon="-5.9006660">
        <ele>147.4</ele>
        <time>2018-09-15T13:35:30Z</time>
      </trkpt>
      <trkpt lat="43.4306920" lon="-5.9007360">
        <ele>147.4</ele>
        <time>2018-09-15T13:35:31Z</time>
      </trkpt>
      <trkpt lat="43.4307030" lon="-5.9008110">
        <ele>147.4</ele>
        <time>2018-09-15T13:35:32Z</time>
      </trkpt>
      <trkpt lat="43.4307100" lon="-5.9008810">
        <ele>147.3</ele>
        <time>2018-09-15T13:35:33Z</time>
      </trkpt>
      <trkpt lat="43.4307130" lon="-5.9009600">
        <ele>147.2</ele>
        <time>2018-09-15T13:35:34Z</time>
      </trkpt>
      <trkpt lat="43.4307190" lon="-5.9010360">
        <ele>147.1</ele>
        <time>2018-09-15T13:35:35Z</time>
      </trkpt>
      <trkpt lat="43.4307110" lon="-5.9011200">
        <ele>147.1</ele>
        <time>2018-09-15T13:35:36Z</time>
      </trkpt>
      <trkpt lat="43.4306990" lon="-5.9012010">
        <ele>147.0</ele>
        <time>2018-09-15T13:35:37Z</time>
      </trkpt>
      <trkpt lat="43.4306690" lon="-5.9012770">
        <ele>146.9</ele>
        <time>2018-09-15T13:35:38Z</time>
      </trkpt>
      <trkpt lat="43.4306370" lon="-5.9013600">
        <ele>146.8</ele>
        <time>2018-09-15T13:35:39Z</time>
      </trkpt>
      <trkpt lat="43.4306080" lon="-5.9014460">
        <ele>146.7</ele>
        <time>2018-09-15T13:35:40Z</time>
      </trkpt>
      <trkpt lat="43.4305770" lon="-5.9015270">
        <ele>146.6</ele>
        <time>2018-09-15T13:35:41Z</time>
      </trkpt>
      <trkpt lat="43.4305490" lon="-5.9016180">
        <ele>146.5</ele>
        <time>2018-09-15T13:35:42Z</time>
      </trkpt>
      <trkpt lat="43.4305180" lon="-5.9017050">
        <ele>146.4</ele>
        <time>2018-09-15T13:35:43Z</time>
      </trkpt>
      <trkpt lat="43.4304890" lon="-5.9018020">
        <ele>146.2</ele>
        <time>2018-09-15T13:35:44Z</time>
      </trkpt>
      <trkpt lat="43.4304560" lon="-5.9018980">
        <ele>146.1</ele>
        <time>2018-09-15T13:35:45Z</time>
      </trkpt>
      <trkpt lat="43.4304270" lon="-5.9019930">
        <ele>146.1</ele>
        <time>2018-09-15T13:35:46Z</time>
      </trkpt>
      <trkpt lat="43.4303970" lon="-5.9020900">
        <ele>146.0</ele>
        <time>2018-09-15T13:35:47Z</time>
      </trkpt>
      <trkpt lat="43.4303730" lon="-5.9021850">
        <ele>145.9</ele>
        <time>2018-09-15T13:35:48Z</time>
      </trkpt>
      <trkpt lat="43.4303500" lon="-5.9022910">
        <ele>145.8</ele>
        <time>2018-09-15T13:35:49Z</time>
      </trkpt>
      <trkpt lat="43.4303320" lon="-5.9023970">
        <ele>145.8</ele>
        <time>2018-09-15T13:35:50Z</time>
      </trkpt>
      <trkpt lat="43.4303210" lon="-5.9025040">
        <ele>145.7</ele>
        <time>2018-09-15T13:35:51Z</time>
      </trkpt>
      <trkpt lat="43.4303150" lon="-5.9026180">
        <ele>145.5</ele>
        <time>2018-09-15T13:35:52Z</time>
      </trkpt>
      <trkpt lat="43.4303190" lon="-5.9027330">
        <ele>145.4</ele>
        <time>2018-09-15T13:35:53Z</time>
      </trkpt>
      <trkpt lat="43.4303160" lon="-5.9028540">
        <ele>145.2</ele>
        <time>2018-09-15T13:35:54Z</time>
      </trkpt>
      <trkpt lat="43.4303110" lon="-5.9029770">
        <ele>144.8</ele>
        <time>2018-09-15T13:35:55Z</time>
      </trkpt>
      <trkpt lat="43.4303000" lon="-5.9030970">
        <ele>144.4</ele>
        <time>2018-09-15T13:35:56Z</time>
      </trkpt>
      <trkpt lat="43.4302820" lon="-5.9032190">
        <ele>143.9</ele>
        <time>2018-09-15T13:35:57Z</time>
      </trkpt>
      <trkpt lat="43.4302610" lon="-5.9033420">
        <ele>143.4</ele>
        <time>2018-09-15T13:35:58Z</time>
      </trkpt>
      <trkpt lat="43.4302390" lon="-5.9034600">
        <ele>143.0</ele>
        <time>2018-09-15T13:35:59Z</time>
      </trkpt>
      <trkpt lat="43.4302120" lon="-5.9035750">
        <ele>142.8</ele>
        <time>2018-09-15T13:36:00Z</time>
      </trkpt>
      <trkpt lat="43.4301860" lon="-5.9036880">
        <ele>142.5</ele>
        <time>2018-09-15T13:36:01Z</time>
      </trkpt>
      <trkpt lat="43.4301530" lon="-5.9037990">
        <ele>142.3</ele>
        <time>2018-09-15T13:36:02Z</time>
      </trkpt>
      <trkpt lat="43.4301110" lon="-5.9038990">
        <ele>142.2</ele>
        <time>2018-09-15T13:36:03Z</time>
      </trkpt>
      <trkpt lat="43.4300050" lon="-5.9040770">
        <ele>142.1</ele>
        <time>2018-09-15T13:36:04Z</time>
      </trkpt>
      <trkpt lat="43.4299480" lon="-5.9041570">
        <ele>142.3</ele>
        <time>2018-09-15T13:36:05Z</time>
      </trkpt>
      <trkpt lat="43.4298910" lon="-5.9042260">
        <ele>142.4</ele>
        <time>2018-09-15T13:36:06Z</time>
      </trkpt>
      <trkpt lat="43.4298410" lon="-5.9042970">
        <ele>142.5</ele>
        <time>2018-09-15T13:36:07Z</time>
      </trkpt>
      <trkpt lat="43.4297920" lon="-5.9043660">
        <ele>142.6</ele>
        <time>2018-09-15T13:36:08Z</time>
      </trkpt>
      <trkpt lat="43.4297520" lon="-5.9044380">
        <ele>142.7</ele>
        <time>2018-09-15T13:36:09Z</time>
      </trkpt>
      <trkpt lat="43.4297170" lon="-5.9045180">
        <ele>142.7</ele>
        <time>2018-09-15T13:36:10Z</time>
      </trkpt>
      <trkpt lat="43.4296860" lon="-5.9046030">
        <ele>142.8</ele>
        <time>2018-09-15T13:36:11Z</time>
      </trkpt>
      <trkpt lat="43.4296620" lon="-5.9046940">
        <ele>142.9</ele>
        <time>2018-09-15T13:36:12Z</time>
      </trkpt>
      <trkpt lat="43.4296380" lon="-5.9047880">
        <ele>142.9</ele>
        <time>2018-09-15T13:36:13Z</time>
      </trkpt>
      <trkpt lat="43.4296090" lon="-5.9048870">
        <ele>143.0</ele>
        <time>2018-09-15T13:36:14Z</time>
      </trkpt>
      <trkpt lat="43.4295850" lon="-5.9049880">
        <ele>143.0</ele>
        <time>2018-09-15T13:36:15Z</time>
      </trkpt>
      <trkpt lat="43.4295580" lon="-5.9050940">
        <ele>143.0</ele>
        <time>2018-09-15T13:36:16Z</time>
      </trkpt>
      <trkpt lat="43.4295350" lon="-5.9051970">
        <ele>143.0</ele>
        <time>2018-09-15T13:36:17Z</time>
      </trkpt>
      <trkpt lat="43.4295120" lon="-5.9053060">
        <ele>143.1</ele>
        <time>2018-09-15T13:36:18Z</time>
      </trkpt>
      <trkpt lat="43.4294900" lon="-5.9054120">
        <ele>143.1</ele>
        <time>2018-09-15T13:36:19Z</time>
      </trkpt>
      <trkpt lat="43.4294640" lon="-5.9055150">
        <ele>143.1</ele>
        <time>2018-09-15T13:36:20Z</time>
      </trkpt>
      <trkpt lat="43.4294400" lon="-5.9056200">
        <ele>143.1</ele>
        <time>2018-09-15T13:36:21Z</time>
      </trkpt>
      <trkpt lat="43.4294180" lon="-5.9057270">
        <ele>143.1</ele>
        <time>2018-09-15T13:36:22Z</time>
      </trkpt>
      <trkpt lat="43.4293930" lon="-5.9058340">
        <ele>143.1</ele>
        <time>2018-09-15T13:36:23Z</time>
      </trkpt>
      <trkpt lat="43.4293670" lon="-5.9059430">
        <ele>143.1</ele>
        <time>2018-09-15T13:36:24Z</time>
      </trkpt>
      <trkpt lat="43.4293410" lon="-5.9060570">
        <ele>143.0</ele>
        <time>2018-09-15T13:36:25Z</time>
      </trkpt>
      <trkpt lat="43.4293170" lon="-5.9061690">
        <ele>142.9</ele>
        <time>2018-09-15T13:36:26Z</time>
      </trkpt>
      <trkpt lat="43.4292940" lon="-5.9062820">
        <ele>142.8</ele>
        <time>2018-09-15T13:36:27Z</time>
      </trkpt>
      <trkpt lat="43.4292680" lon="-5.9063960">
        <ele>142.7</ele>
        <time>2018-09-15T13:36:28Z</time>
      </trkpt>
      <trkpt lat="43.4292460" lon="-5.9065130">
        <ele>142.4</ele>
        <time>2018-09-15T13:36:29Z</time>
      </trkpt>
      <trkpt lat="43.4292230" lon="-5.9066320">
        <ele>142.3</ele>
        <time>2018-09-15T13:36:30Z</time>
      </trkpt>
      <trkpt lat="43.4291960" lon="-5.9067450">
        <ele>142.2</ele>
        <time>2018-09-15T13:36:31Z</time>
      </trkpt>
      <trkpt lat="43.4291660" lon="-5.9068610">
        <ele>142.1</ele>
        <time>2018-09-15T13:36:32Z</time>
      </trkpt>
      <trkpt lat="43.4291260" lon="-5.9069660">
        <ele>142.1</ele>
        <time>2018-09-15T13:36:33Z</time>
      </trkpt>
      <trkpt lat="43.4290670" lon="-5.9070580">
        <ele>142.0</ele>
        <time>2018-09-15T13:36:34Z</time>
      </trkpt>
      <trkpt lat="43.4289930" lon="-5.9071280">
        <ele>142.0</ele>
        <time>2018-09-15T13:36:35Z</time>
      </trkpt>
      <trkpt lat="43.4289050" lon="-5.9071720">
        <ele>141.9</ele>
        <time>2018-09-15T13:36:36Z</time>
      </trkpt>
      <trkpt lat="43.4288190" lon="-5.9071890">
        <ele>141.8</ele>
        <time>2018-09-15T13:36:37Z</time>
      </trkpt>
      <trkpt lat="43.4287310" lon="-5.9071840">
        <ele>141.6</ele>
        <time>2018-09-15T13:36:38Z</time>
      </trkpt>
      <trkpt lat="43.4286490" lon="-5.9071680">
        <ele>141.4</ele>
        <time>2018-09-15T13:36:39Z</time>
      </trkpt>
      <trkpt lat="43.4285660" lon="-5.9071510">
        <ele>141.3</ele>
        <time>2018-09-15T13:36:40Z</time>
      </trkpt>
      <trkpt lat="43.4284860" lon="-5.9071380">
        <ele>141.2</ele>
        <time>2018-09-15T13:36:41Z</time>
      </trkpt>
      <trkpt lat="43.4284040" lon="-5.9071300">
        <ele>141.2</ele>
        <time>2018-09-15T13:36:42Z</time>
      </trkpt>
      <trkpt lat="43.4283250" lon="-5.9071320">
        <ele>141.2</ele>
        <time>2018-09-15T13:36:43Z</time>
      </trkpt>
      <trkpt lat="43.4282470" lon="-5.9071340">
        <ele>141.2</ele>
        <time>2018-09-15T13:36:44Z</time>
      </trkpt>
      <trkpt lat="43.4281700" lon="-5.9071400">
        <ele>141.2</ele>
        <time>2018-09-15T13:36:45Z</time>
      </trkpt>
      <trkpt lat="43.4280960" lon="-5.9071560">
        <ele>141.3</ele>
        <time>2018-09-15T13:36:46Z</time>
      </trkpt>
      <trkpt lat="43.4280280" lon="-5.9071920">
        <ele>141.3</ele>
        <time>2018-09-15T13:36:47Z</time>
      </trkpt>
      <trkpt lat="43.4279670" lon="-5.9072320">
        <ele>141.4</ele>
        <time>2018-09-15T13:36:48Z</time>
      </trkpt>
      <trkpt lat="43.4279040" lon="-5.9072710">
        <ele>141.4</ele>
        <time>2018-09-15T13:36:49Z</time>
      </trkpt>
      <trkpt lat="43.4278470" lon="-5.9073120">
        <ele>141.5</ele>
        <time>2018-09-15T13:36:50Z</time>
      </trkpt>
      <trkpt lat="43.4277910" lon="-5.9073500">
        <ele>141.6</ele>
        <time>2018-09-15T13:36:51Z</time>
      </trkpt>
      <trkpt lat="43.4277370" lon="-5.9073870">
        <ele>141.7</ele>
        <time>2018-09-15T13:36:52Z</time>
      </trkpt>
      <trkpt lat="43.4276850" lon="-5.9074270">
        <ele>141.8</ele>
        <time>2018-09-15T13:36:53Z</time>
      </trkpt>
      <trkpt lat="43.4276370" lon="-5.9074680">
        <ele>141.8</ele>
        <time>2018-09-15T13:36:54Z</time>
      </trkpt>
      <trkpt lat="43.4275880" lon="-5.9075030">
        <ele>141.9</ele>
        <time>2018-09-15T13:36:55Z</time>
      </trkpt>
      <trkpt lat="43.4275400" lon="-5.9075320">
        <ele>142.0</ele>
        <time>2018-09-15T13:36:56Z</time>
      </trkpt>
      <trkpt lat="43.4274890" lon="-5.9075580">
        <ele>142.2</ele>
        <time>2018-09-15T13:36:57Z</time>
      </trkpt>
      <trkpt lat="43.4274390" lon="-5.9075810">
        <ele>142.4</ele>
        <time>2018-09-15T13:36:58Z</time>
      </trkpt>
      <trkpt lat="43.4273860" lon="-5.9076000">
        <ele>142.6</ele>
        <time>2018-09-15T13:36:59Z</time>
      </trkpt>
      <trkpt lat="43.4273370" lon="-5.9076210">
        <ele>142.8</ele>
        <time>2018-09-15T13:37:00Z</time>
      </trkpt>
      <trkpt lat="43.4272840" lon="-5.9076390">
        <ele>143.1</ele>
        <time>2018-09-15T13:37:01Z</time>
      </trkpt>
      <trkpt lat="43.4272330" lon="-5.9076580">
        <ele>143.4</ele>
        <time>2018-09-15T13:37:02Z</time>
      </trkpt>
      <trkpt lat="43.4271810" lon="-5.9076790">
        <ele>143.8</ele>
        <time>2018-09-15T13:37:03Z</time>
      </trkpt>
      <trkpt lat="43.4271320" lon="-5.9077080">
        <ele>144.2</ele>
        <time>2018-09-15T13:37:04Z</time>
      </trkpt>
      <trkpt lat="43.4270820" lon="-5.9077410">
        <ele>144.6</ele>
        <time>2018-09-15T13:37:05Z</time>
      </trkpt>
      <trkpt lat="43.4270340" lon="-5.9077820">
        <ele>145.0</ele>
        <time>2018-09-15T13:37:06Z</time>
      </trkpt>
      <trkpt lat="43.4269900" lon="-5.9078270">
        <ele>145.1</ele>
        <time>2018-09-15T13:37:07Z</time>
      </trkpt>
      <trkpt lat="43.4269420" lon="-5.9078770">
        <ele>145.2</ele>
        <time>2018-09-15T13:37:08Z</time>
      </trkpt>
      <trkpt lat="43.4268940" lon="-5.9079280">
        <ele>145.3</ele>
        <time>2018-09-15T13:37:09Z</time>
      </trkpt>
      <trkpt lat="43.4268460" lon="-5.9079780">
        <ele>145.4</ele>
        <time>2018-09-15T13:37:10Z</time>
      </trkpt>
      <trkpt lat="43.4267970" lon="-5.9080280">
        <ele>145.5</ele>
        <time>2018-09-15T13:37:11Z</time>
      </trkpt>
      <trkpt lat="43.4267550" lon="-5.9080700">
        <ele>145.5</ele>
        <time>2018-09-15T13:37:12Z</time>
      </trkpt>
      <trkpt lat="43.4267110" lon="-5.9081210">
        <ele>145.6</ele>
        <time>2018-09-15T13:37:13Z</time>
      </trkpt>
      <trkpt lat="43.4266720" lon="-5.9081680">
        <ele>145.7</ele>
        <time>2018-09-15T13:37:14Z</time>
      </trkpt>
      <trkpt lat="43.4266280" lon="-5.9082130">
        <ele>145.8</ele>
        <time>2018-09-15T13:37:15Z</time>
      </trkpt>
      <trkpt lat="43.4265820" lon="-5.9082490">
        <ele>146.0</ele>
        <time>2018-09-15T13:37:16Z</time>
      </trkpt>
      <trkpt lat="43.4265370" lon="-5.9082840">
        <ele>146.2</ele>
        <time>2018-09-15T13:37:17Z</time>
      </trkpt>
      <trkpt lat="43.4264890" lon="-5.9083150">
        <ele>146.3</ele>
        <time>2018-09-15T13:37:18Z</time>
      </trkpt>
      <trkpt lat="43.4264430" lon="-5.9083350">
        <ele>146.5</ele>
        <time>2018-09-15T13:37:19Z</time>
      </trkpt>
      <trkpt lat="43.4263960" lon="-5.9083460">
        <ele>146.6</ele>
        <time>2018-09-15T13:37:20Z</time>
      </trkpt>
      <trkpt lat="43.4263510" lon="-5.9083440">
        <ele>146.8</ele>
        <time>2018-09-15T13:37:21Z</time>
      </trkpt>
      <trkpt lat="43.4263070" lon="-5.9083400">
        <ele>147.1</ele>
        <time>2018-09-15T13:37:22Z</time>
      </trkpt>
      <trkpt lat="43.4262720" lon="-5.9083390">
        <ele>147.4</ele>
        <time>2018-09-15T13:37:23Z</time>
      </trkpt>
      <trkpt lat="43.4262320" lon="-5.9083190">
        <ele>147.8</ele>
        <time>2018-09-15T13:37:24Z</time>
      </trkpt>
      <trkpt lat="43.4261930" lon="-5.9082990">
        <ele>148.1</ele>
        <time>2018-09-15T13:37:25Z</time>
      </trkpt>
      <trkpt lat="43.4261540" lon="-5.9082760">
        <ele>148.4</ele>
        <time>2018-09-15T13:37:26Z</time>
      </trkpt>
      <trkpt lat="43.4261160" lon="-5.9082550">
        <ele>148.7</ele>
        <time>2018-09-15T13:37:27Z</time>
      </trkpt>
      <trkpt lat="43.4260820" lon="-5.9082340">
        <ele>149.0</ele>
        <time>2018-09-15T13:37:28Z</time>
      </trkpt>
      <trkpt lat="43.4260520" lon="-5.9082170">
        <ele>149.1</ele>
        <time>2018-09-15T13:37:29Z</time>
      </trkpt>
      <trkpt lat="43.4260200" lon="-5.9081890">
        <ele>149.3</ele>
        <time>2018-09-15T13:37:30Z</time>
      </trkpt>
      <trkpt lat="43.4260010" lon="-5.9081800">
        <ele>149.4</ele>
        <time>2018-09-15T13:37:31Z</time>
      </trkpt>
      <trkpt lat="43.4259710" lon="-5.9081650">
        <ele>149.5</ele>
        <time>2018-09-15T13:37:32Z</time>
      </trkpt>
      <trkpt lat="43.4259450" lon="-5.9081530">
        <ele>149.6</ele>
        <time>2018-09-15T13:37:33Z</time>
      </trkpt>
      <trkpt lat="43.4259110" lon="-5.9081460">
        <ele>149.9</ele>
        <time>2018-09-15T13:37:34Z</time>
      </trkpt>
      <trkpt lat="43.4258870" lon="-5.9081390">
        <ele>150.0</ele>
        <time>2018-09-15T13:37:35Z</time>
      </trkpt>
      <trkpt lat="43.4258530" lon="-5.9081260">
        <ele>150.2</ele>
        <time>2018-09-15T13:37:36Z</time>
      </trkpt>
      <trkpt lat="43.4258280" lon="-5.9081160">
        <ele>150.4</ele>
        <time>2018-09-15T13:37:37Z</time>
      </trkpt>
      <trkpt lat="43.4257940" lon="-5.9081010">
        <ele>150.7</ele>
        <time>2018-09-15T13:37:38Z</time>
      </trkpt>
      <trkpt lat="43.4257670" lon="-5.9080890">
        <ele>150.9</ele>
        <time>2018-09-15T13:37:39Z</time>
      </trkpt>
      <trkpt lat="43.4257350" lon="-5.9080760">
        <ele>151.1</ele>
        <time>2018-09-15T13:37:40Z</time>
      </trkpt>
      <trkpt lat="43.4257090" lon="-5.9080680">
        <ele>151.3</ele>
        <time>2018-09-15T13:37:41Z</time>
      </trkpt>
      <trkpt lat="43.4256800" lon="-5.9080610">
        <ele>151.5</ele>
        <time>2018-09-15T13:37:42Z</time>
      </trkpt>
      <trkpt lat="43.4256470" lon="-5.9080550">
        <ele>151.8</ele>
        <time>2018-09-15T13:37:43Z</time>
      </trkpt>
      <trkpt lat="43.4256190" lon="-5.9080490">
        <ele>152.0</ele>
        <time>2018-09-15T13:37:44Z</time>
      </trkpt>
      <trkpt lat="43.4255900" lon="-5.9080430">
        <ele>152.2</ele>
        <time>2018-09-15T13:37:45Z</time>
      </trkpt>
      <trkpt lat="43.4255520" lon="-5.9080400">
        <ele>152.6</ele>
        <time>2018-09-15T13:37:46Z</time>
      </trkpt>
      <trkpt lat="43.4255240" lon="-5.9080360">
        <ele>152.8</ele>
        <time>2018-09-15T13:37:47Z</time>
      </trkpt>
      <trkpt lat="43.4254910" lon="-5.9080370">
        <ele>153.1</ele>
        <time>2018-09-15T13:37:48Z</time>
      </trkpt>
      <trkpt lat="43.4254610" lon="-5.9080390">
        <ele>153.4</ele>
        <time>2018-09-15T13:37:49Z</time>
      </trkpt>
      <trkpt lat="43.4254360" lon="-5.9080400">
        <ele>153.6</ele>
        <time>2018-09-15T13:37:50Z</time>
      </trkpt>
      <trkpt lat="43.4254060" lon="-5.9080460">
        <ele>153.9</ele>
        <time>2018-09-15T13:37:51Z</time>
      </trkpt>
      <trkpt lat="43.4253820" lon="-5.9080490">
        <ele>154.2</ele>
        <time>2018-09-15T13:37:52Z</time>
      </trkpt>
      <trkpt lat="43.4253570" lon="-5.9080520">
        <ele>154.5</ele>
        <time>2018-09-15T13:37:53Z</time>
      </trkpt>
      <trkpt lat="43.4253260" lon="-5.9080600">
        <ele>154.9</ele>
        <time>2018-09-15T13:37:54Z</time>
      </trkpt>
      <trkpt lat="43.4253000" lon="-5.9080660">
        <ele>155.2</ele>
        <time>2018-09-15T13:37:55Z</time>
      </trkpt>
      <trkpt lat="43.4252650" lon="-5.9080790">
        <ele>155.7</ele>
        <time>2018-09-15T13:37:56Z</time>
      </trkpt>
      <trkpt lat="43.4252420" lon="-5.9080860">
        <ele>156.0</ele>
        <time>2018-09-15T13:37:57Z</time>
      </trkpt>
      <trkpt lat="43.4252140" lon="-5.9080940">
        <ele>156.4</ele>
        <time>2018-09-15T13:37:58Z</time>
      </trkpt>
      <trkpt lat="43.4251910" lon="-5.9081010">
        <ele>156.7</ele>
        <time>2018-09-15T13:37:59Z</time>
      </trkpt>
      <trkpt lat="43.4251670" lon="-5.9081090">
        <ele>157.0</ele>
        <time>2018-09-15T13:38:00Z</time>
      </trkpt>
      <trkpt lat="43.4251430" lon="-5.9081180">
        <ele>157.3</ele>
        <time>2018-09-15T13:38:01Z</time>
      </trkpt>
      <trkpt lat="43.4251180" lon="-5.9081280">
        <ele>157.8</ele>
        <time>2018-09-15T13:38:02Z</time>
      </trkpt>
      <trkpt lat="43.4250900" lon="-5.9081410">
        <ele>158.3</ele>
        <time>2018-09-15T13:38:03Z</time>
      </trkpt>
      <trkpt lat="43.4250630" lon="-5.9081510">
        <ele>158.9</ele>
        <time>2018-09-15T13:38:04Z</time>
      </trkpt>
      <trkpt lat="43.4250410" lon="-5.9081580">
        <ele>159.3</ele>
        <time>2018-09-15T13:38:05Z</time>
      </trkpt>
      <trkpt lat="43.4250170" lon="-5.9081630">
        <ele>159.8</ele>
        <time>2018-09-15T13:38:06Z</time>
      </trkpt>
      <trkpt lat="43.4249930" lon="-5.9081690">
        <ele>160.1</ele>
        <time>2018-09-15T13:38:07Z</time>
      </trkpt>
      <trkpt lat="43.4249660" lon="-5.9081780">
        <ele>160.4</ele>
        <time>2018-09-15T13:38:08Z</time>
      </trkpt>
      <trkpt lat="43.4249450" lon="-5.9081830">
        <ele>160.6</ele>
        <time>2018-09-15T13:38:09Z</time>
      </trkpt>
      <trkpt lat="43.4249190" lon="-5.9081920">
        <ele>160.9</ele>
        <time>2018-09-15T13:38:10Z</time>
      </trkpt>
      <trkpt lat="43.4249020" lon="-5.9081970">
        <ele>161.1</ele>
        <time>2018-09-15T13:38:11Z</time>
      </trkpt>
      <trkpt lat="43.4248800" lon="-5.9082050">
        <ele>161.6</ele>
        <time>2018-09-15T13:38:12Z</time>
      </trkpt>
      <trkpt lat="43.4248580" lon="-5.9082120">
        <ele>162.1</ele>
        <time>2018-09-15T13:38:13Z</time>
      </trkpt>
      <trkpt lat="43.4248300" lon="-5.9082240">
        <ele>162.6</ele>
        <time>2018-09-15T13:38:14Z</time>
      </trkpt>
      <trkpt lat="43.4248090" lon="-5.9082320">
        <ele>163.0</ele>
        <time>2018-09-15T13:38:15Z</time>
      </trkpt>
      <trkpt lat="43.4247810" lon="-5.9082420">
        <ele>163.5</ele>
        <time>2018-09-15T13:38:16Z</time>
      </trkpt>
      <trkpt lat="43.4247620" lon="-5.9082500">
        <ele>163.8</ele>
        <time>2018-09-15T13:38:17Z</time>
      </trkpt>
      <trkpt lat="43.4247320" lon="-5.9082620">
        <ele>164.2</ele>
        <time>2018-09-15T13:38:18Z</time>
      </trkpt>
      <trkpt lat="43.4247110" lon="-5.9082700">
        <ele>164.4</ele>
        <time>2018-09-15T13:38:19Z</time>
      </trkpt>
      <trkpt lat="43.4246800" lon="-5.9082830">
        <ele>164.8</ele>
        <time>2018-09-15T13:38:20Z</time>
      </trkpt>
      <trkpt lat="43.4246570" lon="-5.9082930">
        <ele>165.2</ele>
        <time>2018-09-15T13:38:21Z</time>
      </trkpt>
      <trkpt lat="43.4246300" lon="-5.9083040">
        <ele>165.8</ele>
        <time>2018-09-15T13:38:22Z</time>
      </trkpt>
      <trkpt lat="43.4246030" lon="-5.9083120">
        <ele>166.5</ele>
        <time>2018-09-15T13:38:23Z</time>
      </trkpt>
      <trkpt lat="43.4245830" lon="-5.9083190">
        <ele>167.0</ele>
        <time>2018-09-15T13:38:24Z</time>
      </trkpt>
      <trkpt lat="43.4245560" lon="-5.9083280">
        <ele>167.0</ele>
        <time>2018-09-15T13:38:25Z</time>
      </trkpt>
      <trkpt lat="43.4245380" lon="-5.9083310">
        <ele>167.0</ele>
        <time>2018-09-15T13:38:26Z</time>
      </trkpt>
      <trkpt lat="43.4245100" lon="-5.9083400">
        <ele>167.0</ele>
        <time>2018-09-15T13:38:27Z</time>
      </trkpt>
      <trkpt lat="43.4244880" lon="-5.9083440">
        <ele>167.0</ele>
        <time>2018-09-15T13:38:28Z</time>
      </trkpt>
      <trkpt lat="43.4244610" lon="-5.9083530">
        <ele>166.9</ele>
        <time>2018-09-15T13:38:29Z</time>
      </trkpt>
      <trkpt lat="43.4244400" lon="-5.9083580">
        <ele>166.9</ele>
        <time>2018-09-15T13:38:30Z</time>
      </trkpt>
      <trkpt lat="43.4244200" lon="-5.9083640">
        <ele>166.9</ele>
        <time>2018-09-15T13:38:31Z</time>
      </trkpt>
      <trkpt lat="43.4243990" lon="-5.9083690">
        <ele>166.9</ele>
        <time>2018-09-15T13:38:32Z</time>
      </trkpt>
      <trkpt lat="43.4243790" lon="-5.9083770">
        <ele>166.9</ele>
        <time>2018-09-15T13:38:33Z</time>
      </trkpt>
      <trkpt lat="43.4243630" lon="-5.9083810">
        <ele>166.9</ele>
        <time>2018-09-15T13:38:34Z</time>
      </trkpt>
      <trkpt lat="43.4243420" lon="-5.9083880">
        <ele>166.9</ele>
        <time>2018-09-15T13:38:35Z</time>
      </trkpt>
      <trkpt lat="43.4243210" lon="-5.9083960">
        <ele>166.9</ele>
        <time>2018-09-15T13:38:36Z</time>
      </trkpt>
      <trkpt lat="43.4243010" lon="-5.9084040">
        <ele>166.9</ele>
        <time>2018-09-15T13:38:37Z</time>
      </trkpt>
      <trkpt lat="43.4242820" lon="-5.9084110">
        <ele>166.9</ele>
        <time>2018-09-15T13:38:38Z</time>
      </trkpt>
      <trkpt lat="43.4242680" lon="-5.9084160">
        <ele>166.9</ele>
        <time>2018-09-15T13:38:39Z</time>
      </trkpt>
      <trkpt lat="43.4242430" lon="-5.9084260">
        <ele>166.8</ele>
        <time>2018-09-15T13:38:40Z</time>
      </trkpt>
      <trkpt lat="43.4242290" lon="-5.9084290">
        <ele>166.8</ele>
        <time>2018-09-15T13:38:41Z</time>
      </trkpt>
      <trkpt lat="43.4242080" lon="-5.9084340">
        <ele>166.8</ele>
        <time>2018-09-15T13:38:42Z</time>
      </trkpt>
      <trkpt lat="43.4241880" lon="-5.9084410">
        <ele>166.8</ele>
        <time>2018-09-15T13:38:43Z</time>
      </trkpt>
      <trkpt lat="43.4241630" lon="-5.9084500">
        <ele>166.7</ele>
        <time>2018-09-15T13:38:44Z</time>
      </trkpt>
      <trkpt lat="43.4241440" lon="-5.9084550">
        <ele>166.7</ele>
        <time>2018-09-15T13:38:45Z</time>
      </trkpt>
      <trkpt lat="43.4241280" lon="-5.9084590">
        <ele>166.7</ele>
        <time>2018-09-15T13:38:46Z</time>
      </trkpt>
      <trkpt lat="43.4241010" lon="-5.9084710">
        <ele>166.6</ele>
        <time>2018-09-15T13:38:47Z</time>
      </trkpt>
      <trkpt lat="43.4240830" lon="-5.9084760">
        <ele>166.6</ele>
        <time>2018-09-15T13:38:49Z</time>
      </trkpt>
      <trkpt lat="43.4240570" lon="-5.9084900">
        <ele>166.5</ele>
        <time>2018-09-15T13:38:50Z</time>
      </trkpt>
      <trkpt lat="43.4240380" lon="-5.9085010">
        <ele>166.5</ele>
        <time>2018-09-15T13:38:50Z</time>
      </trkpt>
      <trkpt lat="43.4240140" lon="-5.9085170">
        <ele>166.5</ele>
        <time>2018-09-15T13:38:52Z</time>
      </trkpt>
      <trkpt lat="43.4239960" lon="-5.9085300">
        <ele>166.4</ele>
        <time>2018-09-15T13:38:53Z</time>
      </trkpt>
      <trkpt lat="43.4239740" lon="-5.9085490">
        <ele>166.4</ele>
        <time>2018-09-15T13:38:54Z</time>
      </trkpt>
      <trkpt lat="43.4239580" lon="-5.9085630">
        <ele>166.4</ele>
        <time>2018-09-15T13:38:54Z</time>
      </trkpt>
      <trkpt lat="43.4239320" lon="-5.9085920">
        <ele>166.3</ele>
        <time>2018-09-15T13:38:56Z</time>
      </trkpt>
      <trkpt lat="43.4239240" lon="-5.9086000">
        <ele>166.2</ele>
        <time>2018-09-15T13:38:56Z</time>
      </trkpt>
      <trkpt lat="43.4239080" lon="-5.9086240">
        <ele>166.2</ele>
        <time>2018-09-15T13:38:58Z</time>
      </trkpt>
      <trkpt lat="43.4238920" lon="-5.9086480">
        <ele>166.1</ele>
        <time>2018-09-15T13:38:59Z</time>
      </trkpt>
      <trkpt lat="43.4238790" lon="-5.9086680">
        <ele>166.0</ele>
        <time>2018-09-15T13:39:00Z</time>
      </trkpt>
      <trkpt lat="43.4238650" lon="-5.9086960">
        <ele>166.5</ele>
        <time>2018-09-15T13:39:01Z</time>
      </trkpt>
      <trkpt lat="43.4238540" lon="-5.9087180">
        <ele>166.8</ele>
        <time>2018-09-15T13:39:02Z</time>
      </trkpt>
      <trkpt lat="43.4238430" lon="-5.9087490">
        <ele>167.2</ele>
        <time>2018-09-15T13:39:03Z</time>
      </trkpt>
      <trkpt lat="43.4238330" lon="-5.9087730">
        <ele>167.3</ele>
        <time>2018-09-15T13:39:04Z</time>
      </trkpt>
      <trkpt lat="43.4238260" lon="-5.9087980">
        <ele>167.5</ele>
        <time>2018-09-15T13:39:05Z</time>
      </trkpt>
      <trkpt lat="43.4238180" lon="-5.9088260">
        <ele>167.6</ele>
        <time>2018-09-15T13:39:06Z</time>
      </trkpt>
      <trkpt lat="43.4238110" lon="-5.9088620">
        <ele>167.8</ele>
        <time>2018-09-15T13:39:07Z</time>
      </trkpt>
      <trkpt lat="43.4238070" lon="-5.9088960">
        <ele>168.0</ele>
        <time>2018-09-15T13:39:08Z</time>
      </trkpt>
      <trkpt lat="43.4238040" lon="-5.9089230">
        <ele>168.1</ele>
        <time>2018-09-15T13:39:09Z</time>
      </trkpt>
      <trkpt lat="43.4238020" lon="-5.9089520">
        <ele>168.3</ele>
        <time>2018-09-15T13:39:10Z</time>
      </trkpt>
      <trkpt lat="43.4238000" lon="-5.9089820">
        <ele>168.4</ele>
        <time>2018-09-15T13:39:11Z</time>
      </trkpt>
      <trkpt lat="43.4237990" lon="-5.9090130">
        <ele>168.7</ele>
        <time>2018-09-15T13:39:12Z</time>
      </trkpt>
      <trkpt lat="43.4237980" lon="-5.9090450">
        <ele>169.1</ele>
        <time>2018-09-15T13:39:13Z</time>
      </trkpt>
      <trkpt lat="43.4237990" lon="-5.9090860">
        <ele>169.7</ele>
        <time>2018-09-15T13:39:14Z</time>
      </trkpt>
      <trkpt lat="43.4238000" lon="-5.9091180">
        <ele>170.1</ele>
        <time>2018-09-15T13:39:15Z</time>
      </trkpt>
      <trkpt lat="43.4237980" lon="-5.9091590">
        <ele>170.5</ele>
        <time>2018-09-15T13:39:16Z</time>
      </trkpt>
      <trkpt lat="43.4237980" lon="-5.9091980">
        <ele>170.9</ele>
        <time>2018-09-15T13:39:17Z</time>
      </trkpt>
      <trkpt lat="43.4237970" lon="-5.9092360">
        <ele>171.1</ele>
        <time>2018-09-15T13:39:18Z</time>
      </trkpt>
      <trkpt lat="43.4237960" lon="-5.9092680">
        <ele>171.3</ele>
        <time>2018-09-15T13:39:19Z</time>
      </trkpt>
      <trkpt lat="43.4237940" lon="-5.9093040">
        <ele>171.5</ele>
        <time>2018-09-15T13:39:20Z</time>
      </trkpt>
      <trkpt lat="43.4237940" lon="-5.9093470">
        <ele>171.7</ele>
        <time>2018-09-15T13:39:21Z</time>
      </trkpt>
      <trkpt lat="43.4237870" lon="-5.9094190">
        <ele>172.0</ele>
        <time>2018-09-15T13:39:22Z</time>
      </trkpt>
      <trkpt lat="43.4237860" lon="-5.9094580">
        <ele>172.1</ele>
        <time>2018-09-15T13:39:23Z</time>
      </trkpt>
      <trkpt lat="43.4237860" lon="-5.9094970">
        <ele>172.2</ele>
        <time>2018-09-15T13:39:24Z</time>
      </trkpt>
      <trkpt lat="43.4237860" lon="-5.9095350">
        <ele>172.4</ele>
        <time>2018-09-15T13:39:25Z</time>
      </trkpt>
      <trkpt lat="43.4237880" lon="-5.9095750">
        <ele>172.5</ele>
        <time>2018-09-15T13:39:26Z</time>
      </trkpt>
      <trkpt lat="43.4237880" lon="-5.9095750">
        <ele>172.5</ele>
        <time>2018-09-15T13:39:27Z</time>
      </trkpt>
      <trkpt lat="43.4237900" lon="-5.9096200">
        <ele>172.7</ele>
        <time>2018-09-15T13:39:28Z</time>
      </trkpt>
      <trkpt lat="43.4237930" lon="-5.9096930">
        <ele>172.9</ele>
        <time>2018-09-15T13:39:29Z</time>
      </trkpt>
      <trkpt lat="43.4237980" lon="-5.9097300">
        <ele>173.2</ele>
        <time>2018-09-15T13:39:30Z</time>
      </trkpt>
      <trkpt lat="43.4238050" lon="-5.9097670">
        <ele>173.6</ele>
        <time>2018-09-15T13:39:31Z</time>
      </trkpt>
      <trkpt lat="43.4238190" lon="-5.9098060">
        <ele>174.1</ele>
        <time>2018-09-15T13:39:32Z</time>
      </trkpt>
      <trkpt lat="43.4238280" lon="-5.9098340">
        <ele>174.5</ele>
        <time>2018-09-15T13:39:33Z</time>
      </trkpt>
      <trkpt lat="43.4238450" lon="-5.9098660">
        <ele>175.0</ele>
        <time>2018-09-15T13:39:34Z</time>
      </trkpt>
      <trkpt lat="43.4238610" lon="-5.9098990">
        <ele>175.4</ele>
        <time>2018-09-15T13:39:35Z</time>
      </trkpt>
      <trkpt lat="43.4238770" lon="-5.9099280">
        <ele>175.8</ele>
        <time>2018-09-15T13:39:36Z</time>
      </trkpt>
      <trkpt lat="43.4238980" lon="-5.9099600">
        <ele>176.2</ele>
        <time>2018-09-15T13:39:37Z</time>
      </trkpt>
      <trkpt lat="43.4239160" lon="-5.9099830">
        <ele>176.4</ele>
        <time>2018-09-15T13:39:38Z</time>
      </trkpt>
      <trkpt lat="43.4239350" lon="-5.9100070">
        <ele>176.5</ele>
        <time>2018-09-15T13:39:39Z</time>
      </trkpt>
      <trkpt lat="43.4239520" lon="-5.9100280">
        <ele>176.6</ele>
        <time>2018-09-15T13:39:40Z</time>
      </trkpt>
      <trkpt lat="43.4239760" lon="-5.9100580">
        <ele>176.8</ele>
        <time>2018-09-15T13:39:41Z</time>
      </trkpt>
      <trkpt lat="43.4239950" lon="-5.9100800">
        <ele>177.0</ele>
        <time>2018-09-15T13:39:42Z</time>
      </trkpt>
      <trkpt lat="43.4240140" lon="-5.9101020">
        <ele>177.1</ele>
        <time>2018-09-15T13:39:43Z</time>
      </trkpt>
      <trkpt lat="43.4240370" lon="-5.9101270">
        <ele>177.2</ele>
        <time>2018-09-15T13:39:44Z</time>
      </trkpt>
      <trkpt lat="43.4240550" lon="-5.9101480">
        <ele>177.4</ele>
        <time>2018-09-15T13:39:45Z</time>
      </trkpt>
      <trkpt lat="43.4240770" lon="-5.9101730">
        <ele>177.5</ele>
        <time>2018-09-15T13:39:46Z</time>
      </trkpt>
      <trkpt lat="43.4240950" lon="-5.9101920">
        <ele>177.7</ele>
        <time>2018-09-15T13:39:47Z</time>
      </trkpt>
      <trkpt lat="43.4241150" lon="-5.9102110">
        <ele>178.0</ele>
        <time>2018-09-15T13:39:48Z</time>
      </trkpt>
      <trkpt lat="43.4241360" lon="-5.9102320">
        <ele>178.5</ele>
        <time>2018-09-15T13:39:49Z</time>
      </trkpt>
      <trkpt lat="43.4241620" lon="-5.9102550">
        <ele>179.0</ele>
        <time>2018-09-15T13:39:50Z</time>
      </trkpt>
      <trkpt lat="43.4241820" lon="-5.9102700">
        <ele>179.4</ele>
        <time>2018-09-15T13:39:51Z</time>
      </trkpt>
      <trkpt lat="43.4242090" lon="-5.9102940">
        <ele>180.0</ele>
        <time>2018-09-15T13:39:52Z</time>
      </trkpt>
      <trkpt lat="43.4242300" lon="-5.9103120">
        <ele>180.4</ele>
        <time>2018-09-15T13:39:53Z</time>
      </trkpt>
      <trkpt lat="43.4242510" lon="-5.9103320">
        <ele>180.8</ele>
        <time>2018-09-15T13:39:54Z</time>
      </trkpt>
      <trkpt lat="43.4242750" lon="-5.9103560">
        <ele>181.1</ele>
        <time>2018-09-15T13:39:55Z</time>
      </trkpt>
      <trkpt lat="43.4242930" lon="-5.9103730">
        <ele>181.3</ele>
        <time>2018-09-15T13:39:56Z</time>
      </trkpt>
      <trkpt lat="43.4243130" lon="-5.9103900">
        <ele>181.6</ele>
        <time>2018-09-15T13:39:57Z</time>
      </trkpt>
      <trkpt lat="43.4243290" lon="-5.9104050">
        <ele>181.8</ele>
        <time>2018-09-15T13:39:58Z</time>
      </trkpt>
      <trkpt lat="43.4243530" lon="-5.9104310">
        <ele>182.1</ele>
        <time>2018-09-15T13:39:59Z</time>
      </trkpt>
      <trkpt lat="43.4243730" lon="-5.9104490">
        <ele>182.3</ele>
        <time>2018-09-15T13:40:00Z</time>
      </trkpt>
      <trkpt lat="43.4243920" lon="-5.9104690">
        <ele>182.6</ele>
        <time>2018-09-15T13:40:01Z</time>
      </trkpt>
      <trkpt lat="43.4244160" lon="-5.9104920">
        <ele>182.9</ele>
        <time>2018-09-15T13:40:02Z</time>
      </trkpt>
      <trkpt lat="43.4244350" lon="-5.9105100">
        <ele>183.3</ele>
        <time>2018-09-15T13:40:03Z</time>
      </trkpt>
      <trkpt lat="43.4244550" lon="-5.9105300">
        <ele>183.9</ele>
        <time>2018-09-15T13:40:04Z</time>
      </trkpt>
      <trkpt lat="43.4244790" lon="-5.9105540">
        <ele>184.6</ele>
        <time>2018-09-15T13:40:05Z</time>
      </trkpt>
      <trkpt lat="43.4244990" lon="-5.9105780">
        <ele>185.3</ele>
        <time>2018-09-15T13:40:06Z</time>
      </trkpt>
      <trkpt lat="43.4245170" lon="-5.9105940">
        <ele>185.7</ele>
        <time>2018-09-15T13:40:07Z</time>
      </trkpt>
      <trkpt lat="43.4245380" lon="-5.9106190">
        <ele>186.0</ele>
        <time>2018-09-15T13:40:08Z</time>
      </trkpt>
      <trkpt lat="43.4245570" lon="-5.9106430">
        <ele>186.3</ele>
        <time>2018-09-15T13:40:09Z</time>
      </trkpt>
      <trkpt lat="43.4245740" lon="-5.9106680">
        <ele>186.6</ele>
        <time>2018-09-15T13:40:10Z</time>
      </trkpt>
      <trkpt lat="43.4245880" lon="-5.9106890">
        <ele>186.8</ele>
        <time>2018-09-15T13:40:11Z</time>
      </trkpt>
      <trkpt lat="43.4246010" lon="-5.9107130">
        <ele>187.1</ele>
        <time>2018-09-15T13:40:12Z</time>
      </trkpt>
      <trkpt lat="43.4246160" lon="-5.9107450">
        <ele>187.9</ele>
        <time>2018-09-15T13:40:13Z</time>
      </trkpt>
      <trkpt lat="43.4246290" lon="-5.9107760">
        <ele>188.6</ele>
        <time>2018-09-15T13:40:14Z</time>
      </trkpt>
      <trkpt lat="43.4246400" lon="-5.9108070">
        <ele>189.2</ele>
        <time>2018-09-15T13:40:15Z</time>
      </trkpt>
      <trkpt lat="43.4246490" lon="-5.9108380">
        <ele>189.8</ele>
        <time>2018-09-15T13:40:16Z</time>
      </trkpt>
      <trkpt lat="43.4246560" lon="-5.9108620">
        <ele>190.0</ele>
        <time>2018-09-15T13:40:17Z</time>
      </trkpt>
      <trkpt lat="43.4246620" lon="-5.9108950">
        <ele>190.2</ele>
        <time>2018-09-15T13:40:18Z</time>
      </trkpt>
      <trkpt lat="43.4246670" lon="-5.9109210">
        <ele>190.4</ele>
        <time>2018-09-15T13:40:19Z</time>
      </trkpt>
      <trkpt lat="43.4246720" lon="-5.9109550">
        <ele>190.7</ele>
        <time>2018-09-15T13:40:20Z</time>
      </trkpt>
      <trkpt lat="43.4246750" lon="-5.9109810">
        <ele>190.9</ele>
        <time>2018-09-15T13:40:21Z</time>
      </trkpt>
      <trkpt lat="43.4246780" lon="-5.9110090">
        <ele>191.1</ele>
        <time>2018-09-15T13:40:22Z</time>
      </trkpt>
      <trkpt lat="43.4246810" lon="-5.9110370">
        <ele>191.3</ele>
        <time>2018-09-15T13:40:23Z</time>
      </trkpt>
      <trkpt lat="43.4246820" lon="-5.9110740">
        <ele>192.1</ele>
        <time>2018-09-15T13:40:24Z</time>
      </trkpt>
      <trkpt lat="43.4246840" lon="-5.9111090">
        <ele>192.8</ele>
        <time>2018-09-15T13:40:25Z</time>
      </trkpt>
      <trkpt lat="43.4246850" lon="-5.9111370">
        <ele>193.4</ele>
        <time>2018-09-15T13:40:26Z</time>
      </trkpt>
      <trkpt lat="43.4246850" lon="-5.9111660">
        <ele>194.0</ele>
        <time>2018-09-15T13:40:27Z</time>
      </trkpt>
      <trkpt lat="43.4246860" lon="-5.9111960">
        <ele>194.4</ele>
        <time>2018-09-15T13:40:28Z</time>
      </trkpt>
      <trkpt lat="43.4246860" lon="-5.9112260">
        <ele>194.8</ele>
        <time>2018-09-15T13:40:29Z</time>
      </trkpt>
      <trkpt lat="43.4246870" lon="-5.9112570">
        <ele>195.2</ele>
        <time>2018-09-15T13:40:30Z</time>
      </trkpt>
      <trkpt lat="43.4246870" lon="-5.9112950">
        <ele>195.6</ele>
        <time>2018-09-15T13:40:31Z</time>
      </trkpt>
      <trkpt lat="43.4246880" lon="-5.9113310">
        <ele>196.0</ele>
        <time>2018-09-15T13:40:32Z</time>
      </trkpt>
      <trkpt lat="43.4246890" lon="-5.9113570">
        <ele>196.6</ele>
        <time>2018-09-15T13:40:33Z</time>
      </trkpt>
      <trkpt lat="43.4246890" lon="-5.9113840">
        <ele>197.1</ele>
        <time>2018-09-15T13:40:34Z</time>
      </trkpt>
      <trkpt lat="43.4246900" lon="-5.9114060">
        <ele>197.6</ele>
        <time>2018-09-15T13:40:35Z</time>
      </trkpt>
      <trkpt lat="43.4246920" lon="-5.9114430">
        <ele>198.3</ele>
        <time>2018-09-15T13:40:36Z</time>
      </trkpt>
      <trkpt lat="43.4246930" lon="-5.9114710">
        <ele>198.8</ele>
        <time>2018-09-15T13:40:37Z</time>
      </trkpt>
      <trkpt lat="43.4246940" lon="-5.9114990">
        <ele>199.1</ele>
        <time>2018-09-15T13:40:38Z</time>
      </trkpt>
      <trkpt lat="43.4246940" lon="-5.9115350">
        <ele>199.6</ele>
        <time>2018-09-15T13:40:39Z</time>
      </trkpt>
      <trkpt lat="43.4246960" lon="-5.9115680">
        <ele>199.9</ele>
        <time>2018-09-15T13:40:40Z</time>
      </trkpt>
      <trkpt lat="43.4246960" lon="-5.9115930">
        <ele>200.2</ele>
        <time>2018-09-15T13:40:41Z</time>
      </trkpt>
      <trkpt lat="43.4246950" lon="-5.9116250">
        <ele>200.5</ele>
        <time>2018-09-15T13:40:42Z</time>
      </trkpt>
      <trkpt lat="43.4246960" lon="-5.9116430">
        <ele>200.7</ele>
        <time>2018-09-15T13:40:43Z</time>
      </trkpt>
      <trkpt lat="43.4246950" lon="-5.9116780">
        <ele>201.2</ele>
        <time>2018-09-15T13:40:44Z</time>
      </trkpt>
      <trkpt lat="43.4246950" lon="-5.9117050">
        <ele>201.7</ele>
        <time>2018-09-15T13:40:45Z</time>
      </trkpt>
      <trkpt lat="43.4246940" lon="-5.9117310">
        <ele>202.3</ele>
        <time>2018-09-15T13:40:46Z</time>
      </trkpt>
      <trkpt lat="43.4246930" lon="-5.9117660">
        <ele>202.9</ele>
        <time>2018-09-15T13:40:47Z</time>
      </trkpt>
      <trkpt lat="43.4246920" lon="-5.9117860">
        <ele>203.3</ele>
        <time>2018-09-15T13:40:48Z</time>
      </trkpt>
      <trkpt lat="43.4246910" lon="-5.9118160">
        <ele>203.6</ele>
        <time>2018-09-15T13:40:49Z</time>
      </trkpt>
      <trkpt lat="43.4246920" lon="-5.9118450">
        <ele>203.8</ele>
        <time>2018-09-15T13:40:50Z</time>
      </trkpt>
      <trkpt lat="43.4246900" lon="-5.9118800">
        <ele>204.0</ele>
        <time>2018-09-15T13:40:51Z</time>
      </trkpt>
      <trkpt lat="43.4246880" lon="-5.9119050">
        <ele>204.2</ele>
        <time>2018-09-15T13:40:52Z</time>
      </trkpt>
      <trkpt lat="43.4246880" lon="-5.9119310">
        <ele>204.4</ele>
        <time>2018-09-15T13:40:53Z</time>
      </trkpt>
      <trkpt lat="43.4246890" lon="-5.9119640">
        <ele>204.6</ele>
        <time>2018-09-15T13:40:54Z</time>
      </trkpt>
      <trkpt lat="43.4246890" lon="-5.9119830">
        <ele>204.8</ele>
        <time>2018-09-15T13:40:55Z</time>
      </trkpt>
      <trkpt lat="43.4246880" lon="-5.9120120">
        <ele>205.0</ele>
        <time>2018-09-15T13:40:56Z</time>
      </trkpt>
      <trkpt lat="43.4246860" lon="-5.9120400">
        <ele>205.4</ele>
        <time>2018-09-15T13:40:57Z</time>
      </trkpt>
      <trkpt lat="43.4246850" lon="-5.9120700">
        <ele>205.7</ele>
        <time>2018-09-15T13:40:58Z</time>
      </trkpt>
      <trkpt lat="43.4246840" lon="-5.9121000">
        <ele>206.6</ele>
        <time>2018-09-15T13:40:59Z</time>
      </trkpt>
      <trkpt lat="43.4246820" lon="-5.9121290">
        <ele>207.1</ele>
        <time>2018-09-15T13:41:00Z</time>
      </trkpt>
      <trkpt lat="43.4246780" lon="-5.9121640">
        <ele>207.8</ele>
        <time>2018-09-15T13:41:01Z</time>
      </trkpt>
      <trkpt lat="43.4246740" lon="-5.9121910">
        <ele>208.1</ele>
        <time>2018-09-15T13:41:02Z</time>
      </trkpt>
      <trkpt lat="43.4246690" lon="-5.9122250">
        <ele>208.4</ele>
        <time>2018-09-15T13:41:03Z</time>
      </trkpt>
      <trkpt lat="43.4246650" lon="-5.9122520">
        <ele>208.7</ele>
        <time>2018-09-15T13:41:04Z</time>
      </trkpt>
      <trkpt lat="43.4246610" lon="-5.9122790">
        <ele>208.9</ele>
        <time>2018-09-15T13:41:05Z</time>
      </trkpt>
      <trkpt lat="43.4246550" lon="-5.9123140">
        <ele>209.4</ele>
        <time>2018-09-15T13:41:06Z</time>
      </trkpt>
      <trkpt lat="43.4246490" lon="-5.9123400">
        <ele>210.0</ele>
        <time>2018-09-15T13:41:07Z</time>
      </trkpt>
      <trkpt lat="43.4246390" lon="-5.9123720">
        <ele>210.7</ele>
        <time>2018-09-15T13:41:08Z</time>
      </trkpt>
      <trkpt lat="43.4246300" lon="-5.9123950">
        <ele>211.1</ele>
        <time>2018-09-15T13:41:09Z</time>
      </trkpt>
      <trkpt lat="43.4246160" lon="-5.9124230">
        <ele>211.7</ele>
        <time>2018-09-15T13:41:10Z</time>
      </trkpt>
      <trkpt lat="43.4246000" lon="-5.9124490">
        <ele>212.1</ele>
        <time>2018-09-15T13:41:11Z</time>
      </trkpt>
      <trkpt lat="43.4245840" lon="-5.9124740">
        <ele>212.4</ele>
        <time>2018-09-15T13:41:12Z</time>
      </trkpt>
      <trkpt lat="43.4245710" lon="-5.9124930">
        <ele>212.7</ele>
        <time>2018-09-15T13:41:13Z</time>
      </trkpt>
      <trkpt lat="43.4245550" lon="-5.9125130">
        <ele>213.0</ele>
        <time>2018-09-15T13:41:14Z</time>
      </trkpt>
      <trkpt lat="43.4245390" lon="-5.9125320">
        <ele>213.3</ele>
        <time>2018-09-15T13:41:15Z</time>
      </trkpt>
      <trkpt lat="43.4245180" lon="-5.9125530">
        <ele>213.6</ele>
        <time>2018-09-15T13:41:16Z</time>
      </trkpt>
      <trkpt lat="43.4245010" lon="-5.9125670">
        <ele>213.9</ele>
        <time>2018-09-15T13:41:17Z</time>
      </trkpt>
      <trkpt lat="43.4244830" lon="-5.9125790">
        <ele>214.4</ele>
        <time>2018-09-15T13:41:18Z</time>
      </trkpt>
      <trkpt lat="43.4244640" lon="-5.9125920">
        <ele>214.9</ele>
        <time>2018-09-15T13:41:19Z</time>
      </trkpt>
      <trkpt lat="43.4244450" lon="-5.9126010">
        <ele>215.4</ele>
        <time>2018-09-15T13:41:20Z</time>
      </trkpt>
      <trkpt lat="43.4244250" lon="-5.9126110">
        <ele>216.0</ele>
        <time>2018-09-15T13:41:21Z</time>
      </trkpt>
      <trkpt lat="43.4244000" lon="-5.9126230">
        <ele>216.6</ele>
        <time>2018-09-15T13:41:22Z</time>
      </trkpt>
      <trkpt lat="43.4243770" lon="-5.9126370">
        <ele>216.9</ele>
        <time>2018-09-15T13:41:23Z</time>
      </trkpt>
      <trkpt lat="43.4243600" lon="-5.9126470">
        <ele>217.1</ele>
        <time>2018-09-15T13:41:24Z</time>
      </trkpt>
      <trkpt lat="43.4243390" lon="-5.9126640">
        <ele>217.4</ele>
        <time>2018-09-15T13:41:25Z</time>
      </trkpt>
      <trkpt lat="43.4243190" lon="-5.9126800">
        <ele>217.7</ele>
        <time>2018-09-15T13:41:26Z</time>
      </trkpt>
      <trkpt lat="43.4243010" lon="-5.9126980">
        <ele>217.9</ele>
        <time>2018-09-15T13:41:27Z</time>
      </trkpt>
      <trkpt lat="43.4242840" lon="-5.9127170">
        <ele>218.2</ele>
        <time>2018-09-15T13:41:28Z</time>
      </trkpt>
      <trkpt lat="43.4242690" lon="-5.9127300">
        <ele>218.5</ele>
        <time>2018-09-15T13:41:29Z</time>
      </trkpt>
      <trkpt lat="43.4242500" lon="-5.9127510">
        <ele>219.1</ele>
        <time>2018-09-15T13:41:30Z</time>
      </trkpt>
      <trkpt lat="43.4242380" lon="-5.9127640">
        <ele>219.5</ele>
        <time>2018-09-15T13:41:31Z</time>
      </trkpt>
      <trkpt lat="43.4242220" lon="-5.9127840">
        <ele>220.0</ele>
        <time>2018-09-15T13:41:32Z</time>
      </trkpt>
      <trkpt lat="43.4242060" lon="-5.9128030">
        <ele>220.1</ele>
        <time>2018-09-15T13:41:33Z</time>
      </trkpt>
      <trkpt lat="43.4241930" lon="-5.9128160">
        <ele>220.1</ele>
        <time>2018-09-15T13:41:34Z</time>
      </trkpt>
      <trkpt lat="43.4241780" lon="-5.9128340">
        <ele>220.2</ele>
        <time>2018-09-15T13:41:35Z</time>
      </trkpt>
      <trkpt lat="43.4241650" lon="-5.9128510">
        <ele>220.3</ele>
        <time>2018-09-15T13:41:36Z</time>
      </trkpt>
      <trkpt lat="43.4241530" lon="-5.9128640">
        <ele>220.4</ele>
        <time>2018-09-15T13:41:37Z</time>
      </trkpt>
      <trkpt lat="43.4241390" lon="-5.9128790">
        <ele>220.5</ele>
        <time>2018-09-15T13:41:38Z</time>
      </trkpt>
      <trkpt lat="43.4241240" lon="-5.9128950">
        <ele>220.6</ele>
        <time>2018-09-15T13:41:39Z</time>
      </trkpt>
      <trkpt lat="43.4241080" lon="-5.9129110">
        <ele>220.8</ele>
        <time>2018-09-15T13:41:40Z</time>
      </trkpt>
      <trkpt lat="43.4240950" lon="-5.9129250">
        <ele>220.9</ele>
        <time>2018-09-15T13:41:41Z</time>
      </trkpt>
      <trkpt lat="43.4240750" lon="-5.9129500">
        <ele>221.0</ele>
        <time>2018-09-15T13:41:42Z</time>
      </trkpt>
      <trkpt lat="43.4240580" lon="-5.9129680">
        <ele>221.1</ele>
        <time>2018-09-15T13:41:43Z</time>
      </trkpt>
      <trkpt lat="43.4240410" lon="-5.9129850">
        <ele>221.2</ele>
        <time>2018-09-15T13:41:44Z</time>
      </trkpt>
      <trkpt lat="43.4240240" lon="-5.9130020">
        <ele>221.2</ele>
        <time>2018-09-15T13:41:45Z</time>
      </trkpt>
      <trkpt lat="43.4240060" lon="-5.9130210">
        <ele>221.3</ele>
        <time>2018-09-15T13:41:46Z</time>
      </trkpt>
      <trkpt lat="43.4239890" lon="-5.9130400">
        <ele>221.4</ele>
        <time>2018-09-15T13:41:47Z</time>
      </trkpt>
      <trkpt lat="43.4239720" lon="-5.9130590">
        <ele>221.5</ele>
        <time>2018-09-15T13:41:48Z</time>
      </trkpt>
      <trkpt lat="43.4239530" lon="-5.9130830">
        <ele>221.7</ele>
        <time>2018-09-15T13:41:49Z</time>
      </trkpt>
      <trkpt lat="43.4239390" lon="-5.9131020">
        <ele>221.9</ele>
        <time>2018-09-15T13:41:50Z</time>
      </trkpt>
      <trkpt lat="43.4239240" lon="-5.9131210">
        <ele>222.0</ele>
        <time>2018-09-15T13:41:51Z</time>
      </trkpt>
      <trkpt lat="43.4239100" lon="-5.9131420">
        <ele>222.1</ele>
        <time>2018-09-15T13:41:52Z</time>
      </trkpt>
      <trkpt lat="43.4238970" lon="-5.9131630">
        <ele>222.2</ele>
        <time>2018-09-15T13:41:53Z</time>
      </trkpt>
      <trkpt lat="43.4238830" lon="-5.9131820">
        <ele>222.3</ele>
        <time>2018-09-15T13:41:54Z</time>
      </trkpt>
      <trkpt lat="43.4238700" lon="-5.9132030">
        <ele>222.4</ele>
        <time>2018-09-15T13:41:55Z</time>
      </trkpt>
      <trkpt lat="43.4238570" lon="-5.9132240">
        <ele>222.5</ele>
        <time>2018-09-15T13:41:56Z</time>
      </trkpt>
      <trkpt lat="43.4238460" lon="-5.9132400">
        <ele>222.5</ele>
        <time>2018-09-15T13:41:57Z</time>
      </trkpt>
      <trkpt lat="43.4238310" lon="-5.9132630">
        <ele>222.7</ele>
        <time>2018-09-15T13:41:58Z</time>
      </trkpt>
      <trkpt lat="43.4238160" lon="-5.9132840">
        <ele>222.8</ele>
        <time>2018-09-15T13:41:59Z</time>
      </trkpt>
      <trkpt lat="43.4238050" lon="-5.9133020">
        <ele>222.9</ele>
        <time>2018-09-15T13:42:00Z</time>
      </trkpt>
      <trkpt lat="43.4237940" lon="-5.9133210">
        <ele>223.0</ele>
        <time>2018-09-15T13:42:01Z</time>
      </trkpt>
      <trkpt lat="43.4237800" lon="-5.9133540">
        <ele>223.1</ele>
        <time>2018-09-15T13:42:02Z</time>
      </trkpt>
      <trkpt lat="43.4237700" lon="-5.9133730">
        <ele>223.1</ele>
        <time>2018-09-15T13:42:03Z</time>
      </trkpt>
      <trkpt lat="43.4237560" lon="-5.9134040">
        <ele>223.2</ele>
        <time>2018-09-15T13:42:04Z</time>
      </trkpt>
      <trkpt lat="43.4237450" lon="-5.9134250">
        <ele>223.2</ele>
        <time>2018-09-15T13:42:05Z</time>
      </trkpt>
      <trkpt lat="43.4237350" lon="-5.9134470">
        <ele>223.2</ele>
        <time>2018-09-15T13:42:06Z</time>
      </trkpt>
      <trkpt lat="43.4237230" lon="-5.9134680">
        <ele>223.3</ele>
        <time>2018-09-15T13:42:07Z</time>
      </trkpt>
      <trkpt lat="43.4237100" lon="-5.9134890">
        <ele>223.4</ele>
        <time>2018-09-15T13:42:08Z</time>
      </trkpt>
      <trkpt lat="43.4236990" lon="-5.9135130">
        <ele>223.5</ele>
        <time>2018-09-15T13:42:09Z</time>
      </trkpt>
      <trkpt lat="43.4236860" lon="-5.9135440">
        <ele>223.6</ele>
        <time>2018-09-15T13:42:10Z</time>
      </trkpt>
      <trkpt lat="43.4236740" lon="-5.9135670">
        <ele>223.8</ele>
        <time>2018-09-15T13:42:11Z</time>
      </trkpt>
      <trkpt lat="43.4236600" lon="-5.9135900">
        <ele>223.9</ele>
        <time>2018-09-15T13:42:12Z</time>
      </trkpt>
      <trkpt lat="43.4236440" lon="-5.9136180">
        <ele>224.0</ele>
        <time>2018-09-15T13:42:13Z</time>
      </trkpt>
      <trkpt lat="43.4236320" lon="-5.9136390">
        <ele>224.0</ele>
        <time>2018-09-15T13:42:14Z</time>
      </trkpt>
      <trkpt lat="43.4236220" lon="-5.9136530">
        <ele>224.0</ele>
        <time>2018-09-15T13:42:15Z</time>
      </trkpt>
      <trkpt lat="43.4236110" lon="-5.9136680">
        <ele>224.1</ele>
        <time>2018-09-15T13:42:16Z</time>
      </trkpt>
      <trkpt lat="43.4235990" lon="-5.9136850">
        <ele>224.1</ele>
        <time>2018-09-15T13:42:17Z</time>
      </trkpt>
      <trkpt lat="43.4235840" lon="-5.9137070">
        <ele>224.2</ele>
        <time>2018-09-15T13:42:18Z</time>
      </trkpt>
      <trkpt lat="43.4235690" lon="-5.9137270">
        <ele>224.3</ele>
        <time>2018-09-15T13:42:19Z</time>
      </trkpt>
      <trkpt lat="43.4235590" lon="-5.9137410">
        <ele>224.4</ele>
        <time>2018-09-15T13:42:20Z</time>
      </trkpt>
      <trkpt lat="43.4235460" lon="-5.9137630">
        <ele>224.5</ele>
        <time>2018-09-15T13:42:21Z</time>
      </trkpt>
      <trkpt lat="43.4235340" lon="-5.9137850">
        <ele>224.6</ele>
        <time>2018-09-15T13:42:22Z</time>
      </trkpt>
      <trkpt lat="43.4235240" lon="-5.9138020">
        <ele>224.8</ele>
        <time>2018-09-15T13:42:23Z</time>
      </trkpt>
      <trkpt lat="43.4235100" lon="-5.9138260">
        <ele>224.9</ele>
        <time>2018-09-15T13:42:24Z</time>
      </trkpt>
      <trkpt lat="43.4234980" lon="-5.9138490">
        <ele>225.0</ele>
        <time>2018-09-15T13:42:25Z</time>
      </trkpt>
      <trkpt lat="43.4234860" lon="-5.9138720">
        <ele>225.0</ele>
        <time>2018-09-15T13:42:26Z</time>
      </trkpt>
      <trkpt lat="43.4234730" lon="-5.9138950">
        <ele>225.1</ele>
        <time>2018-09-15T13:42:27Z</time>
      </trkpt>
      <trkpt lat="43.4234610" lon="-5.9139190">
        <ele>225.2</ele>
        <time>2018-09-15T13:42:28Z</time>
      </trkpt>
      <trkpt lat="43.4234470" lon="-5.9139490">
        <ele>225.4</ele>
        <time>2018-09-15T13:42:29Z</time>
      </trkpt>
      <trkpt lat="43.4234360" lon="-5.9139700">
        <ele>225.5</ele>
        <time>2018-09-15T13:42:30Z</time>
      </trkpt>
      <trkpt lat="43.4234230" lon="-5.9139970">
        <ele>225.6</ele>
        <time>2018-09-15T13:42:31Z</time>
      </trkpt>
      <trkpt lat="43.4234100" lon="-5.9140220">
        <ele>225.7</ele>
        <time>2018-09-15T13:42:32Z</time>
      </trkpt>
      <trkpt lat="43.4234000" lon="-5.9140410">
        <ele>225.8</ele>
        <time>2018-09-15T13:42:33Z</time>
      </trkpt>
      <trkpt lat="43.4233870" lon="-5.9140650">
        <ele>225.9</ele>
        <time>2018-09-15T13:42:34Z</time>
      </trkpt>
      <trkpt lat="43.4233780" lon="-5.9140870">
        <ele>226.0</ele>
        <time>2018-09-15T13:42:35Z</time>
      </trkpt>
      <trkpt lat="43.4233740" lon="-5.9140990">
        <ele>226.0</ele>
        <time>2018-09-15T13:42:36Z</time>
      </trkpt>
      <trkpt lat="43.4233630" lon="-5.9141200">
        <ele>226.1</ele>
        <time>2018-09-15T13:42:37Z</time>
      </trkpt>
      <trkpt lat="43.4233570" lon="-5.9141310">
        <ele>226.1</ele>
        <time>2018-09-15T13:42:38Z</time>
      </trkpt>
      <trkpt lat="43.4233450" lon="-5.9141570">
        <ele>226.2</ele>
        <time>2018-09-15T13:42:39Z</time>
      </trkpt>
      <trkpt lat="43.4233360" lon="-5.9141770">
        <ele>226.2</ele>
        <time>2018-09-15T13:42:40Z</time>
      </trkpt>
      <trkpt lat="43.4233250" lon="-5.9141970">
        <ele>226.3</ele>
        <time>2018-09-15T13:42:41Z</time>
      </trkpt>
      <trkpt lat="43.4233140" lon="-5.9142170">
        <ele>226.4</ele>
        <time>2018-09-15T13:42:42Z</time>
      </trkpt>
      <trkpt lat="43.4233020" lon="-5.9142380">
        <ele>226.5</ele>
        <time>2018-09-15T13:42:43Z</time>
      </trkpt>
      <trkpt lat="43.4232870" lon="-5.9142660">
        <ele>226.7</ele>
        <time>2018-09-15T13:42:44Z</time>
      </trkpt>
      <trkpt lat="43.4232760" lon="-5.9142870">
        <ele>226.8</ele>
        <time>2018-09-15T13:42:45Z</time>
      </trkpt>
      <trkpt lat="43.4232640" lon="-5.9143100">
        <ele>227.0</ele>
        <time>2018-09-15T13:42:46Z</time>
      </trkpt>
      <trkpt lat="43.4232550" lon="-5.9143340">
        <ele>227.1</ele>
        <time>2018-09-15T13:42:47Z</time>
      </trkpt>
      <trkpt lat="43.4232460" lon="-5.9143590">
        <ele>227.1</ele>
        <time>2018-09-15T13:42:48Z</time>
      </trkpt>
      <trkpt lat="43.4232390" lon="-5.9143780">
        <ele>227.2</ele>
        <time>2018-09-15T13:42:49Z</time>
      </trkpt>
      <trkpt lat="43.4232310" lon="-5.9144140">
        <ele>227.3</ele>
        <time>2018-09-15T13:42:50Z</time>
      </trkpt>
      <trkpt lat="43.4232240" lon="-5.9144390">
        <ele>227.4</ele>
        <time>2018-09-15T13:42:51Z</time>
      </trkpt>
      <trkpt lat="43.4232160" lon="-5.9144650">
        <ele>227.5</ele>
        <time>2018-09-15T13:42:52Z</time>
      </trkpt>
      <trkpt lat="43.4232090" lon="-5.9144860">
        <ele>227.6</ele>
        <time>2018-09-15T13:42:53Z</time>
      </trkpt>
      <trkpt lat="43.4232020" lon="-5.9145150">
        <ele>227.8</ele>
        <time>2018-09-15T13:42:54Z</time>
      </trkpt>
      <trkpt lat="43.4231930" lon="-5.9145420">
        <ele>228.0</ele>
        <time>2018-09-15T13:42:55Z</time>
      </trkpt>
      <trkpt lat="43.4231840" lon="-5.9145690">
        <ele>228.1</ele>
        <time>2018-09-15T13:42:56Z</time>
      </trkpt>
      <trkpt lat="43.4231750" lon="-5.9145940">
        <ele>228.2</ele>
        <time>2018-09-15T13:42:57Z</time>
      </trkpt>
      <trkpt lat="43.4231670" lon="-5.9146140">
        <ele>228.3</ele>
        <time>2018-09-15T13:42:58Z</time>
      </trkpt>
      <trkpt lat="43.4231590" lon="-5.9146480">
        <ele>228.3</ele>
        <time>2018-09-15T13:42:59Z</time>
      </trkpt>
      <trkpt lat="43.4231500" lon="-5.9146730">
        <ele>228.4</ele>
        <time>2018-09-15T13:43:00Z</time>
      </trkpt>
      <trkpt lat="43.4231430" lon="-5.9146920">
        <ele>228.5</ele>
        <time>2018-09-15T13:43:01Z</time>
      </trkpt>
      <trkpt lat="43.4231320" lon="-5.9147250">
        <ele>228.7</ele>
        <time>2018-09-15T13:43:02Z</time>
      </trkpt>
      <trkpt lat="43.4231240" lon="-5.9147470">
        <ele>228.8</ele>
        <time>2018-09-15T13:43:03Z</time>
      </trkpt>
      <trkpt lat="43.4231150" lon="-5.9147690">
        <ele>228.9</ele>
        <time>2018-09-15T13:43:04Z</time>
      </trkpt>
      <trkpt lat="43.4231070" lon="-5.9147910">
        <ele>229.0</ele>
        <time>2018-09-15T13:43:05Z</time>
      </trkpt>
      <trkpt lat="43.4230980" lon="-5.9148130">
        <ele>229.0</ele>
        <time>2018-09-15T13:43:06Z</time>
      </trkpt>
      <trkpt lat="43.4230870" lon="-5.9148420">
        <ele>229.1</ele>
        <time>2018-09-15T13:43:07Z</time>
      </trkpt>
      <trkpt lat="43.4230790" lon="-5.9148630">
        <ele>229.1</ele>
        <time>2018-09-15T13:43:08Z</time>
      </trkpt>
      <trkpt lat="43.4230650" lon="-5.9148890">
        <ele>229.2</ele>
        <time>2018-09-15T13:43:09Z</time>
      </trkpt>
      <trkpt lat="43.4230540" lon="-5.9149090">
        <ele>229.2</ele>
        <time>2018-09-15T13:43:10Z</time>
      </trkpt>
      <trkpt lat="43.4230440" lon="-5.9149300">
        <ele>229.3</ele>
        <time>2018-09-15T13:43:11Z</time>
      </trkpt>
      <trkpt lat="43.4230360" lon="-5.9149460">
        <ele>229.4</ele>
        <time>2018-09-15T13:43:12Z</time>
      </trkpt>
      <trkpt lat="43.4230260" lon="-5.9149700">
        <ele>229.5</ele>
        <time>2018-09-15T13:43:13Z</time>
      </trkpt>
      <trkpt lat="43.4230140" lon="-5.9150000">
        <ele>229.6</ele>
        <time>2018-09-15T13:43:14Z</time>
      </trkpt>
      <trkpt lat="43.4230070" lon="-5.9150230">
        <ele>229.7</ele>
        <time>2018-09-15T13:43:15Z</time>
      </trkpt>
      <trkpt lat="43.4229980" lon="-5.9150470">
        <ele>229.8</ele>
        <time>2018-09-15T13:43:16Z</time>
      </trkpt>
      <trkpt lat="43.4229890" lon="-5.9150780">
        <ele>229.9</ele>
        <time>2018-09-15T13:43:17Z</time>
      </trkpt>
      <trkpt lat="43.4229830" lon="-5.9150950">
        <ele>230.0</ele>
        <time>2018-09-15T13:43:18Z</time>
      </trkpt>
      <trkpt lat="43.4229750" lon="-5.9151210">
        <ele>230.1</ele>
        <time>2018-09-15T13:43:19Z</time>
      </trkpt>
      <trkpt lat="43.4229680" lon="-5.9151410">
        <ele>230.1</ele>
        <time>2018-09-15T13:43:20Z</time>
      </trkpt>
      <trkpt lat="43.4229580" lon="-5.9151690">
        <ele>230.2</ele>
        <time>2018-09-15T13:43:21Z</time>
      </trkpt>
      <trkpt lat="43.4229460" lon="-5.9152020">
        <ele>230.3</ele>
        <time>2018-09-15T13:43:22Z</time>
      </trkpt>
      <trkpt lat="43.4229390" lon="-5.9152190">
        <ele>230.4</ele>
        <time>2018-09-15T13:43:23Z</time>
      </trkpt>
      <trkpt lat="43.4229290" lon="-5.9152450">
        <ele>230.5</ele>
        <time>2018-09-15T13:43:24Z</time>
      </trkpt>
      <trkpt lat="43.4229200" lon="-5.9152710">
        <ele>230.7</ele>
        <time>2018-09-15T13:43:25Z</time>
      </trkpt>
      <trkpt lat="43.4229130" lon="-5.9152910">
        <ele>230.8</ele>
        <time>2018-09-15T13:43:26Z</time>
      </trkpt>
      <trkpt lat="43.4229030" lon="-5.9153180">
        <ele>230.9</ele>
        <time>2018-09-15T13:43:27Z</time>
      </trkpt>
      <trkpt lat="43.4228940" lon="-5.9153450">
        <ele>231.0</ele>
        <time>2018-09-15T13:43:28Z</time>
      </trkpt>
      <trkpt lat="43.4228850" lon="-5.9153770">
        <ele>231.0</ele>
        <time>2018-09-15T13:43:29Z</time>
      </trkpt>
      <trkpt lat="43.4228790" lon="-5.9154010">
        <ele>231.1</ele>
        <time>2018-09-15T13:43:30Z</time>
      </trkpt>
      <trkpt lat="43.4228710" lon="-5.9154240">
        <ele>231.1</ele>
        <time>2018-09-15T13:43:31Z</time>
      </trkpt>
      <trkpt lat="43.4228620" lon="-5.9154550">
        <ele>231.2</ele>
        <time>2018-09-15T13:43:32Z</time>
      </trkpt>
      <trkpt lat="43.4228540" lon="-5.9154840">
        <ele>231.3</ele>
        <time>2018-09-15T13:43:33Z</time>
      </trkpt>
      <trkpt lat="43.4228480" lon="-5.9155060">
        <ele>231.3</ele>
        <time>2018-09-15T13:43:34Z</time>
      </trkpt>
      <trkpt lat="43.4228420" lon="-5.9155350">
        <ele>231.5</ele>
        <time>2018-09-15T13:43:35Z</time>
      </trkpt>
      <trkpt lat="43.4228360" lon="-5.9155550">
        <ele>231.5</ele>
        <time>2018-09-15T13:43:36Z</time>
      </trkpt>
      <trkpt lat="43.4228310" lon="-5.9155770">
        <ele>231.6</ele>
        <time>2018-09-15T13:43:37Z</time>
      </trkpt>
      <trkpt lat="43.4228270" lon="-5.9155990">
        <ele>231.7</ele>
        <time>2018-09-15T13:43:38Z</time>
      </trkpt>
      <trkpt lat="43.4228210" lon="-5.9156300">
        <ele>231.9</ele>
        <time>2018-09-15T13:43:39Z</time>
      </trkpt>
      <trkpt lat="43.4228160" lon="-5.9156520">
        <ele>231.9</ele>
        <time>2018-09-15T13:43:40Z</time>
      </trkpt>
      <trkpt lat="43.4228090" lon="-5.9156820">
        <ele>232.0</ele>
        <time>2018-09-15T13:43:41Z</time>
      </trkpt>
      <trkpt lat="43.4228050" lon="-5.9157120">
        <ele>232.1</ele>
        <time>2018-09-15T13:43:42Z</time>
      </trkpt>
      <trkpt lat="43.4227980" lon="-5.9157390">
        <ele>232.1</ele>
        <time>2018-09-15T13:43:43Z</time>
      </trkpt>
      <trkpt lat="43.4227930" lon="-5.9157580">
        <ele>232.2</ele>
        <time>2018-09-15T13:43:44Z</time>
      </trkpt>
      <trkpt lat="43.4227870" lon="-5.9157800">
        <ele>232.2</ele>
        <time>2018-09-15T13:43:45Z</time>
      </trkpt>
      <trkpt lat="43.4227820" lon="-5.9158030">
        <ele>232.2</ele>
        <time>2018-09-15T13:43:46Z</time>
      </trkpt>
      <trkpt lat="43.4227750" lon="-5.9158320">
        <ele>232.4</ele>
        <time>2018-09-15T13:43:47Z</time>
      </trkpt>
      <trkpt lat="43.4227700" lon="-5.9158500">
        <ele>232.5</ele>
        <time>2018-09-15T13:43:48Z</time>
      </trkpt>
      <trkpt lat="43.4227660" lon="-5.9158810">
        <ele>232.6</ele>
        <time>2018-09-15T13:43:50Z</time>
      </trkpt>
      <trkpt lat="43.4227610" lon="-5.9159120">
        <ele>232.8</ele>
        <time>2018-09-15T13:43:51Z</time>
      </trkpt>
      <trkpt lat="43.4227580" lon="-5.9159300">
        <ele>232.9</ele>
        <time>2018-09-15T13:43:52Z</time>
      </trkpt>
      <trkpt lat="43.4227530" lon="-5.9159570">
        <ele>232.9</ele>
        <time>2018-09-15T13:43:53Z</time>
      </trkpt>
      <trkpt lat="43.4227490" lon="-5.9159840">
        <ele>233.0</ele>
        <time>2018-09-15T13:43:54Z</time>
      </trkpt>
      <trkpt lat="43.4227460" lon="-5.9160020">
        <ele>233.0</ele>
        <time>2018-09-15T13:43:55Z</time>
      </trkpt>
      <trkpt lat="43.4227440" lon="-5.9160230">
        <ele>233.1</ele>
        <time>2018-09-15T13:43:56Z</time>
      </trkpt>
      <trkpt lat="43.4227420" lon="-5.9160550">
        <ele>233.2</ele>
        <time>2018-09-15T13:43:57Z</time>
      </trkpt>
      <trkpt lat="43.4227360" lon="-5.9160860">
        <ele>233.3</ele>
        <time>2018-09-15T13:43:58Z</time>
      </trkpt>
      <trkpt lat="43.4227280" lon="-5.9161090">
        <ele>233.4</ele>
        <time>2018-09-15T13:43:59Z</time>
      </trkpt>
      <trkpt lat="43.4227280" lon="-5.9161090">
        <ele>233.4</ele>
        <time>2018-09-15T13:44:00Z</time>
      </trkpt>
      <trkpt lat="43.4227170" lon="-5.9161610">
        <ele>233.7</ele>
        <time>2018-09-15T13:44:01Z</time>
      </trkpt>
      <trkpt lat="43.4227110" lon="-5.9161850">
        <ele>233.8</ele>
        <time>2018-09-15T13:44:02Z</time>
      </trkpt>
      <trkpt lat="43.4227030" lon="-5.9162160">
        <ele>233.9</ele>
        <time>2018-09-15T13:44:03Z</time>
      </trkpt>
      <trkpt lat="43.4226950" lon="-5.9162460">
        <ele>234.0</ele>
        <time>2018-09-15T13:44:04Z</time>
      </trkpt>
      <trkpt lat="43.4226880" lon="-5.9162670">
        <ele>234.1</ele>
        <time>2018-09-15T13:44:05Z</time>
      </trkpt>
      <trkpt lat="43.4226810" lon="-5.9162900">
        <ele>234.1</ele>
        <time>2018-09-15T13:44:06Z</time>
      </trkpt>
      <trkpt lat="43.4226740" lon="-5.9163210">
        <ele>234.2</ele>
        <time>2018-09-15T13:44:07Z</time>
      </trkpt>
      <trkpt lat="43.4226660" lon="-5.9163440">
        <ele>234.3</ele>
        <time>2018-09-15T13:44:08Z</time>
      </trkpt>
      <trkpt lat="43.4226580" lon="-5.9163680">
        <ele>234.3</ele>
        <time>2018-09-15T13:44:09Z</time>
      </trkpt>
      <trkpt lat="43.4226520" lon="-5.9163930">
        <ele>234.5</ele>
        <time>2018-09-15T13:44:10Z</time>
      </trkpt>
      <trkpt lat="43.4226450" lon="-5.9164250">
        <ele>234.6</ele>
        <time>2018-09-15T13:44:11Z</time>
      </trkpt>
      <trkpt lat="43.4226380" lon="-5.9164490">
        <ele>234.7</ele>
        <time>2018-09-15T13:44:12Z</time>
      </trkpt>
      <trkpt lat="43.4226310" lon="-5.9164800">
        <ele>234.9</ele>
        <time>2018-09-15T13:44:13Z</time>
      </trkpt>
      <trkpt lat="43.4226260" lon="-5.9165040">
        <ele>234.9</ele>
        <time>2018-09-15T13:44:14Z</time>
      </trkpt>
      <trkpt lat="43.4226200" lon="-5.9165360">
        <ele>235.0</ele>
        <time>2018-09-15T13:44:15Z</time>
      </trkpt>
      <trkpt lat="43.4226140" lon="-5.9165660">
        <ele>235.1</ele>
        <time>2018-09-15T13:44:16Z</time>
      </trkpt>
      <trkpt lat="43.4226090" lon="-5.9165900">
        <ele>235.2</ele>
        <time>2018-09-15T13:44:17Z</time>
      </trkpt>
      <trkpt lat="43.4226030" lon="-5.9166220">
        <ele>235.2</ele>
        <time>2018-09-15T13:44:18Z</time>
      </trkpt>
      <trkpt lat="43.4225980" lon="-5.9166470">
        <ele>235.3</ele>
        <time>2018-09-15T13:44:19Z</time>
      </trkpt>
      <trkpt lat="43.4225920" lon="-5.9166720">
        <ele>235.4</ele>
        <time>2018-09-15T13:44:20Z</time>
      </trkpt>
      <trkpt lat="43.4225850" lon="-5.9167050">
        <ele>235.5</ele>
        <time>2018-09-15T13:44:21Z</time>
      </trkpt>
      <trkpt lat="43.4225790" lon="-5.9167290">
        <ele>235.7</ele>
        <time>2018-09-15T13:44:22Z</time>
      </trkpt>
      <trkpt lat="43.4225740" lon="-5.9167550">
        <ele>235.8</ele>
        <time>2018-09-15T13:44:23Z</time>
      </trkpt>
      <trkpt lat="43.4225680" lon="-5.9167820">
        <ele>236.0</ele>
        <time>2018-09-15T13:44:24Z</time>
      </trkpt>
      <trkpt lat="43.4225630" lon="-5.9168040">
        <ele>236.0</ele>
        <time>2018-09-15T13:44:25Z</time>
      </trkpt>
      <trkpt lat="43.4225570" lon="-5.9168350">
        <ele>236.2</ele>
        <time>2018-09-15T13:44:26Z</time>
      </trkpt>
      <trkpt lat="43.4225530" lon="-5.9168610">
        <ele>236.2</ele>
        <time>2018-09-15T13:44:27Z</time>
      </trkpt>
      <trkpt lat="43.4225440" lon="-5.9168990">
        <ele>236.3</ele>
        <time>2018-09-15T13:44:28Z</time>
      </trkpt>
      <trkpt lat="43.4225350" lon="-5.9169330">
        <ele>236.4</ele>
        <time>2018-09-15T13:44:29Z</time>
      </trkpt>
      <trkpt lat="43.4225310" lon="-5.9169550">
        <ele>236.5</ele>
        <time>2018-09-15T13:44:30Z</time>
      </trkpt>
      <trkpt lat="43.4225250" lon="-5.9169840">
        <ele>236.6</ele>
        <time>2018-09-15T13:44:31Z</time>
      </trkpt>
      <trkpt lat="43.4225190" lon="-5.9170130">
        <ele>236.7</ele>
        <time>2018-09-15T13:44:32Z</time>
      </trkpt>
      <trkpt lat="43.4225120" lon="-5.9170400">
        <ele>236.8</ele>
        <time>2018-09-15T13:44:33Z</time>
      </trkpt>
      <trkpt lat="43.4225060" lon="-5.9170730">
        <ele>236.9</ele>
        <time>2018-09-15T13:44:34Z</time>
      </trkpt>
      <trkpt lat="43.4225000" lon="-5.9170970">
        <ele>237.0</ele>
        <time>2018-09-15T13:44:35Z</time>
      </trkpt>
      <trkpt lat="43.4224950" lon="-5.9171210">
        <ele>237.0</ele>
        <time>2018-09-15T13:44:36Z</time>
      </trkpt>
      <trkpt lat="43.4224890" lon="-5.9171440">
        <ele>237.1</ele>
        <time>2018-09-15T13:44:37Z</time>
      </trkpt>
      <trkpt lat="43.4224820" lon="-5.9171690">
        <ele>237.1</ele>
        <time>2018-09-15T13:44:38Z</time>
      </trkpt>
      <trkpt lat="43.4224760" lon="-5.9171930">
        <ele>237.1</ele>
        <time>2018-09-15T13:44:39Z</time>
      </trkpt>
      <trkpt lat="43.4224680" lon="-5.9172240">
        <ele>237.2</ele>
        <time>2018-09-15T13:44:40Z</time>
      </trkpt>
      <trkpt lat="43.4224610" lon="-5.9172550">
        <ele>237.3</ele>
        <time>2018-09-15T13:44:41Z</time>
      </trkpt>
      <trkpt lat="43.4224540" lon="-5.9172780">
        <ele>237.4</ele>
        <time>2018-09-15T13:44:42Z</time>
      </trkpt>
      <trkpt lat="43.4224470" lon="-5.9173020">
        <ele>237.5</ele>
        <time>2018-09-15T13:44:43Z</time>
      </trkpt>
      <trkpt lat="43.4224390" lon="-5.9173330">
        <ele>237.6</ele>
        <time>2018-09-15T13:44:44Z</time>
      </trkpt>
      <trkpt lat="43.4224320" lon="-5.9173580">
        <ele>237.7</ele>
        <time>2018-09-15T13:44:45Z</time>
      </trkpt>
      <trkpt lat="43.4224240" lon="-5.9173910">
        <ele>237.8</ele>
        <time>2018-09-15T13:44:46Z</time>
      </trkpt>
      <trkpt lat="43.4224170" lon="-5.9174150">
        <ele>237.9</ele>
        <time>2018-09-15T13:44:47Z</time>
      </trkpt>
      <trkpt lat="43.4224080" lon="-5.9174460">
        <ele>238.0</ele>
        <time>2018-09-15T13:44:48Z</time>
      </trkpt>
      <trkpt lat="43.4224010" lon="-5.9174690">
        <ele>238.0</ele>
        <time>2018-09-15T13:44:49Z</time>
      </trkpt>
      <trkpt lat="43.4223940" lon="-5.9174930">
        <ele>238.1</ele>
        <time>2018-09-15T13:44:50Z</time>
      </trkpt>
      <trkpt lat="43.4223850" lon="-5.9175250">
        <ele>238.3</ele>
        <time>2018-09-15T13:44:51Z</time>
      </trkpt>
      <trkpt lat="43.4223790" lon="-5.9175490">
        <ele>238.4</ele>
        <time>2018-09-15T13:44:52Z</time>
      </trkpt>
      <trkpt lat="43.4223720" lon="-5.9175760">
        <ele>238.5</ele>
        <time>2018-09-15T13:44:53Z</time>
      </trkpt>
      <trkpt lat="43.4223630" lon="-5.9176110">
        <ele>238.6</ele>
        <time>2018-09-15T13:44:54Z</time>
      </trkpt>
      <trkpt lat="43.4223550" lon="-5.9176430">
        <ele>238.6</ele>
        <time>2018-09-15T13:44:55Z</time>
      </trkpt>
      <trkpt lat="43.4223490" lon="-5.9176680">
        <ele>238.6</ele>
        <time>2018-09-15T13:44:56Z</time>
      </trkpt>
      <trkpt lat="43.4223420" lon="-5.9176950">
        <ele>238.7</ele>
        <time>2018-09-15T13:44:57Z</time>
      </trkpt>
      <trkpt lat="43.4223340" lon="-5.9177290">
        <ele>238.7</ele>
        <time>2018-09-15T13:44:58Z</time>
      </trkpt>
      <trkpt lat="43.4223260" lon="-5.9177550">
        <ele>238.7</ele>
        <time>2018-09-15T13:44:59Z</time>
      </trkpt>
      <trkpt lat="43.4223180" lon="-5.9177840">
        <ele>238.8</ele>
        <time>2018-09-15T13:45:00Z</time>
      </trkpt>
      <trkpt lat="43.4223080" lon="-5.9178210">
        <ele>238.8</ele>
        <time>2018-09-15T13:45:01Z</time>
      </trkpt>
      <trkpt lat="43.4222990" lon="-5.9178500">
        <ele>238.8</ele>
        <time>2018-09-15T13:45:02Z</time>
      </trkpt>
      <trkpt lat="43.4222910" lon="-5.9178760">
        <ele>238.8</ele>
        <time>2018-09-15T13:45:03Z</time>
      </trkpt>
      <trkpt lat="43.4222810" lon="-5.9179120">
        <ele>238.9</ele>
        <time>2018-09-15T13:45:04Z</time>
      </trkpt>
      <trkpt lat="43.4222690" lon="-5.9179470">
        <ele>238.9</ele>
        <time>2018-09-15T13:45:05Z</time>
      </trkpt>
      <trkpt lat="43.4222580" lon="-5.9179780">
        <ele>238.9</ele>
        <time>2018-09-15T13:45:06Z</time>
      </trkpt>
      <trkpt lat="43.4222470" lon="-5.9180100">
        <ele>239.0</ele>
        <time>2018-09-15T13:45:07Z</time>
      </trkpt>
      <trkpt lat="43.4222330" lon="-5.9180450">
        <ele>239.0</ele>
        <time>2018-09-15T13:45:08Z</time>
      </trkpt>
      <trkpt lat="43.4222200" lon="-5.9180770">
        <ele>239.1</ele>
        <time>2018-09-15T13:45:09Z</time>
      </trkpt>
      <trkpt lat="43.4222080" lon="-5.9181090">
        <ele>239.2</ele>
        <time>2018-09-15T13:45:10Z</time>
      </trkpt>
      <trkpt lat="43.4221960" lon="-5.9181430">
        <ele>239.2</ele>
        <time>2018-09-15T13:45:11Z</time>
      </trkpt>
      <trkpt lat="43.4221820" lon="-5.9181830">
        <ele>239.2</ele>
        <time>2018-09-15T13:45:12Z</time>
      </trkpt>
      <trkpt lat="43.4221700" lon="-5.9182170">
        <ele>239.2</ele>
        <time>2018-09-15T13:45:13Z</time>
      </trkpt>
      <trkpt lat="43.4221560" lon="-5.9182580">
        <ele>239.2</ele>
        <time>2018-09-15T13:45:14Z</time>
      </trkpt>
      <trkpt lat="43.4221430" lon="-5.9182950">
        <ele>239.2</ele>
        <time>2018-09-15T13:45:15Z</time>
      </trkpt>
      <trkpt lat="43.4221310" lon="-5.9183250">
        <ele>239.2</ele>
        <time>2018-09-15T13:45:16Z</time>
      </trkpt>
      <trkpt lat="43.4221170" lon="-5.9183600">
        <ele>239.2</ele>
        <time>2018-09-15T13:45:17Z</time>
      </trkpt>
      <trkpt lat="43.4221060" lon="-5.9183910">
        <ele>239.2</ele>
        <time>2018-09-15T13:45:18Z</time>
      </trkpt>
      <trkpt lat="43.4220970" lon="-5.9184130">
        <ele>239.2</ele>
        <time>2018-09-15T13:45:19Z</time>
      </trkpt>
      <trkpt lat="43.4220860" lon="-5.9184440">
        <ele>239.1</ele>
        <time>2018-09-15T13:45:20Z</time>
      </trkpt>
      <trkpt lat="43.4220760" lon="-5.9184760">
        <ele>239.1</ele>
        <time>2018-09-15T13:45:21Z</time>
      </trkpt>
      <trkpt lat="43.4220670" lon="-5.9185010">
        <ele>239.1</ele>
        <time>2018-09-15T13:45:22Z</time>
      </trkpt>
      <trkpt lat="43.4220550" lon="-5.9185350">
        <ele>239.1</ele>
        <time>2018-09-15T13:45:23Z</time>
      </trkpt>
      <trkpt lat="43.4220430" lon="-5.9185640">
        <ele>239.1</ele>
        <time>2018-09-15T13:45:24Z</time>
      </trkpt>
      <trkpt lat="43.4220310" lon="-5.9185960">
        <ele>239.0</ele>
        <time>2018-09-15T13:45:25Z</time>
      </trkpt>
      <trkpt lat="43.4220170" lon="-5.9186340">
        <ele>239.0</ele>
        <time>2018-09-15T13:45:26Z</time>
      </trkpt>
      <trkpt lat="43.4220020" lon="-5.9186720">
        <ele>239.0</ele>
        <time>2018-09-15T13:45:27Z</time>
      </trkpt>
      <trkpt lat="43.4219870" lon="-5.9187140">
        <ele>239.0</ele>
        <time>2018-09-15T13:45:28Z</time>
      </trkpt>
      <trkpt lat="43.4219760" lon="-5.9187470">
        <ele>239.0</ele>
        <time>2018-09-15T13:45:29Z</time>
      </trkpt>
      <trkpt lat="43.4219630" lon="-5.9187800">
        <ele>239.0</ele>
        <time>2018-09-15T13:45:30Z</time>
      </trkpt>
      <trkpt lat="43.4219490" lon="-5.9188210">
        <ele>239.0</ele>
        <time>2018-09-15T13:45:31Z</time>
      </trkpt>
      <trkpt lat="43.4219340" lon="-5.9188610">
        <ele>239.0</ele>
        <time>2018-09-15T13:45:32Z</time>
      </trkpt>
      <trkpt lat="43.4219240" lon="-5.9188960">
        <ele>239.0</ele>
        <time>2018-09-15T13:45:33Z</time>
      </trkpt>
      <trkpt lat="43.4219110" lon="-5.9189340">
        <ele>239.0</ele>
        <time>2018-09-15T13:45:34Z</time>
      </trkpt>
      <trkpt lat="43.4218970" lon="-5.9189760">
        <ele>239.0</ele>
        <time>2018-09-15T13:45:35Z</time>
      </trkpt>
      <trkpt lat="43.4218840" lon="-5.9190160">
        <ele>239.0</ele>
        <time>2018-09-15T13:45:36Z</time>
      </trkpt>
      <trkpt lat="43.4218730" lon="-5.9190540">
        <ele>239.0</ele>
        <time>2018-09-15T13:45:37Z</time>
      </trkpt>
      <trkpt lat="43.4218620" lon="-5.9190820">
        <ele>239.0</ele>
        <time>2018-09-15T13:45:38Z</time>
      </trkpt>
      <trkpt lat="43.4218500" lon="-5.9191130">
        <ele>239.0</ele>
        <time>2018-09-15T13:45:39Z</time>
      </trkpt>
      <trkpt lat="43.4218400" lon="-5.9191390">
        <ele>239.1</ele>
        <time>2018-09-15T13:45:40Z</time>
      </trkpt>
      <trkpt lat="43.4218280" lon="-5.9191770">
        <ele>239.1</ele>
        <time>2018-09-15T13:45:41Z</time>
      </trkpt>
      <trkpt lat="43.4218160" lon="-5.9192170">
        <ele>239.1</ele>
        <time>2018-09-15T13:45:42Z</time>
      </trkpt>
      <trkpt lat="43.4218050" lon="-5.9192580">
        <ele>239.1</ele>
        <time>2018-09-15T13:45:43Z</time>
      </trkpt>
      <trkpt lat="43.4217950" lon="-5.9192930">
        <ele>239.2</ele>
        <time>2018-09-15T13:45:44Z</time>
      </trkpt>
      <trkpt lat="43.4217580" lon="-5.9194020">
        <ele>239.2</ele>
        <time>2018-09-15T13:45:45Z</time>
      </trkpt>
      <trkpt lat="43.4217410" lon="-5.9194490">
        <ele>239.3</ele>
        <time>2018-09-15T13:45:46Z</time>
      </trkpt>
      <trkpt lat="43.4217240" lon="-5.9194970">
        <ele>239.3</ele>
        <time>2018-09-15T13:45:47Z</time>
      </trkpt>
      <trkpt lat="43.4217190" lon="-5.9195100">
        <ele>239.3</ele>
        <time>2018-09-15T13:45:48Z</time>
      </trkpt>
      <trkpt lat="43.4217190" lon="-5.9195250">
        <ele>239.3</ele>
        <time>2018-09-15T13:45:49Z</time>
      </trkpt>
      <trkpt lat="43.4217210" lon="-5.9195430">
        <ele>239.4</ele>
        <time>2018-09-15T13:45:50Z</time>
      </trkpt>
      <trkpt lat="43.4216960" lon="-5.9195850">
        <ele>239.5</ele>
        <time>2018-09-15T13:45:51Z</time>
      </trkpt>
      <trkpt lat="43.4216770" lon="-5.9196480">
        <ele>239.7</ele>
        <time>2018-09-15T13:45:52Z</time>
      </trkpt>
      <trkpt lat="43.4216590" lon="-5.9197070">
        <ele>240.0</ele>
        <time>2018-09-15T13:45:53Z</time>
      </trkpt>
      <trkpt lat="43.4216410" lon="-5.9197630">
        <ele>240.2</ele>
        <time>2018-09-15T13:45:54Z</time>
      </trkpt>
      <trkpt lat="43.4216220" lon="-5.9198180">
        <ele>240.3</ele>
        <time>2018-09-15T13:45:55Z</time>
      </trkpt>
      <trkpt lat="43.4215770" lon="-5.9199280">
        <ele>240.5</ele>
        <time>2018-09-15T13:45:56Z</time>
      </trkpt>
      <trkpt lat="43.4215600" lon="-5.9199770">
        <ele>240.5</ele>
        <time>2018-09-15T13:45:57Z</time>
      </trkpt>
      <trkpt lat="43.4215400" lon="-5.9200200">
        <ele>240.5</ele>
        <time>2018-09-15T13:45:58Z</time>
      </trkpt>
      <trkpt lat="43.4215230" lon="-5.9200650">
        <ele>240.6</ele>
        <time>2018-09-15T13:45:59Z</time>
      </trkpt>
      <trkpt lat="43.4215050" lon="-5.9201130">
        <ele>240.6</ele>
        <time>2018-09-15T13:46:00Z</time>
      </trkpt>
      <trkpt lat="43.4214860" lon="-5.9201560">
        <ele>240.6</ele>
        <time>2018-09-15T13:46:01Z</time>
      </trkpt>
      <trkpt lat="43.4214600" lon="-5.9202010">
        <ele>240.6</ele>
        <time>2018-09-15T13:46:02Z</time>
      </trkpt>
      <trkpt lat="43.4214370" lon="-5.9202460">
        <ele>240.6</ele>
        <time>2018-09-15T13:46:03Z</time>
      </trkpt>
      <trkpt lat="43.4214130" lon="-5.9202930">
        <ele>240.7</ele>
        <time>2018-09-15T13:46:04Z</time>
      </trkpt>
      <trkpt lat="43.4213810" lon="-5.9203460">
        <ele>240.7</ele>
        <time>2018-09-15T13:46:05Z</time>
      </trkpt>
      <trkpt lat="43.4213590" lon="-5.9203910">
        <ele>240.7</ele>
        <time>2018-09-15T13:46:06Z</time>
      </trkpt>
      <trkpt lat="43.4213330" lon="-5.9204310">
        <ele>240.7</ele>
        <time>2018-09-15T13:46:07Z</time>
      </trkpt>
      <trkpt lat="43.4213100" lon="-5.9204810">
        <ele>240.7</ele>
        <time>2018-09-15T13:46:08Z</time>
      </trkpt>
      <trkpt lat="43.4213000" lon="-5.9205030">
        <ele>240.7</ele>
        <time>2018-09-15T13:46:09Z</time>
      </trkpt>
      <trkpt lat="43.4212860" lon="-5.9205260">
        <ele>240.7</ele>
        <time>2018-09-15T13:46:10Z</time>
      </trkpt>
      <trkpt lat="43.4212520" lon="-5.9205900">
        <ele>240.7</ele>
        <time>2018-09-15T13:46:11Z</time>
      </trkpt>
      <trkpt lat="43.4212380" lon="-5.9206390">
        <ele>240.7</ele>
        <time>2018-09-15T13:46:12Z</time>
      </trkpt>
      <trkpt lat="43.4212170" lon="-5.9206880">
        <ele>240.7</ele>
        <time>2018-09-15T13:46:13Z</time>
      </trkpt>
      <trkpt lat="43.4212010" lon="-5.9207400">
        <ele>240.7</ele>
        <time>2018-09-15T13:46:14Z</time>
      </trkpt>
      <trkpt lat="43.4211850" lon="-5.9207900">
        <ele>240.7</ele>
        <time>2018-09-15T13:46:15Z</time>
      </trkpt>
      <trkpt lat="43.4211680" lon="-5.9208480">
        <ele>240.7</ele>
        <time>2018-09-15T13:46:16Z</time>
      </trkpt>
      <trkpt lat="43.4211520" lon="-5.9209070">
        <ele>240.7</ele>
        <time>2018-09-15T13:46:17Z</time>
      </trkpt>
      <trkpt lat="43.4211320" lon="-5.9209620">
        <ele>240.7</ele>
        <time>2018-09-15T13:46:18Z</time>
      </trkpt>
      <trkpt lat="43.4211270" lon="-5.9210350">
        <ele>240.7</ele>
        <time>2018-09-15T13:46:19Z</time>
      </trkpt>
      <trkpt lat="43.4211170" lon="-5.9210940">
        <ele>240.7</ele>
        <time>2018-09-15T13:46:20Z</time>
      </trkpt>
      <trkpt lat="43.4211090" lon="-5.9211600">
        <ele>240.7</ele>
        <time>2018-09-15T13:46:21Z</time>
      </trkpt>
      <trkpt lat="43.4211020" lon="-5.9212220">
        <ele>240.7</ele>
        <time>2018-09-15T13:46:22Z</time>
      </trkpt>
      <trkpt lat="43.4210940" lon="-5.9212830">
        <ele>240.7</ele>
        <time>2018-09-15T13:46:23Z</time>
      </trkpt>
      <trkpt lat="43.4210920" lon="-5.9213380">
        <ele>240.7</ele>
        <time>2018-09-15T13:46:24Z</time>
      </trkpt>
      <trkpt lat="43.4210840" lon="-5.9214100">
        <ele>240.6</ele>
        <time>2018-09-15T13:46:25Z</time>
      </trkpt>
      <trkpt lat="43.4210820" lon="-5.9214720">
        <ele>240.6</ele>
        <time>2018-09-15T13:46:26Z</time>
      </trkpt>
      <trkpt lat="43.4210730" lon="-5.9215380">
        <ele>240.6</ele>
        <time>2018-09-15T13:46:27Z</time>
      </trkpt>
      <trkpt lat="43.4210690" lon="-5.9216040">
        <ele>240.6</ele>
        <time>2018-09-15T13:46:28Z</time>
      </trkpt>
      <trkpt lat="43.4210570" lon="-5.9216610">
        <ele>240.6</ele>
        <time>2018-09-15T13:46:29Z</time>
      </trkpt>
      <trkpt lat="43.4210520" lon="-5.9217310">
        <ele>240.6</ele>
        <time>2018-09-15T13:46:30Z</time>
      </trkpt>
      <trkpt lat="43.4210420" lon="-5.9217920">
        <ele>240.6</ele>
        <time>2018-09-15T13:46:31Z</time>
      </trkpt>
      <trkpt lat="43.4210270" lon="-5.9218630">
        <ele>240.6</ele>
        <time>2018-09-15T13:46:32Z</time>
      </trkpt>
      <trkpt lat="43.4210050" lon="-5.9219280">
        <ele>240.6</ele>
        <time>2018-09-15T13:46:33Z</time>
      </trkpt>
      <trkpt lat="43.4209870" lon="-5.9219900">
        <ele>240.6</ele>
        <time>2018-09-15T13:46:34Z</time>
      </trkpt>
      <trkpt lat="43.4209630" lon="-5.9220660">
        <ele>240.6</ele>
        <time>2018-09-15T13:46:35Z</time>
      </trkpt>
      <trkpt lat="43.4209490" lon="-5.9221450">
        <ele>240.6</ele>
        <time>2018-09-15T13:46:36Z</time>
      </trkpt>
      <trkpt lat="43.4209250" lon="-5.9222160">
        <ele>240.5</ele>
        <time>2018-09-15T13:46:37Z</time>
      </trkpt>
      <trkpt lat="43.4209050" lon="-5.9222820">
        <ele>240.5</ele>
        <time>2018-09-15T13:46:38Z</time>
      </trkpt>
      <trkpt lat="43.4208690" lon="-5.9223670">
        <ele>240.5</ele>
        <time>2018-09-15T13:46:39Z</time>
      </trkpt>
      <trkpt lat="43.4208520" lon="-5.9224350">
        <ele>240.5</ele>
        <time>2018-09-15T13:46:40Z</time>
      </trkpt>
      <trkpt lat="43.4208300" lon="-5.9225120">
        <ele>240.5</ele>
        <time>2018-09-15T13:46:41Z</time>
      </trkpt>
      <trkpt lat="43.4208060" lon="-5.9225870">
        <ele>240.5</ele>
        <time>2018-09-15T13:46:42Z</time>
      </trkpt>
      <trkpt lat="43.4207860" lon="-5.9226560">
        <ele>240.5</ele>
        <time>2018-09-15T13:46:43Z</time>
      </trkpt>
      <trkpt lat="43.4207670" lon="-5.9227300">
        <ele>240.5</ele>
        <time>2018-09-15T13:46:44Z</time>
      </trkpt>
      <trkpt lat="43.4207480" lon="-5.9228040">
        <ele>240.5</ele>
        <time>2018-09-15T13:46:45Z</time>
      </trkpt>
      <trkpt lat="43.4207260" lon="-5.9228780">
        <ele>240.5</ele>
        <time>2018-09-15T13:46:46Z</time>
      </trkpt>
      <trkpt lat="43.4207050" lon="-5.9229460">
        <ele>240.4</ele>
        <time>2018-09-15T13:46:47Z</time>
      </trkpt>
      <trkpt lat="43.4206940" lon="-5.9230360">
        <ele>240.4</ele>
        <time>2018-09-15T13:46:48Z</time>
      </trkpt>
      <trkpt lat="43.4206880" lon="-5.9231130">
        <ele>240.4</ele>
        <time>2018-09-15T13:46:49Z</time>
      </trkpt>
      <trkpt lat="43.4206880" lon="-5.9231810">
        <ele>240.3</ele>
        <time>2018-09-15T13:46:50Z</time>
      </trkpt>
      <trkpt lat="43.4206850" lon="-5.9232550">
        <ele>240.1</ele>
        <time>2018-09-15T13:46:51Z</time>
      </trkpt>
      <trkpt lat="43.4206920" lon="-5.9233400">
        <ele>239.8</ele>
        <time>2018-09-15T13:46:52Z</time>
      </trkpt>
      <trkpt lat="43.4206960" lon="-5.9234190">
        <ele>239.5</ele>
        <time>2018-09-15T13:46:53Z</time>
      </trkpt>
      <trkpt lat="43.4206960" lon="-5.9235000">
        <ele>239.2</ele>
        <time>2018-09-15T13:46:54Z</time>
      </trkpt>
      <trkpt lat="43.4206930" lon="-5.9235790">
        <ele>238.9</ele>
        <time>2018-09-15T13:46:55Z</time>
      </trkpt>
      <trkpt lat="43.4206850" lon="-5.9236720">
        <ele>238.7</ele>
        <time>2018-09-15T13:46:56Z</time>
      </trkpt>
      <trkpt lat="43.4206790" lon="-5.9237710">
        <ele>238.5</ele>
        <time>2018-09-15T13:46:57Z</time>
      </trkpt>
      <trkpt lat="43.4206820" lon="-5.9238580">
        <ele>238.4</ele>
        <time>2018-09-15T13:46:58Z</time>
      </trkpt>
      <trkpt lat="43.4206850" lon="-5.9239410">
        <ele>238.3</ele>
        <time>2018-09-15T13:46:59Z</time>
      </trkpt>
      <trkpt lat="43.4206900" lon="-5.9240300">
        <ele>238.2</ele>
        <time>2018-09-15T13:47:00Z</time>
      </trkpt>
      <trkpt lat="43.4206940" lon="-5.9241150">
        <ele>238.1</ele>
        <time>2018-09-15T13:47:01Z</time>
      </trkpt>
      <trkpt lat="43.4206960" lon="-5.9242030">
        <ele>238.1</ele>
        <time>2018-09-15T13:47:02Z</time>
      </trkpt>
      <trkpt lat="43.4206970" lon="-5.9242980">
        <ele>238.0</ele>
        <time>2018-09-15T13:47:03Z</time>
      </trkpt>
      <trkpt lat="43.4207020" lon="-5.9243920">
        <ele>237.9</ele>
        <time>2018-09-15T13:47:04Z</time>
      </trkpt>
      <trkpt lat="43.4206990" lon="-5.9244830">
        <ele>237.9</ele>
        <time>2018-09-15T13:47:05Z</time>
      </trkpt>
      <trkpt lat="43.4206860" lon="-5.9245810">
        <ele>237.7</ele>
        <time>2018-09-15T13:47:06Z</time>
      </trkpt>
      <trkpt lat="43.4206690" lon="-5.9246840">
        <ele>237.5</ele>
        <time>2018-09-15T13:47:07Z</time>
      </trkpt>
      <trkpt lat="43.4206520" lon="-5.9247740">
        <ele>237.2</ele>
        <time>2018-09-15T13:47:08Z</time>
      </trkpt>
      <trkpt lat="43.4206260" lon="-5.9248780">
        <ele>236.8</ele>
        <time>2018-09-15T13:47:09Z</time>
      </trkpt>
      <trkpt lat="43.4206050" lon="-5.9249640">
        <ele>236.5</ele>
        <time>2018-09-15T13:47:10Z</time>
      </trkpt>
      <trkpt lat="43.4205730" lon="-5.9250620">
        <ele>236.4</ele>
        <time>2018-09-15T13:47:11Z</time>
      </trkpt>
      <trkpt lat="43.4205280" lon="-5.9252420">
        <ele>236.3</ele>
        <time>2018-09-15T13:47:13Z</time>
      </trkpt>
      <trkpt lat="43.4205130" lon="-5.9253380">
        <ele>236.2</ele>
        <time>2018-09-15T13:47:14Z</time>
      </trkpt>
      <trkpt lat="43.4205090" lon="-5.9254340">
        <ele>236.1</ele>
        <time>2018-09-15T13:47:15Z</time>
      </trkpt>
      <trkpt lat="43.4205130" lon="-5.9255270">
        <ele>236.0</ele>
        <time>2018-09-15T13:47:16Z</time>
      </trkpt>
      <trkpt lat="43.4205260" lon="-5.9256220">
        <ele>236.0</ele>
        <time>2018-09-15T13:47:17Z</time>
      </trkpt>
      <trkpt lat="43.4205170" lon="-5.9257400">
        <ele>235.9</ele>
        <time>2018-09-15T13:47:18Z</time>
      </trkpt>
      <trkpt lat="43.4205060" lon="-5.9258400">
        <ele>235.7</ele>
        <time>2018-09-15T13:47:19Z</time>
      </trkpt>
      <trkpt lat="43.4204940" lon="-5.9259400">
        <ele>235.5</ele>
        <time>2018-09-15T13:47:20Z</time>
      </trkpt>
      <trkpt lat="43.4204730" lon="-5.9260410">
        <ele>235.3</ele>
        <time>2018-09-15T13:47:21Z</time>
      </trkpt>
      <trkpt lat="43.4204400" lon="-5.9261380">
        <ele>235.0</ele>
        <time>2018-09-15T13:47:22Z</time>
      </trkpt>
      <trkpt lat="43.4204140" lon="-5.9262490">
        <ele>234.5</ele>
        <time>2018-09-15T13:47:23Z</time>
      </trkpt>
      <trkpt lat="43.4203880" lon="-5.9263580">
        <ele>234.0</ele>
        <time>2018-09-15T13:47:24Z</time>
      </trkpt>
      <trkpt lat="43.4203620" lon="-5.9264370">
        <ele>233.5</ele>
        <time>2018-09-15T13:47:25Z</time>
      </trkpt>
      <trkpt lat="43.4203370" lon="-5.9265170">
        <ele>233.0</ele>
        <time>2018-09-15T13:47:26Z</time>
      </trkpt>
      <trkpt lat="43.4203110" lon="-5.9265960">
        <ele>232.5</ele>
        <time>2018-09-15T13:47:27Z</time>
      </trkpt>
      <trkpt lat="43.4202340" lon="-5.9268330">
        <ele>230.9</ele>
        <time>2018-09-15T13:47:28Z</time>
      </trkpt>
      <trkpt lat="43.4201850" lon="-5.9269410">
        <ele>230.1</ele>
        <time>2018-09-15T13:47:29Z</time>
      </trkpt>
      <trkpt lat="43.4201540" lon="-5.9270480">
        <ele>229.5</ele>
        <time>2018-09-15T13:47:30Z</time>
      </trkpt>
      <trkpt lat="43.4200930" lon="-5.9271660">
        <ele>228.7</ele>
        <time>2018-09-15T13:47:31Z</time>
      </trkpt>
      <trkpt lat="43.4200350" lon="-5.9272880">
        <ele>228.1</ele>
        <time>2018-09-15T13:47:32Z</time>
      </trkpt>
      <trkpt lat="43.4199950" lon="-5.9274130">
        <ele>227.6</ele>
        <time>2018-09-15T13:47:33Z</time>
      </trkpt>
      <trkpt lat="43.4199820" lon="-5.9275520">
        <ele>227.1</ele>
        <time>2018-09-15T13:47:34Z</time>
      </trkpt>
      <trkpt lat="43.4199910" lon="-5.9276740">
        <ele>226.8</ele>
        <time>2018-09-15T13:47:35Z</time>
      </trkpt>
      <trkpt lat="43.4200160" lon="-5.9277900">
        <ele>226.6</ele>
        <time>2018-09-15T13:47:36Z</time>
      </trkpt>
      <trkpt lat="43.4200380" lon="-5.9278850">
        <ele>226.4</ele>
        <time>2018-09-15T13:47:37Z</time>
      </trkpt>
      <trkpt lat="43.4200580" lon="-5.9279780">
        <ele>226.4</ele>
        <time>2018-09-15T13:47:38Z</time>
      </trkpt>
      <trkpt lat="43.4200710" lon="-5.9280720">
        <ele>226.3</ele>
        <time>2018-09-15T13:47:39Z</time>
      </trkpt>
      <trkpt lat="43.4200570" lon="-5.9281510">
        <ele>226.3</ele>
        <time>2018-09-15T13:47:40Z</time>
      </trkpt>
      <trkpt lat="43.4200360" lon="-5.9282330">
        <ele>226.3</ele>
        <time>2018-09-15T13:47:41Z</time>
      </trkpt>
      <trkpt lat="43.4200260" lon="-5.9283000">
        <ele>226.3</ele>
        <time>2018-09-15T13:47:42Z</time>
      </trkpt>
      <trkpt lat="43.4200140" lon="-5.9283710">
        <ele>226.3</ele>
        <time>2018-09-15T13:47:43Z</time>
      </trkpt>
      <trkpt lat="43.4200000" lon="-5.9284380">
        <ele>226.3</ele>
        <time>2018-09-15T13:47:44Z</time>
      </trkpt>
      <trkpt lat="43.4199800" lon="-5.9285140">
        <ele>226.4</ele>
        <time>2018-09-15T13:47:45Z</time>
      </trkpt>
      <trkpt lat="43.4199550" lon="-5.9285650">
        <ele>226.5</ele>
        <time>2018-09-15T13:47:46Z</time>
      </trkpt>
      <trkpt lat="43.4199370" lon="-5.9286230">
        <ele>226.6</ele>
        <time>2018-09-15T13:47:47Z</time>
      </trkpt>
      <trkpt lat="43.4199140" lon="-5.9286790">
        <ele>226.7</ele>
        <time>2018-09-15T13:47:48Z</time>
      </trkpt>
      <trkpt lat="43.4198940" lon="-5.9287320">
        <ele>226.9</ele>
        <time>2018-09-15T13:47:49Z</time>
      </trkpt>
      <trkpt lat="43.4198710" lon="-5.9287840">
        <ele>227.1</ele>
        <time>2018-09-15T13:47:50Z</time>
      </trkpt>
      <trkpt lat="43.4198470" lon="-5.9288350">
        <ele>227.3</ele>
        <time>2018-09-15T13:47:51Z</time>
      </trkpt>
      <trkpt lat="43.4198150" lon="-5.9288990">
        <ele>227.5</ele>
        <time>2018-09-15T13:47:52Z</time>
      </trkpt>
      <trkpt lat="43.4197860" lon="-5.9289600">
        <ele>227.7</ele>
        <time>2018-09-15T13:47:53Z</time>
      </trkpt>
      <trkpt lat="43.4197640" lon="-5.9290160">
        <ele>227.7</ele>
        <time>2018-09-15T13:47:54Z</time>
      </trkpt>
      <trkpt lat="43.4197390" lon="-5.9290730">
        <ele>227.8</ele>
        <time>2018-09-15T13:47:55Z</time>
      </trkpt>
      <trkpt lat="43.4197120" lon="-5.9291320">
        <ele>227.8</ele>
        <time>2018-09-15T13:47:56Z</time>
      </trkpt>
      <trkpt lat="43.4196870" lon="-5.9291880">
        <ele>227.8</ele>
        <time>2018-09-15T13:47:57Z</time>
      </trkpt>
      <trkpt lat="43.4196620" lon="-5.9292520">
        <ele>227.8</ele>
        <time>2018-09-15T13:47:58Z</time>
      </trkpt>
      <trkpt lat="43.4196350" lon="-5.9293080">
        <ele>227.9</ele>
        <time>2018-09-15T13:47:59Z</time>
      </trkpt>
      <trkpt lat="43.4196160" lon="-5.9293710">
        <ele>227.9</ele>
        <time>2018-09-15T13:48:00Z</time>
      </trkpt>
      <trkpt lat="43.4196000" lon="-5.9294290">
        <ele>227.9</ele>
        <time>2018-09-15T13:48:01Z</time>
      </trkpt>
      <trkpt lat="43.4195880" lon="-5.9294920">
        <ele>227.9</ele>
        <time>2018-09-15T13:48:02Z</time>
      </trkpt>
      <trkpt lat="43.4195810" lon="-5.9295610">
        <ele>227.9</ele>
        <time>2018-09-15T13:48:03Z</time>
      </trkpt>
      <trkpt lat="43.4195700" lon="-5.9296230">
        <ele>227.9</ele>
        <time>2018-09-15T13:48:04Z</time>
      </trkpt>
      <trkpt lat="43.4195570" lon="-5.9296830">
        <ele>227.9</ele>
        <time>2018-09-15T13:48:05Z</time>
      </trkpt>
      <trkpt lat="43.4195530" lon="-5.9297480">
        <ele>227.9</ele>
        <time>2018-09-15T13:48:06Z</time>
      </trkpt>
      <trkpt lat="43.4195500" lon="-5.9298050">
        <ele>227.9</ele>
        <time>2018-09-15T13:48:07Z</time>
      </trkpt>
      <trkpt lat="43.4195300" lon="-5.9298690">
        <ele>227.9</ele>
        <time>2018-09-15T13:48:08Z</time>
      </trkpt>
      <trkpt lat="43.4195210" lon="-5.9299400">
        <ele>227.9</ele>
        <time>2018-09-15T13:48:09Z</time>
      </trkpt>
      <trkpt lat="43.4195030" lon="-5.9300200">
        <ele>227.9</ele>
        <time>2018-09-15T13:48:10Z</time>
      </trkpt>
      <trkpt lat="43.4194940" lon="-5.9300950">
        <ele>227.9</ele>
        <time>2018-09-15T13:48:11Z</time>
      </trkpt>
      <trkpt lat="43.4194830" lon="-5.9301650">
        <ele>227.9</ele>
        <time>2018-09-15T13:48:12Z</time>
      </trkpt>
      <trkpt lat="43.4194720" lon="-5.9302320">
        <ele>227.9</ele>
        <time>2018-09-15T13:48:13Z</time>
      </trkpt>
      <trkpt lat="43.4194700" lon="-5.9303140">
        <ele>227.9</ele>
        <time>2018-09-15T13:48:14Z</time>
      </trkpt>
      <trkpt lat="43.4194530" lon="-5.9303950">
        <ele>227.9</ele>
        <time>2018-09-15T13:48:15Z</time>
      </trkpt>
      <trkpt lat="43.4194300" lon="-5.9304860">
        <ele>227.8</ele>
        <time>2018-09-15T13:48:16Z</time>
      </trkpt>
      <trkpt lat="43.4194120" lon="-5.9305670">
        <ele>227.8</ele>
        <time>2018-09-15T13:48:17Z</time>
      </trkpt>
      <trkpt lat="43.4193970" lon="-5.9306530">
        <ele>227.8</ele>
        <time>2018-09-15T13:48:18Z</time>
      </trkpt>
      <trkpt lat="43.4193800" lon="-5.9307510">
        <ele>227.8</ele>
        <time>2018-09-15T13:48:19Z</time>
      </trkpt>
      <trkpt lat="43.4193640" lon="-5.9308420">
        <ele>227.8</ele>
        <time>2018-09-15T13:48:20Z</time>
      </trkpt>
      <trkpt lat="43.4193490" lon="-5.9309450">
        <ele>227.7</ele>
        <time>2018-09-15T13:48:21Z</time>
      </trkpt>
      <trkpt lat="43.4193300" lon="-5.9310490">
        <ele>227.6</ele>
        <time>2018-09-15T13:48:23Z</time>
      </trkpt>
      <trkpt lat="43.4193040" lon="-5.9311460">
        <ele>227.6</ele>
        <time>2018-09-15T13:48:24Z</time>
      </trkpt>
      <trkpt lat="43.4192640" lon="-5.9312550">
        <ele>227.5</ele>
        <time>2018-09-15T13:48:25Z</time>
      </trkpt>
      <trkpt lat="43.4192240" lon="-5.9313530">
        <ele>227.4</ele>
        <time>2018-09-15T13:48:26Z</time>
      </trkpt>
      <trkpt lat="43.4191790" lon="-5.9314570">
        <ele>227.0</ele>
        <time>2018-09-15T13:48:27Z</time>
      </trkpt>
      <trkpt lat="43.4191270" lon="-5.9315630">
        <ele>226.6</ele>
        <time>2018-09-15T13:48:28Z</time>
      </trkpt>
      <trkpt lat="43.4190650" lon="-5.9316700">
        <ele>226.1</ele>
        <time>2018-09-15T13:48:29Z</time>
      </trkpt>
      <trkpt lat="43.4190010" lon="-5.9317820">
        <ele>225.5</ele>
        <time>2018-09-15T13:48:30Z</time>
      </trkpt>
      <trkpt lat="43.4189490" lon="-5.9319000">
        <ele>225.0</ele>
        <time>2018-09-15T13:48:31Z</time>
      </trkpt>
      <trkpt lat="43.4188970" lon="-5.9320130">
        <ele>224.5</ele>
        <time>2018-09-15T13:48:32Z</time>
      </trkpt>
      <trkpt lat="43.4188230" lon="-5.9321270">
        <ele>223.9</ele>
        <time>2018-09-15T13:48:33Z</time>
      </trkpt>
      <trkpt lat="43.4187690" lon="-5.9322440">
        <ele>223.4</ele>
        <time>2018-09-15T13:48:34Z</time>
      </trkpt>
      <trkpt lat="43.4187100" lon="-5.9323660">
        <ele>222.8</ele>
        <time>2018-09-15T13:48:35Z</time>
      </trkpt>
      <trkpt lat="43.4186570" lon="-5.9324870">
        <ele>222.2</ele>
        <time>2018-09-15T13:48:36Z</time>
      </trkpt>
      <trkpt lat="43.4186000" lon="-5.9326140">
        <ele>221.6</ele>
        <time>2018-09-15T13:48:37Z</time>
      </trkpt>
      <trkpt lat="43.4185460" lon="-5.9327360">
        <ele>221.0</ele>
        <time>2018-09-15T13:48:38Z</time>
      </trkpt>
      <trkpt lat="43.4184910" lon="-5.9328540">
        <ele>220.4</ele>
        <time>2018-09-15T13:48:39Z</time>
      </trkpt>
      <trkpt lat="43.4184390" lon="-5.9329660">
        <ele>219.9</ele>
        <time>2018-09-15T13:48:40Z</time>
      </trkpt>
      <trkpt lat="43.4183900" lon="-5.9330930">
        <ele>219.2</ele>
        <time>2018-09-15T13:48:41Z</time>
      </trkpt>
      <trkpt lat="43.4183380" lon="-5.9331980">
        <ele>218.7</ele>
        <time>2018-09-15T13:48:42Z</time>
      </trkpt>
      <trkpt lat="43.4183020" lon="-5.9332870">
        <ele>218.1</ele>
        <time>2018-09-15T13:48:43Z</time>
      </trkpt>
      <trkpt lat="43.4182740" lon="-5.9333510">
        <ele>217.7</ele>
        <time>2018-09-15T13:48:44Z</time>
      </trkpt>
      <trkpt lat="43.4182630" lon="-5.9333760">
        <ele>217.6</ele>
        <time>2018-09-15T13:48:45Z</time>
      </trkpt>
      <trkpt lat="43.4182530" lon="-5.9334060">
        <ele>217.4</ele>
        <time>2018-09-15T13:48:46Z</time>
      </trkpt>
      <trkpt lat="43.4182460" lon="-5.9334330">
        <ele>217.2</ele>
        <time>2018-09-15T13:48:47Z</time>
      </trkpt>
      <trkpt lat="43.4181740" lon="-5.9334770">
        <ele>217.0</ele>
        <time>2018-09-15T13:48:48Z</time>
      </trkpt>
      <trkpt lat="43.4181310" lon="-5.9334580">
        <ele>216.9</ele>
        <time>2018-09-15T13:48:49Z</time>
      </trkpt>
      <trkpt lat="43.4180820" lon="-5.9334360">
        <ele>216.9</ele>
        <time>2018-09-15T13:48:50Z</time>
      </trkpt>
      <trkpt lat="43.4180320" lon="-5.9334200">
        <ele>216.8</ele>
        <time>2018-09-15T13:48:51Z</time>
      </trkpt>
      <trkpt lat="43.4179840" lon="-5.9334070">
        <ele>216.8</ele>
        <time>2018-09-15T13:48:52Z</time>
      </trkpt>
      <trkpt lat="43.4179220" lon="-5.9334070">
        <ele>216.8</ele>
        <time>2018-09-15T13:48:53Z</time>
      </trkpt>
      <trkpt lat="43.4178600" lon="-5.9334040">
        <ele>216.8</ele>
        <time>2018-09-15T13:48:54Z</time>
      </trkpt>
      <trkpt lat="43.4177970" lon="-5.9334160">
        <ele>216.8</ele>
        <time>2018-09-15T13:48:55Z</time>
      </trkpt>
      <trkpt lat="43.4177350" lon="-5.9334320">
        <ele>216.9</ele>
        <time>2018-09-15T13:48:56Z</time>
      </trkpt>
      <trkpt lat="43.4176680" lon="-5.9334530">
        <ele>216.9</ele>
        <time>2018-09-15T13:48:57Z</time>
      </trkpt>
      <trkpt lat="43.4175970" lon="-5.9334850">
        <ele>217.0</ele>
        <time>2018-09-15T13:48:58Z</time>
      </trkpt>
      <trkpt lat="43.4175230" lon="-5.9335270">
        <ele>216.8</ele>
        <time>2018-09-15T13:48:59Z</time>
      </trkpt>
      <trkpt lat="43.4174510" lon="-5.9335670">
        <ele>216.6</ele>
        <time>2018-09-15T13:49:00Z</time>
      </trkpt>
      <trkpt lat="43.4173800" lon="-5.9336170">
        <ele>216.3</ele>
        <time>2018-09-15T13:49:01Z</time>
      </trkpt>
      <trkpt lat="43.4173110" lon="-5.9336510">
        <ele>215.9</ele>
        <time>2018-09-15T13:49:02Z</time>
      </trkpt>
      <trkpt lat="43.4172460" lon="-5.9336810">
        <ele>215.6</ele>
        <time>2018-09-15T13:49:03Z</time>
      </trkpt>
      <trkpt lat="43.4171700" lon="-5.9337060">
        <ele>215.4</ele>
        <time>2018-09-15T13:49:04Z</time>
      </trkpt>
      <trkpt lat="43.4170970" lon="-5.9337370">
        <ele>215.3</ele>
        <time>2018-09-15T13:49:05Z</time>
      </trkpt>
      <trkpt lat="43.4170250" lon="-5.9337720">
        <ele>215.2</ele>
        <time>2018-09-15T13:49:06Z</time>
      </trkpt>
      <trkpt lat="43.4169510" lon="-5.9337930">
        <ele>215.1</ele>
        <time>2018-09-15T13:49:07Z</time>
      </trkpt>
      <trkpt lat="43.4168740" lon="-5.9338030">
        <ele>215.1</ele>
        <time>2018-09-15T13:49:08Z</time>
      </trkpt>
      <trkpt lat="43.4167990" lon="-5.9338010">
        <ele>215.0</ele>
        <time>2018-09-15T13:49:09Z</time>
      </trkpt>
      <trkpt lat="43.4167210" lon="-5.9338150">
        <ele>214.8</ele>
        <time>2018-09-15T13:49:10Z</time>
      </trkpt>
      <trkpt lat="43.4166290" lon="-5.9338150">
        <ele>214.5</ele>
        <time>2018-09-15T13:49:11Z</time>
      </trkpt>
      <trkpt lat="43.4165600" lon="-5.9338220">
        <ele>214.2</ele>
        <time>2018-09-15T13:49:12Z</time>
      </trkpt>
      <trkpt lat="43.4164730" lon="-5.9338170">
        <ele>213.8</ele>
        <time>2018-09-15T13:49:13Z</time>
      </trkpt>
      <trkpt lat="43.4163820" lon="-5.9338230">
        <ele>213.4</ele>
        <time>2018-09-15T13:49:14Z</time>
      </trkpt>
      <trkpt lat="43.4162950" lon="-5.9338190">
        <ele>213.1</ele>
        <time>2018-09-15T13:49:15Z</time>
      </trkpt>
      <trkpt lat="43.4162080" lon="-5.9338270">
        <ele>212.9</ele>
        <time>2018-09-15T13:49:16Z</time>
      </trkpt>
      <trkpt lat="43.4161210" lon="-5.9338320">
        <ele>212.7</ele>
        <time>2018-09-15T13:49:17Z</time>
      </trkpt>
      <trkpt lat="43.4160270" lon="-5.9338430">
        <ele>212.4</ele>
        <time>2018-09-15T13:49:18Z</time>
      </trkpt>
      <trkpt lat="43.4159350" lon="-5.9338590">
        <ele>212.1</ele>
        <time>2018-09-15T13:49:19Z</time>
      </trkpt>
      <trkpt lat="43.4158500" lon="-5.9339000">
        <ele>211.6</ele>
        <time>2018-09-15T13:49:20Z</time>
      </trkpt>
      <trkpt lat="43.4157700" lon="-5.9339350">
        <ele>211.3</ele>
        <time>2018-09-15T13:49:21Z</time>
      </trkpt>
      <trkpt lat="43.4156850" lon="-5.9339770">
        <ele>210.9</ele>
        <time>2018-09-15T13:49:22Z</time>
      </trkpt>
      <trkpt lat="43.4156040" lon="-5.9340280">
        <ele>210.7</ele>
        <time>2018-09-15T13:49:23Z</time>
      </trkpt>
      <trkpt lat="43.4155150" lon="-5.9340750">
        <ele>210.5</ele>
        <time>2018-09-15T13:49:24Z</time>
      </trkpt>
      <trkpt lat="43.4154280" lon="-5.9341220">
        <ele>210.3</ele>
        <time>2018-09-15T13:49:25Z</time>
      </trkpt>
      <trkpt lat="43.4153410" lon="-5.9341810">
        <ele>210.0</ele>
        <time>2018-09-15T13:49:26Z</time>
      </trkpt>
      <trkpt lat="43.4152560" lon="-5.9342400">
        <ele>209.6</ele>
        <time>2018-09-15T13:49:27Z</time>
      </trkpt>
      <trkpt lat="43.4151730" lon="-5.9342970">
        <ele>209.1</ele>
        <time>2018-09-15T13:49:28Z</time>
      </trkpt>
      <trkpt lat="43.4150860" lon="-5.9343550">
        <ele>208.6</ele>
        <time>2018-09-15T13:49:29Z</time>
      </trkpt>
      <trkpt lat="43.4150090" lon="-5.9344230">
        <ele>208.1</ele>
        <time>2018-09-15T13:49:30Z</time>
      </trkpt>
      <trkpt lat="43.4149330" lon="-5.9344980">
        <ele>207.6</ele>
        <time>2018-09-15T13:49:31Z</time>
      </trkpt>
      <trkpt lat="43.4148580" lon="-5.9345790">
        <ele>207.1</ele>
        <time>2018-09-15T13:49:32Z</time>
      </trkpt>
      <trkpt lat="43.4147920" lon="-5.9346770">
        <ele>206.6</ele>
        <time>2018-09-15T13:49:33Z</time>
      </trkpt>
      <trkpt lat="43.4147310" lon="-5.9347800">
        <ele>206.4</ele>
        <time>2018-09-15T13:49:34Z</time>
      </trkpt>
      <trkpt lat="43.4146740" lon="-5.9348880">
        <ele>206.2</ele>
        <time>2018-09-15T13:49:35Z</time>
      </trkpt>
      <trkpt lat="43.4146180" lon="-5.9349950">
        <ele>206.0</ele>
        <time>2018-09-15T13:49:36Z</time>
      </trkpt>
      <trkpt lat="43.4145640" lon="-5.9351050">
        <ele>205.8</ele>
        <time>2018-09-15T13:49:37Z</time>
      </trkpt>
      <trkpt lat="43.4145120" lon="-5.9352200">
        <ele>205.5</ele>
        <time>2018-09-15T13:49:38Z</time>
      </trkpt>
      <trkpt lat="43.4144580" lon="-5.9353360">
        <ele>205.1</ele>
        <time>2018-09-15T13:49:39Z</time>
      </trkpt>
      <trkpt lat="43.4144040" lon="-5.9354480">
        <ele>204.7</ele>
        <time>2018-09-15T13:49:40Z</time>
      </trkpt>
      <trkpt lat="43.4143460" lon="-5.9355630">
        <ele>204.2</ele>
        <time>2018-09-15T13:49:41Z</time>
      </trkpt>
      <trkpt lat="43.4142920" lon="-5.9356760">
        <ele>203.8</ele>
        <time>2018-09-15T13:49:42Z</time>
      </trkpt>
      <trkpt lat="43.4142430" lon="-5.9357910">
        <ele>203.3</ele>
        <time>2018-09-15T13:49:43Z</time>
      </trkpt>
      <trkpt lat="43.4141960" lon="-5.9359050">
        <ele>202.8</ele>
        <time>2018-09-15T13:49:44Z</time>
      </trkpt>
      <trkpt lat="43.4141490" lon="-5.9360200">
        <ele>202.3</ele>
        <time>2018-09-15T13:49:45Z</time>
      </trkpt>
      <trkpt lat="43.4141050" lon="-5.9361290">
        <ele>202.1</ele>
        <time>2018-09-15T13:49:46Z</time>
      </trkpt>
      <trkpt lat="43.4140570" lon="-5.9362300">
        <ele>202.2</ele>
        <time>2018-09-15T13:49:47Z</time>
      </trkpt>
      <trkpt lat="43.4140060" lon="-5.9363270">
        <ele>202.4</ele>
        <time>2018-09-15T13:49:48Z</time>
      </trkpt>
      <trkpt lat="43.4139550" lon="-5.9364200">
        <ele>202.4</ele>
        <time>2018-09-15T13:49:49Z</time>
      </trkpt>
      <trkpt lat="43.4139010" lon="-5.9365080">
        <ele>202.5</ele>
        <time>2018-09-15T13:49:50Z</time>
      </trkpt>
      <trkpt lat="43.4138450" lon="-5.9365940">
        <ele>202.5</ele>
        <time>2018-09-15T13:49:51Z</time>
      </trkpt>
      <trkpt lat="43.4137900" lon="-5.9366760">
        <ele>202.6</ele>
        <time>2018-09-15T13:49:52Z</time>
      </trkpt>
      <trkpt lat="43.4137350" lon="-5.9367560">
        <ele>202.6</ele>
        <time>2018-09-15T13:49:53Z</time>
      </trkpt>
      <trkpt lat="43.4136770" lon="-5.9368330">
        <ele>202.6</ele>
        <time>2018-09-15T13:49:54Z</time>
      </trkpt>
      <trkpt lat="43.4136220" lon="-5.9369070">
        <ele>202.6</ele>
        <time>2018-09-15T13:49:55Z</time>
      </trkpt>
      <trkpt lat="43.4135630" lon="-5.9369800">
        <ele>202.6</ele>
        <time>2018-09-15T13:49:56Z</time>
      </trkpt>
      <trkpt lat="43.4135010" lon="-5.9370380">
        <ele>202.6</ele>
        <time>2018-09-15T13:49:57Z</time>
      </trkpt>
      <trkpt lat="43.4134290" lon="-5.9370810">
        <ele>202.6</ele>
        <time>2018-09-15T13:49:58Z</time>
      </trkpt>
      <trkpt lat="43.4133610" lon="-5.9371260">
        <ele>202.6</ele>
        <time>2018-09-15T13:49:59Z</time>
      </trkpt>
      <trkpt lat="43.4132950" lon="-5.9371720">
        <ele>202.6</ele>
        <time>2018-09-15T13:50:00Z</time>
      </trkpt>
      <trkpt lat="43.4132290" lon="-5.9372140">
        <ele>202.6</ele>
        <time>2018-09-15T13:50:01Z</time>
      </trkpt>
      <trkpt lat="43.4131610" lon="-5.9372570">
        <ele>202.5</ele>
        <time>2018-09-15T13:50:02Z</time>
      </trkpt>
      <trkpt lat="43.4130990" lon="-5.9373020">
        <ele>202.5</ele>
        <time>2018-09-15T13:50:03Z</time>
      </trkpt>
      <trkpt lat="43.4130360" lon="-5.9373450">
        <ele>202.5</ele>
        <time>2018-09-15T13:50:04Z</time>
      </trkpt>
      <trkpt lat="43.4129710" lon="-5.9373760">
        <ele>202.5</ele>
        <time>2018-09-15T13:50:05Z</time>
      </trkpt>
      <trkpt lat="43.4129050" lon="-5.9373980">
        <ele>202.4</ele>
        <time>2018-09-15T13:50:06Z</time>
      </trkpt>
      <trkpt lat="43.4128390" lon="-5.9374090">
        <ele>202.4</ele>
        <time>2018-09-15T13:50:07Z</time>
      </trkpt>
      <trkpt lat="43.4127690" lon="-5.9373950">
        <ele>202.3</ele>
        <time>2018-09-15T13:50:08Z</time>
      </trkpt>
      <trkpt lat="43.4127060" lon="-5.9373690">
        <ele>202.3</ele>
        <time>2018-09-15T13:50:09Z</time>
      </trkpt>
      <trkpt lat="43.4126400" lon="-5.9373430">
        <ele>202.3</ele>
        <time>2018-09-15T13:50:10Z</time>
      </trkpt>
      <trkpt lat="43.4125720" lon="-5.9373170">
        <ele>202.2</ele>
        <time>2018-09-15T13:50:11Z</time>
      </trkpt>
      <trkpt lat="43.4125050" lon="-5.9372890">
        <ele>202.1</ele>
        <time>2018-09-15T13:50:12Z</time>
      </trkpt>
      <trkpt lat="43.4124500" lon="-5.9372610">
        <ele>202.0</ele>
        <time>2018-09-15T13:50:13Z</time>
      </trkpt>
      <trkpt lat="43.4123880" lon="-5.9372850">
        <ele>202.0</ele>
        <time>2018-09-15T13:50:14Z</time>
      </trkpt>
      <trkpt lat="43.4123220" lon="-5.9373120">
        <ele>202.0</ele>
        <time>2018-09-15T13:50:15Z</time>
      </trkpt>
      <trkpt lat="43.4122660" lon="-5.9373360">
        <ele>202.0</ele>
        <time>2018-09-15T13:50:16Z</time>
      </trkpt>
      <trkpt lat="43.4122080" lon="-5.9373620">
        <ele>202.0</ele>
        <time>2018-09-15T13:50:17Z</time>
      </trkpt>
      <trkpt lat="43.4121470" lon="-5.9373880">
        <ele>202.0</ele>
        <time>2018-09-15T13:50:18Z</time>
      </trkpt>
      <trkpt lat="43.4120910" lon="-5.9374170">
        <ele>202.0</ele>
        <time>2018-09-15T13:50:19Z</time>
      </trkpt>
      <trkpt lat="43.4120350" lon="-5.9374520">
        <ele>202.0</ele>
        <time>2018-09-15T13:50:20Z</time>
      </trkpt>
      <trkpt lat="43.4119790" lon="-5.9374820">
        <ele>201.9</ele>
        <time>2018-09-15T13:50:21Z</time>
      </trkpt>
      <trkpt lat="43.4119230" lon="-5.9375130">
        <ele>201.9</ele>
        <time>2018-09-15T13:50:22Z</time>
      </trkpt>
      <trkpt lat="43.4118570" lon="-5.9375390">
        <ele>201.9</ele>
        <time>2018-09-15T13:50:23Z</time>
      </trkpt>
      <trkpt lat="43.4117990" lon="-5.9375690">
        <ele>201.9</ele>
        <time>2018-09-15T13:50:24Z</time>
      </trkpt>
      <trkpt lat="43.4117450" lon="-5.9375950">
        <ele>201.9</ele>
        <time>2018-09-15T13:50:25Z</time>
      </trkpt>
      <trkpt lat="43.4116860" lon="-5.9376240">
        <ele>201.9</ele>
        <time>2018-09-15T13:50:26Z</time>
      </trkpt>
      <trkpt lat="43.4116220" lon="-5.9376540">
        <ele>201.9</ele>
        <time>2018-09-15T13:50:27Z</time>
      </trkpt>
      <trkpt lat="43.4115630" lon="-5.9376850">
        <ele>201.9</ele>
        <time>2018-09-15T13:50:28Z</time>
      </trkpt>
      <trkpt lat="43.4115060" lon="-5.9377110">
        <ele>201.9</ele>
        <time>2018-09-15T13:50:29Z</time>
      </trkpt>
      <trkpt lat="43.4114520" lon="-5.9377350">
        <ele>201.8</ele>
        <time>2018-09-15T13:50:30Z</time>
      </trkpt>
      <trkpt lat="43.4113930" lon="-5.9377640">
        <ele>201.8</ele>
        <time>2018-09-15T13:50:31Z</time>
      </trkpt>
      <trkpt lat="43.4113400" lon="-5.9377960">
        <ele>201.8</ele>
        <time>2018-09-15T13:50:32Z</time>
      </trkpt>
      <trkpt lat="43.4112760" lon="-5.9378300">
        <ele>201.8</ele>
        <time>2018-09-15T13:50:33Z</time>
      </trkpt>
      <trkpt lat="43.4112140" lon="-5.9378490">
        <ele>201.8</ele>
        <time>2018-09-15T13:50:34Z</time>
      </trkpt>
      <trkpt lat="43.4111570" lon="-5.9378670">
        <ele>201.9</ele>
        <time>2018-09-15T13:50:35Z</time>
      </trkpt>
      <trkpt lat="43.4110990" lon="-5.9378760">
        <ele>201.9</ele>
        <time>2018-09-15T13:50:36Z</time>
      </trkpt>
      <trkpt lat="43.4110350" lon="-5.9378680">
        <ele>201.9</ele>
        <time>2018-09-15T13:50:37Z</time>
      </trkpt>
      <trkpt lat="43.4109820" lon="-5.9378530">
        <ele>202.0</ele>
        <time>2018-09-15T13:50:38Z</time>
      </trkpt>
      <trkpt lat="43.4109280" lon="-5.9378360">
        <ele>202.1</ele>
        <time>2018-09-15T13:50:39Z</time>
      </trkpt>
      <trkpt lat="43.4108720" lon="-5.9378050">
        <ele>202.2</ele>
        <time>2018-09-15T13:50:40Z</time>
      </trkpt>
      <trkpt lat="43.4108210" lon="-5.9377700">
        <ele>202.3</ele>
        <time>2018-09-15T13:50:41Z</time>
      </trkpt>
      <trkpt lat="43.4107750" lon="-5.9377360">
        <ele>202.5</ele>
        <time>2018-09-15T13:50:42Z</time>
      </trkpt>
      <trkpt lat="43.4107270" lon="-5.9376910">
        <ele>202.6</ele>
        <time>2018-09-15T13:50:43Z</time>
      </trkpt>
      <trkpt lat="43.4106850" lon="-5.9376370">
        <ele>202.8</ele>
        <time>2018-09-15T13:50:44Z</time>
      </trkpt>
      <trkpt lat="43.4106480" lon="-5.9375820">
        <ele>202.9</ele>
        <time>2018-09-15T13:50:45Z</time>
      </trkpt>
      <trkpt lat="43.4106050" lon="-5.9375260">
        <ele>203.1</ele>
        <time>2018-09-15T13:50:46Z</time>
      </trkpt>
      <trkpt lat="43.4105500" lon="-5.9374880">
        <ele>203.2</ele>
        <time>2018-09-15T13:50:47Z</time>
      </trkpt>
      <trkpt lat="43.4104930" lon="-5.9374790">
        <ele>203.3</ele>
        <time>2018-09-15T13:50:48Z</time>
      </trkpt>
      <trkpt lat="43.4104470" lon="-5.9374990">
        <ele>203.3</ele>
        <time>2018-09-15T13:50:49Z</time>
      </trkpt>
      <trkpt lat="43.4104030" lon="-5.9375340">
        <ele>203.4</ele>
        <time>2018-09-15T13:50:50Z</time>
      </trkpt>
      <trkpt lat="43.4103720" lon="-5.9375910">
        <ele>203.5</ele>
        <time>2018-09-15T13:50:51Z</time>
      </trkpt>
      <trkpt lat="43.4103460" lon="-5.9376560">
        <ele>203.7</ele>
        <time>2018-09-15T13:50:52Z</time>
      </trkpt>
      <trkpt lat="43.4103160" lon="-5.9377150">
        <ele>203.8</ele>
        <time>2018-09-15T13:50:53Z</time>
      </trkpt>
      <trkpt lat="43.4102990" lon="-5.9377650">
        <ele>203.9</ele>
        <time>2018-09-15T13:50:54Z</time>
      </trkpt>
      <trkpt lat="43.4102790" lon="-5.9378180">
        <ele>204.0</ele>
        <time>2018-09-15T13:50:55Z</time>
      </trkpt>
      <trkpt lat="43.4102400" lon="-5.9378790">
        <ele>204.2</ele>
        <time>2018-09-15T13:50:56Z</time>
      </trkpt>
      <trkpt lat="43.4102080" lon="-5.9379270">
        <ele>204.3</ele>
        <time>2018-09-15T13:50:57Z</time>
      </trkpt>
      <trkpt lat="43.4101770" lon="-5.9379830">
        <ele>204.5</ele>
        <time>2018-09-15T13:50:58Z</time>
      </trkpt>
      <trkpt lat="43.4101440" lon="-5.9380290">
        <ele>204.7</ele>
        <time>2018-09-15T13:50:59Z</time>
      </trkpt>
      <trkpt lat="43.4101110" lon="-5.9380910">
        <ele>204.9</ele>
        <time>2018-09-15T13:51:00Z</time>
      </trkpt>
      <trkpt lat="43.4100820" lon="-5.9381470">
        <ele>205.1</ele>
        <time>2018-09-15T13:51:01Z</time>
      </trkpt>
      <trkpt lat="43.4100480" lon="-5.9381950">
        <ele>205.2</ele>
        <time>2018-09-15T13:51:02Z</time>
      </trkpt>
      <trkpt lat="43.4100160" lon="-5.9382420">
        <ele>205.3</ele>
        <time>2018-09-15T13:51:03Z</time>
      </trkpt>
      <trkpt lat="43.4099850" lon="-5.9382910">
        <ele>205.4</ele>
        <time>2018-09-15T13:51:04Z</time>
      </trkpt>
      <trkpt lat="43.4099490" lon="-5.9383310">
        <ele>205.5</ele>
        <time>2018-09-15T13:51:05Z</time>
      </trkpt>
      <trkpt lat="43.4099210" lon="-5.9383760">
        <ele>205.5</ele>
        <time>2018-09-15T13:51:06Z</time>
      </trkpt>
      <trkpt lat="43.4098790" lon="-5.9384230">
        <ele>205.7</ele>
        <time>2018-09-15T13:51:07Z</time>
      </trkpt>
      <trkpt lat="43.4098360" lon="-5.9384640">
        <ele>205.7</ele>
        <time>2018-09-15T13:51:08Z</time>
      </trkpt>
      <trkpt lat="43.4097980" lon="-5.9385100">
        <ele>205.9</ele>
        <time>2018-09-15T13:51:09Z</time>
      </trkpt>
      <trkpt lat="43.4097620" lon="-5.9385450">
        <ele>206.0</ele>
        <time>2018-09-15T13:51:10Z</time>
      </trkpt>
      <trkpt lat="43.4097290" lon="-5.9385860">
        <ele>206.2</ele>
        <time>2018-09-15T13:51:11Z</time>
      </trkpt>
      <trkpt lat="43.4096890" lon="-5.9386370">
        <ele>206.4</ele>
        <time>2018-09-15T13:51:12Z</time>
      </trkpt>
      <trkpt lat="43.4096470" lon="-5.9386890">
        <ele>206.6</ele>
        <time>2018-09-15T13:51:13Z</time>
      </trkpt>
      <trkpt lat="43.4096150" lon="-5.9387380">
        <ele>206.7</ele>
        <time>2018-09-15T13:51:14Z</time>
      </trkpt>
      <trkpt lat="43.4095720" lon="-5.9387870">
        <ele>206.9</ele>
        <time>2018-09-15T13:51:15Z</time>
      </trkpt>
      <trkpt lat="43.4095350" lon="-5.9388320">
        <ele>207.1</ele>
        <time>2018-09-15T13:51:16Z</time>
      </trkpt>
      <trkpt lat="43.4094950" lon="-5.9388730">
        <ele>207.3</ele>
        <time>2018-09-15T13:51:17Z</time>
      </trkpt>
      <trkpt lat="43.4094630" lon="-5.9389250">
        <ele>207.4</ele>
        <time>2018-09-15T13:51:18Z</time>
      </trkpt>
      <trkpt lat="43.4094320" lon="-5.9389700">
        <ele>207.5</ele>
        <time>2018-09-15T13:51:19Z</time>
      </trkpt>
      <trkpt lat="43.4094020" lon="-5.9390220">
        <ele>207.7</ele>
        <time>2018-09-15T13:51:20Z</time>
      </trkpt>
      <trkpt lat="43.4093740" lon="-5.9390740">
        <ele>207.8</ele>
        <time>2018-09-15T13:51:21Z</time>
      </trkpt>
      <trkpt lat="43.4093480" lon="-5.9391280">
        <ele>207.9</ele>
        <time>2018-09-15T13:51:22Z</time>
      </trkpt>
      <trkpt lat="43.4093240" lon="-5.9391750">
        <ele>208.0</ele>
        <time>2018-09-15T13:51:23Z</time>
      </trkpt>
      <trkpt lat="43.4092970" lon="-5.9392170">
        <ele>208.0</ele>
        <time>2018-09-15T13:51:24Z</time>
      </trkpt>
      <trkpt lat="43.4092780" lon="-5.9392630">
        <ele>208.0</ele>
        <time>2018-09-15T13:51:25Z</time>
      </trkpt>
      <trkpt lat="43.4092670" lon="-5.9393080">
        <ele>208.0</ele>
        <time>2018-09-15T13:51:26Z</time>
      </trkpt>
      <trkpt lat="43.4092540" lon="-5.9393300">
        <ele>208.0</ele>
        <time>2018-09-15T13:51:27Z</time>
      </trkpt>
      <trkpt lat="43.4092410" lon="-5.9393620">
        <ele>208.1</ele>
        <time>2018-09-15T13:51:28Z</time>
      </trkpt>
      <trkpt lat="43.4092290" lon="-5.9393980">
        <ele>208.2</ele>
        <time>2018-09-15T13:51:29Z</time>
      </trkpt>
      <trkpt lat="43.4092180" lon="-5.9394320">
        <ele>208.4</ele>
        <time>2018-09-15T13:51:30Z</time>
      </trkpt>
      <trkpt lat="43.4092070" lon="-5.9394600">
        <ele>208.5</ele>
        <time>2018-09-15T13:51:31Z</time>
      </trkpt>
      <trkpt lat="43.4091950" lon="-5.9394890">
        <ele>208.6</ele>
        <time>2018-09-15T13:51:32Z</time>
      </trkpt>
      <trkpt lat="43.4091760" lon="-5.9395340">
        <ele>208.7</ele>
        <time>2018-09-15T13:51:33Z</time>
      </trkpt>
      <trkpt lat="43.4091110" lon="-5.9396340">
        <ele>209.1</ele>
        <time>2018-09-15T13:51:34Z</time>
      </trkpt>
      <trkpt lat="43.4090990" lon="-5.9396520">
        <ele>209.2</ele>
        <time>2018-09-15T13:51:35Z</time>
      </trkpt>
      <trkpt lat="43.4090750" lon="-5.9396930">
        <ele>209.3</ele>
        <time>2018-09-15T13:51:36Z</time>
      </trkpt>
      <trkpt lat="43.4090520" lon="-5.9397300">
        <ele>209.4</ele>
        <time>2018-09-15T13:51:37Z</time>
      </trkpt>
      <trkpt lat="43.4090090" lon="-5.9398170">
        <ele>209.9</ele>
        <time>2018-09-15T13:51:38Z</time>
      </trkpt>
      <trkpt lat="43.4090020" lon="-5.9398390">
        <ele>210.0</ele>
        <time>2018-09-15T13:51:39Z</time>
      </trkpt>
      <trkpt lat="43.4089700" lon="-5.9399050">
        <ele>210.3</ele>
        <time>2018-09-15T13:51:40Z</time>
      </trkpt>
      <trkpt lat="43.4089640" lon="-5.9399540">
        <ele>210.6</ele>
        <time>2018-09-15T13:51:41Z</time>
      </trkpt>
      <trkpt lat="43.4089640" lon="-5.9399790">
        <ele>210.7</ele>
        <time>2018-09-15T13:51:42Z</time>
      </trkpt>
      <trkpt lat="43.4089700" lon="-5.9400540">
        <ele>211.0</ele>
        <time>2018-09-15T13:51:43Z</time>
      </trkpt>
      <trkpt lat="43.4089750" lon="-5.9400800">
        <ele>211.2</ele>
        <time>2018-09-15T13:51:44Z</time>
      </trkpt>
      <trkpt lat="43.4089780" lon="-5.9401160">
        <ele>211.3</ele>
        <time>2018-09-15T13:51:45Z</time>
      </trkpt>
      <trkpt lat="43.4089820" lon="-5.9402030">
        <ele>211.7</ele>
        <time>2018-09-15T13:51:46Z</time>
      </trkpt>
      <trkpt lat="43.4089870" lon="-5.9402580">
        <ele>212.0</ele>
        <time>2018-09-15T13:51:47Z</time>
      </trkpt>
      <trkpt lat="43.4089910" lon="-5.9403050">
        <ele>212.2</ele>
        <time>2018-09-15T13:51:48Z</time>
      </trkpt>
      <trkpt lat="43.4089940" lon="-5.9403300">
        <ele>212.3</ele>
        <time>2018-09-15T13:51:49Z</time>
      </trkpt>
      <trkpt lat="43.4090050" lon="-5.9404030">
        <ele>212.7</ele>
        <time>2018-09-15T13:51:50Z</time>
      </trkpt>
      <trkpt lat="43.4090010" lon="-5.9404510">
        <ele>212.9</ele>
        <time>2018-09-15T13:51:51Z</time>
      </trkpt>
      <trkpt lat="43.4090010" lon="-5.9404740">
        <ele>213.0</ele>
        <time>2018-09-15T13:51:52Z</time>
      </trkpt>
      <trkpt lat="43.4089980" lon="-5.9405090">
        <ele>213.2</ele>
        <time>2018-09-15T13:51:53Z</time>
      </trkpt>
      <trkpt lat="43.4089900" lon="-5.9405800">
        <ele>213.5</ele>
        <time>2018-09-15T13:51:54Z</time>
      </trkpt>
      <trkpt lat="43.4089840" lon="-5.9406070">
        <ele>213.6</ele>
        <time>2018-09-15T13:51:55Z</time>
      </trkpt>
      <trkpt lat="43.4089760" lon="-5.9406390">
        <ele>213.7</ele>
        <time>2018-09-15T13:51:56Z</time>
      </trkpt>
      <trkpt lat="43.4089680" lon="-5.9406740">
        <ele>213.9</ele>
        <time>2018-09-15T13:51:58Z</time>
      </trkpt>
      <trkpt lat="43.4089610" lon="-5.9407100">
        <ele>214.1</ele>
        <time>2018-09-15T13:51:59Z</time>
      </trkpt>
      <trkpt lat="43.4089490" lon="-5.9407480">
        <ele>214.2</ele>
        <time>2018-09-15T13:52:00Z</time>
      </trkpt>
      <trkpt lat="43.4089370" lon="-5.9407820">
        <ele>214.4</ele>
        <time>2018-09-15T13:52:01Z</time>
      </trkpt>
      <trkpt lat="43.4089220" lon="-5.9408240">
        <ele>214.6</ele>
        <time>2018-09-15T13:52:02Z</time>
      </trkpt>
      <trkpt lat="43.4089080" lon="-5.9408650">
        <ele>214.8</ele>
        <time>2018-09-15T13:52:03Z</time>
      </trkpt>
      <trkpt lat="43.4088950" lon="-5.9409000">
        <ele>215.0</ele>
        <time>2018-09-15T13:52:04Z</time>
      </trkpt>
      <trkpt lat="43.4088780" lon="-5.9409390">
        <ele>215.2</ele>
        <time>2018-09-15T13:52:05Z</time>
      </trkpt>
      <trkpt lat="43.4088630" lon="-5.9409710">
        <ele>215.3</ele>
        <time>2018-09-15T13:52:06Z</time>
      </trkpt>
      <trkpt lat="43.4088460" lon="-5.9410040">
        <ele>215.5</ele>
        <time>2018-09-15T13:52:07Z</time>
      </trkpt>
      <trkpt lat="43.4088230" lon="-5.9410490">
        <ele>215.8</ele>
        <time>2018-09-15T13:52:08Z</time>
      </trkpt>
      <trkpt lat="43.4088040" lon="-5.9410850">
        <ele>216.0</ele>
        <time>2018-09-15T13:52:09Z</time>
      </trkpt>
      <trkpt lat="43.4087880" lon="-5.9411140">
        <ele>216.1</ele>
        <time>2018-09-15T13:52:10Z</time>
      </trkpt>
      <trkpt lat="43.4087720" lon="-5.9411470">
        <ele>216.3</ele>
        <time>2018-09-15T13:52:11Z</time>
      </trkpt>
      <trkpt lat="43.4087520" lon="-5.9411840">
        <ele>216.5</ele>
        <time>2018-09-15T13:52:12Z</time>
      </trkpt>
      <trkpt lat="43.4087300" lon="-5.9412260">
        <ele>216.7</ele>
        <time>2018-09-15T13:52:13Z</time>
      </trkpt>
      <trkpt lat="43.4087120" lon="-5.9412680">
        <ele>216.9</ele>
        <time>2018-09-15T13:52:14Z</time>
      </trkpt>
      <trkpt lat="43.4086940" lon="-5.9413070">
        <ele>217.1</ele>
        <time>2018-09-15T13:52:15Z</time>
      </trkpt>
      <trkpt lat="43.4086800" lon="-5.9413400">
        <ele>217.2</ele>
        <time>2018-09-15T13:52:16Z</time>
      </trkpt>
      <trkpt lat="43.4086650" lon="-5.9413740">
        <ele>217.4</ele>
        <time>2018-09-15T13:52:17Z</time>
      </trkpt>
      <trkpt lat="43.4086320" lon="-5.9414600">
        <ele>217.7</ele>
        <time>2018-09-15T13:52:18Z</time>
      </trkpt>
      <trkpt lat="43.4086320" lon="-5.9414600">
        <ele>217.7</ele>
        <time>2018-09-15T13:52:19Z</time>
      </trkpt>
      <trkpt lat="43.4086180" lon="-5.9414970">
        <ele>217.9</ele>
        <time>2018-09-15T13:52:20Z</time>
      </trkpt>
      <trkpt lat="43.4085910" lon="-5.9415660">
        <ele>218.1</ele>
        <time>2018-09-15T13:52:21Z</time>
      </trkpt>
      <trkpt lat="43.4085790" lon="-5.9415930">
        <ele>218.2</ele>
        <time>2018-09-15T13:52:22Z</time>
      </trkpt>
      <trkpt lat="43.4085670" lon="-5.9416170">
        <ele>218.3</ele>
        <time>2018-09-15T13:52:23Z</time>
      </trkpt>
      <trkpt lat="43.4085420" lon="-5.9416650">
        <ele>218.5</ele>
        <time>2018-09-15T13:52:24Z</time>
      </trkpt>
      <trkpt lat="43.4085180" lon="-5.9417110">
        <ele>218.7</ele>
        <time>2018-09-15T13:52:25Z</time>
      </trkpt>
      <trkpt lat="43.4084950" lon="-5.9417490">
        <ele>218.8</ele>
        <time>2018-09-15T13:52:26Z</time>
      </trkpt>
      <trkpt lat="43.4084730" lon="-5.9417900">
        <ele>219.0</ele>
        <time>2018-09-15T13:52:27Z</time>
      </trkpt>
      <trkpt lat="43.4084060" lon="-5.9418790">
        <ele>219.4</ele>
        <time>2018-09-15T13:52:28Z</time>
      </trkpt>
      <trkpt lat="43.4083920" lon="-5.9418970">
        <ele>219.4</ele>
        <time>2018-09-15T13:52:29Z</time>
      </trkpt>
      <trkpt lat="43.4083740" lon="-5.9419200">
        <ele>219.5</ele>
        <time>2018-09-15T13:52:30Z</time>
      </trkpt>
      <trkpt lat="43.4083540" lon="-5.9419500">
        <ele>219.7</ele>
        <time>2018-09-15T13:52:31Z</time>
      </trkpt>
      <trkpt lat="43.4083420" lon="-5.9419770">
        <ele>219.8</ele>
        <time>2018-09-15T13:52:32Z</time>
      </trkpt>
      <trkpt lat="43.4083300" lon="-5.9420160">
        <ele>219.9</ele>
        <time>2018-09-15T13:52:33Z</time>
      </trkpt>
      <trkpt lat="43.4083130" lon="-5.9420520">
        <ele>220.0</ele>
        <time>2018-09-15T13:52:34Z</time>
      </trkpt>
      <trkpt lat="43.4082940" lon="-5.9420960">
        <ele>220.2</ele>
        <time>2018-09-15T13:52:35Z</time>
      </trkpt>
      <trkpt lat="43.4082770" lon="-5.9421370">
        <ele>220.3</ele>
        <time>2018-09-15T13:52:36Z</time>
      </trkpt>
      <trkpt lat="43.4082610" lon="-5.9421700">
        <ele>220.5</ele>
        <time>2018-09-15T13:52:37Z</time>
      </trkpt>
      <trkpt lat="43.4082430" lon="-5.9422080">
        <ele>220.6</ele>
        <time>2018-09-15T13:52:38Z</time>
      </trkpt>
      <trkpt lat="43.4082290" lon="-5.9422410">
        <ele>220.7</ele>
        <time>2018-09-15T13:52:39Z</time>
      </trkpt>
      <trkpt lat="43.4082130" lon="-5.9422730">
        <ele>220.9</ele>
        <time>2018-09-15T13:52:40Z</time>
      </trkpt>
      <trkpt lat="43.4081980" lon="-5.9423070">
        <ele>221.0</ele>
        <time>2018-09-15T13:52:41Z</time>
      </trkpt>
      <trkpt lat="43.4081810" lon="-5.9423430">
        <ele>221.1</ele>
        <time>2018-09-15T13:52:42Z</time>
      </trkpt>
      <trkpt lat="43.4081620" lon="-5.9423790">
        <ele>221.3</ele>
        <time>2018-09-15T13:52:43Z</time>
      </trkpt>
      <trkpt lat="43.4081460" lon="-5.9424120">
        <ele>221.4</ele>
        <time>2018-09-15T13:52:44Z</time>
      </trkpt>
      <trkpt lat="43.4081280" lon="-5.9424470">
        <ele>221.5</ele>
        <time>2018-09-15T13:52:45Z</time>
      </trkpt>
      <trkpt lat="43.4081130" lon="-5.9424740">
        <ele>221.6</ele>
        <time>2018-09-15T13:52:46Z</time>
      </trkpt>
      <trkpt lat="43.4080980" lon="-5.9424980">
        <ele>221.7</ele>
        <time>2018-09-15T13:52:47Z</time>
      </trkpt>
      <trkpt lat="43.4080800" lon="-5.9425270">
        <ele>221.9</ele>
        <time>2018-09-15T13:52:48Z</time>
      </trkpt>
      <trkpt lat="43.4080620" lon="-5.9425550">
        <ele>222.0</ele>
        <time>2018-09-15T13:52:49Z</time>
      </trkpt>
      <trkpt lat="43.4080400" lon="-5.9425840">
        <ele>222.1</ele>
        <time>2018-09-15T13:52:50Z</time>
      </trkpt>
      <trkpt lat="43.4080220" lon="-5.9426060">
        <ele>222.2</ele>
        <time>2018-09-15T13:52:51Z</time>
      </trkpt>
      <trkpt lat="43.4080050" lon="-5.9426260">
        <ele>222.3</ele>
        <time>2018-09-15T13:52:52Z</time>
      </trkpt>
      <trkpt lat="43.4079820" lon="-5.9426550">
        <ele>222.5</ele>
        <time>2018-09-15T13:52:53Z</time>
      </trkpt>
      <trkpt lat="43.4079640" lon="-5.9426750">
        <ele>222.6</ele>
        <time>2018-09-15T13:52:54Z</time>
      </trkpt>
      <trkpt lat="43.4079410" lon="-5.9427000">
        <ele>222.7</ele>
        <time>2018-09-15T13:52:55Z</time>
      </trkpt>
      <trkpt lat="43.4079140" lon="-5.9427280">
        <ele>222.8</ele>
        <time>2018-09-15T13:52:56Z</time>
      </trkpt>
      <trkpt lat="43.4078900" lon="-5.9427540">
        <ele>223.0</ele>
        <time>2018-09-15T13:52:57Z</time>
      </trkpt>
      <trkpt lat="43.4078690" lon="-5.9427750">
        <ele>223.1</ele>
        <time>2018-09-15T13:52:58Z</time>
      </trkpt>
      <trkpt lat="43.4078420" lon="-5.9428000">
        <ele>223.3</ele>
        <time>2018-09-15T13:52:59Z</time>
      </trkpt>
      <trkpt lat="43.4078200" lon="-5.9428200">
        <ele>223.4</ele>
        <time>2018-09-15T13:53:00Z</time>
      </trkpt>
      <trkpt lat="43.4077940" lon="-5.9428430">
        <ele>223.5</ele>
        <time>2018-09-15T13:53:01Z</time>
      </trkpt>
      <trkpt lat="43.4077670" lon="-5.9428670">
        <ele>223.7</ele>
        <time>2018-09-15T13:53:02Z</time>
      </trkpt>
      <trkpt lat="43.4077420" lon="-5.9428890">
        <ele>223.8</ele>
        <time>2018-09-15T13:53:03Z</time>
      </trkpt>
      <trkpt lat="43.4077140" lon="-5.9429140">
        <ele>223.9</ele>
        <time>2018-09-15T13:53:04Z</time>
      </trkpt>
      <trkpt lat="43.4076880" lon="-5.9429360">
        <ele>224.1</ele>
        <time>2018-09-15T13:53:05Z</time>
      </trkpt>
      <trkpt lat="43.4076660" lon="-5.9429550">
        <ele>224.2</ele>
        <time>2018-09-15T13:53:06Z</time>
      </trkpt>
      <trkpt lat="43.4076430" lon="-5.9429750">
        <ele>224.3</ele>
        <time>2018-09-15T13:53:07Z</time>
      </trkpt>
      <trkpt lat="43.4076190" lon="-5.9429960">
        <ele>224.4</ele>
        <time>2018-09-15T13:53:08Z</time>
      </trkpt>
      <trkpt lat="43.4075930" lon="-5.9430180">
        <ele>224.5</ele>
        <time>2018-09-15T13:53:09Z</time>
      </trkpt>
      <trkpt lat="43.4075650" lon="-5.9430430">
        <ele>224.7</ele>
        <time>2018-09-15T13:53:10Z</time>
      </trkpt>
      <trkpt lat="43.4075380" lon="-5.9430670">
        <ele>224.8</ele>
        <time>2018-09-15T13:53:11Z</time>
      </trkpt>
      <trkpt lat="43.4075130" lon="-5.9430890">
        <ele>224.9</ele>
        <time>2018-09-15T13:53:12Z</time>
      </trkpt>
      <trkpt lat="43.4074930" lon="-5.9431080">
        <ele>225.0</ele>
        <time>2018-09-15T13:53:13Z</time>
      </trkpt>
      <trkpt lat="43.4074660" lon="-5.9431300">
        <ele>225.2</ele>
        <time>2018-09-15T13:53:14Z</time>
      </trkpt>
      <trkpt lat="43.4074440" lon="-5.9431480">
        <ele>225.3</ele>
        <time>2018-09-15T13:53:15Z</time>
      </trkpt>
      <trkpt lat="43.4074180" lon="-5.9431720">
        <ele>225.4</ele>
        <time>2018-09-15T13:53:16Z</time>
      </trkpt>
      <trkpt lat="43.4073920" lon="-5.9431960">
        <ele>225.5</ele>
        <time>2018-09-15T13:53:17Z</time>
      </trkpt>
      <trkpt lat="43.4073700" lon="-5.9432150">
        <ele>225.6</ele>
        <time>2018-09-15T13:53:18Z</time>
      </trkpt>
      <trkpt lat="43.4073420" lon="-5.9432400">
        <ele>225.8</ele>
        <time>2018-09-15T13:53:19Z</time>
      </trkpt>
      <trkpt lat="43.4073170" lon="-5.9432600">
        <ele>225.9</ele>
        <time>2018-09-15T13:53:20Z</time>
      </trkpt>
      <trkpt lat="43.4072890" lon="-5.9432810">
        <ele>226.0</ele>
        <time>2018-09-15T13:53:21Z</time>
      </trkpt>
      <trkpt lat="43.4072630" lon="-5.9433020">
        <ele>226.2</ele>
        <time>2018-09-15T13:53:22Z</time>
      </trkpt>
      <trkpt lat="43.4072380" lon="-5.9433220">
        <ele>226.3</ele>
        <time>2018-09-15T13:53:23Z</time>
      </trkpt>
      <trkpt lat="43.4072080" lon="-5.9433450">
        <ele>226.5</ele>
        <time>2018-09-15T13:53:24Z</time>
      </trkpt>
      <trkpt lat="43.4071840" lon="-5.9433630">
        <ele>226.6</ele>
        <time>2018-09-15T13:53:25Z</time>
      </trkpt>
      <trkpt lat="43.4071560" lon="-5.9433850">
        <ele>226.7</ele>
        <time>2018-09-15T13:53:26Z</time>
      </trkpt>
      <trkpt lat="43.4071320" lon="-5.9434020">
        <ele>226.9</ele>
        <time>2018-09-15T13:53:27Z</time>
      </trkpt>
      <trkpt lat="43.4070990" lon="-5.9434270">
        <ele>227.1</ele>
        <time>2018-09-15T13:53:28Z</time>
      </trkpt>
      <trkpt lat="43.4070760" lon="-5.9434430">
        <ele>227.2</ele>
        <time>2018-09-15T13:53:29Z</time>
      </trkpt>
      <trkpt lat="43.4070490" lon="-5.9434640">
        <ele>227.4</ele>
        <time>2018-09-15T13:53:30Z</time>
      </trkpt>
      <trkpt lat="43.4070220" lon="-5.9434830">
        <ele>227.5</ele>
        <time>2018-09-15T13:53:31Z</time>
      </trkpt>
      <trkpt lat="43.4070000" lon="-5.9434990">
        <ele>227.7</ele>
        <time>2018-09-15T13:53:32Z</time>
      </trkpt>
      <trkpt lat="43.4069730" lon="-5.9435200">
        <ele>227.8</ele>
        <time>2018-09-15T13:53:33Z</time>
      </trkpt>
      <trkpt lat="43.4069510" lon="-5.9435350">
        <ele>227.9</ele>
        <time>2018-09-15T13:53:34Z</time>
      </trkpt>
      <trkpt lat="43.4069230" lon="-5.9435550">
        <ele>228.1</ele>
        <time>2018-09-15T13:53:35Z</time>
      </trkpt>
      <trkpt lat="43.4068960" lon="-5.9435730">
        <ele>228.3</ele>
        <time>2018-09-15T13:53:36Z</time>
      </trkpt>
      <trkpt lat="43.4068680" lon="-5.9435880">
        <ele>228.4</ele>
        <time>2018-09-15T13:53:37Z</time>
      </trkpt>
      <trkpt lat="43.4068410" lon="-5.9436040">
        <ele>228.6</ele>
        <time>2018-09-15T13:53:38Z</time>
      </trkpt>
      <trkpt lat="43.4068130" lon="-5.9436180">
        <ele>228.7</ele>
        <time>2018-09-15T13:53:39Z</time>
      </trkpt>
      <trkpt lat="43.4067900" lon="-5.9436280">
        <ele>228.9</ele>
        <time>2018-09-15T13:53:40Z</time>
      </trkpt>
      <trkpt lat="43.4067660" lon="-5.9436390">
        <ele>229.0</ele>
        <time>2018-09-15T13:53:41Z</time>
      </trkpt>
      <trkpt lat="43.4067360" lon="-5.9436540">
        <ele>229.1</ele>
        <time>2018-09-15T13:53:42Z</time>
      </trkpt>
      <trkpt lat="43.4067070" lon="-5.9436670">
        <ele>229.3</ele>
        <time>2018-09-15T13:53:43Z</time>
      </trkpt>
      <trkpt lat="43.4066820" lon="-5.9436760">
        <ele>229.4</ele>
        <time>2018-09-15T13:53:44Z</time>
      </trkpt>
      <trkpt lat="43.4066550" lon="-5.9436860">
        <ele>229.5</ele>
        <time>2018-09-15T13:53:45Z</time>
      </trkpt>
      <trkpt lat="43.4066250" lon="-5.9437000">
        <ele>229.7</ele>
        <time>2018-09-15T13:53:46Z</time>
      </trkpt>
      <trkpt lat="43.4065980" lon="-5.9437080">
        <ele>229.8</ele>
        <time>2018-09-15T13:53:47Z</time>
      </trkpt>
      <trkpt lat="43.4065650" lon="-5.9437190">
        <ele>230.0</ele>
        <time>2018-09-15T13:53:48Z</time>
      </trkpt>
      <trkpt lat="43.4065330" lon="-5.9437290">
        <ele>230.1</ele>
        <time>2018-09-15T13:53:49Z</time>
      </trkpt>
      <trkpt lat="43.4065090" lon="-5.9437350">
        <ele>230.2</ele>
        <time>2018-09-15T13:53:50Z</time>
      </trkpt>
      <trkpt lat="43.4064760" lon="-5.9437490">
        <ele>230.4</ele>
        <time>2018-09-15T13:53:51Z</time>
      </trkpt>
      <trkpt lat="43.4064500" lon="-5.9437600">
        <ele>230.5</ele>
        <time>2018-09-15T13:53:52Z</time>
      </trkpt>
      <trkpt lat="43.4064200" lon="-5.9437730">
        <ele>230.6</ele>
        <time>2018-09-15T13:53:53Z</time>
      </trkpt>
      <trkpt lat="43.4063910" lon="-5.9437860">
        <ele>230.8</ele>
        <time>2018-09-15T13:53:54Z</time>
      </trkpt>
      <trkpt lat="43.4063660" lon="-5.9437950">
        <ele>230.9</ele>
        <time>2018-09-15T13:53:55Z</time>
      </trkpt>
      <trkpt lat="43.4063360" lon="-5.9438050">
        <ele>231.0</ele>
        <time>2018-09-15T13:53:56Z</time>
      </trkpt>
      <trkpt lat="43.4063090" lon="-5.9438120">
        <ele>231.2</ele>
        <time>2018-09-15T13:53:57Z</time>
      </trkpt>
      <trkpt lat="43.4062770" lon="-5.9438210">
        <ele>231.3</ele>
        <time>2018-09-15T13:53:58Z</time>
      </trkpt>
      <trkpt lat="43.4062510" lon="-5.9438280">
        <ele>231.4</ele>
        <time>2018-09-15T13:53:59Z</time>
      </trkpt>
      <trkpt lat="43.4062200" lon="-5.9438380">
        <ele>231.6</ele>
        <time>2018-09-15T13:54:00Z</time>
      </trkpt>
      <trkpt lat="43.4061940" lon="-5.9438450">
        <ele>231.7</ele>
        <time>2018-09-15T13:54:01Z</time>
      </trkpt>
      <trkpt lat="43.4061680" lon="-5.9438520">
        <ele>231.8</ele>
        <time>2018-09-15T13:54:02Z</time>
      </trkpt>
      <trkpt lat="43.4061370" lon="-5.9438610">
        <ele>232.0</ele>
        <time>2018-09-15T13:54:03Z</time>
      </trkpt>
      <trkpt lat="43.4061110" lon="-5.9438680">
        <ele>232.1</ele>
        <time>2018-09-15T13:54:04Z</time>
      </trkpt>
      <trkpt lat="43.4060780" lon="-5.9438770">
        <ele>232.2</ele>
        <time>2018-09-15T13:54:05Z</time>
      </trkpt>
      <trkpt lat="43.4060510" lon="-5.9438830">
        <ele>232.4</ele>
        <time>2018-09-15T13:54:06Z</time>
      </trkpt>
      <trkpt lat="43.4060180" lon="-5.9438920">
        <ele>232.5</ele>
        <time>2018-09-15T13:54:07Z</time>
      </trkpt>
      <trkpt lat="43.4059870" lon="-5.9439030">
        <ele>232.7</ele>
        <time>2018-09-15T13:54:08Z</time>
      </trkpt>
      <trkpt lat="43.4059620" lon="-5.9439130">
        <ele>232.8</ele>
        <time>2018-09-15T13:54:09Z</time>
      </trkpt>
      <trkpt lat="43.4059310" lon="-5.9439260">
        <ele>232.9</ele>
        <time>2018-09-15T13:54:10Z</time>
      </trkpt>
      <trkpt lat="43.4059060" lon="-5.9439380">
        <ele>233.1</ele>
        <time>2018-09-15T13:54:11Z</time>
      </trkpt>
      <trkpt lat="43.4058760" lon="-5.9439540">
        <ele>233.2</ele>
        <time>2018-09-15T13:54:12Z</time>
      </trkpt>
      <trkpt lat="43.4058530" lon="-5.9439640">
        <ele>233.3</ele>
        <time>2018-09-15T13:54:13Z</time>
      </trkpt>
      <trkpt lat="43.4058250" lon="-5.9439790">
        <ele>233.5</ele>
        <time>2018-09-15T13:54:14Z</time>
      </trkpt>
      <trkpt lat="43.4057970" lon="-5.9439950">
        <ele>233.6</ele>
        <time>2018-09-15T13:54:15Z</time>
      </trkpt>
      <trkpt lat="43.4057660" lon="-5.9440140">
        <ele>233.8</ele>
        <time>2018-09-15T13:54:16Z</time>
      </trkpt>
      <trkpt lat="43.4057380" lon="-5.9440330">
        <ele>233.9</ele>
        <time>2018-09-15T13:54:17Z</time>
      </trkpt>
      <trkpt lat="43.4057140" lon="-5.9440490">
        <ele>234.1</ele>
        <time>2018-09-15T13:54:18Z</time>
      </trkpt>
      <trkpt lat="43.4056860" lon="-5.9440710">
        <ele>234.2</ele>
        <time>2018-09-15T13:54:19Z</time>
      </trkpt>
      <trkpt lat="43.4056630" lon="-5.9440870">
        <ele>234.4</ele>
        <time>2018-09-15T13:54:20Z</time>
      </trkpt>
      <trkpt lat="43.4056390" lon="-5.9441050">
        <ele>234.5</ele>
        <time>2018-09-15T13:54:21Z</time>
      </trkpt>
      <trkpt lat="43.4056110" lon="-5.9441290">
        <ele>234.6</ele>
        <time>2018-09-15T13:54:22Z</time>
      </trkpt>
      <trkpt lat="43.4055880" lon="-5.9441480">
        <ele>234.8</ele>
        <time>2018-09-15T13:54:23Z</time>
      </trkpt>
      <trkpt lat="43.4055600" lon="-5.9441770">
        <ele>234.9</ele>
        <time>2018-09-15T13:54:24Z</time>
      </trkpt>
      <trkpt lat="43.4055330" lon="-5.9442060">
        <ele>235.1</ele>
        <time>2018-09-15T13:54:25Z</time>
      </trkpt>
      <trkpt lat="43.4055110" lon="-5.9442290">
        <ele>235.2</ele>
        <time>2018-09-15T13:54:26Z</time>
      </trkpt>
      <trkpt lat="43.4054880" lon="-5.9442540">
        <ele>235.4</ele>
        <time>2018-09-15T13:54:27Z</time>
      </trkpt>
      <trkpt lat="43.4054620" lon="-5.9442800">
        <ele>235.5</ele>
        <time>2018-09-15T13:54:28Z</time>
      </trkpt>
      <trkpt lat="43.4054340" lon="-5.9443070">
        <ele>235.7</ele>
        <time>2018-09-15T13:54:29Z</time>
      </trkpt>
      <trkpt lat="43.4054110" lon="-5.9443280">
        <ele>235.8</ele>
        <time>2018-09-15T13:54:30Z</time>
      </trkpt>
      <trkpt lat="43.4053840" lon="-5.9443500">
        <ele>236.0</ele>
        <time>2018-09-15T13:54:31Z</time>
      </trkpt>
      <trkpt lat="43.4053630" lon="-5.9443670">
        <ele>236.1</ele>
        <time>2018-09-15T13:54:32Z</time>
      </trkpt>
      <trkpt lat="43.4053410" lon="-5.9443840">
        <ele>236.2</ele>
        <time>2018-09-15T13:54:33Z</time>
      </trkpt>
      <trkpt lat="43.4053180" lon="-5.9444000">
        <ele>236.3</ele>
        <time>2018-09-15T13:54:34Z</time>
      </trkpt>
      <trkpt lat="43.4052880" lon="-5.9444180">
        <ele>236.5</ele>
        <time>2018-09-15T13:54:35Z</time>
      </trkpt>
      <trkpt lat="43.4052620" lon="-5.9444310">
        <ele>236.6</ele>
        <time>2018-09-15T13:54:36Z</time>
      </trkpt>
      <trkpt lat="43.4052320" lon="-5.9444450">
        <ele>236.8</ele>
        <time>2018-09-15T13:54:37Z</time>
      </trkpt>
      <trkpt lat="43.4052030" lon="-5.9444580">
        <ele>236.9</ele>
        <time>2018-09-15T13:54:38Z</time>
      </trkpt>
      <trkpt lat="43.4051790" lon="-5.9444670">
        <ele>237.0</ele>
        <time>2018-09-15T13:54:39Z</time>
      </trkpt>
      <trkpt lat="43.4051490" lon="-5.9444750">
        <ele>237.2</ele>
        <time>2018-09-15T13:54:40Z</time>
      </trkpt>
      <trkpt lat="43.4051260" lon="-5.9444820">
        <ele>237.3</ele>
        <time>2018-09-15T13:54:41Z</time>
      </trkpt>
      <trkpt lat="43.4051030" lon="-5.9444890">
        <ele>237.4</ele>
        <time>2018-09-15T13:54:42Z</time>
      </trkpt>
      <trkpt lat="43.4050730" lon="-5.9444980">
        <ele>237.6</ele>
        <time>2018-09-15T13:54:43Z</time>
      </trkpt>
      <trkpt lat="43.4050480" lon="-5.9445030">
        <ele>237.7</ele>
        <time>2018-09-15T13:54:44Z</time>
      </trkpt>
      <trkpt lat="43.4050160" lon="-5.9445090">
        <ele>237.9</ele>
        <time>2018-09-15T13:54:45Z</time>
      </trkpt>
      <trkpt lat="43.4049900" lon="-5.9445130">
        <ele>238.0</ele>
        <time>2018-09-15T13:54:46Z</time>
      </trkpt>
      <trkpt lat="43.4049610" lon="-5.9445180">
        <ele>238.2</ele>
        <time>2018-09-15T13:54:47Z</time>
      </trkpt>
      <trkpt lat="43.4049230" lon="-5.9445260">
        <ele>238.4</ele>
        <time>2018-09-15T13:54:48Z</time>
      </trkpt>
      <trkpt lat="43.4048980" lon="-5.9445300">
        <ele>238.5</ele>
        <time>2018-09-15T13:54:49Z</time>
      </trkpt>
      <trkpt lat="43.4048730" lon="-5.9445330">
        <ele>238.7</ele>
        <time>2018-09-15T13:54:50Z</time>
      </trkpt>
      <trkpt lat="43.4048420" lon="-5.9445390">
        <ele>238.8</ele>
        <time>2018-09-15T13:54:51Z</time>
      </trkpt>
      <trkpt lat="43.4048160" lon="-5.9445420">
        <ele>239.0</ele>
        <time>2018-09-15T13:54:52Z</time>
      </trkpt>
      <trkpt lat="43.4047850" lon="-5.9445470">
        <ele>239.2</ele>
        <time>2018-09-15T13:54:53Z</time>
      </trkpt>
      <trkpt lat="43.4047580" lon="-5.9445510">
        <ele>239.3</ele>
        <time>2018-09-15T13:54:54Z</time>
      </trkpt>
      <trkpt lat="43.4047280" lon="-5.9445570">
        <ele>239.5</ele>
        <time>2018-09-15T13:54:55Z</time>
      </trkpt>
      <trkpt lat="43.4046930" lon="-5.9445640">
        <ele>239.7</ele>
        <time>2018-09-15T13:54:56Z</time>
      </trkpt>
      <trkpt lat="43.4046610" lon="-5.9445690">
        <ele>239.9</ele>
        <time>2018-09-15T13:54:57Z</time>
      </trkpt>
      <trkpt lat="43.4046290" lon="-5.9445740">
        <ele>240.1</ele>
        <time>2018-09-15T13:54:58Z</time>
      </trkpt>
      <trkpt lat="43.4045990" lon="-5.9445790">
        <ele>240.3</ele>
        <time>2018-09-15T13:54:59Z</time>
      </trkpt>
      <trkpt lat="43.4045720" lon="-5.9445810">
        <ele>240.4</ele>
        <time>2018-09-15T13:55:00Z</time>
      </trkpt>
      <trkpt lat="43.4045410" lon="-5.9445830">
        <ele>240.6</ele>
        <time>2018-09-15T13:55:01Z</time>
      </trkpt>
      <trkpt lat="43.4045140" lon="-5.9445810">
        <ele>240.8</ele>
        <time>2018-09-15T13:55:02Z</time>
      </trkpt>
      <trkpt lat="43.4044830" lon="-5.9445740">
        <ele>241.0</ele>
        <time>2018-09-15T13:55:03Z</time>
      </trkpt>
      <trkpt lat="43.4044520" lon="-5.9445630">
        <ele>241.2</ele>
        <time>2018-09-15T13:55:04Z</time>
      </trkpt>
      <trkpt lat="43.4044260" lon="-5.9445510">
        <ele>241.3</ele>
        <time>2018-09-15T13:55:05Z</time>
      </trkpt>
      <trkpt lat="43.4043950" lon="-5.9445370">
        <ele>241.5</ele>
        <time>2018-09-15T13:55:06Z</time>
      </trkpt>
      <trkpt lat="43.4043690" lon="-5.9445230">
        <ele>241.7</ele>
        <time>2018-09-15T13:55:07Z</time>
      </trkpt>
      <trkpt lat="43.4043380" lon="-5.9445100">
        <ele>241.8</ele>
        <time>2018-09-15T13:55:08Z</time>
      </trkpt>
      <trkpt lat="43.4043140" lon="-5.9444990">
        <ele>242.0</ele>
        <time>2018-09-15T13:55:09Z</time>
      </trkpt>
      <trkpt lat="43.4042800" lon="-5.9444900">
        <ele>242.1</ele>
        <time>2018-09-15T13:55:10Z</time>
      </trkpt>
      <trkpt lat="43.4042520" lon="-5.9444840">
        <ele>242.3</ele>
        <time>2018-09-15T13:55:11Z</time>
      </trkpt>
      <trkpt lat="43.4042190" lon="-5.9444840">
        <ele>242.4</ele>
        <time>2018-09-15T13:55:12Z</time>
      </trkpt>
      <trkpt lat="43.4041880" lon="-5.9444890">
        <ele>242.5</ele>
        <time>2018-09-15T13:55:13Z</time>
      </trkpt>
      <trkpt lat="43.4041570" lon="-5.9445010">
        <ele>242.6</ele>
        <time>2018-09-15T13:55:14Z</time>
      </trkpt>
      <trkpt lat="43.4041280" lon="-5.9445180">
        <ele>242.6</ele>
        <time>2018-09-15T13:55:15Z</time>
      </trkpt>
      <trkpt lat="43.4041040" lon="-5.9445330">
        <ele>242.7</ele>
        <time>2018-09-15T13:55:16Z</time>
      </trkpt>
      <trkpt lat="43.4040790" lon="-5.9445530">
        <ele>242.8</ele>
        <time>2018-09-15T13:55:17Z</time>
      </trkpt>
      <trkpt lat="43.4040550" lon="-5.9445820">
        <ele>242.9</ele>
        <time>2018-09-15T13:55:18Z</time>
      </trkpt>
      <trkpt lat="43.4040340" lon="-5.9446120">
        <ele>243.0</ele>
        <time>2018-09-15T13:55:19Z</time>
      </trkpt>
      <trkpt lat="43.4040170" lon="-5.9446360">
        <ele>243.1</ele>
        <time>2018-09-15T13:55:20Z</time>
      </trkpt>
      <trkpt lat="43.4039950" lon="-5.9446670">
        <ele>243.2</ele>
        <time>2018-09-15T13:55:21Z</time>
      </trkpt>
      <trkpt lat="43.4039740" lon="-5.9446930">
        <ele>243.4</ele>
        <time>2018-09-15T13:55:22Z</time>
      </trkpt>
      <trkpt lat="43.4039500" lon="-5.9447250">
        <ele>243.5</ele>
        <time>2018-09-15T13:55:23Z</time>
      </trkpt>
      <trkpt lat="43.4039290" lon="-5.9447500">
        <ele>243.6</ele>
        <time>2018-09-15T13:55:24Z</time>
      </trkpt>
      <trkpt lat="43.4038790" lon="-5.9448140">
        <ele>243.9</ele>
        <time>2018-09-15T13:55:26Z</time>
      </trkpt>
      <trkpt lat="43.4038540" lon="-5.9448410">
        <ele>244.1</ele>
        <time>2018-09-15T13:55:27Z</time>
      </trkpt>
      <trkpt lat="43.4038250" lon="-5.9448700">
        <ele>244.2</ele>
        <time>2018-09-15T13:55:28Z</time>
      </trkpt>
      <trkpt lat="43.4038000" lon="-5.9448940">
        <ele>244.3</ele>
        <time>2018-09-15T13:55:29Z</time>
      </trkpt>
      <trkpt lat="43.4037710" lon="-5.9449240">
        <ele>244.5</ele>
        <time>2018-09-15T13:55:30Z</time>
      </trkpt>
      <trkpt lat="43.4037400" lon="-5.9449510">
        <ele>244.6</ele>
        <time>2018-09-15T13:55:31Z</time>
      </trkpt>
      <trkpt lat="43.4037120" lon="-5.9449750">
        <ele>244.7</ele>
        <time>2018-09-15T13:55:32Z</time>
      </trkpt>
      <trkpt lat="43.4036840" lon="-5.9449970">
        <ele>244.8</ele>
        <time>2018-09-15T13:55:33Z</time>
      </trkpt>
      <trkpt lat="43.4036600" lon="-5.9450110">
        <ele>244.9</ele>
        <time>2018-09-15T13:55:34Z</time>
      </trkpt>
      <trkpt lat="43.4036310" lon="-5.9450270">
        <ele>245.0</ele>
        <time>2018-09-15T13:55:35Z</time>
      </trkpt>
      <trkpt lat="43.4036010" lon="-5.9450460">
        <ele>245.0</ele>
        <time>2018-09-15T13:55:36Z</time>
      </trkpt>
      <trkpt lat="43.4035710" lon="-5.9450640">
        <ele>245.0</ele>
        <time>2018-09-15T13:55:37Z</time>
      </trkpt>
      <trkpt lat="43.4035510" lon="-5.9450760">
        <ele>245.1</ele>
        <time>2018-09-15T13:55:38Z</time>
      </trkpt>
      <trkpt lat="43.4035180" lon="-5.9450940">
        <ele>245.1</ele>
        <time>2018-09-15T13:55:39Z</time>
      </trkpt>
      <trkpt lat="43.4034280" lon="-5.9451370">
        <ele>245.2</ele>
        <time>2018-09-15T13:55:40Z</time>
      </trkpt>
      <trkpt lat="43.4033840" lon="-5.9451620">
        <ele>245.3</ele>
        <time>2018-09-15T13:55:41Z</time>
      </trkpt>
      <trkpt lat="43.4033520" lon="-5.9451830">
        <ele>245.3</ele>
        <time>2018-09-15T13:55:42Z</time>
      </trkpt>
      <trkpt lat="43.4033210" lon="-5.9452150">
        <ele>245.3</ele>
        <time>2018-09-15T13:55:43Z</time>
      </trkpt>
      <trkpt lat="43.4033050" lon="-5.9452300">
        <ele>245.3</ele>
        <time>2018-09-15T13:55:44Z</time>
      </trkpt>
      <trkpt lat="43.4032820" lon="-5.9452480">
        <ele>245.4</ele>
        <time>2018-09-15T13:55:45Z</time>
      </trkpt>
      <trkpt lat="43.4032520" lon="-5.9452690">
        <ele>245.4</ele>
        <time>2018-09-15T13:55:46Z</time>
      </trkpt>
      <trkpt lat="43.4032230" lon="-5.9452880">
        <ele>245.4</ele>
        <time>2018-09-15T13:55:47Z</time>
      </trkpt>
      <trkpt lat="43.4031960" lon="-5.9453050">
        <ele>245.5</ele>
        <time>2018-09-15T13:55:48Z</time>
      </trkpt>
      <trkpt lat="43.4031630" lon="-5.9453210">
        <ele>245.6</ele>
        <time>2018-09-15T13:55:49Z</time>
      </trkpt>
      <trkpt lat="43.4030850" lon="-5.9453510">
        <ele>245.8</ele>
        <time>2018-09-15T13:55:50Z</time>
      </trkpt>
      <trkpt lat="43.4030660" lon="-5.9453570">
        <ele>245.8</ele>
        <time>2018-09-15T13:55:51Z</time>
      </trkpt>
      <trkpt lat="43.4030380" lon="-5.9453640">
        <ele>245.9</ele>
        <time>2018-09-15T13:55:52Z</time>
      </trkpt>
      <trkpt lat="43.4030070" lon="-5.9453690">
        <ele>246.1</ele>
        <time>2018-09-15T13:55:53Z</time>
      </trkpt>
      <trkpt lat="43.4029470" lon="-5.9453680">
        <ele>246.3</ele>
        <time>2018-09-15T13:55:54Z</time>
      </trkpt>
      <trkpt lat="43.4029280" lon="-5.9453660">
        <ele>246.4</ele>
        <time>2018-09-15T13:55:55Z</time>
      </trkpt>
      <trkpt lat="43.4029020" lon="-5.9453640">
        <ele>246.5</ele>
        <time>2018-09-15T13:55:56Z</time>
      </trkpt>
      <trkpt lat="43.4028470" lon="-5.9453610">
        <ele>246.7</ele>
        <time>2018-09-15T13:55:57Z</time>
      </trkpt>
      <trkpt lat="43.4028280" lon="-5.9453580">
        <ele>246.8</ele>
        <time>2018-09-15T13:55:58Z</time>
      </trkpt>
      <trkpt lat="43.4028010" lon="-5.9453540">
        <ele>246.8</ele>
        <time>2018-09-15T13:55:59Z</time>
      </trkpt>
      <trkpt lat="43.4027720" lon="-5.9453470">
        <ele>247.0</ele>
        <time>2018-09-15T13:56:00Z</time>
      </trkpt>
      <trkpt lat="43.4027470" lon="-5.9453400">
        <ele>247.0</ele>
        <time>2018-09-15T13:56:01Z</time>
      </trkpt>
      <trkpt lat="43.4027220" lon="-5.9453350">
        <ele>247.1</ele>
        <time>2018-09-15T13:56:02Z</time>
      </trkpt>
      <trkpt lat="43.4026980" lon="-5.9453310">
        <ele>247.1</ele>
        <time>2018-09-15T13:56:03Z</time>
      </trkpt>
      <trkpt lat="43.4026730" lon="-5.9453270">
        <ele>247.1</ele>
        <time>2018-09-15T13:56:04Z</time>
      </trkpt>
      <trkpt lat="43.4026290" lon="-5.9453260">
        <ele>247.2</ele>
        <time>2018-09-15T13:56:05Z</time>
      </trkpt>
      <trkpt lat="43.4025890" lon="-5.9453250">
        <ele>247.2</ele>
        <time>2018-09-15T13:56:06Z</time>
      </trkpt>
      <trkpt lat="43.4025500" lon="-5.9453260">
        <ele>247.3</ele>
        <time>2018-09-15T13:56:07Z</time>
      </trkpt>
      <trkpt lat="43.4025160" lon="-5.9453270">
        <ele>247.3</ele>
        <time>2018-09-15T13:56:08Z</time>
      </trkpt>
      <trkpt lat="43.4024150" lon="-5.9453240">
        <ele>247.4</ele>
        <time>2018-09-15T13:56:09Z</time>
      </trkpt>
      <trkpt lat="43.4023760" lon="-5.9453230">
        <ele>247.5</ele>
        <time>2018-09-15T13:56:10Z</time>
      </trkpt>
      <trkpt lat="43.4023330" lon="-5.9453190">
        <ele>247.5</ele>
        <time>2018-09-15T13:56:11Z</time>
      </trkpt>
      <trkpt lat="43.4023170" lon="-5.9453210">
        <ele>247.5</ele>
        <time>2018-09-15T13:56:12Z</time>
      </trkpt>
      <trkpt lat="43.4022920" lon="-5.9453240">
        <ele>247.6</ele>
        <time>2018-09-15T13:56:13Z</time>
      </trkpt>
      <trkpt lat="43.4022330" lon="-5.9453210">
        <ele>247.6</ele>
        <time>2018-09-15T13:56:14Z</time>
      </trkpt>
      <trkpt lat="43.4022010" lon="-5.9453100">
        <ele>247.7</ele>
        <time>2018-09-15T13:56:15Z</time>
      </trkpt>
      <trkpt lat="43.4021640" lon="-5.9453120">
        <ele>247.7</ele>
        <time>2018-09-15T13:56:16Z</time>
      </trkpt>
      <trkpt lat="43.4021280" lon="-5.9453120">
        <ele>247.8</ele>
        <time>2018-09-15T13:56:17Z</time>
      </trkpt>
      <trkpt lat="43.4020900" lon="-5.9453060">
        <ele>247.8</ele>
        <time>2018-09-15T13:56:18Z</time>
      </trkpt>
      <trkpt lat="43.4020530" lon="-5.9452960">
        <ele>247.9</ele>
        <time>2018-09-15T13:56:19Z</time>
      </trkpt>
      <trkpt lat="43.4020140" lon="-5.9452750">
        <ele>247.9</ele>
        <time>2018-09-15T13:56:20Z</time>
      </trkpt>
      <trkpt lat="43.4019740" lon="-5.9452560">
        <ele>248.0</ele>
        <time>2018-09-15T13:56:21Z</time>
      </trkpt>
      <trkpt lat="43.4019320" lon="-5.9452380">
        <ele>248.1</ele>
        <time>2018-09-15T13:56:22Z</time>
      </trkpt>
      <trkpt lat="43.4018870" lon="-5.9452110">
        <ele>248.1</ele>
        <time>2018-09-15T13:56:23Z</time>
      </trkpt>
      <trkpt lat="43.4018530" lon="-5.9451980">
        <ele>248.2</ele>
        <time>2018-09-15T13:56:24Z</time>
      </trkpt>
      <trkpt lat="43.4018120" lon="-5.9451730">
        <ele>248.3</ele>
        <time>2018-09-15T13:56:25Z</time>
      </trkpt>
      <trkpt lat="43.4017720" lon="-5.9451510">
        <ele>248.5</ele>
        <time>2018-09-15T13:56:26Z</time>
      </trkpt>
      <trkpt lat="43.4017320" lon="-5.9451330">
        <ele>248.6</ele>
        <time>2018-09-15T13:56:27Z</time>
      </trkpt>
      <trkpt lat="43.4016950" lon="-5.9451090">
        <ele>248.8</ele>
        <time>2018-09-15T13:56:28Z</time>
      </trkpt>
      <trkpt lat="43.4016580" lon="-5.9450830">
        <ele>249.0</ele>
        <time>2018-09-15T13:56:29Z</time>
      </trkpt>
      <trkpt lat="43.4016180" lon="-5.9450560">
        <ele>249.2</ele>
        <time>2018-09-15T13:56:30Z</time>
      </trkpt>
      <trkpt lat="43.4015990" lon="-5.9450450">
        <ele>249.3</ele>
        <time>2018-09-15T13:56:31Z</time>
      </trkpt>
      <trkpt lat="43.4015480" lon="-5.9450050">
        <ele>249.6</ele>
        <time>2018-09-15T13:56:32Z</time>
      </trkpt>
      <trkpt lat="43.4015100" lon="-5.9449760">
        <ele>249.7</ele>
        <time>2018-09-15T13:56:33Z</time>
      </trkpt>
      <trkpt lat="43.4014690" lon="-5.9449530">
        <ele>249.8</ele>
        <time>2018-09-15T13:56:34Z</time>
      </trkpt>
      <trkpt lat="43.4014260" lon="-5.9449300">
        <ele>249.9</ele>
        <time>2018-09-15T13:56:35Z</time>
      </trkpt>
      <trkpt lat="43.4013840" lon="-5.9449090">
        <ele>250.0</ele>
        <time>2018-09-15T13:56:36Z</time>
      </trkpt>
      <trkpt lat="43.4013390" lon="-5.9449040">
        <ele>250.1</ele>
        <time>2018-09-15T13:56:37Z</time>
      </trkpt>
      <trkpt lat="43.4012890" lon="-5.9449020">
        <ele>250.2</ele>
        <time>2018-09-15T13:56:38Z</time>
      </trkpt>
      <trkpt lat="43.4012360" lon="-5.9449190">
        <ele>250.3</ele>
        <time>2018-09-15T13:56:39Z</time>
      </trkpt>
      <trkpt lat="43.4011970" lon="-5.9449320">
        <ele>250.3</ele>
        <time>2018-09-15T13:56:40Z</time>
      </trkpt>
      <trkpt lat="43.4011510" lon="-5.9449420">
        <ele>250.3</ele>
        <time>2018-09-15T13:56:41Z</time>
      </trkpt>
      <trkpt lat="43.4011080" lon="-5.9449650">
        <ele>250.3</ele>
        <time>2018-09-15T13:56:42Z</time>
      </trkpt>
      <trkpt lat="43.4010580" lon="-5.9449780">
        <ele>250.4</ele>
        <time>2018-09-15T13:56:43Z</time>
      </trkpt>
      <trkpt lat="43.4010060" lon="-5.9449870">
        <ele>250.4</ele>
        <time>2018-09-15T13:56:44Z</time>
      </trkpt>
      <trkpt lat="43.4009580" lon="-5.9449960">
        <ele>250.4</ele>
        <time>2018-09-15T13:56:45Z</time>
      </trkpt>
      <trkpt lat="43.4009110" lon="-5.9450120">
        <ele>250.4</ele>
        <time>2018-09-15T13:56:46Z</time>
      </trkpt>
      <trkpt lat="43.4008620" lon="-5.9450320">
        <ele>250.4</ele>
        <time>2018-09-15T13:56:47Z</time>
      </trkpt>
      <trkpt lat="43.4008130" lon="-5.9450330">
        <ele>250.4</ele>
        <time>2018-09-15T13:56:48Z</time>
      </trkpt>
      <trkpt lat="43.4007740" lon="-5.9450570">
        <ele>250.4</ele>
        <time>2018-09-15T13:56:49Z</time>
      </trkpt>
      <trkpt lat="43.4007430" lon="-5.9450910">
        <ele>250.5</ele>
        <time>2018-09-15T13:56:50Z</time>
      </trkpt>
      <trkpt lat="43.4006940" lon="-5.9451080">
        <ele>250.5</ele>
        <time>2018-09-15T13:56:51Z</time>
      </trkpt>
      <trkpt lat="43.4006400" lon="-5.9451240">
        <ele>250.4</ele>
        <time>2018-09-15T13:56:52Z</time>
      </trkpt>
      <trkpt lat="43.4005950" lon="-5.9451400">
        <ele>250.4</ele>
        <time>2018-09-15T13:56:53Z</time>
      </trkpt>
      <trkpt lat="43.4005510" lon="-5.9451600">
        <ele>250.4</ele>
        <time>2018-09-15T13:56:54Z</time>
      </trkpt>
      <trkpt lat="43.4004990" lon="-5.9451740">
        <ele>250.4</ele>
        <time>2018-09-15T13:56:55Z</time>
      </trkpt>
      <trkpt lat="43.4004570" lon="-5.9451760">
        <ele>250.4</ele>
        <time>2018-09-15T13:56:56Z</time>
      </trkpt>
      <trkpt lat="43.4004170" lon="-5.9451840">
        <ele>250.4</ele>
        <time>2018-09-15T13:56:57Z</time>
      </trkpt>
      <trkpt lat="43.4003730" lon="-5.9451740">
        <ele>250.3</ele>
        <time>2018-09-15T13:56:58Z</time>
      </trkpt>
      <trkpt lat="43.4003250" lon="-5.9451540">
        <ele>250.2</ele>
        <time>2018-09-15T13:56:59Z</time>
      </trkpt>
      <trkpt lat="43.4002840" lon="-5.9451310">
        <ele>250.0</ele>
        <time>2018-09-15T13:57:00Z</time>
      </trkpt>
      <trkpt lat="43.4002370" lon="-5.9450960">
        <ele>249.8</ele>
        <time>2018-09-15T13:57:01Z</time>
      </trkpt>
      <trkpt lat="43.4001900" lon="-5.9450700">
        <ele>249.6</ele>
        <time>2018-09-15T13:57:02Z</time>
      </trkpt>
      <trkpt lat="43.4001460" lon="-5.9450430">
        <ele>249.5</ele>
        <time>2018-09-15T13:57:03Z</time>
      </trkpt>
      <trkpt lat="43.4000950" lon="-5.9450120">
        <ele>249.3</ele>
        <time>2018-09-15T13:57:04Z</time>
      </trkpt>
      <trkpt lat="43.4000540" lon="-5.9449750">
        <ele>249.2</ele>
        <time>2018-09-15T13:57:05Z</time>
      </trkpt>
      <trkpt lat="43.4000000" lon="-5.9449330">
        <ele>249.1</ele>
        <time>2018-09-15T13:57:06Z</time>
      </trkpt>
      <trkpt lat="43.3999410" lon="-5.9449210">
        <ele>249.1</ele>
        <time>2018-09-15T13:57:07Z</time>
      </trkpt>
      <trkpt lat="43.3998910" lon="-5.9448970">
        <ele>249.0</ele>
        <time>2018-09-15T13:57:08Z</time>
      </trkpt>
      <trkpt lat="43.3998340" lon="-5.9448680">
        <ele>249.1</ele>
        <time>2018-09-15T13:57:09Z</time>
      </trkpt>
      <trkpt lat="43.3997730" lon="-5.9448390">
        <ele>249.5</ele>
        <time>2018-09-15T13:57:10Z</time>
      </trkpt>
      <trkpt lat="43.3997100" lon="-5.9448140">
        <ele>249.5</ele>
        <time>2018-09-15T13:57:11Z</time>
      </trkpt>
      <trkpt lat="43.3996460" lon="-5.9448000">
        <ele>249.6</ele>
        <time>2018-09-15T13:57:12Z</time>
      </trkpt>
      <trkpt lat="43.3995870" lon="-5.9447850">
        <ele>249.8</ele>
        <time>2018-09-15T13:57:13Z</time>
      </trkpt>
      <trkpt lat="43.3995330" lon="-5.9447740">
        <ele>249.9</ele>
        <time>2018-09-15T13:57:14Z</time>
      </trkpt>
      <trkpt lat="43.3994660" lon="-5.9447800">
        <ele>249.6</ele>
        <time>2018-09-15T13:57:15Z</time>
      </trkpt>
      <trkpt lat="43.3994060" lon="-5.9447830">
        <ele>249.5</ele>
        <time>2018-09-15T13:57:16Z</time>
      </trkpt>
      <trkpt lat="43.3993420" lon="-5.9447810">
        <ele>249.4</ele>
        <time>2018-09-15T13:57:17Z</time>
      </trkpt>
      <trkpt lat="43.3992800" lon="-5.9447950">
        <ele>249.3</ele>
        <time>2018-09-15T13:57:18Z</time>
      </trkpt>
      <trkpt lat="43.3992260" lon="-5.9448100">
        <ele>249.2</ele>
        <time>2018-09-15T13:57:19Z</time>
      </trkpt>
      <trkpt lat="43.3991680" lon="-5.9448250">
        <ele>249.0</ele>
        <time>2018-09-15T13:57:20Z</time>
      </trkpt>
      <trkpt lat="43.3991070" lon="-5.9448530">
        <ele>248.9</ele>
        <time>2018-09-15T13:57:21Z</time>
      </trkpt>
      <trkpt lat="43.3990490" lon="-5.9448790">
        <ele>248.9</ele>
        <time>2018-09-15T13:57:22Z</time>
      </trkpt>
      <trkpt lat="43.3989820" lon="-5.9449000">
        <ele>248.8</ele>
        <time>2018-09-15T13:57:23Z</time>
      </trkpt>
      <trkpt lat="43.3989230" lon="-5.9449280">
        <ele>248.8</ele>
        <time>2018-09-15T13:57:24Z</time>
      </trkpt>
      <trkpt lat="43.3988640" lon="-5.9449550">
        <ele>248.8</ele>
        <time>2018-09-15T13:57:25Z</time>
      </trkpt>
      <trkpt lat="43.3988040" lon="-5.9449880">
        <ele>248.8</ele>
        <time>2018-09-15T13:57:26Z</time>
      </trkpt>
      <trkpt lat="43.3987430" lon="-5.9450170">
        <ele>248.7</ele>
        <time>2018-09-15T13:57:27Z</time>
      </trkpt>
      <trkpt lat="43.3986800" lon="-5.9450430">
        <ele>248.7</ele>
        <time>2018-09-15T13:57:28Z</time>
      </trkpt>
      <trkpt lat="43.3986200" lon="-5.9450750">
        <ele>248.7</ele>
        <time>2018-09-15T13:57:29Z</time>
      </trkpt>
      <trkpt lat="43.3985580" lon="-5.9451100">
        <ele>248.8</ele>
        <time>2018-09-15T13:57:30Z</time>
      </trkpt>
      <trkpt lat="43.3984990" lon="-5.9451470">
        <ele>248.8</ele>
        <time>2018-09-15T13:57:31Z</time>
      </trkpt>
      <trkpt lat="43.3984400" lon="-5.9451720">
        <ele>248.9</ele>
        <time>2018-09-15T13:57:32Z</time>
      </trkpt>
      <trkpt lat="43.3983760" lon="-5.9451950">
        <ele>249.0</ele>
        <time>2018-09-15T13:57:33Z</time>
      </trkpt>
      <trkpt lat="43.3983170" lon="-5.9452340">
        <ele>249.2</ele>
        <time>2018-09-15T13:57:34Z</time>
      </trkpt>
      <trkpt lat="43.3982530" lon="-5.9452600">
        <ele>249.3</ele>
        <time>2018-09-15T13:57:35Z</time>
      </trkpt>
      <trkpt lat="43.3981920" lon="-5.9452970">
        <ele>249.4</ele>
        <time>2018-09-15T13:57:36Z</time>
      </trkpt>
      <trkpt lat="43.3981240" lon="-5.9453250">
        <ele>249.6</ele>
        <time>2018-09-15T13:57:37Z</time>
      </trkpt>
      <trkpt lat="43.3980550" lon="-5.9453560">
        <ele>249.7</ele>
        <time>2018-09-15T13:57:38Z</time>
      </trkpt>
      <trkpt lat="43.3979870" lon="-5.9453850">
        <ele>249.8</ele>
        <time>2018-09-15T13:57:39Z</time>
      </trkpt>
      <trkpt lat="43.3979210" lon="-5.9454190">
        <ele>249.9</ele>
        <time>2018-09-15T13:57:40Z</time>
      </trkpt>
      <trkpt lat="43.3978560" lon="-5.9454610">
        <ele>250.0</ele>
        <time>2018-09-15T13:57:41Z</time>
      </trkpt>
      <trkpt lat="43.3977960" lon="-5.9455030">
        <ele>250.0</ele>
        <time>2018-09-15T13:57:42Z</time>
      </trkpt>
      <trkpt lat="43.3977330" lon="-5.9455420">
        <ele>250.0</ele>
        <time>2018-09-15T13:57:43Z</time>
      </trkpt>
      <trkpt lat="43.3976780" lon="-5.9455770">
        <ele>250.0</ele>
        <time>2018-09-15T13:57:44Z</time>
      </trkpt>
      <trkpt lat="43.3976280" lon="-5.9456150">
        <ele>250.0</ele>
        <time>2018-09-15T13:57:45Z</time>
      </trkpt>
      <trkpt lat="43.3975750" lon="-5.9456390">
        <ele>250.0</ele>
        <time>2018-09-15T13:57:46Z</time>
      </trkpt>
      <trkpt lat="43.3975330" lon="-5.9456540">
        <ele>250.1</ele>
        <time>2018-09-15T13:57:47Z</time>
      </trkpt>
      <trkpt lat="43.3974890" lon="-5.9456760">
        <ele>250.1</ele>
        <time>2018-09-15T13:57:48Z</time>
      </trkpt>
      <trkpt lat="43.3974430" lon="-5.9457050">
        <ele>250.1</ele>
        <time>2018-09-15T13:57:49Z</time>
      </trkpt>
      <trkpt lat="43.3973970" lon="-5.9457270">
        <ele>250.2</ele>
        <time>2018-09-15T13:57:50Z</time>
      </trkpt>
      <trkpt lat="43.3973600" lon="-5.9457560">
        <ele>250.2</ele>
        <time>2018-09-15T13:57:51Z</time>
      </trkpt>
      <trkpt lat="43.3973140" lon="-5.9457830">
        <ele>250.2</ele>
        <time>2018-09-15T13:57:52Z</time>
      </trkpt>
      <trkpt lat="43.3972690" lon="-5.9458140">
        <ele>250.2</ele>
        <time>2018-09-15T13:57:53Z</time>
      </trkpt>
      <trkpt lat="43.3972340" lon="-5.9458410">
        <ele>250.3</ele>
        <time>2018-09-15T13:57:54Z</time>
      </trkpt>
      <trkpt lat="43.3972000" lon="-5.9458680">
        <ele>250.3</ele>
        <time>2018-09-15T13:57:55Z</time>
      </trkpt>
      <trkpt lat="43.3971600" lon="-5.9458940">
        <ele>250.3</ele>
        <time>2018-09-15T13:57:56Z</time>
      </trkpt>
      <trkpt lat="43.3971230" lon="-5.9459210">
        <ele>250.4</ele>
        <time>2018-09-15T13:57:57Z</time>
      </trkpt>
      <trkpt lat="43.3970930" lon="-5.9459480">
        <ele>250.4</ele>
        <time>2018-09-15T13:57:58Z</time>
      </trkpt>
      <trkpt lat="43.3970550" lon="-5.9459740">
        <ele>250.5</ele>
        <time>2018-09-15T13:57:59Z</time>
      </trkpt>
      <trkpt lat="43.3970160" lon="-5.9459950">
        <ele>250.6</ele>
        <time>2018-09-15T13:58:00Z</time>
      </trkpt>
      <trkpt lat="43.3969790" lon="-5.9460170">
        <ele>250.7</ele>
        <time>2018-09-15T13:58:01Z</time>
      </trkpt>
      <trkpt lat="43.3969610" lon="-5.9460300">
        <ele>250.7</ele>
        <time>2018-09-15T13:58:02Z</time>
      </trkpt>
      <trkpt lat="43.3969160" lon="-5.9460610">
        <ele>250.8</ele>
        <time>2018-09-15T13:58:03Z</time>
      </trkpt>
      <trkpt lat="43.3968820" lon="-5.9460780">
        <ele>250.9</ele>
        <time>2018-09-15T13:58:04Z</time>
      </trkpt>
      <trkpt lat="43.3968410" lon="-5.9460950">
        <ele>250.9</ele>
        <time>2018-09-15T13:58:05Z</time>
      </trkpt>
      <trkpt lat="43.3968080" lon="-5.9461220">
        <ele>251.0</ele>
        <time>2018-09-15T13:58:06Z</time>
      </trkpt>
      <trkpt lat="43.3967760" lon="-5.9461500">
        <ele>251.0</ele>
        <time>2018-09-15T13:58:07Z</time>
      </trkpt>
      <trkpt lat="43.3967400" lon="-5.9461790">
        <ele>251.0</ele>
        <time>2018-09-15T13:58:08Z</time>
      </trkpt>
      <trkpt lat="43.3967070" lon="-5.9462030">
        <ele>251.1</ele>
        <time>2018-09-15T13:58:09Z</time>
      </trkpt>
      <trkpt lat="43.3966710" lon="-5.9462250">
        <ele>251.1</ele>
        <time>2018-09-15T13:58:10Z</time>
      </trkpt>
      <trkpt lat="43.3966350" lon="-5.9462460">
        <ele>251.1</ele>
        <time>2018-09-15T13:58:11Z</time>
      </trkpt>
      <trkpt lat="43.3966000" lon="-5.9462700">
        <ele>251.1</ele>
        <time>2018-09-15T13:58:12Z</time>
      </trkpt>
      <trkpt lat="43.3965650" lon="-5.9462940">
        <ele>251.1</ele>
        <time>2018-09-15T13:58:13Z</time>
      </trkpt>
      <trkpt lat="43.3965470" lon="-5.9463060">
        <ele>251.1</ele>
        <time>2018-09-15T13:58:14Z</time>
      </trkpt>
      <trkpt lat="43.3964990" lon="-5.9463370">
        <ele>251.1</ele>
        <time>2018-09-15T13:58:15Z</time>
      </trkpt>
      <trkpt lat="43.3964640" lon="-5.9463590">
        <ele>251.1</ele>
        <time>2018-09-15T13:58:16Z</time>
      </trkpt>
      <trkpt lat="43.3964290" lon="-5.9463810">
        <ele>251.1</ele>
        <time>2018-09-15T13:58:17Z</time>
      </trkpt>
      <trkpt lat="43.3963980" lon="-5.9464050">
        <ele>251.1</ele>
        <time>2018-09-15T13:58:18Z</time>
      </trkpt>
      <trkpt lat="43.3963670" lon="-5.9464300">
        <ele>251.1</ele>
        <time>2018-09-15T13:58:19Z</time>
      </trkpt>
      <trkpt lat="43.3963500" lon="-5.9464430">
        <ele>251.1</ele>
        <time>2018-09-15T13:58:20Z</time>
      </trkpt>
      <trkpt lat="43.3963330" lon="-5.9464620">
        <ele>251.1</ele>
        <time>2018-09-15T13:58:21Z</time>
      </trkpt>
      <trkpt lat="43.3962760" lon="-5.9464970">
        <ele>251.1</ele>
        <time>2018-09-15T13:58:22Z</time>
      </trkpt>
      <trkpt lat="43.3962440" lon="-5.9465210">
        <ele>251.1</ele>
        <time>2018-09-15T13:58:23Z</time>
      </trkpt>
      <trkpt lat="43.3962260" lon="-5.9465350">
        <ele>251.1</ele>
        <time>2018-09-15T13:58:24Z</time>
      </trkpt>
      <trkpt lat="43.3962040" lon="-5.9465560">
        <ele>251.1</ele>
        <time>2018-09-15T13:58:25Z</time>
      </trkpt>
      <trkpt lat="43.3961800" lon="-5.9465780">
        <ele>251.1</ele>
        <time>2018-09-15T13:58:26Z</time>
      </trkpt>
      <trkpt lat="43.3961530" lon="-5.9466070">
        <ele>251.0</ele>
        <time>2018-09-15T13:58:27Z</time>
      </trkpt>
      <trkpt lat="43.3960850" lon="-5.9466550">
        <ele>251.0</ele>
        <time>2018-09-15T13:58:28Z</time>
      </trkpt>
      <trkpt lat="43.3960360" lon="-5.9466910">
        <ele>251.0</ele>
        <time>2018-09-15T13:58:29Z</time>
      </trkpt>
      <trkpt lat="43.3960000" lon="-5.9467230">
        <ele>251.0</ele>
        <time>2018-09-15T13:58:30Z</time>
      </trkpt>
      <trkpt lat="43.3959610" lon="-5.9467520">
        <ele>250.9</ele>
        <time>2018-09-15T13:58:31Z</time>
      </trkpt>
      <trkpt lat="43.3959230" lon="-5.9467760">
        <ele>250.9</ele>
        <time>2018-09-15T13:58:32Z</time>
      </trkpt>
      <trkpt lat="43.3958810" lon="-5.9468060">
        <ele>250.9</ele>
        <time>2018-09-15T13:58:33Z</time>
      </trkpt>
      <trkpt lat="43.3958430" lon="-5.9468280">
        <ele>250.9</ele>
        <time>2018-09-15T13:58:34Z</time>
      </trkpt>
      <trkpt lat="43.3958050" lon="-5.9468610">
        <ele>250.9</ele>
        <time>2018-09-15T13:58:35Z</time>
      </trkpt>
      <trkpt lat="43.3957680" lon="-5.9468830">
        <ele>250.8</ele>
        <time>2018-09-15T13:58:36Z</time>
      </trkpt>
      <trkpt lat="43.3957240" lon="-5.9469090">
        <ele>250.8</ele>
        <time>2018-09-15T13:58:37Z</time>
      </trkpt>
      <trkpt lat="43.3956790" lon="-5.9469330">
        <ele>250.8</ele>
        <time>2018-09-15T13:58:38Z</time>
      </trkpt>
      <trkpt lat="43.3956300" lon="-5.9469540">
        <ele>250.8</ele>
        <time>2018-09-15T13:58:39Z</time>
      </trkpt>
      <trkpt lat="43.3955810" lon="-5.9469780">
        <ele>250.8</ele>
        <time>2018-09-15T13:58:40Z</time>
      </trkpt>
      <trkpt lat="43.3955400" lon="-5.9469980">
        <ele>250.7</ele>
        <time>2018-09-15T13:58:41Z</time>
      </trkpt>
      <trkpt lat="43.3954960" lon="-5.9470000">
        <ele>250.7</ele>
        <time>2018-09-15T13:58:42Z</time>
      </trkpt>
      <trkpt lat="43.3954510" lon="-5.9470170">
        <ele>250.7</ele>
        <time>2018-09-15T13:58:43Z</time>
      </trkpt>
      <trkpt lat="43.3954000" lon="-5.9470410">
        <ele>250.7</ele>
        <time>2018-09-15T13:58:44Z</time>
      </trkpt>
      <trkpt lat="43.3953560" lon="-5.9470510">
        <ele>250.6</ele>
        <time>2018-09-15T13:58:45Z</time>
      </trkpt>
      <trkpt lat="43.3952970" lon="-5.9470560">
        <ele>250.6</ele>
        <time>2018-09-15T13:58:46Z</time>
      </trkpt>
      <trkpt lat="43.3952410" lon="-5.9470580">
        <ele>250.6</ele>
        <time>2018-09-15T13:58:47Z</time>
      </trkpt>
      <trkpt lat="43.3951870" lon="-5.9470570">
        <ele>250.6</ele>
        <time>2018-09-15T13:58:48Z</time>
      </trkpt>
      <trkpt lat="43.3951400" lon="-5.9470680">
        <ele>250.6</ele>
        <time>2018-09-15T13:58:49Z</time>
      </trkpt>
      <trkpt lat="43.3950920" lon="-5.9470780">
        <ele>250.5</ele>
        <time>2018-09-15T13:58:50Z</time>
      </trkpt>
      <trkpt lat="43.3950350" lon="-5.9470920">
        <ele>250.5</ele>
        <time>2018-09-15T13:58:51Z</time>
      </trkpt>
      <trkpt lat="43.3949820" lon="-5.9471130">
        <ele>250.4</ele>
        <time>2018-09-15T13:58:52Z</time>
      </trkpt>
      <trkpt lat="43.3949300" lon="-5.9471250">
        <ele>250.4</ele>
        <time>2018-09-15T13:58:53Z</time>
      </trkpt>
      <trkpt lat="43.3948700" lon="-5.9471370">
        <ele>250.3</ele>
        <time>2018-09-15T13:58:54Z</time>
      </trkpt>
      <trkpt lat="43.3948170" lon="-5.9471510">
        <ele>250.3</ele>
        <time>2018-09-15T13:58:55Z</time>
      </trkpt>
      <trkpt lat="43.3947620" lon="-5.9471760">
        <ele>250.2</ele>
        <time>2018-09-15T13:58:56Z</time>
      </trkpt>
      <trkpt lat="43.3947080" lon="-5.9471980">
        <ele>250.2</ele>
        <time>2018-09-15T13:58:57Z</time>
      </trkpt>
      <trkpt lat="43.3946480" lon="-5.9472060">
        <ele>250.1</ele>
        <time>2018-09-15T13:58:58Z</time>
      </trkpt>
      <trkpt lat="43.3945870" lon="-5.9472170">
        <ele>250.0</ele>
        <time>2018-09-15T13:58:59Z</time>
      </trkpt>
      <trkpt lat="43.3945300" lon="-5.9472210">
        <ele>249.9</ele>
        <time>2018-09-15T13:59:00Z</time>
      </trkpt>
      <trkpt lat="43.3944880" lon="-5.9472230">
        <ele>249.9</ele>
        <time>2018-09-15T13:59:01Z</time>
      </trkpt>
      <trkpt lat="43.3944390" lon="-5.9472350">
        <ele>249.8</ele>
        <time>2018-09-15T13:59:02Z</time>
      </trkpt>
      <trkpt lat="43.3943790" lon="-5.9472510">
        <ele>249.7</ele>
        <time>2018-09-15T13:59:03Z</time>
      </trkpt>
      <trkpt lat="43.3943270" lon="-5.9472600">
        <ele>249.6</ele>
        <time>2018-09-15T13:59:04Z</time>
      </trkpt>
      <trkpt lat="43.3942660" lon="-5.9472710">
        <ele>249.6</ele>
        <time>2018-09-15T13:59:05Z</time>
      </trkpt>
      <trkpt lat="43.3942090" lon="-5.9472820">
        <ele>249.5</ele>
        <time>2018-09-15T13:59:06Z</time>
      </trkpt>
      <trkpt lat="43.3941520" lon="-5.9472930">
        <ele>249.4</ele>
        <time>2018-09-15T13:59:07Z</time>
      </trkpt>
      <trkpt lat="43.3940960" lon="-5.9473220">
        <ele>249.4</ele>
        <time>2018-09-15T13:59:08Z</time>
      </trkpt>
      <trkpt lat="43.3940420" lon="-5.9473490">
        <ele>249.3</ele>
        <time>2018-09-15T13:59:09Z</time>
      </trkpt>
      <trkpt lat="43.3939830" lon="-5.9473690">
        <ele>249.2</ele>
        <time>2018-09-15T13:59:10Z</time>
      </trkpt>
      <trkpt lat="43.3939330" lon="-5.9473840">
        <ele>249.2</ele>
        <time>2018-09-15T13:59:11Z</time>
      </trkpt>
      <trkpt lat="43.3938760" lon="-5.9474010">
        <ele>249.1</ele>
        <time>2018-09-15T13:59:12Z</time>
      </trkpt>
      <trkpt lat="43.3938230" lon="-5.9474230">
        <ele>249.1</ele>
        <time>2018-09-15T13:59:13Z</time>
      </trkpt>
      <trkpt lat="43.3937660" lon="-5.9474460">
        <ele>249.0</ele>
        <time>2018-09-15T13:59:14Z</time>
      </trkpt>
      <trkpt lat="43.3937050" lon="-5.9474730">
        <ele>248.9</ele>
        <time>2018-09-15T13:59:15Z</time>
      </trkpt>
      <trkpt lat="43.3936440" lon="-5.9474900">
        <ele>248.7</ele>
        <time>2018-09-15T13:59:16Z</time>
      </trkpt>
      <trkpt lat="43.3935890" lon="-5.9475240">
        <ele>248.6</ele>
        <time>2018-09-15T13:59:17Z</time>
      </trkpt>
      <trkpt lat="43.3935310" lon="-5.9475550">
        <ele>248.5</ele>
        <time>2018-09-15T13:59:18Z</time>
      </trkpt>
      <trkpt lat="43.3934800" lon="-5.9475920">
        <ele>248.4</ele>
        <time>2018-09-15T13:59:19Z</time>
      </trkpt>
      <trkpt lat="43.3934290" lon="-5.9476270">
        <ele>248.3</ele>
        <time>2018-09-15T13:59:20Z</time>
      </trkpt>
      <trkpt lat="43.3933810" lon="-5.9476620">
        <ele>248.0</ele>
        <time>2018-09-15T13:59:21Z</time>
      </trkpt>
      <trkpt lat="43.3933240" lon="-5.9476980">
        <ele>247.6</ele>
        <time>2018-09-15T13:59:22Z</time>
      </trkpt>
      <trkpt lat="43.3932670" lon="-5.9477280">
        <ele>247.2</ele>
        <time>2018-09-15T13:59:23Z</time>
      </trkpt>
      <trkpt lat="43.3932100" lon="-5.9477660">
        <ele>246.7</ele>
        <time>2018-09-15T13:59:24Z</time>
      </trkpt>
      <trkpt lat="43.3931520" lon="-5.9477990">
        <ele>246.4</ele>
        <time>2018-09-15T13:59:25Z</time>
      </trkpt>
      <trkpt lat="43.3930900" lon="-5.9478350">
        <ele>246.2</ele>
        <time>2018-09-15T13:59:26Z</time>
      </trkpt>
      <trkpt lat="43.3930300" lon="-5.9478710">
        <ele>246.0</ele>
        <time>2018-09-15T13:59:27Z</time>
      </trkpt>
      <trkpt lat="43.3929750" lon="-5.9478990">
        <ele>245.9</ele>
        <time>2018-09-15T13:59:28Z</time>
      </trkpt>
      <trkpt lat="43.3929140" lon="-5.9479260">
        <ele>245.7</ele>
        <time>2018-09-15T13:59:29Z</time>
      </trkpt>
      <trkpt lat="43.3928580" lon="-5.9479560">
        <ele>245.6</ele>
        <time>2018-09-15T13:59:30Z</time>
      </trkpt>
      <trkpt lat="43.3927960" lon="-5.9479830">
        <ele>245.3</ele>
        <time>2018-09-15T13:59:31Z</time>
      </trkpt>
      <trkpt lat="43.3927310" lon="-5.9480120">
        <ele>244.8</ele>
        <time>2018-09-15T13:59:32Z</time>
      </trkpt>
      <trkpt lat="43.3926520" lon="-5.9480410">
        <ele>244.1</ele>
        <time>2018-09-15T13:59:33Z</time>
      </trkpt>
      <trkpt lat="43.3925830" lon="-5.9480690">
        <ele>243.6</ele>
        <time>2018-09-15T13:59:34Z</time>
      </trkpt>
      <trkpt lat="43.3925130" lon="-5.9481030">
        <ele>243.0</ele>
        <time>2018-09-15T13:59:35Z</time>
      </trkpt>
      <trkpt lat="43.3924480" lon="-5.9481440">
        <ele>242.6</ele>
        <time>2018-09-15T13:59:36Z</time>
      </trkpt>
      <trkpt lat="43.3923810" lon="-5.9481830">
        <ele>242.3</ele>
        <time>2018-09-15T13:59:37Z</time>
      </trkpt>
      <trkpt lat="43.3923210" lon="-5.9482240">
        <ele>242.1</ele>
        <time>2018-09-15T13:59:38Z</time>
      </trkpt>
      <trkpt lat="43.3922630" lon="-5.9482620">
        <ele>241.8</ele>
        <time>2018-09-15T13:59:39Z</time>
      </trkpt>
      <trkpt lat="43.3922010" lon="-5.9483020">
        <ele>241.4</ele>
        <time>2018-09-15T13:59:40Z</time>
      </trkpt>
      <trkpt lat="43.3921320" lon="-5.9483300">
        <ele>240.9</ele>
        <time>2018-09-15T13:59:41Z</time>
      </trkpt>
      <trkpt lat="43.3920580" lon="-5.9483530">
        <ele>240.4</ele>
        <time>2018-09-15T13:59:42Z</time>
      </trkpt>
      <trkpt lat="43.3919840" lon="-5.9483720">
        <ele>239.9</ele>
        <time>2018-09-15T13:59:43Z</time>
      </trkpt>
      <trkpt lat="43.3919040" lon="-5.9483890">
        <ele>239.6</ele>
        <time>2018-09-15T13:59:44Z</time>
      </trkpt>
      <trkpt lat="43.3918270" lon="-5.9484010">
        <ele>239.4</ele>
        <time>2018-09-15T13:59:45Z</time>
      </trkpt>
      <trkpt lat="43.3917520" lon="-5.9484040">
        <ele>239.3</ele>
        <time>2018-09-15T13:59:46Z</time>
      </trkpt>
      <trkpt lat="43.3916760" lon="-5.9484040">
        <ele>239.1</ele>
        <time>2018-09-15T13:59:47Z</time>
      </trkpt>
      <trkpt lat="43.3916070" lon="-5.9484090">
        <ele>239.1</ele>
        <time>2018-09-15T13:59:48Z</time>
      </trkpt>
      <trkpt lat="43.3915390" lon="-5.9483950">
        <ele>240.2</ele>
        <time>2018-09-15T13:59:49Z</time>
      </trkpt>
      <trkpt lat="43.3914650" lon="-5.9483910">
        <ele>241.3</ele>
        <time>2018-09-15T13:59:50Z</time>
      </trkpt>
      <trkpt lat="43.3913940" lon="-5.9483850">
        <ele>242.3</ele>
        <time>2018-09-15T13:59:51Z</time>
      </trkpt>
      <trkpt lat="43.3913270" lon="-5.9483740">
        <ele>243.2</ele>
        <time>2018-09-15T13:59:52Z</time>
      </trkpt>
      <trkpt lat="43.3912550" lon="-5.9483580">
        <ele>244.0</ele>
        <time>2018-09-15T13:59:53Z</time>
      </trkpt>
      <trkpt lat="43.3911870" lon="-5.9483450">
        <ele>244.8</ele>
        <time>2018-09-15T13:59:54Z</time>
      </trkpt>
      <trkpt lat="43.3911210" lon="-5.9483240">
        <ele>245.4</ele>
        <time>2018-09-15T13:59:55Z</time>
      </trkpt>
      <trkpt lat="43.3910560" lon="-5.9483000">
        <ele>246.0</ele>
        <time>2018-09-15T13:59:56Z</time>
      </trkpt>
      <trkpt lat="43.3909820" lon="-5.9482730">
        <ele>246.6</ele>
        <time>2018-09-15T13:59:57Z</time>
      </trkpt>
      <trkpt lat="43.3909090" lon="-5.9482450">
        <ele>247.2</ele>
        <time>2018-09-15T13:59:58Z</time>
      </trkpt>
      <trkpt lat="43.3908430" lon="-5.9482190">
        <ele>247.9</ele>
        <time>2018-09-15T13:59:59Z</time>
      </trkpt>
      <trkpt lat="43.3907790" lon="-5.9481790">
        <ele>248.7</ele>
        <time>2018-09-15T14:00:00Z</time>
      </trkpt>
      <trkpt lat="43.3907140" lon="-5.9481430">
        <ele>249.0</ele>
        <time>2018-09-15T14:00:01Z</time>
      </trkpt>
      <trkpt lat="43.3906670" lon="-5.9480820">
        <ele>249.0</ele>
        <time>2018-09-15T14:00:02Z</time>
      </trkpt>
      <trkpt lat="43.3906360" lon="-5.9480090">
        <ele>248.4</ele>
        <time>2018-09-15T14:00:03Z</time>
      </trkpt>
      <trkpt lat="43.3906090" lon="-5.9479350">
        <ele>247.7</ele>
        <time>2018-09-15T14:00:04Z</time>
      </trkpt>
      <trkpt lat="43.3905900" lon="-5.9478510">
        <ele>246.6</ele>
        <time>2018-09-15T14:00:05Z</time>
      </trkpt>
      <trkpt lat="43.3905770" lon="-5.9477680">
        <ele>246.1</ele>
        <time>2018-09-15T14:00:06Z</time>
      </trkpt>
      <trkpt lat="43.3905580" lon="-5.9476710">
        <ele>245.3</ele>
        <time>2018-09-15T14:00:07Z</time>
      </trkpt>
      <trkpt lat="43.3905360" lon="-5.9475720">
        <ele>243.8</ele>
        <time>2018-09-15T14:00:08Z</time>
      </trkpt>
      <trkpt lat="43.3904940" lon="-5.9475010">
        <ele>242.7</ele>
        <time>2018-09-15T14:00:10Z</time>
      </trkpt>
      <trkpt lat="43.3904410" lon="-5.9474260">
        <ele>241.4</ele>
        <time>2018-09-15T14:00:11Z</time>
      </trkpt>
      <trkpt lat="43.3903990" lon="-5.9473220">
        <ele>240.7</ele>
        <time>2018-09-15T14:00:12Z</time>
      </trkpt>
      <trkpt lat="43.3903410" lon="-5.9472280">
        <ele>239.9</ele>
        <time>2018-09-15T14:00:13Z</time>
      </trkpt>
      <trkpt lat="43.3902890" lon="-5.9471400">
        <ele>238.6</ele>
        <time>2018-09-15T14:00:14Z</time>
      </trkpt>
      <trkpt lat="43.3902300" lon="-5.9470270">
        <ele>237.8</ele>
        <time>2018-09-15T14:00:15Z</time>
      </trkpt>
      <trkpt lat="43.3901800" lon="-5.9469190">
        <ele>236.8</ele>
        <time>2018-09-15T14:00:16Z</time>
      </trkpt>
      <trkpt lat="43.3901290" lon="-5.9467980">
        <ele>236.1</ele>
        <time>2018-09-15T14:00:17Z</time>
      </trkpt>
      <trkpt lat="43.3900840" lon="-5.9466960">
        <ele>235.4</ele>
        <time>2018-09-15T14:00:18Z</time>
      </trkpt>
      <trkpt lat="43.3900280" lon="-5.9465930">
        <ele>234.0</ele>
        <time>2018-09-15T14:00:19Z</time>
      </trkpt>
      <trkpt lat="43.3899550" lon="-5.9465110">
        <ele>233.3</ele>
        <time>2018-09-15T14:00:20Z</time>
      </trkpt>
      <trkpt lat="43.3898960" lon="-5.9464300">
        <ele>233.0</ele>
        <time>2018-09-15T14:00:21Z</time>
      </trkpt>
      <trkpt lat="43.3898110" lon="-5.9463620">
        <ele>233.1</ele>
        <time>2018-09-15T14:00:22Z</time>
      </trkpt>
      <trkpt lat="43.3897240" lon="-5.9463230">
        <ele>233.1</ele>
        <time>2018-09-15T14:00:23Z</time>
      </trkpt>
      <trkpt lat="43.3896250" lon="-5.9462990">
        <ele>233.1</ele>
        <time>2018-09-15T14:00:24Z</time>
      </trkpt>
      <trkpt lat="43.3895370" lon="-5.9462950">
        <ele>233.1</ele>
        <time>2018-09-15T14:00:25Z</time>
      </trkpt>
      <trkpt lat="43.3894350" lon="-5.9462780">
        <ele>233.2</ele>
        <time>2018-09-15T14:00:26Z</time>
      </trkpt>
      <trkpt lat="43.3893360" lon="-5.9462630">
        <ele>234.6</ele>
        <time>2018-09-15T14:00:27Z</time>
      </trkpt>
      <trkpt lat="43.3892410" lon="-5.9462460">
        <ele>237.1</ele>
        <time>2018-09-15T14:00:28Z</time>
      </trkpt>
      <trkpt lat="43.3891460" lon="-5.9462030">
        <ele>239.6</ele>
        <time>2018-09-15T14:00:29Z</time>
      </trkpt>
      <trkpt lat="43.3890640" lon="-5.9461570">
        <ele>241.2</ele>
        <time>2018-09-15T14:00:30Z</time>
      </trkpt>
      <trkpt lat="43.3889930" lon="-5.9460700">
        <ele>243.6</ele>
        <time>2018-09-15T14:00:31Z</time>
      </trkpt>
      <trkpt lat="43.3889410" lon="-5.9459670">
        <ele>244.3</ele>
        <time>2018-09-15T14:00:32Z</time>
      </trkpt>
      <trkpt lat="43.3889070" lon="-5.9458430">
        <ele>245.0</ele>
        <time>2018-09-15T14:00:33Z</time>
      </trkpt>
      <trkpt lat="43.3888700" lon="-5.9457080">
        <ele>244.3</ele>
        <time>2018-09-15T14:00:34Z</time>
      </trkpt>
      <trkpt lat="43.3888510" lon="-5.9455480">
        <ele>242.6</ele>
        <time>2018-09-15T14:00:35Z</time>
      </trkpt>
      <trkpt lat="43.3888320" lon="-5.9453980">
        <ele>241.5</ele>
        <time>2018-09-15T14:00:36Z</time>
      </trkpt>
      <trkpt lat="43.3888320" lon="-5.9452490">
        <ele>240.1</ele>
        <time>2018-09-15T14:00:37Z</time>
      </trkpt>
      <trkpt lat="43.3888450" lon="-5.9450970">
        <ele>239.2</ele>
        <time>2018-09-15T14:00:38Z</time>
      </trkpt>
      <trkpt lat="43.3888610" lon="-5.9449440">
        <ele>238.0</ele>
        <time>2018-09-15T14:00:39Z</time>
      </trkpt>
      <trkpt lat="43.3888650" lon="-5.9447860">
        <ele>236.8</ele>
        <time>2018-09-15T14:00:40Z</time>
      </trkpt>
      <trkpt lat="43.3888590" lon="-5.9446360">
        <ele>236.0</ele>
        <time>2018-09-15T14:00:41Z</time>
      </trkpt>
      <trkpt lat="43.3888550" lon="-5.9444830">
        <ele>234.7</ele>
        <time>2018-09-15T14:00:42Z</time>
      </trkpt>
      <trkpt lat="43.3888420" lon="-5.9443390">
        <ele>234.0</ele>
        <time>2018-09-15T14:00:43Z</time>
      </trkpt>
      <trkpt lat="43.3888150" lon="-5.9442010">
        <ele>231.4</ele>
        <time>2018-09-15T14:00:44Z</time>
      </trkpt>
      <trkpt lat="43.3887810" lon="-5.9440790">
        <ele>229.4</ele>
        <time>2018-09-15T14:00:45Z</time>
      </trkpt>
      <trkpt lat="43.3887510" lon="-5.9439480">
        <ele>227.3</ele>
        <time>2018-09-15T14:00:46Z</time>
      </trkpt>
      <trkpt lat="43.3887290" lon="-5.9438080">
        <ele>225.4</ele>
        <time>2018-09-15T14:00:47Z</time>
      </trkpt>
      <trkpt lat="43.3887230" lon="-5.9436630">
        <ele>223.5</ele>
        <time>2018-09-15T14:00:48Z</time>
      </trkpt>
      <trkpt lat="43.3887270" lon="-5.9435150">
        <ele>221.6</ele>
        <time>2018-09-15T14:00:49Z</time>
      </trkpt>
      <trkpt lat="43.3887240" lon="-5.9433680">
        <ele>219.9</ele>
        <time>2018-09-15T14:00:50Z</time>
      </trkpt>
      <trkpt lat="43.3887460" lon="-5.9432160">
        <ele>218.1</ele>
        <time>2018-09-15T14:00:51Z</time>
      </trkpt>
      <trkpt lat="43.3887690" lon="-5.9430670">
        <ele>216.5</ele>
        <time>2018-09-15T14:00:52Z</time>
      </trkpt>
      <trkpt lat="43.3887990" lon="-5.9429190">
        <ele>214.8</ele>
        <time>2018-09-15T14:00:53Z</time>
      </trkpt>
      <trkpt lat="43.3888330" lon="-5.9427750">
        <ele>213.1</ele>
        <time>2018-09-15T14:00:54Z</time>
      </trkpt>
      <trkpt lat="43.3888680" lon="-5.9426350">
        <ele>211.4</ele>
        <time>2018-09-15T14:00:55Z</time>
      </trkpt>
      <trkpt lat="43.3889080" lon="-5.9424980">
        <ele>209.7</ele>
        <time>2018-09-15T14:00:56Z</time>
      </trkpt>
      <trkpt lat="43.3889420" lon="-5.9423490">
        <ele>207.9</ele>
        <time>2018-09-15T14:00:57Z</time>
      </trkpt>
      <trkpt lat="43.3889780" lon="-5.9422150">
        <ele>206.2</ele>
        <time>2018-09-15T14:00:58Z</time>
      </trkpt>
      <trkpt lat="43.3890120" lon="-5.9420820">
        <ele>204.5</ele>
        <time>2018-09-15T14:00:59Z</time>
      </trkpt>
      <trkpt lat="43.3890400" lon="-5.9419460">
        <ele>202.7</ele>
        <time>2018-09-15T14:01:00Z</time>
      </trkpt>
      <trkpt lat="43.3890660" lon="-5.9418100">
        <ele>200.9</ele>
        <time>2018-09-15T14:01:01Z</time>
      </trkpt>
      <trkpt lat="43.3890800" lon="-5.9416730">
        <ele>199.0</ele>
        <time>2018-09-15T14:01:02Z</time>
      </trkpt>
      <trkpt lat="43.3890870" lon="-5.9415440">
        <ele>197.3</ele>
        <time>2018-09-15T14:01:03Z</time>
      </trkpt>
      <trkpt lat="43.3890920" lon="-5.9414290">
        <ele>195.8</ele>
        <time>2018-09-15T14:01:04Z</time>
      </trkpt>
      <trkpt lat="43.3890690" lon="-5.9412370">
        <ele>193.1</ele>
        <time>2018-09-15T14:01:05Z</time>
      </trkpt>
      <trkpt lat="43.3890280" lon="-5.9411290">
        <ele>191.0</ele>
        <time>2018-09-15T14:01:06Z</time>
      </trkpt>
      <trkpt lat="43.3889570" lon="-5.9410330">
        <ele>188.6</ele>
        <time>2018-09-15T14:01:07Z</time>
      </trkpt>
      <trkpt lat="43.3889060" lon="-5.9409410">
        <ele>186.9</ele>
        <time>2018-09-15T14:01:08Z</time>
      </trkpt>
      <trkpt lat="43.3888240" lon="-5.9408660">
        <ele>185.1</ele>
        <time>2018-09-15T14:01:09Z</time>
      </trkpt>
      <trkpt lat="43.3887370" lon="-5.9408210">
        <ele>183.9</ele>
        <time>2018-09-15T14:01:10Z</time>
      </trkpt>
      <trkpt lat="43.3886390" lon="-5.9407930">
        <ele>182.7</ele>
        <time>2018-09-15T14:01:11Z</time>
      </trkpt>
      <trkpt lat="43.3885440" lon="-5.9407730">
        <ele>181.0</ele>
        <time>2018-09-15T14:01:12Z</time>
      </trkpt>
      <trkpt lat="43.3884480" lon="-5.9407710">
        <ele>182.3</ele>
        <time>2018-09-15T14:01:13Z</time>
      </trkpt>
      <trkpt lat="43.3883580" lon="-5.9407790">
        <ele>183.8</ele>
        <time>2018-09-15T14:01:14Z</time>
      </trkpt>
      <trkpt lat="43.3882700" lon="-5.9408320">
        <ele>186.6</ele>
        <time>2018-09-15T14:01:15Z</time>
      </trkpt>
      <trkpt lat="43.3881840" lon="-5.9408820">
        <ele>188.1</ele>
        <time>2018-09-15T14:01:16Z</time>
      </trkpt>
      <trkpt lat="43.3880930" lon="-5.9409390">
        <ele>189.4</ele>
        <time>2018-09-15T14:01:17Z</time>
      </trkpt>
      <trkpt lat="43.3879890" lon="-5.9409900">
        <ele>192.0</ele>
        <time>2018-09-15T14:01:18Z</time>
      </trkpt>
      <trkpt lat="43.3878900" lon="-5.9410180">
        <ele>193.4</ele>
        <time>2018-09-15T14:01:19Z</time>
      </trkpt>
      <trkpt lat="43.3877840" lon="-5.9410110">
        <ele>195.4</ele>
        <time>2018-09-15T14:01:20Z</time>
      </trkpt>
      <trkpt lat="43.3876790" lon="-5.9409710">
        <ele>198.6</ele>
        <time>2018-09-15T14:01:21Z</time>
      </trkpt>
      <trkpt lat="43.3875860" lon="-5.9409090">
        <ele>200.9</ele>
        <time>2018-09-15T14:01:22Z</time>
      </trkpt>
      <trkpt lat="43.3875060" lon="-5.9408150">
        <ele>202.1</ele>
        <time>2018-09-15T14:01:23Z</time>
      </trkpt>
      <trkpt lat="43.3874420" lon="-5.9406960">
        <ele>203.3</ele>
        <time>2018-09-15T14:01:24Z</time>
      </trkpt>
      <trkpt lat="43.3873860" lon="-5.9405680">
        <ele>202.0</ele>
        <time>2018-09-15T14:01:25Z</time>
      </trkpt>
      <trkpt lat="43.3873220" lon="-5.9404440">
        <ele>199.0</ele>
        <time>2018-09-15T14:01:26Z</time>
      </trkpt>
      <trkpt lat="43.3872630" lon="-5.9403140">
        <ele>196.9</ele>
        <time>2018-09-15T14:01:27Z</time>
      </trkpt>
      <trkpt lat="43.3871980" lon="-5.9401860">
        <ele>193.3</ele>
        <time>2018-09-15T14:01:28Z</time>
      </trkpt>
      <trkpt lat="43.3871270" lon="-5.9400610">
        <ele>191.2</ele>
        <time>2018-09-15T14:01:29Z</time>
      </trkpt>
      <trkpt lat="43.3870600" lon="-5.9399350">
        <ele>187.7</ele>
        <time>2018-09-15T14:01:30Z</time>
      </trkpt>
      <trkpt lat="43.3869910" lon="-5.9398080">
        <ele>185.3</ele>
        <time>2018-09-15T14:01:31Z</time>
      </trkpt>
      <trkpt lat="43.3869190" lon="-5.9396840">
        <ele>181.6</ele>
        <time>2018-09-15T14:01:32Z</time>
      </trkpt>
      <trkpt lat="43.3868570" lon="-5.9395670">
        <ele>180.4</ele>
        <time>2018-09-15T14:01:33Z</time>
      </trkpt>
      <trkpt lat="43.3868160" lon="-5.9394470">
        <ele>178.4</ele>
        <time>2018-09-15T14:01:34Z</time>
      </trkpt>
      <trkpt lat="43.3867860" lon="-5.9393280">
        <ele>176.2</ele>
        <time>2018-09-15T14:01:35Z</time>
      </trkpt>
      <trkpt lat="43.3867710" lon="-5.9391870">
        <ele>175.3</ele>
        <time>2018-09-15T14:01:36Z</time>
      </trkpt>
      <trkpt lat="43.3867590" lon="-5.9390450">
        <ele>174.5</ele>
        <time>2018-09-15T14:01:37Z</time>
      </trkpt>
      <trkpt lat="43.3867660" lon="-5.9389000">
        <ele>173.8</ele>
        <time>2018-09-15T14:01:38Z</time>
      </trkpt>
      <trkpt lat="43.3867680" lon="-5.9387570">
        <ele>173.1</ele>
        <time>2018-09-15T14:01:39Z</time>
      </trkpt>
      <trkpt lat="43.3867690" lon="-5.9386200">
        <ele>172.3</ele>
        <time>2018-09-15T14:01:40Z</time>
      </trkpt>
      <trkpt lat="43.3867640" lon="-5.9384860">
        <ele>170.6</ele>
        <time>2018-09-15T14:01:41Z</time>
      </trkpt>
      <trkpt lat="43.3867500" lon="-5.9383540">
        <ele>169.0</ele>
        <time>2018-09-15T14:01:42Z</time>
      </trkpt>
      <trkpt lat="43.3867250" lon="-5.9382280">
        <ele>168.0</ele>
        <time>2018-09-15T14:01:43Z</time>
      </trkpt>
      <trkpt lat="43.3866980" lon="-5.9380950">
        <ele>167.0</ele>
        <time>2018-09-15T14:01:44Z</time>
      </trkpt>
      <trkpt lat="43.3866610" lon="-5.9379710">
        <ele>165.4</ele>
        <time>2018-09-15T14:01:45Z</time>
      </trkpt>
      <trkpt lat="43.3866190" lon="-5.9378440">
        <ele>163.0</ele>
        <time>2018-09-15T14:01:46Z</time>
      </trkpt>
      <trkpt lat="43.3865770" lon="-5.9377220">
        <ele>161.6</ele>
        <time>2018-09-15T14:01:47Z</time>
      </trkpt>
      <trkpt lat="43.3865240" lon="-5.9376020">
        <ele>158.4</ele>
        <time>2018-09-15T14:01:48Z</time>
      </trkpt>
      <trkpt lat="43.3864790" lon="-5.9374750">
        <ele>156.0</ele>
        <time>2018-09-15T14:01:49Z</time>
      </trkpt>
      <trkpt lat="43.3864270" lon="-5.9373510">
        <ele>156.1</ele>
        <time>2018-09-15T14:01:50Z</time>
      </trkpt>
      <trkpt lat="43.3863760" lon="-5.9372250">
        <ele>156.2</ele>
        <time>2018-09-15T14:01:51Z</time>
      </trkpt>
      <trkpt lat="43.3863160" lon="-5.9371040">
        <ele>156.3</ele>
        <time>2018-09-15T14:01:52Z</time>
      </trkpt>
      <trkpt lat="43.3862690" lon="-5.9369770">
        <ele>156.1</ele>
        <time>2018-09-15T14:01:53Z</time>
      </trkpt>
      <trkpt lat="43.3862130" lon="-5.9368540">
        <ele>155.6</ele>
        <time>2018-09-15T14:01:54Z</time>
      </trkpt>
      <trkpt lat="43.3861530" lon="-5.9367300">
        <ele>152.9</ele>
        <time>2018-09-15T14:01:55Z</time>
      </trkpt>
      <trkpt lat="43.3860840" lon="-5.9366040">
        <ele>150.6</ele>
        <time>2018-09-15T14:01:56Z</time>
      </trkpt>
      <trkpt lat="43.3860060" lon="-5.9364830">
        <ele>149.1</ele>
        <time>2018-09-15T14:01:57Z</time>
      </trkpt>
      <trkpt lat="43.3859250" lon="-5.9363550">
        <ele>147.2</ele>
        <time>2018-09-15T14:01:58Z</time>
      </trkpt>
      <trkpt lat="43.3858410" lon="-5.9362290">
        <ele>145.6</ele>
        <time>2018-09-15T14:01:59Z</time>
      </trkpt>
      <trkpt lat="43.3857580" lon="-5.9360890">
        <ele>144.0</ele>
        <time>2018-09-15T14:02:00Z</time>
      </trkpt>
      <trkpt lat="43.3856770" lon="-5.9359540">
        <ele>142.2</ele>
        <time>2018-09-15T14:02:01Z</time>
      </trkpt>
      <trkpt lat="43.3855960" lon="-5.9358150">
        <ele>141.0</ele>
        <time>2018-09-15T14:02:02Z</time>
      </trkpt>
      <trkpt lat="43.3855130" lon="-5.9356850">
        <ele>140.2</ele>
        <time>2018-09-15T14:02:03Z</time>
      </trkpt>
      <trkpt lat="43.3854350" lon="-5.9355460">
        <ele>138.5</ele>
        <time>2018-09-15T14:02:04Z</time>
      </trkpt>
      <trkpt lat="43.3853560" lon="-5.9354100">
        <ele>137.6</ele>
        <time>2018-09-15T14:02:05Z</time>
      </trkpt>
      <trkpt lat="43.3852800" lon="-5.9352740">
        <ele>136.0</ele>
        <time>2018-09-15T14:02:06Z</time>
      </trkpt>
      <trkpt lat="43.3852030" lon="-5.9351420">
        <ele>135.3</ele>
        <time>2018-09-15T14:02:07Z</time>
      </trkpt>
      <trkpt lat="43.3851290" lon="-5.9350070">
        <ele>134.2</ele>
        <time>2018-09-15T14:02:08Z</time>
      </trkpt>
      <trkpt lat="43.3850510" lon="-5.9348800">
        <ele>132.9</ele>
        <time>2018-09-15T14:02:09Z</time>
      </trkpt>
      <trkpt lat="43.3849780" lon="-5.9347450">
        <ele>132.3</ele>
        <time>2018-09-15T14:02:10Z</time>
      </trkpt>
      <trkpt lat="43.3849010" lon="-5.9346110">
        <ele>131.1</ele>
        <time>2018-09-15T14:02:11Z</time>
      </trkpt>
      <trkpt lat="43.3848230" lon="-5.9344830">
        <ele>129.9</ele>
        <time>2018-09-15T14:02:12Z</time>
      </trkpt>
      <trkpt lat="43.3847470" lon="-5.9343510">
        <ele>129.4</ele>
        <time>2018-09-15T14:02:13Z</time>
      </trkpt>
      <trkpt lat="43.3846740" lon="-5.9342210">
        <ele>128.1</ele>
        <time>2018-09-15T14:02:14Z</time>
      </trkpt>
      <trkpt lat="43.3845960" lon="-5.9340930">
        <ele>126.9</ele>
        <time>2018-09-15T14:02:15Z</time>
      </trkpt>
      <trkpt lat="43.3845240" lon="-5.9339560">
        <ele>125.6</ele>
        <time>2018-09-15T14:02:16Z</time>
      </trkpt>
      <trkpt lat="43.3844500" lon="-5.9338160">
        <ele>123.9</ele>
        <time>2018-09-15T14:02:17Z</time>
      </trkpt>
      <trkpt lat="43.3843750" lon="-5.9336850">
        <ele>123.3</ele>
        <time>2018-09-15T14:02:18Z</time>
      </trkpt>
      <trkpt lat="43.3843060" lon="-5.9335450">
        <ele>121.8</ele>
        <time>2018-09-15T14:02:19Z</time>
      </trkpt>
      <trkpt lat="43.3842310" lon="-5.9334120">
        <ele>120.9</ele>
        <time>2018-09-15T14:02:20Z</time>
      </trkpt>
      <trkpt lat="43.3841530" lon="-5.9332800">
        <ele>119.5</ele>
        <time>2018-09-15T14:02:21Z</time>
      </trkpt>
      <trkpt lat="43.3840790" lon="-5.9331470">
        <ele>117.9</ele>
        <time>2018-09-15T14:02:22Z</time>
      </trkpt>
      <trkpt lat="43.3840040" lon="-5.9330130">
        <ele>116.7</ele>
        <time>2018-09-15T14:02:23Z</time>
      </trkpt>
      <trkpt lat="43.3839290" lon="-5.9328770">
        <ele>114.9</ele>
        <time>2018-09-15T14:02:24Z</time>
      </trkpt>
      <trkpt lat="43.3838470" lon="-5.9327310">
        <ele>112.7</ele>
        <time>2018-09-15T14:02:25Z</time>
      </trkpt>
      <trkpt lat="43.3837670" lon="-5.9325920">
        <ele>111.6</ele>
        <time>2018-09-15T14:02:26Z</time>
      </trkpt>
      <trkpt lat="43.3836830" lon="-5.9324500">
        <ele>109.7</ele>
        <time>2018-09-15T14:02:27Z</time>
      </trkpt>
      <trkpt lat="43.3836000" lon="-5.9323050">
        <ele>108.0</ele>
        <time>2018-09-15T14:02:28Z</time>
      </trkpt>
      <trkpt lat="43.3835030" lon="-5.9321760">
        <ele>106.2</ele>
        <time>2018-09-15T14:02:29Z</time>
      </trkpt>
      <trkpt lat="43.3833970" lon="-5.9320600">
        <ele>104.8</ele>
        <time>2018-09-15T14:02:30Z</time>
      </trkpt>
      <trkpt lat="43.3832900" lon="-5.9319500">
        <ele>103.5</ele>
        <time>2018-09-15T14:02:31Z</time>
      </trkpt>
      <trkpt lat="43.3831770" lon="-5.9318600">
        <ele>102.6</ele>
        <time>2018-09-15T14:02:32Z</time>
      </trkpt>
      <trkpt lat="43.3830660" lon="-5.9317810">
        <ele>102.0</ele>
        <time>2018-09-15T14:02:33Z</time>
      </trkpt>
      <trkpt lat="43.3829510" lon="-5.9317110">
        <ele>101.4</ele>
        <time>2018-09-15T14:02:34Z</time>
      </trkpt>
      <trkpt lat="43.3828400" lon="-5.9316520">
        <ele>101.0</ele>
        <time>2018-09-15T14:02:35Z</time>
      </trkpt>
      <trkpt lat="43.3827290" lon="-5.9316030">
        <ele>101.0</ele>
        <time>2018-09-15T14:02:36Z</time>
      </trkpt>
      <trkpt lat="43.3826240" lon="-5.9315480">
        <ele>100.9</ele>
        <time>2018-09-15T14:02:37Z</time>
      </trkpt>
      <trkpt lat="43.3825250" lon="-5.9315050">
        <ele>100.8</ele>
        <time>2018-09-15T14:02:38Z</time>
      </trkpt>
      <trkpt lat="43.3824320" lon="-5.9314620">
        <ele>100.7</ele>
        <time>2018-09-15T14:02:39Z</time>
      </trkpt>
      <trkpt lat="43.3823410" lon="-5.9314290">
        <ele>100.7</ele>
        <time>2018-09-15T14:02:40Z</time>
      </trkpt>
      <trkpt lat="43.3822550" lon="-5.9313860">
        <ele>100.7</ele>
        <time>2018-09-15T14:02:41Z</time>
      </trkpt>
      <trkpt lat="43.3821750" lon="-5.9313480">
        <ele>100.8</ele>
        <time>2018-09-15T14:02:42Z</time>
      </trkpt>
      <trkpt lat="43.3820950" lon="-5.9313140">
        <ele>100.8</ele>
        <time>2018-09-15T14:02:43Z</time>
      </trkpt>
      <trkpt lat="43.3820200" lon="-5.9312840">
        <ele>100.9</ele>
        <time>2018-09-15T14:02:44Z</time>
      </trkpt>
      <trkpt lat="43.3819430" lon="-5.9312470">
        <ele>101.1</ele>
        <time>2018-09-15T14:02:45Z</time>
      </trkpt>
      <trkpt lat="43.3818790" lon="-5.9312090">
        <ele>101.7</ele>
        <time>2018-09-15T14:02:46Z</time>
      </trkpt>
      <trkpt lat="43.3818120" lon="-5.9311720">
        <ele>102.4</ele>
        <time>2018-09-15T14:02:47Z</time>
      </trkpt>
      <trkpt lat="43.3817480" lon="-5.9311390">
        <ele>103.0</ele>
        <time>2018-09-15T14:02:48Z</time>
      </trkpt>
      <trkpt lat="43.3816830" lon="-5.9311050">
        <ele>103.4</ele>
        <time>2018-09-15T14:02:49Z</time>
      </trkpt>
      <trkpt lat="43.3816250" lon="-5.9310600">
        <ele>103.9</ele>
        <time>2018-09-15T14:02:50Z</time>
      </trkpt>
      <trkpt lat="43.3815730" lon="-5.9310080">
        <ele>104.3</ele>
        <time>2018-09-15T14:02:51Z</time>
      </trkpt>
      <trkpt lat="43.3815260" lon="-5.9309400">
        <ele>104.7</ele>
        <time>2018-09-15T14:02:52Z</time>
      </trkpt>
      <trkpt lat="43.3814770" lon="-5.9308740">
        <ele>105.1</ele>
        <time>2018-09-15T14:02:53Z</time>
      </trkpt>
      <trkpt lat="43.3814360" lon="-5.9308070">
        <ele>105.6</ele>
        <time>2018-09-15T14:02:54Z</time>
      </trkpt>
      <trkpt lat="43.3814010" lon="-5.9307440">
        <ele>106.0</ele>
        <time>2018-09-15T14:02:55Z</time>
      </trkpt>
      <trkpt lat="43.3813690" lon="-5.9306800">
        <ele>106.4</ele>
        <time>2018-09-15T14:02:56Z</time>
      </trkpt>
      <trkpt lat="43.3813430" lon="-5.9306070">
        <ele>106.9</ele>
        <time>2018-09-15T14:02:57Z</time>
      </trkpt>
      <trkpt lat="43.3813250" lon="-5.9305440">
        <ele>107.4</ele>
        <time>2018-09-15T14:02:58Z</time>
      </trkpt>
      <trkpt lat="43.3813050" lon="-5.9304740">
        <ele>107.9</ele>
        <time>2018-09-15T14:02:59Z</time>
      </trkpt>
      <trkpt lat="43.3812860" lon="-5.9304040">
        <ele>108.4</ele>
        <time>2018-09-15T14:03:00Z</time>
      </trkpt>
      <trkpt lat="43.3812770" lon="-5.9303300">
        <ele>109.0</ele>
        <time>2018-09-15T14:03:01Z</time>
      </trkpt>
      <trkpt lat="43.3812710" lon="-5.9302620">
        <ele>109.5</ele>
        <time>2018-09-15T14:03:02Z</time>
      </trkpt>
      <trkpt lat="43.3812640" lon="-5.9301910">
        <ele>109.9</ele>
        <time>2018-09-15T14:03:03Z</time>
      </trkpt>
      <trkpt lat="43.3812630" lon="-5.9301270">
        <ele>110.2</ele>
        <time>2018-09-15T14:03:04Z</time>
      </trkpt>
      <trkpt lat="43.3812670" lon="-5.9300680">
        <ele>110.6</ele>
        <time>2018-09-15T14:03:05Z</time>
      </trkpt>
      <trkpt lat="43.3812710" lon="-5.9300060">
        <ele>110.9</ele>
        <time>2018-09-15T14:03:06Z</time>
      </trkpt>
      <trkpt lat="43.3812800" lon="-5.9299470">
        <ele>111.3</ele>
        <time>2018-09-15T14:03:07Z</time>
      </trkpt>
      <trkpt lat="43.3812910" lon="-5.9298890">
        <ele>111.6</ele>
        <time>2018-09-15T14:03:08Z</time>
      </trkpt>
      <trkpt lat="43.3813110" lon="-5.9298320">
        <ele>111.9</ele>
        <time>2018-09-15T14:03:09Z</time>
      </trkpt>
      <trkpt lat="43.3813350" lon="-5.9297660">
        <ele>112.2</ele>
        <time>2018-09-15T14:03:10Z</time>
      </trkpt>
      <trkpt lat="43.3813520" lon="-5.9297090">
        <ele>112.5</ele>
        <time>2018-09-15T14:03:11Z</time>
      </trkpt>
      <trkpt lat="43.3813680" lon="-5.9296510">
        <ele>112.8</ele>
        <time>2018-09-15T14:03:12Z</time>
      </trkpt>
      <trkpt lat="43.3814010" lon="-5.9295350">
        <ele>114.0</ele>
        <time>2018-09-15T14:03:13Z</time>
      </trkpt>
      <trkpt lat="43.3814220" lon="-5.9294510">
        <ele>114.0</ele>
        <time>2018-09-15T14:03:14Z</time>
      </trkpt>
      <trkpt lat="43.3814380" lon="-5.9293610">
        <ele>114.0</ele>
        <time>2018-09-15T14:03:15Z</time>
      </trkpt>
      <trkpt lat="43.3814450" lon="-5.9292650">
        <ele>113.3</ele>
        <time>2018-09-15T14:03:16Z</time>
      </trkpt>
      <trkpt lat="43.3814440" lon="-5.9291630">
        <ele>112.5</ele>
        <time>2018-09-15T14:03:17Z</time>
      </trkpt>
      <trkpt lat="43.3814300" lon="-5.9290600">
        <ele>111.8</ele>
        <time>2018-09-15T14:03:18Z</time>
      </trkpt>
      <trkpt lat="43.3813940" lon="-5.9289650">
        <ele>111.6</ele>
        <time>2018-09-15T14:03:19Z</time>
      </trkpt>
      <trkpt lat="43.3813480" lon="-5.9288840">
        <ele>111.5</ele>
        <time>2018-09-15T14:03:20Z</time>
      </trkpt>
      <trkpt lat="43.3812960" lon="-5.9288070">
        <ele>111.3</ele>
        <time>2018-09-15T14:03:21Z</time>
      </trkpt>
      <trkpt lat="43.3812360" lon="-5.9287450">
        <ele>111.1</ele>
        <time>2018-09-15T14:03:22Z</time>
      </trkpt>
      <trkpt lat="43.3811730" lon="-5.9286860">
        <ele>110.8</ele>
        <time>2018-09-15T14:03:23Z</time>
      </trkpt>
      <trkpt lat="43.3811090" lon="-5.9286390">
        <ele>110.6</ele>
        <time>2018-09-15T14:03:24Z</time>
      </trkpt>
      <trkpt lat="43.3810470" lon="-5.9285840">
        <ele>110.5</ele>
        <time>2018-09-15T14:03:25Z</time>
      </trkpt>
      <trkpt lat="43.3809840" lon="-5.9285370">
        <ele>110.3</ele>
        <time>2018-09-15T14:03:26Z</time>
      </trkpt>
      <trkpt lat="43.3809270" lon="-5.9284900">
        <ele>110.2</ele>
        <time>2018-09-15T14:03:27Z</time>
      </trkpt>
      <trkpt lat="43.3808710" lon="-5.9284420">
        <ele>109.9</ele>
        <time>2018-09-15T14:03:28Z</time>
      </trkpt>
      <trkpt lat="43.3808260" lon="-5.9283770">
        <ele>109.8</ele>
        <time>2018-09-15T14:03:29Z</time>
      </trkpt>
      <trkpt lat="43.3807810" lon="-5.9283090">
        <ele>109.7</ele>
        <time>2018-09-15T14:03:30Z</time>
      </trkpt>
      <trkpt lat="43.3807370" lon="-5.9282440">
        <ele>109.5</ele>
        <time>2018-09-15T14:03:31Z</time>
      </trkpt>
      <trkpt lat="43.3807040" lon="-5.9281650">
        <ele>109.4</ele>
        <time>2018-09-15T14:03:32Z</time>
      </trkpt>
      <trkpt lat="43.3806730" lon="-5.9280730">
        <ele>109.3</ele>
        <time>2018-09-15T14:03:33Z</time>
      </trkpt>
      <trkpt lat="43.3806450" lon="-5.9279850">
        <ele>109.2</ele>
        <time>2018-09-15T14:03:34Z</time>
      </trkpt>
      <trkpt lat="43.3806200" lon="-5.9278940">
        <ele>109.1</ele>
        <time>2018-09-15T14:03:35Z</time>
      </trkpt>
      <trkpt lat="43.3806020" lon="-5.9277980">
        <ele>109.0</ele>
        <time>2018-09-15T14:03:36Z</time>
      </trkpt>
      <trkpt lat="43.3805840" lon="-5.9277090">
        <ele>109.0</ele>
        <time>2018-09-15T14:03:37Z</time>
      </trkpt>
      <trkpt lat="43.3805570" lon="-5.9276140">
        <ele>108.9</ele>
        <time>2018-09-15T14:03:38Z</time>
      </trkpt>
      <trkpt lat="43.3805330" lon="-5.9275190">
        <ele>108.8</ele>
        <time>2018-09-15T14:03:39Z</time>
      </trkpt>
      <trkpt lat="43.3805020" lon="-5.9274260">
        <ele>108.7</ele>
        <time>2018-09-15T14:03:40Z</time>
      </trkpt>
      <trkpt lat="43.3804710" lon="-5.9273330">
        <ele>108.6</ele>
        <time>2018-09-15T14:03:41Z</time>
      </trkpt>
      <trkpt lat="43.3804390" lon="-5.9272480">
        <ele>108.5</ele>
        <time>2018-09-15T14:03:42Z</time>
      </trkpt>
      <trkpt lat="43.3803970" lon="-5.9271710">
        <ele>108.4</ele>
        <time>2018-09-15T14:03:43Z</time>
      </trkpt>
      <trkpt lat="43.3803580" lon="-5.9270900">
        <ele>108.3</ele>
        <time>2018-09-15T14:03:44Z</time>
      </trkpt>
      <trkpt lat="43.3803120" lon="-5.9270170">
        <ele>108.2</ele>
        <time>2018-09-15T14:03:45Z</time>
      </trkpt>
      <trkpt lat="43.3802650" lon="-5.9269480">
        <ele>108.2</ele>
        <time>2018-09-15T14:03:46Z</time>
      </trkpt>
      <trkpt lat="43.3802130" lon="-5.9268840">
        <ele>108.1</ele>
        <time>2018-09-15T14:03:47Z</time>
      </trkpt>
      <trkpt lat="43.3801590" lon="-5.9268260">
        <ele>108.0</ele>
        <time>2018-09-15T14:03:48Z</time>
      </trkpt>
      <trkpt lat="43.3801060" lon="-5.9267730">
        <ele>107.9</ele>
        <time>2018-09-15T14:03:49Z</time>
      </trkpt>
      <trkpt lat="43.3800530" lon="-5.9267190">
        <ele>107.8</ele>
        <time>2018-09-15T14:03:50Z</time>
      </trkpt>
      <trkpt lat="43.3799950" lon="-5.9266760">
        <ele>107.7</ele>
        <time>2018-09-15T14:03:51Z</time>
      </trkpt>
      <trkpt lat="43.3799380" lon="-5.9266350">
        <ele>107.6</ele>
        <time>2018-09-15T14:03:52Z</time>
      </trkpt>
      <trkpt lat="43.3798820" lon="-5.9265900">
        <ele>107.5</ele>
        <time>2018-09-15T14:03:53Z</time>
      </trkpt>
      <trkpt lat="43.3798300" lon="-5.9265480">
        <ele>107.3</ele>
        <time>2018-09-15T14:03:54Z</time>
      </trkpt>
      <trkpt lat="43.3797720" lon="-5.9265060">
        <ele>107.2</ele>
        <time>2018-09-15T14:03:55Z</time>
      </trkpt>
      <trkpt lat="43.3797110" lon="-5.9264670">
        <ele>107.0</ele>
        <time>2018-09-15T14:03:56Z</time>
      </trkpt>
      <trkpt lat="43.3796510" lon="-5.9264370">
        <ele>106.8</ele>
        <time>2018-09-15T14:03:57Z</time>
      </trkpt>
      <trkpt lat="43.3795900" lon="-5.9264010">
        <ele>106.6</ele>
        <time>2018-09-15T14:03:58Z</time>
      </trkpt>
      <trkpt lat="43.3795260" lon="-5.9263720">
        <ele>106.3</ele>
        <time>2018-09-15T14:03:59Z</time>
      </trkpt>
      <trkpt lat="43.3794600" lon="-5.9263520">
        <ele>106.0</ele>
        <time>2018-09-15T14:04:00Z</time>
      </trkpt>
      <trkpt lat="43.3793980" lon="-5.9263330">
        <ele>106.0</ele>
        <time>2018-09-15T14:04:01Z</time>
      </trkpt>
      <trkpt lat="43.3793320" lon="-5.9263260">
        <ele>106.0</ele>
        <time>2018-09-15T14:04:02Z</time>
      </trkpt>
      <trkpt lat="43.3792690" lon="-5.9263150">
        <ele>106.0</ele>
        <time>2018-09-15T14:04:03Z</time>
      </trkpt>
      <trkpt lat="43.3792030" lon="-5.9263230">
        <ele>106.0</ele>
        <time>2018-09-15T14:04:04Z</time>
      </trkpt>
      <trkpt lat="43.3791390" lon="-5.9263360">
        <ele>106.0</ele>
        <time>2018-09-15T14:04:05Z</time>
      </trkpt>
      <trkpt lat="43.3790770" lon="-5.9263520">
        <ele>105.9</ele>
        <time>2018-09-15T14:04:06Z</time>
      </trkpt>
      <trkpt lat="43.3790140" lon="-5.9263590">
        <ele>105.8</ele>
        <time>2018-09-15T14:04:07Z</time>
      </trkpt>
      <trkpt lat="43.3789530" lon="-5.9263640">
        <ele>105.7</ele>
        <time>2018-09-15T14:04:08Z</time>
      </trkpt>
      <trkpt lat="43.3788900" lon="-5.9263660">
        <ele>105.6</ele>
        <time>2018-09-15T14:04:09Z</time>
      </trkpt>
      <trkpt lat="43.3788300" lon="-5.9263710">
        <ele>105.6</ele>
        <time>2018-09-15T14:04:10Z</time>
      </trkpt>
      <trkpt lat="43.3787720" lon="-5.9263750">
        <ele>105.5</ele>
        <time>2018-09-15T14:04:11Z</time>
      </trkpt>
      <trkpt lat="43.3787120" lon="-5.9263780">
        <ele>105.4</ele>
        <time>2018-09-15T14:04:12Z</time>
      </trkpt>
      <trkpt lat="43.3786530" lon="-5.9263850">
        <ele>105.4</ele>
        <time>2018-09-15T14:04:13Z</time>
      </trkpt>
      <trkpt lat="43.3785980" lon="-5.9263960">
        <ele>105.3</ele>
        <time>2018-09-15T14:04:14Z</time>
      </trkpt>
      <trkpt lat="43.3785420" lon="-5.9263970">
        <ele>105.2</ele>
        <time>2018-09-15T14:04:15Z</time>
      </trkpt>
      <trkpt lat="43.3784850" lon="-5.9264000">
        <ele>105.2</ele>
        <time>2018-09-15T14:04:16Z</time>
      </trkpt>
      <trkpt lat="43.3784280" lon="-5.9264060">
        <ele>105.1</ele>
        <time>2018-09-15T14:04:17Z</time>
      </trkpt>
      <trkpt lat="43.3783690" lon="-5.9264150">
        <ele>105.0</ele>
        <time>2018-09-15T14:04:18Z</time>
      </trkpt>
      <trkpt lat="43.3783120" lon="-5.9264190">
        <ele>105.0</ele>
        <time>2018-09-15T14:04:19Z</time>
      </trkpt>
      <trkpt lat="43.3782570" lon="-5.9264230">
        <ele>105.0</ele>
        <time>2018-09-15T14:04:20Z</time>
      </trkpt>
      <trkpt lat="43.3782000" lon="-5.9264320">
        <ele>105.0</ele>
        <time>2018-09-15T14:04:21Z</time>
      </trkpt>
      <trkpt lat="43.3781420" lon="-5.9264410">
        <ele>104.9</ele>
        <time>2018-09-15T14:04:22Z</time>
      </trkpt>
      <trkpt lat="43.3780860" lon="-5.9264450">
        <ele>104.9</ele>
        <time>2018-09-15T14:04:23Z</time>
      </trkpt>
      <trkpt lat="43.3780330" lon="-5.9264470">
        <ele>104.9</ele>
        <time>2018-09-15T14:04:24Z</time>
      </trkpt>
      <trkpt lat="43.3779790" lon="-5.9264540">
        <ele>104.8</ele>
        <time>2018-09-15T14:04:26Z</time>
      </trkpt>
      <trkpt lat="43.3778610" lon="-5.9264670">
        <ele>104.3</ele>
        <time>2018-09-15T14:04:27Z</time>
      </trkpt>
      <trkpt lat="43.3777980" lon="-5.9264690">
        <ele>104.0</ele>
        <time>2018-09-15T14:04:28Z</time>
      </trkpt>
      <trkpt lat="43.3777380" lon="-5.9264770">
        <ele>103.9</ele>
        <time>2018-09-15T14:04:29Z</time>
      </trkpt>
      <trkpt lat="43.3776770" lon="-5.9264790">
        <ele>103.8</ele>
        <time>2018-09-15T14:04:30Z</time>
      </trkpt>
      <trkpt lat="43.3776150" lon="-5.9264800">
        <ele>103.8</ele>
        <time>2018-09-15T14:04:31Z</time>
      </trkpt>
      <trkpt lat="43.3775520" lon="-5.9264840">
        <ele>103.7</ele>
        <time>2018-09-15T14:04:32Z</time>
      </trkpt>
      <trkpt lat="43.3774920" lon="-5.9264910">
        <ele>103.7</ele>
        <time>2018-09-15T14:04:33Z</time>
      </trkpt>
      <trkpt lat="43.3774290" lon="-5.9265010">
        <ele>103.6</ele>
        <time>2018-09-15T14:04:34Z</time>
      </trkpt>
      <trkpt lat="43.3773660" lon="-5.9265090">
        <ele>103.6</ele>
        <time>2018-09-15T14:04:35Z</time>
      </trkpt>
      <trkpt lat="43.3773020" lon="-5.9265160">
        <ele>103.5</ele>
        <time>2018-09-15T14:04:36Z</time>
      </trkpt>
      <trkpt lat="43.3772380" lon="-5.9265280">
        <ele>103.5</ele>
        <time>2018-09-15T14:04:37Z</time>
      </trkpt>
      <trkpt lat="43.3771710" lon="-5.9265350">
        <ele>103.3</ele>
        <time>2018-09-15T14:04:38Z</time>
      </trkpt>
      <trkpt lat="43.3771070" lon="-5.9265430">
        <ele>103.1</ele>
        <time>2018-09-15T14:04:39Z</time>
      </trkpt>
      <trkpt lat="43.3770460" lon="-5.9265530">
        <ele>102.7</ele>
        <time>2018-09-15T14:04:40Z</time>
      </trkpt>
      <trkpt lat="43.3769820" lon="-5.9265560">
        <ele>102.4</ele>
        <time>2018-09-15T14:04:41Z</time>
      </trkpt>
      <trkpt lat="43.3769210" lon="-5.9265620">
        <ele>102.2</ele>
        <time>2018-09-15T14:04:42Z</time>
      </trkpt>
      <trkpt lat="43.3768580" lon="-5.9265700">
        <ele>102.0</ele>
        <time>2018-09-15T14:04:43Z</time>
      </trkpt>
      <trkpt lat="43.3767940" lon="-5.9265750">
        <ele>101.8</ele>
        <time>2018-09-15T14:04:44Z</time>
      </trkpt>
      <trkpt lat="43.3767280" lon="-5.9265780">
        <ele>101.6</ele>
        <time>2018-09-15T14:04:45Z</time>
      </trkpt>
      <trkpt lat="43.3766590" lon="-5.9265780">
        <ele>101.0</ele>
        <time>2018-09-15T14:04:46Z</time>
      </trkpt>
      <trkpt lat="43.3765910" lon="-5.9265610">
        <ele>100.6</ele>
        <time>2018-09-15T14:04:47Z</time>
      </trkpt>
      <trkpt lat="43.3765190" lon="-5.9265470">
        <ele>100.2</ele>
        <time>2018-09-15T14:04:48Z</time>
      </trkpt>
      <trkpt lat="43.3764440" lon="-5.9265270">
        <ele>99.6</ele>
        <time>2018-09-15T14:04:49Z</time>
      </trkpt>
      <trkpt lat="43.3763650" lon="-5.9265060">
        <ele>99.3</ele>
        <time>2018-09-15T14:04:50Z</time>
      </trkpt>
      <trkpt lat="43.3762840" lon="-5.9264760">
        <ele>99.2</ele>
        <time>2018-09-15T14:04:51Z</time>
      </trkpt>
      <trkpt lat="43.3762020" lon="-5.9264450">
        <ele>99.0</ele>
        <time>2018-09-15T14:04:52Z</time>
      </trkpt>
      <trkpt lat="43.3761180" lon="-5.9264130">
        <ele>99.0</ele>
        <time>2018-09-15T14:04:53Z</time>
      </trkpt>
      <trkpt lat="43.3760350" lon="-5.9263790">
        <ele>98.9</ele>
        <time>2018-09-15T14:04:54Z</time>
      </trkpt>
      <trkpt lat="43.3759460" lon="-5.9263440">
        <ele>98.8</ele>
        <time>2018-09-15T14:04:55Z</time>
      </trkpt>
      <trkpt lat="43.3758620" lon="-5.9263100">
        <ele>98.8</ele>
        <time>2018-09-15T14:04:56Z</time>
      </trkpt>
      <trkpt lat="43.3757800" lon="-5.9262770">
        <ele>98.8</ele>
        <time>2018-09-15T14:04:57Z</time>
      </trkpt>
      <trkpt lat="43.3756970" lon="-5.9262480">
        <ele>98.8</ele>
        <time>2018-09-15T14:04:58Z</time>
      </trkpt>
      <trkpt lat="43.3756160" lon="-5.9262220">
        <ele>98.8</ele>
        <time>2018-09-15T14:04:59Z</time>
      </trkpt>
      <trkpt lat="43.3755330" lon="-5.9261960">
        <ele>98.8</ele>
        <time>2018-09-15T14:05:00Z</time>
      </trkpt>
      <trkpt lat="43.3754510" lon="-5.9261740">
        <ele>98.9</ele>
        <time>2018-09-15T14:05:01Z</time>
      </trkpt>
      <trkpt lat="43.3753670" lon="-5.9261480">
        <ele>98.9</ele>
        <time>2018-09-15T14:05:02Z</time>
      </trkpt>
      <trkpt lat="43.3752840" lon="-5.9261220">
        <ele>98.9</ele>
        <time>2018-09-15T14:05:03Z</time>
      </trkpt>
      <trkpt lat="43.3752010" lon="-5.9260980">
        <ele>98.9</ele>
        <time>2018-09-15T14:05:04Z</time>
      </trkpt>
      <trkpt lat="43.3751240" lon="-5.9260900">
        <ele>98.9</ele>
        <time>2018-09-15T14:05:05Z</time>
      </trkpt>
      <trkpt lat="43.3750450" lon="-5.9260810">
        <ele>99.0</ele>
        <time>2018-09-15T14:05:06Z</time>
      </trkpt>
      <trkpt lat="43.3749540" lon="-5.9260450">
        <ele>99.0</ele>
        <time>2018-09-15T14:05:07Z</time>
      </trkpt>
      <trkpt lat="43.3748710" lon="-5.9260150">
        <ele>99.0</ele>
        <time>2018-09-15T14:05:08Z</time>
      </trkpt>
      <trkpt lat="43.3747900" lon="-5.9259780">
        <ele>99.2</ele>
        <time>2018-09-15T14:05:09Z</time>
      </trkpt>
      <trkpt lat="43.3747150" lon="-5.9259290">
        <ele>99.5</ele>
        <time>2018-09-15T14:05:10Z</time>
      </trkpt>
      <trkpt lat="43.3746480" lon="-5.9258760">
        <ele>99.7</ele>
        <time>2018-09-15T14:05:11Z</time>
      </trkpt>
      <trkpt lat="43.3745770" lon="-5.9258180">
        <ele>99.9</ele>
        <time>2018-09-15T14:05:12Z</time>
      </trkpt>
      <trkpt lat="43.3745160" lon="-5.9257560">
        <ele>100.0</ele>
        <time>2018-09-15T14:05:13Z</time>
      </trkpt>
      <trkpt lat="43.3744560" lon="-5.9256830">
        <ele>100.3</ele>
        <time>2018-09-15T14:05:14Z</time>
      </trkpt>
      <trkpt lat="43.3743980" lon="-5.9256010">
        <ele>100.6</ele>
        <time>2018-09-15T14:05:15Z</time>
      </trkpt>
      <trkpt lat="43.3743500" lon="-5.9255180">
        <ele>100.9</ele>
        <time>2018-09-15T14:05:16Z</time>
      </trkpt>
      <trkpt lat="43.3743030" lon="-5.9254280">
        <ele>101.2</ele>
        <time>2018-09-15T14:05:17Z</time>
      </trkpt>
      <trkpt lat="43.3742620" lon="-5.9253340">
        <ele>101.5</ele>
        <time>2018-09-15T14:05:18Z</time>
      </trkpt>
      <trkpt lat="43.3742290" lon="-5.9252370">
        <ele>102.0</ele>
        <time>2018-09-15T14:05:19Z</time>
      </trkpt>
      <trkpt lat="43.3742010" lon="-5.9251350">
        <ele>102.0</ele>
        <time>2018-09-15T14:05:20Z</time>
      </trkpt>
      <trkpt lat="43.3741820" lon="-5.9250390">
        <ele>102.0</ele>
        <time>2018-09-15T14:05:21Z</time>
      </trkpt>
      <trkpt lat="43.3741660" lon="-5.9249450">
        <ele>101.9</ele>
        <time>2018-09-15T14:05:22Z</time>
      </trkpt>
      <trkpt lat="43.3741500" lon="-5.9248470">
        <ele>101.9</ele>
        <time>2018-09-15T14:05:23Z</time>
      </trkpt>
      <trkpt lat="43.3741360" lon="-5.9247480">
        <ele>101.9</ele>
        <time>2018-09-15T14:05:24Z</time>
      </trkpt>
      <trkpt lat="43.3741200" lon="-5.9246500">
        <ele>101.9</ele>
        <time>2018-09-15T14:05:25Z</time>
      </trkpt>
      <trkpt lat="43.3741100" lon="-5.9245540">
        <ele>101.9</ele>
        <time>2018-09-15T14:05:26Z</time>
      </trkpt>
      <trkpt lat="43.3740960" lon="-5.9244610">
        <ele>101.9</ele>
        <time>2018-09-15T14:05:27Z</time>
      </trkpt>
      <trkpt lat="43.3740830" lon="-5.9243670">
        <ele>101.9</ele>
        <time>2018-09-15T14:05:28Z</time>
      </trkpt>
      <trkpt lat="43.3740730" lon="-5.9242750">
        <ele>102.0</ele>
        <time>2018-09-15T14:05:29Z</time>
      </trkpt>
      <trkpt lat="43.3740630" lon="-5.9241840">
        <ele>102.1</ele>
        <time>2018-09-15T14:05:30Z</time>
      </trkpt>
      <trkpt lat="43.3740510" lon="-5.9240980">
        <ele>102.2</ele>
        <time>2018-09-15T14:05:31Z</time>
      </trkpt>
      <trkpt lat="43.3740400" lon="-5.9240110">
        <ele>102.4</ele>
        <time>2018-09-15T14:05:32Z</time>
      </trkpt>
      <trkpt lat="43.3740300" lon="-5.9239290">
        <ele>102.6</ele>
        <time>2018-09-15T14:05:33Z</time>
      </trkpt>
      <trkpt lat="43.3740170" lon="-5.9238450">
        <ele>102.7</ele>
        <time>2018-09-15T14:05:34Z</time>
      </trkpt>
      <trkpt lat="43.3740050" lon="-5.9237690">
        <ele>102.9</ele>
        <time>2018-09-15T14:05:35Z</time>
      </trkpt>
      <trkpt lat="43.3739950" lon="-5.9236980">
        <ele>103.0</ele>
        <time>2018-09-15T14:05:36Z</time>
      </trkpt>
      <trkpt lat="43.3739840" lon="-5.9236320">
        <ele>103.1</ele>
        <time>2018-09-15T14:05:37Z</time>
      </trkpt>
      <trkpt lat="43.3739710" lon="-5.9235700">
        <ele>103.1</ele>
        <time>2018-09-15T14:05:38Z</time>
      </trkpt>
      <trkpt lat="43.3739660" lon="-5.9235100">
        <ele>103.2</ele>
        <time>2018-09-15T14:05:39Z</time>
      </trkpt>
      <trkpt lat="43.3739610" lon="-5.9234520">
        <ele>103.3</ele>
        <time>2018-09-15T14:05:40Z</time>
      </trkpt>
      <trkpt lat="43.3739570" lon="-5.9233960">
        <ele>103.4</ele>
        <time>2018-09-15T14:05:41Z</time>
      </trkpt>
      <trkpt lat="43.3739470" lon="-5.9233700">
        <ele>103.5</ele>
        <time>2018-09-15T14:05:42Z</time>
      </trkpt>
      <trkpt lat="43.3739320" lon="-5.9233470">
        <ele>103.6</ele>
        <time>2018-09-15T14:05:43Z</time>
      </trkpt>
      <trkpt lat="43.3739160" lon="-5.9233370">
        <ele>103.6</ele>
        <time>2018-09-15T14:05:44Z</time>
      </trkpt>
      <trkpt lat="43.3739140" lon="-5.9233530">
        <ele>103.6</ele>
        <time>2018-09-15T14:05:45Z</time>
      </trkpt>
      <trkpt lat="43.3739170" lon="-5.9233670">
        <ele>103.5</ele>
        <time>2018-09-15T14:05:46Z</time>
      </trkpt>
      <trkpt lat="43.3739150" lon="-5.9233860">
        <ele>103.5</ele>
        <time>2018-09-15T14:05:47Z</time>
      </trkpt>
      <trkpt lat="43.3739150" lon="-5.9234090">
        <ele>103.4</ele>
        <time>2018-09-15T14:05:48Z</time>
      </trkpt>
      <trkpt lat="43.3739200" lon="-5.9234380">
        <ele>103.4</ele>
        <time>2018-09-15T14:05:49Z</time>
      </trkpt>
      <trkpt lat="43.3739270" lon="-5.9234700">
        <ele>103.3</ele>
        <time>2018-09-15T14:05:50Z</time>
      </trkpt>
      <trkpt lat="43.3739340" lon="-5.9235000">
        <ele>103.3</ele>
        <time>2018-09-15T14:05:51Z</time>
      </trkpt>
      <trkpt lat="43.3739460" lon="-5.9235300">
        <ele>103.2</ele>
        <time>2018-09-15T14:05:52Z</time>
      </trkpt>
      <trkpt lat="43.3739530" lon="-5.9235720">
        <ele>103.2</ele>
        <time>2018-09-15T14:05:53Z</time>
      </trkpt>
      <trkpt lat="43.3739590" lon="-5.9236250">
        <ele>103.1</ele>
        <time>2018-09-15T14:05:54Z</time>
      </trkpt>
      <trkpt lat="43.3739630" lon="-5.9236790">
        <ele>103.0</ele>
        <time>2018-09-15T14:05:55Z</time>
      </trkpt>
      <trkpt lat="43.3739600" lon="-5.9237190">
        <ele>103.0</ele>
        <time>2018-09-15T14:05:56Z</time>
      </trkpt>
      <trkpt lat="43.3739560" lon="-5.9237510">
        <ele>103.0</ele>
        <time>2018-09-15T14:05:57Z</time>
      </trkpt>
      <trkpt lat="43.3739510" lon="-5.9237750">
        <ele>102.9</ele>
        <time>2018-09-15T14:05:58Z</time>
      </trkpt>
      <trkpt lat="43.3739480" lon="-5.9237940">
        <ele>102.9</ele>
        <time>2018-09-15T14:05:59Z</time>
      </trkpt>
      <trkpt lat="43.3739450" lon="-5.9238100">
        <ele>102.9</ele>
        <time>2018-09-15T14:06:00Z</time>
      </trkpt>
      <trkpt lat="43.3739420" lon="-5.9238240">
        <ele>102.9</ele>
        <time>2018-09-15T14:06:01Z</time>
      </trkpt>
      <trkpt lat="43.3739340" lon="-5.9238280">
        <ele>102.8</ele>
        <time>2018-09-15T14:06:02Z</time>
      </trkpt>
      <trkpt lat="43.3739330" lon="-5.9238250">
        <ele>102.8</ele>
        <time>2018-09-15T14:06:03Z</time>
      </trkpt>
      <trkpt lat="43.3739330" lon="-5.9238170">
        <ele>102.9</ele>
        <time>2018-09-15T14:06:04Z</time>
      </trkpt>
      <trkpt lat="43.3739310" lon="-5.9238100">
        <ele>102.9</ele>
        <time>2018-09-15T14:06:05Z</time>
      </trkpt>
      <trkpt lat="43.3739180" lon="-5.9237170">
        <ele>103.0</ele>
        <time>2018-09-15T14:08:22Z</time>
      </trkpt>
      <trkpt lat="43.3739150" lon="-5.9236950">
        <ele>103.0</ele>
        <time>2018-09-15T14:08:23Z</time>
      </trkpt>
      <trkpt lat="43.3739140" lon="-5.9236630">
        <ele>103.1</ele>
        <time>2018-09-15T14:08:24Z</time>
      </trkpt>
      <trkpt lat="43.3739150" lon="-5.9236300">
        <ele>103.1</ele>
        <time>2018-09-15T14:08:25Z</time>
      </trkpt>
      <trkpt lat="43.3739130" lon="-5.9236060">
        <ele>103.1</ele>
        <time>2018-09-15T14:08:26Z</time>
      </trkpt>
      <trkpt lat="43.3739140" lon="-5.9235750">
        <ele>103.2</ele>
        <time>2018-09-15T14:08:27Z</time>
      </trkpt>
      <trkpt lat="43.3739160" lon="-5.9235460">
        <ele>103.2</ele>
        <time>2018-09-15T14:08:28Z</time>
      </trkpt>
      <trkpt lat="43.3739170" lon="-5.9235220">
        <ele>103.2</ele>
        <time>2018-09-15T14:08:29Z</time>
      </trkpt>
      <trkpt lat="43.3739180" lon="-5.9234870">
        <ele>103.3</ele>
        <time>2018-09-15T14:08:30Z</time>
      </trkpt>
      <trkpt lat="43.3739160" lon="-5.9234580">
        <ele>103.3</ele>
        <time>2018-09-15T14:08:31Z</time>
      </trkpt>
      <trkpt lat="43.3739120" lon="-5.9234240">
        <ele>103.4</ele>
        <time>2018-09-15T14:08:32Z</time>
      </trkpt>
      <trkpt lat="43.3739090" lon="-5.9233810">
        <ele>103.5</ele>
        <time>2018-09-15T14:08:33Z</time>
      </trkpt>
      <trkpt lat="43.3739050" lon="-5.9233430">
        <ele>103.6</ele>
        <time>2018-09-15T14:08:34Z</time>
      </trkpt>
      <trkpt lat="43.3739020" lon="-5.9232880">
        <ele>103.8</ele>
        <time>2018-09-15T14:08:35Z</time>
      </trkpt>
      <trkpt lat="43.3739010" lon="-5.9231970">
        <ele>104.0</ele>
        <time>2018-09-15T14:08:37Z</time>
      </trkpt>
      <trkpt lat="43.3738920" lon="-5.9230600">
        <ele>104.3</ele>
        <time>2018-09-15T14:08:38Z</time>
      </trkpt>
      <trkpt lat="43.3738850" lon="-5.9230100">
        <ele>104.4</ele>
        <time>2018-09-15T14:08:39Z</time>
      </trkpt>
      <trkpt lat="43.3738760" lon="-5.9229650">
        <ele>104.5</ele>
        <time>2018-09-15T14:08:40Z</time>
      </trkpt>
      <trkpt lat="43.3738680" lon="-5.9229140">
        <ele>104.6</ele>
        <time>2018-09-15T14:08:41Z</time>
      </trkpt>
      <trkpt lat="43.3738630" lon="-5.9228650">
        <ele>104.7</ele>
        <time>2018-09-15T14:08:42Z</time>
      </trkpt>
      <trkpt lat="43.3738570" lon="-5.9228400">
        <ele>104.8</ele>
        <time>2018-09-15T14:08:43Z</time>
      </trkpt>
      <trkpt lat="43.3738430" lon="-5.9227690">
        <ele>105.0</ele>
        <time>2018-09-15T14:08:44Z</time>
      </trkpt>
      <trkpt lat="43.3738350" lon="-5.9227210">
        <ele>105.1</ele>
        <time>2018-09-15T14:08:45Z</time>
      </trkpt>
      <trkpt lat="43.3738290" lon="-5.9226980">
        <ele>105.2</ele>
        <time>2018-09-15T14:08:46Z</time>
      </trkpt>
      <trkpt lat="43.3738160" lon="-5.9226300">
        <ele>105.4</ele>
        <time>2018-09-15T14:08:47Z</time>
      </trkpt>
      <trkpt lat="43.3738120" lon="-5.9226050">
        <ele>105.4</ele>
        <time>2018-09-15T14:08:48Z</time>
      </trkpt>
      <trkpt lat="43.3738060" lon="-5.9225630">
        <ele>105.5</ele>
        <time>2018-09-15T14:08:49Z</time>
      </trkpt>
      <trkpt lat="43.3737990" lon="-5.9225280">
        <ele>105.5</ele>
        <time>2018-09-15T14:08:50Z</time>
      </trkpt>
      <trkpt lat="43.3737930" lon="-5.9224890">
        <ele>105.6</ele>
        <time>2018-09-15T14:08:51Z</time>
      </trkpt>
      <trkpt lat="43.3737860" lon="-5.9224440">
        <ele>105.7</ele>
        <time>2018-09-15T14:08:52Z</time>
      </trkpt>
      <trkpt lat="43.3737780" lon="-5.9224040">
        <ele>105.7</ele>
        <time>2018-09-15T14:08:53Z</time>
      </trkpt>
      <trkpt lat="43.3737700" lon="-5.9223570">
        <ele>105.8</ele>
        <time>2018-09-15T14:08:54Z</time>
      </trkpt>
      <trkpt lat="43.3737600" lon="-5.9223100">
        <ele>105.9</ele>
        <time>2018-09-15T14:08:55Z</time>
      </trkpt>
      <trkpt lat="43.3737500" lon="-5.9222650">
        <ele>106.0</ele>
        <time>2018-09-15T14:08:56Z</time>
      </trkpt>
      <trkpt lat="43.3737410" lon="-5.9222260">
        <ele>106.1</ele>
        <time>2018-09-15T14:08:57Z</time>
      </trkpt>
      <trkpt lat="43.3737300" lon="-5.9221820">
        <ele>106.2</ele>
        <time>2018-09-15T14:08:58Z</time>
      </trkpt>
      <trkpt lat="43.3737180" lon="-5.9221350">
        <ele>106.3</ele>
        <time>2018-09-15T14:08:59Z</time>
      </trkpt>
      <trkpt lat="43.3737060" lon="-5.9220840">
        <ele>106.5</ele>
        <time>2018-09-15T14:09:00Z</time>
      </trkpt>
      <trkpt lat="43.3736950" lon="-5.9220360">
        <ele>106.6</ele>
        <time>2018-09-15T14:09:01Z</time>
      </trkpt>
      <trkpt lat="43.3736850" lon="-5.9219980">
        <ele>106.8</ele>
        <time>2018-09-15T14:09:02Z</time>
      </trkpt>
      <trkpt lat="43.3736740" lon="-5.9219580">
        <ele>106.9</ele>
        <time>2018-09-15T14:09:03Z</time>
      </trkpt>
      <trkpt lat="43.3736620" lon="-5.9219160">
        <ele>107.0</ele>
        <time>2018-09-15T14:09:04Z</time>
      </trkpt>
      <trkpt lat="43.3736510" lon="-5.9218740">
        <ele>107.1</ele>
        <time>2018-09-15T14:09:05Z</time>
      </trkpt>
      <trkpt lat="43.3736390" lon="-5.9218310">
        <ele>107.3</ele>
        <time>2018-09-15T14:09:06Z</time>
      </trkpt>
      <trkpt lat="43.3736260" lon="-5.9217850">
        <ele>107.4</ele>
        <time>2018-09-15T14:09:07Z</time>
      </trkpt>
      <trkpt lat="43.3736130" lon="-5.9217430">
        <ele>107.5</ele>
        <time>2018-09-15T14:09:08Z</time>
      </trkpt>
      <trkpt lat="43.3736000" lon="-5.9217020">
        <ele>107.6</ele>
        <time>2018-09-15T14:09:09Z</time>
      </trkpt>
      <trkpt lat="43.3735860" lon="-5.9216540">
        <ele>107.7</ele>
        <time>2018-09-15T14:09:10Z</time>
      </trkpt>
      <trkpt lat="43.3735740" lon="-5.9216160">
        <ele>107.8</ele>
        <time>2018-09-15T14:09:11Z</time>
      </trkpt>
      <trkpt lat="43.3735600" lon="-5.9215760">
        <ele>107.9</ele>
        <time>2018-09-15T14:09:12Z</time>
      </trkpt>
      <trkpt lat="43.3735340" lon="-5.9214890">
        <ele>108.3</ele>
        <time>2018-09-15T14:09:14Z</time>
      </trkpt>
      <trkpt lat="43.3735210" lon="-5.9214500">
        <ele>108.6</ele>
        <time>2018-09-15T14:09:15Z</time>
      </trkpt>
      <trkpt lat="43.3735070" lon="-5.9214100">
        <ele>108.8</ele>
        <time>2018-09-15T14:09:16Z</time>
      </trkpt>
      <trkpt lat="43.3734920" lon="-5.9213660">
        <ele>109.1</ele>
        <time>2018-09-15T14:09:17Z</time>
      </trkpt>
      <trkpt lat="43.3734780" lon="-5.9213240">
        <ele>109.4</ele>
        <time>2018-09-15T14:09:18Z</time>
      </trkpt>
      <trkpt lat="43.3734650" lon="-5.9212850">
        <ele>109.6</ele>
        <time>2018-09-15T14:09:19Z</time>
      </trkpt>
      <trkpt lat="43.3734540" lon="-5.9212510">
        <ele>109.8</ele>
        <time>2018-09-15T14:09:20Z</time>
      </trkpt>
      <trkpt lat="43.3734400" lon="-5.9212120">
        <ele>110.0</ele>
        <time>2018-09-15T14:09:21Z</time>
      </trkpt>
      <trkpt lat="43.3734270" lon="-5.9211750">
        <ele>110.0</ele>
        <time>2018-09-15T14:09:22Z</time>
      </trkpt>
      <trkpt lat="43.3734160" lon="-5.9211450">
        <ele>110.1</ele>
        <time>2018-09-15T14:09:23Z</time>
      </trkpt>
      <trkpt lat="43.3734040" lon="-5.9211130">
        <ele>110.2</ele>
        <time>2018-09-15T14:09:24Z</time>
      </trkpt>
      <trkpt lat="43.3733880" lon="-5.9210740">
        <ele>110.3</ele>
        <time>2018-09-15T14:09:25Z</time>
      </trkpt>
      <trkpt lat="43.3733760" lon="-5.9210410">
        <ele>110.4</ele>
        <time>2018-09-15T14:09:26Z</time>
      </trkpt>
      <trkpt lat="43.3733640" lon="-5.9210060">
        <ele>110.4</ele>
        <time>2018-09-15T14:09:27Z</time>
      </trkpt>
      <trkpt lat="43.3733490" lon="-5.9209650">
        <ele>110.5</ele>
        <time>2018-09-15T14:09:28Z</time>
      </trkpt>
      <trkpt lat="43.3733360" lon="-5.9209300">
        <ele>110.6</ele>
        <time>2018-09-15T14:09:29Z</time>
      </trkpt>
      <trkpt lat="43.3733230" lon="-5.9208940">
        <ele>110.7</ele>
        <time>2018-09-15T14:09:30Z</time>
      </trkpt>
      <trkpt lat="43.3733080" lon="-5.9208550">
        <ele>110.8</ele>
        <time>2018-09-15T14:09:31Z</time>
      </trkpt>
      <trkpt lat="43.3732930" lon="-5.9208180">
        <ele>110.9</ele>
        <time>2018-09-15T14:09:32Z</time>
      </trkpt>
      <trkpt lat="43.3732750" lon="-5.9207740">
        <ele>111.1</ele>
        <time>2018-09-15T14:09:33Z</time>
      </trkpt>
      <trkpt lat="43.3732590" lon="-5.9207310">
        <ele>111.3</ele>
        <time>2018-09-15T14:09:34Z</time>
      </trkpt>
      <trkpt lat="43.3732180" lon="-5.9206280">
        <ele>111.6</ele>
        <time>2018-09-15T14:09:35Z</time>
      </trkpt>
      <trkpt lat="43.3731990" lon="-5.9205840">
        <ele>111.8</ele>
        <time>2018-09-15T14:09:36Z</time>
      </trkpt>
      <trkpt lat="43.3731780" lon="-5.9205410">
        <ele>112.0</ele>
        <time>2018-09-15T14:09:37Z</time>
      </trkpt>
      <trkpt lat="43.3731560" lon="-5.9204990">
        <ele>112.2</ele>
        <time>2018-09-15T14:09:38Z</time>
      </trkpt>
      <trkpt lat="43.3731330" lon="-5.9204600">
        <ele>112.4</ele>
        <time>2018-09-15T14:09:39Z</time>
      </trkpt>
      <trkpt lat="43.3731090" lon="-5.9204220">
        <ele>112.7</ele>
        <time>2018-09-15T14:09:40Z</time>
      </trkpt>
      <trkpt lat="43.3730830" lon="-5.9203870">
        <ele>112.9</ele>
        <time>2018-09-15T14:09:41Z</time>
      </trkpt>
      <trkpt lat="43.3730560" lon="-5.9203510">
        <ele>113.2</ele>
        <time>2018-09-15T14:09:42Z</time>
      </trkpt>
      <trkpt lat="43.3730420" lon="-5.9203320">
        <ele>113.3</ele>
        <time>2018-09-15T14:09:43Z</time>
      </trkpt>
      <trkpt lat="43.3730210" lon="-5.9203090">
        <ele>113.5</ele>
        <time>2018-09-15T14:09:44Z</time>
      </trkpt>
      <trkpt lat="43.3729750" lon="-5.9202510">
        <ele>113.9</ele>
        <time>2018-09-15T14:09:45Z</time>
      </trkpt>
      <trkpt lat="43.3729460" lon="-5.9202190">
        <ele>114.1</ele>
        <time>2018-09-15T14:09:46Z</time>
      </trkpt>
      <trkpt lat="43.3729180" lon="-5.9201870">
        <ele>114.2</ele>
        <time>2018-09-15T14:09:47Z</time>
      </trkpt>
      <trkpt lat="43.3728900" lon="-5.9201550">
        <ele>114.3</ele>
        <time>2018-09-15T14:09:48Z</time>
      </trkpt>
      <trkpt lat="43.3728750" lon="-5.9201380">
        <ele>114.3</ele>
        <time>2018-09-15T14:09:49Z</time>
      </trkpt>
      <trkpt lat="43.3728340" lon="-5.9200910">
        <ele>114.5</ele>
        <time>2018-09-15T14:09:50Z</time>
      </trkpt>
      <trkpt lat="43.3728190" lon="-5.9200750">
        <ele>114.5</ele>
        <time>2018-09-15T14:09:51Z</time>
      </trkpt>
      <trkpt lat="43.3727970" lon="-5.9200540">
        <ele>114.6</ele>
        <time>2018-09-15T14:09:52Z</time>
      </trkpt>
      <trkpt lat="43.3727480" lon="-5.9200030">
        <ele>114.8</ele>
        <time>2018-09-15T14:09:53Z</time>
      </trkpt>
      <trkpt lat="43.3727210" lon="-5.9199700">
        <ele>114.9</ele>
        <time>2018-09-15T14:09:54Z</time>
      </trkpt>
      <trkpt lat="43.3727060" lon="-5.9199520">
        <ele>114.9</ele>
        <time>2018-09-15T14:09:55Z</time>
      </trkpt>
      <trkpt lat="43.3726870" lon="-5.9199280">
        <ele>115.0</ele>
        <time>2018-09-15T14:09:56Z</time>
      </trkpt>
      <trkpt lat="43.3726370" lon="-5.9198680">
        <ele>114.9</ele>
        <time>2018-09-15T14:09:57Z</time>
      </trkpt>
      <trkpt lat="43.3726090" lon="-5.9198330">
        <ele>114.9</ele>
        <time>2018-09-15T14:09:58Z</time>
      </trkpt>
      <trkpt lat="43.3725800" lon="-5.9197970">
        <ele>114.9</ele>
        <time>2018-09-15T14:09:59Z</time>
      </trkpt>
      <trkpt lat="43.3725520" lon="-5.9197620">
        <ele>114.8</ele>
        <time>2018-09-15T14:10:00Z</time>
      </trkpt>
      <trkpt lat="43.3725230" lon="-5.9197280">
        <ele>114.8</ele>
        <time>2018-09-15T14:10:01Z</time>
      </trkpt>
      <trkpt lat="43.3724940" lon="-5.9196940">
        <ele>114.8</ele>
        <time>2018-09-15T14:10:02Z</time>
      </trkpt>
      <trkpt lat="43.3724670" lon="-5.9196610">
        <ele>114.7</ele>
        <time>2018-09-15T14:10:03Z</time>
      </trkpt>
      <trkpt lat="43.3724530" lon="-5.9196430">
        <ele>114.7</ele>
        <time>2018-09-15T14:10:04Z</time>
      </trkpt>
      <trkpt lat="43.3724160" lon="-5.9195920">
        <ele>114.6</ele>
        <time>2018-09-15T14:10:05Z</time>
      </trkpt>
      <trkpt lat="43.3724030" lon="-5.9195750">
        <ele>114.6</ele>
        <time>2018-09-15T14:10:06Z</time>
      </trkpt>
      <trkpt lat="43.3723850" lon="-5.9195520">
        <ele>114.5</ele>
        <time>2018-09-15T14:10:07Z</time>
      </trkpt>
      <trkpt lat="43.3723600" lon="-5.9195220">
        <ele>114.5</ele>
        <time>2018-09-15T14:10:08Z</time>
      </trkpt>
      <trkpt lat="43.3723390" lon="-5.9194950">
        <ele>114.5</ele>
        <time>2018-09-15T14:10:09Z</time>
      </trkpt>
      <trkpt lat="43.3722860" lon="-5.9194270">
        <ele>114.4</ele>
        <time>2018-09-15T14:10:10Z</time>
      </trkpt>
      <trkpt lat="43.3722580" lon="-5.9193920">
        <ele>114.3</ele>
        <time>2018-09-15T14:10:11Z</time>
      </trkpt>
      <trkpt lat="43.3722440" lon="-5.9193730">
        <ele>114.3</ele>
        <time>2018-09-15T14:10:12Z</time>
      </trkpt>
      <trkpt lat="43.3722260" lon="-5.9193460">
        <ele>114.3</ele>
        <time>2018-09-15T14:10:13Z</time>
      </trkpt>
      <trkpt lat="43.3722050" lon="-5.9193130">
        <ele>114.3</ele>
        <time>2018-09-15T14:10:14Z</time>
      </trkpt>
      <trkpt lat="43.3721850" lon="-5.9192800">
        <ele>114.2</ele>
        <time>2018-09-15T14:10:15Z</time>
      </trkpt>
      <trkpt lat="43.3721430" lon="-5.9192040">
        <ele>114.2</ele>
        <time>2018-09-15T14:10:16Z</time>
      </trkpt>
      <trkpt lat="43.3721310" lon="-5.9191840">
        <ele>114.2</ele>
        <time>2018-09-15T14:10:17Z</time>
      </trkpt>
      <trkpt lat="43.3720960" lon="-5.9191280">
        <ele>114.1</ele>
        <time>2018-09-15T14:10:18Z</time>
      </trkpt>
      <trkpt lat="43.3720740" lon="-5.9190890">
        <ele>114.1</ele>
        <time>2018-09-15T14:10:19Z</time>
      </trkpt>
      <trkpt lat="43.3720620" lon="-5.9190670">
        <ele>114.1</ele>
        <time>2018-09-15T14:10:20Z</time>
      </trkpt>
      <trkpt lat="43.3720330" lon="-5.9190090">
        <ele>114.1</ele>
        <time>2018-09-15T14:10:21Z</time>
      </trkpt>
      <trkpt lat="43.3720220" lon="-5.9189880">
        <ele>114.1</ele>
        <time>2018-09-15T14:10:22Z</time>
      </trkpt>
      <trkpt lat="43.3720080" lon="-5.9189620">
        <ele>114.1</ele>
        <time>2018-09-15T14:10:23Z</time>
      </trkpt>
      <trkpt lat="43.3719700" lon="-5.9188930">
        <ele>114.2</ele>
        <time>2018-09-15T14:10:24Z</time>
      </trkpt>
      <trkpt lat="43.3719470" lon="-5.9188540">
        <ele>114.3</ele>
        <time>2018-09-15T14:10:25Z</time>
      </trkpt>
      <trkpt lat="43.3719360" lon="-5.9188340">
        <ele>114.4</ele>
        <time>2018-09-15T14:10:26Z</time>
      </trkpt>
      <trkpt lat="43.3719040" lon="-5.9187780">
        <ele>114.9</ele>
        <time>2018-09-15T14:10:27Z</time>
      </trkpt>
      <trkpt lat="43.3718910" lon="-5.9187590">
        <ele>115.1</ele>
        <time>2018-09-15T14:10:28Z</time>
      </trkpt>
      <trkpt lat="43.3718550" lon="-5.9187060">
        <ele>115.6</ele>
        <time>2018-09-15T14:10:29Z</time>
      </trkpt>
      <trkpt lat="43.3718290" lon="-5.9186700">
        <ele>115.9</ele>
        <time>2018-09-15T14:10:30Z</time>
      </trkpt>
      <trkpt lat="43.3718030" lon="-5.9186350">
        <ele>116.1</ele>
        <time>2018-09-15T14:10:31Z</time>
      </trkpt>
      <trkpt lat="43.3717750" lon="-5.9186010">
        <ele>116.2</ele>
        <time>2018-09-15T14:10:32Z</time>
      </trkpt>
      <trkpt lat="43.3717450" lon="-5.9185690">
        <ele>116.3</ele>
        <time>2018-09-15T14:10:33Z</time>
      </trkpt>
      <trkpt lat="43.3717140" lon="-5.9185410">
        <ele>116.4</ele>
        <time>2018-09-15T14:10:34Z</time>
      </trkpt>
      <trkpt lat="43.3716820" lon="-5.9185140">
        <ele>116.4</ele>
        <time>2018-09-15T14:10:35Z</time>
      </trkpt>
      <trkpt lat="43.3716500" lon="-5.9184890">
        <ele>116.5</ele>
        <time>2018-09-15T14:10:36Z</time>
      </trkpt>
      <trkpt lat="43.3716170" lon="-5.9184660">
        <ele>116.6</ele>
        <time>2018-09-15T14:10:37Z</time>
      </trkpt>
      <trkpt lat="43.3715840" lon="-5.9184440">
        <ele>116.7</ele>
        <time>2018-09-15T14:10:39Z</time>
      </trkpt>
      <trkpt lat="43.3715510" lon="-5.9184220">
        <ele>116.7</ele>
        <time>2018-09-15T14:10:40Z</time>
      </trkpt>
      <trkpt lat="43.3715150" lon="-5.9184010">
        <ele>116.8</ele>
        <time>2018-09-15T14:10:41Z</time>
      </trkpt>
      <trkpt lat="43.3714800" lon="-5.9183800">
        <ele>116.9</ele>
        <time>2018-09-15T14:10:42Z</time>
      </trkpt>
      <trkpt lat="43.3714430" lon="-5.9183600">
        <ele>117.0</ele>
        <time>2018-09-15T14:10:43Z</time>
      </trkpt>
      <trkpt lat="43.3714060" lon="-5.9183390">
        <ele>117.0</ele>
        <time>2018-09-15T14:10:44Z</time>
      </trkpt>
      <trkpt lat="43.3713680" lon="-5.9183170">
        <ele>117.1</ele>
        <time>2018-09-15T14:10:45Z</time>
      </trkpt>
      <trkpt lat="43.3713310" lon="-5.9182950">
        <ele>117.1</ele>
        <time>2018-09-15T14:10:46Z</time>
      </trkpt>
      <trkpt lat="43.3712950" lon="-5.9182730">
        <ele>117.2</ele>
        <time>2018-09-15T14:10:47Z</time>
      </trkpt>
      <trkpt lat="43.3712590" lon="-5.9182510">
        <ele>117.2</ele>
        <time>2018-09-15T14:10:48Z</time>
      </trkpt>
      <trkpt lat="43.3712220" lon="-5.9182280">
        <ele>117.3</ele>
        <time>2018-09-15T14:10:49Z</time>
      </trkpt>
      <trkpt lat="43.3711870" lon="-5.9182060">
        <ele>117.3</ele>
        <time>2018-09-15T14:10:50Z</time>
      </trkpt>
      <trkpt lat="43.3711520" lon="-5.9181840">
        <ele>117.4</ele>
        <time>2018-09-15T14:10:51Z</time>
      </trkpt>
      <trkpt lat="43.3711170" lon="-5.9181610">
        <ele>117.5</ele>
        <time>2018-09-15T14:10:52Z</time>
      </trkpt>
      <trkpt lat="43.3710830" lon="-5.9181380">
        <ele>117.5</ele>
        <time>2018-09-15T14:10:53Z</time>
      </trkpt>
      <trkpt lat="43.3710470" lon="-5.9181140">
        <ele>117.6</ele>
        <time>2018-09-15T14:10:54Z</time>
      </trkpt>
      <trkpt lat="43.3710120" lon="-5.9180900">
        <ele>117.7</ele>
        <time>2018-09-15T14:10:55Z</time>
      </trkpt>
      <trkpt lat="43.3709790" lon="-5.9180660">
        <ele>117.8</ele>
        <time>2018-09-15T14:10:56Z</time>
      </trkpt>
      <trkpt lat="43.3709450" lon="-5.9180410">
        <ele>117.9</ele>
        <time>2018-09-15T14:10:57Z</time>
      </trkpt>
      <trkpt lat="43.3709100" lon="-5.9180160">
        <ele>118.0</ele>
        <time>2018-09-15T14:10:58Z</time>
      </trkpt>
      <trkpt lat="43.3708760" lon="-5.9179910">
        <ele>118.1</ele>
        <time>2018-09-15T14:10:59Z</time>
      </trkpt>
      <trkpt lat="43.3708430" lon="-5.9179650">
        <ele>118.2</ele>
        <time>2018-09-15T14:11:00Z</time>
      </trkpt>
      <trkpt lat="43.3708100" lon="-5.9179400">
        <ele>118.4</ele>
        <time>2018-09-15T14:11:01Z</time>
      </trkpt>
      <trkpt lat="43.3707930" lon="-5.9179270">
        <ele>118.4</ele>
        <time>2018-09-15T14:11:02Z</time>
      </trkpt>
      <trkpt lat="43.3707460" lon="-5.9178890">
        <ele>118.6</ele>
        <time>2018-09-15T14:11:03Z</time>
      </trkpt>
      <trkpt lat="43.3707140" lon="-5.9178580">
        <ele>118.8</ele>
        <time>2018-09-15T14:11:04Z</time>
      </trkpt>
      <trkpt lat="43.3706840" lon="-5.9178260">
        <ele>118.9</ele>
        <time>2018-09-15T14:11:05Z</time>
      </trkpt>
      <trkpt lat="43.3706680" lon="-5.9178090">
        <ele>119.0</ele>
        <time>2018-09-15T14:11:06Z</time>
      </trkpt>
      <trkpt lat="43.3706270" lon="-5.9177620">
        <ele>119.2</ele>
        <time>2018-09-15T14:11:07Z</time>
      </trkpt>
      <trkpt lat="43.3705990" lon="-5.9177270">
        <ele>119.4</ele>
        <time>2018-09-15T14:11:08Z</time>
      </trkpt>
      <trkpt lat="43.3705840" lon="-5.9177090">
        <ele>119.5</ele>
        <time>2018-09-15T14:11:09Z</time>
      </trkpt>
      <trkpt lat="43.3705670" lon="-5.9176840">
        <ele>119.6</ele>
        <time>2018-09-15T14:11:10Z</time>
      </trkpt>
      <trkpt lat="43.3705530" lon="-5.9176650">
        <ele>119.7</ele>
        <time>2018-09-15T14:11:11Z</time>
      </trkpt>
      <trkpt lat="43.3705410" lon="-5.9176470">
        <ele>119.7</ele>
        <time>2018-09-15T14:11:12Z</time>
      </trkpt>
      <trkpt lat="43.3705330" lon="-5.9176360">
        <ele>119.8</ele>
        <time>2018-09-15T14:11:13Z</time>
      </trkpt>
      <trkpt lat="43.3704990" lon="-5.9175950">
        <ele>120.0</ele>
        <time>2018-09-15T14:11:14Z</time>
      </trkpt>
      <trkpt lat="43.3703970" lon="-5.9174520">
        <ele>120.7</ele>
        <time>2018-09-15T14:11:15Z</time>
      </trkpt>
      <trkpt lat="43.3703690" lon="-5.9174130">
        <ele>120.8</ele>
        <time>2018-09-15T14:11:16Z</time>
      </trkpt>
      <trkpt lat="43.3703410" lon="-5.9173750">
        <ele>121.0</ele>
        <time>2018-09-15T14:11:17Z</time>
      </trkpt>
      <trkpt lat="43.3703090" lon="-5.9173380">
        <ele>121.1</ele>
        <time>2018-09-15T14:11:18Z</time>
      </trkpt>
      <trkpt lat="43.3702810" lon="-5.9172990">
        <ele>121.3</ele>
        <time>2018-09-15T14:11:19Z</time>
      </trkpt>
      <trkpt lat="43.3702520" lon="-5.9172610">
        <ele>121.4</ele>
        <time>2018-09-15T14:11:20Z</time>
      </trkpt>
      <trkpt lat="43.3702190" lon="-5.9172230">
        <ele>121.6</ele>
        <time>2018-09-15T14:11:21Z</time>
      </trkpt>
      <trkpt lat="43.3701860" lon="-5.9171910">
        <ele>121.7</ele>
        <time>2018-09-15T14:11:22Z</time>
      </trkpt>
      <trkpt lat="43.3701520" lon="-5.9171590">
        <ele>121.8</ele>
        <time>2018-09-15T14:11:23Z</time>
      </trkpt>
      <trkpt lat="43.3701190" lon="-5.9171290">
        <ele>122.0</ele>
        <time>2018-09-15T14:11:24Z</time>
      </trkpt>
      <trkpt lat="43.3700850" lon="-5.9170950">
        <ele>122.0</ele>
        <time>2018-09-15T14:11:25Z</time>
      </trkpt>
      <trkpt lat="43.3700480" lon="-5.9170670">
        <ele>122.0</ele>
        <time>2018-09-15T14:11:26Z</time>
      </trkpt>
      <trkpt lat="43.3700120" lon="-5.9170390">
        <ele>122.0</ele>
        <time>2018-09-15T14:11:27Z</time>
      </trkpt>
      <trkpt lat="43.3699750" lon="-5.9170120">
        <ele>122.2</ele>
        <time>2018-09-15T14:11:28Z</time>
      </trkpt>
      <trkpt lat="43.3699330" lon="-5.9169900">
        <ele>122.5</ele>
        <time>2018-09-15T14:11:29Z</time>
      </trkpt>
      <trkpt lat="43.3698910" lon="-5.9169690">
        <ele>122.9</ele>
        <time>2018-09-15T14:11:30Z</time>
      </trkpt>
      <trkpt lat="43.3698470" lon="-5.9169470">
        <ele>123.3</ele>
        <time>2018-09-15T14:11:31Z</time>
      </trkpt>
      <trkpt lat="43.3698050" lon="-5.9169320">
        <ele>123.6</ele>
        <time>2018-09-15T14:11:32Z</time>
      </trkpt>
      <trkpt lat="43.3697640" lon="-5.9169180">
        <ele>123.9</ele>
        <time>2018-09-15T14:11:33Z</time>
      </trkpt>
      <trkpt lat="43.3697240" lon="-5.9169090">
        <ele>124.3</ele>
        <time>2018-09-15T14:11:34Z</time>
      </trkpt>
      <trkpt lat="43.3696830" lon="-5.9169010">
        <ele>124.6</ele>
        <time>2018-09-15T14:11:35Z</time>
      </trkpt>
      <trkpt lat="43.3696420" lon="-5.9168930">
        <ele>125.0</ele>
        <time>2018-09-15T14:11:36Z</time>
      </trkpt>
      <trkpt lat="43.3696020" lon="-5.9168840">
        <ele>125.3</ele>
        <time>2018-09-15T14:11:37Z</time>
      </trkpt>
      <trkpt lat="43.3695620" lon="-5.9168760">
        <ele>125.6</ele>
        <time>2018-09-15T14:11:38Z</time>
      </trkpt>
      <trkpt lat="43.3695240" lon="-5.9168670">
        <ele>126.0</ele>
        <time>2018-09-15T14:11:39Z</time>
      </trkpt>
      <trkpt lat="43.3694870" lon="-5.9168600">
        <ele>126.3</ele>
        <time>2018-09-15T14:11:40Z</time>
      </trkpt>
      <trkpt lat="43.3694510" lon="-5.9168540">
        <ele>126.6</ele>
        <time>2018-09-15T14:11:41Z</time>
      </trkpt>
      <trkpt lat="43.3694320" lon="-5.9168500">
        <ele>126.8</ele>
        <time>2018-09-15T14:11:42Z</time>
      </trkpt>
      <trkpt lat="43.3693800" lon="-5.9168400">
        <ele>127.2</ele>
        <time>2018-09-15T14:11:43Z</time>
      </trkpt>
      <trkpt lat="43.3693450" lon="-5.9168340">
        <ele>127.5</ele>
        <time>2018-09-15T14:11:44Z</time>
      </trkpt>
      <trkpt lat="43.3693090" lon="-5.9168270">
        <ele>127.8</ele>
        <time>2018-09-15T14:11:45Z</time>
      </trkpt>
      <trkpt lat="43.3692740" lon="-5.9168210">
        <ele>128.0</ele>
        <time>2018-09-15T14:11:46Z</time>
      </trkpt>
      <trkpt lat="43.3692550" lon="-5.9168170">
        <ele>128.2</ele>
        <time>2018-09-15T14:11:47Z</time>
      </trkpt>
      <trkpt lat="43.3692280" lon="-5.9168120">
        <ele>128.4</ele>
        <time>2018-09-15T14:11:48Z</time>
      </trkpt>
      <trkpt lat="43.3691690" lon="-5.9167980">
        <ele>128.8</ele>
        <time>2018-09-15T14:11:49Z</time>
      </trkpt>
      <trkpt lat="43.3691500" lon="-5.9167920">
        <ele>129.0</ele>
        <time>2018-09-15T14:11:50Z</time>
      </trkpt>
      <trkpt lat="43.3690970" lon="-5.9167730">
        <ele>128.9</ele>
        <time>2018-09-15T14:11:51Z</time>
      </trkpt>
      <trkpt lat="43.3690600" lon="-5.9167590">
        <ele>128.8</ele>
        <time>2018-09-15T14:11:52Z</time>
      </trkpt>
      <trkpt lat="43.3690240" lon="-5.9167440">
        <ele>128.7</ele>
        <time>2018-09-15T14:11:53Z</time>
      </trkpt>
      <trkpt lat="43.3689880" lon="-5.9167280">
        <ele>128.6</ele>
        <time>2018-09-15T14:11:54Z</time>
      </trkpt>
      <trkpt lat="43.3689700" lon="-5.9167210">
        <ele>128.6</ele>
        <time>2018-09-15T14:11:55Z</time>
      </trkpt>
      <trkpt lat="43.3689430" lon="-5.9167110">
        <ele>128.5</ele>
        <time>2018-09-15T14:11:56Z</time>
      </trkpt>
      <trkpt lat="43.3689180" lon="-5.9166990">
        <ele>128.5</ele>
        <time>2018-09-15T14:11:57Z</time>
      </trkpt>
      <trkpt lat="43.3688500" lon="-5.9166700">
        <ele>128.3</ele>
        <time>2018-09-15T14:11:58Z</time>
      </trkpt>
      <trkpt lat="43.3688140" lon="-5.9166550">
        <ele>128.3</ele>
        <time>2018-09-15T14:11:59Z</time>
      </trkpt>
      <trkpt lat="43.3687780" lon="-5.9166370">
        <ele>128.2</ele>
        <time>2018-09-15T14:12:00Z</time>
      </trkpt>
      <trkpt lat="43.3687420" lon="-5.9166200">
        <ele>128.1</ele>
        <time>2018-09-15T14:12:01Z</time>
      </trkpt>
      <trkpt lat="43.3687050" lon="-5.9166020">
        <ele>128.0</ele>
        <time>2018-09-15T14:12:02Z</time>
      </trkpt>
      <trkpt lat="43.3686680" lon="-5.9165830">
        <ele>128.0</ele>
        <time>2018-09-15T14:12:03Z</time>
      </trkpt>
      <trkpt lat="43.3686300" lon="-5.9165670">
        <ele>127.9</ele>
        <time>2018-09-15T14:12:04Z</time>
      </trkpt>
      <trkpt lat="43.3685930" lon="-5.9165530">
        <ele>127.8</ele>
        <time>2018-09-15T14:12:05Z</time>
      </trkpt>
      <trkpt lat="43.3685560" lon="-5.9165410">
        <ele>127.8</ele>
        <time>2018-09-15T14:12:06Z</time>
      </trkpt>
      <trkpt lat="43.3685200" lon="-5.9165310">
        <ele>127.7</ele>
        <time>2018-09-15T14:12:07Z</time>
      </trkpt>
      <trkpt lat="43.3685010" lon="-5.9165270">
        <ele>127.7</ele>
        <time>2018-09-15T14:12:08Z</time>
      </trkpt>
      <trkpt lat="43.3684480" lon="-5.9165170">
        <ele>127.7</ele>
        <time>2018-09-15T14:12:09Z</time>
      </trkpt>
      <trkpt lat="43.3684130" lon="-5.9165120">
        <ele>127.7</ele>
        <time>2018-09-15T14:12:10Z</time>
      </trkpt>
      <trkpt lat="43.3683770" lon="-5.9165070">
        <ele>127.7</ele>
        <time>2018-09-15T14:12:11Z</time>
      </trkpt>
      <trkpt lat="43.3683590" lon="-5.9165050">
        <ele>127.7</ele>
        <time>2018-09-15T14:12:12Z</time>
      </trkpt>
      <trkpt lat="43.3683330" lon="-5.9165060">
        <ele>127.7</ele>
        <time>2018-09-15T14:12:13Z</time>
      </trkpt>
      <trkpt lat="43.3683060" lon="-5.9165050">
        <ele>127.7</ele>
        <time>2018-09-15T14:12:14Z</time>
      </trkpt>
      <trkpt lat="43.3682770" lon="-5.9165060">
        <ele>127.7</ele>
        <time>2018-09-15T14:12:15Z</time>
      </trkpt>
      <trkpt lat="43.3682600" lon="-5.9165050">
        <ele>127.7</ele>
        <time>2018-09-15T14:12:16Z</time>
      </trkpt>
      <trkpt lat="43.3682470" lon="-5.9165050">
        <ele>127.7</ele>
        <time>2018-09-15T14:12:17Z</time>
      </trkpt>
      <trkpt lat="43.3682270" lon="-5.9165060">
        <ele>127.7</ele>
        <time>2018-09-15T14:12:18Z</time>
      </trkpt>
      <trkpt lat="43.3681890" lon="-5.9165030">
        <ele>127.7</ele>
        <time>2018-09-15T14:12:19Z</time>
      </trkpt>
      <trkpt lat="43.3681490" lon="-5.9165010">
        <ele>127.7</ele>
        <time>2018-09-15T14:12:20Z</time>
      </trkpt>
      <trkpt lat="43.3681150" lon="-5.9164980">
        <ele>127.8</ele>
        <time>2018-09-15T14:12:21Z</time>
      </trkpt>
      <trkpt lat="43.3680770" lon="-5.9164960">
        <ele>127.8</ele>
        <time>2018-09-15T14:12:22Z</time>
      </trkpt>
      <trkpt lat="43.3680450" lon="-5.9164910">
        <ele>127.9</ele>
        <time>2018-09-15T14:12:23Z</time>
      </trkpt>
      <trkpt lat="43.3680080" lon="-5.9164870">
        <ele>127.9</ele>
        <time>2018-09-15T14:12:24Z</time>
      </trkpt>
      <trkpt lat="43.3679730" lon="-5.9164820">
        <ele>128.0</ele>
        <time>2018-09-15T14:12:25Z</time>
      </trkpt>
      <trkpt lat="43.3679430" lon="-5.9164760">
        <ele>128.0</ele>
        <time>2018-09-15T14:12:26Z</time>
      </trkpt>
      <trkpt lat="43.3679170" lon="-5.9164710">
        <ele>128.6</ele>
        <time>2018-09-15T14:12:27Z</time>
      </trkpt>
      <trkpt lat="43.3679010" lon="-5.9164660">
        <ele>128.9</ele>
        <time>2018-09-15T14:12:28Z</time>
      </trkpt>
      <trkpt lat="43.3678750" lon="-5.9164620">
        <ele>129.5</ele>
        <time>2018-09-15T14:12:29Z</time>
      </trkpt>
      <trkpt lat="43.3678390" lon="-5.9164540">
        <ele>130.2</ele>
        <time>2018-09-15T14:12:30Z</time>
      </trkpt>
      <trkpt lat="43.3678060" lon="-5.9164440">
        <ele>130.8</ele>
        <time>2018-09-15T14:12:31Z</time>
      </trkpt>
      <trkpt lat="43.3677750" lon="-5.9164300">
        <ele>131.4</ele>
        <time>2018-09-15T14:12:32Z</time>
      </trkpt>
      <trkpt lat="43.3677450" lon="-5.9164180">
        <ele>132.0</ele>
        <time>2018-09-15T14:12:33Z</time>
      </trkpt>
      <trkpt lat="43.3677210" lon="-5.9164060">
        <ele>132.5</ele>
        <time>2018-09-15T14:12:34Z</time>
      </trkpt>
      <trkpt lat="43.3676950" lon="-5.9163960">
        <ele>133.0</ele>
        <time>2018-09-15T14:12:35Z</time>
      </trkpt>
      <trkpt lat="43.3676690" lon="-5.9163800">
        <ele>133.5</ele>
        <time>2018-09-15T14:12:36Z</time>
      </trkpt>
      <trkpt lat="43.3676390" lon="-5.9163600">
        <ele>134.1</ele>
        <time>2018-09-15T14:12:37Z</time>
      </trkpt>
      <trkpt lat="43.3676080" lon="-5.9163430">
        <ele>134.7</ele>
        <time>2018-09-15T14:12:38Z</time>
      </trkpt>
      <trkpt lat="43.3675780" lon="-5.9163280">
        <ele>135.3</ele>
        <time>2018-09-15T14:12:39Z</time>
      </trkpt>
      <trkpt lat="43.3675550" lon="-5.9163110">
        <ele>135.7</ele>
        <time>2018-09-15T14:12:40Z</time>
      </trkpt>
      <trkpt lat="43.3675260" lon="-5.9162900">
        <ele>136.3</ele>
        <time>2018-09-15T14:12:41Z</time>
      </trkpt>
      <trkpt lat="43.3674990" lon="-5.9162690">
        <ele>136.8</ele>
        <time>2018-09-15T14:12:42Z</time>
      </trkpt>
      <trkpt lat="43.3674720" lon="-5.9162490">
        <ele>137.3</ele>
        <time>2018-09-15T14:12:43Z</time>
      </trkpt>
      <trkpt lat="43.3674460" lon="-5.9162280">
        <ele>137.8</ele>
        <time>2018-09-15T14:12:44Z</time>
      </trkpt>
      <trkpt lat="43.3674260" lon="-5.9162080">
        <ele>138.2</ele>
        <time>2018-09-15T14:12:45Z</time>
      </trkpt>
      <trkpt lat="43.3674000" lon="-5.9161860">
        <ele>138.6</ele>
        <time>2018-09-15T14:12:46Z</time>
      </trkpt>
      <trkpt lat="43.3673790" lon="-5.9161660">
        <ele>139.0</ele>
        <time>2018-09-15T14:12:47Z</time>
      </trkpt>
      <trkpt lat="43.3673580" lon="-5.9161450">
        <ele>139.4</ele>
        <time>2018-09-15T14:12:48Z</time>
      </trkpt>
      <trkpt lat="43.3673360" lon="-5.9161220">
        <ele>139.8</ele>
        <time>2018-09-15T14:12:49Z</time>
      </trkpt>
      <trkpt lat="43.3673130" lon="-5.9160990">
        <ele>140.3</ele>
        <time>2018-09-15T14:12:50Z</time>
      </trkpt>
      <trkpt lat="43.3672880" lon="-5.9160700">
        <ele>140.8</ele>
        <time>2018-09-15T14:12:51Z</time>
      </trkpt>
      <trkpt lat="43.3672680" lon="-5.9160460">
        <ele>141.2</ele>
        <time>2018-09-15T14:12:52Z</time>
      </trkpt>
      <trkpt lat="43.3672440" lon="-5.9160190">
        <ele>141.7</ele>
        <time>2018-09-15T14:12:53Z</time>
      </trkpt>
      <trkpt lat="43.3672260" lon="-5.9159940">
        <ele>142.1</ele>
        <time>2018-09-15T14:12:54Z</time>
      </trkpt>
      <trkpt lat="43.3672070" lon="-5.9159660">
        <ele>142.6</ele>
        <time>2018-09-15T14:12:55Z</time>
      </trkpt>
      <trkpt lat="43.3671870" lon="-5.9159380">
        <ele>143.1</ele>
        <time>2018-09-15T14:12:56Z</time>
      </trkpt>
      <trkpt lat="43.3671640" lon="-5.9159040">
        <ele>143.7</ele>
        <time>2018-09-15T14:12:57Z</time>
      </trkpt>
      <trkpt lat="43.3671430" lon="-5.9158720">
        <ele>144.3</ele>
        <time>2018-09-15T14:12:58Z</time>
      </trkpt>
      <trkpt lat="43.3671240" lon="-5.9158400">
        <ele>144.8</ele>
        <time>2018-09-15T14:12:59Z</time>
      </trkpt>
      <trkpt lat="43.3671100" lon="-5.9158130">
        <ele>145.2</ele>
        <time>2018-09-15T14:13:00Z</time>
      </trkpt>
      <trkpt lat="43.3670940" lon="-5.9157840">
        <ele>145.7</ele>
        <time>2018-09-15T14:13:01Z</time>
      </trkpt>
      <trkpt lat="43.3670750" lon="-5.9157490">
        <ele>146.0</ele>
        <time>2018-09-15T14:13:02Z</time>
      </trkpt>
      <trkpt lat="43.3670590" lon="-5.9157200">
        <ele>146.1</ele>
        <time>2018-09-15T14:13:03Z</time>
      </trkpt>
      <trkpt lat="43.3670410" lon="-5.9156850">
        <ele>146.1</ele>
        <time>2018-09-15T14:13:04Z</time>
      </trkpt>
      <trkpt lat="43.3670240" lon="-5.9156500">
        <ele>146.2</ele>
        <time>2018-09-15T14:13:05Z</time>
      </trkpt>
      <trkpt lat="43.3670090" lon="-5.9156230">
        <ele>146.3</ele>
        <time>2018-09-15T14:13:06Z</time>
      </trkpt>
      <trkpt lat="43.3669940" lon="-5.9155940">
        <ele>146.4</ele>
        <time>2018-09-15T14:13:07Z</time>
      </trkpt>
      <trkpt lat="43.3669760" lon="-5.9155600">
        <ele>146.5</ele>
        <time>2018-09-15T14:13:08Z</time>
      </trkpt>
      <trkpt lat="43.3669600" lon="-5.9155260">
        <ele>146.6</ele>
        <time>2018-09-15T14:13:09Z</time>
      </trkpt>
      <trkpt lat="43.3669470" lon="-5.9155000">
        <ele>146.7</ele>
        <time>2018-09-15T14:13:10Z</time>
      </trkpt>
      <trkpt lat="43.3669300" lon="-5.9154690">
        <ele>146.8</ele>
        <time>2018-09-15T14:13:11Z</time>
      </trkpt>
      <trkpt lat="43.3669170" lon="-5.9154420">
        <ele>146.9</ele>
        <time>2018-09-15T14:13:12Z</time>
      </trkpt>
      <trkpt lat="43.3668990" lon="-5.9154110">
        <ele>147.0</ele>
        <time>2018-09-15T14:13:13Z</time>
      </trkpt>
      <trkpt lat="43.3668850" lon="-5.9153860">
        <ele>147.1</ele>
        <time>2018-09-15T14:13:14Z</time>
      </trkpt>
      <trkpt lat="43.3668710" lon="-5.9153600">
        <ele>147.2</ele>
        <time>2018-09-15T14:13:15Z</time>
      </trkpt>
      <trkpt lat="43.3668550" lon="-5.9153350">
        <ele>147.3</ele>
        <time>2018-09-15T14:13:16Z</time>
      </trkpt>
      <trkpt lat="43.3668350" lon="-5.9153060">
        <ele>147.4</ele>
        <time>2018-09-15T14:13:17Z</time>
      </trkpt>
      <trkpt lat="43.3668190" lon="-5.9152840">
        <ele>147.4</ele>
        <time>2018-09-15T14:13:18Z</time>
      </trkpt>
      <trkpt lat="43.3668020" lon="-5.9152620">
        <ele>147.5</ele>
        <time>2018-09-15T14:13:19Z</time>
      </trkpt>
      <trkpt lat="43.3667860" lon="-5.9152390">
        <ele>147.6</ele>
        <time>2018-09-15T14:13:20Z</time>
      </trkpt>
      <trkpt lat="43.3667680" lon="-5.9152160">
        <ele>147.7</ele>
        <time>2018-09-15T14:13:21Z</time>
      </trkpt>
      <trkpt lat="43.3667480" lon="-5.9151880">
        <ele>147.8</ele>
        <time>2018-09-15T14:13:22Z</time>
      </trkpt>
      <trkpt lat="43.3667330" lon="-5.9151680">
        <ele>147.9</ele>
        <time>2018-09-15T14:13:23Z</time>
      </trkpt>
      <trkpt lat="43.3667190" lon="-5.9151500">
        <ele>147.9</ele>
        <time>2018-09-15T14:13:24Z</time>
      </trkpt>
      <trkpt lat="43.3666990" lon="-5.9151290">
        <ele>148.0</ele>
        <time>2018-09-15T14:13:25Z</time>
      </trkpt>
      <trkpt lat="43.3666780" lon="-5.9151120">
        <ele>148.1</ele>
        <time>2018-09-15T14:13:26Z</time>
      </trkpt>
      <trkpt lat="43.3666550" lon="-5.9150910">
        <ele>148.1</ele>
        <time>2018-09-15T14:13:27Z</time>
      </trkpt>
      <trkpt lat="43.3666360" lon="-5.9150770">
        <ele>148.2</ele>
        <time>2018-09-15T14:13:28Z</time>
      </trkpt>
      <trkpt lat="43.3666120" lon="-5.9150600">
        <ele>148.3</ele>
        <time>2018-09-15T14:13:29Z</time>
      </trkpt>
      <trkpt lat="43.3665880" lon="-5.9150440">
        <ele>148.4</ele>
        <time>2018-09-15T14:13:30Z</time>
      </trkpt>
      <trkpt lat="43.3665690" lon="-5.9150320">
        <ele>148.5</ele>
        <time>2018-09-15T14:13:31Z</time>
      </trkpt>
      <trkpt lat="43.3665490" lon="-5.9150200">
        <ele>148.5</ele>
        <time>2018-09-15T14:13:32Z</time>
      </trkpt>
      <trkpt lat="43.3665230" lon="-5.9150040">
        <ele>148.6</ele>
        <time>2018-09-15T14:13:33Z</time>
      </trkpt>
      <trkpt lat="43.3665030" lon="-5.9149940">
        <ele>148.7</ele>
        <time>2018-09-15T14:13:34Z</time>
      </trkpt>
      <trkpt lat="43.3664810" lon="-5.9149820">
        <ele>148.8</ele>
        <time>2018-09-15T14:13:35Z</time>
      </trkpt>
      <trkpt lat="43.3664530" lon="-5.9149680">
        <ele>149.0</ele>
        <time>2018-09-15T14:13:36Z</time>
      </trkpt>
      <trkpt lat="43.3664290" lon="-5.9149540">
        <ele>149.1</ele>
        <time>2018-09-15T14:13:37Z</time>
      </trkpt>
      <trkpt lat="43.3664100" lon="-5.9149440">
        <ele>149.2</ele>
        <time>2018-09-15T14:13:38Z</time>
      </trkpt>
      <trkpt lat="43.3663940" lon="-5.9149370">
        <ele>149.2</ele>
        <time>2018-09-15T14:13:39Z</time>
      </trkpt>
      <trkpt lat="43.3663670" lon="-5.9149290">
        <ele>149.3</ele>
        <time>2018-09-15T14:13:40Z</time>
      </trkpt>
      <trkpt lat="43.3663410" lon="-5.9149230">
        <ele>149.4</ele>
        <time>2018-09-15T14:13:41Z</time>
      </trkpt>
      <trkpt lat="43.3663220" lon="-5.9149180">
        <ele>149.5</ele>
        <time>2018-09-15T14:13:42Z</time>
      </trkpt>
      <trkpt lat="43.3663030" lon="-5.9149110">
        <ele>149.6</ele>
        <time>2018-09-15T14:13:43Z</time>
      </trkpt>
      <trkpt lat="43.3662790" lon="-5.9149040">
        <ele>149.6</ele>
        <time>2018-09-15T14:13:44Z</time>
      </trkpt>
      <trkpt lat="43.3662610" lon="-5.9149000">
        <ele>149.7</ele>
        <time>2018-09-15T14:13:45Z</time>
      </trkpt>
      <trkpt lat="43.3662360" lon="-5.9148940">
        <ele>149.8</ele>
        <time>2018-09-15T14:13:46Z</time>
      </trkpt>
      <trkpt lat="43.3662180" lon="-5.9148880">
        <ele>149.8</ele>
        <time>2018-09-15T14:13:47Z</time>
      </trkpt>
      <trkpt lat="43.3661990" lon="-5.9148830">
        <ele>149.9</ele>
        <time>2018-09-15T14:13:48Z</time>
      </trkpt>
      <trkpt lat="43.3661740" lon="-5.9148780">
        <ele>150.0</ele>
        <time>2018-09-15T14:13:49Z</time>
      </trkpt>
      <trkpt lat="43.3661530" lon="-5.9148730">
        <ele>150.0</ele>
        <time>2018-09-15T14:13:50Z</time>
      </trkpt>
      <trkpt lat="43.3661320" lon="-5.9148680">
        <ele>150.1</ele>
        <time>2018-09-15T14:13:51Z</time>
      </trkpt>
      <trkpt lat="43.3661100" lon="-5.9148620">
        <ele>150.2</ele>
        <time>2018-09-15T14:13:52Z</time>
      </trkpt>
      <trkpt lat="43.3660830" lon="-5.9148540">
        <ele>150.3</ele>
        <time>2018-09-15T14:13:53Z</time>
      </trkpt>
      <trkpt lat="43.3660590" lon="-5.9148460">
        <ele>150.4</ele>
        <time>2018-09-15T14:13:54Z</time>
      </trkpt>
      <trkpt lat="43.3660410" lon="-5.9148380">
        <ele>150.4</ele>
        <time>2018-09-15T14:13:55Z</time>
      </trkpt>
      <trkpt lat="43.3660170" lon="-5.9148320">
        <ele>150.5</ele>
        <time>2018-09-15T14:13:56Z</time>
      </trkpt>
      <trkpt lat="43.3659980" lon="-5.9148230">
        <ele>150.6</ele>
        <time>2018-09-15T14:13:57Z</time>
      </trkpt>
      <trkpt lat="43.3659730" lon="-5.9148120">
        <ele>150.7</ele>
        <time>2018-09-15T14:13:58Z</time>
      </trkpt>
      <trkpt lat="43.3659500" lon="-5.9148020">
        <ele>150.8</ele>
        <time>2018-09-15T14:13:59Z</time>
      </trkpt>
      <trkpt lat="43.3659320" lon="-5.9147940">
        <ele>150.9</ele>
        <time>2018-09-15T14:14:00Z</time>
      </trkpt>
      <trkpt lat="43.3659090" lon="-5.9147820">
        <ele>151.7</ele>
        <time>2018-09-15T14:14:01Z</time>
      </trkpt>
      <trkpt lat="43.3658880" lon="-5.9147710">
        <ele>152.2</ele>
        <time>2018-09-15T14:14:02Z</time>
      </trkpt>
      <trkpt lat="43.3658730" lon="-5.9147620">
        <ele>152.6</ele>
        <time>2018-09-15T14:14:03Z</time>
      </trkpt>
      <trkpt lat="43.3658550" lon="-5.9147500">
        <ele>153.0</ele>
        <time>2018-09-15T14:14:04Z</time>
      </trkpt>
      <trkpt lat="43.3658360" lon="-5.9147390">
        <ele>153.5</ele>
        <time>2018-09-15T14:14:05Z</time>
      </trkpt>
      <trkpt lat="43.3658230" lon="-5.9147270">
        <ele>153.9</ele>
        <time>2018-09-15T14:14:06Z</time>
      </trkpt>
      <trkpt lat="43.3658020" lon="-5.9147110">
        <ele>154.4</ele>
        <time>2018-09-15T14:14:07Z</time>
      </trkpt>
      <trkpt lat="43.3657870" lon="-5.9146950">
        <ele>154.9</ele>
        <time>2018-09-15T14:14:08Z</time>
      </trkpt>
      <trkpt lat="43.3657690" lon="-5.9146780">
        <ele>155.4</ele>
        <time>2018-09-15T14:14:09Z</time>
      </trkpt>
      <trkpt lat="43.3657460" lon="-5.9146560">
        <ele>156.0</ele>
        <time>2018-09-15T14:14:10Z</time>
      </trkpt>
      <trkpt lat="43.3657290" lon="-5.9146370">
        <ele>156.4</ele>
        <time>2018-09-15T14:14:11Z</time>
      </trkpt>
      <trkpt lat="43.3657110" lon="-5.9146160">
        <ele>157.0</ele>
        <time>2018-09-15T14:14:12Z</time>
      </trkpt>
      <trkpt lat="43.3656900" lon="-5.9145890">
        <ele>157.6</ele>
        <time>2018-09-15T14:14:13Z</time>
      </trkpt>
      <trkpt lat="43.3656700" lon="-5.9145620">
        <ele>158.2</ele>
        <time>2018-09-15T14:14:14Z</time>
      </trkpt>
      <trkpt lat="43.3656510" lon="-5.9145350">
        <ele>158.8</ele>
        <time>2018-09-15T14:14:15Z</time>
      </trkpt>
      <trkpt lat="43.3656380" lon="-5.9145130">
        <ele>159.2</ele>
        <time>2018-09-15T14:14:16Z</time>
      </trkpt>
      <trkpt lat="43.3656210" lon="-5.9144840">
        <ele>159.8</ele>
        <time>2018-09-15T14:14:17Z</time>
      </trkpt>
      <trkpt lat="43.3656070" lon="-5.9144530">
        <ele>160.3</ele>
        <time>2018-09-15T14:14:18Z</time>
      </trkpt>
      <trkpt lat="43.3655920" lon="-5.9144230">
        <ele>160.9</ele>
        <time>2018-09-15T14:14:19Z</time>
      </trkpt>
      <trkpt lat="43.3655810" lon="-5.9143980">
        <ele>161.3</ele>
        <time>2018-09-15T14:14:20Z</time>
      </trkpt>
      <trkpt lat="43.3655700" lon="-5.9143720">
        <ele>161.8</ele>
        <time>2018-09-15T14:14:21Z</time>
      </trkpt>
      <trkpt lat="43.3655580" lon="-5.9143430">
        <ele>162.9</ele>
        <time>2018-09-15T14:14:22Z</time>
      </trkpt>
      <trkpt lat="43.3655460" lon="-5.9143080">
        <ele>162.9</ele>
        <time>2018-09-15T14:14:23Z</time>
      </trkpt>
      <trkpt lat="43.3655390" lon="-5.9142800">
        <ele>162.9</ele>
        <time>2018-09-15T14:14:24Z</time>
      </trkpt>
      <trkpt lat="43.3655290" lon="-5.9142450">
        <ele>162.9</ele>
        <time>2018-09-15T14:14:25Z</time>
      </trkpt>
      <trkpt lat="43.3655250" lon="-5.9142220">
        <ele>162.9</ele>
        <time>2018-09-15T14:14:26Z</time>
      </trkpt>
      <trkpt lat="43.3655180" lon="-5.9141900">
        <ele>163.0</ele>
        <time>2018-09-15T14:14:27Z</time>
      </trkpt>
      <trkpt lat="43.3655090" lon="-5.9141520">
        <ele>163.0</ele>
        <time>2018-09-15T14:14:28Z</time>
      </trkpt>
      <trkpt lat="43.3655040" lon="-5.9141230">
        <ele>163.0</ele>
        <time>2018-09-15T14:14:29Z</time>
      </trkpt>
      <trkpt lat="43.3654980" lon="-5.9140940">
        <ele>163.1</ele>
        <time>2018-09-15T14:14:30Z</time>
      </trkpt>
      <trkpt lat="43.3654920" lon="-5.9140630">
        <ele>163.2</ele>
        <time>2018-09-15T14:14:31Z</time>
      </trkpt>
      <trkpt lat="43.3654840" lon="-5.9140260">
        <ele>163.2</ele>
        <time>2018-09-15T14:14:32Z</time>
      </trkpt>
      <trkpt lat="43.3654770" lon="-5.9139900">
        <ele>163.3</ele>
        <time>2018-09-15T14:14:33Z</time>
      </trkpt>
      <trkpt lat="43.3654740" lon="-5.9139540">
        <ele>163.4</ele>
        <time>2018-09-15T14:14:34Z</time>
      </trkpt>
      <trkpt lat="43.3654710" lon="-5.9139260">
        <ele>163.4</ele>
        <time>2018-09-15T14:14:35Z</time>
      </trkpt>
      <trkpt lat="43.3654660" lon="-5.9138910">
        <ele>163.5</ele>
        <time>2018-09-15T14:14:36Z</time>
      </trkpt>
      <trkpt lat="43.3654630" lon="-5.9138640">
        <ele>163.5</ele>
        <time>2018-09-15T14:14:37Z</time>
      </trkpt>
      <trkpt lat="43.3654610" lon="-5.9138410">
        <ele>163.6</ele>
        <time>2018-09-15T14:14:38Z</time>
      </trkpt>
      <trkpt lat="43.3654570" lon="-5.9138020">
        <ele>163.6</ele>
        <time>2018-09-15T14:14:39Z</time>
      </trkpt>
      <trkpt lat="43.3654540" lon="-5.9137720">
        <ele>163.7</ele>
        <time>2018-09-15T14:14:40Z</time>
      </trkpt>
      <trkpt lat="43.3654520" lon="-5.9137400">
        <ele>163.8</ele>
        <time>2018-09-15T14:14:41Z</time>
      </trkpt>
      <trkpt lat="43.3654490" lon="-5.9137030">
        <ele>163.8</ele>
        <time>2018-09-15T14:14:42Z</time>
      </trkpt>
      <trkpt lat="43.3654470" lon="-5.9136740">
        <ele>163.9</ele>
        <time>2018-09-15T14:14:43Z</time>
      </trkpt>
      <trkpt lat="43.3654460" lon="-5.9136430">
        <ele>163.9</ele>
        <time>2018-09-15T14:14:44Z</time>
      </trkpt>
      <trkpt lat="43.3654420" lon="-5.9136120">
        <ele>164.0</ele>
        <time>2018-09-15T14:14:45Z</time>
      </trkpt>
      <trkpt lat="43.3654390" lon="-5.9135820">
        <ele>164.1</ele>
        <time>2018-09-15T14:14:46Z</time>
      </trkpt>
      <trkpt lat="43.3654350" lon="-5.9135530">
        <ele>164.1</ele>
        <time>2018-09-15T14:14:47Z</time>
      </trkpt>
      <trkpt lat="43.3654310" lon="-5.9135220">
        <ele>164.2</ele>
        <time>2018-09-15T14:14:48Z</time>
      </trkpt>
      <trkpt lat="43.3654290" lon="-5.9134920">
        <ele>164.2</ele>
        <time>2018-09-15T14:14:49Z</time>
      </trkpt>
      <trkpt lat="43.3654250" lon="-5.9134550">
        <ele>164.3</ele>
        <time>2018-09-15T14:14:50Z</time>
      </trkpt>
      <trkpt lat="43.3654220" lon="-5.9134280">
        <ele>164.3</ele>
        <time>2018-09-15T14:14:51Z</time>
      </trkpt>
      <trkpt lat="43.3654170" lon="-5.9133930">
        <ele>164.4</ele>
        <time>2018-09-15T14:14:52Z</time>
      </trkpt>
      <trkpt lat="43.3654140" lon="-5.9133600">
        <ele>164.5</ele>
        <time>2018-09-15T14:14:53Z</time>
      </trkpt>
      <trkpt lat="43.3654090" lon="-5.9133270">
        <ele>164.5</ele>
        <time>2018-09-15T14:14:54Z</time>
      </trkpt>
      <trkpt lat="43.3654040" lon="-5.9133010">
        <ele>164.6</ele>
        <time>2018-09-15T14:14:55Z</time>
      </trkpt>
      <trkpt lat="43.3653980" lon="-5.9132680">
        <ele>164.6</ele>
        <time>2018-09-15T14:14:56Z</time>
      </trkpt>
      <trkpt lat="43.3653880" lon="-5.9132080">
        <ele>164.8</ele>
        <time>2018-09-15T14:14:58Z</time>
      </trkpt>
      <trkpt lat="43.3653830" lon="-5.9131740">
        <ele>164.8</ele>
        <time>2018-09-15T14:14:59Z</time>
      </trkpt>
      <trkpt lat="43.3653800" lon="-5.9131460">
        <ele>164.9</ele>
        <time>2018-09-15T14:15:00Z</time>
      </trkpt>
      <trkpt lat="43.3653760" lon="-5.9131140">
        <ele>165.0</ele>
        <time>2018-09-15T14:15:01Z</time>
      </trkpt>
      <trkpt lat="43.3653730" lon="-5.9130870">
        <ele>165.0</ele>
        <time>2018-09-15T14:15:02Z</time>
      </trkpt>
      <trkpt lat="43.3653700" lon="-5.9130500">
        <ele>165.1</ele>
        <time>2018-09-15T14:15:03Z</time>
      </trkpt>
      <trkpt lat="43.3653670" lon="-5.9130140">
        <ele>165.1</ele>
        <time>2018-09-15T14:15:04Z</time>
      </trkpt>
      <trkpt lat="43.3653640" lon="-5.9129730">
        <ele>165.1</ele>
        <time>2018-09-15T14:15:05Z</time>
      </trkpt>
      <trkpt lat="43.3653620" lon="-5.9129420">
        <ele>165.2</ele>
        <time>2018-09-15T14:15:06Z</time>
      </trkpt>
      <trkpt lat="43.3653580" lon="-5.9129100">
        <ele>165.2</ele>
        <time>2018-09-15T14:15:07Z</time>
      </trkpt>
      <trkpt lat="43.3653530" lon="-5.9128730">
        <ele>165.2</ele>
        <time>2018-09-15T14:15:08Z</time>
      </trkpt>
      <trkpt lat="43.3653480" lon="-5.9128450">
        <ele>165.2</ele>
        <time>2018-09-15T14:15:09Z</time>
      </trkpt>
      <trkpt lat="43.3653430" lon="-5.9128140">
        <ele>165.2</ele>
        <time>2018-09-15T14:15:10Z</time>
      </trkpt>
      <trkpt lat="43.3653380" lon="-5.9127820">
        <ele>165.2</ele>
        <time>2018-09-15T14:15:11Z</time>
      </trkpt>
      <trkpt lat="43.3653340" lon="-5.9127510">
        <ele>165.2</ele>
        <time>2018-09-15T14:15:12Z</time>
      </trkpt>
      <trkpt lat="43.3653310" lon="-5.9127190">
        <ele>165.1</ele>
        <time>2018-09-15T14:15:13Z</time>
      </trkpt>
      <trkpt lat="43.3653300" lon="-5.9126910">
        <ele>165.1</ele>
        <time>2018-09-15T14:15:14Z</time>
      </trkpt>
      <trkpt lat="43.3653270" lon="-5.9126540">
        <ele>165.1</ele>
        <time>2018-09-15T14:15:15Z</time>
      </trkpt>
      <trkpt lat="43.3653240" lon="-5.9126120">
        <ele>165.1</ele>
        <time>2018-09-15T14:15:16Z</time>
      </trkpt>
      <trkpt lat="43.3653210" lon="-5.9125780">
        <ele>165.1</ele>
        <time>2018-09-15T14:15:17Z</time>
      </trkpt>
      <trkpt lat="43.3653180" lon="-5.9125440">
        <ele>165.1</ele>
        <time>2018-09-15T14:15:18Z</time>
      </trkpt>
      <trkpt lat="43.3653130" lon="-5.9125090">
        <ele>165.0</ele>
        <time>2018-09-15T14:15:19Z</time>
      </trkpt>
      <trkpt lat="43.3653090" lon="-5.9124670">
        <ele>165.0</ele>
        <time>2018-09-15T14:15:20Z</time>
      </trkpt>
      <trkpt lat="43.3653060" lon="-5.9124370">
        <ele>165.0</ele>
        <time>2018-09-15T14:15:21Z</time>
      </trkpt>
      <trkpt lat="43.3653030" lon="-5.9123960">
        <ele>165.0</ele>
        <time>2018-09-15T14:15:22Z</time>
      </trkpt>
      <trkpt lat="43.3652990" lon="-5.9123560">
        <ele>165.0</ele>
        <time>2018-09-15T14:15:23Z</time>
      </trkpt>
      <trkpt lat="43.3652960" lon="-5.9123170">
        <ele>164.9</ele>
        <time>2018-09-15T14:15:24Z</time>
      </trkpt>
      <trkpt lat="43.3652940" lon="-5.9122720">
        <ele>164.7</ele>
        <time>2018-09-15T14:15:25Z</time>
      </trkpt>
      <trkpt lat="43.3652910" lon="-5.9122360">
        <ele>164.6</ele>
        <time>2018-09-15T14:15:26Z</time>
      </trkpt>
      <trkpt lat="43.3652870" lon="-5.9122000">
        <ele>164.4</ele>
        <time>2018-09-15T14:15:27Z</time>
      </trkpt>
      <trkpt lat="43.3652850" lon="-5.9121560">
        <ele>164.3</ele>
        <time>2018-09-15T14:15:28Z</time>
      </trkpt>
      <trkpt lat="43.3652820" lon="-5.9121220">
        <ele>164.2</ele>
        <time>2018-09-15T14:15:29Z</time>
      </trkpt>
      <trkpt lat="43.3652790" lon="-5.9120880">
        <ele>164.1</ele>
        <time>2018-09-15T14:15:30Z</time>
      </trkpt>
      <trkpt lat="43.3652740" lon="-5.9120410">
        <ele>164.1</ele>
        <time>2018-09-15T14:15:31Z</time>
      </trkpt>
      <trkpt lat="43.3652710" lon="-5.9120050">
        <ele>164.0</ele>
        <time>2018-09-15T14:15:32Z</time>
      </trkpt>
      <trkpt lat="43.3652660" lon="-5.9119670">
        <ele>163.9</ele>
        <time>2018-09-15T14:15:33Z</time>
      </trkpt>
      <trkpt lat="43.3652610" lon="-5.9119300">
        <ele>163.9</ele>
        <time>2018-09-15T14:15:34Z</time>
      </trkpt>
      <trkpt lat="43.3652570" lon="-5.9118920">
        <ele>163.8</ele>
        <time>2018-09-15T14:15:35Z</time>
      </trkpt>
      <trkpt lat="43.3652510" lon="-5.9118480">
        <ele>163.7</ele>
        <time>2018-09-15T14:15:36Z</time>
      </trkpt>
      <trkpt lat="43.3652480" lon="-5.9118130">
        <ele>163.7</ele>
        <time>2018-09-15T14:15:37Z</time>
      </trkpt>
      <trkpt lat="43.3652440" lon="-5.9117770">
        <ele>163.6</ele>
        <time>2018-09-15T14:15:38Z</time>
      </trkpt>
      <trkpt lat="43.3652370" lon="-5.9117350">
        <ele>163.6</ele>
        <time>2018-09-15T14:15:39Z</time>
      </trkpt>
      <trkpt lat="43.3652320" lon="-5.9117050">
        <ele>163.5</ele>
        <time>2018-09-15T14:15:40Z</time>
      </trkpt>
      <trkpt lat="43.3652260" lon="-5.9116680">
        <ele>163.5</ele>
        <time>2018-09-15T14:15:41Z</time>
      </trkpt>
      <trkpt lat="43.3652190" lon="-5.9116260">
        <ele>163.4</ele>
        <time>2018-09-15T14:15:42Z</time>
      </trkpt>
      <trkpt lat="43.3652120" lon="-5.9115880">
        <ele>163.4</ele>
        <time>2018-09-15T14:15:43Z</time>
      </trkpt>
      <trkpt lat="43.3652040" lon="-5.9115530">
        <ele>163.3</ele>
        <time>2018-09-15T14:15:44Z</time>
      </trkpt>
      <trkpt lat="43.3651990" lon="-5.9115240">
        <ele>163.3</ele>
        <time>2018-09-15T14:15:45Z</time>
      </trkpt>
      <trkpt lat="43.3651910" lon="-5.9114880">
        <ele>163.2</ele>
        <time>2018-09-15T14:15:46Z</time>
      </trkpt>
      <trkpt lat="43.3651790" lon="-5.9114560">
        <ele>163.2</ele>
        <time>2018-09-15T14:15:47Z</time>
      </trkpt>
      <trkpt lat="43.3651690" lon="-5.9114310">
        <ele>163.2</ele>
        <time>2018-09-15T14:15:48Z</time>
      </trkpt>
      <trkpt lat="43.3651560" lon="-5.9114030">
        <ele>163.1</ele>
        <time>2018-09-15T14:15:49Z</time>
      </trkpt>
      <trkpt lat="43.3651420" lon="-5.9113700">
        <ele>163.1</ele>
        <time>2018-09-15T14:15:50Z</time>
      </trkpt>
      <trkpt lat="43.3651320" lon="-5.9113430">
        <ele>163.1</ele>
        <time>2018-09-15T14:15:51Z</time>
      </trkpt>
      <trkpt lat="43.3651200" lon="-5.9113150">
        <ele>163.1</ele>
        <time>2018-09-15T14:15:52Z</time>
      </trkpt>
      <trkpt lat="43.3651030" lon="-5.9112810">
        <ele>163.1</ele>
        <time>2018-09-15T14:15:53Z</time>
      </trkpt>
      <trkpt lat="43.3650890" lon="-5.9112540">
        <ele>163.1</ele>
        <time>2018-09-15T14:15:54Z</time>
      </trkpt>
      <trkpt lat="43.3650740" lon="-5.9112270">
        <ele>163.1</ele>
        <time>2018-09-15T14:15:55Z</time>
      </trkpt>
      <trkpt lat="43.3650570" lon="-5.9111950">
        <ele>163.0</ele>
        <time>2018-09-15T14:15:56Z</time>
      </trkpt>
      <trkpt lat="43.3650400" lon="-5.9111630">
        <ele>163.0</ele>
        <time>2018-09-15T14:15:57Z</time>
      </trkpt>
      <trkpt lat="43.3650260" lon="-5.9111380">
        <ele>163.0</ele>
        <time>2018-09-15T14:15:58Z</time>
      </trkpt>
      <trkpt lat="43.3650080" lon="-5.9111080">
        <ele>163.0</ele>
        <time>2018-09-15T14:15:59Z</time>
      </trkpt>
      <trkpt lat="43.3649880" lon="-5.9110810">
        <ele>163.1</ele>
        <time>2018-09-15T14:16:00Z</time>
      </trkpt>
      <trkpt lat="43.3649730" lon="-5.9110610">
        <ele>163.4</ele>
        <time>2018-09-15T14:16:01Z</time>
      </trkpt>
      <trkpt lat="43.3649520" lon="-5.9110360">
        <ele>163.7</ele>
        <time>2018-09-15T14:16:02Z</time>
      </trkpt>
      <trkpt lat="43.3649360" lon="-5.9110170">
        <ele>164.0</ele>
        <time>2018-09-15T14:16:03Z</time>
      </trkpt>
      <trkpt lat="43.3649160" lon="-5.9109930">
        <ele>164.3</ele>
        <time>2018-09-15T14:16:04Z</time>
      </trkpt>
      <trkpt lat="43.3649000" lon="-5.9109740">
        <ele>164.6</ele>
        <time>2018-09-15T14:16:05Z</time>
      </trkpt>
      <trkpt lat="43.3648840" lon="-5.9109560">
        <ele>164.9</ele>
        <time>2018-09-15T14:16:06Z</time>
      </trkpt>
      <trkpt lat="43.3648670" lon="-5.9109370">
        <ele>165.2</ele>
        <time>2018-09-15T14:16:07Z</time>
      </trkpt>
      <trkpt lat="43.3648540" lon="-5.9109240">
        <ele>165.4</ele>
        <time>2018-09-15T14:16:08Z</time>
      </trkpt>
      <trkpt lat="43.3648340" lon="-5.9109020">
        <ele>165.7</ele>
        <time>2018-09-15T14:16:09Z</time>
      </trkpt>
      <trkpt lat="43.3648180" lon="-5.9108840">
        <ele>165.9</ele>
        <time>2018-09-15T14:16:10Z</time>
      </trkpt>
      <trkpt lat="43.3647990" lon="-5.9108640">
        <ele>166.2</ele>
        <time>2018-09-15T14:16:11Z</time>
      </trkpt>
      <trkpt lat="43.3647750" lon="-5.9108390">
        <ele>166.6</ele>
        <time>2018-09-15T14:16:12Z</time>
      </trkpt>
      <trkpt lat="43.3647520" lon="-5.9108150">
        <ele>166.9</ele>
        <time>2018-09-15T14:16:13Z</time>
      </trkpt>
      <trkpt lat="43.3647340" lon="-5.9107960">
        <ele>167.2</ele>
        <time>2018-09-15T14:16:14Z</time>
      </trkpt>
      <trkpt lat="43.3647100" lon="-5.9107720">
        <ele>167.6</ele>
        <time>2018-09-15T14:16:15Z</time>
      </trkpt>
      <trkpt lat="43.3646910" lon="-5.9107540">
        <ele>167.9</ele>
        <time>2018-09-15T14:16:16Z</time>
      </trkpt>
      <trkpt lat="43.3646710" lon="-5.9107340">
        <ele>168.2</ele>
        <time>2018-09-15T14:16:17Z</time>
      </trkpt>
      <trkpt lat="43.3646460" lon="-5.9107120">
        <ele>168.6</ele>
        <time>2018-09-15T14:16:18Z</time>
      </trkpt>
      <trkpt lat="43.3646260" lon="-5.9106930">
        <ele>168.9</ele>
        <time>2018-09-15T14:16:19Z</time>
      </trkpt>
      <trkpt lat="43.3646000" lon="-5.9106720">
        <ele>169.3</ele>
        <time>2018-09-15T14:16:20Z</time>
      </trkpt>
      <trkpt lat="43.3645810" lon="-5.9106550">
        <ele>169.7</ele>
        <time>2018-09-15T14:16:21Z</time>
      </trkpt>
      <trkpt lat="43.3645610" lon="-5.9106360">
        <ele>170.0</ele>
        <time>2018-09-15T14:16:22Z</time>
      </trkpt>
      <trkpt lat="43.3645360" lon="-5.9106150">
        <ele>170.4</ele>
        <time>2018-09-15T14:16:23Z</time>
      </trkpt>
      <trkpt lat="43.3645160" lon="-5.9105970">
        <ele>170.8</ele>
        <time>2018-09-15T14:16:24Z</time>
      </trkpt>
      <trkpt lat="43.3644960" lon="-5.9105790">
        <ele>171.1</ele>
        <time>2018-09-15T14:16:25Z</time>
      </trkpt>
      <trkpt lat="43.3644750" lon="-5.9105590">
        <ele>171.4</ele>
        <time>2018-09-15T14:16:26Z</time>
      </trkpt>
      <trkpt lat="43.3644540" lon="-5.9105390">
        <ele>171.8</ele>
        <time>2018-09-15T14:16:27Z</time>
      </trkpt>
      <trkpt lat="43.3644280" lon="-5.9105150">
        <ele>172.2</ele>
        <time>2018-09-15T14:16:28Z</time>
      </trkpt>
      <trkpt lat="43.3644080" lon="-5.9104950">
        <ele>172.5</ele>
        <time>2018-09-15T14:16:29Z</time>
      </trkpt>
      <trkpt lat="43.3643870" lon="-5.9104730">
        <ele>172.8</ele>
        <time>2018-09-15T14:16:30Z</time>
      </trkpt>
      <trkpt lat="43.3643670" lon="-5.9104500">
        <ele>173.2</ele>
        <time>2018-09-15T14:16:31Z</time>
      </trkpt>
      <trkpt lat="43.3643440" lon="-5.9104220">
        <ele>173.5</ele>
        <time>2018-09-15T14:16:32Z</time>
      </trkpt>
      <trkpt lat="43.3643220" lon="-5.9103980">
        <ele>173.8</ele>
        <time>2018-09-15T14:16:33Z</time>
      </trkpt>
      <trkpt lat="43.3643060" lon="-5.9103750">
        <ele>174.1</ele>
        <time>2018-09-15T14:16:34Z</time>
      </trkpt>
      <trkpt lat="43.3642860" lon="-5.9103470">
        <ele>174.4</ele>
        <time>2018-09-15T14:16:35Z</time>
      </trkpt>
      <trkpt lat="43.3642700" lon="-5.9103240">
        <ele>174.7</ele>
        <time>2018-09-15T14:16:36Z</time>
      </trkpt>
      <trkpt lat="43.3642550" lon="-5.9102990">
        <ele>174.9</ele>
        <time>2018-09-15T14:16:37Z</time>
      </trkpt>
      <trkpt lat="43.3642360" lon="-5.9102690">
        <ele>175.2</ele>
        <time>2018-09-15T14:16:38Z</time>
      </trkpt>
      <trkpt lat="43.3642220" lon="-5.9102440">
        <ele>175.5</ele>
        <time>2018-09-15T14:16:39Z</time>
      </trkpt>
      <trkpt lat="43.3642080" lon="-5.9102170">
        <ele>175.8</ele>
        <time>2018-09-15T14:16:40Z</time>
      </trkpt>
      <trkpt lat="43.3641920" lon="-5.9101840">
        <ele>176.1</ele>
        <time>2018-09-15T14:16:41Z</time>
      </trkpt>
      <trkpt lat="43.3641800" lon="-5.9101560">
        <ele>176.3</ele>
        <time>2018-09-15T14:16:42Z</time>
      </trkpt>
      <trkpt lat="43.3641640" lon="-5.9101210">
        <ele>176.6</ele>
        <time>2018-09-15T14:16:43Z</time>
      </trkpt>
      <trkpt lat="43.3641520" lon="-5.9100870">
        <ele>176.9</ele>
        <time>2018-09-15T14:16:44Z</time>
      </trkpt>
      <trkpt lat="43.3641420" lon="-5.9100590">
        <ele>177.1</ele>
        <time>2018-09-15T14:16:45Z</time>
      </trkpt>
      <trkpt lat="43.3641300" lon="-5.9100230">
        <ele>177.4</ele>
        <time>2018-09-15T14:16:46Z</time>
      </trkpt>
      <trkpt lat="43.3641220" lon="-5.9099940">
        <ele>177.6</ele>
        <time>2018-09-15T14:16:47Z</time>
      </trkpt>
      <trkpt lat="43.3641100" lon="-5.9099590">
        <ele>177.9</ele>
        <time>2018-09-15T14:16:48Z</time>
      </trkpt>
      <trkpt lat="43.3641020" lon="-5.9099300">
        <ele>178.1</ele>
        <time>2018-09-15T14:16:49Z</time>
      </trkpt>
      <trkpt lat="43.3640920" lon="-5.9098940">
        <ele>178.4</ele>
        <time>2018-09-15T14:16:50Z</time>
      </trkpt>
      <trkpt lat="43.3640850" lon="-5.9098630">
        <ele>178.6</ele>
        <time>2018-09-15T14:16:51Z</time>
      </trkpt>
      <trkpt lat="43.3640770" lon="-5.9098250">
        <ele>178.9</ele>
        <time>2018-09-15T14:16:52Z</time>
      </trkpt>
      <trkpt lat="43.3640710" lon="-5.9097950">
        <ele>179.1</ele>
        <time>2018-09-15T14:16:53Z</time>
      </trkpt>
      <trkpt lat="43.3640650" lon="-5.9097630">
        <ele>179.4</ele>
        <time>2018-09-15T14:16:54Z</time>
      </trkpt>
      <trkpt lat="43.3640580" lon="-5.9097230">
        <ele>179.7</ele>
        <time>2018-09-15T14:16:55Z</time>
      </trkpt>
      <trkpt lat="43.3640530" lon="-5.9096910">
        <ele>180.0</ele>
        <time>2018-09-15T14:16:56Z</time>
      </trkpt>
      <trkpt lat="43.3640480" lon="-5.9096570">
        <ele>180.3</ele>
        <time>2018-09-15T14:16:57Z</time>
      </trkpt>
      <trkpt lat="43.3640420" lon="-5.9096160">
        <ele>180.6</ele>
        <time>2018-09-15T14:16:58Z</time>
      </trkpt>
      <trkpt lat="43.3640390" lon="-5.9095820">
        <ele>180.9</ele>
        <time>2018-09-15T14:16:59Z</time>
      </trkpt>
      <trkpt lat="43.3640350" lon="-5.9095470">
        <ele>181.2</ele>
        <time>2018-09-15T14:17:00Z</time>
      </trkpt>
      <trkpt lat="43.3640300" lon="-5.9095050">
        <ele>181.6</ele>
        <time>2018-09-15T14:17:01Z</time>
      </trkpt>
      <trkpt lat="43.3640260" lon="-5.9094650">
        <ele>181.9</ele>
        <time>2018-09-15T14:17:02Z</time>
      </trkpt>
      <trkpt lat="43.3640220" lon="-5.9094270">
        <ele>182.0</ele>
        <time>2018-09-15T14:17:03Z</time>
      </trkpt>
      <trkpt lat="43.3640200" lon="-5.9093970">
        <ele>181.9</ele>
        <time>2018-09-15T14:17:04Z</time>
      </trkpt>
      <trkpt lat="43.3640170" lon="-5.9093650">
        <ele>181.9</ele>
        <time>2018-09-15T14:17:05Z</time>
      </trkpt>
      <trkpt lat="43.3640140" lon="-5.9093260">
        <ele>181.9</ele>
        <time>2018-09-15T14:17:06Z</time>
      </trkpt>
      <trkpt lat="43.3640120" lon="-5.9092940">
        <ele>181.9</ele>
        <time>2018-09-15T14:17:07Z</time>
      </trkpt>
      <trkpt lat="43.3640090" lon="-5.9092590">
        <ele>181.9</ele>
        <time>2018-09-15T14:17:08Z</time>
      </trkpt>
      <trkpt lat="43.3640050" lon="-5.9092170">
        <ele>181.8</ele>
        <time>2018-09-15T14:17:09Z</time>
      </trkpt>
      <trkpt lat="43.3640020" lon="-5.9091820">
        <ele>181.8</ele>
        <time>2018-09-15T14:17:10Z</time>
      </trkpt>
      <trkpt lat="43.3639990" lon="-5.9091480">
        <ele>181.8</ele>
        <time>2018-09-15T14:17:11Z</time>
      </trkpt>
      <trkpt lat="43.3639960" lon="-5.9091070">
        <ele>181.9</ele>
        <time>2018-09-15T14:17:12Z</time>
      </trkpt>
      <trkpt lat="43.3639940" lon="-5.9090780">
        <ele>181.9</ele>
        <time>2018-09-15T14:17:13Z</time>
      </trkpt>
      <trkpt lat="43.3639890" lon="-5.9090350">
        <ele>181.9</ele>
        <time>2018-09-15T14:17:14Z</time>
      </trkpt>
      <trkpt lat="43.3639850" lon="-5.9089950">
        <ele>181.9</ele>
        <time>2018-09-15T14:17:15Z</time>
      </trkpt>
      <trkpt lat="43.3639800" lon="-5.9089560">
        <ele>181.9</ele>
        <time>2018-09-15T14:17:16Z</time>
      </trkpt>
      <trkpt lat="43.3639750" lon="-5.9089250">
        <ele>182.0</ele>
        <time>2018-09-15T14:17:17Z</time>
      </trkpt>
      <trkpt lat="43.3639700" lon="-5.9088910">
        <ele>182.0</ele>
        <time>2018-09-15T14:17:18Z</time>
      </trkpt>
      <trkpt lat="43.3639650" lon="-5.9088560">
        <ele>182.0</ele>
        <time>2018-09-15T14:17:19Z</time>
      </trkpt>
      <trkpt lat="43.3639580" lon="-5.9088150">
        <ele>182.0</ele>
        <time>2018-09-15T14:17:20Z</time>
      </trkpt>
      <trkpt lat="43.3639520" lon="-5.9087840">
        <ele>182.0</ele>
        <time>2018-09-15T14:17:21Z</time>
      </trkpt>
      <trkpt lat="43.3639450" lon="-5.9087510">
        <ele>182.1</ele>
        <time>2018-09-15T14:17:22Z</time>
      </trkpt>
      <trkpt lat="43.3639380" lon="-5.9087140">
        <ele>182.1</ele>
        <time>2018-09-15T14:17:23Z</time>
      </trkpt>
      <trkpt lat="43.3639290" lon="-5.9086730">
        <ele>182.1</ele>
        <time>2018-09-15T14:17:24Z</time>
      </trkpt>
      <trkpt lat="43.3639200" lon="-5.9086340">
        <ele>182.1</ele>
        <time>2018-09-15T14:17:25Z</time>
      </trkpt>
      <trkpt lat="43.3639120" lon="-5.9086040">
        <ele>182.2</ele>
        <time>2018-09-15T14:17:26Z</time>
      </trkpt>
      <trkpt lat="43.3639020" lon="-5.9085680">
        <ele>182.2</ele>
        <time>2018-09-15T14:17:27Z</time>
      </trkpt>
      <trkpt lat="43.3638940" lon="-5.9085380">
        <ele>182.2</ele>
        <time>2018-09-15T14:17:28Z</time>
      </trkpt>
      <trkpt lat="43.3638830" lon="-5.9085000">
        <ele>182.3</ele>
        <time>2018-09-15T14:17:29Z</time>
      </trkpt>
      <trkpt lat="43.3638720" lon="-5.9084630">
        <ele>182.3</ele>
        <time>2018-09-15T14:17:30Z</time>
      </trkpt>
      <trkpt lat="43.3638620" lon="-5.9084330">
        <ele>182.4</ele>
        <time>2018-09-15T14:17:31Z</time>
      </trkpt>
      <trkpt lat="43.3638520" lon="-5.9084050">
        <ele>182.4</ele>
        <time>2018-09-15T14:17:32Z</time>
      </trkpt>
      <trkpt lat="43.3638380" lon="-5.9083650">
        <ele>182.4</ele>
        <time>2018-09-15T14:17:33Z</time>
      </trkpt>
      <trkpt lat="43.3638230" lon="-5.9083250">
        <ele>182.5</ele>
        <time>2018-09-15T14:17:34Z</time>
      </trkpt>
      <trkpt lat="43.3638110" lon="-5.9082920">
        <ele>182.5</ele>
        <time>2018-09-15T14:17:35Z</time>
      </trkpt>
      <trkpt lat="43.3637980" lon="-5.9082600">
        <ele>182.5</ele>
        <time>2018-09-15T14:17:36Z</time>
      </trkpt>
      <trkpt lat="43.3637820" lon="-5.9082220">
        <ele>182.6</ele>
        <time>2018-09-15T14:17:37Z</time>
      </trkpt>
      <trkpt lat="43.3637670" lon="-5.9081870">
        <ele>182.6</ele>
        <time>2018-09-15T14:17:38Z</time>
      </trkpt>
      <trkpt lat="43.3637530" lon="-5.9081590">
        <ele>182.7</ele>
        <time>2018-09-15T14:17:39Z</time>
      </trkpt>
      <trkpt lat="43.3637380" lon="-5.9081290">
        <ele>182.8</ele>
        <time>2018-09-15T14:17:40Z</time>
      </trkpt>
      <trkpt lat="43.3637190" lon="-5.9080940">
        <ele>182.8</ele>
        <time>2018-09-15T14:17:41Z</time>
      </trkpt>
      <trkpt lat="43.3636990" lon="-5.9080590">
        <ele>182.9</ele>
        <time>2018-09-15T14:17:42Z</time>
      </trkpt>
      <trkpt lat="43.3636820" lon="-5.9080280">
        <ele>183.1</ele>
        <time>2018-09-15T14:17:43Z</time>
      </trkpt>
      <trkpt lat="43.3636600" lon="-5.9079930">
        <ele>183.1</ele>
        <time>2018-09-15T14:17:44Z</time>
      </trkpt>
      <trkpt lat="43.3636430" lon="-5.9079620">
        <ele>183.2</ele>
        <time>2018-09-15T14:17:45Z</time>
      </trkpt>
      <trkpt lat="43.3635960" lon="-5.9078650">
        <ele>183.3</ele>
        <time>2018-09-15T14:17:46Z</time>
      </trkpt>
      <trkpt lat="43.3635710" lon="-5.9078210">
        <ele>183.2</ele>
        <time>2018-09-15T14:17:47Z</time>
      </trkpt>
      <trkpt lat="43.3635450" lon="-5.9077880">
        <ele>183.2</ele>
        <time>2018-09-15T14:17:48Z</time>
      </trkpt>
      <trkpt lat="43.3635130" lon="-5.9077510">
        <ele>183.1</ele>
        <time>2018-09-15T14:17:49Z</time>
      </trkpt>
      <trkpt lat="43.3634790" lon="-5.9077110">
        <ele>183.1</ele>
        <time>2018-09-15T14:17:50Z</time>
      </trkpt>
      <trkpt lat="43.3634440" lon="-5.9076710">
        <ele>182.9</ele>
        <time>2018-09-15T14:17:51Z</time>
      </trkpt>
      <trkpt lat="43.3634060" lon="-5.9076430">
        <ele>182.8</ele>
        <time>2018-09-15T14:17:52Z</time>
      </trkpt>
      <trkpt lat="43.3633610" lon="-5.9076130">
        <ele>182.7</ele>
        <time>2018-09-15T14:17:53Z</time>
      </trkpt>
      <trkpt lat="43.3633160" lon="-5.9075770">
        <ele>182.6</ele>
        <time>2018-09-15T14:17:54Z</time>
      </trkpt>
      <trkpt lat="43.3632720" lon="-5.9075440">
        <ele>182.5</ele>
        <time>2018-09-15T14:17:55Z</time>
      </trkpt>
      <trkpt lat="43.3632370" lon="-5.9075030">
        <ele>182.4</ele>
        <time>2018-09-15T14:17:56Z</time>
      </trkpt>
      <trkpt lat="43.3631920" lon="-5.9074680">
        <ele>182.4</ele>
        <time>2018-09-15T14:17:57Z</time>
      </trkpt>
      <trkpt lat="43.3631470" lon="-5.9074290">
        <ele>182.3</ele>
        <time>2018-09-15T14:17:58Z</time>
      </trkpt>
      <trkpt lat="43.3631030" lon="-5.9073970">
        <ele>182.2</ele>
        <time>2018-09-15T14:17:59Z</time>
      </trkpt>
      <trkpt lat="43.3630610" lon="-5.9073770">
        <ele>182.2</ele>
        <time>2018-09-15T14:18:00Z</time>
      </trkpt>
      <trkpt lat="43.3630190" lon="-5.9073510">
        <ele>182.1</ele>
        <time>2018-09-15T14:18:01Z</time>
      </trkpt>
      <trkpt lat="43.3629740" lon="-5.9073150">
        <ele>182.1</ele>
        <time>2018-09-15T14:18:02Z</time>
      </trkpt>
      <trkpt lat="43.3629270" lon="-5.9072890">
        <ele>182.1</ele>
        <time>2018-09-15T14:18:03Z</time>
      </trkpt>
      <trkpt lat="43.3628830" lon="-5.9072560">
        <ele>182.0</ele>
        <time>2018-09-15T14:18:04Z</time>
      </trkpt>
      <trkpt lat="43.3628360" lon="-5.9072260">
        <ele>181.9</ele>
        <time>2018-09-15T14:18:05Z</time>
      </trkpt>
      <trkpt lat="43.3628020" lon="-5.9072050">
        <ele>181.8</ele>
        <time>2018-09-15T14:18:06Z</time>
      </trkpt>
      <trkpt lat="43.3627630" lon="-5.9071700">
        <ele>181.7</ele>
        <time>2018-09-15T14:18:07Z</time>
      </trkpt>
      <trkpt lat="43.3627170" lon="-5.9071360">
        <ele>181.6</ele>
        <time>2018-09-15T14:18:08Z</time>
      </trkpt>
      <trkpt lat="43.3626670" lon="-5.9070940">
        <ele>181.5</ele>
        <time>2018-09-15T14:18:09Z</time>
      </trkpt>
      <trkpt lat="43.3626150" lon="-5.9070650">
        <ele>181.4</ele>
        <time>2018-09-15T14:18:10Z</time>
      </trkpt>
      <trkpt lat="43.3625660" lon="-5.9070090">
        <ele>181.3</ele>
        <time>2018-09-15T14:18:11Z</time>
      </trkpt>
      <trkpt lat="43.3625140" lon="-5.9069700">
        <ele>181.2</ele>
        <time>2018-09-15T14:18:12Z</time>
      </trkpt>
      <trkpt lat="43.3624560" lon="-5.9069320">
        <ele>181.0</ele>
        <time>2018-09-15T14:18:13Z</time>
      </trkpt>
      <trkpt lat="43.3624060" lon="-5.9068960">
        <ele>180.8</ele>
        <time>2018-09-15T14:18:14Z</time>
      </trkpt>
      <trkpt lat="43.3623540" lon="-5.9068610">
        <ele>180.6</ele>
        <time>2018-09-15T14:18:15Z</time>
      </trkpt>
      <trkpt lat="43.3622920" lon="-5.9068220">
        <ele>180.4</ele>
        <time>2018-09-15T14:18:16Z</time>
      </trkpt>
      <trkpt lat="43.3622320" lon="-5.9067820">
        <ele>180.2</ele>
        <time>2018-09-15T14:18:17Z</time>
      </trkpt>
      <trkpt lat="43.3621700" lon="-5.9067460">
        <ele>179.9</ele>
        <time>2018-09-15T14:18:18Z</time>
      </trkpt>
      <trkpt lat="43.3621040" lon="-5.9067080">
        <ele>179.7</ele>
        <time>2018-09-15T14:18:19Z</time>
      </trkpt>
      <trkpt lat="43.3620360" lon="-5.9066710">
        <ele>179.5</ele>
        <time>2018-09-15T14:18:20Z</time>
      </trkpt>
      <trkpt lat="43.3619740" lon="-5.9066230">
        <ele>179.4</ele>
        <time>2018-09-15T14:18:21Z</time>
      </trkpt>
      <trkpt lat="43.3619150" lon="-5.9065750">
        <ele>179.2</ele>
        <time>2018-09-15T14:18:22Z</time>
      </trkpt>
      <trkpt lat="43.3618470" lon="-5.9065300">
        <ele>179.0</ele>
        <time>2018-09-15T14:18:23Z</time>
      </trkpt>
      <trkpt lat="43.3617870" lon="-5.9064710">
        <ele>178.8</ele>
        <time>2018-09-15T14:18:24Z</time>
      </trkpt>
      <trkpt lat="43.3617160" lon="-5.9064360">
        <ele>178.7</ele>
        <time>2018-09-15T14:18:25Z</time>
      </trkpt>
      <trkpt lat="43.3616520" lon="-5.9063860">
        <ele>178.5</ele>
        <time>2018-09-15T14:18:26Z</time>
      </trkpt>
      <trkpt lat="43.3615890" lon="-5.9063440">
        <ele>178.4</ele>
        <time>2018-09-15T14:18:27Z</time>
      </trkpt>
      <trkpt lat="43.3615300" lon="-5.9062940">
        <ele>178.3</ele>
        <time>2018-09-15T14:18:28Z</time>
      </trkpt>
      <trkpt lat="43.3614680" lon="-5.9062340">
        <ele>178.2</ele>
        <time>2018-09-15T14:18:29Z</time>
      </trkpt>
      <trkpt lat="43.3614010" lon="-5.9061860">
        <ele>178.1</ele>
        <time>2018-09-15T14:18:30Z</time>
      </trkpt>
      <trkpt lat="43.3613350" lon="-5.9061380">
        <ele>178.0</ele>
        <time>2018-09-15T14:18:31Z</time>
      </trkpt>
      <trkpt lat="43.3612690" lon="-5.9060990">
        <ele>177.9</ele>
        <time>2018-09-15T14:18:32Z</time>
      </trkpt>
      <trkpt lat="43.3612070" lon="-5.9060600">
        <ele>177.9</ele>
        <time>2018-09-15T14:18:33Z</time>
      </trkpt>
      <trkpt lat="43.3611510" lon="-5.9060170">
        <ele>177.9</ele>
        <time>2018-09-15T14:18:34Z</time>
      </trkpt>
      <trkpt lat="43.3610930" lon="-5.9059750">
        <ele>177.9</ele>
        <time>2018-09-15T14:18:35Z</time>
      </trkpt>
      <trkpt lat="43.3610390" lon="-5.9059270">
        <ele>177.9</ele>
        <time>2018-09-15T14:18:36Z</time>
      </trkpt>
      <trkpt lat="43.3609900" lon="-5.9058740">
        <ele>178.0</ele>
        <time>2018-09-15T14:18:37Z</time>
      </trkpt>
      <trkpt lat="43.3609400" lon="-5.9058150">
        <ele>178.0</ele>
        <time>2018-09-15T14:18:38Z</time>
      </trkpt>
      <trkpt lat="43.3608920" lon="-5.9057620">
        <ele>178.0</ele>
        <time>2018-09-15T14:18:39Z</time>
      </trkpt>
      <trkpt lat="43.3608520" lon="-5.9056850">
        <ele>179.0</ele>
        <time>2018-09-15T14:18:40Z</time>
      </trkpt>
      <trkpt lat="43.3608170" lon="-5.9056060">
        <ele>181.4</ele>
        <time>2018-09-15T14:18:41Z</time>
      </trkpt>
      <trkpt lat="43.3607840" lon="-5.9055200">
        <ele>184.0</ele>
        <time>2018-09-15T14:18:42Z</time>
      </trkpt>
      <trkpt lat="43.3607670" lon="-5.9054300">
        <ele>185.0</ele>
        <time>2018-09-15T14:18:43Z</time>
      </trkpt>
      <trkpt lat="43.3607470" lon="-5.9053300">
        <ele>185.0</ele>
        <time>2018-09-15T14:18:44Z</time>
      </trkpt>
      <trkpt lat="43.3607300" lon="-5.9052350">
        <ele>185.0</ele>
        <time>2018-09-15T14:18:45Z</time>
      </trkpt>
      <trkpt lat="43.3607120" lon="-5.9051360">
        <ele>184.6</ele>
        <time>2018-09-15T14:18:46Z</time>
      </trkpt>
      <trkpt lat="43.3606850" lon="-5.9050370">
        <ele>184.1</ele>
        <time>2018-09-15T14:18:47Z</time>
      </trkpt>
      <trkpt lat="43.3606650" lon="-5.9049280">
        <ele>183.4</ele>
        <time>2018-09-15T14:18:48Z</time>
      </trkpt>
      <trkpt lat="43.3606430" lon="-5.9048230">
        <ele>182.7</ele>
        <time>2018-09-15T14:18:49Z</time>
      </trkpt>
      <trkpt lat="43.3606290" lon="-5.9047130">
        <ele>182.0</ele>
        <time>2018-09-15T14:18:50Z</time>
      </trkpt>
      <trkpt lat="43.3606040" lon="-5.9046020">
        <ele>181.0</ele>
        <time>2018-09-15T14:18:51Z</time>
      </trkpt>
      <trkpt lat="43.3605910" lon="-5.9044870">
        <ele>179.9</ele>
        <time>2018-09-15T14:18:52Z</time>
      </trkpt>
      <trkpt lat="43.3605690" lon="-5.9043730">
        <ele>178.8</ele>
        <time>2018-09-15T14:18:53Z</time>
      </trkpt>
      <trkpt lat="43.3605420" lon="-5.9042590">
        <ele>177.9</ele>
        <time>2018-09-15T14:18:54Z</time>
      </trkpt>
      <trkpt lat="43.3605210" lon="-5.9041400">
        <ele>177.2</ele>
        <time>2018-09-15T14:18:55Z</time>
      </trkpt>
      <trkpt lat="43.3605080" lon="-5.9040170">
        <ele>176.2</ele>
        <time>2018-09-15T14:18:56Z</time>
      </trkpt>
      <trkpt lat="43.3604820" lon="-5.9039040">
        <ele>175.3</ele>
        <time>2018-09-15T14:18:57Z</time>
      </trkpt>
      <trkpt lat="43.3604520" lon="-5.9038010">
        <ele>174.5</ele>
        <time>2018-09-15T14:18:58Z</time>
      </trkpt>
      <trkpt lat="43.3604230" lon="-5.9036750">
        <ele>173.9</ele>
        <time>2018-09-15T14:18:59Z</time>
      </trkpt>
      <trkpt lat="43.3603980" lon="-5.9035520">
        <ele>173.5</ele>
        <time>2018-09-15T14:19:01Z</time>
      </trkpt>
      <trkpt lat="43.3603720" lon="-5.9034320">
        <ele>173.1</ele>
        <time>2018-09-15T14:19:02Z</time>
      </trkpt>
      <trkpt lat="43.3603460" lon="-5.9033110">
        <ele>172.7</ele>
        <time>2018-09-15T14:19:03Z</time>
      </trkpt>
      <trkpt lat="43.3603120" lon="-5.9032000">
        <ele>172.5</ele>
        <time>2018-09-15T14:19:04Z</time>
      </trkpt>
      <trkpt lat="43.3603000" lon="-5.9030690">
        <ele>172.4</ele>
        <time>2018-09-15T14:19:05Z</time>
      </trkpt>
      <trkpt lat="43.3602850" lon="-5.9029380">
        <ele>172.3</ele>
        <time>2018-09-15T14:19:06Z</time>
      </trkpt>
      <trkpt lat="43.3602620" lon="-5.9028230">
        <ele>172.1</ele>
        <time>2018-09-15T14:19:07Z</time>
      </trkpt>
      <trkpt lat="43.3602470" lon="-5.9027020">
        <ele>172.0</ele>
        <time>2018-09-15T14:19:08Z</time>
      </trkpt>
      <trkpt lat="43.3602260" lon="-5.9025840">
        <ele>171.9</ele>
        <time>2018-09-15T14:19:09Z</time>
      </trkpt>
      <trkpt lat="43.3602030" lon="-5.9024680">
        <ele>171.8</ele>
        <time>2018-09-15T14:19:10Z</time>
      </trkpt>
      <trkpt lat="43.3601850" lon="-5.9023530">
        <ele>171.6</ele>
        <time>2018-09-15T14:19:11Z</time>
      </trkpt>
      <trkpt lat="43.3601760" lon="-5.9022440">
        <ele>171.5</ele>
        <time>2018-09-15T14:19:12Z</time>
      </trkpt>
      <trkpt lat="43.3601610" lon="-5.9021460">
        <ele>171.4</ele>
        <time>2018-09-15T14:19:13Z</time>
      </trkpt>
      <trkpt lat="43.3601310" lon="-5.9019270">
        <ele>171.3</ele>
        <time>2018-09-15T14:19:14Z</time>
      </trkpt>
      <trkpt lat="43.3601270" lon="-5.9018490">
        <ele>171.3</ele>
        <time>2018-09-15T14:19:15Z</time>
      </trkpt>
      <trkpt lat="43.3601220" lon="-5.9017710">
        <ele>171.2</ele>
        <time>2018-09-15T14:19:16Z</time>
      </trkpt>
      <trkpt lat="43.3601130" lon="-5.9016160">
        <ele>171.2</ele>
        <time>2018-09-15T14:19:17Z</time>
      </trkpt>
      <trkpt lat="43.3601160" lon="-5.9015440">
        <ele>171.2</ele>
        <time>2018-09-15T14:19:18Z</time>
      </trkpt>
      <trkpt lat="43.3601180" lon="-5.9014720">
        <ele>171.1</ele>
        <time>2018-09-15T14:19:19Z</time>
      </trkpt>
      <trkpt lat="43.3601220" lon="-5.9013270">
        <ele>171.1</ele>
        <time>2018-09-15T14:19:20Z</time>
      </trkpt>
      <trkpt lat="43.3601140" lon="-5.9012340">
        <ele>171.0</ele>
        <time>2018-09-15T14:19:21Z</time>
      </trkpt>
      <trkpt lat="43.3601060" lon="-5.9011530">
        <ele>171.0</ele>
        <time>2018-09-15T14:19:22Z</time>
      </trkpt>
      <trkpt lat="43.3601020" lon="-5.9010740">
        <ele>170.9</ele>
        <time>2018-09-15T14:19:23Z</time>
      </trkpt>
      <trkpt lat="43.3600970" lon="-5.9009910">
        <ele>170.8</ele>
        <time>2018-09-15T14:19:24Z</time>
      </trkpt>
      <trkpt lat="43.3600900" lon="-5.9009130">
        <ele>170.8</ele>
        <time>2018-09-15T14:19:25Z</time>
      </trkpt>
      <trkpt lat="43.3600930" lon="-5.9008350">
        <ele>170.7</ele>
        <time>2018-09-15T14:19:26Z</time>
      </trkpt>
      <trkpt lat="43.3600920" lon="-5.9007540">
        <ele>170.6</ele>
        <time>2018-09-15T14:19:27Z</time>
      </trkpt>
      <trkpt lat="43.3600850" lon="-5.9006860">
        <ele>170.5</ele>
        <time>2018-09-15T14:19:28Z</time>
      </trkpt>
      <trkpt lat="43.3600810" lon="-5.9006000">
        <ele>170.4</ele>
        <time>2018-09-15T14:19:29Z</time>
      </trkpt>
      <trkpt lat="43.3600750" lon="-5.9005210">
        <ele>170.3</ele>
        <time>2018-09-15T14:19:30Z</time>
      </trkpt>
      <trkpt lat="43.3600710" lon="-5.9004480">
        <ele>170.3</ele>
        <time>2018-09-15T14:19:31Z</time>
      </trkpt>
      <trkpt lat="43.3600630" lon="-5.9003700">
        <ele>170.2</ele>
        <time>2018-09-15T14:19:32Z</time>
      </trkpt>
      <trkpt lat="43.3600630" lon="-5.9002880">
        <ele>170.1</ele>
        <time>2018-09-15T14:19:33Z</time>
      </trkpt>
      <trkpt lat="43.3600560" lon="-5.9002120">
        <ele>170.1</ele>
        <time>2018-09-15T14:19:34Z</time>
      </trkpt>
      <trkpt lat="43.3600530" lon="-5.9001410">
        <ele>170.0</ele>
        <time>2018-09-15T14:19:35Z</time>
      </trkpt>
      <trkpt lat="43.3600450" lon="-5.9000650">
        <ele>170.1</ele>
        <time>2018-09-15T14:19:36Z</time>
      </trkpt>
      <trkpt lat="43.3600370" lon="-5.8999920">
        <ele>170.1</ele>
        <time>2018-09-15T14:19:37Z</time>
      </trkpt>
      <trkpt lat="43.3600350" lon="-5.8999150">
        <ele>170.2</ele>
        <time>2018-09-15T14:19:38Z</time>
      </trkpt>
      <trkpt lat="43.3600370" lon="-5.8998400">
        <ele>170.3</ele>
        <time>2018-09-15T14:19:39Z</time>
      </trkpt>
      <trkpt lat="43.3600300" lon="-5.8997730">
        <ele>170.5</ele>
        <time>2018-09-15T14:19:40Z</time>
      </trkpt>
      <trkpt lat="43.3600280" lon="-5.8996960">
        <ele>170.6</ele>
        <time>2018-09-15T14:19:41Z</time>
      </trkpt>
      <trkpt lat="43.3600220" lon="-5.8996270">
        <ele>170.7</ele>
        <time>2018-09-15T14:19:42Z</time>
      </trkpt>
      <trkpt lat="43.3600150" lon="-5.8995590">
        <ele>170.8</ele>
        <time>2018-09-15T14:19:43Z</time>
      </trkpt>
      <trkpt lat="43.3600180" lon="-5.8994820">
        <ele>170.9</ele>
        <time>2018-09-15T14:19:44Z</time>
      </trkpt>
      <trkpt lat="43.3600140" lon="-5.8994120">
        <ele>171.0</ele>
        <time>2018-09-15T14:19:45Z</time>
      </trkpt>
      <trkpt lat="43.3600170" lon="-5.8993340">
        <ele>171.1</ele>
        <time>2018-09-15T14:19:46Z</time>
      </trkpt>
      <trkpt lat="43.3600170" lon="-5.8992610">
        <ele>171.2</ele>
        <time>2018-09-15T14:19:47Z</time>
      </trkpt>
      <trkpt lat="43.3600200" lon="-5.8991880">
        <ele>171.3</ele>
        <time>2018-09-15T14:19:48Z</time>
      </trkpt>
      <trkpt lat="43.3600220" lon="-5.8991270">
        <ele>171.4</ele>
        <time>2018-09-15T14:19:49Z</time>
      </trkpt>
      <trkpt lat="43.3600190" lon="-5.8990580">
        <ele>171.5</ele>
        <time>2018-09-15T14:19:50Z</time>
      </trkpt>
      <trkpt lat="43.3600180" lon="-5.8989860">
        <ele>171.6</ele>
        <time>2018-09-15T14:19:51Z</time>
      </trkpt>
      <trkpt lat="43.3600130" lon="-5.8989190">
        <ele>171.7</ele>
        <time>2018-09-15T14:19:52Z</time>
      </trkpt>
      <trkpt lat="43.3600110" lon="-5.8988550">
        <ele>171.8</ele>
        <time>2018-09-15T14:19:53Z</time>
      </trkpt>
      <trkpt lat="43.3600080" lon="-5.8987920">
        <ele>171.9</ele>
        <time>2018-09-15T14:19:54Z</time>
      </trkpt>
      <trkpt lat="43.3600040" lon="-5.8987240">
        <ele>171.9</ele>
        <time>2018-09-15T14:19:55Z</time>
      </trkpt>
      <trkpt lat="43.3600010" lon="-5.8986590">
        <ele>172.0</ele>
        <time>2018-09-15T14:19:56Z</time>
      </trkpt>
      <trkpt lat="43.3599960" lon="-5.8985870">
        <ele>172.0</ele>
        <time>2018-09-15T14:19:57Z</time>
      </trkpt>
      <trkpt lat="43.3599960" lon="-5.8985210">
        <ele>172.0</ele>
        <time>2018-09-15T14:19:58Z</time>
      </trkpt>
      <trkpt lat="43.3599910" lon="-5.8984500">
        <ele>172.1</ele>
        <time>2018-09-15T14:19:59Z</time>
      </trkpt>
      <trkpt lat="43.3599870" lon="-5.8983810">
        <ele>172.1</ele>
        <time>2018-09-15T14:20:00Z</time>
      </trkpt>
      <trkpt lat="43.3599820" lon="-5.8983090">
        <ele>172.1</ele>
        <time>2018-09-15T14:20:01Z</time>
      </trkpt>
      <trkpt lat="43.3599670" lon="-5.8982420">
        <ele>172.1</ele>
        <time>2018-09-15T14:20:02Z</time>
      </trkpt>
      <trkpt lat="43.3599590" lon="-5.8981710">
        <ele>172.1</ele>
        <time>2018-09-15T14:20:03Z</time>
      </trkpt>
      <trkpt lat="43.3599430" lon="-5.8980990">
        <ele>172.1</ele>
        <time>2018-09-15T14:20:04Z</time>
      </trkpt>
      <trkpt lat="43.3599310" lon="-5.8980340">
        <ele>172.1</ele>
        <time>2018-09-15T14:20:05Z</time>
      </trkpt>
      <trkpt lat="43.3599110" lon="-5.8979650">
        <ele>172.2</ele>
        <time>2018-09-15T14:20:06Z</time>
      </trkpt>
      <trkpt lat="43.3598950" lon="-5.8979000">
        <ele>172.2</ele>
        <time>2018-09-15T14:20:07Z</time>
      </trkpt>
      <trkpt lat="43.3598740" lon="-5.8978340">
        <ele>172.3</ele>
        <time>2018-09-15T14:20:08Z</time>
      </trkpt>
      <trkpt lat="43.3598560" lon="-5.8977650">
        <ele>172.3</ele>
        <time>2018-09-15T14:20:09Z</time>
      </trkpt>
      <trkpt lat="43.3598250" lon="-5.8977040">
        <ele>172.4</ele>
        <time>2018-09-15T14:20:10Z</time>
      </trkpt>
      <trkpt lat="43.3598070" lon="-5.8976340">
        <ele>172.5</ele>
        <time>2018-09-15T14:20:11Z</time>
      </trkpt>
      <trkpt lat="43.3597850" lon="-5.8975770">
        <ele>172.5</ele>
        <time>2018-09-15T14:20:12Z</time>
      </trkpt>
      <trkpt lat="43.3597660" lon="-5.8975090">
        <ele>172.6</ele>
        <time>2018-09-15T14:20:13Z</time>
      </trkpt>
      <trkpt lat="43.3597410" lon="-5.8974430">
        <ele>172.7</ele>
        <time>2018-09-15T14:20:14Z</time>
      </trkpt>
      <trkpt lat="43.3597210" lon="-5.8973820">
        <ele>172.7</ele>
        <time>2018-09-15T14:20:15Z</time>
      </trkpt>
      <trkpt lat="43.3597040" lon="-5.8973220">
        <ele>172.8</ele>
        <time>2018-09-15T14:20:16Z</time>
      </trkpt>
      <trkpt lat="43.3596820" lon="-5.8972580">
        <ele>172.9</ele>
        <time>2018-09-15T14:20:17Z</time>
      </trkpt>
      <trkpt lat="43.3596610" lon="-5.8971930">
        <ele>172.9</ele>
        <time>2018-09-15T14:20:18Z</time>
      </trkpt>
      <trkpt lat="43.3596410" lon="-5.8971390">
        <ele>173.0</ele>
        <time>2018-09-15T14:20:19Z</time>
      </trkpt>
      <trkpt lat="43.3596230" lon="-5.8970650">
        <ele>173.0</ele>
        <time>2018-09-15T14:20:20Z</time>
      </trkpt>
      <trkpt lat="43.3596020" lon="-5.8970010">
        <ele>173.0</ele>
        <time>2018-09-15T14:20:21Z</time>
      </trkpt>
      <trkpt lat="43.3595820" lon="-5.8969300">
        <ele>173.0</ele>
        <time>2018-09-15T14:20:22Z</time>
      </trkpt>
      <trkpt lat="43.3595650" lon="-5.8968590">
        <ele>173.4</ele>
        <time>2018-09-15T14:20:23Z</time>
      </trkpt>
      <trkpt lat="43.3595440" lon="-5.8967870">
        <ele>173.8</ele>
        <time>2018-09-15T14:20:24Z</time>
      </trkpt>
      <trkpt lat="43.3595260" lon="-5.8967180">
        <ele>174.1</ele>
        <time>2018-09-15T14:20:25Z</time>
      </trkpt>
      <trkpt lat="43.3595100" lon="-5.8966490">
        <ele>174.5</ele>
        <time>2018-09-15T14:20:26Z</time>
      </trkpt>
      <trkpt lat="43.3594840" lon="-5.8965820">
        <ele>174.9</ele>
        <time>2018-09-15T14:20:27Z</time>
      </trkpt>
      <trkpt lat="43.3594580" lon="-5.8965120">
        <ele>175.0</ele>
        <time>2018-09-15T14:20:28Z</time>
      </trkpt>
      <trkpt lat="43.3594390" lon="-5.8964370">
        <ele>175.0</ele>
        <time>2018-09-15T14:20:29Z</time>
      </trkpt>
      <trkpt lat="43.3594170" lon="-5.8963650">
        <ele>175.0</ele>
        <time>2018-09-15T14:20:30Z</time>
      </trkpt>
      <trkpt lat="43.3593980" lon="-5.8962930">
        <ele>175.0</ele>
        <time>2018-09-15T14:20:31Z</time>
      </trkpt>
      <trkpt lat="43.3593720" lon="-5.8962220">
        <ele>175.0</ele>
        <time>2018-09-15T14:20:32Z</time>
      </trkpt>
      <trkpt lat="43.3593450" lon="-5.8961600">
        <ele>175.1</ele>
        <time>2018-09-15T14:20:33Z</time>
      </trkpt>
      <trkpt lat="43.3593250" lon="-5.8960850">
        <ele>175.1</ele>
        <time>2018-09-15T14:20:34Z</time>
      </trkpt>
      <trkpt lat="43.3593080" lon="-5.8960100">
        <ele>175.2</ele>
        <time>2018-09-15T14:20:35Z</time>
      </trkpt>
      <trkpt lat="43.3592840" lon="-5.8959360">
        <ele>175.2</ele>
        <time>2018-09-15T14:20:36Z</time>
      </trkpt>
      <trkpt lat="43.3592650" lon="-5.8958720">
        <ele>175.3</ele>
        <time>2018-09-15T14:20:37Z</time>
      </trkpt>
      <trkpt lat="43.3592510" lon="-5.8957990">
        <ele>175.3</ele>
        <time>2018-09-15T14:20:38Z</time>
      </trkpt>
      <trkpt lat="43.3592410" lon="-5.8957220">
        <ele>175.4</ele>
        <time>2018-09-15T14:20:39Z</time>
      </trkpt>
      <trkpt lat="43.3592230" lon="-5.8956510">
        <ele>175.4</ele>
        <time>2018-09-15T14:20:40Z</time>
      </trkpt>
      <trkpt lat="43.3592130" lon="-5.8955710">
        <ele>175.4</ele>
        <time>2018-09-15T14:20:41Z</time>
      </trkpt>
      <trkpt lat="43.3591910" lon="-5.8955110">
        <ele>175.4</ele>
        <time>2018-09-15T14:20:42Z</time>
      </trkpt>
      <trkpt lat="43.3591870" lon="-5.8954340">
        <ele>175.4</ele>
        <time>2018-09-15T14:20:43Z</time>
      </trkpt>
      <trkpt lat="43.3591850" lon="-5.8953520">
        <ele>175.4</ele>
        <time>2018-09-15T14:20:44Z</time>
      </trkpt>
      <trkpt lat="43.3591890" lon="-5.8952740">
        <ele>175.4</ele>
        <time>2018-09-15T14:20:45Z</time>
      </trkpt>
      <trkpt lat="43.3591900" lon="-5.8951900">
        <ele>175.5</ele>
        <time>2018-09-15T14:20:46Z</time>
      </trkpt>
      <trkpt lat="43.3591970" lon="-5.8951060">
        <ele>175.5</ele>
        <time>2018-09-15T14:20:47Z</time>
      </trkpt>
      <trkpt lat="43.3592060" lon="-5.8950330">
        <ele>175.6</ele>
        <time>2018-09-15T14:20:48Z</time>
      </trkpt>
      <trkpt lat="43.3592000" lon="-5.8949660">
        <ele>175.6</ele>
        <time>2018-09-15T14:20:49Z</time>
      </trkpt>
      <trkpt lat="43.3592030" lon="-5.8948790">
        <ele>175.7</ele>
        <time>2018-09-15T14:20:50Z</time>
      </trkpt>
      <trkpt lat="43.3592110" lon="-5.8947990">
        <ele>175.8</ele>
        <time>2018-09-15T14:20:51Z</time>
      </trkpt>
      <trkpt lat="43.3592220" lon="-5.8947200">
        <ele>175.8</ele>
        <time>2018-09-15T14:20:52Z</time>
      </trkpt>
      <trkpt lat="43.3592280" lon="-5.8946450">
        <ele>175.9</ele>
        <time>2018-09-15T14:20:53Z</time>
      </trkpt>
      <trkpt lat="43.3592280" lon="-5.8945730">
        <ele>175.9</ele>
        <time>2018-09-15T14:20:54Z</time>
      </trkpt>
      <trkpt lat="43.3592360" lon="-5.8944970">
        <ele>176.0</ele>
        <time>2018-09-15T14:20:55Z</time>
      </trkpt>
      <trkpt lat="43.3592470" lon="-5.8944140">
        <ele>176.1</ele>
        <time>2018-09-15T14:20:56Z</time>
      </trkpt>
      <trkpt lat="43.3592560" lon="-5.8943390">
        <ele>176.2</ele>
        <time>2018-09-15T14:20:57Z</time>
      </trkpt>
      <trkpt lat="43.3592640" lon="-5.8942690">
        <ele>176.4</ele>
        <time>2018-09-15T14:20:58Z</time>
      </trkpt>
      <trkpt lat="43.3592720" lon="-5.8941880">
        <ele>176.5</ele>
        <time>2018-09-15T14:20:59Z</time>
      </trkpt>
      <trkpt lat="43.3592840" lon="-5.8941070">
        <ele>176.6</ele>
        <time>2018-09-15T14:21:00Z</time>
      </trkpt>
      <trkpt lat="43.3592900" lon="-5.8940420">
        <ele>176.7</ele>
        <time>2018-09-15T14:21:01Z</time>
      </trkpt>
      <trkpt lat="43.3593010" lon="-5.8939660">
        <ele>176.8</ele>
        <time>2018-09-15T14:21:02Z</time>
      </trkpt>
      <trkpt lat="43.3593120" lon="-5.8938880">
        <ele>176.9</ele>
        <time>2018-09-15T14:21:03Z</time>
      </trkpt>
      <trkpt lat="43.3593340" lon="-5.8938050">
        <ele>176.9</ele>
        <time>2018-09-15T14:21:04Z</time>
      </trkpt>
      <trkpt lat="43.3593460" lon="-5.8937200">
        <ele>177.0</ele>
        <time>2018-09-15T14:21:05Z</time>
      </trkpt>
      <trkpt lat="43.3593690" lon="-5.8936560">
        <ele>177.0</ele>
        <time>2018-09-15T14:21:06Z</time>
      </trkpt>
      <trkpt lat="43.3593870" lon="-5.8935880">
        <ele>177.0</ele>
        <time>2018-09-15T14:21:07Z</time>
      </trkpt>
      <trkpt lat="43.3594100" lon="-5.8935170">
        <ele>176.9</ele>
        <time>2018-09-15T14:21:08Z</time>
      </trkpt>
      <trkpt lat="43.3594290" lon="-5.8934340">
        <ele>176.7</ele>
        <time>2018-09-15T14:21:09Z</time>
      </trkpt>
      <trkpt lat="43.3594490" lon="-5.8933570">
        <ele>176.5</ele>
        <time>2018-09-15T14:21:10Z</time>
      </trkpt>
      <trkpt lat="43.3594740" lon="-5.8932740">
        <ele>176.3</ele>
        <time>2018-09-15T14:21:11Z</time>
      </trkpt>
      <trkpt lat="43.3594970" lon="-5.8931990">
        <ele>176.1</ele>
        <time>2018-09-15T14:21:12Z</time>
      </trkpt>
      <trkpt lat="43.3595170" lon="-5.8931190">
        <ele>176.0</ele>
        <time>2018-09-15T14:21:13Z</time>
      </trkpt>
      <trkpt lat="43.3595420" lon="-5.8930320">
        <ele>175.8</ele>
        <time>2018-09-15T14:21:14Z</time>
      </trkpt>
      <trkpt lat="43.3595600" lon="-5.8929570">
        <ele>175.6</ele>
        <time>2018-09-15T14:21:15Z</time>
      </trkpt>
      <trkpt lat="43.3595760" lon="-5.8928740">
        <ele>175.5</ele>
        <time>2018-09-15T14:21:16Z</time>
      </trkpt>
      <trkpt lat="43.3595980" lon="-5.8927960">
        <ele>175.3</ele>
        <time>2018-09-15T14:21:17Z</time>
      </trkpt>
      <trkpt lat="43.3596150" lon="-5.8927220">
        <ele>175.2</ele>
        <time>2018-09-15T14:21:18Z</time>
      </trkpt>
      <trkpt lat="43.3596340" lon="-5.8926440">
        <ele>175.0</ele>
        <time>2018-09-15T14:21:19Z</time>
      </trkpt>
      <trkpt lat="43.3596520" lon="-5.8925660">
        <ele>175.0</ele>
        <time>2018-09-15T14:21:20Z</time>
      </trkpt>
      <trkpt lat="43.3596700" lon="-5.8924910">
        <ele>175.0</ele>
        <time>2018-09-15T14:21:21Z</time>
      </trkpt>
      <trkpt lat="43.3596860" lon="-5.8924160">
        <ele>175.0</ele>
        <time>2018-09-15T14:21:23Z</time>
      </trkpt>
      <trkpt lat="43.3597020" lon="-5.8923410">
        <ele>175.0</ele>
        <time>2018-09-15T14:21:24Z</time>
      </trkpt>
      <trkpt lat="43.3597190" lon="-5.8922660">
        <ele>175.0</ele>
        <time>2018-09-15T14:21:25Z</time>
      </trkpt>
      <trkpt lat="43.3597410" lon="-5.8921940">
        <ele>175.0</ele>
        <time>2018-09-15T14:21:26Z</time>
      </trkpt>
      <trkpt lat="43.3597580" lon="-5.8921230">
        <ele>175.0</ele>
        <time>2018-09-15T14:21:27Z</time>
      </trkpt>
      <trkpt lat="43.3597680" lon="-5.8920510">
        <ele>175.0</ele>
        <time>2018-09-15T14:21:28Z</time>
      </trkpt>
      <trkpt lat="43.3597740" lon="-5.8919840">
        <ele>174.9</ele>
        <time>2018-09-15T14:21:29Z</time>
      </trkpt>
      <trkpt lat="43.3597850" lon="-5.8919090">
        <ele>174.8</ele>
        <time>2018-09-15T14:21:30Z</time>
      </trkpt>
      <trkpt lat="43.3597950" lon="-5.8918380">
        <ele>174.8</ele>
        <time>2018-09-15T14:21:31Z</time>
      </trkpt>
      <trkpt lat="43.3598080" lon="-5.8917610">
        <ele>174.6</ele>
        <time>2018-09-15T14:21:32Z</time>
      </trkpt>
      <trkpt lat="43.3598140" lon="-5.8916860">
        <ele>174.5</ele>
        <time>2018-09-15T14:21:33Z</time>
      </trkpt>
      <trkpt lat="43.3598290" lon="-5.8916250">
        <ele>174.4</ele>
        <time>2018-09-15T14:21:34Z</time>
      </trkpt>
      <trkpt lat="43.3598420" lon="-5.8915540">
        <ele>174.4</ele>
        <time>2018-09-15T14:21:35Z</time>
      </trkpt>
      <trkpt lat="43.3598510" lon="-5.8914780">
        <ele>174.3</ele>
        <time>2018-09-15T14:21:36Z</time>
      </trkpt>
      <trkpt lat="43.3598670" lon="-5.8914050">
        <ele>174.3</ele>
        <time>2018-09-15T14:21:37Z</time>
      </trkpt>
      <trkpt lat="43.3598970" lon="-5.8912600">
        <ele>174.2</ele>
        <time>2018-09-15T14:21:38Z</time>
      </trkpt>
      <trkpt lat="43.3599040" lon="-5.8912260">
        <ele>174.2</ele>
        <time>2018-09-15T14:21:39Z</time>
      </trkpt>
      <trkpt lat="43.3599100" lon="-5.8911910">
        <ele>174.2</ele>
        <time>2018-09-15T14:21:40Z</time>
      </trkpt>
      <trkpt lat="43.3599190" lon="-5.8911160">
        <ele>174.2</ele>
        <time>2018-09-15T14:21:41Z</time>
      </trkpt>
      <trkpt lat="43.3599290" lon="-5.8910440">
        <ele>174.1</ele>
        <time>2018-09-15T14:21:42Z</time>
      </trkpt>
      <trkpt lat="43.3599400" lon="-5.8909760">
        <ele>174.1</ele>
        <time>2018-09-15T14:21:43Z</time>
      </trkpt>
      <trkpt lat="43.3599770" lon="-5.8908320">
        <ele>174.1</ele>
        <time>2018-09-15T14:21:44Z</time>
      </trkpt>
      <trkpt lat="43.3599900" lon="-5.8907750">
        <ele>174.2</ele>
        <time>2018-09-15T14:21:45Z</time>
      </trkpt>
      <trkpt lat="43.3600020" lon="-5.8907170">
        <ele>174.2</ele>
        <time>2018-09-15T14:21:46Z</time>
      </trkpt>
      <trkpt lat="43.3600260" lon="-5.8906020">
        <ele>174.2</ele>
        <time>2018-09-15T14:21:47Z</time>
      </trkpt>
      <trkpt lat="43.3600590" lon="-5.8905180">
        <ele>174.2</ele>
        <time>2018-09-15T14:21:48Z</time>
      </trkpt>
      <trkpt lat="43.3600860" lon="-5.8904490">
        <ele>174.2</ele>
        <time>2018-09-15T14:21:49Z</time>
      </trkpt>
      <trkpt lat="43.3601240" lon="-5.8903740">
        <ele>174.2</ele>
        <time>2018-09-15T14:21:50Z</time>
      </trkpt>
      <trkpt lat="43.3601600" lon="-5.8902910">
        <ele>174.2</ele>
        <time>2018-09-15T14:21:51Z</time>
      </trkpt>
      <trkpt lat="43.3601880" lon="-5.8902080">
        <ele>174.1</ele>
        <time>2018-09-15T14:21:52Z</time>
      </trkpt>
      <trkpt lat="43.3602220" lon="-5.8901310">
        <ele>173.9</ele>
        <time>2018-09-15T14:21:53Z</time>
      </trkpt>
      <trkpt lat="43.3602530" lon="-5.8900500">
        <ele>173.8</ele>
        <time>2018-09-15T14:21:54Z</time>
      </trkpt>
      <trkpt lat="43.3602900" lon="-5.8899690">
        <ele>173.7</ele>
        <time>2018-09-15T14:21:55Z</time>
      </trkpt>
      <trkpt lat="43.3603210" lon="-5.8898880">
        <ele>173.6</ele>
        <time>2018-09-15T14:21:56Z</time>
      </trkpt>
      <trkpt lat="43.3603550" lon="-5.8898010">
        <ele>173.5</ele>
        <time>2018-09-15T14:21:57Z</time>
      </trkpt>
      <trkpt lat="43.3603940" lon="-5.8897220">
        <ele>173.5</ele>
        <time>2018-09-15T14:21:58Z</time>
      </trkpt>
      <trkpt lat="43.3604270" lon="-5.8896320">
        <ele>173.5</ele>
        <time>2018-09-15T14:21:59Z</time>
      </trkpt>
      <trkpt lat="43.3604640" lon="-5.8895360">
        <ele>173.5</ele>
        <time>2018-09-15T14:22:00Z</time>
      </trkpt>
      <trkpt lat="43.3604830" lon="-5.8894410">
        <ele>173.6</ele>
        <time>2018-09-15T14:22:01Z</time>
      </trkpt>
      <trkpt lat="43.3605000" lon="-5.8893480">
        <ele>173.6</ele>
        <time>2018-09-15T14:22:02Z</time>
      </trkpt>
      <trkpt lat="43.3605150" lon="-5.8892490">
        <ele>173.6</ele>
        <time>2018-09-15T14:22:03Z</time>
      </trkpt>
      <trkpt lat="43.3605370" lon="-5.8891540">
        <ele>173.7</ele>
        <time>2018-09-15T14:22:04Z</time>
      </trkpt>
      <trkpt lat="43.3605500" lon="-5.8890550">
        <ele>173.7</ele>
        <time>2018-09-15T14:22:05Z</time>
      </trkpt>
      <trkpt lat="43.3605530" lon="-5.8889600">
        <ele>173.7</ele>
        <time>2018-09-15T14:22:06Z</time>
      </trkpt>
      <trkpt lat="43.3605530" lon="-5.8888610">
        <ele>173.8</ele>
        <time>2018-09-15T14:22:07Z</time>
      </trkpt>
      <trkpt lat="43.3605550" lon="-5.8887640">
        <ele>173.9</ele>
        <time>2018-09-15T14:22:08Z</time>
      </trkpt>
      <trkpt lat="43.3605550" lon="-5.8886730">
        <ele>173.9</ele>
        <time>2018-09-15T14:22:09Z</time>
      </trkpt>
      <trkpt lat="43.3605570" lon="-5.8885810">
        <ele>174.0</ele>
        <time>2018-09-15T14:22:10Z</time>
      </trkpt>
      <trkpt lat="43.3605430" lon="-5.8884950">
        <ele>174.0</ele>
        <time>2018-09-15T14:22:11Z</time>
      </trkpt>
      <trkpt lat="43.3605350" lon="-5.8884110">
        <ele>174.0</ele>
        <time>2018-09-15T14:22:12Z</time>
      </trkpt>
      <trkpt lat="43.3605310" lon="-5.8883310">
        <ele>174.0</ele>
        <time>2018-09-15T14:22:13Z</time>
      </trkpt>
      <trkpt lat="43.3605290" lon="-5.8882460">
        <ele>174.0</ele>
        <time>2018-09-15T14:22:14Z</time>
      </trkpt>
      <trkpt lat="43.3605270" lon="-5.8881660">
        <ele>174.0</ele>
        <time>2018-09-15T14:22:15Z</time>
      </trkpt>
      <trkpt lat="43.3605210" lon="-5.8880900">
        <ele>174.0</ele>
        <time>2018-09-15T14:22:16Z</time>
      </trkpt>
      <trkpt lat="43.3605190" lon="-5.8880100">
        <ele>174.0</ele>
        <time>2018-09-15T14:22:17Z</time>
      </trkpt>
      <trkpt lat="43.3605140" lon="-5.8879480">
        <ele>174.0</ele>
        <time>2018-09-15T14:22:18Z</time>
      </trkpt>
      <trkpt lat="43.3605240" lon="-5.8878700">
        <ele>174.0</ele>
        <time>2018-09-15T14:22:19Z</time>
      </trkpt>
      <trkpt lat="43.3605310" lon="-5.8878020">
        <ele>174.0</ele>
        <time>2018-09-15T14:22:20Z</time>
      </trkpt>
      <trkpt lat="43.3605310" lon="-5.8877340">
        <ele>174.0</ele>
        <time>2018-09-15T14:22:21Z</time>
      </trkpt>
      <trkpt lat="43.3605260" lon="-5.8876720">
        <ele>174.0</ele>
        <time>2018-09-15T14:22:22Z</time>
      </trkpt>
      <trkpt lat="43.3605160" lon="-5.8876200">
        <ele>174.0</ele>
        <time>2018-09-15T14:22:23Z</time>
      </trkpt>
      <trkpt lat="43.3605060" lon="-5.8875760">
        <ele>174.7</ele>
        <time>2018-09-15T14:22:24Z</time>
      </trkpt>
      <trkpt lat="43.3604860" lon="-5.8875260">
        <ele>175.4</ele>
        <time>2018-09-15T14:22:25Z</time>
      </trkpt>
      <trkpt lat="43.3604890" lon="-5.8874670">
        <ele>176.2</ele>
        <time>2018-09-15T14:22:26Z</time>
      </trkpt>
      <trkpt lat="43.3604980" lon="-5.8874070">
        <ele>177.0</ele>
        <time>2018-09-15T14:22:27Z</time>
      </trkpt>
      <trkpt lat="43.3605250" lon="-5.8873500">
        <ele>177.0</ele>
        <time>2018-09-15T14:22:28Z</time>
      </trkpt>
      <trkpt lat="43.3605560" lon="-5.8873040">
        <ele>177.0</ele>
        <time>2018-09-15T14:22:29Z</time>
      </trkpt>
      <trkpt lat="43.3605980" lon="-5.8872570">
        <ele>177.0</ele>
        <time>2018-09-15T14:22:30Z</time>
      </trkpt>
      <trkpt lat="43.3606320" lon="-5.8872320">
        <ele>177.0</ele>
        <time>2018-09-15T14:22:31Z</time>
      </trkpt>
      <trkpt lat="43.3606770" lon="-5.8872030">
        <ele>177.0</ele>
        <time>2018-09-15T14:22:32Z</time>
      </trkpt>
      <trkpt lat="43.3607200" lon="-5.8871720">
        <ele>177.1</ele>
        <time>2018-09-15T14:22:33Z</time>
      </trkpt>
      <trkpt lat="43.3607580" lon="-5.8871470">
        <ele>177.3</ele>
        <time>2018-09-15T14:22:34Z</time>
      </trkpt>
      <trkpt lat="43.3607950" lon="-5.8871130">
        <ele>177.6</ele>
        <time>2018-09-15T14:22:35Z</time>
      </trkpt>
      <trkpt lat="43.3608350" lon="-5.8870730">
        <ele>177.8</ele>
        <time>2018-09-15T14:22:36Z</time>
      </trkpt>
      <trkpt lat="43.3608760" lon="-5.8870430">
        <ele>178.0</ele>
        <time>2018-09-15T14:22:37Z</time>
      </trkpt>
      <trkpt lat="43.3609010" lon="-5.8869970">
        <ele>178.2</ele>
        <time>2018-09-15T14:22:38Z</time>
      </trkpt>
      <trkpt lat="43.3609320" lon="-5.8869590">
        <ele>178.4</ele>
        <time>2018-09-15T14:22:39Z</time>
      </trkpt>
      <trkpt lat="43.3609570" lon="-5.8869220">
        <ele>178.6</ele>
        <time>2018-09-15T14:22:40Z</time>
      </trkpt>
      <trkpt lat="43.3609970" lon="-5.8868980">
        <ele>178.8</ele>
        <time>2018-09-15T14:22:41Z</time>
      </trkpt>
      <trkpt lat="43.3610310" lon="-5.8868650">
        <ele>179.0</ele>
        <time>2018-09-15T14:22:42Z</time>
      </trkpt>
      <trkpt lat="43.3610760" lon="-5.8868290">
        <ele>179.2</ele>
        <time>2018-09-15T14:22:43Z</time>
      </trkpt>
      <trkpt lat="43.3611020" lon="-5.8868020">
        <ele>179.4</ele>
        <time>2018-09-15T14:22:44Z</time>
      </trkpt>
      <trkpt lat="43.3611390" lon="-5.8867650">
        <ele>179.6</ele>
        <time>2018-09-15T14:22:45Z</time>
      </trkpt>
      <trkpt lat="43.3611720" lon="-5.8867260">
        <ele>179.8</ele>
        <time>2018-09-15T14:22:46Z</time>
      </trkpt>
      <trkpt lat="43.3612000" lon="-5.8867000">
        <ele>180.0</ele>
        <time>2018-09-15T14:22:47Z</time>
      </trkpt>
      <trkpt lat="43.3612350" lon="-5.8866690">
        <ele>180.2</ele>
        <time>2018-09-15T14:22:48Z</time>
      </trkpt>
      <trkpt lat="43.3612770" lon="-5.8866450">
        <ele>180.4</ele>
        <time>2018-09-15T14:22:49Z</time>
      </trkpt>
      <trkpt lat="43.3613150" lon="-5.8866100">
        <ele>180.6</ele>
        <time>2018-09-15T14:22:50Z</time>
      </trkpt>
      <trkpt lat="43.3613530" lon="-5.8865780">
        <ele>180.7</ele>
        <time>2018-09-15T14:22:51Z</time>
      </trkpt>
      <trkpt lat="43.3613860" lon="-5.8865440">
        <ele>180.8</ele>
        <time>2018-09-15T14:22:52Z</time>
      </trkpt>
      <trkpt lat="43.3614200" lon="-5.8865120">
        <ele>180.9</ele>
        <time>2018-09-15T14:22:53Z</time>
      </trkpt>
      <trkpt lat="43.3614550" lon="-5.8864810">
        <ele>181.1</ele>
        <time>2018-09-15T14:22:54Z</time>
      </trkpt>
      <trkpt lat="43.3614910" lon="-5.8864490">
        <ele>181.2</ele>
        <time>2018-09-15T14:22:55Z</time>
      </trkpt>
      <trkpt lat="43.3615270" lon="-5.8864190">
        <ele>181.4</ele>
        <time>2018-09-15T14:22:56Z</time>
      </trkpt>
      <trkpt lat="43.3615620" lon="-5.8863880">
        <ele>181.6</ele>
        <time>2018-09-15T14:22:57Z</time>
      </trkpt>
      <trkpt lat="43.3615980" lon="-5.8863560">
        <ele>181.7</ele>
        <time>2018-09-15T14:22:58Z</time>
      </trkpt>
      <trkpt lat="43.3616330" lon="-5.8863230">
        <ele>181.9</ele>
        <time>2018-09-15T14:22:59Z</time>
      </trkpt>
      <trkpt lat="43.3616660" lon="-5.8862900">
        <ele>182.1</ele>
        <time>2018-09-15T14:23:00Z</time>
      </trkpt>
      <trkpt lat="43.3616980" lon="-5.8862550">
        <ele>182.3</ele>
        <time>2018-09-15T14:23:01Z</time>
      </trkpt>
      <trkpt lat="43.3617310" lon="-5.8862180">
        <ele>182.4</ele>
        <time>2018-09-15T14:23:02Z</time>
      </trkpt>
      <trkpt lat="43.3617620" lon="-5.8861810">
        <ele>182.6</ele>
        <time>2018-09-15T14:23:03Z</time>
      </trkpt>
      <trkpt lat="43.3617930" lon="-5.8861440">
        <ele>182.8</ele>
        <time>2018-09-15T14:23:04Z</time>
      </trkpt>
      <trkpt lat="43.3618230" lon="-5.8861050">
        <ele>183.0</ele>
        <time>2018-09-15T14:23:05Z</time>
      </trkpt>
      <trkpt lat="43.3618520" lon="-5.8860670">
        <ele>183.2</ele>
        <time>2018-09-15T14:23:06Z</time>
      </trkpt>
      <trkpt lat="43.3618790" lon="-5.8860270">
        <ele>183.3</ele>
        <time>2018-09-15T14:23:07Z</time>
      </trkpt>
      <trkpt lat="43.3619060" lon="-5.8859870">
        <ele>183.5</ele>
        <time>2018-09-15T14:23:08Z</time>
      </trkpt>
      <trkpt lat="43.3619340" lon="-5.8859460">
        <ele>183.7</ele>
        <time>2018-09-15T14:23:09Z</time>
      </trkpt>
      <trkpt lat="43.3619610" lon="-5.8859080">
        <ele>183.9</ele>
        <time>2018-09-15T14:23:10Z</time>
      </trkpt>
      <trkpt lat="43.3619870" lon="-5.8858690">
        <ele>184.0</ele>
        <time>2018-09-15T14:23:11Z</time>
      </trkpt>
      <trkpt lat="43.3620130" lon="-5.8858300">
        <ele>184.2</ele>
        <time>2018-09-15T14:23:12Z</time>
      </trkpt>
      <trkpt lat="43.3620410" lon="-5.8857920">
        <ele>184.4</ele>
        <time>2018-09-15T14:23:13Z</time>
      </trkpt>
      <trkpt lat="43.3620680" lon="-5.8857530">
        <ele>184.6</ele>
        <time>2018-09-15T14:23:14Z</time>
      </trkpt>
      <trkpt lat="43.3620940" lon="-5.8857140">
        <ele>184.8</ele>
        <time>2018-09-15T14:23:15Z</time>
      </trkpt>
      <trkpt lat="43.3621070" lon="-5.8856940">
        <ele>184.9</ele>
        <time>2018-09-15T14:23:16Z</time>
      </trkpt>
      <trkpt lat="43.3621400" lon="-5.8856360">
        <ele>185.1</ele>
        <time>2018-09-15T14:23:17Z</time>
      </trkpt>
      <trkpt lat="43.3621620" lon="-5.8855970">
        <ele>185.2</ele>
        <time>2018-09-15T14:23:18Z</time>
      </trkpt>
      <trkpt lat="43.3621740" lon="-5.8855770">
        <ele>185.3</ele>
        <time>2018-09-15T14:23:19Z</time>
      </trkpt>
      <trkpt lat="43.3622070" lon="-5.8855230">
        <ele>185.5</ele>
        <time>2018-09-15T14:23:20Z</time>
      </trkpt>
      <trkpt lat="43.3622320" lon="-5.8854850">
        <ele>185.7</ele>
        <time>2018-09-15T14:23:21Z</time>
      </trkpt>
      <trkpt lat="43.3622570" lon="-5.8854470">
        <ele>185.8</ele>
        <time>2018-09-15T14:23:22Z</time>
      </trkpt>
      <trkpt lat="43.3622790" lon="-5.8854060">
        <ele>185.8</ele>
        <time>2018-09-15T14:23:23Z</time>
      </trkpt>
      <trkpt lat="43.3623030" lon="-5.8853650">
        <ele>185.9</ele>
        <time>2018-09-15T14:23:24Z</time>
      </trkpt>
      <trkpt lat="43.3623280" lon="-5.8853250">
        <ele>186.0</ele>
        <time>2018-09-15T14:23:25Z</time>
      </trkpt>
      <trkpt lat="43.3623530" lon="-5.8852870">
        <ele>186.0</ele>
        <time>2018-09-15T14:23:26Z</time>
      </trkpt>
      <trkpt lat="43.3623770" lon="-5.8852500">
        <ele>186.1</ele>
        <time>2018-09-15T14:23:27Z</time>
      </trkpt>
      <trkpt lat="43.3624010" lon="-5.8852150">
        <ele>186.1</ele>
        <time>2018-09-15T14:23:28Z</time>
      </trkpt>
      <trkpt lat="43.3624250" lon="-5.8851800">
        <ele>186.2</ele>
        <time>2018-09-15T14:23:29Z</time>
      </trkpt>
      <trkpt lat="43.3624380" lon="-5.8851620">
        <ele>186.2</ele>
        <time>2018-09-15T14:23:30Z</time>
      </trkpt>
      <trkpt lat="43.3624740" lon="-5.8851120">
        <ele>186.3</ele>
        <time>2018-09-15T14:23:31Z</time>
      </trkpt>
      <trkpt lat="43.3624990" lon="-5.8850760">
        <ele>186.4</ele>
        <time>2018-09-15T14:23:32Z</time>
      </trkpt>
      <trkpt lat="43.3625220" lon="-5.8850410">
        <ele>186.4</ele>
        <time>2018-09-15T14:23:33Z</time>
      </trkpt>
      <trkpt lat="43.3625470" lon="-5.8850050">
        <ele>186.6</ele>
        <time>2018-09-15T14:23:34Z</time>
      </trkpt>
      <trkpt lat="43.3625730" lon="-5.8849670">
        <ele>186.7</ele>
        <time>2018-09-15T14:23:35Z</time>
      </trkpt>
      <trkpt lat="43.3625990" lon="-5.8849280">
        <ele>186.9</ele>
        <time>2018-09-15T14:23:37Z</time>
      </trkpt>
      <trkpt lat="43.3626250" lon="-5.8848910">
        <ele>187.0</ele>
        <time>2018-09-15T14:23:37Z</time>
      </trkpt>
      <trkpt lat="43.3626510" lon="-5.8848540">
        <ele>187.2</ele>
        <time>2018-09-15T14:23:38Z</time>
      </trkpt>
      <trkpt lat="43.3626780" lon="-5.8848180">
        <ele>187.4</ele>
        <time>2018-09-15T14:23:39Z</time>
      </trkpt>
      <trkpt lat="43.3627050" lon="-5.8847800">
        <ele>187.6</ele>
        <time>2018-09-15T14:23:40Z</time>
      </trkpt>
      <trkpt lat="43.3627320" lon="-5.8847410">
        <ele>187.7</ele>
        <time>2018-09-15T14:23:41Z</time>
      </trkpt>
      <trkpt lat="43.3627600" lon="-5.8847010">
        <ele>187.9</ele>
        <time>2018-09-15T14:23:42Z</time>
      </trkpt>
      <trkpt lat="43.3627880" lon="-5.8846610">
        <ele>188.1</ele>
        <time>2018-09-15T14:23:43Z</time>
      </trkpt>
      <trkpt lat="43.3628140" lon="-5.8846230">
        <ele>188.2</ele>
        <time>2018-09-15T14:23:44Z</time>
      </trkpt>
      <trkpt lat="43.3628410" lon="-5.8845830">
        <ele>188.3</ele>
        <time>2018-09-15T14:23:46Z</time>
      </trkpt>
      <trkpt lat="43.3628680" lon="-5.8845450">
        <ele>188.4</ele>
        <time>2018-09-15T14:23:46Z</time>
      </trkpt>
      <trkpt lat="43.3628940" lon="-5.8845060">
        <ele>188.4</ele>
        <time>2018-09-15T14:23:48Z</time>
      </trkpt>
      <trkpt lat="43.3629190" lon="-5.8844650">
        <ele>188.5</ele>
        <time>2018-09-15T14:23:49Z</time>
      </trkpt>
      <trkpt lat="43.3629430" lon="-5.8844250">
        <ele>188.5</ele>
        <time>2018-09-15T14:23:50Z</time>
      </trkpt>
      <trkpt lat="43.3629660" lon="-5.8843860">
        <ele>188.6</ele>
        <time>2018-09-15T14:23:51Z</time>
      </trkpt>
      <trkpt lat="43.3629890" lon="-5.8843450">
        <ele>188.6</ele>
        <time>2018-09-15T14:23:52Z</time>
      </trkpt>
      <trkpt lat="43.3630130" lon="-5.8843030">
        <ele>188.6</ele>
        <time>2018-09-15T14:23:53Z</time>
      </trkpt>
      <trkpt lat="43.3630250" lon="-5.8842810">
        <ele>188.6</ele>
        <time>2018-09-15T14:23:54Z</time>
      </trkpt>
      <trkpt lat="43.3630580" lon="-5.8842250">
        <ele>188.7</ele>
        <time>2018-09-15T14:23:55Z</time>
      </trkpt>
      <trkpt lat="43.3630820" lon="-5.8841850">
        <ele>188.7</ele>
        <time>2018-09-15T14:23:55Z</time>
      </trkpt>
      <trkpt lat="43.3631070" lon="-5.8841440">
        <ele>188.7</ele>
        <time>2018-09-15T14:23:57Z</time>
      </trkpt>
      <trkpt lat="43.3631320" lon="-5.8841070">
        <ele>188.7</ele>
        <time>2018-09-15T14:23:58Z</time>
      </trkpt>
      <trkpt lat="43.3631560" lon="-5.8840690">
        <ele>188.8</ele>
        <time>2018-09-15T14:23:59Z</time>
      </trkpt>
      <trkpt lat="43.3631810" lon="-5.8840300">
        <ele>188.8</ele>
        <time>2018-09-15T14:24:00Z</time>
      </trkpt>
      <trkpt lat="43.3632050" lon="-5.8839930">
        <ele>188.8</ele>
        <time>2018-09-15T14:24:01Z</time>
      </trkpt>
      <trkpt lat="43.3632290" lon="-5.8839550">
        <ele>188.8</ele>
        <time>2018-09-15T14:24:02Z</time>
      </trkpt>
      <trkpt lat="43.3632540" lon="-5.8839170">
        <ele>188.8</ele>
        <time>2018-09-15T14:24:03Z</time>
      </trkpt>
      <trkpt lat="43.3632780" lon="-5.8838760">
        <ele>188.9</ele>
        <time>2018-09-15T14:24:04Z</time>
      </trkpt>
      <trkpt lat="43.3633020" lon="-5.8838340">
        <ele>188.9</ele>
        <time>2018-09-15T14:24:05Z</time>
      </trkpt>
      <trkpt lat="43.3633270" lon="-5.8837930">
        <ele>188.9</ele>
        <time>2018-09-15T14:24:06Z</time>
      </trkpt>
      <trkpt lat="43.3633500" lon="-5.8837500">
        <ele>188.9</ele>
        <time>2018-09-15T14:24:07Z</time>
      </trkpt>
      <trkpt lat="43.3633720" lon="-5.8837040">
        <ele>188.9</ele>
        <time>2018-09-15T14:24:08Z</time>
      </trkpt>
      <trkpt lat="43.3633920" lon="-5.8836560">
        <ele>189.0</ele>
        <time>2018-09-15T14:24:09Z</time>
      </trkpt>
      <trkpt lat="43.3634120" lon="-5.8836070">
        <ele>189.0</ele>
        <time>2018-09-15T14:24:09Z</time>
      </trkpt>
      <trkpt lat="43.3634330" lon="-5.8835590">
        <ele>189.0</ele>
        <time>2018-09-15T14:24:11Z</time>
      </trkpt>
      <trkpt lat="43.3634540" lon="-5.8835130">
        <ele>188.8</ele>
        <time>2018-09-15T14:24:12Z</time>
      </trkpt>
      <trkpt lat="43.3634740" lon="-5.8834670">
        <ele>188.3</ele>
        <time>2018-09-15T14:24:13Z</time>
      </trkpt>
      <trkpt lat="43.3635030" lon="-5.8833680">
        <ele>187.4</ele>
        <time>2018-09-15T14:24:14Z</time>
      </trkpt>
      <trkpt lat="43.3635100" lon="-5.8833150">
        <ele>187.0</ele>
        <time>2018-09-15T14:24:15Z</time>
      </trkpt>
      <trkpt lat="43.3635140" lon="-5.8832590">
        <ele>186.5</ele>
        <time>2018-09-15T14:24:16Z</time>
      </trkpt>
      <trkpt lat="43.3635140" lon="-5.8832020">
        <ele>186.1</ele>
        <time>2018-09-15T14:24:17Z</time>
      </trkpt>
      <trkpt lat="43.3635090" lon="-5.8831440">
        <ele>185.6</ele>
        <time>2018-09-15T14:24:18Z</time>
      </trkpt>
      <trkpt lat="43.3635010" lon="-5.8830860">
        <ele>185.0</ele>
        <time>2018-09-15T14:24:19Z</time>
      </trkpt>
      <trkpt lat="43.3634910" lon="-5.8830280">
        <ele>185.0</ele>
        <time>2018-09-15T14:24:20Z</time>
      </trkpt>
      <trkpt lat="43.3634830" lon="-5.8829680">
        <ele>185.0</ele>
        <time>2018-09-15T14:24:21Z</time>
      </trkpt>
      <trkpt lat="43.3634800" lon="-5.8829090">
        <ele>185.0</ele>
        <time>2018-09-15T14:24:22Z</time>
      </trkpt>
      <trkpt lat="43.3634800" lon="-5.8828830">
        <ele>185.0</ele>
        <time>2018-09-15T14:24:23Z</time>
      </trkpt>
      <trkpt lat="43.3635000" lon="-5.8828210">
        <ele>185.0</ele>
        <time>2018-09-15T14:24:24Z</time>
      </trkpt>
      <trkpt lat="43.3635200" lon="-5.8827590">
        <ele>185.0</ele>
        <time>2018-09-15T14:24:25Z</time>
      </trkpt>
      <trkpt lat="43.3635560" lon="-5.8827180">
        <ele>185.0</ele>
        <time>2018-09-15T14:24:26Z</time>
      </trkpt>
      <trkpt lat="43.3635970" lon="-5.8826840">
        <ele>184.9</ele>
        <time>2018-09-15T14:24:27Z</time>
      </trkpt>
      <trkpt lat="43.3636370" lon="-5.8826500">
        <ele>184.8</ele>
        <time>2018-09-15T14:24:28Z</time>
      </trkpt>
      <trkpt lat="43.3636730" lon="-5.8826140">
        <ele>184.6</ele>
        <time>2018-09-15T14:24:29Z</time>
      </trkpt>
      <trkpt lat="43.3637170" lon="-5.8825600">
        <ele>184.4</ele>
        <time>2018-09-15T14:24:30Z</time>
      </trkpt>
      <trkpt lat="43.3637340" lon="-5.8825080">
        <ele>184.3</ele>
        <time>2018-09-15T14:24:31Z</time>
      </trkpt>
      <trkpt lat="43.3637530" lon="-5.8824570">
        <ele>184.2</ele>
        <time>2018-09-15T14:24:32Z</time>
      </trkpt>
      <trkpt lat="43.3637660" lon="-5.8824040">
        <ele>184.1</ele>
        <time>2018-09-15T14:24:33Z</time>
      </trkpt>
      <trkpt lat="43.3637810" lon="-5.8823520">
        <ele>184.0</ele>
        <time>2018-09-15T14:24:34Z</time>
      </trkpt>
      <trkpt lat="43.3637880" lon="-5.8822930">
        <ele>184.0</ele>
        <time>2018-09-15T14:24:35Z</time>
      </trkpt>
      <trkpt lat="43.3637990" lon="-5.8822350">
        <ele>184.0</ele>
        <time>2018-09-15T14:24:36Z</time>
      </trkpt>
      <trkpt lat="43.3638050" lon="-5.8821780">
        <ele>184.0</ele>
        <time>2018-09-15T14:24:37Z</time>
      </trkpt>
      <trkpt lat="43.3638110" lon="-5.8821260">
        <ele>184.0</ele>
        <time>2018-09-15T14:24:38Z</time>
      </trkpt>
      <trkpt lat="43.3638100" lon="-5.8820720">
        <ele>184.0</ele>
        <time>2018-09-15T14:24:39Z</time>
      </trkpt>
      <trkpt lat="43.3638160" lon="-5.8820170">
        <ele>184.0</ele>
        <time>2018-09-15T14:24:40Z</time>
      </trkpt>
      <trkpt lat="43.3638220" lon="-5.8819670">
        <ele>184.0</ele>
        <time>2018-09-15T14:24:41Z</time>
      </trkpt>
      <trkpt lat="43.3638310" lon="-5.8819110">
        <ele>184.6</ele>
        <time>2018-09-15T14:24:42Z</time>
      </trkpt>
      <trkpt lat="43.3638300" lon="-5.8818560">
        <ele>185.2</ele>
        <time>2018-09-15T14:24:43Z</time>
      </trkpt>
      <trkpt lat="43.3638310" lon="-5.8818030">
        <ele>185.7</ele>
        <time>2018-09-15T14:24:44Z</time>
      </trkpt>
      <trkpt lat="43.3638330" lon="-5.8817500">
        <ele>186.2</ele>
        <time>2018-09-15T14:24:45Z</time>
      </trkpt>
      <trkpt lat="43.3638340" lon="-5.8816950">
        <ele>186.7</ele>
        <time>2018-09-15T14:24:46Z</time>
      </trkpt>
      <trkpt lat="43.3638350" lon="-5.8816400">
        <ele>187.2</ele>
        <time>2018-09-15T14:24:47Z</time>
      </trkpt>
      <trkpt lat="43.3638360" lon="-5.8815850">
        <ele>187.6</ele>
        <time>2018-09-15T14:24:48Z</time>
      </trkpt>
      <trkpt lat="43.3638370" lon="-5.8815300">
        <ele>188.1</ele>
        <time>2018-09-15T14:24:49Z</time>
      </trkpt>
      <trkpt lat="43.3638370" lon="-5.8814760">
        <ele>188.5</ele>
        <time>2018-09-15T14:24:50Z</time>
      </trkpt>
      <trkpt lat="43.3638380" lon="-5.8814220">
        <ele>188.9</ele>
        <time>2018-09-15T14:24:51Z</time>
      </trkpt>
      <trkpt lat="43.3638380" lon="-5.8813670">
        <ele>189.2</ele>
        <time>2018-09-15T14:24:52Z</time>
      </trkpt>
      <trkpt lat="43.3638380" lon="-5.8813090">
        <ele>189.7</ele>
        <time>2018-09-15T14:24:53Z</time>
      </trkpt>
      <trkpt lat="43.3638370" lon="-5.8812530">
        <ele>190.0</ele>
        <time>2018-09-15T14:24:54Z</time>
      </trkpt>
      <trkpt lat="43.3638350" lon="-5.8811970">
        <ele>190.4</ele>
        <time>2018-09-15T14:24:55Z</time>
      </trkpt>
      <trkpt lat="43.3638340" lon="-5.8811420">
        <ele>190.8</ele>
        <time>2018-09-15T14:24:56Z</time>
      </trkpt>
      <trkpt lat="43.3638350" lon="-5.8810890">
        <ele>191.2</ele>
        <time>2018-09-15T14:24:57Z</time>
      </trkpt>
      <trkpt lat="43.3638350" lon="-5.8810360">
        <ele>191.6</ele>
        <time>2018-09-15T14:24:58Z</time>
      </trkpt>
      <trkpt lat="43.3638350" lon="-5.8809840">
        <ele>192.0</ele>
        <time>2018-09-15T14:24:59Z</time>
      </trkpt>
      <trkpt lat="43.3638360" lon="-5.8809320">
        <ele>192.4</ele>
        <time>2018-09-15T14:25:00Z</time>
      </trkpt>
      <trkpt lat="43.3638380" lon="-5.8808790">
        <ele>192.8</ele>
        <time>2018-09-15T14:25:01Z</time>
      </trkpt>
      <trkpt lat="43.3638380" lon="-5.8808270">
        <ele>193.2</ele>
        <time>2018-09-15T14:25:02Z</time>
      </trkpt>
      <trkpt lat="43.3638370" lon="-5.8807760">
        <ele>193.6</ele>
        <time>2018-09-15T14:25:03Z</time>
      </trkpt>
      <trkpt lat="43.3638360" lon="-5.8807230">
        <ele>194.0</ele>
        <time>2018-09-15T14:25:04Z</time>
      </trkpt>
      <trkpt lat="43.3638350" lon="-5.8806720">
        <ele>194.1</ele>
        <time>2018-09-15T14:25:05Z</time>
      </trkpt>
      <trkpt lat="43.3638370" lon="-5.8806210">
        <ele>194.2</ele>
        <time>2018-09-15T14:25:06Z</time>
      </trkpt>
      <trkpt lat="43.3638380" lon="-5.8805700">
        <ele>194.2</ele>
        <time>2018-09-15T14:25:07Z</time>
      </trkpt>
      <trkpt lat="43.3638390" lon="-5.8805180">
        <ele>194.3</ele>
        <time>2018-09-15T14:25:08Z</time>
      </trkpt>
      <trkpt lat="43.3638390" lon="-5.8804660">
        <ele>194.4</ele>
        <time>2018-09-15T14:25:09Z</time>
      </trkpt>
      <trkpt lat="43.3638410" lon="-5.8804160">
        <ele>194.5</ele>
        <time>2018-09-15T14:25:10Z</time>
      </trkpt>
      <trkpt lat="43.3638430" lon="-5.8803650">
        <ele>194.5</ele>
        <time>2018-09-15T14:25:11Z</time>
      </trkpt>
      <trkpt lat="43.3638440" lon="-5.8803140">
        <ele>194.6</ele>
        <time>2018-09-15T14:25:12Z</time>
      </trkpt>
      <trkpt lat="43.3638460" lon="-5.8802630">
        <ele>194.7</ele>
        <time>2018-09-15T14:25:13Z</time>
      </trkpt>
      <trkpt lat="43.3638470" lon="-5.8802350">
        <ele>194.7</ele>
        <time>2018-09-15T14:25:14Z</time>
      </trkpt>
      <trkpt lat="43.3638480" lon="-5.8801980">
        <ele>194.8</ele>
        <time>2018-09-15T14:25:15Z</time>
      </trkpt>
      <trkpt lat="43.3638490" lon="-5.8801550">
        <ele>194.8</ele>
        <time>2018-09-15T14:25:16Z</time>
      </trkpt>
      <trkpt lat="43.3638500" lon="-5.8800660">
        <ele>194.9</ele>
        <time>2018-09-15T14:25:17Z</time>
      </trkpt>
      <trkpt lat="43.3638510" lon="-5.8800170">
        <ele>195.0</ele>
        <time>2018-09-15T14:25:18Z</time>
      </trkpt>
      <trkpt lat="43.3638510" lon="-5.8799910">
        <ele>195.0</ele>
        <time>2018-09-15T14:25:19Z</time>
      </trkpt>
      <trkpt lat="43.3638510" lon="-5.8799560">
        <ele>195.1</ele>
        <time>2018-09-15T14:25:20Z</time>
      </trkpt>
      <trkpt lat="43.3638510" lon="-5.8799130">
        <ele>195.1</ele>
        <time>2018-09-15T14:25:21Z</time>
      </trkpt>
      <trkpt lat="43.3638520" lon="-5.8798710">
        <ele>195.1</ele>
        <time>2018-09-15T14:25:22Z</time>
      </trkpt>
      <trkpt lat="43.3638530" lon="-5.8798290">
        <ele>195.2</ele>
        <time>2018-09-15T14:25:23Z</time>
      </trkpt>
      <trkpt lat="43.3638540" lon="-5.8797870">
        <ele>195.2</ele>
        <time>2018-09-15T14:25:24Z</time>
      </trkpt>
      <trkpt lat="43.3638550" lon="-5.8797500">
        <ele>195.2</ele>
        <time>2018-09-15T14:25:25Z</time>
      </trkpt>
      <trkpt lat="43.3638550" lon="-5.8796450">
        <ele>195.3</ele>
        <time>2018-09-15T14:25:26Z</time>
      </trkpt>
      <trkpt lat="43.3638560" lon="-5.8795960">
        <ele>195.4</ele>
        <time>2018-09-15T14:25:27Z</time>
      </trkpt>
      <trkpt lat="43.3638580" lon="-5.8795470">
        <ele>195.4</ele>
        <time>2018-09-15T14:25:28Z</time>
      </trkpt>
      <trkpt lat="43.3638600" lon="-5.8794970">
        <ele>195.5</ele>
        <time>2018-09-15T14:25:29Z</time>
      </trkpt>
      <trkpt lat="43.3638630" lon="-5.8794450">
        <ele>195.5</ele>
        <time>2018-09-15T14:25:30Z</time>
      </trkpt>
      <trkpt lat="43.3638620" lon="-5.8794190">
        <ele>195.5</ele>
        <time>2018-09-15T14:25:31Z</time>
      </trkpt>
      <trkpt lat="43.3638610" lon="-5.8793500">
        <ele>195.6</ele>
        <time>2018-09-15T14:25:32Z</time>
      </trkpt>
      <trkpt lat="43.3638600" lon="-5.8793230">
        <ele>195.6</ele>
        <time>2018-09-15T14:25:33Z</time>
      </trkpt>
      <trkpt lat="43.3638580" lon="-5.8792860">
        <ele>195.7</ele>
        <time>2018-09-15T14:25:34Z</time>
      </trkpt>
      <trkpt lat="43.3638590" lon="-5.8791970">
        <ele>195.8</ele>
        <time>2018-09-15T14:25:35Z</time>
      </trkpt>
      <trkpt lat="43.3638590" lon="-5.8791440">
        <ele>195.8</ele>
        <time>2018-09-15T14:25:36Z</time>
      </trkpt>
      <trkpt lat="43.3638600" lon="-5.8790920">
        <ele>195.9</ele>
        <time>2018-09-15T14:25:37Z</time>
      </trkpt>
      <trkpt lat="43.3638610" lon="-5.8790410">
        <ele>195.9</ele>
        <time>2018-09-15T14:25:38Z</time>
      </trkpt>
      <trkpt lat="43.3638610" lon="-5.8789910">
        <ele>196.0</ele>
        <time>2018-09-15T14:25:39Z</time>
      </trkpt>
      <trkpt lat="43.3638610" lon="-5.8789790">
        <ele>196.0</ele>
        <time>2018-09-15T14:25:40Z</time>
      </trkpt>
      <trkpt lat="43.3638610" lon="-5.8789580">
        <ele>196.0</ele>
        <time>2018-09-15T14:25:41Z</time>
      </trkpt>
      <trkpt lat="43.3638600" lon="-5.8789280">
        <ele>196.0</ele>
        <time>2018-09-15T14:25:42Z</time>
      </trkpt>
      <trkpt lat="43.3638600" lon="-5.8789000">
        <ele>196.0</ele>
        <time>2018-09-15T14:25:43Z</time>
      </trkpt>
      <trkpt lat="43.3638610" lon="-5.8788370">
        <ele>196.1</ele>
        <time>2018-09-15T14:25:44Z</time>
      </trkpt>
      <trkpt lat="43.3638610" lon="-5.8787820">
        <ele>196.1</ele>
        <time>2018-09-15T14:25:45Z</time>
      </trkpt>
      <trkpt lat="43.3638580" lon="-5.8787360">
        <ele>196.1</ele>
        <time>2018-09-15T14:25:46Z</time>
      </trkpt>
      <trkpt lat="43.3638570" lon="-5.8786840">
        <ele>196.1</ele>
        <time>2018-09-15T14:25:47Z</time>
      </trkpt>
      <trkpt lat="43.3638560" lon="-5.8786420">
        <ele>196.1</ele>
        <time>2018-09-15T14:25:48Z</time>
      </trkpt>
      <trkpt lat="43.3638560" lon="-5.8785900">
        <ele>196.1</ele>
        <time>2018-09-15T14:25:49Z</time>
      </trkpt>
      <trkpt lat="43.3638570" lon="-5.8785390">
        <ele>196.1</ele>
        <time>2018-09-15T14:25:50Z</time>
      </trkpt>
      <trkpt lat="43.3638590" lon="-5.8784910">
        <ele>196.2</ele>
        <time>2018-09-15T14:25:51Z</time>
      </trkpt>
      <trkpt lat="43.3638590" lon="-5.8784420">
        <ele>196.2</ele>
        <time>2018-09-15T14:25:52Z</time>
      </trkpt>
      <trkpt lat="43.3638580" lon="-5.8783890">
        <ele>196.2</ele>
        <time>2018-09-15T14:25:53Z</time>
      </trkpt>
      <trkpt lat="43.3638590" lon="-5.8783340">
        <ele>196.3</ele>
        <time>2018-09-15T14:25:54Z</time>
      </trkpt>
      <trkpt lat="43.3638570" lon="-5.8782910">
        <ele>196.3</ele>
        <time>2018-09-15T14:25:55Z</time>
      </trkpt>
      <trkpt lat="43.3638570" lon="-5.8782400">
        <ele>196.3</ele>
        <time>2018-09-15T14:25:56Z</time>
      </trkpt>
      <trkpt lat="43.3638570" lon="-5.8781990">
        <ele>196.4</ele>
        <time>2018-09-15T14:25:57Z</time>
      </trkpt>
      <trkpt lat="43.3638570" lon="-5.8781520">
        <ele>196.4</ele>
        <time>2018-09-15T14:25:58Z</time>
      </trkpt>
      <trkpt lat="43.3638590" lon="-5.8781110">
        <ele>196.5</ele>
        <time>2018-09-15T14:25:59Z</time>
      </trkpt>
      <trkpt lat="43.3638600" lon="-5.8780670">
        <ele>196.5</ele>
        <time>2018-09-15T14:26:00Z</time>
      </trkpt>
      <trkpt lat="43.3638600" lon="-5.8780260">
        <ele>196.6</ele>
        <time>2018-09-15T14:26:01Z</time>
      </trkpt>
      <trkpt lat="43.3638530" lon="-5.8779900">
        <ele>196.6</ele>
        <time>2018-09-15T14:26:02Z</time>
      </trkpt>
      <trkpt lat="43.3638340" lon="-5.8779590">
        <ele>196.7</ele>
        <time>2018-09-15T14:26:03Z</time>
      </trkpt>
      <trkpt lat="43.3638150" lon="-5.8779420">
        <ele>197.0</ele>
        <time>2018-09-15T14:26:04Z</time>
      </trkpt>
      <trkpt lat="43.3637900" lon="-5.8779330">
        <ele>197.0</ele>
        <time>2018-09-15T14:26:05Z</time>
      </trkpt>
      <trkpt lat="43.3637600" lon="-5.8779330">
        <ele>197.0</ele>
        <time>2018-09-15T14:26:06Z</time>
      </trkpt>
      <trkpt lat="43.3636680" lon="-5.8779460">
        <ele>197.0</ele>
        <time>2018-09-15T14:26:07Z</time>
      </trkpt>
      <trkpt lat="43.3636310" lon="-5.8779730">
        <ele>197.0</ele>
        <time>2018-09-15T14:26:08Z</time>
      </trkpt>
      <trkpt lat="43.3635940" lon="-5.8780020">
        <ele>197.2</ele>
        <time>2018-09-15T14:26:09Z</time>
      </trkpt>
      <trkpt lat="43.3635560" lon="-5.8780260">
        <ele>198.0</ele>
        <time>2018-09-15T14:26:10Z</time>
      </trkpt>
      <trkpt lat="43.3635190" lon="-5.8780480">
        <ele>198.8</ele>
        <time>2018-09-15T14:26:11Z</time>
      </trkpt>
      <trkpt lat="43.3635000" lon="-5.8780590">
        <ele>199.2</ele>
        <time>2018-09-15T14:26:12Z</time>
      </trkpt>
      <trkpt lat="43.3634500" lon="-5.8780860">
        <ele>200.3</ele>
        <time>2018-09-15T14:26:13Z</time>
      </trkpt>
      <trkpt lat="43.3634140" lon="-5.8781060">
        <ele>201.0</ele>
        <time>2018-09-15T14:26:14Z</time>
      </trkpt>
      <trkpt lat="43.3633790" lon="-5.8781240">
        <ele>201.8</ele>
        <time>2018-09-15T14:26:15Z</time>
      </trkpt>
      <trkpt lat="43.3633430" lon="-5.8781370">
        <ele>202.5</ele>
        <time>2018-09-15T14:26:16Z</time>
      </trkpt>
      <trkpt lat="43.3633250" lon="-5.8781410">
        <ele>202.9</ele>
        <time>2018-09-15T14:26:17Z</time>
      </trkpt>
      <trkpt lat="43.3632960" lon="-5.8781440">
        <ele>205.0</ele>
        <time>2018-09-15T14:26:18Z</time>
      </trkpt>
      <trkpt lat="43.3632740" lon="-5.8781340">
        <ele>205.0</ele>
        <time>2018-09-15T14:26:19Z</time>
      </trkpt>
      <trkpt lat="43.3632500" lon="-5.8781070">
        <ele>205.0</ele>
        <time>2018-09-15T14:26:20Z</time>
      </trkpt>
      <trkpt lat="43.3632190" lon="-5.8780300">
        <ele>205.0</ele>
        <time>2018-09-15T14:26:21Z</time>
      </trkpt>
      <trkpt lat="43.3632200" lon="-5.8780010">
        <ele>205.0</ele>
        <time>2018-09-15T14:26:22Z</time>
      </trkpt>
      <trkpt lat="43.3632250" lon="-5.8779570">
        <ele>205.0</ele>
        <time>2018-09-15T14:26:23Z</time>
      </trkpt>
      <trkpt lat="43.3632310" lon="-5.8779180">
        <ele>205.0</ele>
        <time>2018-09-15T14:26:24Z</time>
      </trkpt>
      <trkpt lat="43.3632400" lon="-5.8778730">
        <ele>205.0</ele>
        <time>2018-09-15T14:26:25Z</time>
      </trkpt>
      <trkpt lat="43.3632480" lon="-5.8778280">
        <ele>205.0</ele>
        <time>2018-09-15T14:26:26Z</time>
      </trkpt>
      <trkpt lat="43.3632580" lon="-5.8777840">
        <ele>205.0</ele>
        <time>2018-09-15T14:26:27Z</time>
      </trkpt>
      <trkpt lat="43.3632630" lon="-5.8777510">
        <ele>205.0</ele>
        <time>2018-09-15T14:26:28Z</time>
      </trkpt>
      <trkpt lat="43.3632680" lon="-5.8777250">
        <ele>205.0</ele>
        <time>2018-09-15T14:26:29Z</time>
      </trkpt>
      <trkpt lat="43.3632730" lon="-5.8776970">
        <ele>205.0</ele>
        <time>2018-09-15T14:26:30Z</time>
      </trkpt>
      <trkpt lat="43.3632860" lon="-5.8776390">
        <ele>205.0</ele>
        <time>2018-09-15T14:26:31Z</time>
      </trkpt>
      <trkpt lat="43.3632980" lon="-5.8775860">
        <ele>204.9</ele>
        <time>2018-09-15T14:26:32Z</time>
      </trkpt>
      <trkpt lat="43.3633100" lon="-5.8775300">
        <ele>204.9</ele>
        <time>2018-09-15T14:26:33Z</time>
      </trkpt>
      <trkpt lat="43.3633210" lon="-5.8774780">
        <ele>204.8</ele>
        <time>2018-09-15T14:26:34Z</time>
      </trkpt>
      <trkpt lat="43.3633300" lon="-5.8774340">
        <ele>204.8</ele>
        <time>2018-09-15T14:26:35Z</time>
      </trkpt>
      <trkpt lat="43.3633390" lon="-5.8773900">
        <ele>204.7</ele>
        <time>2018-09-15T14:26:36Z</time>
      </trkpt>
      <trkpt lat="43.3633480" lon="-5.8773390">
        <ele>204.7</ele>
        <time>2018-09-15T14:26:37Z</time>
      </trkpt>
      <trkpt lat="43.3633530" lon="-5.8772980">
        <ele>204.6</ele>
        <time>2018-09-15T14:26:38Z</time>
      </trkpt>
      <trkpt lat="43.3633610" lon="-5.8772510">
        <ele>204.6</ele>
        <time>2018-09-15T14:26:39Z</time>
      </trkpt>
      <trkpt lat="43.3633660" lon="-5.8772050">
        <ele>204.5</ele>
        <time>2018-09-15T14:26:40Z</time>
      </trkpt>
      <trkpt lat="43.3633700" lon="-5.8771650">
        <ele>204.4</ele>
        <time>2018-09-15T14:26:41Z</time>
      </trkpt>
      <trkpt lat="43.3633760" lon="-5.8771240">
        <ele>204.3</ele>
        <time>2018-09-15T14:26:42Z</time>
      </trkpt>
      <trkpt lat="43.3633860" lon="-5.8770770">
        <ele>204.2</ele>
        <time>2018-09-15T14:26:43Z</time>
      </trkpt>
      <trkpt lat="43.3633940" lon="-5.8770310">
        <ele>204.1</ele>
        <time>2018-09-15T14:26:44Z</time>
      </trkpt>
      <trkpt lat="43.3634000" lon="-5.8769920">
        <ele>204.0</ele>
        <time>2018-09-15T14:26:45Z</time>
      </trkpt>
      <trkpt lat="43.3634070" lon="-5.8769430">
        <ele>203.9</ele>
        <time>2018-09-15T14:26:46Z</time>
      </trkpt>
      <trkpt lat="43.3634160" lon="-5.8768900">
        <ele>203.7</ele>
        <time>2018-09-15T14:26:47Z</time>
      </trkpt>
      <trkpt lat="43.3634200" lon="-5.8768430">
        <ele>203.6</ele>
        <time>2018-09-15T14:26:48Z</time>
      </trkpt>
      <trkpt lat="43.3634330" lon="-5.8767230">
        <ele>203.2</ele>
        <time>2018-09-15T14:26:49Z</time>
      </trkpt>
      <trkpt lat="43.3634370" lon="-5.8766990">
        <ele>203.1</ele>
        <time>2018-09-15T14:26:50Z</time>
      </trkpt>
      <trkpt lat="43.3634430" lon="-5.8766700">
        <ele>203.1</ele>
        <time>2018-09-15T14:26:51Z</time>
      </trkpt>
      <trkpt lat="43.3634530" lon="-5.8766290">
        <ele>203.0</ele>
        <time>2018-09-15T14:26:52Z</time>
      </trkpt>
      <trkpt lat="43.3634600" lon="-5.8765930">
        <ele>203.0</ele>
        <time>2018-09-15T14:26:53Z</time>
      </trkpt>
      <trkpt lat="43.3634680" lon="-5.8765480">
        <ele>203.0</ele>
        <time>2018-09-15T14:26:54Z</time>
      </trkpt>
      <trkpt lat="43.3634750" lon="-5.8765040">
        <ele>203.0</ele>
        <time>2018-09-15T14:26:55Z</time>
      </trkpt>
      <trkpt lat="43.3634820" lon="-5.8764590">
        <ele>203.0</ele>
        <time>2018-09-15T14:26:56Z</time>
      </trkpt>
      <trkpt lat="43.3634890" lon="-5.8764140">
        <ele>203.0</ele>
        <time>2018-09-15T14:26:57Z</time>
      </trkpt>
      <trkpt lat="43.3634930" lon="-5.8763740">
        <ele>203.0</ele>
        <time>2018-09-15T14:26:58Z</time>
      </trkpt>
      <trkpt lat="43.3634970" lon="-5.8763320">
        <ele>203.0</ele>
        <time>2018-09-15T14:26:59Z</time>
      </trkpt>
      <trkpt lat="43.3634990" lon="-5.8762900">
        <ele>203.0</ele>
        <time>2018-09-15T14:27:00Z</time>
      </trkpt>
      <trkpt lat="43.3635040" lon="-5.8762410">
        <ele>203.0</ele>
        <time>2018-09-15T14:27:01Z</time>
      </trkpt>
      <trkpt lat="43.3635050" lon="-5.8762000">
        <ele>203.0</ele>
        <time>2018-09-15T14:27:02Z</time>
      </trkpt>
      <trkpt lat="43.3635060" lon="-5.8761550">
        <ele>203.0</ele>
        <time>2018-09-15T14:27:03Z</time>
      </trkpt>
      <trkpt lat="43.3635040" lon="-5.8761050">
        <ele>203.0</ele>
        <time>2018-09-15T14:27:04Z</time>
      </trkpt>
      <trkpt lat="43.3635030" lon="-5.8760580">
        <ele>203.0</ele>
        <time>2018-09-15T14:27:05Z</time>
      </trkpt>
      <trkpt lat="43.3635020" lon="-5.8760170">
        <ele>203.0</ele>
        <time>2018-09-15T14:27:06Z</time>
      </trkpt>
      <trkpt lat="43.3635040" lon="-5.8759700">
        <ele>203.0</ele>
        <time>2018-09-15T14:27:07Z</time>
      </trkpt>
      <trkpt lat="43.3635050" lon="-5.8759270">
        <ele>203.0</ele>
        <time>2018-09-15T14:27:08Z</time>
      </trkpt>
      <trkpt lat="43.3635090" lon="-5.8758760">
        <ele>203.1</ele>
        <time>2018-09-15T14:27:09Z</time>
      </trkpt>
      <trkpt lat="43.3635120" lon="-5.8758340">
        <ele>203.2</ele>
        <time>2018-09-15T14:27:10Z</time>
      </trkpt>
      <trkpt lat="43.3635200" lon="-5.8757120">
        <ele>203.4</ele>
        <time>2018-09-15T14:27:11Z</time>
      </trkpt>
      <trkpt lat="43.3635280" lon="-5.8756620">
        <ele>203.5</ele>
        <time>2018-09-15T14:27:12Z</time>
      </trkpt>
      <trkpt lat="43.3635370" lon="-5.8756130">
        <ele>203.6</ele>
        <time>2018-09-15T14:27:13Z</time>
      </trkpt>
      <trkpt lat="43.3635420" lon="-5.8755870">
        <ele>203.6</ele>
        <time>2018-09-15T14:27:14Z</time>
      </trkpt>
      <trkpt lat="43.3635550" lon="-5.8755140">
        <ele>203.8</ele>
        <time>2018-09-15T14:27:15Z</time>
      </trkpt>
      <trkpt lat="43.3635680" lon="-5.8754360">
        <ele>203.9</ele>
        <time>2018-09-15T14:27:17Z</time>
      </trkpt>
      <trkpt lat="43.3635820" lon="-5.8753650">
        <ele>204.0</ele>
        <time>2018-09-15T14:27:18Z</time>
      </trkpt>
      <trkpt lat="43.3635910" lon="-5.8753170">
        <ele>204.1</ele>
        <time>2018-09-15T14:27:19Z</time>
      </trkpt>
      <trkpt lat="43.3635970" lon="-5.8752910">
        <ele>204.2</ele>
        <time>2018-09-15T14:27:20Z</time>
      </trkpt>
      <trkpt lat="43.3636140" lon="-5.8752200">
        <ele>204.3</ele>
        <time>2018-09-15T14:27:21Z</time>
      </trkpt>
      <trkpt lat="43.3636260" lon="-5.8751700">
        <ele>204.4</ele>
        <time>2018-09-15T14:27:22Z</time>
      </trkpt>
      <trkpt lat="43.3636360" lon="-5.8751210">
        <ele>204.5</ele>
        <time>2018-09-15T14:27:23Z</time>
      </trkpt>
      <trkpt lat="43.3636440" lon="-5.8750720">
        <ele>204.6</ele>
        <time>2018-09-15T14:27:24Z</time>
      </trkpt>
      <trkpt lat="43.3636470" lon="-5.8750460">
        <ele>204.7</ele>
        <time>2018-09-15T14:27:25Z</time>
      </trkpt>
      <trkpt lat="43.3636580" lon="-5.8749740">
        <ele>204.8</ele>
        <time>2018-09-15T14:27:26Z</time>
      </trkpt>
      <trkpt lat="43.3636670" lon="-5.8749210">
        <ele>205.0</ele>
        <time>2018-09-15T14:27:27Z</time>
      </trkpt>
      <trkpt lat="43.3636750" lon="-5.8748690">
        <ele>205.2</ele>
        <time>2018-09-15T14:27:28Z</time>
      </trkpt>
      <trkpt lat="43.3636840" lon="-5.8748170">
        <ele>205.3</ele>
        <time>2018-09-15T14:27:29Z</time>
      </trkpt>
      <trkpt lat="43.3636940" lon="-5.8747640">
        <ele>205.5</ele>
        <time>2018-09-15T14:27:30Z</time>
      </trkpt>
      <trkpt lat="43.3637040" lon="-5.8747090">
        <ele>205.6</ele>
        <time>2018-09-15T14:27:31Z</time>
      </trkpt>
      <trkpt lat="43.3637140" lon="-5.8746530">
        <ele>205.7</ele>
        <time>2018-09-15T14:27:32Z</time>
      </trkpt>
      <trkpt lat="43.3637230" lon="-5.8746000">
        <ele>205.8</ele>
        <time>2018-09-15T14:27:33Z</time>
      </trkpt>
      <trkpt lat="43.3637270" lon="-5.8745750">
        <ele>205.9</ele>
        <time>2018-09-15T14:27:34Z</time>
      </trkpt>
      <trkpt lat="43.3637360" lon="-5.8745050">
        <ele>206.0</ele>
        <time>2018-09-15T14:27:35Z</time>
      </trkpt>
      <trkpt lat="43.3637430" lon="-5.8744560">
        <ele>206.1</ele>
        <time>2018-09-15T14:27:36Z</time>
      </trkpt>
      <trkpt lat="43.3637530" lon="-5.8744040">
        <ele>206.3</ele>
        <time>2018-09-15T14:27:37Z</time>
      </trkpt>
      <trkpt lat="43.3637620" lon="-5.8743510">
        <ele>206.3</ele>
        <time>2018-09-15T14:27:38Z</time>
      </trkpt>
      <trkpt lat="43.3637700" lon="-5.8742970">
        <ele>206.4</ele>
        <time>2018-09-15T14:27:39Z</time>
      </trkpt>
      <trkpt lat="43.3637790" lon="-5.8742410">
        <ele>206.5</ele>
        <time>2018-09-15T14:27:40Z</time>
      </trkpt>
      <trkpt lat="43.3637820" lon="-5.8742160">
        <ele>206.5</ele>
        <time>2018-09-15T14:27:41Z</time>
      </trkpt>
      <trkpt lat="43.3637840" lon="-5.8741900">
        <ele>206.6</ele>
        <time>2018-09-15T14:27:42Z</time>
      </trkpt>
      <trkpt lat="43.3637880" lon="-5.8741280">
        <ele>206.6</ele>
        <time>2018-09-15T14:27:43Z</time>
      </trkpt>
      <trkpt lat="43.3637920" lon="-5.8740660">
        <ele>206.7</ele>
        <time>2018-09-15T14:27:44Z</time>
      </trkpt>
      <trkpt lat="43.3637990" lon="-5.8740090">
        <ele>206.8</ele>
        <time>2018-09-15T14:27:45Z</time>
      </trkpt>
      <trkpt lat="43.3638050" lon="-5.8739530">
        <ele>206.9</ele>
        <time>2018-09-15T14:27:46Z</time>
      </trkpt>
      <trkpt lat="43.3638080" lon="-5.8739250">
        <ele>207.0</ele>
        <time>2018-09-15T14:27:47Z</time>
      </trkpt>
      <trkpt lat="43.3638090" lon="-5.8738230">
        <ele>207.0</ele>
        <time>2018-09-15T14:27:48Z</time>
      </trkpt>
      <trkpt lat="43.3638040" lon="-5.8737990">
        <ele>207.0</ele>
        <time>2018-09-15T14:27:49Z</time>
      </trkpt>
      <trkpt lat="43.3637970" lon="-5.8737630">
        <ele>207.0</ele>
        <time>2018-09-15T14:27:50Z</time>
      </trkpt>
      <trkpt lat="43.3637900" lon="-5.8737250">
        <ele>207.0</ele>
        <time>2018-09-15T14:27:51Z</time>
      </trkpt>
      <trkpt lat="43.3637780" lon="-5.8736810">
        <ele>207.0</ele>
        <time>2018-09-15T14:27:52Z</time>
      </trkpt>
      <trkpt lat="43.3637670" lon="-5.8736390">
        <ele>207.0</ele>
        <time>2018-09-15T14:27:53Z</time>
      </trkpt>
      <trkpt lat="43.3637610" lon="-5.8735960">
        <ele>207.0</ele>
        <time>2018-09-15T14:27:54Z</time>
      </trkpt>
      <trkpt lat="43.3637570" lon="-5.8735590">
        <ele>207.0</ele>
        <time>2018-09-15T14:27:55Z</time>
      </trkpt>
      <trkpt lat="43.3637550" lon="-5.8735240">
        <ele>207.0</ele>
        <time>2018-09-15T14:27:56Z</time>
      </trkpt>
      <trkpt lat="43.3637530" lon="-5.8734800">
        <ele>207.0</ele>
        <time>2018-09-15T14:27:57Z</time>
      </trkpt>
      <trkpt lat="43.3637580" lon="-5.8734320">
        <ele>207.0</ele>
        <time>2018-09-15T14:27:58Z</time>
      </trkpt>
      <trkpt lat="43.3637640" lon="-5.8733900">
        <ele>207.0</ele>
        <time>2018-09-15T14:27:59Z</time>
      </trkpt>
      <trkpt lat="43.3637720" lon="-5.8733480">
        <ele>207.3</ele>
        <time>2018-09-15T14:28:00Z</time>
      </trkpt>
      <trkpt lat="43.3637830" lon="-5.8733100">
        <ele>208.3</ele>
        <time>2018-09-15T14:28:01Z</time>
      </trkpt>
      <trkpt lat="43.3637940" lon="-5.8732640">
        <ele>209.5</ele>
        <time>2018-09-15T14:28:02Z</time>
      </trkpt>
      <trkpt lat="43.3638070" lon="-5.8732250">
        <ele>210.6</ele>
        <time>2018-09-15T14:28:03Z</time>
      </trkpt>
      <trkpt lat="43.3638250" lon="-5.8731830">
        <ele>211.0</ele>
        <time>2018-09-15T14:28:04Z</time>
      </trkpt>
      <trkpt lat="43.3638430" lon="-5.8731490">
        <ele>211.0</ele>
        <time>2018-09-15T14:28:05Z</time>
      </trkpt>
      <trkpt lat="43.3638960" lon="-5.8730560">
        <ele>211.0</ele>
        <time>2018-09-15T14:28:06Z</time>
      </trkpt>
      <trkpt lat="43.3639200" lon="-5.8730160">
        <ele>211.0</ele>
        <time>2018-09-15T14:28:07Z</time>
      </trkpt>
      <trkpt lat="43.3639420" lon="-5.8729730">
        <ele>211.0</ele>
        <time>2018-09-15T14:28:08Z</time>
      </trkpt>
      <trkpt lat="43.3639510" lon="-5.8729530">
        <ele>211.0</ele>
        <time>2018-09-15T14:28:09Z</time>
      </trkpt>
      <trkpt lat="43.3639600" lon="-5.8729320">
        <ele>211.0</ele>
        <time>2018-09-15T14:28:10Z</time>
      </trkpt>
      <trkpt lat="43.3639750" lon="-5.8728450">
        <ele>211.0</ele>
        <time>2018-09-15T14:28:11Z</time>
      </trkpt>
      <trkpt lat="43.3639840" lon="-5.8727750">
        <ele>211.0</ele>
        <time>2018-09-15T14:28:12Z</time>
      </trkpt>
      <trkpt lat="43.3639870" lon="-5.8727230">
        <ele>211.0</ele>
        <time>2018-09-15T14:28:13Z</time>
      </trkpt>
      <trkpt lat="43.3639900" lon="-5.8726730">
        <ele>211.0</ele>
        <time>2018-09-15T14:28:14Z</time>
      </trkpt>
      <trkpt lat="43.3639890" lon="-5.8726190">
        <ele>210.9</ele>
        <time>2018-09-15T14:28:15Z</time>
      </trkpt>
      <trkpt lat="43.3639810" lon="-5.8725670">
        <ele>210.9</ele>
        <time>2018-09-15T14:28:16Z</time>
      </trkpt>
      <trkpt lat="43.3639840" lon="-5.8725130">
        <ele>210.8</ele>
        <time>2018-09-15T14:28:17Z</time>
      </trkpt>
      <trkpt lat="43.3639810" lon="-5.8724660">
        <ele>210.8</ele>
        <time>2018-09-15T14:28:18Z</time>
      </trkpt>
      <trkpt lat="43.3639860" lon="-5.8724130">
        <ele>210.8</ele>
        <time>2018-09-15T14:28:19Z</time>
      </trkpt>
      <trkpt lat="43.3639900" lon="-5.8723610">
        <ele>210.7</ele>
        <time>2018-09-15T14:28:20Z</time>
      </trkpt>
      <trkpt lat="43.3639900" lon="-5.8723550">
        <ele>210.7</ele>
        <time>2018-09-15T14:28:21Z</time>
      </trkpt>
      <trkpt lat="43.3639960" lon="-5.8723330">
        <ele>210.7</ele>
        <time>2018-09-15T14:28:22Z</time>
      </trkpt>
      <trkpt lat="43.3640050" lon="-5.8723130">
        <ele>210.7</ele>
        <time>2018-09-15T14:28:23Z</time>
      </trkpt>
      <trkpt lat="43.3640190" lon="-5.8722600">
        <ele>210.7</ele>
        <time>2018-09-15T14:28:24Z</time>
      </trkpt>
      <trkpt lat="43.3640270" lon="-5.8722170">
        <ele>210.6</ele>
        <time>2018-09-15T14:28:25Z</time>
      </trkpt>
      <trkpt lat="43.3640440" lon="-5.8721650">
        <ele>210.6</ele>
        <time>2018-09-15T14:28:26Z</time>
      </trkpt>
      <trkpt lat="43.3640560" lon="-5.8721210">
        <ele>210.6</ele>
        <time>2018-09-15T14:28:27Z</time>
      </trkpt>
      <trkpt lat="43.3640710" lon="-5.8720760">
        <ele>210.6</ele>
        <time>2018-09-15T14:28:28Z</time>
      </trkpt>
      <trkpt lat="43.3640840" lon="-5.8720310">
        <ele>210.5</ele>
        <time>2018-09-15T14:28:29Z</time>
      </trkpt>
      <trkpt lat="43.3640940" lon="-5.8719900">
        <ele>210.5</ele>
        <time>2018-09-15T14:28:30Z</time>
      </trkpt>
      <trkpt lat="43.3641090" lon="-5.8719460">
        <ele>210.6</ele>
        <time>2018-09-15T14:28:31Z</time>
      </trkpt>
      <trkpt lat="43.3641240" lon="-5.8719020">
        <ele>210.6</ele>
        <time>2018-09-15T14:28:32Z</time>
      </trkpt>
      <trkpt lat="43.3641370" lon="-5.8718650">
        <ele>210.6</ele>
        <time>2018-09-15T14:28:33Z</time>
      </trkpt>
      <trkpt lat="43.3641450" lon="-5.8718390">
        <ele>210.7</ele>
        <time>2018-09-15T14:28:34Z</time>
      </trkpt>
      <trkpt lat="43.3641550" lon="-5.8718110">
        <ele>210.7</ele>
        <time>2018-09-15T14:28:35Z</time>
      </trkpt>
      <trkpt lat="43.3641670" lon="-5.8717780">
        <ele>210.8</ele>
        <time>2018-09-15T14:28:36Z</time>
      </trkpt>
      <trkpt lat="43.3641770" lon="-5.8717420">
        <ele>210.9</ele>
        <time>2018-09-15T14:28:37Z</time>
      </trkpt>
      <trkpt lat="43.3642080" lon="-5.8716220">
        <ele>211.1</ele>
        <time>2018-09-15T14:28:38Z</time>
      </trkpt>
      <trkpt lat="43.3642220" lon="-5.8715860">
        <ele>211.2</ele>
        <time>2018-09-15T14:28:39Z</time>
      </trkpt>
      <trkpt lat="43.3642390" lon="-5.8715400">
        <ele>211.3</ele>
        <time>2018-09-15T14:28:40Z</time>
      </trkpt>
      <trkpt lat="43.3642740" lon="-5.8714510">
        <ele>211.5</ele>
        <time>2018-09-15T14:28:41Z</time>
      </trkpt>
      <trkpt lat="43.3642810" lon="-5.8714280">
        <ele>211.6</ele>
        <time>2018-09-15T14:28:42Z</time>
      </trkpt>
      <trkpt lat="43.3642980" lon="-5.8713940">
        <ele>211.7</ele>
        <time>2018-09-15T14:28:43Z</time>
      </trkpt>
      <trkpt lat="43.3643110" lon="-5.8713630">
        <ele>211.7</ele>
        <time>2018-09-15T14:28:44Z</time>
      </trkpt>
      <trkpt lat="43.3643290" lon="-5.8713270">
        <ele>211.9</ele>
        <time>2018-09-15T14:28:45Z</time>
      </trkpt>
      <trkpt lat="43.3643410" lon="-5.8712950">
        <ele>211.9</ele>
        <time>2018-09-15T14:28:46Z</time>
      </trkpt>
      <trkpt lat="43.3643580" lon="-5.8712550">
        <ele>212.1</ele>
        <time>2018-09-15T14:28:47Z</time>
      </trkpt>
      <trkpt lat="43.3643630" lon="-5.8712240">
        <ele>212.1</ele>
        <time>2018-09-15T14:28:48Z</time>
      </trkpt>
      <trkpt lat="43.3643700" lon="-5.8711910">
        <ele>212.2</ele>
        <time>2018-09-15T14:28:49Z</time>
      </trkpt>
      <trkpt lat="43.3643760" lon="-5.8711600">
        <ele>212.3</ele>
        <time>2018-09-15T14:28:50Z</time>
      </trkpt>
      <trkpt lat="43.3643900" lon="-5.8711150">
        <ele>212.6</ele>
        <time>2018-09-15T14:28:51Z</time>
      </trkpt>
      <trkpt lat="43.3644070" lon="-5.8710600">
        <ele>213.1</ele>
        <time>2018-09-15T14:28:52Z</time>
      </trkpt>
      <trkpt lat="43.3644250" lon="-5.8710010">
        <ele>213.5</ele>
        <time>2018-09-15T14:28:53Z</time>
      </trkpt>
      <trkpt lat="43.3644410" lon="-5.8709430">
        <ele>213.9</ele>
        <time>2018-09-15T14:28:54Z</time>
      </trkpt>
      <trkpt lat="43.3644800" lon="-5.8708300">
        <ele>214.4</ele>
        <time>2018-09-15T14:28:55Z</time>
      </trkpt>
      <trkpt lat="43.3645000" lon="-5.8707810">
        <ele>214.5</ele>
        <time>2018-09-15T14:28:56Z</time>
      </trkpt>
      <trkpt lat="43.3645070" lon="-5.8707560">
        <ele>214.6</ele>
        <time>2018-09-15T14:28:57Z</time>
      </trkpt>
      <trkpt lat="43.3645270" lon="-5.8706890">
        <ele>214.8</ele>
        <time>2018-09-15T14:28:58Z</time>
      </trkpt>
      <trkpt lat="43.3645330" lon="-5.8706620">
        <ele>214.9</ele>
        <time>2018-09-15T14:28:59Z</time>
      </trkpt>
      <trkpt lat="43.3645510" lon="-5.8705860">
        <ele>215.1</ele>
        <time>2018-09-15T14:29:00Z</time>
      </trkpt>
      <trkpt lat="43.3645590" lon="-5.8705660">
        <ele>215.1</ele>
        <time>2018-09-15T14:29:01Z</time>
      </trkpt>
      <trkpt lat="43.3645800" lon="-5.8705080">
        <ele>215.3</ele>
        <time>2018-09-15T14:29:02Z</time>
      </trkpt>
      <trkpt lat="43.3645880" lon="-5.8704880">
        <ele>215.3</ele>
        <time>2018-09-15T14:29:03Z</time>
      </trkpt>
      <trkpt lat="43.3646020" lon="-5.8704610">
        <ele>215.4</ele>
        <time>2018-09-15T14:29:04Z</time>
      </trkpt>
      <trkpt lat="43.3646220" lon="-5.8703920">
        <ele>215.6</ele>
        <time>2018-09-15T14:29:05Z</time>
      </trkpt>
      <trkpt lat="43.3646350" lon="-5.8703720">
        <ele>215.6</ele>
        <time>2018-09-15T14:29:06Z</time>
      </trkpt>
      <trkpt lat="43.3646520" lon="-5.8703430">
        <ele>215.7</ele>
        <time>2018-09-15T14:29:07Z</time>
      </trkpt>
      <trkpt lat="43.3646680" lon="-5.8703120">
        <ele>215.8</ele>
        <time>2018-09-15T14:29:08Z</time>
      </trkpt>
      <trkpt lat="43.3646880" lon="-5.8702820">
        <ele>215.9</ele>
        <time>2018-09-15T14:29:09Z</time>
      </trkpt>
      <trkpt lat="43.3647110" lon="-5.8702540">
        <ele>216.2</ele>
        <time>2018-09-15T14:29:10Z</time>
      </trkpt>
      <trkpt lat="43.3647350" lon="-5.8702280">
        <ele>216.4</ele>
        <time>2018-09-15T14:29:11Z</time>
      </trkpt>
      <trkpt lat="43.3647620" lon="-5.8702030">
        <ele>216.6</ele>
        <time>2018-09-15T14:29:12Z</time>
      </trkpt>
      <trkpt lat="43.3647890" lon="-5.8701830">
        <ele>216.7</ele>
        <time>2018-09-15T14:29:13Z</time>
      </trkpt>
      <trkpt lat="43.3648150" lon="-5.8701640">
        <ele>216.9</ele>
        <time>2018-09-15T14:29:14Z</time>
      </trkpt>
      <trkpt lat="43.3648410" lon="-5.8701410">
        <ele>217.1</ele>
        <time>2018-09-15T14:29:15Z</time>
      </trkpt>
      <trkpt lat="43.3648560" lon="-5.8701210">
        <ele>217.2</ele>
        <time>2018-09-15T14:29:16Z</time>
      </trkpt>
      <trkpt lat="43.3648690" lon="-5.8700900">
        <ele>217.4</ele>
        <time>2018-09-15T14:29:17Z</time>
      </trkpt>
      <trkpt lat="43.3648810" lon="-5.8700610">
        <ele>217.5</ele>
        <time>2018-09-15T14:29:18Z</time>
      </trkpt>
      <trkpt lat="43.3649040" lon="-5.8700060">
        <ele>217.8</ele>
        <time>2018-09-15T14:29:19Z</time>
      </trkpt>
      <trkpt lat="43.3649250" lon="-5.8699540">
        <ele>218.0</ele>
        <time>2018-09-15T14:29:20Z</time>
      </trkpt>
      <trkpt lat="43.3649430" lon="-5.8699060">
        <ele>218.0</ele>
        <time>2018-09-15T14:29:21Z</time>
      </trkpt>
      <trkpt lat="43.3649600" lon="-5.8698590">
        <ele>216.5</ele>
        <time>2018-09-15T14:29:22Z</time>
      </trkpt>
      <trkpt lat="43.3649740" lon="-5.8698190">
        <ele>215.9</ele>
        <time>2018-09-15T14:29:23Z</time>
      </trkpt>
      <trkpt lat="43.3650050" lon="-5.8697300">
        <ele>215.2</ele>
        <time>2018-09-15T14:29:25Z</time>
      </trkpt>
      <trkpt lat="43.3650180" lon="-5.8696870">
        <ele>215.5</ele>
        <time>2018-09-15T14:29:26Z</time>
      </trkpt>
      <trkpt lat="43.3650340" lon="-5.8696390">
        <ele>215.8</ele>
        <time>2018-09-15T14:29:27Z</time>
      </trkpt>
      <trkpt lat="43.3650490" lon="-5.8695980">
        <ele>216.1</ele>
        <time>2018-09-15T14:29:28Z</time>
      </trkpt>
      <trkpt lat="43.3650490" lon="-5.8695980">
        <ele>216.1</ele>
        <time>2018-09-15T14:29:29Z</time>
      </trkpt>
      <trkpt lat="43.3650590" lon="-5.8695710">
        <ele>216.2</ele>
        <time>2018-09-15T14:29:30Z</time>
      </trkpt>
      <trkpt lat="43.3650860" lon="-5.8695180">
        <ele>216.6</ele>
        <time>2018-09-15T14:29:31Z</time>
      </trkpt>
    </trkseg>
  </trk>
</gpx>
